<?xml version="1.0" encoding="UTF-8" standalone="no" ?>
<gpx xmlns="http://www.topografix.com/GPX/1/1" xmlns:xsi="http://www.w3.org/2001/XMLSchema-instance" xsi:schemaLocation="http://www.topografix.com/GPX/1/1 http://www.topografix.com/GPX/1/1/gpx.xsd" version="1.1" creator="VisuGPX - https://www.visugpx.com">
  <metadata>
    <name>Randonnée des résurgences de l'Ouysse </name>
    <desc><![CDATA[Si vous n'aimez pas l'eau ça sera compliqué. Un petit peu de goudron sur la fin pour rentrer à la voiture, il aurait fallu faire un beau détour pour l'éviter.]]></desc>
  </metadata>
  <trk>
    <name><![CDATA[Randonnée des résurgences de l'Ouysse _1]]></name>
    <trkseg>
      <trkpt lat="44.79655" lon="1.56123">
        <ele>151.9</ele>
        <time>2024-12-25T11:27:00Z</time>
      </trkpt>
      <trkpt lat="44.79655" lon="1.56123">
        <ele>151.9</ele>
        <time>2024-12-25T11:27:01Z</time>
      </trkpt>
      <trkpt lat="44.79655" lon="1.56124">
        <ele>152</ele>
        <time>2024-12-25T11:27:02Z</time>
      </trkpt>
      <trkpt lat="44.79654" lon="1.56123">
        <ele>152</ele>
        <time>2024-12-25T11:27:03Z</time>
      </trkpt>
      <trkpt lat="44.79654" lon="1.56123">
        <ele>152</ele>
        <time>2024-12-25T11:27:04Z</time>
      </trkpt>
      <trkpt lat="44.79653" lon="1.56123">
        <ele>152.1</ele>
        <time>2024-12-25T11:27:05Z</time>
      </trkpt>
      <trkpt lat="44.7965" lon="1.56125">
        <ele>152.2</ele>
        <time>2024-12-25T11:27:06Z</time>
      </trkpt>
      <trkpt lat="44.7965" lon="1.56126">
        <ele>152.3</ele>
        <time>2024-12-25T11:27:07Z</time>
      </trkpt>
      <trkpt lat="44.79649" lon="1.56128">
        <ele>152.3</ele>
        <time>2024-12-25T11:27:08Z</time>
      </trkpt>
      <trkpt lat="44.79648" lon="1.56128">
        <ele>152.4</ele>
        <time>2024-12-25T11:27:09Z</time>
      </trkpt>
      <trkpt lat="44.79647" lon="1.56128">
        <ele>152.4</ele>
        <time>2024-12-25T11:27:10Z</time>
      </trkpt>
      <trkpt lat="44.79647" lon="1.5613">
        <ele>152.4</ele>
        <time>2024-12-25T11:27:11Z</time>
      </trkpt>
      <trkpt lat="44.79646" lon="1.5613">
        <ele>152.5</ele>
        <time>2024-12-25T11:27:12Z</time>
      </trkpt>
      <trkpt lat="44.79645" lon="1.56131">
        <ele>152.5</ele>
        <time>2024-12-25T11:27:13Z</time>
      </trkpt>
      <trkpt lat="44.79644" lon="1.56132">
        <ele>152.6</ele>
        <time>2024-12-25T11:27:14Z</time>
      </trkpt>
      <trkpt lat="44.79643" lon="1.56133">
        <ele>152.7</ele>
        <time>2024-12-25T11:27:15Z</time>
      </trkpt>
      <trkpt lat="44.79642" lon="1.56134">
        <ele>152.8</ele>
        <time>2024-12-25T11:27:16Z</time>
      </trkpt>
      <trkpt lat="44.79641" lon="1.56136">
        <ele>153</ele>
        <time>2024-12-25T11:27:17Z</time>
      </trkpt>
      <trkpt lat="44.7964" lon="1.56137">
        <ele>153.1</ele>
        <time>2024-12-25T11:27:18Z</time>
      </trkpt>
      <trkpt lat="44.79637" lon="1.56138">
        <ele>153.3</ele>
        <time>2024-12-25T11:27:19Z</time>
      </trkpt>
      <trkpt lat="44.79636" lon="1.56138">
        <ele>153.4</ele>
        <time>2024-12-25T11:27:20Z</time>
      </trkpt>
      <trkpt lat="44.79636" lon="1.56139">
        <ele>153.5</ele>
        <time>2024-12-25T11:27:21Z</time>
      </trkpt>
      <trkpt lat="44.79634" lon="1.5614">
        <ele>153.7</ele>
        <time>2024-12-25T11:27:22Z</time>
      </trkpt>
      <trkpt lat="44.79633" lon="1.56141">
        <ele>153.8</ele>
        <time>2024-12-25T11:27:23Z</time>
      </trkpt>
      <trkpt lat="44.79631" lon="1.56142">
        <ele>154</ele>
        <time>2024-12-25T11:27:24Z</time>
      </trkpt>
      <trkpt lat="44.7963" lon="1.56143">
        <ele>154.1</ele>
        <time>2024-12-25T11:27:25Z</time>
      </trkpt>
      <trkpt lat="44.79628" lon="1.56145">
        <ele>154.3</ele>
        <time>2024-12-25T11:27:26Z</time>
      </trkpt>
      <trkpt lat="44.79627" lon="1.56146">
        <ele>154.4</ele>
        <time>2024-12-25T11:27:27Z</time>
      </trkpt>
      <trkpt lat="44.79626" lon="1.56146">
        <ele>154.5</ele>
        <time>2024-12-25T11:27:28Z</time>
      </trkpt>
      <trkpt lat="44.79625" lon="1.56148">
        <ele>154.6</ele>
        <time>2024-12-25T11:27:29Z</time>
      </trkpt>
      <trkpt lat="44.79625" lon="1.56148">
        <ele>154.6</ele>
        <time>2024-12-25T11:27:30Z</time>
      </trkpt>
      <trkpt lat="44.79624" lon="1.56149">
        <ele>154.7</ele>
        <time>2024-12-25T11:27:31Z</time>
      </trkpt>
      <trkpt lat="44.79623" lon="1.56151">
        <ele>154.7</ele>
        <time>2024-12-25T11:27:32Z</time>
      </trkpt>
      <trkpt lat="44.79623" lon="1.56151">
        <ele>154.8</ele>
        <time>2024-12-25T11:27:33Z</time>
      </trkpt>
      <trkpt lat="44.79622" lon="1.56152">
        <ele>154.8</ele>
        <time>2024-12-25T11:27:34Z</time>
      </trkpt>
      <trkpt lat="44.79621" lon="1.56152">
        <ele>154.8</ele>
        <time>2024-12-25T11:27:35Z</time>
      </trkpt>
      <trkpt lat="44.7962" lon="1.56153">
        <ele>154.8</ele>
        <time>2024-12-25T11:27:36Z</time>
      </trkpt>
      <trkpt lat="44.79619" lon="1.56153">
        <ele>154.8</ele>
        <time>2024-12-25T11:27:37Z</time>
      </trkpt>
      <trkpt lat="44.79618" lon="1.56154">
        <ele>154.8</ele>
        <time>2024-12-25T11:27:38Z</time>
      </trkpt>
      <trkpt lat="44.79617" lon="1.56156">
        <ele>154.8</ele>
        <time>2024-12-25T11:27:39Z</time>
      </trkpt>
      <trkpt lat="44.79616" lon="1.56157">
        <ele>154.8</ele>
        <time>2024-12-25T11:27:40Z</time>
      </trkpt>
      <trkpt lat="44.79616" lon="1.56158">
        <ele>154.8</ele>
        <time>2024-12-25T11:27:41Z</time>
      </trkpt>
      <trkpt lat="44.79615" lon="1.56158">
        <ele>154.7</ele>
        <time>2024-12-25T11:27:42Z</time>
      </trkpt>
      <trkpt lat="44.79614" lon="1.56159">
        <ele>154.7</ele>
        <time>2024-12-25T11:27:43Z</time>
      </trkpt>
      <trkpt lat="44.79613" lon="1.5616">
        <ele>154.6</ele>
        <time>2024-12-25T11:27:44Z</time>
      </trkpt>
      <trkpt lat="44.79612" lon="1.56161">
        <ele>154.6</ele>
        <time>2024-12-25T11:27:45Z</time>
      </trkpt>
      <trkpt lat="44.79612" lon="1.56162">
        <ele>154.5</ele>
        <time>2024-12-25T11:27:47Z</time>
      </trkpt>
      <trkpt lat="44.79611" lon="1.56163">
        <ele>154.4</ele>
        <time>2024-12-25T11:27:48Z</time>
      </trkpt>
      <trkpt lat="44.7961" lon="1.56164">
        <ele>154.3</ele>
        <time>2024-12-25T11:27:49Z</time>
      </trkpt>
      <trkpt lat="44.79609" lon="1.56166">
        <ele>154.2</ele>
        <time>2024-12-25T11:27:50Z</time>
      </trkpt>
      <trkpt lat="44.79609" lon="1.56167">
        <ele>154.1</ele>
        <time>2024-12-25T11:27:51Z</time>
      </trkpt>
      <trkpt lat="44.79608" lon="1.56169">
        <ele>153.9</ele>
        <time>2024-12-25T11:27:52Z</time>
      </trkpt>
      <trkpt lat="44.79608" lon="1.5617">
        <ele>153.8</ele>
        <time>2024-12-25T11:27:53Z</time>
      </trkpt>
      <trkpt lat="44.79607" lon="1.56171">
        <ele>153.7</ele>
        <time>2024-12-25T11:27:54Z</time>
      </trkpt>
      <trkpt lat="44.79607" lon="1.56173">
        <ele>153.6</ele>
        <time>2024-12-25T11:27:55Z</time>
      </trkpt>
      <trkpt lat="44.79606" lon="1.56174">
        <ele>153.4</ele>
        <time>2024-12-25T11:27:56Z</time>
      </trkpt>
      <trkpt lat="44.79605" lon="1.56175">
        <ele>153.3</ele>
        <time>2024-12-25T11:27:57Z</time>
      </trkpt>
      <trkpt lat="44.79603" lon="1.56176">
        <ele>153</ele>
        <time>2024-12-25T11:27:58Z</time>
      </trkpt>
      <trkpt lat="44.79602" lon="1.56177">
        <ele>152.9</ele>
        <time>2024-12-25T11:27:59Z</time>
      </trkpt>
      <trkpt lat="44.79601" lon="1.56178">
        <ele>152.8</ele>
        <time>2024-12-25T11:28:00Z</time>
      </trkpt>
      <trkpt lat="44.79599" lon="1.56179">
        <ele>152.5</ele>
        <time>2024-12-25T11:28:01Z</time>
      </trkpt>
      <trkpt lat="44.79599" lon="1.56179">
        <ele>152.4</ele>
        <time>2024-12-25T11:28:02Z</time>
      </trkpt>
      <trkpt lat="44.79598" lon="1.5618">
        <ele>152.2</ele>
        <time>2024-12-25T11:28:03Z</time>
      </trkpt>
      <trkpt lat="44.79597" lon="1.5618">
        <ele>152.1</ele>
        <time>2024-12-25T11:28:04Z</time>
      </trkpt>
      <trkpt lat="44.79597" lon="1.56181">
        <ele>152</ele>
        <time>2024-12-25T11:28:05Z</time>
      </trkpt>
      <trkpt lat="44.79596" lon="1.56182">
        <ele>151.9</ele>
        <time>2024-12-25T11:28:06Z</time>
      </trkpt>
      <trkpt lat="44.79595" lon="1.56182">
        <ele>151.8</ele>
        <time>2024-12-25T11:28:07Z</time>
      </trkpt>
      <trkpt lat="44.79593" lon="1.56182">
        <ele>151.5</ele>
        <time>2024-12-25T11:28:08Z</time>
      </trkpt>
      <trkpt lat="44.79592" lon="1.56182">
        <ele>151.4</ele>
        <time>2024-12-25T11:28:09Z</time>
      </trkpt>
      <trkpt lat="44.79591" lon="1.56182">
        <ele>151.2</ele>
        <time>2024-12-25T11:28:10Z</time>
      </trkpt>
      <trkpt lat="44.7959" lon="1.56182">
        <ele>151</ele>
        <time>2024-12-25T11:28:11Z</time>
      </trkpt>
      <trkpt lat="44.79588" lon="1.56183">
        <ele>150.8</ele>
        <time>2024-12-25T11:28:12Z</time>
      </trkpt>
      <trkpt lat="44.79586" lon="1.56184">
        <ele>150.6</ele>
        <time>2024-12-25T11:28:13Z</time>
      </trkpt>
      <trkpt lat="44.79586" lon="1.56185">
        <ele>150.4</ele>
        <time>2024-12-25T11:28:14Z</time>
      </trkpt>
      <trkpt lat="44.79585" lon="1.56185">
        <ele>150.3</ele>
        <time>2024-12-25T11:28:15Z</time>
      </trkpt>
      <trkpt lat="44.79584" lon="1.56186">
        <ele>150.2</ele>
        <time>2024-12-25T11:28:16Z</time>
      </trkpt>
      <trkpt lat="44.79583" lon="1.56186">
        <ele>150.1</ele>
        <time>2024-12-25T11:28:17Z</time>
      </trkpt>
      <trkpt lat="44.79582" lon="1.56187">
        <ele>149.9</ele>
        <time>2024-12-25T11:28:18Z</time>
      </trkpt>
      <trkpt lat="44.7958" lon="1.56188">
        <ele>149.7</ele>
        <time>2024-12-25T11:28:19Z</time>
      </trkpt>
      <trkpt lat="44.79579" lon="1.56188">
        <ele>149.6</ele>
        <time>2024-12-25T11:28:20Z</time>
      </trkpt>
      <trkpt lat="44.79578" lon="1.56189">
        <ele>149.5</ele>
        <time>2024-12-25T11:28:21Z</time>
      </trkpt>
      <trkpt lat="44.79577" lon="1.56189">
        <ele>149.4</ele>
        <time>2024-12-25T11:28:22Z</time>
      </trkpt>
      <trkpt lat="44.79576" lon="1.5619">
        <ele>149.2</ele>
        <time>2024-12-25T11:28:23Z</time>
      </trkpt>
      <trkpt lat="44.79575" lon="1.5619">
        <ele>149.1</ele>
        <time>2024-12-25T11:28:24Z</time>
      </trkpt>
      <trkpt lat="44.79574" lon="1.5619">
        <ele>149</ele>
        <time>2024-12-25T11:28:25Z</time>
      </trkpt>
      <trkpt lat="44.79572" lon="1.5619">
        <ele>148.8</ele>
        <time>2024-12-25T11:28:26Z</time>
      </trkpt>
      <trkpt lat="44.79571" lon="1.5619">
        <ele>148.8</ele>
        <time>2024-12-25T11:28:27Z</time>
      </trkpt>
      <trkpt lat="44.7957" lon="1.5619">
        <ele>148.7</ele>
        <time>2024-12-25T11:28:28Z</time>
      </trkpt>
      <trkpt lat="44.79569" lon="1.5619">
        <ele>148.5</ele>
        <time>2024-12-25T11:28:29Z</time>
      </trkpt>
      <trkpt lat="44.79568" lon="1.5619">
        <ele>148.4</ele>
        <time>2024-12-25T11:28:30Z</time>
      </trkpt>
      <trkpt lat="44.79565" lon="1.56191">
        <ele>148.2</ele>
        <time>2024-12-25T11:28:31Z</time>
      </trkpt>
      <trkpt lat="44.79564" lon="1.56191">
        <ele>148.1</ele>
        <time>2024-12-25T11:28:32Z</time>
      </trkpt>
      <trkpt lat="44.79563" lon="1.56191">
        <ele>148</ele>
        <time>2024-12-25T11:28:33Z</time>
      </trkpt>
      <trkpt lat="44.7956" lon="1.56191">
        <ele>147.8</ele>
        <time>2024-12-25T11:28:34Z</time>
      </trkpt>
      <trkpt lat="44.79559" lon="1.56191">
        <ele>147.7</ele>
        <time>2024-12-25T11:28:35Z</time>
      </trkpt>
      <trkpt lat="44.79557" lon="1.56191">
        <ele>147.6</ele>
        <time>2024-12-25T11:28:36Z</time>
      </trkpt>
      <trkpt lat="44.79555" lon="1.5619">
        <ele>147.4</ele>
        <time>2024-12-25T11:28:38Z</time>
      </trkpt>
      <trkpt lat="44.79554" lon="1.56189">
        <ele>147.3</ele>
        <time>2024-12-25T11:28:39Z</time>
      </trkpt>
      <trkpt lat="44.79552" lon="1.56189">
        <ele>147.2</ele>
        <time>2024-12-25T11:28:40Z</time>
      </trkpt>
      <trkpt lat="44.79549" lon="1.5619">
        <ele>147.1</ele>
        <time>2024-12-25T11:28:41Z</time>
      </trkpt>
      <trkpt lat="44.79549" lon="1.5619">
        <ele>147</ele>
        <time>2024-12-25T11:28:42Z</time>
      </trkpt>
      <trkpt lat="44.79548" lon="1.5619">
        <ele>147</ele>
        <time>2024-12-25T11:28:43Z</time>
      </trkpt>
      <trkpt lat="44.79547" lon="1.5619">
        <ele>146.9</ele>
        <time>2024-12-25T11:28:44Z</time>
      </trkpt>
      <trkpt lat="44.79546" lon="1.5619">
        <ele>146.9</ele>
        <time>2024-12-25T11:28:45Z</time>
      </trkpt>
      <trkpt lat="44.79545" lon="1.56191">
        <ele>146.8</ele>
        <time>2024-12-25T11:28:46Z</time>
      </trkpt>
      <trkpt lat="44.79544" lon="1.56191">
        <ele>146.7</ele>
        <time>2024-12-25T11:28:47Z</time>
      </trkpt>
      <trkpt lat="44.79543" lon="1.56191">
        <ele>146.7</ele>
        <time>2024-12-25T11:28:48Z</time>
      </trkpt>
      <trkpt lat="44.79541" lon="1.56191">
        <ele>146.6</ele>
        <time>2024-12-25T11:28:49Z</time>
      </trkpt>
      <trkpt lat="44.7954" lon="1.56191">
        <ele>146.5</ele>
        <time>2024-12-25T11:28:50Z</time>
      </trkpt>
      <trkpt lat="44.79539" lon="1.56192">
        <ele>146.5</ele>
        <time>2024-12-25T11:28:51Z</time>
      </trkpt>
      <trkpt lat="44.79538" lon="1.56192">
        <ele>146.4</ele>
        <time>2024-12-25T11:28:52Z</time>
      </trkpt>
      <trkpt lat="44.79537" lon="1.56192">
        <ele>146.4</ele>
        <time>2024-12-25T11:28:53Z</time>
      </trkpt>
      <trkpt lat="44.79536" lon="1.56193">
        <ele>146.3</ele>
        <time>2024-12-25T11:28:54Z</time>
      </trkpt>
      <trkpt lat="44.79535" lon="1.56193">
        <ele>146.3</ele>
        <time>2024-12-25T11:28:55Z</time>
      </trkpt>
      <trkpt lat="44.79533" lon="1.56193">
        <ele>146.2</ele>
        <time>2024-12-25T11:28:56Z</time>
      </trkpt>
      <trkpt lat="44.79532" lon="1.56193">
        <ele>146.2</ele>
        <time>2024-12-25T11:28:57Z</time>
      </trkpt>
      <trkpt lat="44.79531" lon="1.56194">
        <ele>146.1</ele>
        <time>2024-12-25T11:28:58Z</time>
      </trkpt>
      <trkpt lat="44.79528" lon="1.56194">
        <ele>146</ele>
        <time>2024-12-25T11:28:59Z</time>
      </trkpt>
      <trkpt lat="44.79527" lon="1.56195">
        <ele>146</ele>
        <time>2024-12-25T11:29:00Z</time>
      </trkpt>
      <trkpt lat="44.79524" lon="1.56195">
        <ele>145.9</ele>
        <time>2024-12-25T11:29:01Z</time>
      </trkpt>
      <trkpt lat="44.79523" lon="1.56194">
        <ele>145.8</ele>
        <time>2024-12-25T11:29:02Z</time>
      </trkpt>
      <trkpt lat="44.79521" lon="1.56193">
        <ele>145.8</ele>
        <time>2024-12-25T11:29:03Z</time>
      </trkpt>
      <trkpt lat="44.79519" lon="1.56194">
        <ele>145.7</ele>
        <time>2024-12-25T11:29:04Z</time>
      </trkpt>
      <trkpt lat="44.79518" lon="1.56193">
        <ele>145.7</ele>
        <time>2024-12-25T11:29:05Z</time>
      </trkpt>
      <trkpt lat="44.79516" lon="1.56194">
        <ele>145.6</ele>
        <time>2024-12-25T11:29:06Z</time>
      </trkpt>
      <trkpt lat="44.79515" lon="1.56194">
        <ele>145.6</ele>
        <time>2024-12-25T11:29:07Z</time>
      </trkpt>
      <trkpt lat="44.79514" lon="1.56194">
        <ele>145.6</ele>
        <time>2024-12-25T11:29:08Z</time>
      </trkpt>
      <trkpt lat="44.79513" lon="1.56194">
        <ele>145.5</ele>
        <time>2024-12-25T11:29:09Z</time>
      </trkpt>
      <trkpt lat="44.79511" lon="1.56193">
        <ele>145.5</ele>
        <time>2024-12-25T11:29:10Z</time>
      </trkpt>
      <trkpt lat="44.7951" lon="1.56193">
        <ele>145.5</ele>
        <time>2024-12-25T11:29:11Z</time>
      </trkpt>
      <trkpt lat="44.79509" lon="1.56193">
        <ele>145.4</ele>
        <time>2024-12-25T11:29:12Z</time>
      </trkpt>
      <trkpt lat="44.79507" lon="1.56192">
        <ele>145.4</ele>
        <time>2024-12-25T11:29:13Z</time>
      </trkpt>
      <trkpt lat="44.79507" lon="1.56191">
        <ele>145.4</ele>
        <time>2024-12-25T11:29:14Z</time>
      </trkpt>
      <trkpt lat="44.79506" lon="1.56191">
        <ele>145.3</ele>
        <time>2024-12-25T11:29:15Z</time>
      </trkpt>
      <trkpt lat="44.79503" lon="1.56193">
        <ele>145.3</ele>
        <time>2024-12-25T11:29:16Z</time>
      </trkpt>
      <trkpt lat="44.79501" lon="1.56193">
        <ele>145.3</ele>
        <time>2024-12-25T11:29:17Z</time>
      </trkpt>
      <trkpt lat="44.795" lon="1.56193">
        <ele>145.2</ele>
        <time>2024-12-25T11:29:18Z</time>
      </trkpt>
      <trkpt lat="44.79498" lon="1.56193">
        <ele>145.2</ele>
        <time>2024-12-25T11:29:19Z</time>
      </trkpt>
      <trkpt lat="44.79496" lon="1.56194">
        <ele>145.2</ele>
        <time>2024-12-25T11:29:20Z</time>
      </trkpt>
      <trkpt lat="44.79495" lon="1.56194">
        <ele>145.2</ele>
        <time>2024-12-25T11:29:21Z</time>
      </trkpt>
      <trkpt lat="44.79495" lon="1.56195">
        <ele>145.1</ele>
        <time>2024-12-25T11:29:22Z</time>
      </trkpt>
      <trkpt lat="44.79493" lon="1.56195">
        <ele>145.1</ele>
        <time>2024-12-25T11:29:23Z</time>
      </trkpt>
      <trkpt lat="44.79492" lon="1.56196">
        <ele>145.1</ele>
        <time>2024-12-25T11:29:24Z</time>
      </trkpt>
      <trkpt lat="44.79502" lon="1.56193">
        <ele>145</ele>
        <time>2024-12-25T11:29:25Z</time>
      </trkpt>
      <trkpt lat="44.79503" lon="1.56193">
        <ele>145</ele>
        <time>2024-12-25T11:29:26Z</time>
      </trkpt>
      <trkpt lat="44.79503" lon="1.56194">
        <ele>145</ele>
        <time>2024-12-25T11:29:27Z</time>
      </trkpt>
      <trkpt lat="44.79498" lon="1.56198">
        <ele>144.9</ele>
        <time>2024-12-25T11:29:31Z</time>
      </trkpt>
      <trkpt lat="44.79485" lon="1.56204">
        <ele>144.5</ele>
        <time>2024-12-25T11:29:36Z</time>
      </trkpt>
      <trkpt lat="44.79475" lon="1.56196">
        <ele>143.9</ele>
        <time>2024-12-25T11:29:41Z</time>
      </trkpt>
      <trkpt lat="44.79474" lon="1.56195">
        <ele>143.8</ele>
        <time>2024-12-25T11:29:42Z</time>
      </trkpt>
      <trkpt lat="44.79473" lon="1.56195">
        <ele>143.7</ele>
        <time>2024-12-25T11:29:43Z</time>
      </trkpt>
      <trkpt lat="44.79472" lon="1.56194">
        <ele>143.7</ele>
        <time>2024-12-25T11:29:44Z</time>
      </trkpt>
      <trkpt lat="44.79471" lon="1.56193">
        <ele>143.6</ele>
        <time>2024-12-25T11:29:45Z</time>
      </trkpt>
      <trkpt lat="44.7947" lon="1.56193">
        <ele>143.5</ele>
        <time>2024-12-25T11:29:46Z</time>
      </trkpt>
      <trkpt lat="44.79469" lon="1.56192">
        <ele>143.4</ele>
        <time>2024-12-25T11:29:47Z</time>
      </trkpt>
      <trkpt lat="44.79468" lon="1.56192">
        <ele>143.4</ele>
        <time>2024-12-25T11:29:48Z</time>
      </trkpt>
      <trkpt lat="44.79468" lon="1.56192">
        <ele>143.3</ele>
        <time>2024-12-25T11:29:49Z</time>
      </trkpt>
      <trkpt lat="44.79465" lon="1.56191">
        <ele>143.2</ele>
        <time>2024-12-25T11:29:50Z</time>
      </trkpt>
      <trkpt lat="44.79464" lon="1.56191">
        <ele>143.1</ele>
        <time>2024-12-25T11:29:51Z</time>
      </trkpt>
      <trkpt lat="44.79462" lon="1.56191">
        <ele>143</ele>
        <time>2024-12-25T11:29:52Z</time>
      </trkpt>
      <trkpt lat="44.79461" lon="1.5619">
        <ele>142.9</ele>
        <time>2024-12-25T11:29:53Z</time>
      </trkpt>
      <trkpt lat="44.7946" lon="1.5619">
        <ele>142.9</ele>
        <time>2024-12-25T11:29:54Z</time>
      </trkpt>
      <trkpt lat="44.79459" lon="1.5619">
        <ele>142.7</ele>
        <time>2024-12-25T11:29:55Z</time>
      </trkpt>
      <trkpt lat="44.79457" lon="1.56189">
        <ele>142.6</ele>
        <time>2024-12-25T11:29:56Z</time>
      </trkpt>
      <trkpt lat="44.79455" lon="1.56188">
        <ele>142.5</ele>
        <time>2024-12-25T11:29:57Z</time>
      </trkpt>
      <trkpt lat="44.79454" lon="1.56187">
        <ele>142.4</ele>
        <time>2024-12-25T11:29:58Z</time>
      </trkpt>
      <trkpt lat="44.79453" lon="1.56187">
        <ele>142.3</ele>
        <time>2024-12-25T11:29:59Z</time>
      </trkpt>
      <trkpt lat="44.79451" lon="1.56185">
        <ele>142.2</ele>
        <time>2024-12-25T11:30:00Z</time>
      </trkpt>
      <trkpt lat="44.79451" lon="1.56185">
        <ele>142.1</ele>
        <time>2024-12-25T11:30:01Z</time>
      </trkpt>
      <trkpt lat="44.7945" lon="1.56184">
        <ele>142</ele>
        <time>2024-12-25T11:30:02Z</time>
      </trkpt>
      <trkpt lat="44.79449" lon="1.56184">
        <ele>141.9</ele>
        <time>2024-12-25T11:30:03Z</time>
      </trkpt>
      <trkpt lat="44.79447" lon="1.56184">
        <ele>141.8</ele>
        <time>2024-12-25T11:30:04Z</time>
      </trkpt>
      <trkpt lat="44.79446" lon="1.56184">
        <ele>141.7</ele>
        <time>2024-12-25T11:30:05Z</time>
      </trkpt>
      <trkpt lat="44.79446" lon="1.56184">
        <ele>141.6</ele>
        <time>2024-12-25T11:30:06Z</time>
      </trkpt>
      <trkpt lat="44.79445" lon="1.56185">
        <ele>141.5</ele>
        <time>2024-12-25T11:30:08Z</time>
      </trkpt>
      <trkpt lat="44.79444" lon="1.56186">
        <ele>141.5</ele>
        <time>2024-12-25T11:30:09Z</time>
      </trkpt>
      <trkpt lat="44.79443" lon="1.56187">
        <ele>141.4</ele>
        <time>2024-12-25T11:30:10Z</time>
      </trkpt>
      <trkpt lat="44.79443" lon="1.56187">
        <ele>141.3</ele>
        <time>2024-12-25T11:30:11Z</time>
      </trkpt>
      <trkpt lat="44.79442" lon="1.56189">
        <ele>141.2</ele>
        <time>2024-12-25T11:30:12Z</time>
      </trkpt>
      <trkpt lat="44.79441" lon="1.5619">
        <ele>141</ele>
        <time>2024-12-25T11:30:13Z</time>
      </trkpt>
      <trkpt lat="44.7944" lon="1.56192">
        <ele>140.9</ele>
        <time>2024-12-25T11:30:14Z</time>
      </trkpt>
      <trkpt lat="44.79439" lon="1.56195">
        <ele>140.7</ele>
        <time>2024-12-25T11:30:15Z</time>
      </trkpt>
      <trkpt lat="44.7944" lon="1.56195">
        <ele>140.6</ele>
        <time>2024-12-25T11:30:16Z</time>
      </trkpt>
      <trkpt lat="44.79439" lon="1.56196">
        <ele>140.6</ele>
        <time>2024-12-25T11:30:17Z</time>
      </trkpt>
      <trkpt lat="44.79439" lon="1.56196">
        <ele>140.6</ele>
        <time>2024-12-25T11:30:18Z</time>
      </trkpt>
      <trkpt lat="44.79439" lon="1.56196">
        <ele>140.5</ele>
        <time>2024-12-25T11:30:19Z</time>
      </trkpt>
      <trkpt lat="44.79439" lon="1.56195">
        <ele>140.5</ele>
        <time>2024-12-25T11:30:20Z</time>
      </trkpt>
      <trkpt lat="44.79438" lon="1.56194">
        <ele>140.4</ele>
        <time>2024-12-25T11:30:21Z</time>
      </trkpt>
      <trkpt lat="44.79438" lon="1.56194">
        <ele>140.4</ele>
        <time>2024-12-25T11:30:22Z</time>
      </trkpt>
      <trkpt lat="44.79438" lon="1.56194">
        <ele>140.4</ele>
        <time>2024-12-25T11:30:23Z</time>
      </trkpt>
      <trkpt lat="44.79438" lon="1.56194">
        <ele>140.4</ele>
        <time>2024-12-25T11:30:24Z</time>
      </trkpt>
      <trkpt lat="44.79438" lon="1.56194">
        <ele>140.4</ele>
        <time>2024-12-25T11:30:25Z</time>
      </trkpt>
      <trkpt lat="44.79438" lon="1.56194">
        <ele>140.4</ele>
        <time>2024-12-25T11:30:26Z</time>
      </trkpt>
      <trkpt lat="44.79438" lon="1.56194">
        <ele>140.4</ele>
        <time>2024-12-25T11:30:27Z</time>
      </trkpt>
      <trkpt lat="44.79438" lon="1.56194">
        <ele>140.4</ele>
        <time>2024-12-25T11:30:28Z</time>
      </trkpt>
      <trkpt lat="44.79438" lon="1.56194">
        <ele>140.4</ele>
        <time>2024-12-25T11:30:29Z</time>
      </trkpt>
      <trkpt lat="44.79438" lon="1.56194">
        <ele>140.4</ele>
        <time>2024-12-25T11:30:30Z</time>
      </trkpt>
      <trkpt lat="44.79438" lon="1.56194">
        <ele>140.3</ele>
        <time>2024-12-25T11:30:31Z</time>
      </trkpt>
      <trkpt lat="44.79437" lon="1.56194">
        <ele>140.3</ele>
        <time>2024-12-25T11:30:32Z</time>
      </trkpt>
      <trkpt lat="44.79436" lon="1.56195">
        <ele>140.2</ele>
        <time>2024-12-25T11:30:33Z</time>
      </trkpt>
      <trkpt lat="44.79434" lon="1.56198">
        <ele>140</ele>
        <time>2024-12-25T11:30:34Z</time>
      </trkpt>
      <trkpt lat="44.79433" lon="1.56199">
        <ele>139.9</ele>
        <time>2024-12-25T11:30:35Z</time>
      </trkpt>
      <trkpt lat="44.79431" lon="1.56203">
        <ele>139.8</ele>
        <time>2024-12-25T11:30:36Z</time>
      </trkpt>
      <trkpt lat="44.79431" lon="1.56204">
        <ele>139.7</ele>
        <time>2024-12-25T11:30:37Z</time>
      </trkpt>
      <trkpt lat="44.7943" lon="1.56207">
        <ele>139.6</ele>
        <time>2024-12-25T11:30:38Z</time>
      </trkpt>
      <trkpt lat="44.79429" lon="1.56213">
        <ele>139.5</ele>
        <time>2024-12-25T11:30:40Z</time>
      </trkpt>
      <trkpt lat="44.79427" lon="1.56216">
        <ele>139.5</ele>
        <time>2024-12-25T11:30:41Z</time>
      </trkpt>
      <trkpt lat="44.79427" lon="1.56217">
        <ele>139.5</ele>
        <time>2024-12-25T11:30:42Z</time>
      </trkpt>
      <trkpt lat="44.79426" lon="1.5622">
        <ele>139.6</ele>
        <time>2024-12-25T11:30:43Z</time>
      </trkpt>
      <trkpt lat="44.79426" lon="1.56221">
        <ele>139.6</ele>
        <time>2024-12-25T11:30:44Z</time>
      </trkpt>
      <trkpt lat="44.79425" lon="1.56222">
        <ele>139.6</ele>
        <time>2024-12-25T11:30:45Z</time>
      </trkpt>
      <trkpt lat="44.79424" lon="1.56224">
        <ele>139.7</ele>
        <time>2024-12-25T11:30:46Z</time>
      </trkpt>
      <trkpt lat="44.79423" lon="1.56225">
        <ele>139.8</ele>
        <time>2024-12-25T11:30:47Z</time>
      </trkpt>
      <trkpt lat="44.79422" lon="1.56226">
        <ele>139.8</ele>
        <time>2024-12-25T11:30:48Z</time>
      </trkpt>
      <trkpt lat="44.7942" lon="1.56227">
        <ele>140</ele>
        <time>2024-12-25T11:30:49Z</time>
      </trkpt>
      <trkpt lat="44.79419" lon="1.56227">
        <ele>140</ele>
        <time>2024-12-25T11:30:50Z</time>
      </trkpt>
      <trkpt lat="44.79418" lon="1.56227">
        <ele>140.1</ele>
        <time>2024-12-25T11:30:51Z</time>
      </trkpt>
      <trkpt lat="44.79417" lon="1.56227">
        <ele>140.3</ele>
        <time>2024-12-25T11:30:52Z</time>
      </trkpt>
      <trkpt lat="44.79416" lon="1.56226">
        <ele>140.4</ele>
        <time>2024-12-25T11:30:53Z</time>
      </trkpt>
      <trkpt lat="44.79414" lon="1.56225">
        <ele>140.6</ele>
        <time>2024-12-25T11:30:54Z</time>
      </trkpt>
      <trkpt lat="44.79413" lon="1.56225">
        <ele>140.7</ele>
        <time>2024-12-25T11:30:55Z</time>
      </trkpt>
      <trkpt lat="44.79412" lon="1.56225">
        <ele>140.8</ele>
        <time>2024-12-25T11:30:56Z</time>
      </trkpt>
      <trkpt lat="44.79411" lon="1.56228">
        <ele>141.1</ele>
        <time>2024-12-25T11:30:57Z</time>
      </trkpt>
      <trkpt lat="44.79411" lon="1.56229">
        <ele>141.2</ele>
        <time>2024-12-25T11:30:58Z</time>
      </trkpt>
      <trkpt lat="44.79411" lon="1.5623">
        <ele>141.3</ele>
        <time>2024-12-25T11:30:59Z</time>
      </trkpt>
      <trkpt lat="44.79412" lon="1.56232">
        <ele>141.5</ele>
        <time>2024-12-25T11:31:01Z</time>
      </trkpt>
      <trkpt lat="44.79412" lon="1.56233">
        <ele>141.7</ele>
        <time>2024-12-25T11:31:02Z</time>
      </trkpt>
      <trkpt lat="44.79412" lon="1.56234">
        <ele>141.7</ele>
        <time>2024-12-25T11:31:03Z</time>
      </trkpt>
      <trkpt lat="44.79412" lon="1.56235">
        <ele>141.8</ele>
        <time>2024-12-25T11:31:04Z</time>
      </trkpt>
      <trkpt lat="44.79412" lon="1.56236">
        <ele>141.9</ele>
        <time>2024-12-25T11:31:05Z</time>
      </trkpt>
      <trkpt lat="44.79413" lon="1.56236">
        <ele>141.9</ele>
        <time>2024-12-25T11:31:06Z</time>
      </trkpt>
      <trkpt lat="44.79412" lon="1.56237">
        <ele>142</ele>
        <time>2024-12-25T11:31:07Z</time>
      </trkpt>
      <trkpt lat="44.79412" lon="1.56237">
        <ele>142</ele>
        <time>2024-12-25T11:31:08Z</time>
      </trkpt>
      <trkpt lat="44.79413" lon="1.56238">
        <ele>142.1</ele>
        <time>2024-12-25T11:31:09Z</time>
      </trkpt>
      <trkpt lat="44.79413" lon="1.56238">
        <ele>142.2</ele>
        <time>2024-12-25T11:31:11Z</time>
      </trkpt>
      <trkpt lat="44.79413" lon="1.56239">
        <ele>142.3</ele>
        <time>2024-12-25T11:31:12Z</time>
      </trkpt>
      <trkpt lat="44.79413" lon="1.5624">
        <ele>142.4</ele>
        <time>2024-12-25T11:31:13Z</time>
      </trkpt>
      <trkpt lat="44.79414" lon="1.56241">
        <ele>142.5</ele>
        <time>2024-12-25T11:31:14Z</time>
      </trkpt>
      <trkpt lat="44.79414" lon="1.56242">
        <ele>142.7</ele>
        <time>2024-12-25T11:31:15Z</time>
      </trkpt>
      <trkpt lat="44.79413" lon="1.56243">
        <ele>142.8</ele>
        <time>2024-12-25T11:31:16Z</time>
      </trkpt>
      <trkpt lat="44.79413" lon="1.56244">
        <ele>142.9</ele>
        <time>2024-12-25T11:31:17Z</time>
      </trkpt>
      <trkpt lat="44.79413" lon="1.56245">
        <ele>143</ele>
        <time>2024-12-25T11:31:18Z</time>
      </trkpt>
      <trkpt lat="44.79412" lon="1.56246">
        <ele>143.1</ele>
        <time>2024-12-25T11:31:19Z</time>
      </trkpt>
      <trkpt lat="44.79412" lon="1.56247">
        <ele>143.2</ele>
        <time>2024-12-25T11:31:20Z</time>
      </trkpt>
      <trkpt lat="44.79412" lon="1.56247">
        <ele>143.3</ele>
        <time>2024-12-25T11:31:21Z</time>
      </trkpt>
      <trkpt lat="44.79412" lon="1.56248">
        <ele>143.4</ele>
        <time>2024-12-25T11:31:22Z</time>
      </trkpt>
      <trkpt lat="44.79413" lon="1.56249">
        <ele>143.5</ele>
        <time>2024-12-25T11:31:23Z</time>
      </trkpt>
      <trkpt lat="44.79413" lon="1.5625">
        <ele>143.6</ele>
        <time>2024-12-25T11:31:24Z</time>
      </trkpt>
      <trkpt lat="44.79414" lon="1.5625">
        <ele>143.7</ele>
        <time>2024-12-25T11:31:25Z</time>
      </trkpt>
      <trkpt lat="44.79414" lon="1.56251">
        <ele>143.8</ele>
        <time>2024-12-25T11:31:26Z</time>
      </trkpt>
      <trkpt lat="44.79415" lon="1.56251">
        <ele>143.9</ele>
        <time>2024-12-25T11:31:27Z</time>
      </trkpt>
      <trkpt lat="44.79415" lon="1.56251">
        <ele>143.9</ele>
        <time>2024-12-25T11:31:28Z</time>
      </trkpt>
      <trkpt lat="44.79416" lon="1.56251">
        <ele>144</ele>
        <time>2024-12-25T11:31:29Z</time>
      </trkpt>
      <trkpt lat="44.79416" lon="1.56251">
        <ele>144</ele>
        <time>2024-12-25T11:31:30Z</time>
      </trkpt>
      <trkpt lat="44.79416" lon="1.56252">
        <ele>144.1</ele>
        <time>2024-12-25T11:31:31Z</time>
      </trkpt>
      <trkpt lat="44.79416" lon="1.56252">
        <ele>144.2</ele>
        <time>2024-12-25T11:31:32Z</time>
      </trkpt>
      <trkpt lat="44.79416" lon="1.56253">
        <ele>144.3</ele>
        <time>2024-12-25T11:31:33Z</time>
      </trkpt>
      <trkpt lat="44.79417" lon="1.56254">
        <ele>144.4</ele>
        <time>2024-12-25T11:31:34Z</time>
      </trkpt>
      <trkpt lat="44.79417" lon="1.56253">
        <ele>144.5</ele>
        <time>2024-12-25T11:31:35Z</time>
      </trkpt>
      <trkpt lat="44.79418" lon="1.56254">
        <ele>144.7</ele>
        <time>2024-12-25T11:31:36Z</time>
      </trkpt>
      <trkpt lat="44.79419" lon="1.56256">
        <ele>145</ele>
        <time>2024-12-25T11:31:38Z</time>
      </trkpt>
      <trkpt lat="44.7942" lon="1.56258">
        <ele>145.2</ele>
        <time>2024-12-25T11:31:39Z</time>
      </trkpt>
      <trkpt lat="44.79421" lon="1.56259">
        <ele>145.5</ele>
        <time>2024-12-25T11:31:40Z</time>
      </trkpt>
      <trkpt lat="44.79421" lon="1.56261">
        <ele>145.7</ele>
        <time>2024-12-25T11:31:41Z</time>
      </trkpt>
      <trkpt lat="44.79422" lon="1.56262">
        <ele>145.8</ele>
        <time>2024-12-25T11:31:42Z</time>
      </trkpt>
      <trkpt lat="44.79422" lon="1.56263">
        <ele>146</ele>
        <time>2024-12-25T11:31:43Z</time>
      </trkpt>
      <trkpt lat="44.79423" lon="1.56265">
        <ele>146.3</ele>
        <time>2024-12-25T11:31:44Z</time>
      </trkpt>
      <trkpt lat="44.79423" lon="1.56266">
        <ele>146.4</ele>
        <time>2024-12-25T11:31:45Z</time>
      </trkpt>
      <trkpt lat="44.79423" lon="1.56267">
        <ele>146.5</ele>
        <time>2024-12-25T11:31:46Z</time>
      </trkpt>
      <trkpt lat="44.79423" lon="1.56268">
        <ele>146.7</ele>
        <time>2024-12-25T11:31:47Z</time>
      </trkpt>
      <trkpt lat="44.79424" lon="1.5627">
        <ele>146.9</ele>
        <time>2024-12-25T11:31:48Z</time>
      </trkpt>
      <trkpt lat="44.79424" lon="1.56271">
        <ele>147.1</ele>
        <time>2024-12-25T11:31:49Z</time>
      </trkpt>
      <trkpt lat="44.79424" lon="1.56272">
        <ele>147.2</ele>
        <time>2024-12-25T11:31:50Z</time>
      </trkpt>
      <trkpt lat="44.79424" lon="1.56274">
        <ele>147.4</ele>
        <time>2024-12-25T11:31:51Z</time>
      </trkpt>
      <trkpt lat="44.79425" lon="1.56276">
        <ele>147.7</ele>
        <time>2024-12-25T11:31:52Z</time>
      </trkpt>
      <trkpt lat="44.79425" lon="1.56278">
        <ele>148</ele>
        <time>2024-12-25T11:31:54Z</time>
      </trkpt>
      <trkpt lat="44.79425" lon="1.56281">
        <ele>148.3</ele>
        <time>2024-12-25T11:31:55Z</time>
      </trkpt>
      <trkpt lat="44.79425" lon="1.56283">
        <ele>148.5</ele>
        <time>2024-12-25T11:31:56Z</time>
      </trkpt>
      <trkpt lat="44.79425" lon="1.56285">
        <ele>148.7</ele>
        <time>2024-12-25T11:31:57Z</time>
      </trkpt>
      <trkpt lat="44.79425" lon="1.56286">
        <ele>148.9</ele>
        <time>2024-12-25T11:31:58Z</time>
      </trkpt>
      <trkpt lat="44.79425" lon="1.56289">
        <ele>149.2</ele>
        <time>2024-12-25T11:31:59Z</time>
      </trkpt>
      <trkpt lat="44.79425" lon="1.5629">
        <ele>149.4</ele>
        <time>2024-12-25T11:32:00Z</time>
      </trkpt>
      <trkpt lat="44.79425" lon="1.56292">
        <ele>149.6</ele>
        <time>2024-12-25T11:32:01Z</time>
      </trkpt>
      <trkpt lat="44.79425" lon="1.56294">
        <ele>149.8</ele>
        <time>2024-12-25T11:32:02Z</time>
      </trkpt>
      <trkpt lat="44.79425" lon="1.56296">
        <ele>150</ele>
        <time>2024-12-25T11:32:03Z</time>
      </trkpt>
      <trkpt lat="44.79424" lon="1.56298">
        <ele>150.2</ele>
        <time>2024-12-25T11:32:04Z</time>
      </trkpt>
      <trkpt lat="44.79424" lon="1.563">
        <ele>150.4</ele>
        <time>2024-12-25T11:32:05Z</time>
      </trkpt>
      <trkpt lat="44.79424" lon="1.56302">
        <ele>150.6</ele>
        <time>2024-12-25T11:32:06Z</time>
      </trkpt>
      <trkpt lat="44.79423" lon="1.56303">
        <ele>150.8</ele>
        <time>2024-12-25T11:32:07Z</time>
      </trkpt>
      <trkpt lat="44.79423" lon="1.56305">
        <ele>151</ele>
        <time>2024-12-25T11:32:08Z</time>
      </trkpt>
      <trkpt lat="44.79423" lon="1.56308">
        <ele>151.2</ele>
        <time>2024-12-25T11:32:10Z</time>
      </trkpt>
      <trkpt lat="44.79423" lon="1.5631">
        <ele>151.5</ele>
        <time>2024-12-25T11:32:11Z</time>
      </trkpt>
      <trkpt lat="44.79423" lon="1.56312">
        <ele>151.7</ele>
        <time>2024-12-25T11:32:12Z</time>
      </trkpt>
      <trkpt lat="44.79423" lon="1.56314">
        <ele>152</ele>
        <time>2024-12-25T11:32:13Z</time>
      </trkpt>
      <trkpt lat="44.79424" lon="1.56316">
        <ele>152.2</ele>
        <time>2024-12-25T11:32:14Z</time>
      </trkpt>
      <trkpt lat="44.79424" lon="1.56319">
        <ele>152.4</ele>
        <time>2024-12-25T11:32:15Z</time>
      </trkpt>
      <trkpt lat="44.79424" lon="1.56322">
        <ele>152.7</ele>
        <time>2024-12-25T11:32:16Z</time>
      </trkpt>
      <trkpt lat="44.79424" lon="1.56323">
        <ele>152.9</ele>
        <time>2024-12-25T11:32:17Z</time>
      </trkpt>
      <trkpt lat="44.79424" lon="1.56324">
        <ele>153</ele>
        <time>2024-12-25T11:32:18Z</time>
      </trkpt>
      <trkpt lat="44.79425" lon="1.56326">
        <ele>153.2</ele>
        <time>2024-12-25T11:32:19Z</time>
      </trkpt>
      <trkpt lat="44.79425" lon="1.56327">
        <ele>153.3</ele>
        <time>2024-12-25T11:32:20Z</time>
      </trkpt>
      <trkpt lat="44.79425" lon="1.56329">
        <ele>153.5</ele>
        <time>2024-12-25T11:32:21Z</time>
      </trkpt>
      <trkpt lat="44.79425" lon="1.5633">
        <ele>153.7</ele>
        <time>2024-12-25T11:32:22Z</time>
      </trkpt>
      <trkpt lat="44.79425" lon="1.56332">
        <ele>153.8</ele>
        <time>2024-12-25T11:32:23Z</time>
      </trkpt>
      <trkpt lat="44.79426" lon="1.56334">
        <ele>154</ele>
        <time>2024-12-25T11:32:24Z</time>
      </trkpt>
      <trkpt lat="44.79426" lon="1.56335">
        <ele>154.1</ele>
        <time>2024-12-25T11:32:25Z</time>
      </trkpt>
      <trkpt lat="44.79426" lon="1.56337">
        <ele>154.3</ele>
        <time>2024-12-25T11:32:26Z</time>
      </trkpt>
      <trkpt lat="44.79426" lon="1.56339">
        <ele>154.5</ele>
        <time>2024-12-25T11:32:27Z</time>
      </trkpt>
      <trkpt lat="44.79426" lon="1.5634">
        <ele>154.6</ele>
        <time>2024-12-25T11:32:28Z</time>
      </trkpt>
      <trkpt lat="44.79425" lon="1.56339">
        <ele>154.7</ele>
        <time>2024-12-25T11:32:29Z</time>
      </trkpt>
      <trkpt lat="44.79426" lon="1.56338">
        <ele>154.8</ele>
        <time>2024-12-25T11:32:30Z</time>
      </trkpt>
      <trkpt lat="44.79427" lon="1.56339">
        <ele>154.9</ele>
        <time>2024-12-25T11:32:31Z</time>
      </trkpt>
      <trkpt lat="44.79427" lon="1.5634">
        <ele>155.1</ele>
        <time>2024-12-25T11:32:32Z</time>
      </trkpt>
      <trkpt lat="44.79427" lon="1.56342">
        <ele>155.2</ele>
        <time>2024-12-25T11:32:33Z</time>
      </trkpt>
      <trkpt lat="44.79427" lon="1.56344">
        <ele>155.3</ele>
        <time>2024-12-25T11:32:34Z</time>
      </trkpt>
      <trkpt lat="44.79427" lon="1.56345">
        <ele>155.5</ele>
        <time>2024-12-25T11:32:35Z</time>
      </trkpt>
      <trkpt lat="44.79427" lon="1.56347">
        <ele>155.6</ele>
        <time>2024-12-25T11:32:36Z</time>
      </trkpt>
      <trkpt lat="44.79427" lon="1.56348">
        <ele>155.7</ele>
        <time>2024-12-25T11:32:37Z</time>
      </trkpt>
      <trkpt lat="44.79427" lon="1.5635">
        <ele>155.8</ele>
        <time>2024-12-25T11:32:38Z</time>
      </trkpt>
      <trkpt lat="44.79427" lon="1.56351">
        <ele>155.9</ele>
        <time>2024-12-25T11:32:39Z</time>
      </trkpt>
      <trkpt lat="44.79428" lon="1.56354">
        <ele>156.2</ele>
        <time>2024-12-25T11:32:40Z</time>
      </trkpt>
      <trkpt lat="44.79429" lon="1.56355">
        <ele>156.2</ele>
        <time>2024-12-25T11:32:42Z</time>
      </trkpt>
      <trkpt lat="44.79429" lon="1.56356">
        <ele>156.3</ele>
        <time>2024-12-25T11:32:43Z</time>
      </trkpt>
      <trkpt lat="44.79429" lon="1.56358">
        <ele>156.5</ele>
        <time>2024-12-25T11:32:44Z</time>
      </trkpt>
      <trkpt lat="44.79429" lon="1.5636">
        <ele>156.6</ele>
        <time>2024-12-25T11:32:45Z</time>
      </trkpt>
      <trkpt lat="44.79429" lon="1.5636">
        <ele>156.6</ele>
        <time>2024-12-25T11:32:46Z</time>
      </trkpt>
      <trkpt lat="44.79429" lon="1.5636">
        <ele>156.7</ele>
        <time>2024-12-25T11:32:47Z</time>
      </trkpt>
      <trkpt lat="44.79429" lon="1.56358">
        <ele>156.8</ele>
        <time>2024-12-25T11:32:48Z</time>
      </trkpt>
      <trkpt lat="44.79429" lon="1.56357">
        <ele>156.8</ele>
        <time>2024-12-25T11:32:49Z</time>
      </trkpt>
      <trkpt lat="44.79429" lon="1.56358">
        <ele>156.9</ele>
        <time>2024-12-25T11:32:50Z</time>
      </trkpt>
      <trkpt lat="44.79429" lon="1.56359">
        <ele>157</ele>
        <time>2024-12-25T11:32:51Z</time>
      </trkpt>
      <trkpt lat="44.79429" lon="1.56361">
        <ele>157.1</ele>
        <time>2024-12-25T11:32:52Z</time>
      </trkpt>
      <trkpt lat="44.79429" lon="1.56364">
        <ele>157.2</ele>
        <time>2024-12-25T11:32:53Z</time>
      </trkpt>
      <trkpt lat="44.79429" lon="1.56366">
        <ele>157.4</ele>
        <time>2024-12-25T11:32:54Z</time>
      </trkpt>
      <trkpt lat="44.79429" lon="1.56368">
        <ele>157.5</ele>
        <time>2024-12-25T11:32:55Z</time>
      </trkpt>
      <trkpt lat="44.79429" lon="1.56369">
        <ele>157.6</ele>
        <time>2024-12-25T11:32:56Z</time>
      </trkpt>
      <trkpt lat="44.7943" lon="1.56371">
        <ele>157.7</ele>
        <time>2024-12-25T11:32:57Z</time>
      </trkpt>
      <trkpt lat="44.7943" lon="1.56372">
        <ele>157.8</ele>
        <time>2024-12-25T11:32:58Z</time>
      </trkpt>
      <trkpt lat="44.79431" lon="1.56374">
        <ele>157.9</ele>
        <time>2024-12-25T11:32:59Z</time>
      </trkpt>
      <trkpt lat="44.79431" lon="1.56376">
        <ele>158</ele>
        <time>2024-12-25T11:33:00Z</time>
      </trkpt>
      <trkpt lat="44.79431" lon="1.56377">
        <ele>158.1</ele>
        <time>2024-12-25T11:33:01Z</time>
      </trkpt>
      <trkpt lat="44.7943" lon="1.56378">
        <ele>158.2</ele>
        <time>2024-12-25T11:33:02Z</time>
      </trkpt>
      <trkpt lat="44.7943" lon="1.5638">
        <ele>158.3</ele>
        <time>2024-12-25T11:33:03Z</time>
      </trkpt>
      <trkpt lat="44.79429" lon="1.56381">
        <ele>158.3</ele>
        <time>2024-12-25T11:33:04Z</time>
      </trkpt>
      <trkpt lat="44.79429" lon="1.56383">
        <ele>158.4</ele>
        <time>2024-12-25T11:33:05Z</time>
      </trkpt>
      <trkpt lat="44.79429" lon="1.56384">
        <ele>158.5</ele>
        <time>2024-12-25T11:33:06Z</time>
      </trkpt>
      <trkpt lat="44.79428" lon="1.56386">
        <ele>158.6</ele>
        <time>2024-12-25T11:33:07Z</time>
      </trkpt>
      <trkpt lat="44.79428" lon="1.56387">
        <ele>158.7</ele>
        <time>2024-12-25T11:33:08Z</time>
      </trkpt>
      <trkpt lat="44.79427" lon="1.56388">
        <ele>158.7</ele>
        <time>2024-12-25T11:33:09Z</time>
      </trkpt>
      <trkpt lat="44.79427" lon="1.5639">
        <ele>158.9</ele>
        <time>2024-12-25T11:33:10Z</time>
      </trkpt>
      <trkpt lat="44.79427" lon="1.56391">
        <ele>158.9</ele>
        <time>2024-12-25T11:33:11Z</time>
      </trkpt>
      <trkpt lat="44.79426" lon="1.56392">
        <ele>159</ele>
        <time>2024-12-25T11:33:12Z</time>
      </trkpt>
      <trkpt lat="44.79427" lon="1.56394">
        <ele>159.1</ele>
        <time>2024-12-25T11:33:13Z</time>
      </trkpt>
      <trkpt lat="44.79426" lon="1.56395">
        <ele>159.1</ele>
        <time>2024-12-25T11:33:14Z</time>
      </trkpt>
      <trkpt lat="44.79426" lon="1.56396">
        <ele>159.2</ele>
        <time>2024-12-25T11:33:15Z</time>
      </trkpt>
      <trkpt lat="44.79426" lon="1.56397">
        <ele>159.2</ele>
        <time>2024-12-25T11:33:16Z</time>
      </trkpt>
      <trkpt lat="44.79425" lon="1.56398">
        <ele>159.3</ele>
        <time>2024-12-25T11:33:17Z</time>
      </trkpt>
      <trkpt lat="44.79423" lon="1.564">
        <ele>159.5</ele>
        <time>2024-12-25T11:33:18Z</time>
      </trkpt>
      <trkpt lat="44.79422" lon="1.564">
        <ele>159.5</ele>
        <time>2024-12-25T11:33:19Z</time>
      </trkpt>
      <trkpt lat="44.79422" lon="1.56401">
        <ele>159.6</ele>
        <time>2024-12-25T11:33:20Z</time>
      </trkpt>
      <trkpt lat="44.79421" lon="1.56401">
        <ele>159.6</ele>
        <time>2024-12-25T11:33:21Z</time>
      </trkpt>
      <trkpt lat="44.7942" lon="1.56401">
        <ele>159.7</ele>
        <time>2024-12-25T11:33:22Z</time>
      </trkpt>
      <trkpt lat="44.79419" lon="1.56401">
        <ele>159.8</ele>
        <time>2024-12-25T11:33:23Z</time>
      </trkpt>
      <trkpt lat="44.79418" lon="1.56402">
        <ele>159.9</ele>
        <time>2024-12-25T11:33:24Z</time>
      </trkpt>
      <trkpt lat="44.79417" lon="1.56403">
        <ele>159.9</ele>
        <time>2024-12-25T11:33:25Z</time>
      </trkpt>
      <trkpt lat="44.79417" lon="1.56404">
        <ele>160</ele>
        <time>2024-12-25T11:33:26Z</time>
      </trkpt>
      <trkpt lat="44.79417" lon="1.56405">
        <ele>160</ele>
        <time>2024-12-25T11:33:27Z</time>
      </trkpt>
      <trkpt lat="44.79416" lon="1.56407">
        <ele>160.1</ele>
        <time>2024-12-25T11:33:28Z</time>
      </trkpt>
      <trkpt lat="44.79416" lon="1.56408">
        <ele>160.1</ele>
        <time>2024-12-25T11:33:29Z</time>
      </trkpt>
      <trkpt lat="44.79416" lon="1.5641">
        <ele>160.2</ele>
        <time>2024-12-25T11:33:30Z</time>
      </trkpt>
      <trkpt lat="44.79416" lon="1.56411">
        <ele>160.3</ele>
        <time>2024-12-25T11:33:31Z</time>
      </trkpt>
      <trkpt lat="44.79416" lon="1.56413">
        <ele>160.3</ele>
        <time>2024-12-25T11:33:32Z</time>
      </trkpt>
      <trkpt lat="44.79416" lon="1.56414">
        <ele>160.4</ele>
        <time>2024-12-25T11:33:33Z</time>
      </trkpt>
      <trkpt lat="44.79416" lon="1.56415">
        <ele>160.4</ele>
        <time>2024-12-25T11:33:34Z</time>
      </trkpt>
      <trkpt lat="44.79415" lon="1.56417">
        <ele>160.5</ele>
        <time>2024-12-25T11:33:35Z</time>
      </trkpt>
      <trkpt lat="44.79414" lon="1.56417">
        <ele>160.5</ele>
        <time>2024-12-25T11:33:36Z</time>
      </trkpt>
      <trkpt lat="44.79413" lon="1.56418">
        <ele>160.5</ele>
        <time>2024-12-25T11:33:37Z</time>
      </trkpt>
      <trkpt lat="44.79412" lon="1.56419">
        <ele>160.6</ele>
        <time>2024-12-25T11:33:38Z</time>
      </trkpt>
      <trkpt lat="44.79411" lon="1.5642">
        <ele>160.6</ele>
        <time>2024-12-25T11:33:39Z</time>
      </trkpt>
      <trkpt lat="44.79409" lon="1.56421">
        <ele>160.7</ele>
        <time>2024-12-25T11:33:40Z</time>
      </trkpt>
      <trkpt lat="44.79408" lon="1.56421">
        <ele>160.7</ele>
        <time>2024-12-25T11:33:41Z</time>
      </trkpt>
      <trkpt lat="44.79408" lon="1.56421">
        <ele>160.7</ele>
        <time>2024-12-25T11:33:42Z</time>
      </trkpt>
      <trkpt lat="44.79407" lon="1.56421">
        <ele>160.8</ele>
        <time>2024-12-25T11:33:43Z</time>
      </trkpt>
      <trkpt lat="44.79406" lon="1.56421">
        <ele>160.8</ele>
        <time>2024-12-25T11:33:44Z</time>
      </trkpt>
      <trkpt lat="44.79405" lon="1.56421">
        <ele>160.8</ele>
        <time>2024-12-25T11:33:45Z</time>
      </trkpt>
      <trkpt lat="44.79404" lon="1.56421">
        <ele>160.8</ele>
        <time>2024-12-25T11:33:46Z</time>
      </trkpt>
      <trkpt lat="44.79403" lon="1.56422">
        <ele>160.8</ele>
        <time>2024-12-25T11:33:47Z</time>
      </trkpt>
      <trkpt lat="44.79402" lon="1.56423">
        <ele>160.9</ele>
        <time>2024-12-25T11:33:48Z</time>
      </trkpt>
      <trkpt lat="44.79401" lon="1.56423">
        <ele>160.9</ele>
        <time>2024-12-25T11:33:49Z</time>
      </trkpt>
      <trkpt lat="44.794" lon="1.56424">
        <ele>160.9</ele>
        <time>2024-12-25T11:33:50Z</time>
      </trkpt>
      <trkpt lat="44.79399" lon="1.56424">
        <ele>160.9</ele>
        <time>2024-12-25T11:33:51Z</time>
      </trkpt>
      <trkpt lat="44.79398" lon="1.56424">
        <ele>160.9</ele>
        <time>2024-12-25T11:33:52Z</time>
      </trkpt>
      <trkpt lat="44.79396" lon="1.56425">
        <ele>161</ele>
        <time>2024-12-25T11:33:53Z</time>
      </trkpt>
      <trkpt lat="44.79396" lon="1.56425">
        <ele>161</ele>
        <time>2024-12-25T11:33:54Z</time>
      </trkpt>
      <trkpt lat="44.79395" lon="1.56426">
        <ele>161</ele>
        <time>2024-12-25T11:33:55Z</time>
      </trkpt>
      <trkpt lat="44.79394" lon="1.56427">
        <ele>161</ele>
        <time>2024-12-25T11:33:56Z</time>
      </trkpt>
      <trkpt lat="44.79393" lon="1.56428">
        <ele>161</ele>
        <time>2024-12-25T11:33:57Z</time>
      </trkpt>
      <trkpt lat="44.79392" lon="1.56429">
        <ele>161</ele>
        <time>2024-12-25T11:33:58Z</time>
      </trkpt>
      <trkpt lat="44.79392" lon="1.56429">
        <ele>161</ele>
        <time>2024-12-25T11:33:59Z</time>
      </trkpt>
      <trkpt lat="44.7939" lon="1.5643">
        <ele>161</ele>
        <time>2024-12-25T11:34:00Z</time>
      </trkpt>
      <trkpt lat="44.7939" lon="1.56431">
        <ele>161</ele>
        <time>2024-12-25T11:34:01Z</time>
      </trkpt>
      <trkpt lat="44.79389" lon="1.56431">
        <ele>161</ele>
        <time>2024-12-25T11:34:02Z</time>
      </trkpt>
      <trkpt lat="44.79388" lon="1.56432">
        <ele>161.1</ele>
        <time>2024-12-25T11:34:03Z</time>
      </trkpt>
      <trkpt lat="44.79387" lon="1.56433">
        <ele>161.1</ele>
        <time>2024-12-25T11:34:04Z</time>
      </trkpt>
      <trkpt lat="44.79387" lon="1.56435">
        <ele>161.1</ele>
        <time>2024-12-25T11:34:05Z</time>
      </trkpt>
      <trkpt lat="44.79387" lon="1.56436">
        <ele>161.1</ele>
        <time>2024-12-25T11:34:06Z</time>
      </trkpt>
      <trkpt lat="44.79386" lon="1.56437">
        <ele>161.1</ele>
        <time>2024-12-25T11:34:07Z</time>
      </trkpt>
      <trkpt lat="44.79386" lon="1.56438">
        <ele>161.1</ele>
        <time>2024-12-25T11:34:08Z</time>
      </trkpt>
      <trkpt lat="44.79385" lon="1.56439">
        <ele>161.1</ele>
        <time>2024-12-25T11:34:09Z</time>
      </trkpt>
      <trkpt lat="44.79385" lon="1.5644">
        <ele>161.1</ele>
        <time>2024-12-25T11:34:10Z</time>
      </trkpt>
      <trkpt lat="44.79385" lon="1.56441">
        <ele>161.1</ele>
        <time>2024-12-25T11:34:11Z</time>
      </trkpt>
      <trkpt lat="44.79385" lon="1.56442">
        <ele>161.1</ele>
        <time>2024-12-25T11:34:12Z</time>
      </trkpt>
      <trkpt lat="44.79384" lon="1.56444">
        <ele>161.2</ele>
        <time>2024-12-25T11:34:13Z</time>
      </trkpt>
      <trkpt lat="44.79384" lon="1.56444">
        <ele>161.2</ele>
        <time>2024-12-25T11:34:14Z</time>
      </trkpt>
      <trkpt lat="44.79383" lon="1.56446">
        <ele>161.2</ele>
        <time>2024-12-25T11:34:15Z</time>
      </trkpt>
      <trkpt lat="44.79383" lon="1.56446">
        <ele>161.2</ele>
        <time>2024-12-25T11:34:16Z</time>
      </trkpt>
      <trkpt lat="44.79382" lon="1.56447">
        <ele>161.2</ele>
        <time>2024-12-25T11:34:17Z</time>
      </trkpt>
      <trkpt lat="44.79382" lon="1.56448">
        <ele>161.2</ele>
        <time>2024-12-25T11:34:18Z</time>
      </trkpt>
      <trkpt lat="44.79382" lon="1.56449">
        <ele>161.2</ele>
        <time>2024-12-25T11:34:19Z</time>
      </trkpt>
      <trkpt lat="44.79382" lon="1.56451">
        <ele>161.2</ele>
        <time>2024-12-25T11:34:20Z</time>
      </trkpt>
      <trkpt lat="44.79382" lon="1.56452">
        <ele>161.2</ele>
        <time>2024-12-25T11:34:21Z</time>
      </trkpt>
      <trkpt lat="44.79381" lon="1.56453">
        <ele>161.2</ele>
        <time>2024-12-25T11:34:22Z</time>
      </trkpt>
      <trkpt lat="44.7938" lon="1.56454">
        <ele>161.3</ele>
        <time>2024-12-25T11:34:23Z</time>
      </trkpt>
      <trkpt lat="44.7938" lon="1.56455">
        <ele>161.3</ele>
        <time>2024-12-25T11:34:24Z</time>
      </trkpt>
      <trkpt lat="44.79379" lon="1.56457">
        <ele>161.3</ele>
        <time>2024-12-25T11:34:25Z</time>
      </trkpt>
      <trkpt lat="44.79379" lon="1.56458">
        <ele>161.3</ele>
        <time>2024-12-25T11:34:26Z</time>
      </trkpt>
      <trkpt lat="44.79378" lon="1.56459">
        <ele>161.3</ele>
        <time>2024-12-25T11:34:27Z</time>
      </trkpt>
      <trkpt lat="44.79378" lon="1.5646">
        <ele>161.3</ele>
        <time>2024-12-25T11:34:28Z</time>
      </trkpt>
      <trkpt lat="44.79376" lon="1.56461">
        <ele>161.3</ele>
        <time>2024-12-25T11:34:29Z</time>
      </trkpt>
      <trkpt lat="44.79375" lon="1.56462">
        <ele>161.4</ele>
        <time>2024-12-25T11:34:30Z</time>
      </trkpt>
      <trkpt lat="44.79373" lon="1.56463">
        <ele>161.4</ele>
        <time>2024-12-25T11:34:31Z</time>
      </trkpt>
      <trkpt lat="44.79372" lon="1.56464">
        <ele>161.4</ele>
        <time>2024-12-25T11:34:32Z</time>
      </trkpt>
      <trkpt lat="44.7937" lon="1.56464">
        <ele>161.4</ele>
        <time>2024-12-25T11:34:33Z</time>
      </trkpt>
      <trkpt lat="44.79368" lon="1.56467">
        <ele>161.5</ele>
        <time>2024-12-25T11:34:34Z</time>
      </trkpt>
      <trkpt lat="44.79367" lon="1.56467">
        <ele>161.5</ele>
        <time>2024-12-25T11:34:35Z</time>
      </trkpt>
      <trkpt lat="44.79366" lon="1.56468">
        <ele>161.5</ele>
        <time>2024-12-25T11:34:36Z</time>
      </trkpt>
      <trkpt lat="44.79365" lon="1.56469">
        <ele>161.5</ele>
        <time>2024-12-25T11:34:37Z</time>
      </trkpt>
      <trkpt lat="44.79363" lon="1.5647">
        <ele>161.5</ele>
        <time>2024-12-25T11:34:38Z</time>
      </trkpt>
      <trkpt lat="44.79362" lon="1.56471">
        <ele>161.5</ele>
        <time>2024-12-25T11:34:39Z</time>
      </trkpt>
      <trkpt lat="44.79361" lon="1.56472">
        <ele>161.5</ele>
        <time>2024-12-25T11:34:40Z</time>
      </trkpt>
      <trkpt lat="44.7936" lon="1.56473">
        <ele>161.5</ele>
        <time>2024-12-25T11:34:41Z</time>
      </trkpt>
      <trkpt lat="44.7936" lon="1.56474">
        <ele>161.5</ele>
        <time>2024-12-25T11:34:42Z</time>
      </trkpt>
      <trkpt lat="44.79359" lon="1.56476">
        <ele>161.5</ele>
        <time>2024-12-25T11:34:43Z</time>
      </trkpt>
      <trkpt lat="44.79358" lon="1.56477">
        <ele>161.6</ele>
        <time>2024-12-25T11:34:44Z</time>
      </trkpt>
      <trkpt lat="44.79358" lon="1.56479">
        <ele>161.6</ele>
        <time>2024-12-25T11:34:45Z</time>
      </trkpt>
      <trkpt lat="44.79357" lon="1.56479">
        <ele>161.6</ele>
        <time>2024-12-25T11:34:46Z</time>
      </trkpt>
      <trkpt lat="44.79357" lon="1.5648">
        <ele>161.6</ele>
        <time>2024-12-25T11:34:47Z</time>
      </trkpt>
      <trkpt lat="44.79356" lon="1.56481">
        <ele>161.6</ele>
        <time>2024-12-25T11:34:48Z</time>
      </trkpt>
      <trkpt lat="44.79357" lon="1.56483">
        <ele>161.6</ele>
        <time>2024-12-25T11:34:49Z</time>
      </trkpt>
      <trkpt lat="44.79358" lon="1.56485">
        <ele>161.6</ele>
        <time>2024-12-25T11:34:50Z</time>
      </trkpt>
      <trkpt lat="44.79358" lon="1.56485">
        <ele>161.6</ele>
        <time>2024-12-25T11:34:51Z</time>
      </trkpt>
      <trkpt lat="44.7936" lon="1.56486">
        <ele>161.6</ele>
        <time>2024-12-25T11:34:52Z</time>
      </trkpt>
      <trkpt lat="44.7936" lon="1.56486">
        <ele>161.6</ele>
        <time>2024-12-25T11:34:53Z</time>
      </trkpt>
      <trkpt lat="44.79361" lon="1.56487">
        <ele>161.6</ele>
        <time>2024-12-25T11:34:54Z</time>
      </trkpt>
      <trkpt lat="44.79362" lon="1.56487">
        <ele>161.6</ele>
        <time>2024-12-25T11:34:55Z</time>
      </trkpt>
      <trkpt lat="44.79363" lon="1.56489">
        <ele>161.6</ele>
        <time>2024-12-25T11:34:56Z</time>
      </trkpt>
      <trkpt lat="44.79362" lon="1.56491">
        <ele>161.6</ele>
        <time>2024-12-25T11:34:57Z</time>
      </trkpt>
      <trkpt lat="44.79362" lon="1.56493">
        <ele>161.6</ele>
        <time>2024-12-25T11:34:58Z</time>
      </trkpt>
      <trkpt lat="44.79361" lon="1.56495">
        <ele>161.6</ele>
        <time>2024-12-25T11:34:59Z</time>
      </trkpt>
      <trkpt lat="44.79361" lon="1.56498">
        <ele>161.6</ele>
        <time>2024-12-25T11:35:00Z</time>
      </trkpt>
      <trkpt lat="44.79362" lon="1.56499">
        <ele>161.6</ele>
        <time>2024-12-25T11:35:01Z</time>
      </trkpt>
      <trkpt lat="44.79363" lon="1.56501">
        <ele>161.6</ele>
        <time>2024-12-25T11:35:02Z</time>
      </trkpt>
      <trkpt lat="44.79364" lon="1.56501">
        <ele>161.6</ele>
        <time>2024-12-25T11:35:03Z</time>
      </trkpt>
      <trkpt lat="44.79365" lon="1.56502">
        <ele>161.6</ele>
        <time>2024-12-25T11:35:04Z</time>
      </trkpt>
      <trkpt lat="44.79367" lon="1.56503">
        <ele>161.6</ele>
        <time>2024-12-25T11:35:05Z</time>
      </trkpt>
      <trkpt lat="44.79367" lon="1.56503">
        <ele>161.6</ele>
        <time>2024-12-25T11:35:06Z</time>
      </trkpt>
      <trkpt lat="44.79367" lon="1.56504">
        <ele>161.6</ele>
        <time>2024-12-25T11:35:07Z</time>
      </trkpt>
      <trkpt lat="44.79367" lon="1.56505">
        <ele>161.6</ele>
        <time>2024-12-25T11:35:08Z</time>
      </trkpt>
      <trkpt lat="44.79367" lon="1.56506">
        <ele>161.6</ele>
        <time>2024-12-25T11:35:09Z</time>
      </trkpt>
      <trkpt lat="44.79367" lon="1.56506">
        <ele>161.6</ele>
        <time>2024-12-25T11:35:10Z</time>
      </trkpt>
      <trkpt lat="44.79367" lon="1.56506">
        <ele>161.6</ele>
        <time>2024-12-25T11:35:11Z</time>
      </trkpt>
      <trkpt lat="44.79367" lon="1.56506">
        <ele>161.6</ele>
        <time>2024-12-25T11:35:12Z</time>
      </trkpt>
      <trkpt lat="44.79367" lon="1.56507">
        <ele>161.6</ele>
        <time>2024-12-25T11:35:13Z</time>
      </trkpt>
      <trkpt lat="44.79367" lon="1.56508">
        <ele>161.6</ele>
        <time>2024-12-25T11:35:14Z</time>
      </trkpt>
      <trkpt lat="44.79368" lon="1.56508">
        <ele>161.6</ele>
        <time>2024-12-25T11:35:15Z</time>
      </trkpt>
      <trkpt lat="44.79368" lon="1.56508">
        <ele>161.6</ele>
        <time>2024-12-25T11:35:16Z</time>
      </trkpt>
      <trkpt lat="44.79368" lon="1.56508">
        <ele>161.6</ele>
        <time>2024-12-25T11:35:17Z</time>
      </trkpt>
      <trkpt lat="44.79368" lon="1.56508">
        <ele>161.6</ele>
        <time>2024-12-25T11:35:18Z</time>
      </trkpt>
      <trkpt lat="44.79368" lon="1.56508">
        <ele>161.6</ele>
        <time>2024-12-25T11:35:19Z</time>
      </trkpt>
      <trkpt lat="44.79368" lon="1.56508">
        <ele>161.6</ele>
        <time>2024-12-25T11:35:20Z</time>
      </trkpt>
      <trkpt lat="44.79368" lon="1.56509">
        <ele>161.6</ele>
        <time>2024-12-25T11:35:21Z</time>
      </trkpt>
      <trkpt lat="44.79368" lon="1.56509">
        <ele>161.6</ele>
        <time>2024-12-25T11:35:22Z</time>
      </trkpt>
      <trkpt lat="44.79368" lon="1.56508">
        <ele>161.6</ele>
        <time>2024-12-25T11:35:23Z</time>
      </trkpt>
      <trkpt lat="44.79368" lon="1.56509">
        <ele>161.6</ele>
        <time>2024-12-25T11:35:24Z</time>
      </trkpt>
      <trkpt lat="44.79368" lon="1.56509">
        <ele>161.6</ele>
        <time>2024-12-25T11:35:25Z</time>
      </trkpt>
      <trkpt lat="44.79368" lon="1.56509">
        <ele>161.6</ele>
        <time>2024-12-25T11:35:26Z</time>
      </trkpt>
      <trkpt lat="44.79368" lon="1.56509">
        <ele>161.6</ele>
        <time>2024-12-25T11:35:27Z</time>
      </trkpt>
      <trkpt lat="44.79368" lon="1.56509">
        <ele>161.6</ele>
        <time>2024-12-25T11:35:28Z</time>
      </trkpt>
      <trkpt lat="44.79368" lon="1.56509">
        <ele>161.6</ele>
        <time>2024-12-25T11:35:29Z</time>
      </trkpt>
      <trkpt lat="44.79369" lon="1.56509">
        <ele>161.6</ele>
        <time>2024-12-25T11:35:30Z</time>
      </trkpt>
      <trkpt lat="44.79369" lon="1.56509">
        <ele>161.6</ele>
        <time>2024-12-25T11:35:31Z</time>
      </trkpt>
      <trkpt lat="44.79369" lon="1.5651">
        <ele>161.6</ele>
        <time>2024-12-25T11:35:32Z</time>
      </trkpt>
      <trkpt lat="44.79369" lon="1.5651">
        <ele>161.6</ele>
        <time>2024-12-25T11:35:33Z</time>
      </trkpt>
      <trkpt lat="44.79369" lon="1.56511">
        <ele>161.6</ele>
        <time>2024-12-25T11:35:34Z</time>
      </trkpt>
      <trkpt lat="44.79369" lon="1.56511">
        <ele>161.6</ele>
        <time>2024-12-25T11:35:35Z</time>
      </trkpt>
      <trkpt lat="44.79369" lon="1.56511">
        <ele>161.6</ele>
        <time>2024-12-25T11:35:36Z</time>
      </trkpt>
      <trkpt lat="44.79369" lon="1.56512">
        <ele>161.5</ele>
        <time>2024-12-25T11:35:38Z</time>
      </trkpt>
      <trkpt lat="44.79369" lon="1.56512">
        <ele>161.5</ele>
        <time>2024-12-25T11:35:39Z</time>
      </trkpt>
      <trkpt lat="44.79369" lon="1.56512">
        <ele>161.5</ele>
        <time>2024-12-25T11:35:40Z</time>
      </trkpt>
      <trkpt lat="44.79369" lon="1.56512">
        <ele>161.5</ele>
        <time>2024-12-25T11:35:41Z</time>
      </trkpt>
      <trkpt lat="44.79369" lon="1.56513">
        <ele>161.5</ele>
        <time>2024-12-25T11:35:42Z</time>
      </trkpt>
      <trkpt lat="44.79369" lon="1.56513">
        <ele>161.5</ele>
        <time>2024-12-25T11:35:43Z</time>
      </trkpt>
      <trkpt lat="44.79369" lon="1.56513">
        <ele>161.5</ele>
        <time>2024-12-25T11:35:44Z</time>
      </trkpt>
      <trkpt lat="44.79369" lon="1.56512">
        <ele>161.5</ele>
        <time>2024-12-25T11:35:45Z</time>
      </trkpt>
      <trkpt lat="44.79369" lon="1.56512">
        <ele>161.5</ele>
        <time>2024-12-25T11:35:46Z</time>
      </trkpt>
      <trkpt lat="44.79369" lon="1.56512">
        <ele>161.5</ele>
        <time>2024-12-25T11:35:47Z</time>
      </trkpt>
      <trkpt lat="44.79369" lon="1.56513">
        <ele>161.5</ele>
        <time>2024-12-25T11:35:48Z</time>
      </trkpt>
      <trkpt lat="44.79369" lon="1.56513">
        <ele>161.5</ele>
        <time>2024-12-25T11:35:49Z</time>
      </trkpt>
      <trkpt lat="44.79369" lon="1.56513">
        <ele>161.5</ele>
        <time>2024-12-25T11:35:50Z</time>
      </trkpt>
      <trkpt lat="44.79368" lon="1.56513">
        <ele>161.5</ele>
        <time>2024-12-25T11:35:51Z</time>
      </trkpt>
      <trkpt lat="44.79368" lon="1.56512">
        <ele>161.5</ele>
        <time>2024-12-25T11:35:52Z</time>
      </trkpt>
      <trkpt lat="44.79368" lon="1.56512">
        <ele>161.5</ele>
        <time>2024-12-25T11:35:53Z</time>
      </trkpt>
      <trkpt lat="44.79368" lon="1.56511">
        <ele>161.5</ele>
        <time>2024-12-25T11:35:54Z</time>
      </trkpt>
      <trkpt lat="44.79368" lon="1.56511">
        <ele>161.5</ele>
        <time>2024-12-25T11:35:55Z</time>
      </trkpt>
      <trkpt lat="44.79367" lon="1.56511">
        <ele>161.5</ele>
        <time>2024-12-25T11:35:56Z</time>
      </trkpt>
      <trkpt lat="44.79367" lon="1.56511">
        <ele>161.5</ele>
        <time>2024-12-25T11:35:57Z</time>
      </trkpt>
      <trkpt lat="44.79367" lon="1.56512">
        <ele>161.5</ele>
        <time>2024-12-25T11:35:58Z</time>
      </trkpt>
      <trkpt lat="44.79367" lon="1.56512">
        <ele>161.5</ele>
        <time>2024-12-25T11:35:59Z</time>
      </trkpt>
      <trkpt lat="44.79367" lon="1.56512">
        <ele>161.5</ele>
        <time>2024-12-25T11:36:00Z</time>
      </trkpt>
      <trkpt lat="44.79367" lon="1.56512">
        <ele>161.5</ele>
        <time>2024-12-25T11:36:01Z</time>
      </trkpt>
      <trkpt lat="44.79367" lon="1.56512">
        <ele>161.5</ele>
        <time>2024-12-25T11:36:02Z</time>
      </trkpt>
      <trkpt lat="44.79367" lon="1.56513">
        <ele>161.5</ele>
        <time>2024-12-25T11:36:03Z</time>
      </trkpt>
      <trkpt lat="44.79367" lon="1.56513">
        <ele>161.5</ele>
        <time>2024-12-25T11:36:04Z</time>
      </trkpt>
      <trkpt lat="44.79367" lon="1.56513">
        <ele>161.5</ele>
        <time>2024-12-25T11:36:05Z</time>
      </trkpt>
      <trkpt lat="44.79367" lon="1.56513">
        <ele>161.5</ele>
        <time>2024-12-25T11:36:06Z</time>
      </trkpt>
      <trkpt lat="44.79367" lon="1.56513">
        <ele>161.5</ele>
        <time>2024-12-25T11:36:07Z</time>
      </trkpt>
      <trkpt lat="44.79367" lon="1.56513">
        <ele>161.5</ele>
        <time>2024-12-25T11:36:08Z</time>
      </trkpt>
      <trkpt lat="44.79367" lon="1.56514">
        <ele>161.5</ele>
        <time>2024-12-25T11:36:09Z</time>
      </trkpt>
      <trkpt lat="44.79368" lon="1.56514">
        <ele>161.5</ele>
        <time>2024-12-25T11:36:10Z</time>
      </trkpt>
      <trkpt lat="44.79368" lon="1.56514">
        <ele>161.5</ele>
        <time>2024-12-25T11:36:11Z</time>
      </trkpt>
      <trkpt lat="44.79368" lon="1.56514">
        <ele>161.5</ele>
        <time>2024-12-25T11:36:12Z</time>
      </trkpt>
      <trkpt lat="44.79368" lon="1.56514">
        <ele>161.5</ele>
        <time>2024-12-25T11:36:13Z</time>
      </trkpt>
      <trkpt lat="44.79368" lon="1.56514">
        <ele>161.5</ele>
        <time>2024-12-25T11:36:14Z</time>
      </trkpt>
      <trkpt lat="44.79368" lon="1.56514">
        <ele>161.5</ele>
        <time>2024-12-25T11:36:15Z</time>
      </trkpt>
      <trkpt lat="44.79368" lon="1.56514">
        <ele>161.5</ele>
        <time>2024-12-25T11:36:16Z</time>
      </trkpt>
      <trkpt lat="44.79368" lon="1.56514">
        <ele>161.5</ele>
        <time>2024-12-25T11:36:17Z</time>
      </trkpt>
      <trkpt lat="44.79368" lon="1.56514">
        <ele>161.5</ele>
        <time>2024-12-25T11:36:18Z</time>
      </trkpt>
      <trkpt lat="44.79368" lon="1.56514">
        <ele>161.5</ele>
        <time>2024-12-25T11:36:19Z</time>
      </trkpt>
      <trkpt lat="44.79368" lon="1.56514">
        <ele>161.5</ele>
        <time>2024-12-25T11:36:20Z</time>
      </trkpt>
      <trkpt lat="44.79368" lon="1.56514">
        <ele>161.5</ele>
        <time>2024-12-25T11:36:21Z</time>
      </trkpt>
      <trkpt lat="44.79368" lon="1.56514">
        <ele>161.5</ele>
        <time>2024-12-25T11:36:22Z</time>
      </trkpt>
      <trkpt lat="44.79368" lon="1.56514">
        <ele>161.4</ele>
        <time>2024-12-25T11:36:23Z</time>
      </trkpt>
      <trkpt lat="44.79367" lon="1.56514">
        <ele>161.4</ele>
        <time>2024-12-25T11:36:24Z</time>
      </trkpt>
      <trkpt lat="44.79367" lon="1.56514">
        <ele>161.4</ele>
        <time>2024-12-25T11:36:25Z</time>
      </trkpt>
      <trkpt lat="44.79367" lon="1.56514">
        <ele>161.4</ele>
        <time>2024-12-25T11:36:26Z</time>
      </trkpt>
      <trkpt lat="44.79367" lon="1.56514">
        <ele>161.4</ele>
        <time>2024-12-25T11:36:27Z</time>
      </trkpt>
      <trkpt lat="44.79367" lon="1.56514">
        <ele>161.4</ele>
        <time>2024-12-25T11:36:28Z</time>
      </trkpt>
      <trkpt lat="44.79367" lon="1.56514">
        <ele>161.4</ele>
        <time>2024-12-25T11:36:29Z</time>
      </trkpt>
      <trkpt lat="44.79367" lon="1.56513">
        <ele>161.4</ele>
        <time>2024-12-25T11:36:30Z</time>
      </trkpt>
      <trkpt lat="44.79367" lon="1.56512">
        <ele>161.4</ele>
        <time>2024-12-25T11:36:31Z</time>
      </trkpt>
      <trkpt lat="44.79366" lon="1.5651">
        <ele>161.4</ele>
        <time>2024-12-25T11:36:32Z</time>
      </trkpt>
      <trkpt lat="44.79364" lon="1.56507">
        <ele>161.3</ele>
        <time>2024-12-25T11:36:33Z</time>
      </trkpt>
      <trkpt lat="44.79362" lon="1.56505">
        <ele>161.3</ele>
        <time>2024-12-25T11:36:34Z</time>
      </trkpt>
      <trkpt lat="44.79361" lon="1.56505">
        <ele>161.2</ele>
        <time>2024-12-25T11:36:35Z</time>
      </trkpt>
      <trkpt lat="44.79359" lon="1.56505">
        <ele>161.2</ele>
        <time>2024-12-25T11:36:36Z</time>
      </trkpt>
      <trkpt lat="44.79357" lon="1.56502">
        <ele>161.2</ele>
        <time>2024-12-25T11:36:37Z</time>
      </trkpt>
      <trkpt lat="44.79356" lon="1.56503">
        <ele>161.1</ele>
        <time>2024-12-25T11:36:38Z</time>
      </trkpt>
      <trkpt lat="44.79356" lon="1.56504">
        <ele>161.1</ele>
        <time>2024-12-25T11:36:39Z</time>
      </trkpt>
      <trkpt lat="44.79355" lon="1.56505">
        <ele>161.1</ele>
        <time>2024-12-25T11:36:40Z</time>
      </trkpt>
      <trkpt lat="44.79353" lon="1.56506">
        <ele>161.1</ele>
        <time>2024-12-25T11:36:41Z</time>
      </trkpt>
      <trkpt lat="44.79352" lon="1.56507">
        <ele>161.1</ele>
        <time>2024-12-25T11:36:42Z</time>
      </trkpt>
      <trkpt lat="44.79351" lon="1.56508">
        <ele>161.1</ele>
        <time>2024-12-25T11:36:43Z</time>
      </trkpt>
      <trkpt lat="44.79349" lon="1.56507">
        <ele>161</ele>
        <time>2024-12-25T11:36:44Z</time>
      </trkpt>
      <trkpt lat="44.79347" lon="1.56506">
        <ele>161</ele>
        <time>2024-12-25T11:36:45Z</time>
      </trkpt>
      <trkpt lat="44.79346" lon="1.56506">
        <ele>161</ele>
        <time>2024-12-25T11:36:46Z</time>
      </trkpt>
      <trkpt lat="44.79344" lon="1.56509">
        <ele>161</ele>
        <time>2024-12-25T11:36:48Z</time>
      </trkpt>
      <trkpt lat="44.79343" lon="1.5651">
        <ele>161</ele>
        <time>2024-12-25T11:36:49Z</time>
      </trkpt>
      <trkpt lat="44.79343" lon="1.56511">
        <ele>161</ele>
        <time>2024-12-25T11:36:50Z</time>
      </trkpt>
      <trkpt lat="44.79342" lon="1.56512">
        <ele>161</ele>
        <time>2024-12-25T11:36:51Z</time>
      </trkpt>
      <trkpt lat="44.79342" lon="1.56513">
        <ele>161</ele>
        <time>2024-12-25T11:36:52Z</time>
      </trkpt>
      <trkpt lat="44.79341" lon="1.56514">
        <ele>161</ele>
        <time>2024-12-25T11:36:53Z</time>
      </trkpt>
      <trkpt lat="44.79341" lon="1.56516">
        <ele>161</ele>
        <time>2024-12-25T11:36:54Z</time>
      </trkpt>
      <trkpt lat="44.79341" lon="1.56518">
        <ele>161</ele>
        <time>2024-12-25T11:36:55Z</time>
      </trkpt>
      <trkpt lat="44.79341" lon="1.56519">
        <ele>161</ele>
        <time>2024-12-25T11:36:56Z</time>
      </trkpt>
      <trkpt lat="44.7934" lon="1.56522">
        <ele>161</ele>
        <time>2024-12-25T11:36:57Z</time>
      </trkpt>
      <trkpt lat="44.7934" lon="1.56523">
        <ele>161</ele>
        <time>2024-12-25T11:36:58Z</time>
      </trkpt>
      <trkpt lat="44.7934" lon="1.56524">
        <ele>161</ele>
        <time>2024-12-25T11:36:59Z</time>
      </trkpt>
      <trkpt lat="44.79339" lon="1.56526">
        <ele>161</ele>
        <time>2024-12-25T11:37:00Z</time>
      </trkpt>
      <trkpt lat="44.79339" lon="1.56528">
        <ele>161</ele>
        <time>2024-12-25T11:37:01Z</time>
      </trkpt>
      <trkpt lat="44.79339" lon="1.56529">
        <ele>161</ele>
        <time>2024-12-25T11:37:02Z</time>
      </trkpt>
      <trkpt lat="44.79338" lon="1.5653">
        <ele>161</ele>
        <time>2024-12-25T11:37:03Z</time>
      </trkpt>
      <trkpt lat="44.79337" lon="1.56531">
        <ele>161</ele>
        <time>2024-12-25T11:37:04Z</time>
      </trkpt>
      <trkpt lat="44.79336" lon="1.56533">
        <ele>161</ele>
        <time>2024-12-25T11:37:05Z</time>
      </trkpt>
      <trkpt lat="44.79335" lon="1.56534">
        <ele>161</ele>
        <time>2024-12-25T11:37:06Z</time>
      </trkpt>
      <trkpt lat="44.79335" lon="1.56536">
        <ele>161</ele>
        <time>2024-12-25T11:37:07Z</time>
      </trkpt>
      <trkpt lat="44.79334" lon="1.56537">
        <ele>161</ele>
        <time>2024-12-25T11:37:08Z</time>
      </trkpt>
      <trkpt lat="44.79334" lon="1.56539">
        <ele>160.9</ele>
        <time>2024-12-25T11:37:09Z</time>
      </trkpt>
      <trkpt lat="44.79333" lon="1.5654">
        <ele>160.9</ele>
        <time>2024-12-25T11:37:10Z</time>
      </trkpt>
      <trkpt lat="44.79332" lon="1.56541">
        <ele>160.9</ele>
        <time>2024-12-25T11:37:11Z</time>
      </trkpt>
      <trkpt lat="44.79331" lon="1.56542">
        <ele>160.9</ele>
        <time>2024-12-25T11:37:12Z</time>
      </trkpt>
      <trkpt lat="44.7933" lon="1.56544">
        <ele>160.8</ele>
        <time>2024-12-25T11:37:13Z</time>
      </trkpt>
      <trkpt lat="44.79329" lon="1.56545">
        <ele>160.8</ele>
        <time>2024-12-25T11:37:14Z</time>
      </trkpt>
      <trkpt lat="44.79329" lon="1.56546">
        <ele>160.7</ele>
        <time>2024-12-25T11:37:15Z</time>
      </trkpt>
      <trkpt lat="44.79328" lon="1.56547">
        <ele>160.7</ele>
        <time>2024-12-25T11:37:16Z</time>
      </trkpt>
      <trkpt lat="44.79327" lon="1.56548">
        <ele>160.6</ele>
        <time>2024-12-25T11:37:17Z</time>
      </trkpt>
      <trkpt lat="44.79326" lon="1.56549">
        <ele>160.5</ele>
        <time>2024-12-25T11:37:18Z</time>
      </trkpt>
      <trkpt lat="44.79325" lon="1.56551">
        <ele>160.4</ele>
        <time>2024-12-25T11:37:19Z</time>
      </trkpt>
      <trkpt lat="44.79324" lon="1.56552">
        <ele>160.3</ele>
        <time>2024-12-25T11:37:20Z</time>
      </trkpt>
      <trkpt lat="44.79324" lon="1.56553">
        <ele>160.3</ele>
        <time>2024-12-25T11:37:21Z</time>
      </trkpt>
      <trkpt lat="44.79323" lon="1.56554">
        <ele>160.2</ele>
        <time>2024-12-25T11:37:22Z</time>
      </trkpt>
      <trkpt lat="44.79323" lon="1.56556">
        <ele>160.1</ele>
        <time>2024-12-25T11:37:23Z</time>
      </trkpt>
      <trkpt lat="44.79322" lon="1.56557">
        <ele>160</ele>
        <time>2024-12-25T11:37:24Z</time>
      </trkpt>
      <trkpt lat="44.79321" lon="1.56558">
        <ele>159.9</ele>
        <time>2024-12-25T11:37:25Z</time>
      </trkpt>
      <trkpt lat="44.79321" lon="1.5656">
        <ele>159.7</ele>
        <time>2024-12-25T11:37:26Z</time>
      </trkpt>
      <trkpt lat="44.7932" lon="1.56561">
        <ele>159.6</ele>
        <time>2024-12-25T11:37:27Z</time>
      </trkpt>
      <trkpt lat="44.7932" lon="1.56562">
        <ele>159.5</ele>
        <time>2024-12-25T11:37:28Z</time>
      </trkpt>
      <trkpt lat="44.79319" lon="1.56564">
        <ele>159.4</ele>
        <time>2024-12-25T11:37:29Z</time>
      </trkpt>
      <trkpt lat="44.79319" lon="1.56566">
        <ele>159.2</ele>
        <time>2024-12-25T11:37:30Z</time>
      </trkpt>
      <trkpt lat="44.79318" lon="1.56567">
        <ele>159.1</ele>
        <time>2024-12-25T11:37:31Z</time>
      </trkpt>
      <trkpt lat="44.79318" lon="1.56568">
        <ele>159</ele>
        <time>2024-12-25T11:37:32Z</time>
      </trkpt>
      <trkpt lat="44.79317" lon="1.5657">
        <ele>158.8</ele>
        <time>2024-12-25T11:37:33Z</time>
      </trkpt>
      <trkpt lat="44.79316" lon="1.56573">
        <ele>158.6</ele>
        <time>2024-12-25T11:37:34Z</time>
      </trkpt>
      <trkpt lat="44.79316" lon="1.56574">
        <ele>158.4</ele>
        <time>2024-12-25T11:37:35Z</time>
      </trkpt>
      <trkpt lat="44.79316" lon="1.56576">
        <ele>158.3</ele>
        <time>2024-12-25T11:37:36Z</time>
      </trkpt>
      <trkpt lat="44.79315" lon="1.5658">
        <ele>157.9</ele>
        <time>2024-12-25T11:37:37Z</time>
      </trkpt>
      <trkpt lat="44.79315" lon="1.56582">
        <ele>157.7</ele>
        <time>2024-12-25T11:37:38Z</time>
      </trkpt>
      <trkpt lat="44.79315" lon="1.56586">
        <ele>157.3</ele>
        <time>2024-12-25T11:37:39Z</time>
      </trkpt>
      <trkpt lat="44.79315" lon="1.56591">
        <ele>156.9</ele>
        <time>2024-12-25T11:37:40Z</time>
      </trkpt>
      <trkpt lat="44.79315" lon="1.56592">
        <ele>156.7</ele>
        <time>2024-12-25T11:37:41Z</time>
      </trkpt>
      <trkpt lat="44.79315" lon="1.56594">
        <ele>156.6</ele>
        <time>2024-12-25T11:37:42Z</time>
      </trkpt>
      <trkpt lat="44.79315" lon="1.56595">
        <ele>156.5</ele>
        <time>2024-12-25T11:37:43Z</time>
      </trkpt>
      <trkpt lat="44.79315" lon="1.56597">
        <ele>156.3</ele>
        <time>2024-12-25T11:37:44Z</time>
      </trkpt>
      <trkpt lat="44.79315" lon="1.56599">
        <ele>156.2</ele>
        <time>2024-12-25T11:37:45Z</time>
      </trkpt>
      <trkpt lat="44.79315" lon="1.56601">
        <ele>156</ele>
        <time>2024-12-25T11:37:46Z</time>
      </trkpt>
      <trkpt lat="44.79315" lon="1.56603">
        <ele>155.8</ele>
        <time>2024-12-25T11:37:47Z</time>
      </trkpt>
      <trkpt lat="44.79314" lon="1.56605">
        <ele>155.6</ele>
        <time>2024-12-25T11:37:48Z</time>
      </trkpt>
      <trkpt lat="44.79314" lon="1.56607">
        <ele>155.5</ele>
        <time>2024-12-25T11:37:49Z</time>
      </trkpt>
      <trkpt lat="44.79313" lon="1.56609">
        <ele>155.3</ele>
        <time>2024-12-25T11:37:50Z</time>
      </trkpt>
      <trkpt lat="44.79313" lon="1.56611">
        <ele>155.1</ele>
        <time>2024-12-25T11:37:51Z</time>
      </trkpt>
      <trkpt lat="44.79313" lon="1.56613">
        <ele>154.9</ele>
        <time>2024-12-25T11:37:52Z</time>
      </trkpt>
      <trkpt lat="44.79312" lon="1.56615">
        <ele>154.7</ele>
        <time>2024-12-25T11:37:53Z</time>
      </trkpt>
      <trkpt lat="44.79312" lon="1.56617">
        <ele>154.6</ele>
        <time>2024-12-25T11:37:54Z</time>
      </trkpt>
      <trkpt lat="44.79311" lon="1.5662">
        <ele>154.3</ele>
        <time>2024-12-25T11:37:55Z</time>
      </trkpt>
      <trkpt lat="44.79311" lon="1.56621">
        <ele>154.2</ele>
        <time>2024-12-25T11:37:56Z</time>
      </trkpt>
      <trkpt lat="44.7931" lon="1.56622">
        <ele>154.1</ele>
        <time>2024-12-25T11:37:57Z</time>
      </trkpt>
      <trkpt lat="44.7931" lon="1.56625">
        <ele>153.8</ele>
        <time>2024-12-25T11:37:58Z</time>
      </trkpt>
      <trkpt lat="44.79309" lon="1.56626">
        <ele>153.7</ele>
        <time>2024-12-25T11:37:59Z</time>
      </trkpt>
      <trkpt lat="44.79309" lon="1.56627">
        <ele>153.6</ele>
        <time>2024-12-25T11:38:00Z</time>
      </trkpt>
      <trkpt lat="44.79308" lon="1.5663">
        <ele>153.3</ele>
        <time>2024-12-25T11:38:01Z</time>
      </trkpt>
      <trkpt lat="44.79307" lon="1.5663">
        <ele>153.2</ele>
        <time>2024-12-25T11:38:02Z</time>
      </trkpt>
      <trkpt lat="44.79306" lon="1.56631">
        <ele>153.2</ele>
        <time>2024-12-25T11:38:03Z</time>
      </trkpt>
      <trkpt lat="44.79305" lon="1.56633">
        <ele>153</ele>
        <time>2024-12-25T11:38:04Z</time>
      </trkpt>
      <trkpt lat="44.79305" lon="1.56634">
        <ele>152.8</ele>
        <time>2024-12-25T11:38:05Z</time>
      </trkpt>
      <trkpt lat="44.79304" lon="1.56637">
        <ele>152.6</ele>
        <time>2024-12-25T11:38:06Z</time>
      </trkpt>
      <trkpt lat="44.79303" lon="1.56638">
        <ele>152.5</ele>
        <time>2024-12-25T11:38:07Z</time>
      </trkpt>
      <trkpt lat="44.79302" lon="1.5664">
        <ele>152.4</ele>
        <time>2024-12-25T11:38:08Z</time>
      </trkpt>
      <trkpt lat="44.79302" lon="1.56641">
        <ele>152.2</ele>
        <time>2024-12-25T11:38:09Z</time>
      </trkpt>
      <trkpt lat="44.79301" lon="1.56643">
        <ele>152.1</ele>
        <time>2024-12-25T11:38:10Z</time>
      </trkpt>
      <trkpt lat="44.79301" lon="1.56645">
        <ele>151.9</ele>
        <time>2024-12-25T11:38:11Z</time>
      </trkpt>
      <trkpt lat="44.793" lon="1.56646">
        <ele>151.8</ele>
        <time>2024-12-25T11:38:12Z</time>
      </trkpt>
      <trkpt lat="44.793" lon="1.56648">
        <ele>151.7</ele>
        <time>2024-12-25T11:38:13Z</time>
      </trkpt>
      <trkpt lat="44.793" lon="1.56649">
        <ele>151.6</ele>
        <time>2024-12-25T11:38:14Z</time>
      </trkpt>
      <trkpt lat="44.79299" lon="1.56652">
        <ele>151.4</ele>
        <time>2024-12-25T11:38:15Z</time>
      </trkpt>
      <trkpt lat="44.79299" lon="1.56653">
        <ele>151.3</ele>
        <time>2024-12-25T11:38:16Z</time>
      </trkpt>
      <trkpt lat="44.79299" lon="1.56654">
        <ele>151.2</ele>
        <time>2024-12-25T11:38:17Z</time>
      </trkpt>
      <trkpt lat="44.79298" lon="1.56657">
        <ele>151</ele>
        <time>2024-12-25T11:38:18Z</time>
      </trkpt>
      <trkpt lat="44.79297" lon="1.56658">
        <ele>151</ele>
        <time>2024-12-25T11:38:19Z</time>
      </trkpt>
      <trkpt lat="44.79297" lon="1.56659">
        <ele>150.9</ele>
        <time>2024-12-25T11:38:20Z</time>
      </trkpt>
      <trkpt lat="44.79296" lon="1.56661">
        <ele>150.8</ele>
        <time>2024-12-25T11:38:21Z</time>
      </trkpt>
      <trkpt lat="44.79296" lon="1.56662">
        <ele>150.7</ele>
        <time>2024-12-25T11:38:22Z</time>
      </trkpt>
      <trkpt lat="44.79295" lon="1.56663">
        <ele>150.6</ele>
        <time>2024-12-25T11:38:23Z</time>
      </trkpt>
      <trkpt lat="44.79294" lon="1.56664">
        <ele>150.5</ele>
        <time>2024-12-25T11:38:24Z</time>
      </trkpt>
      <trkpt lat="44.79294" lon="1.56665">
        <ele>150.4</ele>
        <time>2024-12-25T11:38:25Z</time>
      </trkpt>
      <trkpt lat="44.79293" lon="1.56666">
        <ele>150.3</ele>
        <time>2024-12-25T11:38:26Z</time>
      </trkpt>
      <trkpt lat="44.79292" lon="1.56668">
        <ele>150.2</ele>
        <time>2024-12-25T11:38:27Z</time>
      </trkpt>
      <trkpt lat="44.79291" lon="1.56669">
        <ele>150.1</ele>
        <time>2024-12-25T11:38:28Z</time>
      </trkpt>
      <trkpt lat="44.79291" lon="1.5667">
        <ele>150.1</ele>
        <time>2024-12-25T11:38:29Z</time>
      </trkpt>
      <trkpt lat="44.7929" lon="1.56672">
        <ele>150</ele>
        <time>2024-12-25T11:38:30Z</time>
      </trkpt>
      <trkpt lat="44.79289" lon="1.56673">
        <ele>149.9</ele>
        <time>2024-12-25T11:38:31Z</time>
      </trkpt>
      <trkpt lat="44.79289" lon="1.56674">
        <ele>149.8</ele>
        <time>2024-12-25T11:38:32Z</time>
      </trkpt>
      <trkpt lat="44.79288" lon="1.56675">
        <ele>149.8</ele>
        <time>2024-12-25T11:38:33Z</time>
      </trkpt>
      <trkpt lat="44.79288" lon="1.56675">
        <ele>149.8</ele>
        <time>2024-12-25T11:38:34Z</time>
      </trkpt>
      <trkpt lat="44.79288" lon="1.56676">
        <ele>149.7</ele>
        <time>2024-12-25T11:38:35Z</time>
      </trkpt>
      <trkpt lat="44.79287" lon="1.56678">
        <ele>149.7</ele>
        <time>2024-12-25T11:38:36Z</time>
      </trkpt>
      <trkpt lat="44.79287" lon="1.56678">
        <ele>149.6</ele>
        <time>2024-12-25T11:38:37Z</time>
      </trkpt>
      <trkpt lat="44.79286" lon="1.5668">
        <ele>149.5</ele>
        <time>2024-12-25T11:38:38Z</time>
      </trkpt>
      <trkpt lat="44.79285" lon="1.56682">
        <ele>149.4</ele>
        <time>2024-12-25T11:38:39Z</time>
      </trkpt>
      <trkpt lat="44.79285" lon="1.56684">
        <ele>149.3</ele>
        <time>2024-12-25T11:38:40Z</time>
      </trkpt>
      <trkpt lat="44.79284" lon="1.56686">
        <ele>149.3</ele>
        <time>2024-12-25T11:38:41Z</time>
      </trkpt>
      <trkpt lat="44.79283" lon="1.56687">
        <ele>149.2</ele>
        <time>2024-12-25T11:38:42Z</time>
      </trkpt>
      <trkpt lat="44.79283" lon="1.56688">
        <ele>149.1</ele>
        <time>2024-12-25T11:38:43Z</time>
      </trkpt>
      <trkpt lat="44.79282" lon="1.5669">
        <ele>149.1</ele>
        <time>2024-12-25T11:38:44Z</time>
      </trkpt>
      <trkpt lat="44.79281" lon="1.56691">
        <ele>149</ele>
        <time>2024-12-25T11:38:45Z</time>
      </trkpt>
      <trkpt lat="44.79281" lon="1.56692">
        <ele>149</ele>
        <time>2024-12-25T11:38:46Z</time>
      </trkpt>
      <trkpt lat="44.79281" lon="1.56693">
        <ele>148.9</ele>
        <time>2024-12-25T11:38:47Z</time>
      </trkpt>
      <trkpt lat="44.7928" lon="1.56694">
        <ele>148.9</ele>
        <time>2024-12-25T11:38:48Z</time>
      </trkpt>
      <trkpt lat="44.7928" lon="1.56696">
        <ele>148.9</ele>
        <time>2024-12-25T11:38:49Z</time>
      </trkpt>
      <trkpt lat="44.79279" lon="1.56697">
        <ele>148.8</ele>
        <time>2024-12-25T11:38:50Z</time>
      </trkpt>
      <trkpt lat="44.79279" lon="1.56698">
        <ele>148.8</ele>
        <time>2024-12-25T11:38:51Z</time>
      </trkpt>
      <trkpt lat="44.79279" lon="1.56699">
        <ele>148.8</ele>
        <time>2024-12-25T11:38:52Z</time>
      </trkpt>
      <trkpt lat="44.79279" lon="1.567">
        <ele>148.7</ele>
        <time>2024-12-25T11:38:53Z</time>
      </trkpt>
      <trkpt lat="44.79278" lon="1.56701">
        <ele>148.7</ele>
        <time>2024-12-25T11:38:54Z</time>
      </trkpt>
      <trkpt lat="44.79278" lon="1.56702">
        <ele>148.7</ele>
        <time>2024-12-25T11:38:55Z</time>
      </trkpt>
      <trkpt lat="44.79277" lon="1.56703">
        <ele>148.6</ele>
        <time>2024-12-25T11:38:56Z</time>
      </trkpt>
      <trkpt lat="44.79277" lon="1.56703">
        <ele>148.6</ele>
        <time>2024-12-25T11:38:57Z</time>
      </trkpt>
      <trkpt lat="44.79277" lon="1.56703">
        <ele>148.6</ele>
        <time>2024-12-25T11:38:58Z</time>
      </trkpt>
      <trkpt lat="44.79277" lon="1.56703">
        <ele>148.6</ele>
        <time>2024-12-25T11:38:59Z</time>
      </trkpt>
      <trkpt lat="44.79277" lon="1.56703">
        <ele>148.6</ele>
        <time>2024-12-25T11:39:00Z</time>
      </trkpt>
      <trkpt lat="44.79277" lon="1.56704">
        <ele>148.6</ele>
        <time>2024-12-25T11:39:01Z</time>
      </trkpt>
      <trkpt lat="44.79275" lon="1.56707">
        <ele>148.5</ele>
        <time>2024-12-25T11:39:02Z</time>
      </trkpt>
      <trkpt lat="44.79274" lon="1.56709">
        <ele>148.5</ele>
        <time>2024-12-25T11:39:03Z</time>
      </trkpt>
      <trkpt lat="44.79273" lon="1.56713">
        <ele>148.4</ele>
        <time>2024-12-25T11:39:04Z</time>
      </trkpt>
      <trkpt lat="44.79272" lon="1.56714">
        <ele>148.4</ele>
        <time>2024-12-25T11:39:05Z</time>
      </trkpt>
      <trkpt lat="44.79271" lon="1.56716">
        <ele>148.3</ele>
        <time>2024-12-25T11:39:06Z</time>
      </trkpt>
      <trkpt lat="44.79271" lon="1.56718">
        <ele>148.3</ele>
        <time>2024-12-25T11:39:07Z</time>
      </trkpt>
      <trkpt lat="44.7927" lon="1.5672">
        <ele>148.2</ele>
        <time>2024-12-25T11:39:08Z</time>
      </trkpt>
      <trkpt lat="44.7927" lon="1.56722">
        <ele>148.2</ele>
        <time>2024-12-25T11:39:09Z</time>
      </trkpt>
      <trkpt lat="44.79268" lon="1.56726">
        <ele>148.1</ele>
        <time>2024-12-25T11:39:11Z</time>
      </trkpt>
      <trkpt lat="44.79267" lon="1.56728">
        <ele>148.1</ele>
        <time>2024-12-25T11:39:12Z</time>
      </trkpt>
      <trkpt lat="44.79265" lon="1.56732">
        <ele>148</ele>
        <time>2024-12-25T11:39:13Z</time>
      </trkpt>
      <trkpt lat="44.79262" lon="1.56736">
        <ele>147.9</ele>
        <time>2024-12-25T11:39:14Z</time>
      </trkpt>
      <trkpt lat="44.79261" lon="1.56738">
        <ele>147.9</ele>
        <time>2024-12-25T11:39:15Z</time>
      </trkpt>
      <trkpt lat="44.79259" lon="1.56741">
        <ele>147.8</ele>
        <time>2024-12-25T11:39:16Z</time>
      </trkpt>
      <trkpt lat="44.79259" lon="1.56743">
        <ele>147.7</ele>
        <time>2024-12-25T11:39:17Z</time>
      </trkpt>
      <trkpt lat="44.79257" lon="1.56744">
        <ele>147.7</ele>
        <time>2024-12-25T11:39:18Z</time>
      </trkpt>
      <trkpt lat="44.79256" lon="1.56745">
        <ele>147.6</ele>
        <time>2024-12-25T11:39:19Z</time>
      </trkpt>
      <trkpt lat="44.79253" lon="1.56746">
        <ele>147.5</ele>
        <time>2024-12-25T11:39:20Z</time>
      </trkpt>
      <trkpt lat="44.79251" lon="1.56747">
        <ele>147.5</ele>
        <time>2024-12-25T11:39:21Z</time>
      </trkpt>
      <trkpt lat="44.79251" lon="1.56748">
        <ele>147.4</ele>
        <time>2024-12-25T11:39:22Z</time>
      </trkpt>
      <trkpt lat="44.7925" lon="1.56749">
        <ele>147.4</ele>
        <time>2024-12-25T11:39:23Z</time>
      </trkpt>
      <trkpt lat="44.79249" lon="1.56752">
        <ele>147.3</ele>
        <time>2024-12-25T11:39:24Z</time>
      </trkpt>
      <trkpt lat="44.79248" lon="1.56752">
        <ele>147.3</ele>
        <time>2024-12-25T11:39:25Z</time>
      </trkpt>
      <trkpt lat="44.79247" lon="1.56753">
        <ele>147.2</ele>
        <time>2024-12-25T11:39:26Z</time>
      </trkpt>
      <trkpt lat="44.79247" lon="1.56756">
        <ele>147.2</ele>
        <time>2024-12-25T11:39:27Z</time>
      </trkpt>
      <trkpt lat="44.79246" lon="1.56757">
        <ele>147.1</ele>
        <time>2024-12-25T11:39:28Z</time>
      </trkpt>
      <trkpt lat="44.79246" lon="1.56758">
        <ele>147.1</ele>
        <time>2024-12-25T11:39:29Z</time>
      </trkpt>
      <trkpt lat="44.79245" lon="1.56761">
        <ele>147</ele>
        <time>2024-12-25T11:39:30Z</time>
      </trkpt>
      <trkpt lat="44.79245" lon="1.56762">
        <ele>146.9</ele>
        <time>2024-12-25T11:39:31Z</time>
      </trkpt>
      <trkpt lat="44.79244" lon="1.56763">
        <ele>146.9</ele>
        <time>2024-12-25T11:39:32Z</time>
      </trkpt>
      <trkpt lat="44.79244" lon="1.56766">
        <ele>146.8</ele>
        <time>2024-12-25T11:39:33Z</time>
      </trkpt>
      <trkpt lat="44.79243" lon="1.56768">
        <ele>146.7</ele>
        <time>2024-12-25T11:39:34Z</time>
      </trkpt>
      <trkpt lat="44.79249" lon="1.56753">
        <ele>146</ele>
        <time>2024-12-25T11:39:35Z</time>
      </trkpt>
      <trkpt lat="44.79249" lon="1.56753">
        <ele>146</ele>
        <time>2024-12-25T11:39:36Z</time>
      </trkpt>
      <trkpt lat="44.79236" lon="1.5677">
        <ele>144.7</ele>
        <time>2024-12-25T11:39:41Z</time>
      </trkpt>
      <trkpt lat="44.79235" lon="1.56772">
        <ele>144.5</ele>
        <time>2024-12-25T11:39:42Z</time>
      </trkpt>
      <trkpt lat="44.79235" lon="1.56772">
        <ele>144.5</ele>
        <time>2024-12-25T11:39:43Z</time>
      </trkpt>
      <trkpt lat="44.79235" lon="1.56773">
        <ele>144.5</ele>
        <time>2024-12-25T11:39:44Z</time>
      </trkpt>
      <trkpt lat="44.79234" lon="1.56774">
        <ele>144.3</ele>
        <time>2024-12-25T11:39:46Z</time>
      </trkpt>
      <trkpt lat="44.79234" lon="1.56775">
        <ele>144.3</ele>
        <time>2024-12-25T11:39:47Z</time>
      </trkpt>
      <trkpt lat="44.79233" lon="1.56776">
        <ele>144.2</ele>
        <time>2024-12-25T11:39:48Z</time>
      </trkpt>
      <trkpt lat="44.79233" lon="1.56777">
        <ele>144.2</ele>
        <time>2024-12-25T11:39:49Z</time>
      </trkpt>
      <trkpt lat="44.79233" lon="1.56778">
        <ele>144.1</ele>
        <time>2024-12-25T11:39:50Z</time>
      </trkpt>
      <trkpt lat="44.79232" lon="1.5678">
        <ele>143.9</ele>
        <time>2024-12-25T11:39:51Z</time>
      </trkpt>
      <trkpt lat="44.79232" lon="1.56782">
        <ele>143.8</ele>
        <time>2024-12-25T11:39:52Z</time>
      </trkpt>
      <trkpt lat="44.79231" lon="1.56783">
        <ele>143.7</ele>
        <time>2024-12-25T11:39:53Z</time>
      </trkpt>
      <trkpt lat="44.7923" lon="1.56785">
        <ele>143.6</ele>
        <time>2024-12-25T11:39:54Z</time>
      </trkpt>
      <trkpt lat="44.7923" lon="1.56785">
        <ele>143.6</ele>
        <time>2024-12-25T11:39:56Z</time>
      </trkpt>
      <trkpt lat="44.7923" lon="1.56784">
        <ele>143.5</ele>
        <time>2024-12-25T11:39:57Z</time>
      </trkpt>
      <trkpt lat="44.7923" lon="1.56784">
        <ele>143.5</ele>
        <time>2024-12-25T11:39:58Z</time>
      </trkpt>
      <trkpt lat="44.7923" lon="1.56784">
        <ele>143.5</ele>
        <time>2024-12-25T11:39:59Z</time>
      </trkpt>
      <trkpt lat="44.7923" lon="1.56784">
        <ele>143.5</ele>
        <time>2024-12-25T11:40:00Z</time>
      </trkpt>
      <trkpt lat="44.7923" lon="1.56784">
        <ele>143.4</ele>
        <time>2024-12-25T11:40:01Z</time>
      </trkpt>
      <trkpt lat="44.79229" lon="1.56785">
        <ele>143.4</ele>
        <time>2024-12-25T11:40:02Z</time>
      </trkpt>
      <trkpt lat="44.79229" lon="1.56785">
        <ele>143.3</ele>
        <time>2024-12-25T11:40:03Z</time>
      </trkpt>
      <trkpt lat="44.79228" lon="1.56785">
        <ele>143.3</ele>
        <time>2024-12-25T11:40:04Z</time>
      </trkpt>
      <trkpt lat="44.79228" lon="1.56785">
        <ele>143.2</ele>
        <time>2024-12-25T11:40:05Z</time>
      </trkpt>
      <trkpt lat="44.79228" lon="1.56786">
        <ele>143.2</ele>
        <time>2024-12-25T11:40:06Z</time>
      </trkpt>
      <trkpt lat="44.79227" lon="1.56786">
        <ele>143.2</ele>
        <time>2024-12-25T11:40:07Z</time>
      </trkpt>
      <trkpt lat="44.79227" lon="1.56786">
        <ele>143.2</ele>
        <time>2024-12-25T11:40:08Z</time>
      </trkpt>
      <trkpt lat="44.79227" lon="1.56786">
        <ele>143.1</ele>
        <time>2024-12-25T11:40:09Z</time>
      </trkpt>
      <trkpt lat="44.79226" lon="1.56786">
        <ele>143.1</ele>
        <time>2024-12-25T11:40:10Z</time>
      </trkpt>
      <trkpt lat="44.79226" lon="1.56786">
        <ele>143</ele>
        <time>2024-12-25T11:40:11Z</time>
      </trkpt>
      <trkpt lat="44.79226" lon="1.56787">
        <ele>143</ele>
        <time>2024-12-25T11:40:12Z</time>
      </trkpt>
      <trkpt lat="44.79223" lon="1.56788">
        <ele>142.8</ele>
        <time>2024-12-25T11:40:13Z</time>
      </trkpt>
      <trkpt lat="44.79223" lon="1.56788">
        <ele>142.7</ele>
        <time>2024-12-25T11:40:14Z</time>
      </trkpt>
      <trkpt lat="44.79222" lon="1.56789">
        <ele>142.6</ele>
        <time>2024-12-25T11:40:15Z</time>
      </trkpt>
      <trkpt lat="44.79219" lon="1.56791">
        <ele>142.4</ele>
        <time>2024-12-25T11:40:16Z</time>
      </trkpt>
      <trkpt lat="44.79218" lon="1.56792">
        <ele>142.3</ele>
        <time>2024-12-25T11:40:17Z</time>
      </trkpt>
      <trkpt lat="44.79217" lon="1.56795">
        <ele>142.1</ele>
        <time>2024-12-25T11:40:18Z</time>
      </trkpt>
      <trkpt lat="44.79216" lon="1.56796">
        <ele>142</ele>
        <time>2024-12-25T11:40:19Z</time>
      </trkpt>
      <trkpt lat="44.79213" lon="1.56799">
        <ele>141.8</ele>
        <time>2024-12-25T11:40:20Z</time>
      </trkpt>
      <trkpt lat="44.79213" lon="1.56799">
        <ele>141.7</ele>
        <time>2024-12-25T11:40:21Z</time>
      </trkpt>
      <trkpt lat="44.79211" lon="1.568">
        <ele>141.6</ele>
        <time>2024-12-25T11:40:22Z</time>
      </trkpt>
      <trkpt lat="44.7921" lon="1.56801">
        <ele>141.5</ele>
        <time>2024-12-25T11:40:23Z</time>
      </trkpt>
      <trkpt lat="44.79208" lon="1.56803">
        <ele>141.3</ele>
        <time>2024-12-25T11:40:24Z</time>
      </trkpt>
      <trkpt lat="44.79207" lon="1.56804">
        <ele>141.3</ele>
        <time>2024-12-25T11:40:25Z</time>
      </trkpt>
      <trkpt lat="44.79207" lon="1.56804">
        <ele>141.2</ele>
        <time>2024-12-25T11:40:26Z</time>
      </trkpt>
      <trkpt lat="44.79206" lon="1.56805">
        <ele>141.1</ele>
        <time>2024-12-25T11:40:27Z</time>
      </trkpt>
      <trkpt lat="44.79205" lon="1.56807">
        <ele>141</ele>
        <time>2024-12-25T11:40:28Z</time>
      </trkpt>
      <trkpt lat="44.79204" lon="1.56808">
        <ele>140.9</ele>
        <time>2024-12-25T11:40:29Z</time>
      </trkpt>
      <trkpt lat="44.79203" lon="1.56809">
        <ele>140.9</ele>
        <time>2024-12-25T11:40:30Z</time>
      </trkpt>
      <trkpt lat="44.79202" lon="1.56809">
        <ele>140.8</ele>
        <time>2024-12-25T11:40:31Z</time>
      </trkpt>
      <trkpt lat="44.79201" lon="1.5681">
        <ele>140.7</ele>
        <time>2024-12-25T11:40:32Z</time>
      </trkpt>
      <trkpt lat="44.79199" lon="1.56811">
        <ele>140.6</ele>
        <time>2024-12-25T11:40:33Z</time>
      </trkpt>
      <trkpt lat="44.79198" lon="1.56811">
        <ele>140.5</ele>
        <time>2024-12-25T11:40:34Z</time>
      </trkpt>
      <trkpt lat="44.79198" lon="1.56812">
        <ele>140.5</ele>
        <time>2024-12-25T11:40:35Z</time>
      </trkpt>
      <trkpt lat="44.79197" lon="1.56814">
        <ele>140.4</ele>
        <time>2024-12-25T11:40:36Z</time>
      </trkpt>
      <trkpt lat="44.79196" lon="1.56815">
        <ele>140.3</ele>
        <time>2024-12-25T11:40:37Z</time>
      </trkpt>
      <trkpt lat="44.79196" lon="1.56816">
        <ele>140.3</ele>
        <time>2024-12-25T11:40:38Z</time>
      </trkpt>
      <trkpt lat="44.79195" lon="1.56816">
        <ele>140.2</ele>
        <time>2024-12-25T11:40:39Z</time>
      </trkpt>
      <trkpt lat="44.79194" lon="1.56817">
        <ele>140.1</ele>
        <time>2024-12-25T11:40:40Z</time>
      </trkpt>
      <trkpt lat="44.79192" lon="1.56817">
        <ele>140</ele>
        <time>2024-12-25T11:40:41Z</time>
      </trkpt>
      <trkpt lat="44.79191" lon="1.56818">
        <ele>139.9</ele>
        <time>2024-12-25T11:40:42Z</time>
      </trkpt>
      <trkpt lat="44.7919" lon="1.56818">
        <ele>139.9</ele>
        <time>2024-12-25T11:40:43Z</time>
      </trkpt>
      <trkpt lat="44.79188" lon="1.5682">
        <ele>139.7</ele>
        <time>2024-12-25T11:40:44Z</time>
      </trkpt>
      <trkpt lat="44.79187" lon="1.5682">
        <ele>139.7</ele>
        <time>2024-12-25T11:40:45Z</time>
      </trkpt>
      <trkpt lat="44.79187" lon="1.56821">
        <ele>139.6</ele>
        <time>2024-12-25T11:40:46Z</time>
      </trkpt>
      <trkpt lat="44.79187" lon="1.56823">
        <ele>139.5</ele>
        <time>2024-12-25T11:40:47Z</time>
      </trkpt>
      <trkpt lat="44.79187" lon="1.56826">
        <ele>139.4</ele>
        <time>2024-12-25T11:40:49Z</time>
      </trkpt>
      <trkpt lat="44.79187" lon="1.56828">
        <ele>139.3</ele>
        <time>2024-12-25T11:40:50Z</time>
      </trkpt>
      <trkpt lat="44.79187" lon="1.5683">
        <ele>139.2</ele>
        <time>2024-12-25T11:40:51Z</time>
      </trkpt>
      <trkpt lat="44.79187" lon="1.56832">
        <ele>139.1</ele>
        <time>2024-12-25T11:40:52Z</time>
      </trkpt>
      <trkpt lat="44.79187" lon="1.56834">
        <ele>139</ele>
        <time>2024-12-25T11:40:53Z</time>
      </trkpt>
      <trkpt lat="44.79187" lon="1.56837">
        <ele>138.8</ele>
        <time>2024-12-25T11:40:54Z</time>
      </trkpt>
      <trkpt lat="44.79187" lon="1.56839">
        <ele>138.8</ele>
        <time>2024-12-25T11:40:55Z</time>
      </trkpt>
      <trkpt lat="44.79186" lon="1.56839">
        <ele>138.7</ele>
        <time>2024-12-25T11:40:56Z</time>
      </trkpt>
      <trkpt lat="44.79185" lon="1.5684">
        <ele>138.6</ele>
        <time>2024-12-25T11:40:57Z</time>
      </trkpt>
      <trkpt lat="44.79184" lon="1.5684">
        <ele>138.6</ele>
        <time>2024-12-25T11:40:58Z</time>
      </trkpt>
      <trkpt lat="44.79184" lon="1.56841">
        <ele>138.5</ele>
        <time>2024-12-25T11:40:59Z</time>
      </trkpt>
      <trkpt lat="44.79184" lon="1.56841">
        <ele>138.5</ele>
        <time>2024-12-25T11:41:00Z</time>
      </trkpt>
      <trkpt lat="44.79184" lon="1.56841">
        <ele>138.5</ele>
        <time>2024-12-25T11:41:01Z</time>
      </trkpt>
      <trkpt lat="44.79184" lon="1.56841">
        <ele>138.5</ele>
        <time>2024-12-25T11:41:02Z</time>
      </trkpt>
      <trkpt lat="44.79184" lon="1.56841">
        <ele>138.5</ele>
        <time>2024-12-25T11:41:03Z</time>
      </trkpt>
      <trkpt lat="44.79184" lon="1.5684">
        <ele>138.4</ele>
        <time>2024-12-25T11:41:04Z</time>
      </trkpt>
      <trkpt lat="44.79184" lon="1.5684">
        <ele>138.4</ele>
        <time>2024-12-25T11:41:05Z</time>
      </trkpt>
      <trkpt lat="44.79185" lon="1.5684">
        <ele>138.4</ele>
        <time>2024-12-25T11:41:06Z</time>
      </trkpt>
      <trkpt lat="44.79185" lon="1.5684">
        <ele>138.4</ele>
        <time>2024-12-25T11:41:07Z</time>
      </trkpt>
      <trkpt lat="44.79185" lon="1.5684">
        <ele>138.4</ele>
        <time>2024-12-25T11:41:08Z</time>
      </trkpt>
      <trkpt lat="44.79185" lon="1.5684">
        <ele>138.4</ele>
        <time>2024-12-25T11:41:09Z</time>
      </trkpt>
      <trkpt lat="44.79185" lon="1.5684">
        <ele>138.4</ele>
        <time>2024-12-25T11:41:10Z</time>
      </trkpt>
      <trkpt lat="44.79185" lon="1.5684">
        <ele>138.4</ele>
        <time>2024-12-25T11:41:11Z</time>
      </trkpt>
      <trkpt lat="44.79185" lon="1.5684">
        <ele>138.4</ele>
        <time>2024-12-25T11:41:12Z</time>
      </trkpt>
      <trkpt lat="44.79185" lon="1.5684">
        <ele>138.4</ele>
        <time>2024-12-25T11:41:13Z</time>
      </trkpt>
      <trkpt lat="44.79186" lon="1.5684">
        <ele>138.3</ele>
        <time>2024-12-25T11:41:14Z</time>
      </trkpt>
      <trkpt lat="44.79186" lon="1.5684">
        <ele>138.3</ele>
        <time>2024-12-25T11:41:15Z</time>
      </trkpt>
      <trkpt lat="44.79186" lon="1.5684">
        <ele>138.3</ele>
        <time>2024-12-25T11:41:16Z</time>
      </trkpt>
      <trkpt lat="44.79186" lon="1.56839">
        <ele>138.3</ele>
        <time>2024-12-25T11:41:17Z</time>
      </trkpt>
      <trkpt lat="44.79186" lon="1.56839">
        <ele>138.3</ele>
        <time>2024-12-25T11:41:18Z</time>
      </trkpt>
      <trkpt lat="44.79186" lon="1.56839">
        <ele>138.3</ele>
        <time>2024-12-25T11:41:19Z</time>
      </trkpt>
      <trkpt lat="44.79186" lon="1.56839">
        <ele>138.3</ele>
        <time>2024-12-25T11:41:20Z</time>
      </trkpt>
      <trkpt lat="44.79187" lon="1.56839">
        <ele>138.3</ele>
        <time>2024-12-25T11:41:21Z</time>
      </trkpt>
      <trkpt lat="44.79187" lon="1.56839">
        <ele>138.3</ele>
        <time>2024-12-25T11:41:22Z</time>
      </trkpt>
      <trkpt lat="44.79187" lon="1.56839">
        <ele>138.3</ele>
        <time>2024-12-25T11:41:23Z</time>
      </trkpt>
      <trkpt lat="44.79187" lon="1.56839">
        <ele>138.2</ele>
        <time>2024-12-25T11:41:24Z</time>
      </trkpt>
      <trkpt lat="44.79187" lon="1.56839">
        <ele>138.2</ele>
        <time>2024-12-25T11:41:25Z</time>
      </trkpt>
      <trkpt lat="44.79187" lon="1.56839">
        <ele>138.2</ele>
        <time>2024-12-25T11:41:26Z</time>
      </trkpt>
      <trkpt lat="44.79187" lon="1.56839">
        <ele>138.2</ele>
        <time>2024-12-25T11:41:27Z</time>
      </trkpt>
      <trkpt lat="44.79187" lon="1.56839">
        <ele>138.2</ele>
        <time>2024-12-25T11:41:28Z</time>
      </trkpt>
      <trkpt lat="44.79188" lon="1.56839">
        <ele>138.2</ele>
        <time>2024-12-25T11:41:29Z</time>
      </trkpt>
      <trkpt lat="44.79188" lon="1.56838">
        <ele>138.2</ele>
        <time>2024-12-25T11:41:30Z</time>
      </trkpt>
      <trkpt lat="44.79188" lon="1.56838">
        <ele>138.2</ele>
        <time>2024-12-25T11:41:31Z</time>
      </trkpt>
      <trkpt lat="44.79188" lon="1.56838">
        <ele>138.2</ele>
        <time>2024-12-25T11:41:32Z</time>
      </trkpt>
      <trkpt lat="44.79188" lon="1.56838">
        <ele>138.2</ele>
        <time>2024-12-25T11:41:33Z</time>
      </trkpt>
      <trkpt lat="44.79188" lon="1.56838">
        <ele>138.1</ele>
        <time>2024-12-25T11:41:34Z</time>
      </trkpt>
      <trkpt lat="44.79188" lon="1.56838">
        <ele>138.1</ele>
        <time>2024-12-25T11:41:35Z</time>
      </trkpt>
      <trkpt lat="44.79188" lon="1.56838">
        <ele>138.1</ele>
        <time>2024-12-25T11:41:36Z</time>
      </trkpt>
      <trkpt lat="44.79189" lon="1.56838">
        <ele>138.1</ele>
        <time>2024-12-25T11:41:37Z</time>
      </trkpt>
      <trkpt lat="44.79189" lon="1.56838">
        <ele>138.1</ele>
        <time>2024-12-25T11:41:38Z</time>
      </trkpt>
      <trkpt lat="44.79189" lon="1.56838">
        <ele>138.1</ele>
        <time>2024-12-25T11:41:39Z</time>
      </trkpt>
      <trkpt lat="44.79189" lon="1.56838">
        <ele>138.1</ele>
        <time>2024-12-25T11:41:40Z</time>
      </trkpt>
      <trkpt lat="44.79189" lon="1.56838">
        <ele>138.1</ele>
        <time>2024-12-25T11:41:41Z</time>
      </trkpt>
      <trkpt lat="44.79189" lon="1.56838">
        <ele>138.1</ele>
        <time>2024-12-25T11:41:42Z</time>
      </trkpt>
      <trkpt lat="44.79189" lon="1.56837">
        <ele>138</ele>
        <time>2024-12-25T11:41:48Z</time>
      </trkpt>
      <trkpt lat="44.79189" lon="1.56837">
        <ele>138</ele>
        <time>2024-12-25T11:41:49Z</time>
      </trkpt>
      <trkpt lat="44.7919" lon="1.56837">
        <ele>138</ele>
        <time>2024-12-25T11:41:50Z</time>
      </trkpt>
      <trkpt lat="44.7919" lon="1.56837">
        <ele>138</ele>
        <time>2024-12-25T11:41:51Z</time>
      </trkpt>
      <trkpt lat="44.7919" lon="1.56837">
        <ele>138</ele>
        <time>2024-12-25T11:41:52Z</time>
      </trkpt>
      <trkpt lat="44.7919" lon="1.56837">
        <ele>138</ele>
        <time>2024-12-25T11:41:53Z</time>
      </trkpt>
      <trkpt lat="44.7919" lon="1.56837">
        <ele>138</ele>
        <time>2024-12-25T11:41:54Z</time>
      </trkpt>
      <trkpt lat="44.7919" lon="1.56837">
        <ele>138</ele>
        <time>2024-12-25T11:41:55Z</time>
      </trkpt>
      <trkpt lat="44.7919" lon="1.56837">
        <ele>138</ele>
        <time>2024-12-25T11:41:56Z</time>
      </trkpt>
      <trkpt lat="44.7919" lon="1.56837">
        <ele>137.9</ele>
        <time>2024-12-25T11:41:57Z</time>
      </trkpt>
      <trkpt lat="44.7919" lon="1.56837">
        <ele>137.9</ele>
        <time>2024-12-25T11:41:58Z</time>
      </trkpt>
      <trkpt lat="44.79191" lon="1.56837">
        <ele>137.9</ele>
        <time>2024-12-25T11:42:00Z</time>
      </trkpt>
      <trkpt lat="44.79191" lon="1.56837">
        <ele>137.9</ele>
        <time>2024-12-25T11:42:01Z</time>
      </trkpt>
      <trkpt lat="44.79191" lon="1.56837">
        <ele>137.9</ele>
        <time>2024-12-25T11:42:02Z</time>
      </trkpt>
      <trkpt lat="44.79191" lon="1.56837">
        <ele>137.9</ele>
        <time>2024-12-25T11:42:03Z</time>
      </trkpt>
      <trkpt lat="44.79192" lon="1.56837">
        <ele>137.8</ele>
        <time>2024-12-25T11:42:04Z</time>
      </trkpt>
      <trkpt lat="44.79192" lon="1.56837">
        <ele>137.8</ele>
        <time>2024-12-25T11:42:05Z</time>
      </trkpt>
      <trkpt lat="44.79192" lon="1.56837">
        <ele>137.8</ele>
        <time>2024-12-25T11:42:06Z</time>
      </trkpt>
      <trkpt lat="44.79193" lon="1.56837">
        <ele>137.8</ele>
        <time>2024-12-25T11:42:07Z</time>
      </trkpt>
      <trkpt lat="44.79193" lon="1.56837">
        <ele>137.7</ele>
        <time>2024-12-25T11:42:08Z</time>
      </trkpt>
      <trkpt lat="44.79194" lon="1.56836">
        <ele>137.7</ele>
        <time>2024-12-25T11:42:09Z</time>
      </trkpt>
      <trkpt lat="44.79194" lon="1.56836">
        <ele>137.7</ele>
        <time>2024-12-25T11:42:10Z</time>
      </trkpt>
      <trkpt lat="44.79194" lon="1.56836">
        <ele>137.6</ele>
        <time>2024-12-25T11:42:11Z</time>
      </trkpt>
      <trkpt lat="44.79195" lon="1.56836">
        <ele>137.6</ele>
        <time>2024-12-25T11:42:12Z</time>
      </trkpt>
      <trkpt lat="44.79195" lon="1.56836">
        <ele>137.6</ele>
        <time>2024-12-25T11:42:13Z</time>
      </trkpt>
      <trkpt lat="44.79195" lon="1.56836">
        <ele>137.6</ele>
        <time>2024-12-25T11:42:14Z</time>
      </trkpt>
      <trkpt lat="44.79195" lon="1.56836">
        <ele>137.6</ele>
        <time>2024-12-25T11:42:15Z</time>
      </trkpt>
      <trkpt lat="44.79196" lon="1.56835">
        <ele>137.5</ele>
        <time>2024-12-25T11:42:16Z</time>
      </trkpt>
      <trkpt lat="44.79196" lon="1.56834">
        <ele>137.5</ele>
        <time>2024-12-25T11:42:17Z</time>
      </trkpt>
      <trkpt lat="44.79197" lon="1.56833">
        <ele>137.4</ele>
        <time>2024-12-25T11:42:18Z</time>
      </trkpt>
      <trkpt lat="44.79197" lon="1.56832">
        <ele>137.3</ele>
        <time>2024-12-25T11:42:19Z</time>
      </trkpt>
      <trkpt lat="44.79198" lon="1.56831">
        <ele>137.2</ele>
        <time>2024-12-25T11:42:20Z</time>
      </trkpt>
      <trkpt lat="44.79199" lon="1.5683">
        <ele>137.2</ele>
        <time>2024-12-25T11:42:21Z</time>
      </trkpt>
      <trkpt lat="44.79199" lon="1.56829">
        <ele>137.1</ele>
        <time>2024-12-25T11:42:22Z</time>
      </trkpt>
      <trkpt lat="44.792" lon="1.56828">
        <ele>137</ele>
        <time>2024-12-25T11:42:23Z</time>
      </trkpt>
      <trkpt lat="44.792" lon="1.56827">
        <ele>137</ele>
        <time>2024-12-25T11:42:24Z</time>
      </trkpt>
      <trkpt lat="44.79201" lon="1.56826">
        <ele>137</ele>
        <time>2024-12-25T11:42:25Z</time>
      </trkpt>
      <trkpt lat="44.79201" lon="1.56826">
        <ele>136.9</ele>
        <time>2024-12-25T11:42:26Z</time>
      </trkpt>
      <trkpt lat="44.79201" lon="1.56826">
        <ele>136.9</ele>
        <time>2024-12-25T11:42:27Z</time>
      </trkpt>
      <trkpt lat="44.79201" lon="1.56826">
        <ele>136.9</ele>
        <time>2024-12-25T11:42:28Z</time>
      </trkpt>
      <trkpt lat="44.79201" lon="1.56826">
        <ele>136.9</ele>
        <time>2024-12-25T11:42:29Z</time>
      </trkpt>
      <trkpt lat="44.79201" lon="1.56826">
        <ele>136.9</ele>
        <time>2024-12-25T11:42:30Z</time>
      </trkpt>
      <trkpt lat="44.79201" lon="1.56826">
        <ele>136.9</ele>
        <time>2024-12-25T11:42:31Z</time>
      </trkpt>
      <trkpt lat="44.79201" lon="1.56826">
        <ele>136.9</ele>
        <time>2024-12-25T11:42:32Z</time>
      </trkpt>
      <trkpt lat="44.79202" lon="1.56826">
        <ele>136.9</ele>
        <time>2024-12-25T11:42:33Z</time>
      </trkpt>
      <trkpt lat="44.79202" lon="1.56826">
        <ele>136.9</ele>
        <time>2024-12-25T11:42:34Z</time>
      </trkpt>
      <trkpt lat="44.79202" lon="1.56825">
        <ele>136.9</ele>
        <time>2024-12-25T11:42:35Z</time>
      </trkpt>
      <trkpt lat="44.79202" lon="1.56825">
        <ele>136.8</ele>
        <time>2024-12-25T11:42:36Z</time>
      </trkpt>
      <trkpt lat="44.79202" lon="1.56825">
        <ele>136.8</ele>
        <time>2024-12-25T11:42:37Z</time>
      </trkpt>
      <trkpt lat="44.79202" lon="1.56825">
        <ele>136.8</ele>
        <time>2024-12-25T11:42:38Z</time>
      </trkpt>
      <trkpt lat="44.79202" lon="1.56825">
        <ele>136.8</ele>
        <time>2024-12-25T11:42:39Z</time>
      </trkpt>
      <trkpt lat="44.79202" lon="1.56825">
        <ele>136.8</ele>
        <time>2024-12-25T11:42:40Z</time>
      </trkpt>
      <trkpt lat="44.79202" lon="1.56825">
        <ele>136.8</ele>
        <time>2024-12-25T11:42:41Z</time>
      </trkpt>
      <trkpt lat="44.79202" lon="1.56825">
        <ele>136.8</ele>
        <time>2024-12-25T11:42:42Z</time>
      </trkpt>
      <trkpt lat="44.79202" lon="1.56826">
        <ele>136.8</ele>
        <time>2024-12-25T11:42:43Z</time>
      </trkpt>
      <trkpt lat="44.79202" lon="1.56826">
        <ele>136.8</ele>
        <time>2024-12-25T11:42:44Z</time>
      </trkpt>
      <trkpt lat="44.79202" lon="1.56826">
        <ele>136.8</ele>
        <time>2024-12-25T11:42:45Z</time>
      </trkpt>
      <trkpt lat="44.79202" lon="1.56826">
        <ele>136.8</ele>
        <time>2024-12-25T11:42:46Z</time>
      </trkpt>
      <trkpt lat="44.79202" lon="1.56826">
        <ele>136.8</ele>
        <time>2024-12-25T11:42:47Z</time>
      </trkpt>
      <trkpt lat="44.79201" lon="1.56826">
        <ele>136.8</ele>
        <time>2024-12-25T11:42:48Z</time>
      </trkpt>
      <trkpt lat="44.79201" lon="1.56828">
        <ele>136.7</ele>
        <time>2024-12-25T11:42:49Z</time>
      </trkpt>
      <trkpt lat="44.792" lon="1.5683">
        <ele>136.6</ele>
        <time>2024-12-25T11:42:50Z</time>
      </trkpt>
      <trkpt lat="44.792" lon="1.56831">
        <ele>136.6</ele>
        <time>2024-12-25T11:42:51Z</time>
      </trkpt>
      <trkpt lat="44.79199" lon="1.56832">
        <ele>136.5</ele>
        <time>2024-12-25T11:42:52Z</time>
      </trkpt>
      <trkpt lat="44.79198" lon="1.56832">
        <ele>136.4</ele>
        <time>2024-12-25T11:42:53Z</time>
      </trkpt>
      <trkpt lat="44.79197" lon="1.56833">
        <ele>136.4</ele>
        <time>2024-12-25T11:42:54Z</time>
      </trkpt>
      <trkpt lat="44.79196" lon="1.56834">
        <ele>136.3</ele>
        <time>2024-12-25T11:42:55Z</time>
      </trkpt>
      <trkpt lat="44.79195" lon="1.56836">
        <ele>136.3</ele>
        <time>2024-12-25T11:42:56Z</time>
      </trkpt>
      <trkpt lat="44.79195" lon="1.56837">
        <ele>136.2</ele>
        <time>2024-12-25T11:42:57Z</time>
      </trkpt>
      <trkpt lat="44.79195" lon="1.56838">
        <ele>136.2</ele>
        <time>2024-12-25T11:42:58Z</time>
      </trkpt>
      <trkpt lat="44.79195" lon="1.56839">
        <ele>136.2</ele>
        <time>2024-12-25T11:42:59Z</time>
      </trkpt>
      <trkpt lat="44.79195" lon="1.56839">
        <ele>136.2</ele>
        <time>2024-12-25T11:43:00Z</time>
      </trkpt>
      <trkpt lat="44.79195" lon="1.56839">
        <ele>136.2</ele>
        <time>2024-12-25T11:43:01Z</time>
      </trkpt>
      <trkpt lat="44.79195" lon="1.56839">
        <ele>136.2</ele>
        <time>2024-12-25T11:43:02Z</time>
      </trkpt>
      <trkpt lat="44.79195" lon="1.56839">
        <ele>136.2</ele>
        <time>2024-12-25T11:43:03Z</time>
      </trkpt>
      <trkpt lat="44.79194" lon="1.56839">
        <ele>136.2</ele>
        <time>2024-12-25T11:43:04Z</time>
      </trkpt>
      <trkpt lat="44.79194" lon="1.56839">
        <ele>136.2</ele>
        <time>2024-12-25T11:43:05Z</time>
      </trkpt>
      <trkpt lat="44.79194" lon="1.56839">
        <ele>136.1</ele>
        <time>2024-12-25T11:43:06Z</time>
      </trkpt>
      <trkpt lat="44.79194" lon="1.56839">
        <ele>136.1</ele>
        <time>2024-12-25T11:43:07Z</time>
      </trkpt>
      <trkpt lat="44.79194" lon="1.56839">
        <ele>136.1</ele>
        <time>2024-12-25T11:43:08Z</time>
      </trkpt>
      <trkpt lat="44.79194" lon="1.56839">
        <ele>136.1</ele>
        <time>2024-12-25T11:43:09Z</time>
      </trkpt>
      <trkpt lat="44.79194" lon="1.56839">
        <ele>136.1</ele>
        <time>2024-12-25T11:43:10Z</time>
      </trkpt>
      <trkpt lat="44.79193" lon="1.56839">
        <ele>136.1</ele>
        <time>2024-12-25T11:43:11Z</time>
      </trkpt>
      <trkpt lat="44.79192" lon="1.56839">
        <ele>136.1</ele>
        <time>2024-12-25T11:43:12Z</time>
      </trkpt>
      <trkpt lat="44.79191" lon="1.5684">
        <ele>136</ele>
        <time>2024-12-25T11:43:13Z</time>
      </trkpt>
      <trkpt lat="44.79191" lon="1.5684">
        <ele>136</ele>
        <time>2024-12-25T11:43:14Z</time>
      </trkpt>
      <trkpt lat="44.7919" lon="1.56841">
        <ele>136</ele>
        <time>2024-12-25T11:43:15Z</time>
      </trkpt>
      <trkpt lat="44.79189" lon="1.56841">
        <ele>136</ele>
        <time>2024-12-25T11:43:16Z</time>
      </trkpt>
      <trkpt lat="44.79189" lon="1.56842">
        <ele>135.9</ele>
        <time>2024-12-25T11:43:17Z</time>
      </trkpt>
      <trkpt lat="44.79189" lon="1.56842">
        <ele>135.9</ele>
        <time>2024-12-25T11:43:18Z</time>
      </trkpt>
      <trkpt lat="44.79188" lon="1.56842">
        <ele>135.9</ele>
        <time>2024-12-25T11:43:19Z</time>
      </trkpt>
      <trkpt lat="44.79188" lon="1.56842">
        <ele>135.9</ele>
        <time>2024-12-25T11:43:20Z</time>
      </trkpt>
      <trkpt lat="44.79188" lon="1.56842">
        <ele>135.9</ele>
        <time>2024-12-25T11:43:21Z</time>
      </trkpt>
      <trkpt lat="44.79188" lon="1.56842">
        <ele>135.9</ele>
        <time>2024-12-25T11:43:22Z</time>
      </trkpt>
      <trkpt lat="44.79188" lon="1.56842">
        <ele>135.9</ele>
        <time>2024-12-25T11:43:23Z</time>
      </trkpt>
      <trkpt lat="44.79188" lon="1.56842">
        <ele>135.9</ele>
        <time>2024-12-25T11:43:24Z</time>
      </trkpt>
      <trkpt lat="44.79188" lon="1.56842">
        <ele>135.9</ele>
        <time>2024-12-25T11:43:25Z</time>
      </trkpt>
      <trkpt lat="44.79188" lon="1.56842">
        <ele>135.9</ele>
        <time>2024-12-25T11:43:26Z</time>
      </trkpt>
      <trkpt lat="44.79187" lon="1.56842">
        <ele>135.9</ele>
        <time>2024-12-25T11:43:27Z</time>
      </trkpt>
      <trkpt lat="44.79187" lon="1.56841">
        <ele>135.9</ele>
        <time>2024-12-25T11:43:28Z</time>
      </trkpt>
      <trkpt lat="44.79187" lon="1.56841">
        <ele>135.9</ele>
        <time>2024-12-25T11:43:29Z</time>
      </trkpt>
      <trkpt lat="44.79187" lon="1.56841">
        <ele>135.9</ele>
        <time>2024-12-25T11:43:30Z</time>
      </trkpt>
      <trkpt lat="44.79187" lon="1.56841">
        <ele>135.9</ele>
        <time>2024-12-25T11:43:31Z</time>
      </trkpt>
      <trkpt lat="44.79187" lon="1.56841">
        <ele>135.9</ele>
        <time>2024-12-25T11:43:32Z</time>
      </trkpt>
      <trkpt lat="44.79187" lon="1.56842">
        <ele>135.8</ele>
        <time>2024-12-25T11:43:33Z</time>
      </trkpt>
      <trkpt lat="44.79187" lon="1.56842">
        <ele>135.8</ele>
        <time>2024-12-25T11:43:34Z</time>
      </trkpt>
      <trkpt lat="44.79188" lon="1.56843">
        <ele>135.8</ele>
        <time>2024-12-25T11:43:35Z</time>
      </trkpt>
      <trkpt lat="44.79189" lon="1.56843">
        <ele>135.8</ele>
        <time>2024-12-25T11:43:36Z</time>
      </trkpt>
      <trkpt lat="44.7919" lon="1.56843">
        <ele>135.8</ele>
        <time>2024-12-25T11:43:37Z</time>
      </trkpt>
      <trkpt lat="44.7919" lon="1.56844">
        <ele>135.8</ele>
        <time>2024-12-25T11:43:38Z</time>
      </trkpt>
      <trkpt lat="44.79191" lon="1.56844">
        <ele>135.8</ele>
        <time>2024-12-25T11:43:39Z</time>
      </trkpt>
      <trkpt lat="44.7919" lon="1.56844">
        <ele>135.8</ele>
        <time>2024-12-25T11:43:40Z</time>
      </trkpt>
      <trkpt lat="44.7919" lon="1.56844">
        <ele>135.8</ele>
        <time>2024-12-25T11:43:41Z</time>
      </trkpt>
      <trkpt lat="44.7919" lon="1.56844">
        <ele>135.8</ele>
        <time>2024-12-25T11:43:42Z</time>
      </trkpt>
      <trkpt lat="44.7919" lon="1.56844">
        <ele>135.8</ele>
        <time>2024-12-25T11:43:43Z</time>
      </trkpt>
      <trkpt lat="44.7919" lon="1.56845">
        <ele>135.8</ele>
        <time>2024-12-25T11:43:44Z</time>
      </trkpt>
      <trkpt lat="44.7919" lon="1.56845">
        <ele>135.8</ele>
        <time>2024-12-25T11:43:45Z</time>
      </trkpt>
      <trkpt lat="44.7919" lon="1.56845">
        <ele>135.8</ele>
        <time>2024-12-25T11:43:46Z</time>
      </trkpt>
      <trkpt lat="44.7919" lon="1.56845">
        <ele>135.8</ele>
        <time>2024-12-25T11:43:47Z</time>
      </trkpt>
      <trkpt lat="44.7919" lon="1.56845">
        <ele>135.8</ele>
        <time>2024-12-25T11:43:48Z</time>
      </trkpt>
      <trkpt lat="44.7919" lon="1.56845">
        <ele>135.8</ele>
        <time>2024-12-25T11:43:49Z</time>
      </trkpt>
      <trkpt lat="44.7919" lon="1.56845">
        <ele>135.8</ele>
        <time>2024-12-25T11:43:50Z</time>
      </trkpt>
      <trkpt lat="44.7919" lon="1.56845">
        <ele>135.8</ele>
        <time>2024-12-25T11:43:51Z</time>
      </trkpt>
      <trkpt lat="44.7919" lon="1.56845">
        <ele>135.7</ele>
        <time>2024-12-25T11:43:52Z</time>
      </trkpt>
      <trkpt lat="44.7919" lon="1.56844">
        <ele>135.7</ele>
        <time>2024-12-25T11:43:53Z</time>
      </trkpt>
      <trkpt lat="44.79189" lon="1.56844">
        <ele>135.7</ele>
        <time>2024-12-25T11:43:54Z</time>
      </trkpt>
      <trkpt lat="44.79187" lon="1.56843">
        <ele>135.7</ele>
        <time>2024-12-25T11:43:55Z</time>
      </trkpt>
      <trkpt lat="44.79186" lon="1.56842">
        <ele>135.7</ele>
        <time>2024-12-25T11:43:56Z</time>
      </trkpt>
      <trkpt lat="44.79185" lon="1.56841">
        <ele>135.7</ele>
        <time>2024-12-25T11:43:57Z</time>
      </trkpt>
      <trkpt lat="44.79185" lon="1.56839">
        <ele>135.6</ele>
        <time>2024-12-25T11:43:58Z</time>
      </trkpt>
      <trkpt lat="44.79184" lon="1.56838">
        <ele>135.6</ele>
        <time>2024-12-25T11:43:59Z</time>
      </trkpt>
      <trkpt lat="44.79183" lon="1.56837">
        <ele>135.6</ele>
        <time>2024-12-25T11:44:00Z</time>
      </trkpt>
      <trkpt lat="44.79183" lon="1.56836">
        <ele>135.6</ele>
        <time>2024-12-25T11:44:01Z</time>
      </trkpt>
      <trkpt lat="44.79182" lon="1.56836">
        <ele>135.6</ele>
        <time>2024-12-25T11:44:02Z</time>
      </trkpt>
      <trkpt lat="44.79182" lon="1.56836">
        <ele>135.6</ele>
        <time>2024-12-25T11:44:03Z</time>
      </trkpt>
      <trkpt lat="44.79181" lon="1.56836">
        <ele>135.6</ele>
        <time>2024-12-25T11:44:04Z</time>
      </trkpt>
      <trkpt lat="44.79181" lon="1.56835">
        <ele>135.6</ele>
        <time>2024-12-25T11:44:05Z</time>
      </trkpt>
      <trkpt lat="44.79181" lon="1.56833">
        <ele>135.6</ele>
        <time>2024-12-25T11:44:06Z</time>
      </trkpt>
      <trkpt lat="44.79181" lon="1.56832">
        <ele>135.5</ele>
        <time>2024-12-25T11:44:07Z</time>
      </trkpt>
      <trkpt lat="44.7918" lon="1.56831">
        <ele>135.5</ele>
        <time>2024-12-25T11:44:08Z</time>
      </trkpt>
      <trkpt lat="44.79179" lon="1.5683">
        <ele>135.5</ele>
        <time>2024-12-25T11:44:09Z</time>
      </trkpt>
      <trkpt lat="44.79178" lon="1.5683">
        <ele>135.5</ele>
        <time>2024-12-25T11:44:10Z</time>
      </trkpt>
      <trkpt lat="44.79177" lon="1.5683">
        <ele>135.5</ele>
        <time>2024-12-25T11:44:11Z</time>
      </trkpt>
      <trkpt lat="44.79176" lon="1.56829">
        <ele>135.5</ele>
        <time>2024-12-25T11:44:12Z</time>
      </trkpt>
      <trkpt lat="44.79176" lon="1.56828">
        <ele>135.5</ele>
        <time>2024-12-25T11:44:13Z</time>
      </trkpt>
      <trkpt lat="44.79177" lon="1.56827">
        <ele>135.5</ele>
        <time>2024-12-25T11:44:14Z</time>
      </trkpt>
      <trkpt lat="44.79177" lon="1.56827">
        <ele>135.5</ele>
        <time>2024-12-25T11:44:15Z</time>
      </trkpt>
      <trkpt lat="44.79177" lon="1.56827">
        <ele>135.5</ele>
        <time>2024-12-25T11:44:16Z</time>
      </trkpt>
      <trkpt lat="44.79176" lon="1.56826">
        <ele>135.4</ele>
        <time>2024-12-25T11:44:17Z</time>
      </trkpt>
      <trkpt lat="44.79176" lon="1.56825">
        <ele>135.4</ele>
        <time>2024-12-25T11:44:18Z</time>
      </trkpt>
      <trkpt lat="44.79175" lon="1.56825">
        <ele>135.4</ele>
        <time>2024-12-25T11:44:19Z</time>
      </trkpt>
      <trkpt lat="44.79174" lon="1.56824">
        <ele>135.4</ele>
        <time>2024-12-25T11:44:20Z</time>
      </trkpt>
      <trkpt lat="44.79172" lon="1.56823">
        <ele>135.4</ele>
        <time>2024-12-25T11:44:21Z</time>
      </trkpt>
      <trkpt lat="44.79171" lon="1.56822">
        <ele>135.4</ele>
        <time>2024-12-25T11:44:22Z</time>
      </trkpt>
      <trkpt lat="44.79171" lon="1.56821">
        <ele>135.4</ele>
        <time>2024-12-25T11:44:23Z</time>
      </trkpt>
      <trkpt lat="44.79171" lon="1.5682">
        <ele>135.4</ele>
        <time>2024-12-25T11:44:24Z</time>
      </trkpt>
      <trkpt lat="44.7917" lon="1.5682">
        <ele>135.4</ele>
        <time>2024-12-25T11:44:25Z</time>
      </trkpt>
      <trkpt lat="44.7917" lon="1.56819">
        <ele>135.4</ele>
        <time>2024-12-25T11:44:26Z</time>
      </trkpt>
      <trkpt lat="44.79169" lon="1.5682">
        <ele>135.3</ele>
        <time>2024-12-25T11:44:27Z</time>
      </trkpt>
      <trkpt lat="44.79168" lon="1.56821">
        <ele>135.3</ele>
        <time>2024-12-25T11:44:28Z</time>
      </trkpt>
      <trkpt lat="44.79168" lon="1.56822">
        <ele>135.3</ele>
        <time>2024-12-25T11:44:29Z</time>
      </trkpt>
      <trkpt lat="44.79168" lon="1.56822">
        <ele>135.3</ele>
        <time>2024-12-25T11:44:30Z</time>
      </trkpt>
      <trkpt lat="44.79168" lon="1.56822">
        <ele>135.3</ele>
        <time>2024-12-25T11:44:31Z</time>
      </trkpt>
      <trkpt lat="44.79168" lon="1.56822">
        <ele>135.3</ele>
        <time>2024-12-25T11:44:32Z</time>
      </trkpt>
      <trkpt lat="44.79168" lon="1.56822">
        <ele>135.3</ele>
        <time>2024-12-25T11:44:33Z</time>
      </trkpt>
      <trkpt lat="44.79168" lon="1.56822">
        <ele>135.3</ele>
        <time>2024-12-25T11:44:34Z</time>
      </trkpt>
      <trkpt lat="44.79168" lon="1.56822">
        <ele>135.3</ele>
        <time>2024-12-25T11:44:35Z</time>
      </trkpt>
      <trkpt lat="44.79168" lon="1.56822">
        <ele>135.3</ele>
        <time>2024-12-25T11:44:36Z</time>
      </trkpt>
      <trkpt lat="44.79168" lon="1.56822">
        <ele>135.3</ele>
        <time>2024-12-25T11:44:39Z</time>
      </trkpt>
      <trkpt lat="44.79168" lon="1.56822">
        <ele>135.3</ele>
        <time>2024-12-25T11:44:40Z</time>
      </trkpt>
      <trkpt lat="44.79167" lon="1.56822">
        <ele>135.3</ele>
        <time>2024-12-25T11:44:42Z</time>
      </trkpt>
      <trkpt lat="44.79167" lon="1.56822">
        <ele>135.3</ele>
        <time>2024-12-25T11:44:43Z</time>
      </trkpt>
      <trkpt lat="44.79166" lon="1.56822">
        <ele>135.3</ele>
        <time>2024-12-25T11:44:45Z</time>
      </trkpt>
      <trkpt lat="44.79166" lon="1.56821">
        <ele>135.3</ele>
        <time>2024-12-25T11:44:46Z</time>
      </trkpt>
      <trkpt lat="44.79164" lon="1.56821">
        <ele>135.2</ele>
        <time>2024-12-25T11:44:47Z</time>
      </trkpt>
      <trkpt lat="44.79161" lon="1.5682">
        <ele>135.2</ele>
        <time>2024-12-25T11:44:54Z</time>
      </trkpt>
      <trkpt lat="44.79161" lon="1.56819">
        <ele>135.2</ele>
        <time>2024-12-25T11:44:59Z</time>
      </trkpt>
      <trkpt lat="44.79163" lon="1.5682">
        <ele>135.1</ele>
        <time>2024-12-25T11:45:04Z</time>
      </trkpt>
      <trkpt lat="44.79166" lon="1.56821">
        <ele>135.1</ele>
        <time>2024-12-25T11:45:09Z</time>
      </trkpt>
      <trkpt lat="44.79167" lon="1.56821">
        <ele>135</ele>
        <time>2024-12-25T11:45:14Z</time>
      </trkpt>
      <trkpt lat="44.79167" lon="1.56822">
        <ele>135</ele>
        <time>2024-12-25T11:45:19Z</time>
      </trkpt>
      <trkpt lat="44.79167" lon="1.56822">
        <ele>135</ele>
        <time>2024-12-25T11:45:24Z</time>
      </trkpt>
      <trkpt lat="44.79167" lon="1.56822">
        <ele>135</ele>
        <time>2024-12-25T11:45:29Z</time>
      </trkpt>
      <trkpt lat="44.79167" lon="1.56822">
        <ele>135</ele>
        <time>2024-12-25T11:45:34Z</time>
      </trkpt>
      <trkpt lat="44.79167" lon="1.56823">
        <ele>135</ele>
        <time>2024-12-25T11:45:38Z</time>
      </trkpt>
      <trkpt lat="44.79166" lon="1.56824">
        <ele>135</ele>
        <time>2024-12-25T11:45:39Z</time>
      </trkpt>
      <trkpt lat="44.79166" lon="1.56823">
        <ele>135</ele>
        <time>2024-12-25T11:45:40Z</time>
      </trkpt>
      <trkpt lat="44.79166" lon="1.56824">
        <ele>134.9</ele>
        <time>2024-12-25T11:45:41Z</time>
      </trkpt>
      <trkpt lat="44.79166" lon="1.56824">
        <ele>134.9</ele>
        <time>2024-12-25T11:45:42Z</time>
      </trkpt>
      <trkpt lat="44.79166" lon="1.56824">
        <ele>134.9</ele>
        <time>2024-12-25T11:45:43Z</time>
      </trkpt>
      <trkpt lat="44.79166" lon="1.56824">
        <ele>134.9</ele>
        <time>2024-12-25T11:45:44Z</time>
      </trkpt>
      <trkpt lat="44.79165" lon="1.56824">
        <ele>134.9</ele>
        <time>2024-12-25T11:45:45Z</time>
      </trkpt>
      <trkpt lat="44.79165" lon="1.56824">
        <ele>134.9</ele>
        <time>2024-12-25T11:45:46Z</time>
      </trkpt>
      <trkpt lat="44.79164" lon="1.56824">
        <ele>134.9</ele>
        <time>2024-12-25T11:45:47Z</time>
      </trkpt>
      <trkpt lat="44.79164" lon="1.56824">
        <ele>134.9</ele>
        <time>2024-12-25T11:45:48Z</time>
      </trkpt>
      <trkpt lat="44.79164" lon="1.56824">
        <ele>134.9</ele>
        <time>2024-12-25T11:45:49Z</time>
      </trkpt>
      <trkpt lat="44.79164" lon="1.56823">
        <ele>134.9</ele>
        <time>2024-12-25T11:45:50Z</time>
      </trkpt>
      <trkpt lat="44.79164" lon="1.56823">
        <ele>134.9</ele>
        <time>2024-12-25T11:45:51Z</time>
      </trkpt>
      <trkpt lat="44.79164" lon="1.56823">
        <ele>134.9</ele>
        <time>2024-12-25T11:45:52Z</time>
      </trkpt>
      <trkpt lat="44.79164" lon="1.56823">
        <ele>134.9</ele>
        <time>2024-12-25T11:45:53Z</time>
      </trkpt>
      <trkpt lat="44.79164" lon="1.56823">
        <ele>134.9</ele>
        <time>2024-12-25T11:45:54Z</time>
      </trkpt>
      <trkpt lat="44.79164" lon="1.56823">
        <ele>134.9</ele>
        <time>2024-12-25T11:45:55Z</time>
      </trkpt>
      <trkpt lat="44.79164" lon="1.56823">
        <ele>134.9</ele>
        <time>2024-12-25T11:45:56Z</time>
      </trkpt>
      <trkpt lat="44.79164" lon="1.56823">
        <ele>134.9</ele>
        <time>2024-12-25T11:45:57Z</time>
      </trkpt>
      <trkpt lat="44.79164" lon="1.56823">
        <ele>134.9</ele>
        <time>2024-12-25T11:45:58Z</time>
      </trkpt>
      <trkpt lat="44.79164" lon="1.56823">
        <ele>134.9</ele>
        <time>2024-12-25T11:45:59Z</time>
      </trkpt>
      <trkpt lat="44.79164" lon="1.56823">
        <ele>134.9</ele>
        <time>2024-12-25T11:46:00Z</time>
      </trkpt>
      <trkpt lat="44.79164" lon="1.56823">
        <ele>134.9</ele>
        <time>2024-12-25T11:46:01Z</time>
      </trkpt>
      <trkpt lat="44.79164" lon="1.56823">
        <ele>134.9</ele>
        <time>2024-12-25T11:46:02Z</time>
      </trkpt>
      <trkpt lat="44.79164" lon="1.56823">
        <ele>134.9</ele>
        <time>2024-12-25T11:46:03Z</time>
      </trkpt>
      <trkpt lat="44.79164" lon="1.56823">
        <ele>134.9</ele>
        <time>2024-12-25T11:46:04Z</time>
      </trkpt>
      <trkpt lat="44.79164" lon="1.56823">
        <ele>134.9</ele>
        <time>2024-12-25T11:46:05Z</time>
      </trkpt>
      <trkpt lat="44.79164" lon="1.56823">
        <ele>134.8</ele>
        <time>2024-12-25T11:46:06Z</time>
      </trkpt>
      <trkpt lat="44.79164" lon="1.56823">
        <ele>134.8</ele>
        <time>2024-12-25T11:46:07Z</time>
      </trkpt>
      <trkpt lat="44.79164" lon="1.56823">
        <ele>134.8</ele>
        <time>2024-12-25T11:46:08Z</time>
      </trkpt>
      <trkpt lat="44.79164" lon="1.56823">
        <ele>134.8</ele>
        <time>2024-12-25T11:46:09Z</time>
      </trkpt>
      <trkpt lat="44.79164" lon="1.56824">
        <ele>134.8</ele>
        <time>2024-12-25T11:46:10Z</time>
      </trkpt>
      <trkpt lat="44.79164" lon="1.56824">
        <ele>134.8</ele>
        <time>2024-12-25T11:46:11Z</time>
      </trkpt>
      <trkpt lat="44.79164" lon="1.56824">
        <ele>134.8</ele>
        <time>2024-12-25T11:46:12Z</time>
      </trkpt>
      <trkpt lat="44.79164" lon="1.56824">
        <ele>134.8</ele>
        <time>2024-12-25T11:46:13Z</time>
      </trkpt>
      <trkpt lat="44.79164" lon="1.56824">
        <ele>134.8</ele>
        <time>2024-12-25T11:46:14Z</time>
      </trkpt>
      <trkpt lat="44.79164" lon="1.56824">
        <ele>134.8</ele>
        <time>2024-12-25T11:46:15Z</time>
      </trkpt>
      <trkpt lat="44.79164" lon="1.56824">
        <ele>134.8</ele>
        <time>2024-12-25T11:46:16Z</time>
      </trkpt>
      <trkpt lat="44.79164" lon="1.56823">
        <ele>134.8</ele>
        <time>2024-12-25T11:46:17Z</time>
      </trkpt>
      <trkpt lat="44.79164" lon="1.56823">
        <ele>134.8</ele>
        <time>2024-12-25T11:46:18Z</time>
      </trkpt>
      <trkpt lat="44.79164" lon="1.56823">
        <ele>134.8</ele>
        <time>2024-12-25T11:46:19Z</time>
      </trkpt>
      <trkpt lat="44.79164" lon="1.56823">
        <ele>134.8</ele>
        <time>2024-12-25T11:46:20Z</time>
      </trkpt>
      <trkpt lat="44.79164" lon="1.56823">
        <ele>134.8</ele>
        <time>2024-12-25T11:46:21Z</time>
      </trkpt>
      <trkpt lat="44.79164" lon="1.56823">
        <ele>134.8</ele>
        <time>2024-12-25T11:46:22Z</time>
      </trkpt>
      <trkpt lat="44.79164" lon="1.56823">
        <ele>134.8</ele>
        <time>2024-12-25T11:46:23Z</time>
      </trkpt>
      <trkpt lat="44.79163" lon="1.56823">
        <ele>134.8</ele>
        <time>2024-12-25T11:46:24Z</time>
      </trkpt>
      <trkpt lat="44.79163" lon="1.56823">
        <ele>134.8</ele>
        <time>2024-12-25T11:46:25Z</time>
      </trkpt>
      <trkpt lat="44.79163" lon="1.56823">
        <ele>134.8</ele>
        <time>2024-12-25T11:46:26Z</time>
      </trkpt>
      <trkpt lat="44.79163" lon="1.56822">
        <ele>134.8</ele>
        <time>2024-12-25T11:46:27Z</time>
      </trkpt>
      <trkpt lat="44.79163" lon="1.56822">
        <ele>134.8</ele>
        <time>2024-12-25T11:46:28Z</time>
      </trkpt>
      <trkpt lat="44.79164" lon="1.56822">
        <ele>134.8</ele>
        <time>2024-12-25T11:46:29Z</time>
      </trkpt>
      <trkpt lat="44.79164" lon="1.56822">
        <ele>134.7</ele>
        <time>2024-12-25T11:46:30Z</time>
      </trkpt>
      <trkpt lat="44.79164" lon="1.56822">
        <ele>134.7</ele>
        <time>2024-12-25T11:46:31Z</time>
      </trkpt>
      <trkpt lat="44.79164" lon="1.56822">
        <ele>134.7</ele>
        <time>2024-12-25T11:46:32Z</time>
      </trkpt>
      <trkpt lat="44.79164" lon="1.56822">
        <ele>134.7</ele>
        <time>2024-12-25T11:46:33Z</time>
      </trkpt>
      <trkpt lat="44.79164" lon="1.56821">
        <ele>134.7</ele>
        <time>2024-12-25T11:46:34Z</time>
      </trkpt>
      <trkpt lat="44.79164" lon="1.56821">
        <ele>134.7</ele>
        <time>2024-12-25T11:46:35Z</time>
      </trkpt>
      <trkpt lat="44.79164" lon="1.56821">
        <ele>134.7</ele>
        <time>2024-12-25T11:46:36Z</time>
      </trkpt>
      <trkpt lat="44.79164" lon="1.56821">
        <ele>134.7</ele>
        <time>2024-12-25T11:46:37Z</time>
      </trkpt>
      <trkpt lat="44.79164" lon="1.56821">
        <ele>134.7</ele>
        <time>2024-12-25T11:46:38Z</time>
      </trkpt>
      <trkpt lat="44.79165" lon="1.56821">
        <ele>134.7</ele>
        <time>2024-12-25T11:46:39Z</time>
      </trkpt>
      <trkpt lat="44.79165" lon="1.56821">
        <ele>134.7</ele>
        <time>2024-12-25T11:46:40Z</time>
      </trkpt>
      <trkpt lat="44.79165" lon="1.5682">
        <ele>134.7</ele>
        <time>2024-12-25T11:46:41Z</time>
      </trkpt>
      <trkpt lat="44.79165" lon="1.56819">
        <ele>134.7</ele>
        <time>2024-12-25T11:46:42Z</time>
      </trkpt>
      <trkpt lat="44.79165" lon="1.56818">
        <ele>134.7</ele>
        <time>2024-12-25T11:46:43Z</time>
      </trkpt>
      <trkpt lat="44.79164" lon="1.56817">
        <ele>134.6</ele>
        <time>2024-12-25T11:46:44Z</time>
      </trkpt>
      <trkpt lat="44.79164" lon="1.56816">
        <ele>134.6</ele>
        <time>2024-12-25T11:46:45Z</time>
      </trkpt>
      <trkpt lat="44.79164" lon="1.56815">
        <ele>134.6</ele>
        <time>2024-12-25T11:46:46Z</time>
      </trkpt>
      <trkpt lat="44.79162" lon="1.56813">
        <ele>134.5</ele>
        <time>2024-12-25T11:46:47Z</time>
      </trkpt>
      <trkpt lat="44.79161" lon="1.56812">
        <ele>134.5</ele>
        <time>2024-12-25T11:46:48Z</time>
      </trkpt>
      <trkpt lat="44.79161" lon="1.56811">
        <ele>134.5</ele>
        <time>2024-12-25T11:46:49Z</time>
      </trkpt>
      <trkpt lat="44.79159" lon="1.5681">
        <ele>134.4</ele>
        <time>2024-12-25T11:46:50Z</time>
      </trkpt>
      <trkpt lat="44.79158" lon="1.5681">
        <ele>134.4</ele>
        <time>2024-12-25T11:46:51Z</time>
      </trkpt>
      <trkpt lat="44.79157" lon="1.56809">
        <ele>134.4</ele>
        <time>2024-12-25T11:46:52Z</time>
      </trkpt>
      <trkpt lat="44.79156" lon="1.56809">
        <ele>134.3</ele>
        <time>2024-12-25T11:46:53Z</time>
      </trkpt>
      <trkpt lat="44.79154" lon="1.56808">
        <ele>134.2</ele>
        <time>2024-12-25T11:46:54Z</time>
      </trkpt>
      <trkpt lat="44.79152" lon="1.56807">
        <ele>134.1</ele>
        <time>2024-12-25T11:46:55Z</time>
      </trkpt>
      <trkpt lat="44.79151" lon="1.56807">
        <ele>134</ele>
        <time>2024-12-25T11:46:56Z</time>
      </trkpt>
      <trkpt lat="44.7915" lon="1.56806">
        <ele>134</ele>
        <time>2024-12-25T11:46:57Z</time>
      </trkpt>
      <trkpt lat="44.79149" lon="1.56806">
        <ele>133.9</ele>
        <time>2024-12-25T11:46:58Z</time>
      </trkpt>
      <trkpt lat="44.79148" lon="1.56806">
        <ele>133.8</ele>
        <time>2024-12-25T11:46:59Z</time>
      </trkpt>
      <trkpt lat="44.79147" lon="1.56805">
        <ele>133.8</ele>
        <time>2024-12-25T11:47:00Z</time>
      </trkpt>
      <trkpt lat="44.79146" lon="1.56805">
        <ele>133.7</ele>
        <time>2024-12-25T11:47:01Z</time>
      </trkpt>
      <trkpt lat="44.79145" lon="1.56805">
        <ele>133.6</ele>
        <time>2024-12-25T11:47:02Z</time>
      </trkpt>
      <trkpt lat="44.79145" lon="1.56804">
        <ele>133.6</ele>
        <time>2024-12-25T11:47:03Z</time>
      </trkpt>
      <trkpt lat="44.79144" lon="1.56803">
        <ele>133.5</ele>
        <time>2024-12-25T11:47:04Z</time>
      </trkpt>
      <trkpt lat="44.79144" lon="1.56802">
        <ele>133.4</ele>
        <time>2024-12-25T11:47:05Z</time>
      </trkpt>
      <trkpt lat="44.79144" lon="1.56801">
        <ele>133.4</ele>
        <time>2024-12-25T11:47:06Z</time>
      </trkpt>
      <trkpt lat="44.79144" lon="1.568">
        <ele>133.3</ele>
        <time>2024-12-25T11:47:07Z</time>
      </trkpt>
      <trkpt lat="44.79144" lon="1.56798">
        <ele>133.2</ele>
        <time>2024-12-25T11:47:08Z</time>
      </trkpt>
      <trkpt lat="44.79144" lon="1.56797">
        <ele>133.1</ele>
        <time>2024-12-25T11:47:09Z</time>
      </trkpt>
      <trkpt lat="44.79144" lon="1.56796">
        <ele>133</ele>
        <time>2024-12-25T11:47:10Z</time>
      </trkpt>
      <trkpt lat="44.79144" lon="1.56794">
        <ele>132.9</ele>
        <time>2024-12-25T11:47:11Z</time>
      </trkpt>
      <trkpt lat="44.79143" lon="1.56793">
        <ele>132.8</ele>
        <time>2024-12-25T11:47:12Z</time>
      </trkpt>
      <trkpt lat="44.79141" lon="1.56792">
        <ele>132.7</ele>
        <time>2024-12-25T11:47:13Z</time>
      </trkpt>
      <trkpt lat="44.7914" lon="1.56792">
        <ele>132.6</ele>
        <time>2024-12-25T11:47:14Z</time>
      </trkpt>
      <trkpt lat="44.79139" lon="1.56791">
        <ele>132.5</ele>
        <time>2024-12-25T11:47:15Z</time>
      </trkpt>
      <trkpt lat="44.79138" lon="1.56791">
        <ele>132.4</ele>
        <time>2024-12-25T11:47:16Z</time>
      </trkpt>
      <trkpt lat="44.79137" lon="1.5679">
        <ele>132.3</ele>
        <time>2024-12-25T11:47:17Z</time>
      </trkpt>
      <trkpt lat="44.79136" lon="1.5679">
        <ele>132.2</ele>
        <time>2024-12-25T11:47:18Z</time>
      </trkpt>
      <trkpt lat="44.79135" lon="1.5679">
        <ele>132.1</ele>
        <time>2024-12-25T11:47:19Z</time>
      </trkpt>
      <trkpt lat="44.79134" lon="1.5679">
        <ele>132</ele>
        <time>2024-12-25T11:47:20Z</time>
      </trkpt>
      <trkpt lat="44.79133" lon="1.5679">
        <ele>131.9</ele>
        <time>2024-12-25T11:47:21Z</time>
      </trkpt>
      <trkpt lat="44.79132" lon="1.5679">
        <ele>131.8</ele>
        <time>2024-12-25T11:47:22Z</time>
      </trkpt>
      <trkpt lat="44.79131" lon="1.5679">
        <ele>131.7</ele>
        <time>2024-12-25T11:47:23Z</time>
      </trkpt>
      <trkpt lat="44.7913" lon="1.5679">
        <ele>131.6</ele>
        <time>2024-12-25T11:47:24Z</time>
      </trkpt>
      <trkpt lat="44.79129" lon="1.5679">
        <ele>131.5</ele>
        <time>2024-12-25T11:47:25Z</time>
      </trkpt>
      <trkpt lat="44.79128" lon="1.5679">
        <ele>131.5</ele>
        <time>2024-12-25T11:47:26Z</time>
      </trkpt>
      <trkpt lat="44.79127" lon="1.56791">
        <ele>131.3</ele>
        <time>2024-12-25T11:47:27Z</time>
      </trkpt>
      <trkpt lat="44.79126" lon="1.56791">
        <ele>131.2</ele>
        <time>2024-12-25T11:47:28Z</time>
      </trkpt>
      <trkpt lat="44.79125" lon="1.56792">
        <ele>131.1</ele>
        <time>2024-12-25T11:47:29Z</time>
      </trkpt>
      <trkpt lat="44.79123" lon="1.56792">
        <ele>131</ele>
        <time>2024-12-25T11:47:30Z</time>
      </trkpt>
      <trkpt lat="44.79122" lon="1.56792">
        <ele>130.8</ele>
        <time>2024-12-25T11:47:31Z</time>
      </trkpt>
      <trkpt lat="44.79121" lon="1.56793">
        <ele>130.7</ele>
        <time>2024-12-25T11:47:32Z</time>
      </trkpt>
      <trkpt lat="44.7912" lon="1.56793">
        <ele>130.6</ele>
        <time>2024-12-25T11:47:33Z</time>
      </trkpt>
      <trkpt lat="44.79119" lon="1.56794">
        <ele>130.5</ele>
        <time>2024-12-25T11:47:34Z</time>
      </trkpt>
      <trkpt lat="44.79119" lon="1.56794">
        <ele>130.4</ele>
        <time>2024-12-25T11:47:35Z</time>
      </trkpt>
      <trkpt lat="44.79118" lon="1.56795">
        <ele>130.4</ele>
        <time>2024-12-25T11:47:36Z</time>
      </trkpt>
      <trkpt lat="44.79117" lon="1.56795">
        <ele>130.2</ele>
        <time>2024-12-25T11:47:37Z</time>
      </trkpt>
      <trkpt lat="44.79116" lon="1.56796">
        <ele>130.1</ele>
        <time>2024-12-25T11:47:38Z</time>
      </trkpt>
      <trkpt lat="44.79115" lon="1.56796">
        <ele>130</ele>
        <time>2024-12-25T11:47:39Z</time>
      </trkpt>
      <trkpt lat="44.79113" lon="1.56797">
        <ele>129.9</ele>
        <time>2024-12-25T11:47:40Z</time>
      </trkpt>
      <trkpt lat="44.79112" lon="1.56796">
        <ele>129.8</ele>
        <time>2024-12-25T11:47:41Z</time>
      </trkpt>
      <trkpt lat="44.7911" lon="1.56797">
        <ele>129.6</ele>
        <time>2024-12-25T11:47:43Z</time>
      </trkpt>
      <trkpt lat="44.79109" lon="1.56798">
        <ele>129.5</ele>
        <time>2024-12-25T11:47:44Z</time>
      </trkpt>
      <trkpt lat="44.79107" lon="1.56799">
        <ele>129.4</ele>
        <time>2024-12-25T11:47:45Z</time>
      </trkpt>
      <trkpt lat="44.79106" lon="1.568">
        <ele>129.3</ele>
        <time>2024-12-25T11:47:46Z</time>
      </trkpt>
      <trkpt lat="44.79104" lon="1.56801">
        <ele>129.1</ele>
        <time>2024-12-25T11:47:47Z</time>
      </trkpt>
      <trkpt lat="44.79103" lon="1.56802">
        <ele>129</ele>
        <time>2024-12-25T11:47:48Z</time>
      </trkpt>
      <trkpt lat="44.79102" lon="1.56803">
        <ele>128.9</ele>
        <time>2024-12-25T11:47:49Z</time>
      </trkpt>
      <trkpt lat="44.791" lon="1.56805">
        <ele>128.7</ele>
        <time>2024-12-25T11:47:50Z</time>
      </trkpt>
      <trkpt lat="44.79099" lon="1.56806">
        <ele>128.6</ele>
        <time>2024-12-25T11:47:51Z</time>
      </trkpt>
      <trkpt lat="44.79093" lon="1.5682">
        <ele>127.7</ele>
        <time>2024-12-25T11:48:06Z</time>
      </trkpt>
      <trkpt lat="44.79104" lon="1.56808">
        <ele>126.5</ele>
        <time>2024-12-25T11:48:11Z</time>
      </trkpt>
      <trkpt lat="44.79116" lon="1.56793">
        <ele>125</ele>
        <time>2024-12-25T11:48:16Z</time>
      </trkpt>
      <trkpt lat="44.79114" lon="1.56792">
        <ele>124.8</ele>
        <time>2024-12-25T11:48:22Z</time>
      </trkpt>
      <trkpt lat="44.79106" lon="1.56799">
        <ele>123.9</ele>
        <time>2024-12-25T11:48:27Z</time>
      </trkpt>
      <trkpt lat="44.79099" lon="1.56806">
        <ele>123.1</ele>
        <time>2024-12-25T11:48:32Z</time>
      </trkpt>
      <trkpt lat="44.79091" lon="1.56813">
        <ele>122.2</ele>
        <time>2024-12-25T11:48:37Z</time>
      </trkpt>
      <trkpt lat="44.79083" lon="1.56819">
        <ele>121.3</ele>
        <time>2024-12-25T11:48:42Z</time>
      </trkpt>
      <trkpt lat="44.79075" lon="1.56826">
        <ele>120.4</ele>
        <time>2024-12-25T11:48:47Z</time>
      </trkpt>
      <trkpt lat="44.79067" lon="1.56833">
        <ele>119.5</ele>
        <time>2024-12-25T11:48:52Z</time>
      </trkpt>
      <trkpt lat="44.79059" lon="1.5684">
        <ele>118.6</ele>
        <time>2024-12-25T11:48:57Z</time>
      </trkpt>
      <trkpt lat="44.79051" lon="1.56846">
        <ele>117.6</ele>
        <time>2024-12-25T11:49:02Z</time>
      </trkpt>
      <trkpt lat="44.79043" lon="1.56853">
        <ele>116.6</ele>
        <time>2024-12-25T11:49:05Z</time>
      </trkpt>
      <trkpt lat="44.7904" lon="1.56853">
        <ele>116.4</ele>
        <time>2024-12-25T11:49:06Z</time>
      </trkpt>
      <trkpt lat="44.79039" lon="1.56858">
        <ele>116.2</ele>
        <time>2024-12-25T11:49:07Z</time>
      </trkpt>
      <trkpt lat="44.79039" lon="1.56862">
        <ele>116.1</ele>
        <time>2024-12-25T11:49:08Z</time>
      </trkpt>
      <trkpt lat="44.79039" lon="1.56862">
        <ele>116</ele>
        <time>2024-12-25T11:49:10Z</time>
      </trkpt>
      <trkpt lat="44.79039" lon="1.56862">
        <ele>116</ele>
        <time>2024-12-25T11:49:11Z</time>
      </trkpt>
      <trkpt lat="44.79039" lon="1.56862">
        <ele>116</ele>
        <time>2024-12-25T11:49:12Z</time>
      </trkpt>
      <trkpt lat="44.79038" lon="1.56862">
        <ele>116</ele>
        <time>2024-12-25T11:49:13Z</time>
      </trkpt>
      <trkpt lat="44.79038" lon="1.56862">
        <ele>116</ele>
        <time>2024-12-25T11:49:14Z</time>
      </trkpt>
      <trkpt lat="44.79038" lon="1.56863">
        <ele>116</ele>
        <time>2024-12-25T11:49:15Z</time>
      </trkpt>
      <trkpt lat="44.79038" lon="1.56863">
        <ele>116</ele>
        <time>2024-12-25T11:49:16Z</time>
      </trkpt>
      <trkpt lat="44.79038" lon="1.56863">
        <ele>116</ele>
        <time>2024-12-25T11:49:17Z</time>
      </trkpt>
      <trkpt lat="44.79038" lon="1.56863">
        <ele>116</ele>
        <time>2024-12-25T11:49:18Z</time>
      </trkpt>
      <trkpt lat="44.79037" lon="1.56863">
        <ele>116</ele>
        <time>2024-12-25T11:49:19Z</time>
      </trkpt>
      <trkpt lat="44.79037" lon="1.56863">
        <ele>115.9</ele>
        <time>2024-12-25T11:49:20Z</time>
      </trkpt>
      <trkpt lat="44.79037" lon="1.56863">
        <ele>115.9</ele>
        <time>2024-12-25T11:49:21Z</time>
      </trkpt>
      <trkpt lat="44.79037" lon="1.56863">
        <ele>115.9</ele>
        <time>2024-12-25T11:49:22Z</time>
      </trkpt>
      <trkpt lat="44.79037" lon="1.56864">
        <ele>115.9</ele>
        <time>2024-12-25T11:49:23Z</time>
      </trkpt>
      <trkpt lat="44.79036" lon="1.56864">
        <ele>115.9</ele>
        <time>2024-12-25T11:49:24Z</time>
      </trkpt>
      <trkpt lat="44.79036" lon="1.56864">
        <ele>115.9</ele>
        <time>2024-12-25T11:49:25Z</time>
      </trkpt>
      <trkpt lat="44.79036" lon="1.56864">
        <ele>115.9</ele>
        <time>2024-12-25T11:49:26Z</time>
      </trkpt>
      <trkpt lat="44.79036" lon="1.56864">
        <ele>115.9</ele>
        <time>2024-12-25T11:49:27Z</time>
      </trkpt>
      <trkpt lat="44.79036" lon="1.56864">
        <ele>115.9</ele>
        <time>2024-12-25T11:49:28Z</time>
      </trkpt>
      <trkpt lat="44.79034" lon="1.56865">
        <ele>115.8</ele>
        <time>2024-12-25T11:49:29Z</time>
      </trkpt>
      <trkpt lat="44.79033" lon="1.56865">
        <ele>115.7</ele>
        <time>2024-12-25T11:49:30Z</time>
      </trkpt>
      <trkpt lat="44.79032" lon="1.56866">
        <ele>115.7</ele>
        <time>2024-12-25T11:49:31Z</time>
      </trkpt>
      <trkpt lat="44.79031" lon="1.56866">
        <ele>115.6</ele>
        <time>2024-12-25T11:49:32Z</time>
      </trkpt>
      <trkpt lat="44.79029" lon="1.56866">
        <ele>115.5</ele>
        <time>2024-12-25T11:49:33Z</time>
      </trkpt>
      <trkpt lat="44.79027" lon="1.56867">
        <ele>115.4</ele>
        <time>2024-12-25T11:49:34Z</time>
      </trkpt>
      <trkpt lat="44.79026" lon="1.56868">
        <ele>115.4</ele>
        <time>2024-12-25T11:49:35Z</time>
      </trkpt>
      <trkpt lat="44.79025" lon="1.56868">
        <ele>115.3</ele>
        <time>2024-12-25T11:49:36Z</time>
      </trkpt>
      <trkpt lat="44.79024" lon="1.5687">
        <ele>115.3</ele>
        <time>2024-12-25T11:49:37Z</time>
      </trkpt>
      <trkpt lat="44.79023" lon="1.56872">
        <ele>115.3</ele>
        <time>2024-12-25T11:49:38Z</time>
      </trkpt>
      <trkpt lat="44.79022" lon="1.56874">
        <ele>115.2</ele>
        <time>2024-12-25T11:49:39Z</time>
      </trkpt>
      <trkpt lat="44.79021" lon="1.56875">
        <ele>115.2</ele>
        <time>2024-12-25T11:49:40Z</time>
      </trkpt>
      <trkpt lat="44.79021" lon="1.56876">
        <ele>115.2</ele>
        <time>2024-12-25T11:49:41Z</time>
      </trkpt>
      <trkpt lat="44.7902" lon="1.56878">
        <ele>115.2</ele>
        <time>2024-12-25T11:49:42Z</time>
      </trkpt>
      <trkpt lat="44.7902" lon="1.5688">
        <ele>115.1</ele>
        <time>2024-12-25T11:49:43Z</time>
      </trkpt>
      <trkpt lat="44.79019" lon="1.56881">
        <ele>115.1</ele>
        <time>2024-12-25T11:49:44Z</time>
      </trkpt>
      <trkpt lat="44.79019" lon="1.56883">
        <ele>115.1</ele>
        <time>2024-12-25T11:49:45Z</time>
      </trkpt>
      <trkpt lat="44.79019" lon="1.56884">
        <ele>115.1</ele>
        <time>2024-12-25T11:49:46Z</time>
      </trkpt>
      <trkpt lat="44.79019" lon="1.56885">
        <ele>115.1</ele>
        <time>2024-12-25T11:49:47Z</time>
      </trkpt>
      <trkpt lat="44.79019" lon="1.56887">
        <ele>115</ele>
        <time>2024-12-25T11:49:48Z</time>
      </trkpt>
      <trkpt lat="44.79019" lon="1.56888">
        <ele>115</ele>
        <time>2024-12-25T11:49:49Z</time>
      </trkpt>
      <trkpt lat="44.79018" lon="1.56889">
        <ele>115</ele>
        <time>2024-12-25T11:49:50Z</time>
      </trkpt>
      <trkpt lat="44.79018" lon="1.5689">
        <ele>115</ele>
        <time>2024-12-25T11:49:51Z</time>
      </trkpt>
      <trkpt lat="44.79018" lon="1.56892">
        <ele>115</ele>
        <time>2024-12-25T11:49:52Z</time>
      </trkpt>
      <trkpt lat="44.79018" lon="1.56894">
        <ele>115</ele>
        <time>2024-12-25T11:49:53Z</time>
      </trkpt>
      <trkpt lat="44.79018" lon="1.56896">
        <ele>114.9</ele>
        <time>2024-12-25T11:49:54Z</time>
      </trkpt>
      <trkpt lat="44.79018" lon="1.56897">
        <ele>114.9</ele>
        <time>2024-12-25T11:49:55Z</time>
      </trkpt>
      <trkpt lat="44.79018" lon="1.56899">
        <ele>114.9</ele>
        <time>2024-12-25T11:49:56Z</time>
      </trkpt>
      <trkpt lat="44.79018" lon="1.569">
        <ele>114.9</ele>
        <time>2024-12-25T11:49:57Z</time>
      </trkpt>
      <trkpt lat="44.79018" lon="1.56901">
        <ele>114.9</ele>
        <time>2024-12-25T11:49:58Z</time>
      </trkpt>
      <trkpt lat="44.79019" lon="1.56903">
        <ele>114.8</ele>
        <time>2024-12-25T11:49:59Z</time>
      </trkpt>
      <trkpt lat="44.79019" lon="1.56904">
        <ele>114.8</ele>
        <time>2024-12-25T11:50:00Z</time>
      </trkpt>
      <trkpt lat="44.7902" lon="1.56906">
        <ele>114.8</ele>
        <time>2024-12-25T11:50:01Z</time>
      </trkpt>
      <trkpt lat="44.7902" lon="1.56906">
        <ele>114.8</ele>
        <time>2024-12-25T11:50:02Z</time>
      </trkpt>
      <trkpt lat="44.7902" lon="1.56908">
        <ele>114.8</ele>
        <time>2024-12-25T11:50:03Z</time>
      </trkpt>
      <trkpt lat="44.79021" lon="1.56909">
        <ele>114.8</ele>
        <time>2024-12-25T11:50:04Z</time>
      </trkpt>
      <trkpt lat="44.7902" lon="1.56911">
        <ele>114.8</ele>
        <time>2024-12-25T11:50:05Z</time>
      </trkpt>
      <trkpt lat="44.7902" lon="1.56912">
        <ele>114.8</ele>
        <time>2024-12-25T11:50:06Z</time>
      </trkpt>
      <trkpt lat="44.7902" lon="1.56914">
        <ele>114.7</ele>
        <time>2024-12-25T11:50:07Z</time>
      </trkpt>
      <trkpt lat="44.79021" lon="1.56915">
        <ele>114.7</ele>
        <time>2024-12-25T11:50:08Z</time>
      </trkpt>
      <trkpt lat="44.79022" lon="1.56916">
        <ele>114.7</ele>
        <time>2024-12-25T11:50:09Z</time>
      </trkpt>
      <trkpt lat="44.79022" lon="1.56917">
        <ele>114.7</ele>
        <time>2024-12-25T11:50:10Z</time>
      </trkpt>
      <trkpt lat="44.79023" lon="1.56917">
        <ele>114.7</ele>
        <time>2024-12-25T11:50:11Z</time>
      </trkpt>
      <trkpt lat="44.79024" lon="1.56917">
        <ele>114.7</ele>
        <time>2024-12-25T11:50:12Z</time>
      </trkpt>
      <trkpt lat="44.79024" lon="1.56918">
        <ele>114.7</ele>
        <time>2024-12-25T11:50:13Z</time>
      </trkpt>
      <trkpt lat="44.79027" lon="1.56919">
        <ele>114.7</ele>
        <time>2024-12-25T11:50:14Z</time>
      </trkpt>
      <trkpt lat="44.79027" lon="1.56919">
        <ele>114.7</ele>
        <time>2024-12-25T11:50:15Z</time>
      </trkpt>
      <trkpt lat="44.79028" lon="1.56919">
        <ele>114.6</ele>
        <time>2024-12-25T11:50:16Z</time>
      </trkpt>
      <trkpt lat="44.79029" lon="1.5692">
        <ele>114.6</ele>
        <time>2024-12-25T11:50:17Z</time>
      </trkpt>
      <trkpt lat="44.79031" lon="1.56921">
        <ele>114.6</ele>
        <time>2024-12-25T11:50:18Z</time>
      </trkpt>
      <trkpt lat="44.79032" lon="1.56922">
        <ele>114.6</ele>
        <time>2024-12-25T11:50:19Z</time>
      </trkpt>
      <trkpt lat="44.79033" lon="1.56923">
        <ele>114.6</ele>
        <time>2024-12-25T11:50:20Z</time>
      </trkpt>
      <trkpt lat="44.79034" lon="1.56924">
        <ele>114.6</ele>
        <time>2024-12-25T11:50:21Z</time>
      </trkpt>
      <trkpt lat="44.79035" lon="1.56925">
        <ele>114.6</ele>
        <time>2024-12-25T11:50:22Z</time>
      </trkpt>
      <trkpt lat="44.79035" lon="1.56924">
        <ele>114.6</ele>
        <time>2024-12-25T11:50:23Z</time>
      </trkpt>
      <trkpt lat="44.79037" lon="1.56923">
        <ele>114.6</ele>
        <time>2024-12-25T11:50:24Z</time>
      </trkpt>
      <trkpt lat="44.79038" lon="1.56922">
        <ele>114.6</ele>
        <time>2024-12-25T11:50:25Z</time>
      </trkpt>
      <trkpt lat="44.79038" lon="1.56921">
        <ele>114.5</ele>
        <time>2024-12-25T11:50:26Z</time>
      </trkpt>
      <trkpt lat="44.79037" lon="1.5692">
        <ele>114.5</ele>
        <time>2024-12-25T11:50:27Z</time>
      </trkpt>
      <trkpt lat="44.79036" lon="1.5692">
        <ele>114.5</ele>
        <time>2024-12-25T11:50:28Z</time>
      </trkpt>
      <trkpt lat="44.79036" lon="1.5692">
        <ele>114.5</ele>
        <time>2024-12-25T11:50:29Z</time>
      </trkpt>
      <trkpt lat="44.79036" lon="1.5692">
        <ele>114.5</ele>
        <time>2024-12-25T11:50:30Z</time>
      </trkpt>
      <trkpt lat="44.79036" lon="1.5692">
        <ele>114.5</ele>
        <time>2024-12-25T11:50:31Z</time>
      </trkpt>
      <trkpt lat="44.79037" lon="1.56921">
        <ele>114.5</ele>
        <time>2024-12-25T11:50:32Z</time>
      </trkpt>
      <trkpt lat="44.79037" lon="1.56921">
        <ele>114.5</ele>
        <time>2024-12-25T11:50:33Z</time>
      </trkpt>
      <trkpt lat="44.79037" lon="1.56921">
        <ele>114.5</ele>
        <time>2024-12-25T11:50:34Z</time>
      </trkpt>
      <trkpt lat="44.79037" lon="1.56921">
        <ele>114.5</ele>
        <time>2024-12-25T11:50:35Z</time>
      </trkpt>
      <trkpt lat="44.79037" lon="1.56921">
        <ele>114.5</ele>
        <time>2024-12-25T11:50:36Z</time>
      </trkpt>
      <trkpt lat="44.79037" lon="1.56921">
        <ele>114.5</ele>
        <time>2024-12-25T11:50:37Z</time>
      </trkpt>
      <trkpt lat="44.79037" lon="1.56921">
        <ele>114.5</ele>
        <time>2024-12-25T11:50:38Z</time>
      </trkpt>
      <trkpt lat="44.79037" lon="1.56922">
        <ele>114.5</ele>
        <time>2024-12-25T11:50:39Z</time>
      </trkpt>
      <trkpt lat="44.79038" lon="1.56921">
        <ele>114.5</ele>
        <time>2024-12-25T11:50:40Z</time>
      </trkpt>
      <trkpt lat="44.79039" lon="1.56921">
        <ele>114.5</ele>
        <time>2024-12-25T11:50:41Z</time>
      </trkpt>
      <trkpt lat="44.79039" lon="1.5692">
        <ele>114.5</ele>
        <time>2024-12-25T11:50:42Z</time>
      </trkpt>
      <trkpt lat="44.79039" lon="1.5692">
        <ele>114.5</ele>
        <time>2024-12-25T11:50:43Z</time>
      </trkpt>
      <trkpt lat="44.79038" lon="1.5692">
        <ele>114.5</ele>
        <time>2024-12-25T11:50:44Z</time>
      </trkpt>
      <trkpt lat="44.79038" lon="1.5692">
        <ele>114.5</ele>
        <time>2024-12-25T11:50:45Z</time>
      </trkpt>
      <trkpt lat="44.79038" lon="1.5692">
        <ele>114.5</ele>
        <time>2024-12-25T11:50:46Z</time>
      </trkpt>
      <trkpt lat="44.79038" lon="1.5692">
        <ele>114.5</ele>
        <time>2024-12-25T11:50:47Z</time>
      </trkpt>
      <trkpt lat="44.79038" lon="1.5692">
        <ele>114.5</ele>
        <time>2024-12-25T11:50:48Z</time>
      </trkpt>
      <trkpt lat="44.79039" lon="1.5692">
        <ele>114.5</ele>
        <time>2024-12-25T11:50:49Z</time>
      </trkpt>
      <trkpt lat="44.79039" lon="1.5692">
        <ele>114.5</ele>
        <time>2024-12-25T11:50:50Z</time>
      </trkpt>
      <trkpt lat="44.79039" lon="1.5692">
        <ele>114.5</ele>
        <time>2024-12-25T11:50:51Z</time>
      </trkpt>
      <trkpt lat="44.7904" lon="1.56921">
        <ele>114.5</ele>
        <time>2024-12-25T11:50:52Z</time>
      </trkpt>
      <trkpt lat="44.79042" lon="1.56921">
        <ele>114.5</ele>
        <time>2024-12-25T11:50:53Z</time>
      </trkpt>
      <trkpt lat="44.79043" lon="1.56921">
        <ele>114.5</ele>
        <time>2024-12-25T11:50:54Z</time>
      </trkpt>
      <trkpt lat="44.79044" lon="1.56921">
        <ele>114.5</ele>
        <time>2024-12-25T11:50:55Z</time>
      </trkpt>
      <trkpt lat="44.79044" lon="1.5692">
        <ele>114.4</ele>
        <time>2024-12-25T11:50:56Z</time>
      </trkpt>
      <trkpt lat="44.79045" lon="1.56919">
        <ele>114.4</ele>
        <time>2024-12-25T11:50:57Z</time>
      </trkpt>
      <trkpt lat="44.79045" lon="1.56918">
        <ele>114.4</ele>
        <time>2024-12-25T11:50:58Z</time>
      </trkpt>
      <trkpt lat="44.79046" lon="1.56917">
        <ele>114.4</ele>
        <time>2024-12-25T11:50:59Z</time>
      </trkpt>
      <trkpt lat="44.79047" lon="1.56916">
        <ele>114.4</ele>
        <time>2024-12-25T11:51:00Z</time>
      </trkpt>
      <trkpt lat="44.79048" lon="1.56916">
        <ele>114.4</ele>
        <time>2024-12-25T11:51:01Z</time>
      </trkpt>
      <trkpt lat="44.79048" lon="1.56915">
        <ele>114.4</ele>
        <time>2024-12-25T11:51:02Z</time>
      </trkpt>
      <trkpt lat="44.79049" lon="1.56913">
        <ele>114.4</ele>
        <time>2024-12-25T11:51:03Z</time>
      </trkpt>
      <trkpt lat="44.7905" lon="1.56912">
        <ele>114.4</ele>
        <time>2024-12-25T11:51:04Z</time>
      </trkpt>
      <trkpt lat="44.79051" lon="1.56911">
        <ele>114.4</ele>
        <time>2024-12-25T11:51:05Z</time>
      </trkpt>
      <trkpt lat="44.79051" lon="1.5691">
        <ele>114.4</ele>
        <time>2024-12-25T11:51:06Z</time>
      </trkpt>
      <trkpt lat="44.79052" lon="1.56909">
        <ele>114.4</ele>
        <time>2024-12-25T11:51:07Z</time>
      </trkpt>
      <trkpt lat="44.79052" lon="1.56908">
        <ele>114.3</ele>
        <time>2024-12-25T11:51:08Z</time>
      </trkpt>
      <trkpt lat="44.79052" lon="1.56906">
        <ele>114.3</ele>
        <time>2024-12-25T11:51:09Z</time>
      </trkpt>
      <trkpt lat="44.79052" lon="1.56905">
        <ele>114.3</ele>
        <time>2024-12-25T11:51:10Z</time>
      </trkpt>
      <trkpt lat="44.79051" lon="1.56905">
        <ele>114.3</ele>
        <time>2024-12-25T11:51:11Z</time>
      </trkpt>
      <trkpt lat="44.79051" lon="1.56905">
        <ele>114.3</ele>
        <time>2024-12-25T11:51:12Z</time>
      </trkpt>
      <trkpt lat="44.79051" lon="1.56905">
        <ele>114.3</ele>
        <time>2024-12-25T11:51:13Z</time>
      </trkpt>
      <trkpt lat="44.79051" lon="1.56906">
        <ele>114.3</ele>
        <time>2024-12-25T11:51:14Z</time>
      </trkpt>
      <trkpt lat="44.79051" lon="1.56906">
        <ele>114.3</ele>
        <time>2024-12-25T11:51:15Z</time>
      </trkpt>
      <trkpt lat="44.79051" lon="1.56906">
        <ele>114.3</ele>
        <time>2024-12-25T11:51:16Z</time>
      </trkpt>
      <trkpt lat="44.79051" lon="1.56906">
        <ele>114.3</ele>
        <time>2024-12-25T11:51:17Z</time>
      </trkpt>
      <trkpt lat="44.79052" lon="1.56906">
        <ele>114.3</ele>
        <time>2024-12-25T11:51:18Z</time>
      </trkpt>
      <trkpt lat="44.79053" lon="1.56906">
        <ele>114.3</ele>
        <time>2024-12-25T11:51:19Z</time>
      </trkpt>
      <trkpt lat="44.79054" lon="1.56906">
        <ele>114.3</ele>
        <time>2024-12-25T11:51:20Z</time>
      </trkpt>
      <trkpt lat="44.79055" lon="1.56905">
        <ele>114.3</ele>
        <time>2024-12-25T11:51:21Z</time>
      </trkpt>
      <trkpt lat="44.79056" lon="1.56905">
        <ele>114.3</ele>
        <time>2024-12-25T11:51:22Z</time>
      </trkpt>
      <trkpt lat="44.79057" lon="1.56905">
        <ele>114.3</ele>
        <time>2024-12-25T11:51:23Z</time>
      </trkpt>
      <trkpt lat="44.79058" lon="1.56904">
        <ele>114.3</ele>
        <time>2024-12-25T11:51:24Z</time>
      </trkpt>
      <trkpt lat="44.79058" lon="1.56902">
        <ele>114.2</ele>
        <time>2024-12-25T11:51:25Z</time>
      </trkpt>
      <trkpt lat="44.79058" lon="1.56901">
        <ele>114.2</ele>
        <time>2024-12-25T11:51:26Z</time>
      </trkpt>
      <trkpt lat="44.79058" lon="1.569">
        <ele>114.2</ele>
        <time>2024-12-25T11:51:27Z</time>
      </trkpt>
      <trkpt lat="44.79058" lon="1.569">
        <ele>114.2</ele>
        <time>2024-12-25T11:51:28Z</time>
      </trkpt>
      <trkpt lat="44.79058" lon="1.569">
        <ele>114.2</ele>
        <time>2024-12-25T11:51:29Z</time>
      </trkpt>
      <trkpt lat="44.79058" lon="1.56901">
        <ele>114.2</ele>
        <time>2024-12-25T11:51:30Z</time>
      </trkpt>
      <trkpt lat="44.79059" lon="1.56901">
        <ele>114.2</ele>
        <time>2024-12-25T11:51:31Z</time>
      </trkpt>
      <trkpt lat="44.79059" lon="1.56901">
        <ele>114.2</ele>
        <time>2024-12-25T11:51:32Z</time>
      </trkpt>
      <trkpt lat="44.79059" lon="1.56901">
        <ele>114.2</ele>
        <time>2024-12-25T11:51:33Z</time>
      </trkpt>
      <trkpt lat="44.7906" lon="1.569">
        <ele>114.2</ele>
        <time>2024-12-25T11:51:34Z</time>
      </trkpt>
      <trkpt lat="44.7906" lon="1.569">
        <ele>114.2</ele>
        <time>2024-12-25T11:51:35Z</time>
      </trkpt>
      <trkpt lat="44.7906" lon="1.569">
        <ele>114.2</ele>
        <time>2024-12-25T11:51:36Z</time>
      </trkpt>
      <trkpt lat="44.7906" lon="1.569">
        <ele>114.2</ele>
        <time>2024-12-25T11:51:37Z</time>
      </trkpt>
      <trkpt lat="44.7906" lon="1.56899">
        <ele>114.2</ele>
        <time>2024-12-25T11:51:38Z</time>
      </trkpt>
      <trkpt lat="44.7906" lon="1.569">
        <ele>114.2</ele>
        <time>2024-12-25T11:51:39Z</time>
      </trkpt>
      <trkpt lat="44.7906" lon="1.569">
        <ele>114.2</ele>
        <time>2024-12-25T11:51:40Z</time>
      </trkpt>
      <trkpt lat="44.7906" lon="1.56899">
        <ele>114.2</ele>
        <time>2024-12-25T11:51:41Z</time>
      </trkpt>
      <trkpt lat="44.7906" lon="1.56899">
        <ele>114.2</ele>
        <time>2024-12-25T11:51:42Z</time>
      </trkpt>
      <trkpt lat="44.7906" lon="1.56899">
        <ele>114.2</ele>
        <time>2024-12-25T11:51:43Z</time>
      </trkpt>
      <trkpt lat="44.7906" lon="1.569">
        <ele>114.2</ele>
        <time>2024-12-25T11:51:44Z</time>
      </trkpt>
      <trkpt lat="44.7906" lon="1.569">
        <ele>114.2</ele>
        <time>2024-12-25T11:51:45Z</time>
      </trkpt>
      <trkpt lat="44.7906" lon="1.569">
        <ele>114.2</ele>
        <time>2024-12-25T11:51:46Z</time>
      </trkpt>
      <trkpt lat="44.79061" lon="1.56901">
        <ele>114.2</ele>
        <time>2024-12-25T11:51:47Z</time>
      </trkpt>
      <trkpt lat="44.79061" lon="1.56902">
        <ele>114.2</ele>
        <time>2024-12-25T11:51:48Z</time>
      </trkpt>
      <trkpt lat="44.79061" lon="1.56903">
        <ele>114.2</ele>
        <time>2024-12-25T11:51:49Z</time>
      </trkpt>
      <trkpt lat="44.79062" lon="1.56904">
        <ele>114.2</ele>
        <time>2024-12-25T11:51:50Z</time>
      </trkpt>
      <trkpt lat="44.79062" lon="1.56905">
        <ele>114.2</ele>
        <time>2024-12-25T11:51:51Z</time>
      </trkpt>
      <trkpt lat="44.79063" lon="1.56906">
        <ele>114.2</ele>
        <time>2024-12-25T11:51:52Z</time>
      </trkpt>
      <trkpt lat="44.79063" lon="1.56907">
        <ele>114.2</ele>
        <time>2024-12-25T11:51:53Z</time>
      </trkpt>
      <trkpt lat="44.79064" lon="1.56909">
        <ele>114.2</ele>
        <time>2024-12-25T11:51:54Z</time>
      </trkpt>
      <trkpt lat="44.79064" lon="1.5691">
        <ele>114.2</ele>
        <time>2024-12-25T11:51:55Z</time>
      </trkpt>
      <trkpt lat="44.79064" lon="1.56911">
        <ele>114.2</ele>
        <time>2024-12-25T11:51:56Z</time>
      </trkpt>
      <trkpt lat="44.79065" lon="1.56912">
        <ele>114.2</ele>
        <time>2024-12-25T11:51:57Z</time>
      </trkpt>
      <trkpt lat="44.79065" lon="1.56912">
        <ele>114.2</ele>
        <time>2024-12-25T11:51:58Z</time>
      </trkpt>
      <trkpt lat="44.79066" lon="1.56913">
        <ele>114.2</ele>
        <time>2024-12-25T11:51:59Z</time>
      </trkpt>
      <trkpt lat="44.79067" lon="1.56913">
        <ele>114.2</ele>
        <time>2024-12-25T11:52:00Z</time>
      </trkpt>
      <trkpt lat="44.79067" lon="1.56913">
        <ele>114.2</ele>
        <time>2024-12-25T11:52:01Z</time>
      </trkpt>
      <trkpt lat="44.79068" lon="1.56912">
        <ele>114.2</ele>
        <time>2024-12-25T11:52:02Z</time>
      </trkpt>
      <trkpt lat="44.79069" lon="1.56912">
        <ele>114.2</ele>
        <time>2024-12-25T11:52:03Z</time>
      </trkpt>
      <trkpt lat="44.79071" lon="1.56912">
        <ele>114.2</ele>
        <time>2024-12-25T11:52:04Z</time>
      </trkpt>
      <trkpt lat="44.79072" lon="1.56911">
        <ele>114.2</ele>
        <time>2024-12-25T11:52:05Z</time>
      </trkpt>
      <trkpt lat="44.79071" lon="1.56909">
        <ele>114.2</ele>
        <time>2024-12-25T11:52:06Z</time>
      </trkpt>
      <trkpt lat="44.79071" lon="1.56909">
        <ele>114.2</ele>
        <time>2024-12-25T11:52:07Z</time>
      </trkpt>
      <trkpt lat="44.79071" lon="1.5691">
        <ele>114.2</ele>
        <time>2024-12-25T11:52:08Z</time>
      </trkpt>
      <trkpt lat="44.79071" lon="1.5691">
        <ele>114.2</ele>
        <time>2024-12-25T11:52:09Z</time>
      </trkpt>
      <trkpt lat="44.79071" lon="1.5691">
        <ele>114.2</ele>
        <time>2024-12-25T11:52:10Z</time>
      </trkpt>
      <trkpt lat="44.79071" lon="1.5691">
        <ele>114.2</ele>
        <time>2024-12-25T11:52:11Z</time>
      </trkpt>
      <trkpt lat="44.79071" lon="1.5691">
        <ele>114.2</ele>
        <time>2024-12-25T11:52:12Z</time>
      </trkpt>
      <trkpt lat="44.79071" lon="1.5691">
        <ele>114.2</ele>
        <time>2024-12-25T11:52:13Z</time>
      </trkpt>
      <trkpt lat="44.79072" lon="1.5691">
        <ele>114.2</ele>
        <time>2024-12-25T11:52:14Z</time>
      </trkpt>
      <trkpt lat="44.79072" lon="1.5691">
        <ele>114.2</ele>
        <time>2024-12-25T11:52:15Z</time>
      </trkpt>
      <trkpt lat="44.79072" lon="1.5691">
        <ele>114.2</ele>
        <time>2024-12-25T11:52:16Z</time>
      </trkpt>
      <trkpt lat="44.79072" lon="1.56909">
        <ele>114.2</ele>
        <time>2024-12-25T11:52:17Z</time>
      </trkpt>
      <trkpt lat="44.79072" lon="1.56909">
        <ele>114.2</ele>
        <time>2024-12-25T11:52:18Z</time>
      </trkpt>
      <trkpt lat="44.79072" lon="1.56909">
        <ele>114.2</ele>
        <time>2024-12-25T11:52:19Z</time>
      </trkpt>
      <trkpt lat="44.79072" lon="1.56909">
        <ele>114.2</ele>
        <time>2024-12-25T11:52:20Z</time>
      </trkpt>
      <trkpt lat="44.79072" lon="1.56909">
        <ele>114.2</ele>
        <time>2024-12-25T11:52:21Z</time>
      </trkpt>
      <trkpt lat="44.79072" lon="1.56909">
        <ele>114.2</ele>
        <time>2024-12-25T11:52:22Z</time>
      </trkpt>
      <trkpt lat="44.79072" lon="1.56909">
        <ele>114.2</ele>
        <time>2024-12-25T11:52:23Z</time>
      </trkpt>
      <trkpt lat="44.79072" lon="1.56909">
        <ele>114.2</ele>
        <time>2024-12-25T11:52:24Z</time>
      </trkpt>
      <trkpt lat="44.79072" lon="1.56909">
        <ele>114.2</ele>
        <time>2024-12-25T11:52:25Z</time>
      </trkpt>
      <trkpt lat="44.79072" lon="1.56909">
        <ele>114.2</ele>
        <time>2024-12-25T11:52:26Z</time>
      </trkpt>
      <trkpt lat="44.79072" lon="1.56908">
        <ele>114.2</ele>
        <time>2024-12-25T11:52:27Z</time>
      </trkpt>
      <trkpt lat="44.79073" lon="1.56908">
        <ele>114.2</ele>
        <time>2024-12-25T11:52:28Z</time>
      </trkpt>
      <trkpt lat="44.79073" lon="1.56908">
        <ele>114.2</ele>
        <time>2024-12-25T11:52:29Z</time>
      </trkpt>
      <trkpt lat="44.79073" lon="1.56907">
        <ele>114.2</ele>
        <time>2024-12-25T11:52:30Z</time>
      </trkpt>
      <trkpt lat="44.79073" lon="1.56907">
        <ele>114.2</ele>
        <time>2024-12-25T11:52:31Z</time>
      </trkpt>
      <trkpt lat="44.79073" lon="1.56907">
        <ele>114.2</ele>
        <time>2024-12-25T11:52:32Z</time>
      </trkpt>
      <trkpt lat="44.79073" lon="1.56907">
        <ele>114.2</ele>
        <time>2024-12-25T11:52:33Z</time>
      </trkpt>
      <trkpt lat="44.79073" lon="1.56908">
        <ele>114.2</ele>
        <time>2024-12-25T11:52:34Z</time>
      </trkpt>
      <trkpt lat="44.79073" lon="1.56908">
        <ele>114.2</ele>
        <time>2024-12-25T11:52:35Z</time>
      </trkpt>
      <trkpt lat="44.79073" lon="1.56908">
        <ele>114.2</ele>
        <time>2024-12-25T11:52:36Z</time>
      </trkpt>
      <trkpt lat="44.79072" lon="1.56908">
        <ele>114.2</ele>
        <time>2024-12-25T11:52:37Z</time>
      </trkpt>
      <trkpt lat="44.79071" lon="1.56909">
        <ele>114.2</ele>
        <time>2024-12-25T11:52:38Z</time>
      </trkpt>
      <trkpt lat="44.79072" lon="1.56907">
        <ele>114.2</ele>
        <time>2024-12-25T11:52:39Z</time>
      </trkpt>
      <trkpt lat="44.79071" lon="1.56907">
        <ele>114.2</ele>
        <time>2024-12-25T11:52:40Z</time>
      </trkpt>
      <trkpt lat="44.7907" lon="1.56907">
        <ele>114.2</ele>
        <time>2024-12-25T11:52:41Z</time>
      </trkpt>
      <trkpt lat="44.79069" lon="1.56908">
        <ele>114.2</ele>
        <time>2024-12-25T11:52:42Z</time>
      </trkpt>
      <trkpt lat="44.79067" lon="1.56909">
        <ele>114.2</ele>
        <time>2024-12-25T11:52:43Z</time>
      </trkpt>
      <trkpt lat="44.79066" lon="1.5691">
        <ele>114.2</ele>
        <time>2024-12-25T11:52:44Z</time>
      </trkpt>
      <trkpt lat="44.79065" lon="1.56909">
        <ele>114.2</ele>
        <time>2024-12-25T11:52:45Z</time>
      </trkpt>
      <trkpt lat="44.79065" lon="1.56909">
        <ele>114.2</ele>
        <time>2024-12-25T11:52:46Z</time>
      </trkpt>
      <trkpt lat="44.79064" lon="1.56907">
        <ele>114.2</ele>
        <time>2024-12-25T11:52:47Z</time>
      </trkpt>
      <trkpt lat="44.79064" lon="1.56906">
        <ele>114.3</ele>
        <time>2024-12-25T11:52:48Z</time>
      </trkpt>
      <trkpt lat="44.79064" lon="1.56904">
        <ele>114.3</ele>
        <time>2024-12-25T11:52:49Z</time>
      </trkpt>
      <trkpt lat="44.79064" lon="1.56903">
        <ele>114.3</ele>
        <time>2024-12-25T11:52:50Z</time>
      </trkpt>
      <trkpt lat="44.79063" lon="1.56901">
        <ele>114.3</ele>
        <time>2024-12-25T11:52:51Z</time>
      </trkpt>
      <trkpt lat="44.79063" lon="1.569">
        <ele>114.3</ele>
        <time>2024-12-25T11:52:52Z</time>
      </trkpt>
      <trkpt lat="44.79063" lon="1.56899">
        <ele>114.3</ele>
        <time>2024-12-25T11:52:53Z</time>
      </trkpt>
      <trkpt lat="44.79063" lon="1.56898">
        <ele>114.3</ele>
        <time>2024-12-25T11:52:54Z</time>
      </trkpt>
      <trkpt lat="44.79062" lon="1.56897">
        <ele>114.3</ele>
        <time>2024-12-25T11:52:55Z</time>
      </trkpt>
      <trkpt lat="44.79062" lon="1.56897">
        <ele>114.4</ele>
        <time>2024-12-25T11:52:56Z</time>
      </trkpt>
      <trkpt lat="44.79062" lon="1.56897">
        <ele>114.4</ele>
        <time>2024-12-25T11:52:57Z</time>
      </trkpt>
      <trkpt lat="44.79062" lon="1.56897">
        <ele>114.4</ele>
        <time>2024-12-25T11:52:58Z</time>
      </trkpt>
      <trkpt lat="44.79062" lon="1.56897">
        <ele>114.4</ele>
        <time>2024-12-25T11:52:59Z</time>
      </trkpt>
      <trkpt lat="44.79062" lon="1.56897">
        <ele>114.4</ele>
        <time>2024-12-25T11:53:00Z</time>
      </trkpt>
      <trkpt lat="44.79063" lon="1.56897">
        <ele>114.4</ele>
        <time>2024-12-25T11:53:01Z</time>
      </trkpt>
      <trkpt lat="44.79063" lon="1.56896">
        <ele>114.4</ele>
        <time>2024-12-25T11:53:03Z</time>
      </trkpt>
      <trkpt lat="44.79063" lon="1.56896">
        <ele>114.4</ele>
        <time>2024-12-25T11:53:04Z</time>
      </trkpt>
      <trkpt lat="44.79063" lon="1.56896">
        <ele>114.4</ele>
        <time>2024-12-25T11:53:05Z</time>
      </trkpt>
      <trkpt lat="44.79063" lon="1.56896">
        <ele>114.4</ele>
        <time>2024-12-25T11:53:06Z</time>
      </trkpt>
      <trkpt lat="44.79063" lon="1.56896">
        <ele>114.4</ele>
        <time>2024-12-25T11:53:07Z</time>
      </trkpt>
      <trkpt lat="44.79063" lon="1.56896">
        <ele>114.4</ele>
        <time>2024-12-25T11:53:08Z</time>
      </trkpt>
      <trkpt lat="44.79063" lon="1.56896">
        <ele>114.4</ele>
        <time>2024-12-25T11:53:09Z</time>
      </trkpt>
      <trkpt lat="44.79063" lon="1.56896">
        <ele>114.4</ele>
        <time>2024-12-25T11:53:10Z</time>
      </trkpt>
      <trkpt lat="44.79063" lon="1.56896">
        <ele>114.4</ele>
        <time>2024-12-25T11:53:11Z</time>
      </trkpt>
      <trkpt lat="44.79063" lon="1.56896">
        <ele>114.4</ele>
        <time>2024-12-25T11:53:12Z</time>
      </trkpt>
      <trkpt lat="44.79063" lon="1.56896">
        <ele>114.4</ele>
        <time>2024-12-25T11:53:13Z</time>
      </trkpt>
      <trkpt lat="44.79063" lon="1.56896">
        <ele>114.4</ele>
        <time>2024-12-25T11:53:14Z</time>
      </trkpt>
      <trkpt lat="44.79063" lon="1.56896">
        <ele>114.4</ele>
        <time>2024-12-25T11:53:15Z</time>
      </trkpt>
      <trkpt lat="44.79063" lon="1.56896">
        <ele>114.4</ele>
        <time>2024-12-25T11:53:16Z</time>
      </trkpt>
      <trkpt lat="44.79063" lon="1.56896">
        <ele>114.4</ele>
        <time>2024-12-25T11:53:17Z</time>
      </trkpt>
      <trkpt lat="44.79063" lon="1.56896">
        <ele>114.4</ele>
        <time>2024-12-25T11:53:18Z</time>
      </trkpt>
      <trkpt lat="44.79063" lon="1.56896">
        <ele>114.4</ele>
        <time>2024-12-25T11:53:19Z</time>
      </trkpt>
      <trkpt lat="44.79063" lon="1.56896">
        <ele>114.4</ele>
        <time>2024-12-25T11:53:20Z</time>
      </trkpt>
      <trkpt lat="44.79064" lon="1.56895">
        <ele>114.4</ele>
        <time>2024-12-25T11:53:21Z</time>
      </trkpt>
      <trkpt lat="44.79064" lon="1.56894">
        <ele>114.4</ele>
        <time>2024-12-25T11:53:22Z</time>
      </trkpt>
      <trkpt lat="44.79064" lon="1.56892">
        <ele>114.4</ele>
        <time>2024-12-25T11:53:23Z</time>
      </trkpt>
      <trkpt lat="44.79064" lon="1.56892">
        <ele>114.5</ele>
        <time>2024-12-25T11:53:24Z</time>
      </trkpt>
      <trkpt lat="44.79064" lon="1.56891">
        <ele>114.5</ele>
        <time>2024-12-25T11:53:25Z</time>
      </trkpt>
      <trkpt lat="44.79064" lon="1.56891">
        <ele>114.5</ele>
        <time>2024-12-25T11:53:26Z</time>
      </trkpt>
      <trkpt lat="44.79064" lon="1.5689">
        <ele>114.5</ele>
        <time>2024-12-25T11:53:27Z</time>
      </trkpt>
      <trkpt lat="44.79064" lon="1.56891">
        <ele>114.5</ele>
        <time>2024-12-25T11:53:28Z</time>
      </trkpt>
      <trkpt lat="44.79064" lon="1.56891">
        <ele>114.5</ele>
        <time>2024-12-25T11:53:29Z</time>
      </trkpt>
      <trkpt lat="44.79064" lon="1.56891">
        <ele>114.5</ele>
        <time>2024-12-25T11:53:30Z</time>
      </trkpt>
      <trkpt lat="44.79064" lon="1.56891">
        <ele>114.5</ele>
        <time>2024-12-25T11:53:31Z</time>
      </trkpt>
      <trkpt lat="44.79064" lon="1.56891">
        <ele>114.5</ele>
        <time>2024-12-25T11:53:32Z</time>
      </trkpt>
      <trkpt lat="44.79064" lon="1.56891">
        <ele>114.5</ele>
        <time>2024-12-25T11:53:33Z</time>
      </trkpt>
      <trkpt lat="44.79064" lon="1.56891">
        <ele>114.5</ele>
        <time>2024-12-25T11:53:34Z</time>
      </trkpt>
      <trkpt lat="44.79064" lon="1.56891">
        <ele>114.5</ele>
        <time>2024-12-25T11:53:35Z</time>
      </trkpt>
      <trkpt lat="44.79064" lon="1.56891">
        <ele>114.5</ele>
        <time>2024-12-25T11:53:36Z</time>
      </trkpt>
      <trkpt lat="44.79064" lon="1.56891">
        <ele>114.5</ele>
        <time>2024-12-25T11:53:37Z</time>
      </trkpt>
      <trkpt lat="44.79064" lon="1.56891">
        <ele>114.5</ele>
        <time>2024-12-25T11:53:38Z</time>
      </trkpt>
      <trkpt lat="44.79064" lon="1.56891">
        <ele>114.5</ele>
        <time>2024-12-25T11:53:39Z</time>
      </trkpt>
      <trkpt lat="44.79064" lon="1.56891">
        <ele>114.5</ele>
        <time>2024-12-25T11:53:40Z</time>
      </trkpt>
      <trkpt lat="44.79064" lon="1.56891">
        <ele>114.5</ele>
        <time>2024-12-25T11:53:41Z</time>
      </trkpt>
      <trkpt lat="44.79064" lon="1.56891">
        <ele>114.5</ele>
        <time>2024-12-25T11:53:42Z</time>
      </trkpt>
      <trkpt lat="44.79064" lon="1.56891">
        <ele>114.5</ele>
        <time>2024-12-25T11:53:43Z</time>
      </trkpt>
      <trkpt lat="44.79064" lon="1.56891">
        <ele>114.5</ele>
        <time>2024-12-25T11:53:44Z</time>
      </trkpt>
      <trkpt lat="44.79064" lon="1.56891">
        <ele>114.5</ele>
        <time>2024-12-25T11:53:45Z</time>
      </trkpt>
      <trkpt lat="44.79064" lon="1.56891">
        <ele>114.5</ele>
        <time>2024-12-25T11:53:46Z</time>
      </trkpt>
      <trkpt lat="44.79064" lon="1.56891">
        <ele>114.5</ele>
        <time>2024-12-25T11:53:47Z</time>
      </trkpt>
      <trkpt lat="44.79064" lon="1.56891">
        <ele>114.5</ele>
        <time>2024-12-25T11:53:48Z</time>
      </trkpt>
      <trkpt lat="44.79064" lon="1.56891">
        <ele>114.5</ele>
        <time>2024-12-25T11:53:49Z</time>
      </trkpt>
      <trkpt lat="44.79064" lon="1.56891">
        <ele>114.5</ele>
        <time>2024-12-25T11:53:50Z</time>
      </trkpt>
      <trkpt lat="44.79065" lon="1.56892">
        <ele>114.5</ele>
        <time>2024-12-25T11:53:51Z</time>
      </trkpt>
      <trkpt lat="44.79065" lon="1.56892">
        <ele>114.5</ele>
        <time>2024-12-25T11:53:52Z</time>
      </trkpt>
      <trkpt lat="44.79065" lon="1.56891">
        <ele>114.5</ele>
        <time>2024-12-25T11:53:53Z</time>
      </trkpt>
      <trkpt lat="44.79065" lon="1.56891">
        <ele>114.5</ele>
        <time>2024-12-25T11:53:54Z</time>
      </trkpt>
      <trkpt lat="44.79065" lon="1.56891">
        <ele>114.5</ele>
        <time>2024-12-25T11:53:55Z</time>
      </trkpt>
      <trkpt lat="44.79065" lon="1.56891">
        <ele>114.5</ele>
        <time>2024-12-25T11:53:56Z</time>
      </trkpt>
      <trkpt lat="44.79065" lon="1.56891">
        <ele>114.5</ele>
        <time>2024-12-25T11:53:57Z</time>
      </trkpt>
      <trkpt lat="44.79065" lon="1.56891">
        <ele>114.5</ele>
        <time>2024-12-25T11:53:58Z</time>
      </trkpt>
      <trkpt lat="44.79065" lon="1.56891">
        <ele>114.5</ele>
        <time>2024-12-25T11:53:59Z</time>
      </trkpt>
      <trkpt lat="44.79065" lon="1.56891">
        <ele>114.5</ele>
        <time>2024-12-25T11:54:00Z</time>
      </trkpt>
      <trkpt lat="44.79065" lon="1.56891">
        <ele>114.5</ele>
        <time>2024-12-25T11:54:01Z</time>
      </trkpt>
      <trkpt lat="44.79065" lon="1.56891">
        <ele>114.5</ele>
        <time>2024-12-25T11:54:02Z</time>
      </trkpt>
      <trkpt lat="44.79065" lon="1.56891">
        <ele>114.5</ele>
        <time>2024-12-25T11:54:03Z</time>
      </trkpt>
      <trkpt lat="44.79065" lon="1.56891">
        <ele>114.5</ele>
        <time>2024-12-25T11:54:04Z</time>
      </trkpt>
      <trkpt lat="44.79065" lon="1.56891">
        <ele>114.5</ele>
        <time>2024-12-25T11:54:05Z</time>
      </trkpt>
      <trkpt lat="44.79065" lon="1.56891">
        <ele>114.5</ele>
        <time>2024-12-25T11:54:06Z</time>
      </trkpt>
      <trkpt lat="44.79065" lon="1.56891">
        <ele>114.5</ele>
        <time>2024-12-25T11:54:07Z</time>
      </trkpt>
      <trkpt lat="44.79065" lon="1.56891">
        <ele>114.5</ele>
        <time>2024-12-25T11:54:08Z</time>
      </trkpt>
      <trkpt lat="44.79065" lon="1.56892">
        <ele>114.5</ele>
        <time>2024-12-25T11:54:09Z</time>
      </trkpt>
      <trkpt lat="44.79065" lon="1.56891">
        <ele>114.5</ele>
        <time>2024-12-25T11:54:10Z</time>
      </trkpt>
      <trkpt lat="44.79065" lon="1.56892">
        <ele>114.6</ele>
        <time>2024-12-25T11:54:11Z</time>
      </trkpt>
      <trkpt lat="44.79065" lon="1.56892">
        <ele>114.6</ele>
        <time>2024-12-25T11:54:12Z</time>
      </trkpt>
      <trkpt lat="44.79065" lon="1.56892">
        <ele>114.6</ele>
        <time>2024-12-25T11:54:13Z</time>
      </trkpt>
      <trkpt lat="44.79065" lon="1.56892">
        <ele>114.6</ele>
        <time>2024-12-25T11:54:14Z</time>
      </trkpt>
      <trkpt lat="44.79065" lon="1.56893">
        <ele>114.6</ele>
        <time>2024-12-25T11:54:15Z</time>
      </trkpt>
      <trkpt lat="44.79065" lon="1.56894">
        <ele>114.6</ele>
        <time>2024-12-25T11:54:16Z</time>
      </trkpt>
      <trkpt lat="44.79065" lon="1.56896">
        <ele>114.6</ele>
        <time>2024-12-25T11:54:17Z</time>
      </trkpt>
      <trkpt lat="44.79066" lon="1.56897">
        <ele>114.7</ele>
        <time>2024-12-25T11:54:18Z</time>
      </trkpt>
      <trkpt lat="44.79066" lon="1.56898">
        <ele>114.7</ele>
        <time>2024-12-25T11:54:19Z</time>
      </trkpt>
      <trkpt lat="44.79066" lon="1.56899">
        <ele>114.7</ele>
        <time>2024-12-25T11:54:20Z</time>
      </trkpt>
      <trkpt lat="44.79066" lon="1.56899">
        <ele>114.7</ele>
        <time>2024-12-25T11:54:21Z</time>
      </trkpt>
      <trkpt lat="44.79066" lon="1.56899">
        <ele>114.7</ele>
        <time>2024-12-25T11:54:22Z</time>
      </trkpt>
      <trkpt lat="44.79066" lon="1.569">
        <ele>114.7</ele>
        <time>2024-12-25T11:54:23Z</time>
      </trkpt>
      <trkpt lat="44.79066" lon="1.569">
        <ele>114.7</ele>
        <time>2024-12-25T11:54:24Z</time>
      </trkpt>
      <trkpt lat="44.79067" lon="1.569">
        <ele>114.7</ele>
        <time>2024-12-25T11:54:25Z</time>
      </trkpt>
      <trkpt lat="44.79067" lon="1.56901">
        <ele>114.8</ele>
        <time>2024-12-25T11:54:26Z</time>
      </trkpt>
      <trkpt lat="44.79067" lon="1.56902">
        <ele>114.8</ele>
        <time>2024-12-25T11:54:27Z</time>
      </trkpt>
      <trkpt lat="44.79066" lon="1.56902">
        <ele>114.8</ele>
        <time>2024-12-25T11:54:28Z</time>
      </trkpt>
      <trkpt lat="44.79066" lon="1.56902">
        <ele>114.8</ele>
        <time>2024-12-25T11:54:29Z</time>
      </trkpt>
      <trkpt lat="44.79065" lon="1.56902">
        <ele>114.8</ele>
        <time>2024-12-25T11:54:30Z</time>
      </trkpt>
      <trkpt lat="44.79065" lon="1.56902">
        <ele>114.9</ele>
        <time>2024-12-25T11:54:31Z</time>
      </trkpt>
      <trkpt lat="44.79064" lon="1.56902">
        <ele>114.9</ele>
        <time>2024-12-25T11:54:32Z</time>
      </trkpt>
      <trkpt lat="44.79063" lon="1.56901">
        <ele>114.9</ele>
        <time>2024-12-25T11:54:33Z</time>
      </trkpt>
      <trkpt lat="44.79063" lon="1.56901">
        <ele>114.9</ele>
        <time>2024-12-25T11:54:34Z</time>
      </trkpt>
      <trkpt lat="44.79062" lon="1.56901">
        <ele>115</ele>
        <time>2024-12-25T11:54:35Z</time>
      </trkpt>
      <trkpt lat="44.79062" lon="1.56902">
        <ele>115</ele>
        <time>2024-12-25T11:54:36Z</time>
      </trkpt>
      <trkpt lat="44.79062" lon="1.56902">
        <ele>115</ele>
        <time>2024-12-25T11:54:37Z</time>
      </trkpt>
      <trkpt lat="44.79062" lon="1.56902">
        <ele>115</ele>
        <time>2024-12-25T11:54:38Z</time>
      </trkpt>
      <trkpt lat="44.79062" lon="1.56902">
        <ele>115</ele>
        <time>2024-12-25T11:54:39Z</time>
      </trkpt>
      <trkpt lat="44.79062" lon="1.56902">
        <ele>115</ele>
        <time>2024-12-25T11:54:40Z</time>
      </trkpt>
      <trkpt lat="44.79062" lon="1.56902">
        <ele>115</ele>
        <time>2024-12-25T11:54:41Z</time>
      </trkpt>
      <trkpt lat="44.79062" lon="1.56902">
        <ele>115</ele>
        <time>2024-12-25T11:54:42Z</time>
      </trkpt>
      <trkpt lat="44.79063" lon="1.56903">
        <ele>115</ele>
        <time>2024-12-25T11:54:43Z</time>
      </trkpt>
      <trkpt lat="44.79063" lon="1.56903">
        <ele>115</ele>
        <time>2024-12-25T11:54:44Z</time>
      </trkpt>
      <trkpt lat="44.79063" lon="1.56904">
        <ele>115.1</ele>
        <time>2024-12-25T11:54:45Z</time>
      </trkpt>
      <trkpt lat="44.79063" lon="1.56904">
        <ele>115.1</ele>
        <time>2024-12-25T11:54:46Z</time>
      </trkpt>
      <trkpt lat="44.79063" lon="1.56904">
        <ele>115.1</ele>
        <time>2024-12-25T11:54:47Z</time>
      </trkpt>
      <trkpt lat="44.79063" lon="1.56903">
        <ele>115.1</ele>
        <time>2024-12-25T11:54:48Z</time>
      </trkpt>
      <trkpt lat="44.79063" lon="1.56903">
        <ele>115.1</ele>
        <time>2024-12-25T11:54:49Z</time>
      </trkpt>
      <trkpt lat="44.79063" lon="1.56903">
        <ele>115.1</ele>
        <time>2024-12-25T11:54:50Z</time>
      </trkpt>
      <trkpt lat="44.79063" lon="1.56903">
        <ele>115.1</ele>
        <time>2024-12-25T11:54:51Z</time>
      </trkpt>
      <trkpt lat="44.79063" lon="1.56903">
        <ele>115.1</ele>
        <time>2024-12-25T11:54:52Z</time>
      </trkpt>
      <trkpt lat="44.79063" lon="1.56904">
        <ele>115.1</ele>
        <time>2024-12-25T11:54:53Z</time>
      </trkpt>
      <trkpt lat="44.79063" lon="1.56904">
        <ele>115.1</ele>
        <time>2024-12-25T11:54:54Z</time>
      </trkpt>
      <trkpt lat="44.79063" lon="1.56903">
        <ele>115.1</ele>
        <time>2024-12-25T11:54:55Z</time>
      </trkpt>
      <trkpt lat="44.79063" lon="1.56903">
        <ele>115.1</ele>
        <time>2024-12-25T11:54:56Z</time>
      </trkpt>
      <trkpt lat="44.79063" lon="1.56902">
        <ele>115.2</ele>
        <time>2024-12-25T11:54:57Z</time>
      </trkpt>
      <trkpt lat="44.79062" lon="1.56902">
        <ele>115.2</ele>
        <time>2024-12-25T11:54:58Z</time>
      </trkpt>
      <trkpt lat="44.79062" lon="1.56901">
        <ele>115.2</ele>
        <time>2024-12-25T11:54:59Z</time>
      </trkpt>
      <trkpt lat="44.79062" lon="1.56902">
        <ele>115.2</ele>
        <time>2024-12-25T11:55:00Z</time>
      </trkpt>
      <trkpt lat="44.79062" lon="1.56901">
        <ele>115.2</ele>
        <time>2024-12-25T11:55:01Z</time>
      </trkpt>
      <trkpt lat="44.79062" lon="1.56901">
        <ele>115.2</ele>
        <time>2024-12-25T11:55:03Z</time>
      </trkpt>
      <trkpt lat="44.79062" lon="1.56901">
        <ele>115.2</ele>
        <time>2024-12-25T11:55:04Z</time>
      </trkpt>
      <trkpt lat="44.79062" lon="1.56901">
        <ele>115.2</ele>
        <time>2024-12-25T11:55:05Z</time>
      </trkpt>
      <trkpt lat="44.79062" lon="1.56901">
        <ele>115.2</ele>
        <time>2024-12-25T11:55:06Z</time>
      </trkpt>
      <trkpt lat="44.79062" lon="1.56901">
        <ele>115.2</ele>
        <time>2024-12-25T11:55:07Z</time>
      </trkpt>
      <trkpt lat="44.79062" lon="1.56901">
        <ele>115.2</ele>
        <time>2024-12-25T11:55:08Z</time>
      </trkpt>
      <trkpt lat="44.79062" lon="1.56901">
        <ele>115.2</ele>
        <time>2024-12-25T11:55:09Z</time>
      </trkpt>
      <trkpt lat="44.79062" lon="1.56901">
        <ele>115.2</ele>
        <time>2024-12-25T11:55:10Z</time>
      </trkpt>
      <trkpt lat="44.79062" lon="1.56901">
        <ele>115.2</ele>
        <time>2024-12-25T11:55:11Z</time>
      </trkpt>
      <trkpt lat="44.79062" lon="1.56901">
        <ele>115.2</ele>
        <time>2024-12-25T11:55:12Z</time>
      </trkpt>
      <trkpt lat="44.79062" lon="1.56901">
        <ele>115.2</ele>
        <time>2024-12-25T11:55:13Z</time>
      </trkpt>
      <trkpt lat="44.79062" lon="1.56901">
        <ele>115.2</ele>
        <time>2024-12-25T11:55:14Z</time>
      </trkpt>
      <trkpt lat="44.79062" lon="1.56901">
        <ele>115.2</ele>
        <time>2024-12-25T11:55:15Z</time>
      </trkpt>
      <trkpt lat="44.79062" lon="1.56901">
        <ele>115.2</ele>
        <time>2024-12-25T11:55:16Z</time>
      </trkpt>
      <trkpt lat="44.79062" lon="1.56901">
        <ele>115.2</ele>
        <time>2024-12-25T11:55:17Z</time>
      </trkpt>
      <trkpt lat="44.79062" lon="1.56901">
        <ele>115.2</ele>
        <time>2024-12-25T11:55:18Z</time>
      </trkpt>
      <trkpt lat="44.79062" lon="1.56901">
        <ele>115.3</ele>
        <time>2024-12-25T11:55:19Z</time>
      </trkpt>
      <trkpt lat="44.79062" lon="1.569">
        <ele>115.3</ele>
        <time>2024-12-25T11:55:20Z</time>
      </trkpt>
      <trkpt lat="44.79062" lon="1.569">
        <ele>115.3</ele>
        <time>2024-12-25T11:55:21Z</time>
      </trkpt>
      <trkpt lat="44.79062" lon="1.569">
        <ele>115.3</ele>
        <time>2024-12-25T11:55:22Z</time>
      </trkpt>
      <trkpt lat="44.79062" lon="1.569">
        <ele>115.3</ele>
        <time>2024-12-25T11:55:23Z</time>
      </trkpt>
      <trkpt lat="44.79062" lon="1.569">
        <ele>115.3</ele>
        <time>2024-12-25T11:55:24Z</time>
      </trkpt>
      <trkpt lat="44.79062" lon="1.569">
        <ele>115.3</ele>
        <time>2024-12-25T11:55:25Z</time>
      </trkpt>
      <trkpt lat="44.79062" lon="1.569">
        <ele>115.3</ele>
        <time>2024-12-25T11:55:26Z</time>
      </trkpt>
      <trkpt lat="44.79062" lon="1.569">
        <ele>115.3</ele>
        <time>2024-12-25T11:55:27Z</time>
      </trkpt>
      <trkpt lat="44.79062" lon="1.569">
        <ele>115.3</ele>
        <time>2024-12-25T11:55:28Z</time>
      </trkpt>
      <trkpt lat="44.79062" lon="1.569">
        <ele>115.3</ele>
        <time>2024-12-25T11:55:29Z</time>
      </trkpt>
      <trkpt lat="44.79062" lon="1.569">
        <ele>115.3</ele>
        <time>2024-12-25T11:55:30Z</time>
      </trkpt>
      <trkpt lat="44.79062" lon="1.569">
        <ele>115.3</ele>
        <time>2024-12-25T11:55:31Z</time>
      </trkpt>
      <trkpt lat="44.79062" lon="1.569">
        <ele>115.3</ele>
        <time>2024-12-25T11:55:32Z</time>
      </trkpt>
      <trkpt lat="44.79062" lon="1.569">
        <ele>115.3</ele>
        <time>2024-12-25T11:55:33Z</time>
      </trkpt>
      <trkpt lat="44.79062" lon="1.569">
        <ele>115.3</ele>
        <time>2024-12-25T11:55:34Z</time>
      </trkpt>
      <trkpt lat="44.79062" lon="1.569">
        <ele>115.3</ele>
        <time>2024-12-25T11:55:35Z</time>
      </trkpt>
      <trkpt lat="44.79062" lon="1.569">
        <ele>115.3</ele>
        <time>2024-12-25T11:55:36Z</time>
      </trkpt>
      <trkpt lat="44.79062" lon="1.569">
        <ele>115.3</ele>
        <time>2024-12-25T11:55:37Z</time>
      </trkpt>
      <trkpt lat="44.79062" lon="1.569">
        <ele>115.3</ele>
        <time>2024-12-25T11:55:38Z</time>
      </trkpt>
      <trkpt lat="44.79062" lon="1.569">
        <ele>115.3</ele>
        <time>2024-12-25T11:55:39Z</time>
      </trkpt>
      <trkpt lat="44.79062" lon="1.56901">
        <ele>115.3</ele>
        <time>2024-12-25T11:55:40Z</time>
      </trkpt>
      <trkpt lat="44.79062" lon="1.56901">
        <ele>115.3</ele>
        <time>2024-12-25T11:55:41Z</time>
      </trkpt>
      <trkpt lat="44.79062" lon="1.56901">
        <ele>115.3</ele>
        <time>2024-12-25T11:55:42Z</time>
      </trkpt>
      <trkpt lat="44.79062" lon="1.56901">
        <ele>115.3</ele>
        <time>2024-12-25T11:55:43Z</time>
      </trkpt>
      <trkpt lat="44.79062" lon="1.56901">
        <ele>115.3</ele>
        <time>2024-12-25T11:55:44Z</time>
      </trkpt>
      <trkpt lat="44.79062" lon="1.56901">
        <ele>115.3</ele>
        <time>2024-12-25T11:55:45Z</time>
      </trkpt>
      <trkpt lat="44.79062" lon="1.56901">
        <ele>115.3</ele>
        <time>2024-12-25T11:55:46Z</time>
      </trkpt>
      <trkpt lat="44.79062" lon="1.56901">
        <ele>115.3</ele>
        <time>2024-12-25T11:55:47Z</time>
      </trkpt>
      <trkpt lat="44.79062" lon="1.56901">
        <ele>115.3</ele>
        <time>2024-12-25T11:55:48Z</time>
      </trkpt>
      <trkpt lat="44.79062" lon="1.569">
        <ele>115.3</ele>
        <time>2024-12-25T11:55:49Z</time>
      </trkpt>
      <trkpt lat="44.79062" lon="1.569">
        <ele>115.3</ele>
        <time>2024-12-25T11:55:50Z</time>
      </trkpt>
      <trkpt lat="44.79062" lon="1.569">
        <ele>115.3</ele>
        <time>2024-12-25T11:55:51Z</time>
      </trkpt>
      <trkpt lat="44.79062" lon="1.569">
        <ele>115.3</ele>
        <time>2024-12-25T11:55:52Z</time>
      </trkpt>
      <trkpt lat="44.79062" lon="1.569">
        <ele>115.3</ele>
        <time>2024-12-25T11:55:53Z</time>
      </trkpt>
      <trkpt lat="44.79062" lon="1.569">
        <ele>115.3</ele>
        <time>2024-12-25T11:55:54Z</time>
      </trkpt>
      <trkpt lat="44.79062" lon="1.56901">
        <ele>115.3</ele>
        <time>2024-12-25T11:55:55Z</time>
      </trkpt>
      <trkpt lat="44.79062" lon="1.56901">
        <ele>115.4</ele>
        <time>2024-12-25T11:55:56Z</time>
      </trkpt>
      <trkpt lat="44.79062" lon="1.56901">
        <ele>115.4</ele>
        <time>2024-12-25T11:55:57Z</time>
      </trkpt>
      <trkpt lat="44.79062" lon="1.56901">
        <ele>115.4</ele>
        <time>2024-12-25T11:55:58Z</time>
      </trkpt>
      <trkpt lat="44.79062" lon="1.56901">
        <ele>115.4</ele>
        <time>2024-12-25T11:55:59Z</time>
      </trkpt>
      <trkpt lat="44.79062" lon="1.56901">
        <ele>115.4</ele>
        <time>2024-12-25T11:56:00Z</time>
      </trkpt>
      <trkpt lat="44.79061" lon="1.56901">
        <ele>115.4</ele>
        <time>2024-12-25T11:56:01Z</time>
      </trkpt>
      <trkpt lat="44.79061" lon="1.569">
        <ele>115.4</ele>
        <time>2024-12-25T11:56:02Z</time>
      </trkpt>
      <trkpt lat="44.79061" lon="1.56901">
        <ele>115.4</ele>
        <time>2024-12-25T11:56:03Z</time>
      </trkpt>
      <trkpt lat="44.79061" lon="1.56901">
        <ele>115.4</ele>
        <time>2024-12-25T11:56:04Z</time>
      </trkpt>
      <trkpt lat="44.79061" lon="1.569">
        <ele>115.4</ele>
        <time>2024-12-25T11:56:05Z</time>
      </trkpt>
      <trkpt lat="44.79061" lon="1.569">
        <ele>115.4</ele>
        <time>2024-12-25T11:56:06Z</time>
      </trkpt>
      <trkpt lat="44.79061" lon="1.569">
        <ele>115.4</ele>
        <time>2024-12-25T11:56:07Z</time>
      </trkpt>
      <trkpt lat="44.79061" lon="1.569">
        <ele>115.5</ele>
        <time>2024-12-25T11:56:08Z</time>
      </trkpt>
      <trkpt lat="44.79061" lon="1.569">
        <ele>115.5</ele>
        <time>2024-12-25T11:56:09Z</time>
      </trkpt>
      <trkpt lat="44.79061" lon="1.569">
        <ele>115.5</ele>
        <time>2024-12-25T11:56:10Z</time>
      </trkpt>
      <trkpt lat="44.79061" lon="1.569">
        <ele>115.5</ele>
        <time>2024-12-25T11:56:11Z</time>
      </trkpt>
      <trkpt lat="44.79061" lon="1.569">
        <ele>115.5</ele>
        <time>2024-12-25T11:56:12Z</time>
      </trkpt>
      <trkpt lat="44.79061" lon="1.569">
        <ele>115.5</ele>
        <time>2024-12-25T11:56:13Z</time>
      </trkpt>
      <trkpt lat="44.79061" lon="1.569">
        <ele>115.5</ele>
        <time>2024-12-25T11:56:14Z</time>
      </trkpt>
      <trkpt lat="44.79061" lon="1.569">
        <ele>115.5</ele>
        <time>2024-12-25T11:56:15Z</time>
      </trkpt>
      <trkpt lat="44.79061" lon="1.569">
        <ele>115.5</ele>
        <time>2024-12-25T11:56:17Z</time>
      </trkpt>
      <trkpt lat="44.79061" lon="1.569">
        <ele>115.5</ele>
        <time>2024-12-25T11:56:18Z</time>
      </trkpt>
      <trkpt lat="44.79061" lon="1.569">
        <ele>115.5</ele>
        <time>2024-12-25T11:56:19Z</time>
      </trkpt>
      <trkpt lat="44.79061" lon="1.569">
        <ele>115.5</ele>
        <time>2024-12-25T11:56:20Z</time>
      </trkpt>
      <trkpt lat="44.79061" lon="1.569">
        <ele>115.5</ele>
        <time>2024-12-25T11:56:21Z</time>
      </trkpt>
      <trkpt lat="44.79061" lon="1.569">
        <ele>115.5</ele>
        <time>2024-12-25T11:56:22Z</time>
      </trkpt>
      <trkpt lat="44.79061" lon="1.569">
        <ele>115.5</ele>
        <time>2024-12-25T11:56:23Z</time>
      </trkpt>
      <trkpt lat="44.79061" lon="1.569">
        <ele>115.5</ele>
        <time>2024-12-25T11:56:24Z</time>
      </trkpt>
      <trkpt lat="44.79061" lon="1.569">
        <ele>115.5</ele>
        <time>2024-12-25T11:56:25Z</time>
      </trkpt>
      <trkpt lat="44.79061" lon="1.569">
        <ele>115.5</ele>
        <time>2024-12-25T11:56:26Z</time>
      </trkpt>
      <trkpt lat="44.79061" lon="1.569">
        <ele>115.5</ele>
        <time>2024-12-25T11:56:27Z</time>
      </trkpt>
      <trkpt lat="44.79061" lon="1.569">
        <ele>115.5</ele>
        <time>2024-12-25T11:56:28Z</time>
      </trkpt>
      <trkpt lat="44.79061" lon="1.569">
        <ele>115.5</ele>
        <time>2024-12-25T11:56:29Z</time>
      </trkpt>
      <trkpt lat="44.79061" lon="1.569">
        <ele>115.5</ele>
        <time>2024-12-25T11:56:30Z</time>
      </trkpt>
      <trkpt lat="44.79061" lon="1.569">
        <ele>115.5</ele>
        <time>2024-12-25T11:56:31Z</time>
      </trkpt>
      <trkpt lat="44.79061" lon="1.569">
        <ele>115.5</ele>
        <time>2024-12-25T11:56:32Z</time>
      </trkpt>
      <trkpt lat="44.79061" lon="1.569">
        <ele>115.5</ele>
        <time>2024-12-25T11:56:33Z</time>
      </trkpt>
      <trkpt lat="44.79061" lon="1.569">
        <ele>115.5</ele>
        <time>2024-12-25T11:56:34Z</time>
      </trkpt>
      <trkpt lat="44.79061" lon="1.569">
        <ele>115.5</ele>
        <time>2024-12-25T11:56:35Z</time>
      </trkpt>
      <trkpt lat="44.79061" lon="1.569">
        <ele>115.5</ele>
        <time>2024-12-25T11:56:36Z</time>
      </trkpt>
      <trkpt lat="44.79061" lon="1.569">
        <ele>115.5</ele>
        <time>2024-12-25T11:56:37Z</time>
      </trkpt>
      <trkpt lat="44.79061" lon="1.569">
        <ele>115.5</ele>
        <time>2024-12-25T11:56:38Z</time>
      </trkpt>
      <trkpt lat="44.79061" lon="1.569">
        <ele>115.5</ele>
        <time>2024-12-25T11:56:39Z</time>
      </trkpt>
      <trkpt lat="44.79061" lon="1.569">
        <ele>115.5</ele>
        <time>2024-12-25T11:56:40Z</time>
      </trkpt>
      <trkpt lat="44.79061" lon="1.569">
        <ele>115.5</ele>
        <time>2024-12-25T11:56:41Z</time>
      </trkpt>
      <trkpt lat="44.79061" lon="1.569">
        <ele>115.5</ele>
        <time>2024-12-25T11:56:42Z</time>
      </trkpt>
      <trkpt lat="44.79061" lon="1.569">
        <ele>115.5</ele>
        <time>2024-12-25T11:56:43Z</time>
      </trkpt>
      <trkpt lat="44.79061" lon="1.569">
        <ele>115.5</ele>
        <time>2024-12-25T11:56:44Z</time>
      </trkpt>
      <trkpt lat="44.79061" lon="1.569">
        <ele>115.5</ele>
        <time>2024-12-25T11:56:45Z</time>
      </trkpt>
      <trkpt lat="44.79061" lon="1.569">
        <ele>115.5</ele>
        <time>2024-12-25T11:56:46Z</time>
      </trkpt>
      <trkpt lat="44.79061" lon="1.569">
        <ele>115.5</ele>
        <time>2024-12-25T11:56:47Z</time>
      </trkpt>
      <trkpt lat="44.79061" lon="1.569">
        <ele>115.5</ele>
        <time>2024-12-25T11:56:48Z</time>
      </trkpt>
      <trkpt lat="44.79061" lon="1.569">
        <ele>115.5</ele>
        <time>2024-12-25T11:56:49Z</time>
      </trkpt>
      <trkpt lat="44.79061" lon="1.569">
        <ele>115.5</ele>
        <time>2024-12-25T11:56:50Z</time>
      </trkpt>
      <trkpt lat="44.79061" lon="1.569">
        <ele>115.5</ele>
        <time>2024-12-25T11:56:51Z</time>
      </trkpt>
      <trkpt lat="44.79061" lon="1.569">
        <ele>115.5</ele>
        <time>2024-12-25T11:56:52Z</time>
      </trkpt>
      <trkpt lat="44.79061" lon="1.569">
        <ele>115.5</ele>
        <time>2024-12-25T11:56:53Z</time>
      </trkpt>
      <trkpt lat="44.79061" lon="1.569">
        <ele>115.5</ele>
        <time>2024-12-25T11:56:54Z</time>
      </trkpt>
      <trkpt lat="44.79061" lon="1.569">
        <ele>115.5</ele>
        <time>2024-12-25T11:56:55Z</time>
      </trkpt>
      <trkpt lat="44.79061" lon="1.569">
        <ele>115.5</ele>
        <time>2024-12-25T11:56:56Z</time>
      </trkpt>
      <trkpt lat="44.79061" lon="1.569">
        <ele>115.5</ele>
        <time>2024-12-25T11:56:57Z</time>
      </trkpt>
      <trkpt lat="44.79061" lon="1.569">
        <ele>115.5</ele>
        <time>2024-12-25T11:56:58Z</time>
      </trkpt>
      <trkpt lat="44.79061" lon="1.569">
        <ele>115.5</ele>
        <time>2024-12-25T11:56:59Z</time>
      </trkpt>
      <trkpt lat="44.79061" lon="1.569">
        <ele>115.5</ele>
        <time>2024-12-25T11:57:00Z</time>
      </trkpt>
      <trkpt lat="44.79061" lon="1.569">
        <ele>115.5</ele>
        <time>2024-12-25T11:57:01Z</time>
      </trkpt>
      <trkpt lat="44.79061" lon="1.569">
        <ele>115.5</ele>
        <time>2024-12-25T11:57:02Z</time>
      </trkpt>
      <trkpt lat="44.79061" lon="1.569">
        <ele>115.5</ele>
        <time>2024-12-25T11:57:03Z</time>
      </trkpt>
      <trkpt lat="44.79061" lon="1.569">
        <ele>115.5</ele>
        <time>2024-12-25T11:57:04Z</time>
      </trkpt>
      <trkpt lat="44.79061" lon="1.569">
        <ele>115.5</ele>
        <time>2024-12-25T11:57:05Z</time>
      </trkpt>
      <trkpt lat="44.79061" lon="1.569">
        <ele>115.5</ele>
        <time>2024-12-25T11:57:06Z</time>
      </trkpt>
      <trkpt lat="44.79061" lon="1.569">
        <ele>115.5</ele>
        <time>2024-12-25T11:57:07Z</time>
      </trkpt>
      <trkpt lat="44.79061" lon="1.569">
        <ele>115.5</ele>
        <time>2024-12-25T11:57:08Z</time>
      </trkpt>
      <trkpt lat="44.79061" lon="1.569">
        <ele>115.5</ele>
        <time>2024-12-25T11:57:09Z</time>
      </trkpt>
      <trkpt lat="44.79061" lon="1.569">
        <ele>115.5</ele>
        <time>2024-12-25T11:57:10Z</time>
      </trkpt>
      <trkpt lat="44.79061" lon="1.569">
        <ele>115.5</ele>
        <time>2024-12-25T11:57:11Z</time>
      </trkpt>
      <trkpt lat="44.79061" lon="1.569">
        <ele>115.5</ele>
        <time>2024-12-25T11:57:12Z</time>
      </trkpt>
      <trkpt lat="44.79061" lon="1.569">
        <ele>115.5</ele>
        <time>2024-12-25T11:57:13Z</time>
      </trkpt>
      <trkpt lat="44.79061" lon="1.569">
        <ele>115.5</ele>
        <time>2024-12-25T11:57:14Z</time>
      </trkpt>
      <trkpt lat="44.79061" lon="1.569">
        <ele>115.5</ele>
        <time>2024-12-25T11:57:15Z</time>
      </trkpt>
      <trkpt lat="44.79061" lon="1.569">
        <ele>115.5</ele>
        <time>2024-12-25T11:57:16Z</time>
      </trkpt>
      <trkpt lat="44.79061" lon="1.569">
        <ele>115.5</ele>
        <time>2024-12-25T11:57:17Z</time>
      </trkpt>
      <trkpt lat="44.79061" lon="1.569">
        <ele>115.5</ele>
        <time>2024-12-25T11:57:18Z</time>
      </trkpt>
      <trkpt lat="44.79061" lon="1.569">
        <ele>115.5</ele>
        <time>2024-12-25T11:57:19Z</time>
      </trkpt>
      <trkpt lat="44.79061" lon="1.569">
        <ele>115.5</ele>
        <time>2024-12-25T11:57:20Z</time>
      </trkpt>
      <trkpt lat="44.79061" lon="1.569">
        <ele>115.5</ele>
        <time>2024-12-25T11:57:21Z</time>
      </trkpt>
      <trkpt lat="44.79061" lon="1.569">
        <ele>115.5</ele>
        <time>2024-12-25T11:57:22Z</time>
      </trkpt>
      <trkpt lat="44.79061" lon="1.569">
        <ele>115.5</ele>
        <time>2024-12-25T11:57:23Z</time>
      </trkpt>
      <trkpt lat="44.79061" lon="1.569">
        <ele>115.5</ele>
        <time>2024-12-25T11:57:24Z</time>
      </trkpt>
      <trkpt lat="44.79061" lon="1.569">
        <ele>115.5</ele>
        <time>2024-12-25T11:57:25Z</time>
      </trkpt>
      <trkpt lat="44.79061" lon="1.569">
        <ele>115.5</ele>
        <time>2024-12-25T11:57:26Z</time>
      </trkpt>
      <trkpt lat="44.79061" lon="1.569">
        <ele>115.5</ele>
        <time>2024-12-25T11:57:27Z</time>
      </trkpt>
      <trkpt lat="44.79061" lon="1.569">
        <ele>115.5</ele>
        <time>2024-12-25T11:57:28Z</time>
      </trkpt>
      <trkpt lat="44.79061" lon="1.569">
        <ele>115.5</ele>
        <time>2024-12-25T11:57:29Z</time>
      </trkpt>
      <trkpt lat="44.79061" lon="1.569">
        <ele>115.5</ele>
        <time>2024-12-25T11:57:30Z</time>
      </trkpt>
      <trkpt lat="44.79061" lon="1.569">
        <ele>115.5</ele>
        <time>2024-12-25T11:57:31Z</time>
      </trkpt>
      <trkpt lat="44.79061" lon="1.569">
        <ele>115.5</ele>
        <time>2024-12-25T11:57:32Z</time>
      </trkpt>
      <trkpt lat="44.79061" lon="1.569">
        <ele>115.5</ele>
        <time>2024-12-25T11:57:33Z</time>
      </trkpt>
      <trkpt lat="44.79061" lon="1.569">
        <ele>115.5</ele>
        <time>2024-12-25T11:57:34Z</time>
      </trkpt>
      <trkpt lat="44.79061" lon="1.569">
        <ele>115.5</ele>
        <time>2024-12-25T11:57:35Z</time>
      </trkpt>
      <trkpt lat="44.79061" lon="1.569">
        <ele>115.5</ele>
        <time>2024-12-25T11:57:36Z</time>
      </trkpt>
      <trkpt lat="44.79061" lon="1.569">
        <ele>115.5</ele>
        <time>2024-12-25T11:57:37Z</time>
      </trkpt>
      <trkpt lat="44.79061" lon="1.569">
        <ele>115.5</ele>
        <time>2024-12-25T11:57:38Z</time>
      </trkpt>
      <trkpt lat="44.79061" lon="1.569">
        <ele>115.5</ele>
        <time>2024-12-25T11:57:39Z</time>
      </trkpt>
      <trkpt lat="44.79061" lon="1.569">
        <ele>115.5</ele>
        <time>2024-12-25T11:57:40Z</time>
      </trkpt>
      <trkpt lat="44.79061" lon="1.569">
        <ele>115.5</ele>
        <time>2024-12-25T11:57:41Z</time>
      </trkpt>
      <trkpt lat="44.79061" lon="1.569">
        <ele>115.5</ele>
        <time>2024-12-25T11:57:42Z</time>
      </trkpt>
      <trkpt lat="44.79061" lon="1.569">
        <ele>115.5</ele>
        <time>2024-12-25T11:57:43Z</time>
      </trkpt>
      <trkpt lat="44.79061" lon="1.569">
        <ele>115.5</ele>
        <time>2024-12-25T11:57:44Z</time>
      </trkpt>
      <trkpt lat="44.79061" lon="1.569">
        <ele>115.5</ele>
        <time>2024-12-25T11:57:45Z</time>
      </trkpt>
      <trkpt lat="44.79061" lon="1.569">
        <ele>115.5</ele>
        <time>2024-12-25T11:57:46Z</time>
      </trkpt>
      <trkpt lat="44.79061" lon="1.569">
        <ele>115.5</ele>
        <time>2024-12-25T11:57:47Z</time>
      </trkpt>
      <trkpt lat="44.79061" lon="1.569">
        <ele>115.5</ele>
        <time>2024-12-25T11:57:48Z</time>
      </trkpt>
      <trkpt lat="44.79061" lon="1.569">
        <ele>115.5</ele>
        <time>2024-12-25T11:57:49Z</time>
      </trkpt>
      <trkpt lat="44.79061" lon="1.569">
        <ele>115.5</ele>
        <time>2024-12-25T11:57:50Z</time>
      </trkpt>
      <trkpt lat="44.79061" lon="1.569">
        <ele>115.5</ele>
        <time>2024-12-25T11:57:51Z</time>
      </trkpt>
      <trkpt lat="44.79061" lon="1.569">
        <ele>115.5</ele>
        <time>2024-12-25T11:57:52Z</time>
      </trkpt>
      <trkpt lat="44.79061" lon="1.569">
        <ele>115.5</ele>
        <time>2024-12-25T11:57:53Z</time>
      </trkpt>
      <trkpt lat="44.79061" lon="1.569">
        <ele>115.5</ele>
        <time>2024-12-25T11:57:54Z</time>
      </trkpt>
      <trkpt lat="44.79061" lon="1.569">
        <ele>115.5</ele>
        <time>2024-12-25T11:57:55Z</time>
      </trkpt>
      <trkpt lat="44.79061" lon="1.569">
        <ele>115.5</ele>
        <time>2024-12-25T11:57:56Z</time>
      </trkpt>
      <trkpt lat="44.79061" lon="1.569">
        <ele>115.5</ele>
        <time>2024-12-25T11:57:57Z</time>
      </trkpt>
      <trkpt lat="44.79061" lon="1.569">
        <ele>115.5</ele>
        <time>2024-12-25T11:57:58Z</time>
      </trkpt>
      <trkpt lat="44.79061" lon="1.569">
        <ele>115.5</ele>
        <time>2024-12-25T11:57:59Z</time>
      </trkpt>
      <trkpt lat="44.79061" lon="1.569">
        <ele>115.5</ele>
        <time>2024-12-25T11:58:00Z</time>
      </trkpt>
      <trkpt lat="44.79061" lon="1.569">
        <ele>115.5</ele>
        <time>2024-12-25T11:58:01Z</time>
      </trkpt>
      <trkpt lat="44.79061" lon="1.569">
        <ele>115.5</ele>
        <time>2024-12-25T11:58:02Z</time>
      </trkpt>
      <trkpt lat="44.79061" lon="1.569">
        <ele>115.5</ele>
        <time>2024-12-25T11:58:03Z</time>
      </trkpt>
      <trkpt lat="44.79061" lon="1.569">
        <ele>115.5</ele>
        <time>2024-12-25T11:58:04Z</time>
      </trkpt>
      <trkpt lat="44.79061" lon="1.569">
        <ele>115.5</ele>
        <time>2024-12-25T11:58:05Z</time>
      </trkpt>
      <trkpt lat="44.79061" lon="1.569">
        <ele>115.5</ele>
        <time>2024-12-25T11:58:06Z</time>
      </trkpt>
      <trkpt lat="44.79061" lon="1.569">
        <ele>115.5</ele>
        <time>2024-12-25T11:58:07Z</time>
      </trkpt>
      <trkpt lat="44.79061" lon="1.569">
        <ele>115.5</ele>
        <time>2024-12-25T11:58:08Z</time>
      </trkpt>
      <trkpt lat="44.79061" lon="1.569">
        <ele>115.5</ele>
        <time>2024-12-25T11:58:09Z</time>
      </trkpt>
      <trkpt lat="44.79061" lon="1.569">
        <ele>115.5</ele>
        <time>2024-12-25T11:58:10Z</time>
      </trkpt>
      <trkpt lat="44.79061" lon="1.569">
        <ele>115.5</ele>
        <time>2024-12-25T11:58:11Z</time>
      </trkpt>
      <trkpt lat="44.79061" lon="1.569">
        <ele>115.5</ele>
        <time>2024-12-25T11:58:12Z</time>
      </trkpt>
      <trkpt lat="44.79061" lon="1.569">
        <ele>115.5</ele>
        <time>2024-12-25T11:58:13Z</time>
      </trkpt>
      <trkpt lat="44.79061" lon="1.569">
        <ele>115.5</ele>
        <time>2024-12-25T11:58:14Z</time>
      </trkpt>
      <trkpt lat="44.79061" lon="1.569">
        <ele>115.5</ele>
        <time>2024-12-25T11:58:15Z</time>
      </trkpt>
      <trkpt lat="44.79061" lon="1.569">
        <ele>115.5</ele>
        <time>2024-12-25T11:58:16Z</time>
      </trkpt>
      <trkpt lat="44.79061" lon="1.569">
        <ele>115.5</ele>
        <time>2024-12-25T11:58:17Z</time>
      </trkpt>
      <trkpt lat="44.79061" lon="1.569">
        <ele>115.5</ele>
        <time>2024-12-25T11:58:18Z</time>
      </trkpt>
      <trkpt lat="44.79061" lon="1.569">
        <ele>115.5</ele>
        <time>2024-12-25T11:58:19Z</time>
      </trkpt>
      <trkpt lat="44.79061" lon="1.569">
        <ele>115.5</ele>
        <time>2024-12-25T11:58:20Z</time>
      </trkpt>
      <trkpt lat="44.79061" lon="1.569">
        <ele>115.5</ele>
        <time>2024-12-25T11:58:21Z</time>
      </trkpt>
      <trkpt lat="44.79061" lon="1.569">
        <ele>115.5</ele>
        <time>2024-12-25T11:58:22Z</time>
      </trkpt>
      <trkpt lat="44.79061" lon="1.569">
        <ele>115.5</ele>
        <time>2024-12-25T11:58:23Z</time>
      </trkpt>
      <trkpt lat="44.79061" lon="1.569">
        <ele>115.5</ele>
        <time>2024-12-25T11:58:24Z</time>
      </trkpt>
      <trkpt lat="44.79061" lon="1.569">
        <ele>115.5</ele>
        <time>2024-12-25T11:58:25Z</time>
      </trkpt>
      <trkpt lat="44.79061" lon="1.569">
        <ele>115.5</ele>
        <time>2024-12-25T11:58:26Z</time>
      </trkpt>
      <trkpt lat="44.79061" lon="1.569">
        <ele>115.5</ele>
        <time>2024-12-25T11:58:27Z</time>
      </trkpt>
      <trkpt lat="44.79061" lon="1.569">
        <ele>115.5</ele>
        <time>2024-12-25T11:58:28Z</time>
      </trkpt>
      <trkpt lat="44.79061" lon="1.569">
        <ele>115.5</ele>
        <time>2024-12-25T11:58:29Z</time>
      </trkpt>
      <trkpt lat="44.79061" lon="1.569">
        <ele>115.5</ele>
        <time>2024-12-25T11:58:30Z</time>
      </trkpt>
      <trkpt lat="44.79061" lon="1.569">
        <ele>115.5</ele>
        <time>2024-12-25T11:58:31Z</time>
      </trkpt>
      <trkpt lat="44.79061" lon="1.569">
        <ele>115.5</ele>
        <time>2024-12-25T11:58:32Z</time>
      </trkpt>
      <trkpt lat="44.79061" lon="1.569">
        <ele>115.5</ele>
        <time>2024-12-25T11:58:33Z</time>
      </trkpt>
      <trkpt lat="44.79061" lon="1.569">
        <ele>115.5</ele>
        <time>2024-12-25T11:58:34Z</time>
      </trkpt>
      <trkpt lat="44.79061" lon="1.569">
        <ele>115.5</ele>
        <time>2024-12-25T11:58:35Z</time>
      </trkpt>
      <trkpt lat="44.79061" lon="1.569">
        <ele>115.5</ele>
        <time>2024-12-25T11:58:36Z</time>
      </trkpt>
      <trkpt lat="44.79061" lon="1.569">
        <ele>115.5</ele>
        <time>2024-12-25T11:58:37Z</time>
      </trkpt>
      <trkpt lat="44.79061" lon="1.569">
        <ele>115.5</ele>
        <time>2024-12-25T11:58:38Z</time>
      </trkpt>
      <trkpt lat="44.79061" lon="1.569">
        <ele>115.5</ele>
        <time>2024-12-25T11:58:39Z</time>
      </trkpt>
      <trkpt lat="44.79061" lon="1.569">
        <ele>115.5</ele>
        <time>2024-12-25T11:58:40Z</time>
      </trkpt>
      <trkpt lat="44.79061" lon="1.569">
        <ele>115.5</ele>
        <time>2024-12-25T11:58:41Z</time>
      </trkpt>
      <trkpt lat="44.79061" lon="1.569">
        <ele>115.5</ele>
        <time>2024-12-25T11:58:42Z</time>
      </trkpt>
      <trkpt lat="44.79061" lon="1.569">
        <ele>115.5</ele>
        <time>2024-12-25T11:58:43Z</time>
      </trkpt>
      <trkpt lat="44.79061" lon="1.569">
        <ele>115.6</ele>
        <time>2024-12-25T11:58:44Z</time>
      </trkpt>
      <trkpt lat="44.79061" lon="1.569">
        <ele>115.6</ele>
        <time>2024-12-25T11:58:45Z</time>
      </trkpt>
      <trkpt lat="44.79061" lon="1.569">
        <ele>115.6</ele>
        <time>2024-12-25T11:58:46Z</time>
      </trkpt>
      <trkpt lat="44.79061" lon="1.569">
        <ele>115.6</ele>
        <time>2024-12-25T11:58:47Z</time>
      </trkpt>
      <trkpt lat="44.79061" lon="1.569">
        <ele>115.6</ele>
        <time>2024-12-25T11:58:48Z</time>
      </trkpt>
      <trkpt lat="44.79061" lon="1.569">
        <ele>115.6</ele>
        <time>2024-12-25T11:58:49Z</time>
      </trkpt>
      <trkpt lat="44.79061" lon="1.56901">
        <ele>115.6</ele>
        <time>2024-12-25T11:58:50Z</time>
      </trkpt>
      <trkpt lat="44.79061" lon="1.569">
        <ele>115.6</ele>
        <time>2024-12-25T11:58:51Z</time>
      </trkpt>
      <trkpt lat="44.79061" lon="1.56901">
        <ele>115.6</ele>
        <time>2024-12-25T11:58:52Z</time>
      </trkpt>
      <trkpt lat="44.79061" lon="1.569">
        <ele>115.6</ele>
        <time>2024-12-25T11:58:53Z</time>
      </trkpt>
      <trkpt lat="44.79061" lon="1.569">
        <ele>115.6</ele>
        <time>2024-12-25T11:58:54Z</time>
      </trkpt>
      <trkpt lat="44.79061" lon="1.56901">
        <ele>115.6</ele>
        <time>2024-12-25T11:58:55Z</time>
      </trkpt>
      <trkpt lat="44.79061" lon="1.56901">
        <ele>115.6</ele>
        <time>2024-12-25T11:58:56Z</time>
      </trkpt>
      <trkpt lat="44.79061" lon="1.56901">
        <ele>115.6</ele>
        <time>2024-12-25T11:58:57Z</time>
      </trkpt>
      <trkpt lat="44.79061" lon="1.56901">
        <ele>115.6</ele>
        <time>2024-12-25T11:58:58Z</time>
      </trkpt>
      <trkpt lat="44.79061" lon="1.56901">
        <ele>115.6</ele>
        <time>2024-12-25T11:58:59Z</time>
      </trkpt>
      <trkpt lat="44.79061" lon="1.56902">
        <ele>115.6</ele>
        <time>2024-12-25T11:59:00Z</time>
      </trkpt>
      <trkpt lat="44.79061" lon="1.56902">
        <ele>115.7</ele>
        <time>2024-12-25T11:59:01Z</time>
      </trkpt>
      <trkpt lat="44.79061" lon="1.56902">
        <ele>115.7</ele>
        <time>2024-12-25T11:59:02Z</time>
      </trkpt>
      <trkpt lat="44.7906" lon="1.56902">
        <ele>115.7</ele>
        <time>2024-12-25T11:59:03Z</time>
      </trkpt>
      <trkpt lat="44.7906" lon="1.56903">
        <ele>115.7</ele>
        <time>2024-12-25T11:59:04Z</time>
      </trkpt>
      <trkpt lat="44.7906" lon="1.56903">
        <ele>115.7</ele>
        <time>2024-12-25T11:59:05Z</time>
      </trkpt>
      <trkpt lat="44.7906" lon="1.56903">
        <ele>115.7</ele>
        <time>2024-12-25T11:59:06Z</time>
      </trkpt>
      <trkpt lat="44.7906" lon="1.56903">
        <ele>115.7</ele>
        <time>2024-12-25T11:59:07Z</time>
      </trkpt>
      <trkpt lat="44.7906" lon="1.56903">
        <ele>115.7</ele>
        <time>2024-12-25T11:59:08Z</time>
      </trkpt>
      <trkpt lat="44.7906" lon="1.56903">
        <ele>115.7</ele>
        <time>2024-12-25T11:59:09Z</time>
      </trkpt>
      <trkpt lat="44.7906" lon="1.56903">
        <ele>115.7</ele>
        <time>2024-12-25T11:59:10Z</time>
      </trkpt>
      <trkpt lat="44.7906" lon="1.56903">
        <ele>115.7</ele>
        <time>2024-12-25T11:59:11Z</time>
      </trkpt>
      <trkpt lat="44.7906" lon="1.56903">
        <ele>115.7</ele>
        <time>2024-12-25T11:59:12Z</time>
      </trkpt>
      <trkpt lat="44.7906" lon="1.56903">
        <ele>115.7</ele>
        <time>2024-12-25T11:59:13Z</time>
      </trkpt>
      <trkpt lat="44.7906" lon="1.56903">
        <ele>115.7</ele>
        <time>2024-12-25T11:59:14Z</time>
      </trkpt>
      <trkpt lat="44.7906" lon="1.56903">
        <ele>115.7</ele>
        <time>2024-12-25T11:59:15Z</time>
      </trkpt>
      <trkpt lat="44.7906" lon="1.56903">
        <ele>115.7</ele>
        <time>2024-12-25T11:59:16Z</time>
      </trkpt>
      <trkpt lat="44.7906" lon="1.56903">
        <ele>115.7</ele>
        <time>2024-12-25T11:59:17Z</time>
      </trkpt>
      <trkpt lat="44.7906" lon="1.56903">
        <ele>115.7</ele>
        <time>2024-12-25T11:59:18Z</time>
      </trkpt>
      <trkpt lat="44.7906" lon="1.56902">
        <ele>115.7</ele>
        <time>2024-12-25T11:59:19Z</time>
      </trkpt>
      <trkpt lat="44.7906" lon="1.56902">
        <ele>115.7</ele>
        <time>2024-12-25T11:59:20Z</time>
      </trkpt>
      <trkpt lat="44.7906" lon="1.56902">
        <ele>115.8</ele>
        <time>2024-12-25T11:59:21Z</time>
      </trkpt>
      <trkpt lat="44.7906" lon="1.56901">
        <ele>115.8</ele>
        <time>2024-12-25T11:59:22Z</time>
      </trkpt>
      <trkpt lat="44.79061" lon="1.56901">
        <ele>115.8</ele>
        <time>2024-12-25T11:59:23Z</time>
      </trkpt>
      <trkpt lat="44.79061" lon="1.56901">
        <ele>115.8</ele>
        <time>2024-12-25T11:59:24Z</time>
      </trkpt>
      <trkpt lat="44.79061" lon="1.56901">
        <ele>115.8</ele>
        <time>2024-12-25T11:59:25Z</time>
      </trkpt>
      <trkpt lat="44.79061" lon="1.56901">
        <ele>115.8</ele>
        <time>2024-12-25T11:59:26Z</time>
      </trkpt>
      <trkpt lat="44.79061" lon="1.56902">
        <ele>115.8</ele>
        <time>2024-12-25T11:59:27Z</time>
      </trkpt>
      <trkpt lat="44.79062" lon="1.56903">
        <ele>115.9</ele>
        <time>2024-12-25T11:59:28Z</time>
      </trkpt>
      <trkpt lat="44.79063" lon="1.56904">
        <ele>115.9</ele>
        <time>2024-12-25T11:59:29Z</time>
      </trkpt>
      <trkpt lat="44.79063" lon="1.56908">
        <ele>116.1</ele>
        <time>2024-12-25T11:59:30Z</time>
      </trkpt>
      <trkpt lat="44.79063" lon="1.56909">
        <ele>116.1</ele>
        <time>2024-12-25T11:59:31Z</time>
      </trkpt>
      <trkpt lat="44.79064" lon="1.56912">
        <ele>116.2</ele>
        <time>2024-12-25T11:59:32Z</time>
      </trkpt>
      <trkpt lat="44.79065" lon="1.56913">
        <ele>116.3</ele>
        <time>2024-12-25T11:59:33Z</time>
      </trkpt>
      <trkpt lat="44.79066" lon="1.56914">
        <ele>116.4</ele>
        <time>2024-12-25T11:59:34Z</time>
      </trkpt>
      <trkpt lat="44.79067" lon="1.56915">
        <ele>116.4</ele>
        <time>2024-12-25T11:59:35Z</time>
      </trkpt>
      <trkpt lat="44.79068" lon="1.56917">
        <ele>116.5</ele>
        <time>2024-12-25T11:59:36Z</time>
      </trkpt>
      <trkpt lat="44.79069" lon="1.56917">
        <ele>116.6</ele>
        <time>2024-12-25T11:59:37Z</time>
      </trkpt>
      <trkpt lat="44.7907" lon="1.56917">
        <ele>116.6</ele>
        <time>2024-12-25T11:59:38Z</time>
      </trkpt>
      <trkpt lat="44.79071" lon="1.56917">
        <ele>116.7</ele>
        <time>2024-12-25T11:59:39Z</time>
      </trkpt>
      <trkpt lat="44.79072" lon="1.56917">
        <ele>116.7</ele>
        <time>2024-12-25T11:59:40Z</time>
      </trkpt>
      <trkpt lat="44.79073" lon="1.56916">
        <ele>116.7</ele>
        <time>2024-12-25T11:59:41Z</time>
      </trkpt>
      <trkpt lat="44.79073" lon="1.56917">
        <ele>116.8</ele>
        <time>2024-12-25T11:59:42Z</time>
      </trkpt>
      <trkpt lat="44.79074" lon="1.56917">
        <ele>116.8</ele>
        <time>2024-12-25T11:59:43Z</time>
      </trkpt>
      <trkpt lat="44.79075" lon="1.56917">
        <ele>116.8</ele>
        <time>2024-12-25T11:59:44Z</time>
      </trkpt>
      <trkpt lat="44.79076" lon="1.56917">
        <ele>116.9</ele>
        <time>2024-12-25T11:59:45Z</time>
      </trkpt>
      <trkpt lat="44.79078" lon="1.56917">
        <ele>117</ele>
        <time>2024-12-25T11:59:46Z</time>
      </trkpt>
      <trkpt lat="44.79079" lon="1.56917">
        <ele>117</ele>
        <time>2024-12-25T11:59:47Z</time>
      </trkpt>
      <trkpt lat="44.7908" lon="1.56917">
        <ele>117.1</ele>
        <time>2024-12-25T11:59:48Z</time>
      </trkpt>
      <trkpt lat="44.79081" lon="1.56917">
        <ele>117.1</ele>
        <time>2024-12-25T11:59:49Z</time>
      </trkpt>
      <trkpt lat="44.79082" lon="1.56916">
        <ele>117.2</ele>
        <time>2024-12-25T11:59:50Z</time>
      </trkpt>
      <trkpt lat="44.79083" lon="1.56916">
        <ele>117.2</ele>
        <time>2024-12-25T11:59:51Z</time>
      </trkpt>
      <trkpt lat="44.79085" lon="1.56915">
        <ele>117.3</ele>
        <time>2024-12-25T11:59:52Z</time>
      </trkpt>
      <trkpt lat="44.79086" lon="1.56914">
        <ele>117.3</ele>
        <time>2024-12-25T11:59:53Z</time>
      </trkpt>
      <trkpt lat="44.79087" lon="1.56914">
        <ele>117.4</ele>
        <time>2024-12-25T11:59:54Z</time>
      </trkpt>
      <trkpt lat="44.79088" lon="1.56914">
        <ele>117.4</ele>
        <time>2024-12-25T11:59:55Z</time>
      </trkpt>
      <trkpt lat="44.7909" lon="1.56913">
        <ele>117.5</ele>
        <time>2024-12-25T11:59:56Z</time>
      </trkpt>
      <trkpt lat="44.79091" lon="1.56913">
        <ele>117.5</ele>
        <time>2024-12-25T11:59:57Z</time>
      </trkpt>
      <trkpt lat="44.79092" lon="1.56912">
        <ele>117.6</ele>
        <time>2024-12-25T11:59:58Z</time>
      </trkpt>
      <trkpt lat="44.79094" lon="1.56911">
        <ele>117.6</ele>
        <time>2024-12-25T11:59:59Z</time>
      </trkpt>
      <trkpt lat="44.79095" lon="1.5691">
        <ele>117.7</ele>
        <time>2024-12-25T12:00:00Z</time>
      </trkpt>
      <trkpt lat="44.79097" lon="1.5691">
        <ele>117.7</ele>
        <time>2024-12-25T12:00:01Z</time>
      </trkpt>
      <trkpt lat="44.79098" lon="1.56911">
        <ele>117.7</ele>
        <time>2024-12-25T12:00:02Z</time>
      </trkpt>
      <trkpt lat="44.79099" lon="1.56911">
        <ele>117.8</ele>
        <time>2024-12-25T12:00:03Z</time>
      </trkpt>
      <trkpt lat="44.791" lon="1.56914">
        <ele>117.8</ele>
        <time>2024-12-25T12:00:04Z</time>
      </trkpt>
      <trkpt lat="44.79101" lon="1.56914">
        <ele>117.9</ele>
        <time>2024-12-25T12:00:05Z</time>
      </trkpt>
      <trkpt lat="44.79101" lon="1.56915">
        <ele>117.9</ele>
        <time>2024-12-25T12:00:06Z</time>
      </trkpt>
      <trkpt lat="44.79102" lon="1.56916">
        <ele>117.9</ele>
        <time>2024-12-25T12:00:07Z</time>
      </trkpt>
      <trkpt lat="44.79103" lon="1.56916">
        <ele>117.9</ele>
        <time>2024-12-25T12:00:08Z</time>
      </trkpt>
      <trkpt lat="44.79104" lon="1.56918">
        <ele>118</ele>
        <time>2024-12-25T12:00:09Z</time>
      </trkpt>
      <trkpt lat="44.79104" lon="1.5692">
        <ele>118</ele>
        <time>2024-12-25T12:00:10Z</time>
      </trkpt>
      <trkpt lat="44.79103" lon="1.56922">
        <ele>118</ele>
        <time>2024-12-25T12:00:11Z</time>
      </trkpt>
      <trkpt lat="44.79103" lon="1.56924">
        <ele>118.1</ele>
        <time>2024-12-25T12:00:12Z</time>
      </trkpt>
      <trkpt lat="44.79103" lon="1.56926">
        <ele>118.1</ele>
        <time>2024-12-25T12:00:13Z</time>
      </trkpt>
      <trkpt lat="44.79103" lon="1.56927">
        <ele>118.2</ele>
        <time>2024-12-25T12:00:14Z</time>
      </trkpt>
      <trkpt lat="44.79103" lon="1.56928">
        <ele>118.2</ele>
        <time>2024-12-25T12:00:15Z</time>
      </trkpt>
      <trkpt lat="44.79103" lon="1.5693">
        <ele>118.2</ele>
        <time>2024-12-25T12:00:16Z</time>
      </trkpt>
      <trkpt lat="44.79103" lon="1.56931">
        <ele>118.3</ele>
        <time>2024-12-25T12:00:17Z</time>
      </trkpt>
      <trkpt lat="44.79103" lon="1.56932">
        <ele>118.3</ele>
        <time>2024-12-25T12:00:18Z</time>
      </trkpt>
      <trkpt lat="44.79103" lon="1.56933">
        <ele>118.3</ele>
        <time>2024-12-25T12:00:19Z</time>
      </trkpt>
      <trkpt lat="44.79103" lon="1.56934">
        <ele>118.3</ele>
        <time>2024-12-25T12:00:20Z</time>
      </trkpt>
      <trkpt lat="44.79103" lon="1.56934">
        <ele>118.3</ele>
        <time>2024-12-25T12:00:21Z</time>
      </trkpt>
      <trkpt lat="44.79103" lon="1.56934">
        <ele>118.3</ele>
        <time>2024-12-25T12:00:22Z</time>
      </trkpt>
      <trkpt lat="44.79103" lon="1.56934">
        <ele>118.4</ele>
        <time>2024-12-25T12:00:23Z</time>
      </trkpt>
      <trkpt lat="44.79103" lon="1.56933">
        <ele>118.4</ele>
        <time>2024-12-25T12:00:24Z</time>
      </trkpt>
      <trkpt lat="44.79103" lon="1.56933">
        <ele>118.4</ele>
        <time>2024-12-25T12:00:25Z</time>
      </trkpt>
      <trkpt lat="44.79103" lon="1.56932">
        <ele>118.4</ele>
        <time>2024-12-25T12:00:26Z</time>
      </trkpt>
      <trkpt lat="44.79103" lon="1.56932">
        <ele>118.4</ele>
        <time>2024-12-25T12:00:27Z</time>
      </trkpt>
      <trkpt lat="44.79103" lon="1.56932">
        <ele>118.4</ele>
        <time>2024-12-25T12:00:28Z</time>
      </trkpt>
      <trkpt lat="44.79103" lon="1.56933">
        <ele>118.4</ele>
        <time>2024-12-25T12:00:29Z</time>
      </trkpt>
      <trkpt lat="44.79102" lon="1.56933">
        <ele>118.5</ele>
        <time>2024-12-25T12:00:30Z</time>
      </trkpt>
      <trkpt lat="44.79102" lon="1.56935">
        <ele>118.5</ele>
        <time>2024-12-25T12:00:31Z</time>
      </trkpt>
      <trkpt lat="44.79102" lon="1.56937">
        <ele>118.6</ele>
        <time>2024-12-25T12:00:32Z</time>
      </trkpt>
      <trkpt lat="44.79102" lon="1.56939">
        <ele>118.6</ele>
        <time>2024-12-25T12:00:33Z</time>
      </trkpt>
      <trkpt lat="44.79101" lon="1.56941">
        <ele>118.7</ele>
        <time>2024-12-25T12:00:34Z</time>
      </trkpt>
      <trkpt lat="44.79101" lon="1.56943">
        <ele>118.8</ele>
        <time>2024-12-25T12:00:35Z</time>
      </trkpt>
      <trkpt lat="44.791" lon="1.56945">
        <ele>118.8</ele>
        <time>2024-12-25T12:00:36Z</time>
      </trkpt>
      <trkpt lat="44.791" lon="1.56946">
        <ele>118.9</ele>
        <time>2024-12-25T12:00:37Z</time>
      </trkpt>
      <trkpt lat="44.79099" lon="1.56949">
        <ele>119</ele>
        <time>2024-12-25T12:00:38Z</time>
      </trkpt>
      <trkpt lat="44.79099" lon="1.56951">
        <ele>119</ele>
        <time>2024-12-25T12:00:39Z</time>
      </trkpt>
      <trkpt lat="44.79099" lon="1.56952">
        <ele>119.1</ele>
        <time>2024-12-25T12:00:40Z</time>
      </trkpt>
      <trkpt lat="44.79099" lon="1.56954">
        <ele>119.1</ele>
        <time>2024-12-25T12:00:41Z</time>
      </trkpt>
      <trkpt lat="44.79099" lon="1.56956">
        <ele>119.2</ele>
        <time>2024-12-25T12:00:42Z</time>
      </trkpt>
      <trkpt lat="44.79098" lon="1.56958">
        <ele>119.3</ele>
        <time>2024-12-25T12:00:43Z</time>
      </trkpt>
      <trkpt lat="44.79098" lon="1.5696">
        <ele>119.3</ele>
        <time>2024-12-25T12:00:44Z</time>
      </trkpt>
      <trkpt lat="44.79098" lon="1.56962">
        <ele>119.4</ele>
        <time>2024-12-25T12:00:45Z</time>
      </trkpt>
      <trkpt lat="44.79098" lon="1.56964">
        <ele>119.5</ele>
        <time>2024-12-25T12:00:46Z</time>
      </trkpt>
      <trkpt lat="44.79098" lon="1.56967">
        <ele>119.6</ele>
        <time>2024-12-25T12:00:47Z</time>
      </trkpt>
      <trkpt lat="44.79098" lon="1.56968">
        <ele>119.6</ele>
        <time>2024-12-25T12:00:48Z</time>
      </trkpt>
      <trkpt lat="44.79098" lon="1.5697">
        <ele>119.7</ele>
        <time>2024-12-25T12:00:49Z</time>
      </trkpt>
      <trkpt lat="44.79098" lon="1.56973">
        <ele>119.8</ele>
        <time>2024-12-25T12:00:50Z</time>
      </trkpt>
      <trkpt lat="44.79098" lon="1.56974">
        <ele>119.8</ele>
        <time>2024-12-25T12:00:51Z</time>
      </trkpt>
      <trkpt lat="44.79098" lon="1.56975">
        <ele>119.9</ele>
        <time>2024-12-25T12:00:52Z</time>
      </trkpt>
      <trkpt lat="44.79099" lon="1.56978">
        <ele>120</ele>
        <time>2024-12-25T12:00:53Z</time>
      </trkpt>
      <trkpt lat="44.79099" lon="1.56979">
        <ele>120.1</ele>
        <time>2024-12-25T12:00:54Z</time>
      </trkpt>
      <trkpt lat="44.791" lon="1.56981">
        <ele>120.1</ele>
        <time>2024-12-25T12:00:55Z</time>
      </trkpt>
      <trkpt lat="44.79101" lon="1.56983">
        <ele>120.2</ele>
        <time>2024-12-25T12:00:56Z</time>
      </trkpt>
      <trkpt lat="44.79101" lon="1.56984">
        <ele>120.3</ele>
        <time>2024-12-25T12:00:57Z</time>
      </trkpt>
      <trkpt lat="44.79101" lon="1.56986">
        <ele>120.4</ele>
        <time>2024-12-25T12:00:58Z</time>
      </trkpt>
      <trkpt lat="44.79102" lon="1.56988">
        <ele>120.5</ele>
        <time>2024-12-25T12:00:59Z</time>
      </trkpt>
      <trkpt lat="44.79102" lon="1.56989">
        <ele>120.5</ele>
        <time>2024-12-25T12:01:00Z</time>
      </trkpt>
      <trkpt lat="44.79101" lon="1.56992">
        <ele>120.7</ele>
        <time>2024-12-25T12:01:01Z</time>
      </trkpt>
      <trkpt lat="44.79101" lon="1.56993">
        <ele>120.8</ele>
        <time>2024-12-25T12:01:02Z</time>
      </trkpt>
      <trkpt lat="44.79101" lon="1.56995">
        <ele>120.9</ele>
        <time>2024-12-25T12:01:03Z</time>
      </trkpt>
      <trkpt lat="44.79101" lon="1.56997">
        <ele>121</ele>
        <time>2024-12-25T12:01:04Z</time>
      </trkpt>
      <trkpt lat="44.79101" lon="1.56999">
        <ele>121.1</ele>
        <time>2024-12-25T12:01:05Z</time>
      </trkpt>
      <trkpt lat="44.79101" lon="1.57001">
        <ele>121.2</ele>
        <time>2024-12-25T12:01:06Z</time>
      </trkpt>
      <trkpt lat="44.79101" lon="1.57002">
        <ele>121.3</ele>
        <time>2024-12-25T12:01:07Z</time>
      </trkpt>
      <trkpt lat="44.79101" lon="1.57004">
        <ele>121.4</ele>
        <time>2024-12-25T12:01:08Z</time>
      </trkpt>
      <trkpt lat="44.79101" lon="1.57006">
        <ele>121.5</ele>
        <time>2024-12-25T12:01:09Z</time>
      </trkpt>
      <trkpt lat="44.79101" lon="1.57009">
        <ele>121.7</ele>
        <time>2024-12-25T12:01:10Z</time>
      </trkpt>
      <trkpt lat="44.791" lon="1.5701">
        <ele>121.8</ele>
        <time>2024-12-25T12:01:11Z</time>
      </trkpt>
      <trkpt lat="44.791" lon="1.57011">
        <ele>121.8</ele>
        <time>2024-12-25T12:01:12Z</time>
      </trkpt>
      <trkpt lat="44.791" lon="1.57012">
        <ele>121.9</ele>
        <time>2024-12-25T12:01:13Z</time>
      </trkpt>
      <trkpt lat="44.791" lon="1.57014">
        <ele>122.1</ele>
        <time>2024-12-25T12:01:14Z</time>
      </trkpt>
      <trkpt lat="44.791" lon="1.57016">
        <ele>122.2</ele>
        <time>2024-12-25T12:01:15Z</time>
      </trkpt>
      <trkpt lat="44.79099" lon="1.57019">
        <ele>122.4</ele>
        <time>2024-12-25T12:01:16Z</time>
      </trkpt>
      <trkpt lat="44.79099" lon="1.57019">
        <ele>122.5</ele>
        <time>2024-12-25T12:01:17Z</time>
      </trkpt>
      <trkpt lat="44.79098" lon="1.5702">
        <ele>122.6</ele>
        <time>2024-12-25T12:01:18Z</time>
      </trkpt>
      <trkpt lat="44.79097" lon="1.57023">
        <ele>122.8</ele>
        <time>2024-12-25T12:01:19Z</time>
      </trkpt>
      <trkpt lat="44.79096" lon="1.57024">
        <ele>122.9</ele>
        <time>2024-12-25T12:01:20Z</time>
      </trkpt>
      <trkpt lat="44.79095" lon="1.57024">
        <ele>123</ele>
        <time>2024-12-25T12:01:21Z</time>
      </trkpt>
      <trkpt lat="44.79094" lon="1.57024">
        <ele>123.1</ele>
        <time>2024-12-25T12:01:22Z</time>
      </trkpt>
      <trkpt lat="44.79093" lon="1.57024">
        <ele>123.3</ele>
        <time>2024-12-25T12:01:23Z</time>
      </trkpt>
      <trkpt lat="44.79092" lon="1.57025">
        <ele>123.4</ele>
        <time>2024-12-25T12:01:24Z</time>
      </trkpt>
      <trkpt lat="44.79091" lon="1.57026">
        <ele>123.5</ele>
        <time>2024-12-25T12:01:25Z</time>
      </trkpt>
      <trkpt lat="44.7909" lon="1.57027">
        <ele>123.7</ele>
        <time>2024-12-25T12:01:26Z</time>
      </trkpt>
      <trkpt lat="44.79089" lon="1.57027">
        <ele>123.7</ele>
        <time>2024-12-25T12:01:27Z</time>
      </trkpt>
      <trkpt lat="44.79088" lon="1.57028">
        <ele>123.9</ele>
        <time>2024-12-25T12:01:28Z</time>
      </trkpt>
      <trkpt lat="44.79087" lon="1.57028">
        <ele>123.9</ele>
        <time>2024-12-25T12:01:29Z</time>
      </trkpt>
      <trkpt lat="44.79086" lon="1.57029">
        <ele>124</ele>
        <time>2024-12-25T12:01:30Z</time>
      </trkpt>
      <trkpt lat="44.79086" lon="1.5703">
        <ele>124.1</ele>
        <time>2024-12-25T12:01:31Z</time>
      </trkpt>
      <trkpt lat="44.79084" lon="1.57031">
        <ele>124.3</ele>
        <time>2024-12-25T12:01:32Z</time>
      </trkpt>
      <trkpt lat="44.79083" lon="1.57032">
        <ele>124.4</ele>
        <time>2024-12-25T12:01:33Z</time>
      </trkpt>
      <trkpt lat="44.79082" lon="1.57032">
        <ele>124.5</ele>
        <time>2024-12-25T12:01:34Z</time>
      </trkpt>
      <trkpt lat="44.79081" lon="1.57033">
        <ele>124.7</ele>
        <time>2024-12-25T12:01:35Z</time>
      </trkpt>
      <trkpt lat="44.7908" lon="1.57033">
        <ele>124.8</ele>
        <time>2024-12-25T12:01:36Z</time>
      </trkpt>
      <trkpt lat="44.79079" lon="1.57034">
        <ele>124.9</ele>
        <time>2024-12-25T12:01:37Z</time>
      </trkpt>
      <trkpt lat="44.79078" lon="1.57034">
        <ele>125</ele>
        <time>2024-12-25T12:01:38Z</time>
      </trkpt>
      <trkpt lat="44.79077" lon="1.57035">
        <ele>125.1</ele>
        <time>2024-12-25T12:01:39Z</time>
      </trkpt>
      <trkpt lat="44.79076" lon="1.57035">
        <ele>125.2</ele>
        <time>2024-12-25T12:01:40Z</time>
      </trkpt>
      <trkpt lat="44.79075" lon="1.57036">
        <ele>125.3</ele>
        <time>2024-12-25T12:01:41Z</time>
      </trkpt>
      <trkpt lat="44.79074" lon="1.57037">
        <ele>125.5</ele>
        <time>2024-12-25T12:01:42Z</time>
      </trkpt>
      <trkpt lat="44.79073" lon="1.57038">
        <ele>125.6</ele>
        <time>2024-12-25T12:01:43Z</time>
      </trkpt>
      <trkpt lat="44.79073" lon="1.57039">
        <ele>125.7</ele>
        <time>2024-12-25T12:01:44Z</time>
      </trkpt>
      <trkpt lat="44.79072" lon="1.57041">
        <ele>125.8</ele>
        <time>2024-12-25T12:01:45Z</time>
      </trkpt>
      <trkpt lat="44.79071" lon="1.57042">
        <ele>125.9</ele>
        <time>2024-12-25T12:01:46Z</time>
      </trkpt>
      <trkpt lat="44.7907" lon="1.57044">
        <ele>126</ele>
        <time>2024-12-25T12:01:47Z</time>
      </trkpt>
      <trkpt lat="44.7907" lon="1.57044">
        <ele>126.1</ele>
        <time>2024-12-25T12:01:48Z</time>
      </trkpt>
      <trkpt lat="44.7907" lon="1.57045">
        <ele>126.2</ele>
        <time>2024-12-25T12:01:49Z</time>
      </trkpt>
      <trkpt lat="44.79069" lon="1.57046">
        <ele>126.2</ele>
        <time>2024-12-25T12:01:50Z</time>
      </trkpt>
      <trkpt lat="44.79069" lon="1.57048">
        <ele>126.4</ele>
        <time>2024-12-25T12:01:51Z</time>
      </trkpt>
      <trkpt lat="44.79068" lon="1.5705">
        <ele>126.5</ele>
        <time>2024-12-25T12:01:52Z</time>
      </trkpt>
      <trkpt lat="44.79067" lon="1.57051">
        <ele>126.6</ele>
        <time>2024-12-25T12:01:53Z</time>
      </trkpt>
      <trkpt lat="44.79066" lon="1.57052">
        <ele>126.7</ele>
        <time>2024-12-25T12:01:54Z</time>
      </trkpt>
      <trkpt lat="44.79066" lon="1.57053">
        <ele>126.7</ele>
        <time>2024-12-25T12:01:55Z</time>
      </trkpt>
      <trkpt lat="44.79067" lon="1.57054">
        <ele>126.8</ele>
        <time>2024-12-25T12:01:56Z</time>
      </trkpt>
      <trkpt lat="44.79067" lon="1.57054">
        <ele>126.8</ele>
        <time>2024-12-25T12:01:57Z</time>
      </trkpt>
      <trkpt lat="44.79067" lon="1.57054">
        <ele>126.9</ele>
        <time>2024-12-25T12:01:58Z</time>
      </trkpt>
      <trkpt lat="44.79068" lon="1.57054">
        <ele>126.9</ele>
        <time>2024-12-25T12:01:59Z</time>
      </trkpt>
      <trkpt lat="44.79068" lon="1.57054">
        <ele>126.9</ele>
        <time>2024-12-25T12:02:00Z</time>
      </trkpt>
      <trkpt lat="44.79068" lon="1.57054">
        <ele>127</ele>
        <time>2024-12-25T12:02:01Z</time>
      </trkpt>
      <trkpt lat="44.79068" lon="1.57054">
        <ele>127</ele>
        <time>2024-12-25T12:02:02Z</time>
      </trkpt>
      <trkpt lat="44.79068" lon="1.57054">
        <ele>127</ele>
        <time>2024-12-25T12:02:03Z</time>
      </trkpt>
      <trkpt lat="44.79067" lon="1.57054">
        <ele>127</ele>
        <time>2024-12-25T12:02:04Z</time>
      </trkpt>
      <trkpt lat="44.79067" lon="1.57054">
        <ele>127</ele>
        <time>2024-12-25T12:02:05Z</time>
      </trkpt>
      <trkpt lat="44.79067" lon="1.57054">
        <ele>127</ele>
        <time>2024-12-25T12:02:06Z</time>
      </trkpt>
      <trkpt lat="44.79067" lon="1.57054">
        <ele>127</ele>
        <time>2024-12-25T12:02:07Z</time>
      </trkpt>
      <trkpt lat="44.79067" lon="1.57054">
        <ele>127</ele>
        <time>2024-12-25T12:02:08Z</time>
      </trkpt>
      <trkpt lat="44.79067" lon="1.57054">
        <ele>127</ele>
        <time>2024-12-25T12:02:09Z</time>
      </trkpt>
      <trkpt lat="44.79067" lon="1.57054">
        <ele>127</ele>
        <time>2024-12-25T12:02:10Z</time>
      </trkpt>
      <trkpt lat="44.79067" lon="1.57054">
        <ele>127</ele>
        <time>2024-12-25T12:02:11Z</time>
      </trkpt>
      <trkpt lat="44.79067" lon="1.57054">
        <ele>127.1</ele>
        <time>2024-12-25T12:02:12Z</time>
      </trkpt>
      <trkpt lat="44.79067" lon="1.57054">
        <ele>127.1</ele>
        <time>2024-12-25T12:02:13Z</time>
      </trkpt>
      <trkpt lat="44.79067" lon="1.57054">
        <ele>127.1</ele>
        <time>2024-12-25T12:02:14Z</time>
      </trkpt>
      <trkpt lat="44.79067" lon="1.57054">
        <ele>127.1</ele>
        <time>2024-12-25T12:02:15Z</time>
      </trkpt>
      <trkpt lat="44.79067" lon="1.57054">
        <ele>127.1</ele>
        <time>2024-12-25T12:02:16Z</time>
      </trkpt>
      <trkpt lat="44.79067" lon="1.57054">
        <ele>127.1</ele>
        <time>2024-12-25T12:02:17Z</time>
      </trkpt>
      <trkpt lat="44.79067" lon="1.57054">
        <ele>127.1</ele>
        <time>2024-12-25T12:02:18Z</time>
      </trkpt>
      <trkpt lat="44.79067" lon="1.57054">
        <ele>127.1</ele>
        <time>2024-12-25T12:02:19Z</time>
      </trkpt>
      <trkpt lat="44.79067" lon="1.57054">
        <ele>127.1</ele>
        <time>2024-12-25T12:02:20Z</time>
      </trkpt>
      <trkpt lat="44.79067" lon="1.57054">
        <ele>127.1</ele>
        <time>2024-12-25T12:02:21Z</time>
      </trkpt>
      <trkpt lat="44.79067" lon="1.57054">
        <ele>127.1</ele>
        <time>2024-12-25T12:02:22Z</time>
      </trkpt>
      <trkpt lat="44.79067" lon="1.57054">
        <ele>127.1</ele>
        <time>2024-12-25T12:02:23Z</time>
      </trkpt>
      <trkpt lat="44.79067" lon="1.57054">
        <ele>127.1</ele>
        <time>2024-12-25T12:02:24Z</time>
      </trkpt>
      <trkpt lat="44.79067" lon="1.57054">
        <ele>127.1</ele>
        <time>2024-12-25T12:02:25Z</time>
      </trkpt>
      <trkpt lat="44.79067" lon="1.57054">
        <ele>127.1</ele>
        <time>2024-12-25T12:02:26Z</time>
      </trkpt>
      <trkpt lat="44.79067" lon="1.57054">
        <ele>127.1</ele>
        <time>2024-12-25T12:02:27Z</time>
      </trkpt>
      <trkpt lat="44.79067" lon="1.57054">
        <ele>127.1</ele>
        <time>2024-12-25T12:02:28Z</time>
      </trkpt>
      <trkpt lat="44.79067" lon="1.57054">
        <ele>127.1</ele>
        <time>2024-12-25T12:02:29Z</time>
      </trkpt>
      <trkpt lat="44.79067" lon="1.57054">
        <ele>127.1</ele>
        <time>2024-12-25T12:02:30Z</time>
      </trkpt>
      <trkpt lat="44.79067" lon="1.57054">
        <ele>127.1</ele>
        <time>2024-12-25T12:02:31Z</time>
      </trkpt>
      <trkpt lat="44.79067" lon="1.57054">
        <ele>127.1</ele>
        <time>2024-12-25T12:02:32Z</time>
      </trkpt>
      <trkpt lat="44.79067" lon="1.57054">
        <ele>127.1</ele>
        <time>2024-12-25T12:02:33Z</time>
      </trkpt>
      <trkpt lat="44.79067" lon="1.57054">
        <ele>127.1</ele>
        <time>2024-12-25T12:02:34Z</time>
      </trkpt>
      <trkpt lat="44.79067" lon="1.57054">
        <ele>127.1</ele>
        <time>2024-12-25T12:02:35Z</time>
      </trkpt>
      <trkpt lat="44.79067" lon="1.57054">
        <ele>127.1</ele>
        <time>2024-12-25T12:02:36Z</time>
      </trkpt>
      <trkpt lat="44.79067" lon="1.57054">
        <ele>127.1</ele>
        <time>2024-12-25T12:02:37Z</time>
      </trkpt>
      <trkpt lat="44.79067" lon="1.57054">
        <ele>127.1</ele>
        <time>2024-12-25T12:02:38Z</time>
      </trkpt>
      <trkpt lat="44.79067" lon="1.57054">
        <ele>127.1</ele>
        <time>2024-12-25T12:02:39Z</time>
      </trkpt>
      <trkpt lat="44.79067" lon="1.57054">
        <ele>127.1</ele>
        <time>2024-12-25T12:02:40Z</time>
      </trkpt>
      <trkpt lat="44.79067" lon="1.57054">
        <ele>127.1</ele>
        <time>2024-12-25T12:02:41Z</time>
      </trkpt>
      <trkpt lat="44.79067" lon="1.57054">
        <ele>127.2</ele>
        <time>2024-12-25T12:02:42Z</time>
      </trkpt>
      <trkpt lat="44.79067" lon="1.57054">
        <ele>127.2</ele>
        <time>2024-12-25T12:02:43Z</time>
      </trkpt>
      <trkpt lat="44.79067" lon="1.57054">
        <ele>127.2</ele>
        <time>2024-12-25T12:02:44Z</time>
      </trkpt>
      <trkpt lat="44.79068" lon="1.57054">
        <ele>127.2</ele>
        <time>2024-12-25T12:02:45Z</time>
      </trkpt>
      <trkpt lat="44.79068" lon="1.57054">
        <ele>127.2</ele>
        <time>2024-12-25T12:02:46Z</time>
      </trkpt>
      <trkpt lat="44.79068" lon="1.57054">
        <ele>127.2</ele>
        <time>2024-12-25T12:02:47Z</time>
      </trkpt>
      <trkpt lat="44.79068" lon="1.57054">
        <ele>127.2</ele>
        <time>2024-12-25T12:02:48Z</time>
      </trkpt>
      <trkpt lat="44.79068" lon="1.57054">
        <ele>127.2</ele>
        <time>2024-12-25T12:02:49Z</time>
      </trkpt>
      <trkpt lat="44.79068" lon="1.57054">
        <ele>127.2</ele>
        <time>2024-12-25T12:02:50Z</time>
      </trkpt>
      <trkpt lat="44.79068" lon="1.57054">
        <ele>127.2</ele>
        <time>2024-12-25T12:02:51Z</time>
      </trkpt>
      <trkpt lat="44.79068" lon="1.57054">
        <ele>127.2</ele>
        <time>2024-12-25T12:02:52Z</time>
      </trkpt>
      <trkpt lat="44.79068" lon="1.57054">
        <ele>127.2</ele>
        <time>2024-12-25T12:02:53Z</time>
      </trkpt>
      <trkpt lat="44.79068" lon="1.57054">
        <ele>127.2</ele>
        <time>2024-12-25T12:02:54Z</time>
      </trkpt>
      <trkpt lat="44.79068" lon="1.57054">
        <ele>127.2</ele>
        <time>2024-12-25T12:02:55Z</time>
      </trkpt>
      <trkpt lat="44.79068" lon="1.57054">
        <ele>127.2</ele>
        <time>2024-12-25T12:02:56Z</time>
      </trkpt>
      <trkpt lat="44.79068" lon="1.57054">
        <ele>127.2</ele>
        <time>2024-12-25T12:02:57Z</time>
      </trkpt>
      <trkpt lat="44.79068" lon="1.57054">
        <ele>127.2</ele>
        <time>2024-12-25T12:02:58Z</time>
      </trkpt>
      <trkpt lat="44.79068" lon="1.57054">
        <ele>127.2</ele>
        <time>2024-12-25T12:02:59Z</time>
      </trkpt>
      <trkpt lat="44.79068" lon="1.57054">
        <ele>127.2</ele>
        <time>2024-12-25T12:03:00Z</time>
      </trkpt>
      <trkpt lat="44.79068" lon="1.57054">
        <ele>127.2</ele>
        <time>2024-12-25T12:03:01Z</time>
      </trkpt>
      <trkpt lat="44.79068" lon="1.57054">
        <ele>127.2</ele>
        <time>2024-12-25T12:03:02Z</time>
      </trkpt>
      <trkpt lat="44.79068" lon="1.57054">
        <ele>127.2</ele>
        <time>2024-12-25T12:03:03Z</time>
      </trkpt>
      <trkpt lat="44.79068" lon="1.57054">
        <ele>127.2</ele>
        <time>2024-12-25T12:03:04Z</time>
      </trkpt>
      <trkpt lat="44.79068" lon="1.57054">
        <ele>127.2</ele>
        <time>2024-12-25T12:03:05Z</time>
      </trkpt>
      <trkpt lat="44.79068" lon="1.57054">
        <ele>127.2</ele>
        <time>2024-12-25T12:03:06Z</time>
      </trkpt>
      <trkpt lat="44.79068" lon="1.57054">
        <ele>127.2</ele>
        <time>2024-12-25T12:03:07Z</time>
      </trkpt>
      <trkpt lat="44.79068" lon="1.57054">
        <ele>127.2</ele>
        <time>2024-12-25T12:03:08Z</time>
      </trkpt>
      <trkpt lat="44.79068" lon="1.57054">
        <ele>127.2</ele>
        <time>2024-12-25T12:03:09Z</time>
      </trkpt>
      <trkpt lat="44.79068" lon="1.57054">
        <ele>127.2</ele>
        <time>2024-12-25T12:03:10Z</time>
      </trkpt>
      <trkpt lat="44.79068" lon="1.57053">
        <ele>127.2</ele>
        <time>2024-12-25T12:03:11Z</time>
      </trkpt>
      <trkpt lat="44.79068" lon="1.57053">
        <ele>127.2</ele>
        <time>2024-12-25T12:03:12Z</time>
      </trkpt>
      <trkpt lat="44.79068" lon="1.57053">
        <ele>127.2</ele>
        <time>2024-12-25T12:03:13Z</time>
      </trkpt>
      <trkpt lat="44.79068" lon="1.57053">
        <ele>127.2</ele>
        <time>2024-12-25T12:03:14Z</time>
      </trkpt>
      <trkpt lat="44.79068" lon="1.57053">
        <ele>127.2</ele>
        <time>2024-12-25T12:03:15Z</time>
      </trkpt>
      <trkpt lat="44.79068" lon="1.57053">
        <ele>127.2</ele>
        <time>2024-12-25T12:03:16Z</time>
      </trkpt>
      <trkpt lat="44.79068" lon="1.57053">
        <ele>127.2</ele>
        <time>2024-12-25T12:03:17Z</time>
      </trkpt>
      <trkpt lat="44.79068" lon="1.57053">
        <ele>127.2</ele>
        <time>2024-12-25T12:03:18Z</time>
      </trkpt>
      <trkpt lat="44.79068" lon="1.57053">
        <ele>127.2</ele>
        <time>2024-12-25T12:03:19Z</time>
      </trkpt>
      <trkpt lat="44.79068" lon="1.57053">
        <ele>127.2</ele>
        <time>2024-12-25T12:03:20Z</time>
      </trkpt>
      <trkpt lat="44.79068" lon="1.57053">
        <ele>127.2</ele>
        <time>2024-12-25T12:03:21Z</time>
      </trkpt>
      <trkpt lat="44.79068" lon="1.57053">
        <ele>127.2</ele>
        <time>2024-12-25T12:03:22Z</time>
      </trkpt>
      <trkpt lat="44.79068" lon="1.57052">
        <ele>127.2</ele>
        <time>2024-12-25T12:03:23Z</time>
      </trkpt>
      <trkpt lat="44.79068" lon="1.57052">
        <ele>127.2</ele>
        <time>2024-12-25T12:03:24Z</time>
      </trkpt>
      <trkpt lat="44.79067" lon="1.57052">
        <ele>127.2</ele>
        <time>2024-12-25T12:03:25Z</time>
      </trkpt>
      <trkpt lat="44.79067" lon="1.57052">
        <ele>127.2</ele>
        <time>2024-12-25T12:03:26Z</time>
      </trkpt>
      <trkpt lat="44.79067" lon="1.57052">
        <ele>127.2</ele>
        <time>2024-12-25T12:03:27Z</time>
      </trkpt>
      <trkpt lat="44.79068" lon="1.57052">
        <ele>127.2</ele>
        <time>2024-12-25T12:03:28Z</time>
      </trkpt>
      <trkpt lat="44.79068" lon="1.57052">
        <ele>127.2</ele>
        <time>2024-12-25T12:03:29Z</time>
      </trkpt>
      <trkpt lat="44.79068" lon="1.57052">
        <ele>127.2</ele>
        <time>2024-12-25T12:03:30Z</time>
      </trkpt>
      <trkpt lat="44.79068" lon="1.57052">
        <ele>127.2</ele>
        <time>2024-12-25T12:03:31Z</time>
      </trkpt>
      <trkpt lat="44.79068" lon="1.57052">
        <ele>127.2</ele>
        <time>2024-12-25T12:03:32Z</time>
      </trkpt>
      <trkpt lat="44.79068" lon="1.57052">
        <ele>127.2</ele>
        <time>2024-12-25T12:03:33Z</time>
      </trkpt>
      <trkpt lat="44.79068" lon="1.57052">
        <ele>127.2</ele>
        <time>2024-12-25T12:03:34Z</time>
      </trkpt>
      <trkpt lat="44.79068" lon="1.57052">
        <ele>127.2</ele>
        <time>2024-12-25T12:03:35Z</time>
      </trkpt>
      <trkpt lat="44.79068" lon="1.57052">
        <ele>127.2</ele>
        <time>2024-12-25T12:03:36Z</time>
      </trkpt>
      <trkpt lat="44.79068" lon="1.57052">
        <ele>127.2</ele>
        <time>2024-12-25T12:03:37Z</time>
      </trkpt>
      <trkpt lat="44.79068" lon="1.57053">
        <ele>127.2</ele>
        <time>2024-12-25T12:03:38Z</time>
      </trkpt>
      <trkpt lat="44.79067" lon="1.57054">
        <ele>127.2</ele>
        <time>2024-12-25T12:03:39Z</time>
      </trkpt>
      <trkpt lat="44.79068" lon="1.57054">
        <ele>127.1</ele>
        <time>2024-12-25T12:03:40Z</time>
      </trkpt>
      <trkpt lat="44.79068" lon="1.57055">
        <ele>127.1</ele>
        <time>2024-12-25T12:03:41Z</time>
      </trkpt>
      <trkpt lat="44.79068" lon="1.57056">
        <ele>127.1</ele>
        <time>2024-12-25T12:03:42Z</time>
      </trkpt>
      <trkpt lat="44.79068" lon="1.57057">
        <ele>127.1</ele>
        <time>2024-12-25T12:03:43Z</time>
      </trkpt>
      <trkpt lat="44.79068" lon="1.57058">
        <ele>127.1</ele>
        <time>2024-12-25T12:03:44Z</time>
      </trkpt>
      <trkpt lat="44.79068" lon="1.5706">
        <ele>127</ele>
        <time>2024-12-25T12:03:45Z</time>
      </trkpt>
      <trkpt lat="44.79069" lon="1.57063">
        <ele>127</ele>
        <time>2024-12-25T12:03:46Z</time>
      </trkpt>
      <trkpt lat="44.79069" lon="1.57064">
        <ele>126.9</ele>
        <time>2024-12-25T12:03:47Z</time>
      </trkpt>
      <trkpt lat="44.7907" lon="1.57065">
        <ele>126.9</ele>
        <time>2024-12-25T12:03:48Z</time>
      </trkpt>
      <trkpt lat="44.7907" lon="1.57067">
        <ele>126.9</ele>
        <time>2024-12-25T12:03:49Z</time>
      </trkpt>
      <trkpt lat="44.79071" lon="1.57069">
        <ele>126.8</ele>
        <time>2024-12-25T12:03:50Z</time>
      </trkpt>
      <trkpt lat="44.79071" lon="1.57069">
        <ele>126.8</ele>
        <time>2024-12-25T12:03:51Z</time>
      </trkpt>
      <trkpt lat="44.79073" lon="1.57071">
        <ele>126.7</ele>
        <time>2024-12-25T12:03:52Z</time>
      </trkpt>
      <trkpt lat="44.79073" lon="1.57072">
        <ele>126.7</ele>
        <time>2024-12-25T12:03:53Z</time>
      </trkpt>
      <trkpt lat="44.79075" lon="1.57073">
        <ele>126.7</ele>
        <time>2024-12-25T12:03:54Z</time>
      </trkpt>
      <trkpt lat="44.79075" lon="1.57074">
        <ele>126.7</ele>
        <time>2024-12-25T12:03:55Z</time>
      </trkpt>
      <trkpt lat="44.79076" lon="1.57074">
        <ele>126.6</ele>
        <time>2024-12-25T12:03:56Z</time>
      </trkpt>
      <trkpt lat="44.79076" lon="1.57075">
        <ele>126.6</ele>
        <time>2024-12-25T12:03:57Z</time>
      </trkpt>
      <trkpt lat="44.79077" lon="1.57076">
        <ele>126.6</ele>
        <time>2024-12-25T12:03:58Z</time>
      </trkpt>
      <trkpt lat="44.79078" lon="1.57076">
        <ele>126.6</ele>
        <time>2024-12-25T12:03:59Z</time>
      </trkpt>
      <trkpt lat="44.79079" lon="1.57077">
        <ele>126.6</ele>
        <time>2024-12-25T12:04:00Z</time>
      </trkpt>
      <trkpt lat="44.79079" lon="1.57077">
        <ele>126.6</ele>
        <time>2024-12-25T12:04:01Z</time>
      </trkpt>
      <trkpt lat="44.7908" lon="1.57078">
        <ele>126.5</ele>
        <time>2024-12-25T12:04:02Z</time>
      </trkpt>
      <trkpt lat="44.79081" lon="1.57079">
        <ele>126.5</ele>
        <time>2024-12-25T12:04:03Z</time>
      </trkpt>
      <trkpt lat="44.79082" lon="1.5708">
        <ele>126.5</ele>
        <time>2024-12-25T12:04:04Z</time>
      </trkpt>
      <trkpt lat="44.79084" lon="1.57082">
        <ele>126.5</ele>
        <time>2024-12-25T12:04:05Z</time>
      </trkpt>
      <trkpt lat="44.79084" lon="1.57083">
        <ele>126.5</ele>
        <time>2024-12-25T12:04:06Z</time>
      </trkpt>
      <trkpt lat="44.79085" lon="1.57084">
        <ele>126.5</ele>
        <time>2024-12-25T12:04:07Z</time>
      </trkpt>
      <trkpt lat="44.79086" lon="1.57085">
        <ele>126.5</ele>
        <time>2024-12-25T12:04:08Z</time>
      </trkpt>
      <trkpt lat="44.79087" lon="1.57086">
        <ele>126.5</ele>
        <time>2024-12-25T12:04:09Z</time>
      </trkpt>
      <trkpt lat="44.79089" lon="1.57089">
        <ele>126.5</ele>
        <time>2024-12-25T12:04:10Z</time>
      </trkpt>
      <trkpt lat="44.79089" lon="1.57089">
        <ele>126.5</ele>
        <time>2024-12-25T12:04:11Z</time>
      </trkpt>
      <trkpt lat="44.7909" lon="1.5709">
        <ele>126.5</ele>
        <time>2024-12-25T12:04:12Z</time>
      </trkpt>
      <trkpt lat="44.79092" lon="1.57091">
        <ele>126.5</ele>
        <time>2024-12-25T12:04:13Z</time>
      </trkpt>
      <trkpt lat="44.79093" lon="1.57091">
        <ele>126.5</ele>
        <time>2024-12-25T12:04:14Z</time>
      </trkpt>
      <trkpt lat="44.79094" lon="1.57091">
        <ele>126.5</ele>
        <time>2024-12-25T12:04:15Z</time>
      </trkpt>
      <trkpt lat="44.79095" lon="1.57092">
        <ele>126.5</ele>
        <time>2024-12-25T12:04:16Z</time>
      </trkpt>
      <trkpt lat="44.79096" lon="1.57093">
        <ele>126.5</ele>
        <time>2024-12-25T12:04:17Z</time>
      </trkpt>
      <trkpt lat="44.79097" lon="1.57093">
        <ele>126.5</ele>
        <time>2024-12-25T12:04:18Z</time>
      </trkpt>
      <trkpt lat="44.79099" lon="1.57093">
        <ele>126.6</ele>
        <time>2024-12-25T12:04:19Z</time>
      </trkpt>
      <trkpt lat="44.791" lon="1.57093">
        <ele>126.6</ele>
        <time>2024-12-25T12:04:20Z</time>
      </trkpt>
      <trkpt lat="44.79101" lon="1.57094">
        <ele>126.6</ele>
        <time>2024-12-25T12:04:21Z</time>
      </trkpt>
      <trkpt lat="44.79102" lon="1.57094">
        <ele>126.7</ele>
        <time>2024-12-25T12:04:22Z</time>
      </trkpt>
      <trkpt lat="44.79103" lon="1.57095">
        <ele>126.7</ele>
        <time>2024-12-25T12:04:23Z</time>
      </trkpt>
      <trkpt lat="44.79105" lon="1.57095">
        <ele>126.8</ele>
        <time>2024-12-25T12:04:24Z</time>
      </trkpt>
      <trkpt lat="44.79106" lon="1.57097">
        <ele>126.8</ele>
        <time>2024-12-25T12:04:25Z</time>
      </trkpt>
      <trkpt lat="44.79107" lon="1.57098">
        <ele>126.9</ele>
        <time>2024-12-25T12:04:26Z</time>
      </trkpt>
      <trkpt lat="44.79109" lon="1.57099">
        <ele>127</ele>
        <time>2024-12-25T12:04:27Z</time>
      </trkpt>
      <trkpt lat="44.7911" lon="1.57101">
        <ele>127.1</ele>
        <time>2024-12-25T12:04:28Z</time>
      </trkpt>
      <trkpt lat="44.79111" lon="1.57101">
        <ele>127.1</ele>
        <time>2024-12-25T12:04:29Z</time>
      </trkpt>
      <trkpt lat="44.79112" lon="1.57102">
        <ele>127.2</ele>
        <time>2024-12-25T12:04:30Z</time>
      </trkpt>
      <trkpt lat="44.79113" lon="1.57102">
        <ele>127.2</ele>
        <time>2024-12-25T12:04:31Z</time>
      </trkpt>
      <trkpt lat="44.79115" lon="1.57103">
        <ele>127.3</ele>
        <time>2024-12-25T12:04:32Z</time>
      </trkpt>
      <trkpt lat="44.79115" lon="1.57103">
        <ele>127.4</ele>
        <time>2024-12-25T12:04:33Z</time>
      </trkpt>
      <trkpt lat="44.79117" lon="1.57103">
        <ele>127.5</ele>
        <time>2024-12-25T12:04:34Z</time>
      </trkpt>
      <trkpt lat="44.79118" lon="1.57104">
        <ele>127.6</ele>
        <time>2024-12-25T12:04:35Z</time>
      </trkpt>
      <trkpt lat="44.79119" lon="1.57104">
        <ele>127.7</ele>
        <time>2024-12-25T12:04:36Z</time>
      </trkpt>
      <trkpt lat="44.7912" lon="1.57106">
        <ele>127.8</ele>
        <time>2024-12-25T12:04:37Z</time>
      </trkpt>
      <trkpt lat="44.79121" lon="1.57106">
        <ele>127.9</ele>
        <time>2024-12-25T12:04:38Z</time>
      </trkpt>
      <trkpt lat="44.79122" lon="1.57107">
        <ele>128</ele>
        <time>2024-12-25T12:04:39Z</time>
      </trkpt>
      <trkpt lat="44.79123" lon="1.57108">
        <ele>128</ele>
        <time>2024-12-25T12:04:40Z</time>
      </trkpt>
      <trkpt lat="44.79124" lon="1.57109">
        <ele>128.2</ele>
        <time>2024-12-25T12:04:41Z</time>
      </trkpt>
      <trkpt lat="44.79125" lon="1.57109">
        <ele>128.3</ele>
        <time>2024-12-25T12:04:42Z</time>
      </trkpt>
      <trkpt lat="44.79126" lon="1.5711">
        <ele>128.4</ele>
        <time>2024-12-25T12:04:43Z</time>
      </trkpt>
      <trkpt lat="44.79127" lon="1.57111">
        <ele>128.5</ele>
        <time>2024-12-25T12:04:44Z</time>
      </trkpt>
      <trkpt lat="44.79128" lon="1.57112">
        <ele>128.6</ele>
        <time>2024-12-25T12:04:45Z</time>
      </trkpt>
      <trkpt lat="44.79129" lon="1.57113">
        <ele>128.7</ele>
        <time>2024-12-25T12:04:46Z</time>
      </trkpt>
      <trkpt lat="44.7913" lon="1.57113">
        <ele>128.7</ele>
        <time>2024-12-25T12:04:47Z</time>
      </trkpt>
      <trkpt lat="44.79131" lon="1.57114">
        <ele>128.8</ele>
        <time>2024-12-25T12:04:48Z</time>
      </trkpt>
      <trkpt lat="44.79131" lon="1.57116">
        <ele>129</ele>
        <time>2024-12-25T12:04:49Z</time>
      </trkpt>
      <trkpt lat="44.79132" lon="1.57117">
        <ele>129.1</ele>
        <time>2024-12-25T12:04:50Z</time>
      </trkpt>
      <trkpt lat="44.79133" lon="1.57118">
        <ele>129.2</ele>
        <time>2024-12-25T12:04:51Z</time>
      </trkpt>
      <trkpt lat="44.79133" lon="1.57119">
        <ele>129.3</ele>
        <time>2024-12-25T12:04:52Z</time>
      </trkpt>
      <trkpt lat="44.79133" lon="1.57121">
        <ele>129.4</ele>
        <time>2024-12-25T12:04:53Z</time>
      </trkpt>
      <trkpt lat="44.79134" lon="1.57122">
        <ele>129.5</ele>
        <time>2024-12-25T12:04:54Z</time>
      </trkpt>
      <trkpt lat="44.79134" lon="1.57124">
        <ele>129.6</ele>
        <time>2024-12-25T12:04:55Z</time>
      </trkpt>
      <trkpt lat="44.79135" lon="1.57125">
        <ele>129.7</ele>
        <time>2024-12-25T12:04:56Z</time>
      </trkpt>
      <trkpt lat="44.79135" lon="1.57126">
        <ele>129.8</ele>
        <time>2024-12-25T12:04:57Z</time>
      </trkpt>
      <trkpt lat="44.79134" lon="1.57128">
        <ele>129.9</ele>
        <time>2024-12-25T12:04:58Z</time>
      </trkpt>
      <trkpt lat="44.79134" lon="1.57128">
        <ele>129.9</ele>
        <time>2024-12-25T12:04:59Z</time>
      </trkpt>
      <trkpt lat="44.79133" lon="1.57128">
        <ele>130</ele>
        <time>2024-12-25T12:05:00Z</time>
      </trkpt>
      <trkpt lat="44.79132" lon="1.57126">
        <ele>130.3</ele>
        <time>2024-12-25T12:05:01Z</time>
      </trkpt>
      <trkpt lat="44.79131" lon="1.57125">
        <ele>130.5</ele>
        <time>2024-12-25T12:05:02Z</time>
      </trkpt>
      <trkpt lat="44.7913" lon="1.57124">
        <ele>130.6</ele>
        <time>2024-12-25T12:05:03Z</time>
      </trkpt>
      <trkpt lat="44.79129" lon="1.57123">
        <ele>130.7</ele>
        <time>2024-12-25T12:05:04Z</time>
      </trkpt>
      <trkpt lat="44.79128" lon="1.57122">
        <ele>130.9</ele>
        <time>2024-12-25T12:05:05Z</time>
      </trkpt>
      <trkpt lat="44.79127" lon="1.57123">
        <ele>131</ele>
        <time>2024-12-25T12:05:06Z</time>
      </trkpt>
      <trkpt lat="44.79126" lon="1.57124">
        <ele>131.2</ele>
        <time>2024-12-25T12:05:07Z</time>
      </trkpt>
      <trkpt lat="44.79125" lon="1.57125">
        <ele>131.3</ele>
        <time>2024-12-25T12:05:08Z</time>
      </trkpt>
      <trkpt lat="44.79124" lon="1.57125">
        <ele>131.4</ele>
        <time>2024-12-25T12:05:09Z</time>
      </trkpt>
      <trkpt lat="44.79123" lon="1.57126">
        <ele>131.5</ele>
        <time>2024-12-25T12:05:10Z</time>
      </trkpt>
      <trkpt lat="44.79122" lon="1.57126">
        <ele>131.7</ele>
        <time>2024-12-25T12:05:11Z</time>
      </trkpt>
      <trkpt lat="44.79121" lon="1.57127">
        <ele>131.8</ele>
        <time>2024-12-25T12:05:12Z</time>
      </trkpt>
      <trkpt lat="44.7912" lon="1.57128">
        <ele>131.9</ele>
        <time>2024-12-25T12:05:13Z</time>
      </trkpt>
      <trkpt lat="44.79119" lon="1.57129">
        <ele>132</ele>
        <time>2024-12-25T12:05:14Z</time>
      </trkpt>
      <trkpt lat="44.79118" lon="1.5713">
        <ele>132.2</ele>
        <time>2024-12-25T12:05:15Z</time>
      </trkpt>
      <trkpt lat="44.79117" lon="1.57131">
        <ele>132.2</ele>
        <time>2024-12-25T12:05:16Z</time>
      </trkpt>
      <trkpt lat="44.79115" lon="1.57129">
        <ele>132.4</ele>
        <time>2024-12-25T12:05:17Z</time>
      </trkpt>
      <trkpt lat="44.79115" lon="1.57129">
        <ele>132.5</ele>
        <time>2024-12-25T12:05:18Z</time>
      </trkpt>
      <trkpt lat="44.79114" lon="1.57129">
        <ele>132.6</ele>
        <time>2024-12-25T12:05:19Z</time>
      </trkpt>
      <trkpt lat="44.79113" lon="1.57129">
        <ele>132.7</ele>
        <time>2024-12-25T12:05:20Z</time>
      </trkpt>
      <trkpt lat="44.79112" lon="1.57129">
        <ele>132.7</ele>
        <time>2024-12-25T12:05:21Z</time>
      </trkpt>
      <trkpt lat="44.79111" lon="1.57129">
        <ele>132.8</ele>
        <time>2024-12-25T12:05:22Z</time>
      </trkpt>
      <trkpt lat="44.7911" lon="1.57129">
        <ele>132.9</ele>
        <time>2024-12-25T12:05:23Z</time>
      </trkpt>
      <trkpt lat="44.79109" lon="1.5713">
        <ele>133</ele>
        <time>2024-12-25T12:05:24Z</time>
      </trkpt>
      <trkpt lat="44.79108" lon="1.5713">
        <ele>133.1</ele>
        <time>2024-12-25T12:05:25Z</time>
      </trkpt>
      <trkpt lat="44.79107" lon="1.57131">
        <ele>133.2</ele>
        <time>2024-12-25T12:05:26Z</time>
      </trkpt>
      <trkpt lat="44.79107" lon="1.57132">
        <ele>133.3</ele>
        <time>2024-12-25T12:05:27Z</time>
      </trkpt>
      <trkpt lat="44.79107" lon="1.57133">
        <ele>133.4</ele>
        <time>2024-12-25T12:05:28Z</time>
      </trkpt>
      <trkpt lat="44.79106" lon="1.57134">
        <ele>133.5</ele>
        <time>2024-12-25T12:05:29Z</time>
      </trkpt>
      <trkpt lat="44.79106" lon="1.57135">
        <ele>133.6</ele>
        <time>2024-12-25T12:05:30Z</time>
      </trkpt>
      <trkpt lat="44.79106" lon="1.57137">
        <ele>133.7</ele>
        <time>2024-12-25T12:05:31Z</time>
      </trkpt>
      <trkpt lat="44.79106" lon="1.57138">
        <ele>133.8</ele>
        <time>2024-12-25T12:05:32Z</time>
      </trkpt>
      <trkpt lat="44.79106" lon="1.5714">
        <ele>134</ele>
        <time>2024-12-25T12:05:33Z</time>
      </trkpt>
      <trkpt lat="44.79105" lon="1.57141">
        <ele>134.1</ele>
        <time>2024-12-25T12:05:34Z</time>
      </trkpt>
      <trkpt lat="44.79106" lon="1.57142">
        <ele>134.2</ele>
        <time>2024-12-25T12:05:35Z</time>
      </trkpt>
      <trkpt lat="44.79106" lon="1.57144">
        <ele>134.3</ele>
        <time>2024-12-25T12:05:36Z</time>
      </trkpt>
      <trkpt lat="44.79106" lon="1.57145">
        <ele>134.4</ele>
        <time>2024-12-25T12:05:37Z</time>
      </trkpt>
      <trkpt lat="44.79106" lon="1.57146">
        <ele>134.5</ele>
        <time>2024-12-25T12:05:38Z</time>
      </trkpt>
      <trkpt lat="44.79105" lon="1.57147">
        <ele>134.6</ele>
        <time>2024-12-25T12:05:39Z</time>
      </trkpt>
      <trkpt lat="44.79105" lon="1.57148">
        <ele>134.8</ele>
        <time>2024-12-25T12:05:40Z</time>
      </trkpt>
      <trkpt lat="44.79105" lon="1.57149">
        <ele>134.9</ele>
        <time>2024-12-25T12:05:41Z</time>
      </trkpt>
      <trkpt lat="44.79105" lon="1.5715">
        <ele>135.1</ele>
        <time>2024-12-25T12:05:42Z</time>
      </trkpt>
      <trkpt lat="44.79104" lon="1.57151">
        <ele>135.2</ele>
        <time>2024-12-25T12:05:43Z</time>
      </trkpt>
      <trkpt lat="44.79104" lon="1.57152">
        <ele>135.4</ele>
        <time>2024-12-25T12:05:44Z</time>
      </trkpt>
      <trkpt lat="44.79103" lon="1.57153">
        <ele>135.6</ele>
        <time>2024-12-25T12:05:45Z</time>
      </trkpt>
      <trkpt lat="44.79102" lon="1.57154">
        <ele>135.7</ele>
        <time>2024-12-25T12:05:46Z</time>
      </trkpt>
      <trkpt lat="44.79101" lon="1.57155">
        <ele>135.9</ele>
        <time>2024-12-25T12:05:47Z</time>
      </trkpt>
      <trkpt lat="44.79101" lon="1.57156">
        <ele>136</ele>
        <time>2024-12-25T12:05:48Z</time>
      </trkpt>
      <trkpt lat="44.79101" lon="1.57157">
        <ele>136.1</ele>
        <time>2024-12-25T12:05:49Z</time>
      </trkpt>
      <trkpt lat="44.79101" lon="1.57157">
        <ele>136.2</ele>
        <time>2024-12-25T12:05:50Z</time>
      </trkpt>
      <trkpt lat="44.79101" lon="1.57158">
        <ele>136.4</ele>
        <time>2024-12-25T12:05:51Z</time>
      </trkpt>
      <trkpt lat="44.79101" lon="1.57159">
        <ele>136.5</ele>
        <time>2024-12-25T12:05:52Z</time>
      </trkpt>
      <trkpt lat="44.79101" lon="1.5716">
        <ele>136.6</ele>
        <time>2024-12-25T12:05:53Z</time>
      </trkpt>
      <trkpt lat="44.791" lon="1.57161">
        <ele>136.8</ele>
        <time>2024-12-25T12:05:54Z</time>
      </trkpt>
      <trkpt lat="44.791" lon="1.57163">
        <ele>137</ele>
        <time>2024-12-25T12:05:55Z</time>
      </trkpt>
      <trkpt lat="44.791" lon="1.57164">
        <ele>137.2</ele>
        <time>2024-12-25T12:05:57Z</time>
      </trkpt>
      <trkpt lat="44.791" lon="1.57165">
        <ele>137.3</ele>
        <time>2024-12-25T12:05:58Z</time>
      </trkpt>
      <trkpt lat="44.791" lon="1.57166">
        <ele>137.5</ele>
        <time>2024-12-25T12:05:59Z</time>
      </trkpt>
      <trkpt lat="44.79101" lon="1.57167">
        <ele>137.7</ele>
        <time>2024-12-25T12:06:00Z</time>
      </trkpt>
      <trkpt lat="44.79101" lon="1.57169">
        <ele>137.9</ele>
        <time>2024-12-25T12:06:01Z</time>
      </trkpt>
      <trkpt lat="44.79101" lon="1.57169">
        <ele>138</ele>
        <time>2024-12-25T12:06:02Z</time>
      </trkpt>
      <trkpt lat="44.79101" lon="1.57171">
        <ele>138.2</ele>
        <time>2024-12-25T12:06:03Z</time>
      </trkpt>
      <trkpt lat="44.791" lon="1.57172">
        <ele>138.4</ele>
        <time>2024-12-25T12:06:04Z</time>
      </trkpt>
      <trkpt lat="44.791" lon="1.57173">
        <ele>138.6</ele>
        <time>2024-12-25T12:06:05Z</time>
      </trkpt>
      <trkpt lat="44.791" lon="1.57174">
        <ele>138.7</ele>
        <time>2024-12-25T12:06:06Z</time>
      </trkpt>
      <trkpt lat="44.79101" lon="1.57175">
        <ele>138.9</ele>
        <time>2024-12-25T12:06:07Z</time>
      </trkpt>
      <trkpt lat="44.79101" lon="1.57177">
        <ele>139.1</ele>
        <time>2024-12-25T12:06:08Z</time>
      </trkpt>
      <trkpt lat="44.79102" lon="1.57178">
        <ele>139.3</ele>
        <time>2024-12-25T12:06:09Z</time>
      </trkpt>
      <trkpt lat="44.79102" lon="1.57179">
        <ele>139.5</ele>
        <time>2024-12-25T12:06:10Z</time>
      </trkpt>
      <trkpt lat="44.79101" lon="1.5718">
        <ele>139.7</ele>
        <time>2024-12-25T12:06:11Z</time>
      </trkpt>
      <trkpt lat="44.791" lon="1.5718">
        <ele>139.9</ele>
        <time>2024-12-25T12:06:12Z</time>
      </trkpt>
      <trkpt lat="44.79099" lon="1.5718">
        <ele>140.1</ele>
        <time>2024-12-25T12:06:13Z</time>
      </trkpt>
      <trkpt lat="44.79097" lon="1.5718">
        <ele>140.6</ele>
        <time>2024-12-25T12:06:14Z</time>
      </trkpt>
      <trkpt lat="44.79096" lon="1.5718">
        <ele>140.7</ele>
        <time>2024-12-25T12:06:15Z</time>
      </trkpt>
      <trkpt lat="44.79095" lon="1.5718">
        <ele>140.8</ele>
        <time>2024-12-25T12:06:16Z</time>
      </trkpt>
      <trkpt lat="44.79095" lon="1.5718">
        <ele>141</ele>
        <time>2024-12-25T12:06:17Z</time>
      </trkpt>
      <trkpt lat="44.79094" lon="1.57181">
        <ele>141.1</ele>
        <time>2024-12-25T12:06:18Z</time>
      </trkpt>
      <trkpt lat="44.79094" lon="1.57182">
        <ele>141.3</ele>
        <time>2024-12-25T12:06:19Z</time>
      </trkpt>
      <trkpt lat="44.79093" lon="1.57183">
        <ele>141.4</ele>
        <time>2024-12-25T12:06:20Z</time>
      </trkpt>
      <trkpt lat="44.79093" lon="1.57183">
        <ele>141.4</ele>
        <time>2024-12-25T12:06:21Z</time>
      </trkpt>
      <trkpt lat="44.79093" lon="1.57183">
        <ele>141.5</ele>
        <time>2024-12-25T12:06:22Z</time>
      </trkpt>
      <trkpt lat="44.79092" lon="1.57184">
        <ele>141.6</ele>
        <time>2024-12-25T12:06:23Z</time>
      </trkpt>
      <trkpt lat="44.79092" lon="1.57184">
        <ele>141.7</ele>
        <time>2024-12-25T12:06:24Z</time>
      </trkpt>
      <trkpt lat="44.79092" lon="1.57185">
        <ele>141.8</ele>
        <time>2024-12-25T12:06:25Z</time>
      </trkpt>
      <trkpt lat="44.79092" lon="1.57185">
        <ele>141.8</ele>
        <time>2024-12-25T12:06:26Z</time>
      </trkpt>
      <trkpt lat="44.79092" lon="1.57185">
        <ele>141.8</ele>
        <time>2024-12-25T12:06:27Z</time>
      </trkpt>
      <trkpt lat="44.79091" lon="1.57185">
        <ele>141.8</ele>
        <time>2024-12-25T12:06:28Z</time>
      </trkpt>
      <trkpt lat="44.79091" lon="1.57186">
        <ele>141.9</ele>
        <time>2024-12-25T12:06:29Z</time>
      </trkpt>
      <trkpt lat="44.79091" lon="1.57186">
        <ele>141.9</ele>
        <time>2024-12-25T12:06:30Z</time>
      </trkpt>
      <trkpt lat="44.79091" lon="1.57186">
        <ele>142</ele>
        <time>2024-12-25T12:06:31Z</time>
      </trkpt>
      <trkpt lat="44.79091" lon="1.57187">
        <ele>142</ele>
        <time>2024-12-25T12:06:32Z</time>
      </trkpt>
      <trkpt lat="44.79091" lon="1.57187">
        <ele>142.1</ele>
        <time>2024-12-25T12:06:33Z</time>
      </trkpt>
      <trkpt lat="44.7909" lon="1.57187">
        <ele>142.2</ele>
        <time>2024-12-25T12:06:34Z</time>
      </trkpt>
      <trkpt lat="44.7909" lon="1.57188">
        <ele>142.2</ele>
        <time>2024-12-25T12:06:35Z</time>
      </trkpt>
      <trkpt lat="44.79089" lon="1.57189">
        <ele>142.3</ele>
        <time>2024-12-25T12:06:36Z</time>
      </trkpt>
      <trkpt lat="44.79089" lon="1.57189">
        <ele>142.5</ele>
        <time>2024-12-25T12:06:37Z</time>
      </trkpt>
      <trkpt lat="44.79088" lon="1.5719">
        <ele>142.6</ele>
        <time>2024-12-25T12:06:38Z</time>
      </trkpt>
      <trkpt lat="44.79088" lon="1.57191">
        <ele>142.7</ele>
        <time>2024-12-25T12:06:39Z</time>
      </trkpt>
      <trkpt lat="44.79088" lon="1.57191">
        <ele>142.8</ele>
        <time>2024-12-25T12:06:40Z</time>
      </trkpt>
      <trkpt lat="44.79087" lon="1.57192">
        <ele>142.8</ele>
        <time>2024-12-25T12:06:41Z</time>
      </trkpt>
      <trkpt lat="44.79086" lon="1.57194">
        <ele>143.1</ele>
        <time>2024-12-25T12:06:42Z</time>
      </trkpt>
      <trkpt lat="44.79086" lon="1.57194">
        <ele>143.2</ele>
        <time>2024-12-25T12:06:43Z</time>
      </trkpt>
      <trkpt lat="44.79085" lon="1.57195">
        <ele>143.3</ele>
        <time>2024-12-25T12:06:44Z</time>
      </trkpt>
      <trkpt lat="44.79085" lon="1.57196">
        <ele>143.4</ele>
        <time>2024-12-25T12:06:45Z</time>
      </trkpt>
      <trkpt lat="44.79084" lon="1.57197">
        <ele>143.6</ele>
        <time>2024-12-25T12:06:46Z</time>
      </trkpt>
      <trkpt lat="44.79083" lon="1.57199">
        <ele>143.8</ele>
        <time>2024-12-25T12:06:47Z</time>
      </trkpt>
      <trkpt lat="44.79081" lon="1.57203">
        <ele>144.2</ele>
        <time>2024-12-25T12:06:48Z</time>
      </trkpt>
      <trkpt lat="44.7908" lon="1.57204">
        <ele>144.4</ele>
        <time>2024-12-25T12:06:49Z</time>
      </trkpt>
      <trkpt lat="44.7908" lon="1.57205">
        <ele>144.6</ele>
        <time>2024-12-25T12:06:50Z</time>
      </trkpt>
      <trkpt lat="44.79079" lon="1.57207">
        <ele>144.7</ele>
        <time>2024-12-25T12:06:51Z</time>
      </trkpt>
      <trkpt lat="44.79077" lon="1.57209">
        <ele>145</ele>
        <time>2024-12-25T12:06:52Z</time>
      </trkpt>
      <trkpt lat="44.79076" lon="1.5721">
        <ele>145.1</ele>
        <time>2024-12-25T12:06:53Z</time>
      </trkpt>
      <trkpt lat="44.79076" lon="1.5721">
        <ele>145.2</ele>
        <time>2024-12-25T12:06:54Z</time>
      </trkpt>
      <trkpt lat="44.79075" lon="1.57211">
        <ele>145.3</ele>
        <time>2024-12-25T12:06:55Z</time>
      </trkpt>
      <trkpt lat="44.79075" lon="1.57212">
        <ele>145.4</ele>
        <time>2024-12-25T12:06:56Z</time>
      </trkpt>
      <trkpt lat="44.79074" lon="1.57212">
        <ele>145.5</ele>
        <time>2024-12-25T12:06:57Z</time>
      </trkpt>
      <trkpt lat="44.79074" lon="1.57213">
        <ele>145.6</ele>
        <time>2024-12-25T12:06:58Z</time>
      </trkpt>
      <trkpt lat="44.79073" lon="1.57214">
        <ele>145.6</ele>
        <time>2024-12-25T12:06:59Z</time>
      </trkpt>
      <trkpt lat="44.79073" lon="1.57214">
        <ele>145.7</ele>
        <time>2024-12-25T12:07:00Z</time>
      </trkpt>
      <trkpt lat="44.79072" lon="1.57215">
        <ele>145.8</ele>
        <time>2024-12-25T12:07:01Z</time>
      </trkpt>
      <trkpt lat="44.79072" lon="1.57216">
        <ele>145.9</ele>
        <time>2024-12-25T12:07:02Z</time>
      </trkpt>
      <trkpt lat="44.79071" lon="1.57217">
        <ele>146</ele>
        <time>2024-12-25T12:07:03Z</time>
      </trkpt>
      <trkpt lat="44.79071" lon="1.57217">
        <ele>146</ele>
        <time>2024-12-25T12:07:04Z</time>
      </trkpt>
      <trkpt lat="44.79071" lon="1.57217">
        <ele>146.1</ele>
        <time>2024-12-25T12:07:05Z</time>
      </trkpt>
      <trkpt lat="44.79071" lon="1.57217">
        <ele>146.1</ele>
        <time>2024-12-25T12:07:06Z</time>
      </trkpt>
      <trkpt lat="44.79071" lon="1.57217">
        <ele>146.1</ele>
        <time>2024-12-25T12:07:07Z</time>
      </trkpt>
      <trkpt lat="44.79071" lon="1.57217">
        <ele>146.1</ele>
        <time>2024-12-25T12:07:08Z</time>
      </trkpt>
      <trkpt lat="44.79071" lon="1.57217">
        <ele>146.2</ele>
        <time>2024-12-25T12:07:09Z</time>
      </trkpt>
      <trkpt lat="44.7907" lon="1.57217">
        <ele>146.2</ele>
        <time>2024-12-25T12:07:10Z</time>
      </trkpt>
      <trkpt lat="44.7907" lon="1.57217">
        <ele>146.3</ele>
        <time>2024-12-25T12:07:11Z</time>
      </trkpt>
      <trkpt lat="44.79069" lon="1.57217">
        <ele>146.3</ele>
        <time>2024-12-25T12:07:12Z</time>
      </trkpt>
      <trkpt lat="44.79069" lon="1.57218">
        <ele>146.4</ele>
        <time>2024-12-25T12:07:13Z</time>
      </trkpt>
      <trkpt lat="44.79068" lon="1.57218">
        <ele>146.4</ele>
        <time>2024-12-25T12:07:14Z</time>
      </trkpt>
      <trkpt lat="44.79068" lon="1.57218">
        <ele>146.5</ele>
        <time>2024-12-25T12:07:15Z</time>
      </trkpt>
      <trkpt lat="44.79068" lon="1.57218">
        <ele>146.6</ele>
        <time>2024-12-25T12:07:16Z</time>
      </trkpt>
      <trkpt lat="44.79067" lon="1.57218">
        <ele>146.6</ele>
        <time>2024-12-25T12:07:17Z</time>
      </trkpt>
      <trkpt lat="44.79067" lon="1.57218">
        <ele>146.7</ele>
        <time>2024-12-25T12:07:18Z</time>
      </trkpt>
      <trkpt lat="44.79066" lon="1.57218">
        <ele>146.8</ele>
        <time>2024-12-25T12:07:19Z</time>
      </trkpt>
      <trkpt lat="44.79066" lon="1.57219">
        <ele>146.8</ele>
        <time>2024-12-25T12:07:20Z</time>
      </trkpt>
      <trkpt lat="44.79065" lon="1.57219">
        <ele>146.9</ele>
        <time>2024-12-25T12:07:21Z</time>
      </trkpt>
      <trkpt lat="44.79065" lon="1.57219">
        <ele>146.9</ele>
        <time>2024-12-25T12:07:22Z</time>
      </trkpt>
      <trkpt lat="44.79065" lon="1.57219">
        <ele>147</ele>
        <time>2024-12-25T12:07:23Z</time>
      </trkpt>
      <trkpt lat="44.79064" lon="1.5722">
        <ele>147</ele>
        <time>2024-12-25T12:07:24Z</time>
      </trkpt>
      <trkpt lat="44.79064" lon="1.5722">
        <ele>147.1</ele>
        <time>2024-12-25T12:07:25Z</time>
      </trkpt>
      <trkpt lat="44.79063" lon="1.5722">
        <ele>147.2</ele>
        <time>2024-12-25T12:07:26Z</time>
      </trkpt>
      <trkpt lat="44.79061" lon="1.5722">
        <ele>147.5</ele>
        <time>2024-12-25T12:07:27Z</time>
      </trkpt>
      <trkpt lat="44.7906" lon="1.5722">
        <ele>147.7</ele>
        <time>2024-12-25T12:07:28Z</time>
      </trkpt>
      <trkpt lat="44.79058" lon="1.57221">
        <ele>147.9</ele>
        <time>2024-12-25T12:07:29Z</time>
      </trkpt>
      <trkpt lat="44.79058" lon="1.57221">
        <ele>148</ele>
        <time>2024-12-25T12:07:30Z</time>
      </trkpt>
      <trkpt lat="44.79056" lon="1.57221">
        <ele>148.2</ele>
        <time>2024-12-25T12:07:31Z</time>
      </trkpt>
      <trkpt lat="44.79055" lon="1.57222">
        <ele>148.4</ele>
        <time>2024-12-25T12:07:32Z</time>
      </trkpt>
      <trkpt lat="44.79054" lon="1.57222">
        <ele>148.5</ele>
        <time>2024-12-25T12:07:33Z</time>
      </trkpt>
      <trkpt lat="44.79054" lon="1.57223">
        <ele>148.6</ele>
        <time>2024-12-25T12:07:34Z</time>
      </trkpt>
      <trkpt lat="44.79053" lon="1.57223">
        <ele>148.7</ele>
        <time>2024-12-25T12:07:35Z</time>
      </trkpt>
      <trkpt lat="44.79053" lon="1.57223">
        <ele>148.8</ele>
        <time>2024-12-25T12:07:36Z</time>
      </trkpt>
      <trkpt lat="44.79053" lon="1.57223">
        <ele>148.8</ele>
        <time>2024-12-25T12:07:37Z</time>
      </trkpt>
      <trkpt lat="44.79052" lon="1.57224">
        <ele>148.9</ele>
        <time>2024-12-25T12:07:38Z</time>
      </trkpt>
      <trkpt lat="44.79052" lon="1.57224">
        <ele>148.9</ele>
        <time>2024-12-25T12:07:39Z</time>
      </trkpt>
      <trkpt lat="44.79052" lon="1.57224">
        <ele>148.9</ele>
        <time>2024-12-25T12:07:40Z</time>
      </trkpt>
      <trkpt lat="44.79051" lon="1.57225">
        <ele>149</ele>
        <time>2024-12-25T12:07:41Z</time>
      </trkpt>
      <trkpt lat="44.79051" lon="1.57225">
        <ele>149.1</ele>
        <time>2024-12-25T12:07:42Z</time>
      </trkpt>
      <trkpt lat="44.79051" lon="1.57226">
        <ele>149.2</ele>
        <time>2024-12-25T12:07:43Z</time>
      </trkpt>
      <trkpt lat="44.7905" lon="1.57226">
        <ele>149.3</ele>
        <time>2024-12-25T12:07:44Z</time>
      </trkpt>
      <trkpt lat="44.7905" lon="1.57227">
        <ele>149.4</ele>
        <time>2024-12-25T12:07:45Z</time>
      </trkpt>
      <trkpt lat="44.79049" lon="1.57228">
        <ele>149.5</ele>
        <time>2024-12-25T12:07:46Z</time>
      </trkpt>
      <trkpt lat="44.79049" lon="1.57229">
        <ele>149.6</ele>
        <time>2024-12-25T12:07:47Z</time>
      </trkpt>
      <trkpt lat="44.79049" lon="1.5723">
        <ele>149.7</ele>
        <time>2024-12-25T12:07:48Z</time>
      </trkpt>
      <trkpt lat="44.79048" lon="1.57231">
        <ele>149.8</ele>
        <time>2024-12-25T12:07:49Z</time>
      </trkpt>
      <trkpt lat="44.79048" lon="1.57231">
        <ele>149.9</ele>
        <time>2024-12-25T12:07:50Z</time>
      </trkpt>
      <trkpt lat="44.79047" lon="1.57232">
        <ele>150</ele>
        <time>2024-12-25T12:07:51Z</time>
      </trkpt>
      <trkpt lat="44.79047" lon="1.57233">
        <ele>150.1</ele>
        <time>2024-12-25T12:07:52Z</time>
      </trkpt>
      <trkpt lat="44.79046" lon="1.57233">
        <ele>150.2</ele>
        <time>2024-12-25T12:07:53Z</time>
      </trkpt>
      <trkpt lat="44.79045" lon="1.57234">
        <ele>150.4</ele>
        <time>2024-12-25T12:07:54Z</time>
      </trkpt>
      <trkpt lat="44.79044" lon="1.57235">
        <ele>150.5</ele>
        <time>2024-12-25T12:07:55Z</time>
      </trkpt>
      <trkpt lat="44.79043" lon="1.57235">
        <ele>150.7</ele>
        <time>2024-12-25T12:07:56Z</time>
      </trkpt>
      <trkpt lat="44.79042" lon="1.57236">
        <ele>150.9</ele>
        <time>2024-12-25T12:07:57Z</time>
      </trkpt>
      <trkpt lat="44.79041" lon="1.57237">
        <ele>151.3</ele>
        <time>2024-12-25T12:07:58Z</time>
      </trkpt>
      <trkpt lat="44.7904" lon="1.57237">
        <ele>151.8</ele>
        <time>2024-12-25T12:07:59Z</time>
      </trkpt>
      <trkpt lat="44.79038" lon="1.57238">
        <ele>152.2</ele>
        <time>2024-12-25T12:08:00Z</time>
      </trkpt>
      <trkpt lat="44.79037" lon="1.57238">
        <ele>152.6</ele>
        <time>2024-12-25T12:08:01Z</time>
      </trkpt>
      <trkpt lat="44.79035" lon="1.57238">
        <ele>153</ele>
        <time>2024-12-25T12:08:02Z</time>
      </trkpt>
      <trkpt lat="44.79034" lon="1.57239">
        <ele>153.5</ele>
        <time>2024-12-25T12:08:03Z</time>
      </trkpt>
      <trkpt lat="44.79032" lon="1.5724">
        <ele>153.9</ele>
        <time>2024-12-25T12:08:04Z</time>
      </trkpt>
      <trkpt lat="44.79031" lon="1.5724">
        <ele>154.2</ele>
        <time>2024-12-25T12:08:05Z</time>
      </trkpt>
      <trkpt lat="44.79031" lon="1.57241">
        <ele>154.4</ele>
        <time>2024-12-25T12:08:06Z</time>
      </trkpt>
      <trkpt lat="44.7903" lon="1.57242">
        <ele>154.6</ele>
        <time>2024-12-25T12:08:07Z</time>
      </trkpt>
      <trkpt lat="44.7903" lon="1.57242">
        <ele>154.8</ele>
        <time>2024-12-25T12:08:08Z</time>
      </trkpt>
      <trkpt lat="44.79029" lon="1.57242">
        <ele>154.9</ele>
        <time>2024-12-25T12:08:09Z</time>
      </trkpt>
      <trkpt lat="44.79028" lon="1.57242">
        <ele>155.2</ele>
        <time>2024-12-25T12:08:10Z</time>
      </trkpt>
      <trkpt lat="44.79028" lon="1.57243">
        <ele>155.4</ele>
        <time>2024-12-25T12:08:11Z</time>
      </trkpt>
      <trkpt lat="44.79027" lon="1.57243">
        <ele>155.6</ele>
        <time>2024-12-25T12:08:12Z</time>
      </trkpt>
      <trkpt lat="44.79026" lon="1.57243">
        <ele>155.8</ele>
        <time>2024-12-25T12:08:13Z</time>
      </trkpt>
      <trkpt lat="44.79025" lon="1.57243">
        <ele>156</ele>
        <time>2024-12-25T12:08:14Z</time>
      </trkpt>
      <trkpt lat="44.79025" lon="1.57243">
        <ele>156.1</ele>
        <time>2024-12-25T12:08:15Z</time>
      </trkpt>
      <trkpt lat="44.79025" lon="1.57243">
        <ele>156.2</ele>
        <time>2024-12-25T12:08:16Z</time>
      </trkpt>
      <trkpt lat="44.79025" lon="1.57243">
        <ele>156.3</ele>
        <time>2024-12-25T12:08:17Z</time>
      </trkpt>
      <trkpt lat="44.79024" lon="1.57244">
        <ele>156.4</ele>
        <time>2024-12-25T12:08:18Z</time>
      </trkpt>
      <trkpt lat="44.79024" lon="1.57244">
        <ele>156.5</ele>
        <time>2024-12-25T12:08:19Z</time>
      </trkpt>
      <trkpt lat="44.79024" lon="1.57244">
        <ele>156.6</ele>
        <time>2024-12-25T12:08:20Z</time>
      </trkpt>
      <trkpt lat="44.79023" lon="1.57244">
        <ele>156.7</ele>
        <time>2024-12-25T12:08:21Z</time>
      </trkpt>
      <trkpt lat="44.79023" lon="1.57244">
        <ele>156.9</ele>
        <time>2024-12-25T12:08:22Z</time>
      </trkpt>
      <trkpt lat="44.79022" lon="1.57245">
        <ele>157</ele>
        <time>2024-12-25T12:08:23Z</time>
      </trkpt>
      <trkpt lat="44.79022" lon="1.57245">
        <ele>157.2</ele>
        <time>2024-12-25T12:08:24Z</time>
      </trkpt>
      <trkpt lat="44.79022" lon="1.57245">
        <ele>157.2</ele>
        <time>2024-12-25T12:08:25Z</time>
      </trkpt>
      <trkpt lat="44.79021" lon="1.57245">
        <ele>157.3</ele>
        <time>2024-12-25T12:08:26Z</time>
      </trkpt>
      <trkpt lat="44.79021" lon="1.57246">
        <ele>157.4</ele>
        <time>2024-12-25T12:08:27Z</time>
      </trkpt>
      <trkpt lat="44.79021" lon="1.57246">
        <ele>157.5</ele>
        <time>2024-12-25T12:08:28Z</time>
      </trkpt>
      <trkpt lat="44.79019" lon="1.57246">
        <ele>157.9</ele>
        <time>2024-12-25T12:08:29Z</time>
      </trkpt>
      <trkpt lat="44.79018" lon="1.57247">
        <ele>158.3</ele>
        <time>2024-12-25T12:08:30Z</time>
      </trkpt>
      <trkpt lat="44.79017" lon="1.57247">
        <ele>158.8</ele>
        <time>2024-12-25T12:08:31Z</time>
      </trkpt>
      <trkpt lat="44.79015" lon="1.57248">
        <ele>159.2</ele>
        <time>2024-12-25T12:08:32Z</time>
      </trkpt>
      <trkpt lat="44.79014" lon="1.57249">
        <ele>159.6</ele>
        <time>2024-12-25T12:08:33Z</time>
      </trkpt>
      <trkpt lat="44.79013" lon="1.5725">
        <ele>159.9</ele>
        <time>2024-12-25T12:08:34Z</time>
      </trkpt>
      <trkpt lat="44.79013" lon="1.5725">
        <ele>160</ele>
        <time>2024-12-25T12:08:35Z</time>
      </trkpt>
      <trkpt lat="44.79013" lon="1.57251">
        <ele>160.1</ele>
        <time>2024-12-25T12:08:36Z</time>
      </trkpt>
      <trkpt lat="44.79013" lon="1.57252">
        <ele>160.3</ele>
        <time>2024-12-25T12:08:38Z</time>
      </trkpt>
      <trkpt lat="44.79012" lon="1.57253">
        <ele>160.6</ele>
        <time>2024-12-25T12:08:39Z</time>
      </trkpt>
      <trkpt lat="44.79011" lon="1.57253">
        <ele>160.8</ele>
        <time>2024-12-25T12:08:40Z</time>
      </trkpt>
      <trkpt lat="44.7901" lon="1.57254">
        <ele>161.1</ele>
        <time>2024-12-25T12:08:41Z</time>
      </trkpt>
      <trkpt lat="44.7901" lon="1.57254">
        <ele>161.3</ele>
        <time>2024-12-25T12:08:42Z</time>
      </trkpt>
      <trkpt lat="44.79009" lon="1.57255">
        <ele>161.5</ele>
        <time>2024-12-25T12:08:43Z</time>
      </trkpt>
      <trkpt lat="44.79008" lon="1.57256">
        <ele>161.8</ele>
        <time>2024-12-25T12:08:44Z</time>
      </trkpt>
      <trkpt lat="44.79008" lon="1.57257">
        <ele>162</ele>
        <time>2024-12-25T12:08:45Z</time>
      </trkpt>
      <trkpt lat="44.79007" lon="1.57257">
        <ele>162.2</ele>
        <time>2024-12-25T12:08:46Z</time>
      </trkpt>
      <trkpt lat="44.79006" lon="1.57257">
        <ele>162.4</ele>
        <time>2024-12-25T12:08:47Z</time>
      </trkpt>
      <trkpt lat="44.79006" lon="1.57256">
        <ele>162.6</ele>
        <time>2024-12-25T12:08:48Z</time>
      </trkpt>
      <trkpt lat="44.79005" lon="1.57256">
        <ele>162.7</ele>
        <time>2024-12-25T12:08:49Z</time>
      </trkpt>
      <trkpt lat="44.79005" lon="1.57255">
        <ele>162.9</ele>
        <time>2024-12-25T12:08:50Z</time>
      </trkpt>
      <trkpt lat="44.79005" lon="1.57255">
        <ele>163</ele>
        <time>2024-12-25T12:08:51Z</time>
      </trkpt>
      <trkpt lat="44.79005" lon="1.57255">
        <ele>163</ele>
        <time>2024-12-25T12:08:52Z</time>
      </trkpt>
      <trkpt lat="44.79005" lon="1.57255">
        <ele>163.1</ele>
        <time>2024-12-25T12:08:53Z</time>
      </trkpt>
      <trkpt lat="44.79005" lon="1.57255">
        <ele>163.1</ele>
        <time>2024-12-25T12:08:54Z</time>
      </trkpt>
      <trkpt lat="44.79005" lon="1.57256">
        <ele>163.2</ele>
        <time>2024-12-25T12:08:55Z</time>
      </trkpt>
      <trkpt lat="44.79005" lon="1.57256">
        <ele>163.2</ele>
        <time>2024-12-25T12:08:56Z</time>
      </trkpt>
      <trkpt lat="44.79005" lon="1.57256">
        <ele>163.2</ele>
        <time>2024-12-25T12:08:57Z</time>
      </trkpt>
      <trkpt lat="44.79004" lon="1.57256">
        <ele>163.3</ele>
        <time>2024-12-25T12:08:58Z</time>
      </trkpt>
      <trkpt lat="44.79004" lon="1.57256">
        <ele>163.3</ele>
        <time>2024-12-25T12:08:59Z</time>
      </trkpt>
      <trkpt lat="44.79004" lon="1.57256">
        <ele>163.4</ele>
        <time>2024-12-25T12:09:00Z</time>
      </trkpt>
      <trkpt lat="44.79004" lon="1.57257">
        <ele>163.4</ele>
        <time>2024-12-25T12:09:01Z</time>
      </trkpt>
      <trkpt lat="44.79004" lon="1.57257">
        <ele>163.5</ele>
        <time>2024-12-25T12:09:02Z</time>
      </trkpt>
      <trkpt lat="44.79004" lon="1.57257">
        <ele>163.5</ele>
        <time>2024-12-25T12:09:03Z</time>
      </trkpt>
      <trkpt lat="44.79004" lon="1.57257">
        <ele>163.6</ele>
        <time>2024-12-25T12:09:04Z</time>
      </trkpt>
      <trkpt lat="44.79003" lon="1.57257">
        <ele>163.6</ele>
        <time>2024-12-25T12:09:05Z</time>
      </trkpt>
      <trkpt lat="44.79003" lon="1.57258">
        <ele>163.7</ele>
        <time>2024-12-25T12:09:06Z</time>
      </trkpt>
      <trkpt lat="44.79003" lon="1.57258">
        <ele>163.7</ele>
        <time>2024-12-25T12:09:08Z</time>
      </trkpt>
      <trkpt lat="44.79003" lon="1.57258">
        <ele>163.8</ele>
        <time>2024-12-25T12:09:09Z</time>
      </trkpt>
      <trkpt lat="44.79003" lon="1.57258">
        <ele>163.8</ele>
        <time>2024-12-25T12:09:10Z</time>
      </trkpt>
      <trkpt lat="44.79003" lon="1.57258">
        <ele>163.8</ele>
        <time>2024-12-25T12:09:11Z</time>
      </trkpt>
      <trkpt lat="44.79003" lon="1.57258">
        <ele>163.9</ele>
        <time>2024-12-25T12:09:12Z</time>
      </trkpt>
      <trkpt lat="44.79003" lon="1.57259">
        <ele>164</ele>
        <time>2024-12-25T12:09:13Z</time>
      </trkpt>
      <trkpt lat="44.79002" lon="1.57259">
        <ele>164</ele>
        <time>2024-12-25T12:09:14Z</time>
      </trkpt>
      <trkpt lat="44.79002" lon="1.57259">
        <ele>164.1</ele>
        <time>2024-12-25T12:09:15Z</time>
      </trkpt>
      <trkpt lat="44.79002" lon="1.57259">
        <ele>164.1</ele>
        <time>2024-12-25T12:09:16Z</time>
      </trkpt>
      <trkpt lat="44.79001" lon="1.57259">
        <ele>164.5</ele>
        <time>2024-12-25T12:09:17Z</time>
      </trkpt>
      <trkpt lat="44.78999" lon="1.57259">
        <ele>164.9</ele>
        <time>2024-12-25T12:09:18Z</time>
      </trkpt>
      <trkpt lat="44.78998" lon="1.57258">
        <ele>165.1</ele>
        <time>2024-12-25T12:09:19Z</time>
      </trkpt>
      <trkpt lat="44.78997" lon="1.57258">
        <ele>165.4</ele>
        <time>2024-12-25T12:09:20Z</time>
      </trkpt>
      <trkpt lat="44.78997" lon="1.57257">
        <ele>165.6</ele>
        <time>2024-12-25T12:09:21Z</time>
      </trkpt>
      <trkpt lat="44.78996" lon="1.57257">
        <ele>165.8</ele>
        <time>2024-12-25T12:09:22Z</time>
      </trkpt>
      <trkpt lat="44.78995" lon="1.57257">
        <ele>166</ele>
        <time>2024-12-25T12:09:23Z</time>
      </trkpt>
      <trkpt lat="44.78994" lon="1.57257">
        <ele>166.2</ele>
        <time>2024-12-25T12:09:24Z</time>
      </trkpt>
      <trkpt lat="44.78994" lon="1.57257">
        <ele>166.4</ele>
        <time>2024-12-25T12:09:25Z</time>
      </trkpt>
      <trkpt lat="44.78993" lon="1.57257">
        <ele>166.6</ele>
        <time>2024-12-25T12:09:26Z</time>
      </trkpt>
      <trkpt lat="44.78992" lon="1.57258">
        <ele>166.8</ele>
        <time>2024-12-25T12:09:27Z</time>
      </trkpt>
      <trkpt lat="44.78992" lon="1.57258">
        <ele>167</ele>
        <time>2024-12-25T12:09:28Z</time>
      </trkpt>
      <trkpt lat="44.78991" lon="1.57258">
        <ele>167.2</ele>
        <time>2024-12-25T12:09:29Z</time>
      </trkpt>
      <trkpt lat="44.78991" lon="1.57257">
        <ele>167.3</ele>
        <time>2024-12-25T12:09:30Z</time>
      </trkpt>
      <trkpt lat="44.7899" lon="1.57257">
        <ele>167.4</ele>
        <time>2024-12-25T12:09:31Z</time>
      </trkpt>
      <trkpt lat="44.78989" lon="1.57257">
        <ele>167.6</ele>
        <time>2024-12-25T12:09:32Z</time>
      </trkpt>
      <trkpt lat="44.78989" lon="1.57257">
        <ele>167.8</ele>
        <time>2024-12-25T12:09:33Z</time>
      </trkpt>
      <trkpt lat="44.78988" lon="1.57258">
        <ele>168</ele>
        <time>2024-12-25T12:09:34Z</time>
      </trkpt>
      <trkpt lat="44.78987" lon="1.57258">
        <ele>168.2</ele>
        <time>2024-12-25T12:09:35Z</time>
      </trkpt>
      <trkpt lat="44.78986" lon="1.57259">
        <ele>168.4</ele>
        <time>2024-12-25T12:09:36Z</time>
      </trkpt>
      <trkpt lat="44.78985" lon="1.57259">
        <ele>168.6</ele>
        <time>2024-12-25T12:09:37Z</time>
      </trkpt>
      <trkpt lat="44.78985" lon="1.57259">
        <ele>168.8</ele>
        <time>2024-12-25T12:09:38Z</time>
      </trkpt>
      <trkpt lat="44.78984" lon="1.5726">
        <ele>169</ele>
        <time>2024-12-25T12:09:39Z</time>
      </trkpt>
      <trkpt lat="44.78983" lon="1.5726">
        <ele>169.2</ele>
        <time>2024-12-25T12:09:40Z</time>
      </trkpt>
      <trkpt lat="44.78982" lon="1.5726">
        <ele>169.4</ele>
        <time>2024-12-25T12:09:41Z</time>
      </trkpt>
      <trkpt lat="44.78981" lon="1.5726">
        <ele>169.6</ele>
        <time>2024-12-25T12:09:42Z</time>
      </trkpt>
      <trkpt lat="44.78981" lon="1.5726">
        <ele>169.7</ele>
        <time>2024-12-25T12:09:43Z</time>
      </trkpt>
      <trkpt lat="44.7898" lon="1.57261">
        <ele>169.9</ele>
        <time>2024-12-25T12:09:44Z</time>
      </trkpt>
      <trkpt lat="44.78979" lon="1.57261">
        <ele>170.1</ele>
        <time>2024-12-25T12:09:45Z</time>
      </trkpt>
      <trkpt lat="44.78978" lon="1.57261">
        <ele>170.3</ele>
        <time>2024-12-25T12:09:46Z</time>
      </trkpt>
      <trkpt lat="44.78977" lon="1.57262">
        <ele>170.6</ele>
        <time>2024-12-25T12:09:47Z</time>
      </trkpt>
      <trkpt lat="44.78976" lon="1.57262">
        <ele>170.8</ele>
        <time>2024-12-25T12:09:48Z</time>
      </trkpt>
      <trkpt lat="44.78976" lon="1.57263">
        <ele>171</ele>
        <time>2024-12-25T12:09:49Z</time>
      </trkpt>
      <trkpt lat="44.78975" lon="1.57264">
        <ele>171.2</ele>
        <time>2024-12-25T12:09:50Z</time>
      </trkpt>
      <trkpt lat="44.78974" lon="1.57264">
        <ele>171.5</ele>
        <time>2024-12-25T12:09:51Z</time>
      </trkpt>
      <trkpt lat="44.78973" lon="1.57265">
        <ele>171.6</ele>
        <time>2024-12-25T12:09:52Z</time>
      </trkpt>
      <trkpt lat="44.78972" lon="1.57265">
        <ele>171.8</ele>
        <time>2024-12-25T12:09:53Z</time>
      </trkpt>
      <trkpt lat="44.78972" lon="1.57265">
        <ele>172</ele>
        <time>2024-12-25T12:09:54Z</time>
      </trkpt>
      <trkpt lat="44.78971" lon="1.57265">
        <ele>172.2</ele>
        <time>2024-12-25T12:09:55Z</time>
      </trkpt>
      <trkpt lat="44.7897" lon="1.57265">
        <ele>172.4</ele>
        <time>2024-12-25T12:09:56Z</time>
      </trkpt>
      <trkpt lat="44.7897" lon="1.57265">
        <ele>172.5</ele>
        <time>2024-12-25T12:09:57Z</time>
      </trkpt>
      <trkpt lat="44.78969" lon="1.57265">
        <ele>172.6</ele>
        <time>2024-12-25T12:09:58Z</time>
      </trkpt>
      <trkpt lat="44.78968" lon="1.57265">
        <ele>172.8</ele>
        <time>2024-12-25T12:09:59Z</time>
      </trkpt>
      <trkpt lat="44.78968" lon="1.57264">
        <ele>173</ele>
        <time>2024-12-25T12:10:00Z</time>
      </trkpt>
      <trkpt lat="44.78967" lon="1.57264">
        <ele>173.2</ele>
        <time>2024-12-25T12:10:01Z</time>
      </trkpt>
      <trkpt lat="44.78966" lon="1.57264">
        <ele>173.3</ele>
        <time>2024-12-25T12:10:02Z</time>
      </trkpt>
      <trkpt lat="44.78965" lon="1.57264">
        <ele>173.5</ele>
        <time>2024-12-25T12:10:03Z</time>
      </trkpt>
      <trkpt lat="44.78965" lon="1.57264">
        <ele>173.7</ele>
        <time>2024-12-25T12:10:04Z</time>
      </trkpt>
      <trkpt lat="44.78964" lon="1.57264">
        <ele>173.9</ele>
        <time>2024-12-25T12:10:05Z</time>
      </trkpt>
      <trkpt lat="44.78963" lon="1.57264">
        <ele>174.1</ele>
        <time>2024-12-25T12:10:06Z</time>
      </trkpt>
      <trkpt lat="44.78962" lon="1.57264">
        <ele>174.2</ele>
        <time>2024-12-25T12:10:07Z</time>
      </trkpt>
      <trkpt lat="44.78962" lon="1.57264">
        <ele>174.4</ele>
        <time>2024-12-25T12:10:08Z</time>
      </trkpt>
      <trkpt lat="44.78961" lon="1.57264">
        <ele>174.5</ele>
        <time>2024-12-25T12:10:09Z</time>
      </trkpt>
      <trkpt lat="44.7896" lon="1.57264">
        <ele>174.8</ele>
        <time>2024-12-25T12:10:10Z</time>
      </trkpt>
      <trkpt lat="44.78959" lon="1.57264">
        <ele>174.9</ele>
        <time>2024-12-25T12:10:11Z</time>
      </trkpt>
      <trkpt lat="44.78959" lon="1.57264">
        <ele>175.1</ele>
        <time>2024-12-25T12:10:12Z</time>
      </trkpt>
      <trkpt lat="44.78958" lon="1.57263">
        <ele>175.2</ele>
        <time>2024-12-25T12:10:13Z</time>
      </trkpt>
      <trkpt lat="44.78957" lon="1.57263">
        <ele>175.4</ele>
        <time>2024-12-25T12:10:14Z</time>
      </trkpt>
      <trkpt lat="44.78956" lon="1.57264">
        <ele>175.5</ele>
        <time>2024-12-25T12:10:15Z</time>
      </trkpt>
      <trkpt lat="44.78956" lon="1.57264">
        <ele>175.7</ele>
        <time>2024-12-25T12:10:16Z</time>
      </trkpt>
      <trkpt lat="44.78956" lon="1.57264">
        <ele>175.8</ele>
        <time>2024-12-25T12:10:17Z</time>
      </trkpt>
      <trkpt lat="44.78955" lon="1.57265">
        <ele>175.8</ele>
        <time>2024-12-25T12:10:18Z</time>
      </trkpt>
      <trkpt lat="44.78955" lon="1.57265">
        <ele>175.9</ele>
        <time>2024-12-25T12:10:19Z</time>
      </trkpt>
      <trkpt lat="44.78954" lon="1.57266">
        <ele>176.2</ele>
        <time>2024-12-25T12:10:20Z</time>
      </trkpt>
      <trkpt lat="44.78953" lon="1.57267">
        <ele>176.3</ele>
        <time>2024-12-25T12:10:21Z</time>
      </trkpt>
      <trkpt lat="44.78953" lon="1.57267">
        <ele>176.5</ele>
        <time>2024-12-25T12:10:22Z</time>
      </trkpt>
      <trkpt lat="44.78953" lon="1.57267">
        <ele>176.6</ele>
        <time>2024-12-25T12:10:23Z</time>
      </trkpt>
      <trkpt lat="44.78952" lon="1.57268">
        <ele>176.6</ele>
        <time>2024-12-25T12:10:24Z</time>
      </trkpt>
      <trkpt lat="44.78952" lon="1.57268">
        <ele>176.7</ele>
        <time>2024-12-25T12:10:25Z</time>
      </trkpt>
      <trkpt lat="44.78952" lon="1.57269">
        <ele>176.8</ele>
        <time>2024-12-25T12:10:26Z</time>
      </trkpt>
      <trkpt lat="44.78952" lon="1.57269">
        <ele>176.8</ele>
        <time>2024-12-25T12:10:27Z</time>
      </trkpt>
      <trkpt lat="44.78952" lon="1.57269">
        <ele>176.9</ele>
        <time>2024-12-25T12:10:28Z</time>
      </trkpt>
      <trkpt lat="44.78952" lon="1.57269">
        <ele>176.9</ele>
        <time>2024-12-25T12:10:29Z</time>
      </trkpt>
      <trkpt lat="44.78951" lon="1.57269">
        <ele>177</ele>
        <time>2024-12-25T12:10:30Z</time>
      </trkpt>
      <trkpt lat="44.78951" lon="1.57268">
        <ele>177.1</ele>
        <time>2024-12-25T12:10:31Z</time>
      </trkpt>
      <trkpt lat="44.78951" lon="1.57268">
        <ele>177.2</ele>
        <time>2024-12-25T12:10:32Z</time>
      </trkpt>
      <trkpt lat="44.7895" lon="1.57268">
        <ele>177.3</ele>
        <time>2024-12-25T12:10:33Z</time>
      </trkpt>
      <trkpt lat="44.7895" lon="1.57269">
        <ele>177.4</ele>
        <time>2024-12-25T12:10:34Z</time>
      </trkpt>
      <trkpt lat="44.78949" lon="1.57269">
        <ele>177.6</ele>
        <time>2024-12-25T12:10:35Z</time>
      </trkpt>
      <trkpt lat="44.78948" lon="1.57269">
        <ele>177.7</ele>
        <time>2024-12-25T12:10:36Z</time>
      </trkpt>
      <trkpt lat="44.78948" lon="1.57269">
        <ele>177.8</ele>
        <time>2024-12-25T12:10:37Z</time>
      </trkpt>
      <trkpt lat="44.78947" lon="1.57269">
        <ele>177.9</ele>
        <time>2024-12-25T12:10:38Z</time>
      </trkpt>
      <trkpt lat="44.78947" lon="1.57269">
        <ele>178</ele>
        <time>2024-12-25T12:10:39Z</time>
      </trkpt>
      <trkpt lat="44.78947" lon="1.57269">
        <ele>178.1</ele>
        <time>2024-12-25T12:10:40Z</time>
      </trkpt>
      <trkpt lat="44.78946" lon="1.57269">
        <ele>178.2</ele>
        <time>2024-12-25T12:10:41Z</time>
      </trkpt>
      <trkpt lat="44.78946" lon="1.57269">
        <ele>178.3</ele>
        <time>2024-12-25T12:10:42Z</time>
      </trkpt>
      <trkpt lat="44.78945" lon="1.57269">
        <ele>178.5</ele>
        <time>2024-12-25T12:10:43Z</time>
      </trkpt>
      <trkpt lat="44.78945" lon="1.5727">
        <ele>178.6</ele>
        <time>2024-12-25T12:10:44Z</time>
      </trkpt>
      <trkpt lat="44.78944" lon="1.5727">
        <ele>178.7</ele>
        <time>2024-12-25T12:10:45Z</time>
      </trkpt>
      <trkpt lat="44.78944" lon="1.57271">
        <ele>178.9</ele>
        <time>2024-12-25T12:10:46Z</time>
      </trkpt>
      <trkpt lat="44.78943" lon="1.57271">
        <ele>179</ele>
        <time>2024-12-25T12:10:47Z</time>
      </trkpt>
      <trkpt lat="44.78943" lon="1.57272">
        <ele>179.1</ele>
        <time>2024-12-25T12:10:48Z</time>
      </trkpt>
      <trkpt lat="44.78942" lon="1.57272">
        <ele>179.2</ele>
        <time>2024-12-25T12:10:49Z</time>
      </trkpt>
      <trkpt lat="44.78942" lon="1.57272">
        <ele>179.4</ele>
        <time>2024-12-25T12:10:50Z</time>
      </trkpt>
      <trkpt lat="44.78941" lon="1.57273">
        <ele>179.5</ele>
        <time>2024-12-25T12:10:51Z</time>
      </trkpt>
      <trkpt lat="44.78941" lon="1.57273">
        <ele>179.6</ele>
        <time>2024-12-25T12:10:52Z</time>
      </trkpt>
      <trkpt lat="44.7894" lon="1.57274">
        <ele>179.8</ele>
        <time>2024-12-25T12:10:53Z</time>
      </trkpt>
      <trkpt lat="44.7894" lon="1.57274">
        <ele>179.9</ele>
        <time>2024-12-25T12:10:54Z</time>
      </trkpt>
      <trkpt lat="44.78939" lon="1.57275">
        <ele>180.1</ele>
        <time>2024-12-25T12:10:55Z</time>
      </trkpt>
      <trkpt lat="44.78939" lon="1.57275">
        <ele>180.3</ele>
        <time>2024-12-25T12:10:56Z</time>
      </trkpt>
      <trkpt lat="44.78938" lon="1.57276">
        <ele>180.4</ele>
        <time>2024-12-25T12:10:57Z</time>
      </trkpt>
      <trkpt lat="44.78938" lon="1.57276">
        <ele>180.5</ele>
        <time>2024-12-25T12:10:58Z</time>
      </trkpt>
      <trkpt lat="44.78937" lon="1.57277">
        <ele>180.7</ele>
        <time>2024-12-25T12:10:59Z</time>
      </trkpt>
      <trkpt lat="44.78937" lon="1.57277">
        <ele>180.8</ele>
        <time>2024-12-25T12:11:00Z</time>
      </trkpt>
      <trkpt lat="44.78936" lon="1.57278">
        <ele>180.9</ele>
        <time>2024-12-25T12:11:01Z</time>
      </trkpt>
      <trkpt lat="44.78936" lon="1.57278">
        <ele>181.1</ele>
        <time>2024-12-25T12:11:02Z</time>
      </trkpt>
      <trkpt lat="44.78935" lon="1.57279">
        <ele>181.5</ele>
        <time>2024-12-25T12:11:03Z</time>
      </trkpt>
      <trkpt lat="44.78933" lon="1.57281">
        <ele>181.9</ele>
        <time>2024-12-25T12:11:04Z</time>
      </trkpt>
      <trkpt lat="44.78932" lon="1.57282">
        <ele>182.3</ele>
        <time>2024-12-25T12:11:05Z</time>
      </trkpt>
      <trkpt lat="44.78931" lon="1.57283">
        <ele>182.7</ele>
        <time>2024-12-25T12:11:06Z</time>
      </trkpt>
      <trkpt lat="44.7893" lon="1.57284">
        <ele>182.9</ele>
        <time>2024-12-25T12:11:07Z</time>
      </trkpt>
      <trkpt lat="44.78929" lon="1.57284">
        <ele>183.1</ele>
        <time>2024-12-25T12:11:08Z</time>
      </trkpt>
      <trkpt lat="44.78929" lon="1.57283">
        <ele>183.2</ele>
        <time>2024-12-25T12:11:09Z</time>
      </trkpt>
      <trkpt lat="44.78928" lon="1.57283">
        <ele>183.2</ele>
        <time>2024-12-25T12:11:10Z</time>
      </trkpt>
      <trkpt lat="44.78928" lon="1.57283">
        <ele>183.4</ele>
        <time>2024-12-25T12:11:11Z</time>
      </trkpt>
      <trkpt lat="44.78927" lon="1.57283">
        <ele>183.5</ele>
        <time>2024-12-25T12:11:12Z</time>
      </trkpt>
      <trkpt lat="44.78927" lon="1.57283">
        <ele>183.6</ele>
        <time>2024-12-25T12:11:13Z</time>
      </trkpt>
      <trkpt lat="44.78926" lon="1.57283">
        <ele>183.7</ele>
        <time>2024-12-25T12:11:14Z</time>
      </trkpt>
      <trkpt lat="44.78926" lon="1.57283">
        <ele>183.9</ele>
        <time>2024-12-25T12:11:15Z</time>
      </trkpt>
      <trkpt lat="44.78925" lon="1.57283">
        <ele>184</ele>
        <time>2024-12-25T12:11:16Z</time>
      </trkpt>
      <trkpt lat="44.78925" lon="1.57283">
        <ele>184.2</ele>
        <time>2024-12-25T12:11:17Z</time>
      </trkpt>
      <trkpt lat="44.78924" lon="1.57283">
        <ele>184.4</ele>
        <time>2024-12-25T12:11:18Z</time>
      </trkpt>
      <trkpt lat="44.78923" lon="1.57284">
        <ele>184.5</ele>
        <time>2024-12-25T12:11:19Z</time>
      </trkpt>
      <trkpt lat="44.78923" lon="1.57284">
        <ele>184.7</ele>
        <time>2024-12-25T12:11:20Z</time>
      </trkpt>
      <trkpt lat="44.78922" lon="1.57284">
        <ele>184.9</ele>
        <time>2024-12-25T12:11:21Z</time>
      </trkpt>
      <trkpt lat="44.78921" lon="1.57284">
        <ele>185</ele>
        <time>2024-12-25T12:11:22Z</time>
      </trkpt>
      <trkpt lat="44.78921" lon="1.57284">
        <ele>185.1</ele>
        <time>2024-12-25T12:11:23Z</time>
      </trkpt>
      <trkpt lat="44.78921" lon="1.57285">
        <ele>185.3</ele>
        <time>2024-12-25T12:11:24Z</time>
      </trkpt>
      <trkpt lat="44.7892" lon="1.57285">
        <ele>185.4</ele>
        <time>2024-12-25T12:11:25Z</time>
      </trkpt>
      <trkpt lat="44.78919" lon="1.57286">
        <ele>185.6</ele>
        <time>2024-12-25T12:11:26Z</time>
      </trkpt>
      <trkpt lat="44.78919" lon="1.57286">
        <ele>185.8</ele>
        <time>2024-12-25T12:11:27Z</time>
      </trkpt>
      <trkpt lat="44.78918" lon="1.57286">
        <ele>185.9</ele>
        <time>2024-12-25T12:11:28Z</time>
      </trkpt>
      <trkpt lat="44.78917" lon="1.57286">
        <ele>186.1</ele>
        <time>2024-12-25T12:11:29Z</time>
      </trkpt>
      <trkpt lat="44.78917" lon="1.57287">
        <ele>186.2</ele>
        <time>2024-12-25T12:11:30Z</time>
      </trkpt>
      <trkpt lat="44.78916" lon="1.57287">
        <ele>186.5</ele>
        <time>2024-12-25T12:11:31Z</time>
      </trkpt>
      <trkpt lat="44.78915" lon="1.57287">
        <ele>186.6</ele>
        <time>2024-12-25T12:11:32Z</time>
      </trkpt>
      <trkpt lat="44.78915" lon="1.57288">
        <ele>186.8</ele>
        <time>2024-12-25T12:11:33Z</time>
      </trkpt>
      <trkpt lat="44.78914" lon="1.57288">
        <ele>186.9</ele>
        <time>2024-12-25T12:11:34Z</time>
      </trkpt>
      <trkpt lat="44.78914" lon="1.57289">
        <ele>187.1</ele>
        <time>2024-12-25T12:11:35Z</time>
      </trkpt>
      <trkpt lat="44.78913" lon="1.57289">
        <ele>187.3</ele>
        <time>2024-12-25T12:11:36Z</time>
      </trkpt>
      <trkpt lat="44.78912" lon="1.5729">
        <ele>187.6</ele>
        <time>2024-12-25T12:11:37Z</time>
      </trkpt>
      <trkpt lat="44.78911" lon="1.57291">
        <ele>187.8</ele>
        <time>2024-12-25T12:11:38Z</time>
      </trkpt>
      <trkpt lat="44.78911" lon="1.57291">
        <ele>187.9</ele>
        <time>2024-12-25T12:11:40Z</time>
      </trkpt>
      <trkpt lat="44.7891" lon="1.57292">
        <ele>188.1</ele>
        <time>2024-12-25T12:11:41Z</time>
      </trkpt>
      <trkpt lat="44.78909" lon="1.57292">
        <ele>188.3</ele>
        <time>2024-12-25T12:11:42Z</time>
      </trkpt>
      <trkpt lat="44.78908" lon="1.57294">
        <ele>188.8</ele>
        <time>2024-12-25T12:11:43Z</time>
      </trkpt>
      <trkpt lat="44.78907" lon="1.57295">
        <ele>189.1</ele>
        <time>2024-12-25T12:11:44Z</time>
      </trkpt>
      <trkpt lat="44.78905" lon="1.57295">
        <ele>189.5</ele>
        <time>2024-12-25T12:11:45Z</time>
      </trkpt>
      <trkpt lat="44.78903" lon="1.57296">
        <ele>190</ele>
        <time>2024-12-25T12:11:46Z</time>
      </trkpt>
      <trkpt lat="44.78901" lon="1.57297">
        <ele>190.5</ele>
        <time>2024-12-25T12:11:47Z</time>
      </trkpt>
      <trkpt lat="44.789" lon="1.57297">
        <ele>190.7</ele>
        <time>2024-12-25T12:11:48Z</time>
      </trkpt>
      <trkpt lat="44.78899" lon="1.57298">
        <ele>190.9</ele>
        <time>2024-12-25T12:11:49Z</time>
      </trkpt>
      <trkpt lat="44.78898" lon="1.57298">
        <ele>191.2</ele>
        <time>2024-12-25T12:11:50Z</time>
      </trkpt>
      <trkpt lat="44.78897" lon="1.57298">
        <ele>191.5</ele>
        <time>2024-12-25T12:11:51Z</time>
      </trkpt>
      <trkpt lat="44.78896" lon="1.57299">
        <ele>191.7</ele>
        <time>2024-12-25T12:11:52Z</time>
      </trkpt>
      <trkpt lat="44.78896" lon="1.57299">
        <ele>191.9</ele>
        <time>2024-12-25T12:11:53Z</time>
      </trkpt>
      <trkpt lat="44.78895" lon="1.57299">
        <ele>192.1</ele>
        <time>2024-12-25T12:11:54Z</time>
      </trkpt>
      <trkpt lat="44.78894" lon="1.573">
        <ele>192.3</ele>
        <time>2024-12-25T12:11:55Z</time>
      </trkpt>
      <trkpt lat="44.78893" lon="1.57301">
        <ele>192.6</ele>
        <time>2024-12-25T12:11:56Z</time>
      </trkpt>
      <trkpt lat="44.78892" lon="1.57301">
        <ele>192.8</ele>
        <time>2024-12-25T12:11:57Z</time>
      </trkpt>
      <trkpt lat="44.78891" lon="1.57301">
        <ele>193</ele>
        <time>2024-12-25T12:11:58Z</time>
      </trkpt>
      <trkpt lat="44.7889" lon="1.57303">
        <ele>193.4</ele>
        <time>2024-12-25T12:11:59Z</time>
      </trkpt>
      <trkpt lat="44.78889" lon="1.57303">
        <ele>193.5</ele>
        <time>2024-12-25T12:12:00Z</time>
      </trkpt>
      <trkpt lat="44.78889" lon="1.57304">
        <ele>193.7</ele>
        <time>2024-12-25T12:12:01Z</time>
      </trkpt>
      <trkpt lat="44.78888" lon="1.57304">
        <ele>193.9</ele>
        <time>2024-12-25T12:12:02Z</time>
      </trkpt>
      <trkpt lat="44.78887" lon="1.57306">
        <ele>194.2</ele>
        <time>2024-12-25T12:12:03Z</time>
      </trkpt>
      <trkpt lat="44.78886" lon="1.57306">
        <ele>194.4</ele>
        <time>2024-12-25T12:12:04Z</time>
      </trkpt>
      <trkpt lat="44.78886" lon="1.57307">
        <ele>194.6</ele>
        <time>2024-12-25T12:12:05Z</time>
      </trkpt>
      <trkpt lat="44.78885" lon="1.57308">
        <ele>194.7</ele>
        <time>2024-12-25T12:12:06Z</time>
      </trkpt>
      <trkpt lat="44.78885" lon="1.57308">
        <ele>194.8</ele>
        <time>2024-12-25T12:12:07Z</time>
      </trkpt>
      <trkpt lat="44.78884" lon="1.57309">
        <ele>195</ele>
        <time>2024-12-25T12:12:08Z</time>
      </trkpt>
      <trkpt lat="44.78884" lon="1.5731">
        <ele>195.2</ele>
        <time>2024-12-25T12:12:09Z</time>
      </trkpt>
      <trkpt lat="44.78883" lon="1.57311">
        <ele>195.4</ele>
        <time>2024-12-25T12:12:10Z</time>
      </trkpt>
      <trkpt lat="44.78882" lon="1.57311">
        <ele>195.6</ele>
        <time>2024-12-25T12:12:11Z</time>
      </trkpt>
      <trkpt lat="44.78881" lon="1.57311">
        <ele>195.8</ele>
        <time>2024-12-25T12:12:12Z</time>
      </trkpt>
      <trkpt lat="44.78881" lon="1.57312">
        <ele>196</ele>
        <time>2024-12-25T12:12:13Z</time>
      </trkpt>
      <trkpt lat="44.7888" lon="1.57313">
        <ele>196.2</ele>
        <time>2024-12-25T12:12:14Z</time>
      </trkpt>
      <trkpt lat="44.78879" lon="1.57314">
        <ele>196.4</ele>
        <time>2024-12-25T12:12:15Z</time>
      </trkpt>
      <trkpt lat="44.78879" lon="1.57315">
        <ele>196.5</ele>
        <time>2024-12-25T12:12:16Z</time>
      </trkpt>
      <trkpt lat="44.78878" lon="1.57316">
        <ele>196.8</ele>
        <time>2024-12-25T12:12:17Z</time>
      </trkpt>
      <trkpt lat="44.78878" lon="1.57317">
        <ele>196.9</ele>
        <time>2024-12-25T12:12:18Z</time>
      </trkpt>
      <trkpt lat="44.78878" lon="1.57318">
        <ele>197.1</ele>
        <time>2024-12-25T12:12:19Z</time>
      </trkpt>
      <trkpt lat="44.78877" lon="1.57318">
        <ele>197.2</ele>
        <time>2024-12-25T12:12:20Z</time>
      </trkpt>
      <trkpt lat="44.78877" lon="1.57319">
        <ele>197.3</ele>
        <time>2024-12-25T12:12:21Z</time>
      </trkpt>
      <trkpt lat="44.78876" lon="1.57319">
        <ele>197.5</ele>
        <time>2024-12-25T12:12:22Z</time>
      </trkpt>
      <trkpt lat="44.78875" lon="1.5732">
        <ele>197.7</ele>
        <time>2024-12-25T12:12:23Z</time>
      </trkpt>
      <trkpt lat="44.78875" lon="1.5732">
        <ele>197.8</ele>
        <time>2024-12-25T12:12:24Z</time>
      </trkpt>
      <trkpt lat="44.78874" lon="1.5732">
        <ele>197.9</ele>
        <time>2024-12-25T12:12:25Z</time>
      </trkpt>
      <trkpt lat="44.78874" lon="1.5732">
        <ele>198</ele>
        <time>2024-12-25T12:12:26Z</time>
      </trkpt>
      <trkpt lat="44.78874" lon="1.5732">
        <ele>198</ele>
        <time>2024-12-25T12:12:27Z</time>
      </trkpt>
      <trkpt lat="44.78875" lon="1.5732">
        <ele>198.1</ele>
        <time>2024-12-25T12:12:28Z</time>
      </trkpt>
      <trkpt lat="44.78875" lon="1.5732">
        <ele>198.1</ele>
        <time>2024-12-25T12:12:29Z</time>
      </trkpt>
      <trkpt lat="44.78875" lon="1.5732">
        <ele>198.1</ele>
        <time>2024-12-25T12:12:30Z</time>
      </trkpt>
      <trkpt lat="44.78875" lon="1.5732">
        <ele>198.1</ele>
        <time>2024-12-25T12:12:31Z</time>
      </trkpt>
      <trkpt lat="44.78875" lon="1.5732">
        <ele>198.1</ele>
        <time>2024-12-25T12:12:32Z</time>
      </trkpt>
      <trkpt lat="44.78875" lon="1.5732">
        <ele>198.1</ele>
        <time>2024-12-25T12:12:33Z</time>
      </trkpt>
      <trkpt lat="44.78875" lon="1.5732">
        <ele>198.1</ele>
        <time>2024-12-25T12:12:34Z</time>
      </trkpt>
      <trkpt lat="44.78875" lon="1.5732">
        <ele>198.1</ele>
        <time>2024-12-25T12:12:35Z</time>
      </trkpt>
      <trkpt lat="44.78874" lon="1.5732">
        <ele>198.2</ele>
        <time>2024-12-25T12:12:36Z</time>
      </trkpt>
      <trkpt lat="44.78874" lon="1.5732">
        <ele>198.3</ele>
        <time>2024-12-25T12:12:37Z</time>
      </trkpt>
      <trkpt lat="44.78873" lon="1.5732">
        <ele>198.4</ele>
        <time>2024-12-25T12:12:38Z</time>
      </trkpt>
      <trkpt lat="44.78873" lon="1.57321">
        <ele>198.5</ele>
        <time>2024-12-25T12:12:39Z</time>
      </trkpt>
      <trkpt lat="44.78872" lon="1.57321">
        <ele>198.7</ele>
        <time>2024-12-25T12:12:40Z</time>
      </trkpt>
      <trkpt lat="44.78871" lon="1.57322">
        <ele>198.9</ele>
        <time>2024-12-25T12:12:41Z</time>
      </trkpt>
      <trkpt lat="44.7887" lon="1.57322">
        <ele>199.1</ele>
        <time>2024-12-25T12:12:42Z</time>
      </trkpt>
      <trkpt lat="44.78869" lon="1.57323">
        <ele>199.3</ele>
        <time>2024-12-25T12:12:43Z</time>
      </trkpt>
      <trkpt lat="44.78868" lon="1.57324">
        <ele>199.5</ele>
        <time>2024-12-25T12:12:44Z</time>
      </trkpt>
      <trkpt lat="44.78867" lon="1.57324">
        <ele>199.7</ele>
        <time>2024-12-25T12:12:45Z</time>
      </trkpt>
      <trkpt lat="44.78866" lon="1.57325">
        <ele>199.9</ele>
        <time>2024-12-25T12:12:46Z</time>
      </trkpt>
      <trkpt lat="44.78866" lon="1.57325">
        <ele>200.1</ele>
        <time>2024-12-25T12:12:47Z</time>
      </trkpt>
      <trkpt lat="44.78865" lon="1.57327">
        <ele>200.3</ele>
        <time>2024-12-25T12:12:48Z</time>
      </trkpt>
      <trkpt lat="44.78864" lon="1.57328">
        <ele>200.5</ele>
        <time>2024-12-25T12:12:49Z</time>
      </trkpt>
      <trkpt lat="44.78864" lon="1.57329">
        <ele>200.6</ele>
        <time>2024-12-25T12:12:50Z</time>
      </trkpt>
      <trkpt lat="44.78863" lon="1.57329">
        <ele>200.7</ele>
        <time>2024-12-25T12:12:51Z</time>
      </trkpt>
      <trkpt lat="44.78863" lon="1.57329">
        <ele>200.8</ele>
        <time>2024-12-25T12:12:52Z</time>
      </trkpt>
      <trkpt lat="44.78862" lon="1.5733">
        <ele>201</ele>
        <time>2024-12-25T12:12:53Z</time>
      </trkpt>
      <trkpt lat="44.78862" lon="1.5733">
        <ele>201.1</ele>
        <time>2024-12-25T12:12:54Z</time>
      </trkpt>
      <trkpt lat="44.78861" lon="1.57331">
        <ele>201.3</ele>
        <time>2024-12-25T12:12:55Z</time>
      </trkpt>
      <trkpt lat="44.78861" lon="1.57331">
        <ele>201.3</ele>
        <time>2024-12-25T12:12:56Z</time>
      </trkpt>
      <trkpt lat="44.7886" lon="1.57332">
        <ele>201.5</ele>
        <time>2024-12-25T12:12:57Z</time>
      </trkpt>
      <trkpt lat="44.7886" lon="1.57333">
        <ele>201.7</ele>
        <time>2024-12-25T12:12:59Z</time>
      </trkpt>
      <trkpt lat="44.78859" lon="1.57334">
        <ele>202</ele>
        <time>2024-12-25T12:13:00Z</time>
      </trkpt>
      <trkpt lat="44.78858" lon="1.57334">
        <ele>202.2</ele>
        <time>2024-12-25T12:13:01Z</time>
      </trkpt>
      <trkpt lat="44.78857" lon="1.57334">
        <ele>202.4</ele>
        <time>2024-12-25T12:13:02Z</time>
      </trkpt>
      <trkpt lat="44.78856" lon="1.57335">
        <ele>202.6</ele>
        <time>2024-12-25T12:13:03Z</time>
      </trkpt>
      <trkpt lat="44.78855" lon="1.57336">
        <ele>202.8</ele>
        <time>2024-12-25T12:13:04Z</time>
      </trkpt>
      <trkpt lat="44.78854" lon="1.57336">
        <ele>203</ele>
        <time>2024-12-25T12:13:05Z</time>
      </trkpt>
      <trkpt lat="44.78854" lon="1.57337">
        <ele>203.1</ele>
        <time>2024-12-25T12:13:06Z</time>
      </trkpt>
      <trkpt lat="44.78853" lon="1.57338">
        <ele>203.5</ele>
        <time>2024-12-25T12:13:07Z</time>
      </trkpt>
      <trkpt lat="44.78852" lon="1.57338">
        <ele>203.6</ele>
        <time>2024-12-25T12:13:09Z</time>
      </trkpt>
      <trkpt lat="44.78852" lon="1.57339">
        <ele>203.8</ele>
        <time>2024-12-25T12:13:10Z</time>
      </trkpt>
      <trkpt lat="44.78851" lon="1.57339">
        <ele>203.9</ele>
        <time>2024-12-25T12:13:11Z</time>
      </trkpt>
      <trkpt lat="44.78851" lon="1.5734">
        <ele>204.1</ele>
        <time>2024-12-25T12:13:12Z</time>
      </trkpt>
      <trkpt lat="44.7885" lon="1.57341">
        <ele>204.3</ele>
        <time>2024-12-25T12:13:13Z</time>
      </trkpt>
      <trkpt lat="44.78849" lon="1.57342">
        <ele>204.5</ele>
        <time>2024-12-25T12:13:14Z</time>
      </trkpt>
      <trkpt lat="44.78849" lon="1.57343">
        <ele>204.8</ele>
        <time>2024-12-25T12:13:15Z</time>
      </trkpt>
      <trkpt lat="44.78848" lon="1.57344">
        <ele>204.9</ele>
        <time>2024-12-25T12:13:16Z</time>
      </trkpt>
      <trkpt lat="44.78848" lon="1.57344">
        <ele>205.1</ele>
        <time>2024-12-25T12:13:17Z</time>
      </trkpt>
      <trkpt lat="44.78847" lon="1.57345">
        <ele>205.3</ele>
        <time>2024-12-25T12:13:18Z</time>
      </trkpt>
      <trkpt lat="44.78846" lon="1.57346">
        <ele>205.5</ele>
        <time>2024-12-25T12:13:19Z</time>
      </trkpt>
      <trkpt lat="44.78846" lon="1.57347">
        <ele>205.7</ele>
        <time>2024-12-25T12:13:20Z</time>
      </trkpt>
      <trkpt lat="44.78845" lon="1.57347">
        <ele>205.9</ele>
        <time>2024-12-25T12:13:21Z</time>
      </trkpt>
      <trkpt lat="44.78844" lon="1.57349">
        <ele>206.2</ele>
        <time>2024-12-25T12:13:22Z</time>
      </trkpt>
      <trkpt lat="44.78844" lon="1.57349">
        <ele>206.4</ele>
        <time>2024-12-25T12:13:23Z</time>
      </trkpt>
      <trkpt lat="44.78843" lon="1.5735">
        <ele>206.6</ele>
        <time>2024-12-25T12:13:24Z</time>
      </trkpt>
      <trkpt lat="44.78843" lon="1.57351">
        <ele>206.8</ele>
        <time>2024-12-25T12:13:25Z</time>
      </trkpt>
      <trkpt lat="44.78843" lon="1.57352">
        <ele>206.9</ele>
        <time>2024-12-25T12:13:26Z</time>
      </trkpt>
      <trkpt lat="44.78843" lon="1.57352">
        <ele>207</ele>
        <time>2024-12-25T12:13:27Z</time>
      </trkpt>
      <trkpt lat="44.78843" lon="1.57353">
        <ele>207</ele>
        <time>2024-12-25T12:13:28Z</time>
      </trkpt>
      <trkpt lat="44.78843" lon="1.57353">
        <ele>207.1</ele>
        <time>2024-12-25T12:13:29Z</time>
      </trkpt>
      <trkpt lat="44.78843" lon="1.57354">
        <ele>207.2</ele>
        <time>2024-12-25T12:13:30Z</time>
      </trkpt>
      <trkpt lat="44.78843" lon="1.57354">
        <ele>207.2</ele>
        <time>2024-12-25T12:13:31Z</time>
      </trkpt>
      <trkpt lat="44.78843" lon="1.57355">
        <ele>207.4</ele>
        <time>2024-12-25T12:13:32Z</time>
      </trkpt>
      <trkpt lat="44.78843" lon="1.57356">
        <ele>207.5</ele>
        <time>2024-12-25T12:13:33Z</time>
      </trkpt>
      <trkpt lat="44.78843" lon="1.57356">
        <ele>207.5</ele>
        <time>2024-12-25T12:13:34Z</time>
      </trkpt>
      <trkpt lat="44.78843" lon="1.57357">
        <ele>207.6</ele>
        <time>2024-12-25T12:13:35Z</time>
      </trkpt>
      <trkpt lat="44.78842" lon="1.57357">
        <ele>207.7</ele>
        <time>2024-12-25T12:13:36Z</time>
      </trkpt>
      <trkpt lat="44.78842" lon="1.57358">
        <ele>207.8</ele>
        <time>2024-12-25T12:13:37Z</time>
      </trkpt>
      <trkpt lat="44.78841" lon="1.57358">
        <ele>207.9</ele>
        <time>2024-12-25T12:13:38Z</time>
      </trkpt>
      <trkpt lat="44.78841" lon="1.57358">
        <ele>208</ele>
        <time>2024-12-25T12:13:39Z</time>
      </trkpt>
      <trkpt lat="44.78841" lon="1.57358">
        <ele>208.1</ele>
        <time>2024-12-25T12:13:40Z</time>
      </trkpt>
      <trkpt lat="44.7884" lon="1.57359">
        <ele>208.1</ele>
        <time>2024-12-25T12:13:41Z</time>
      </trkpt>
      <trkpt lat="44.7884" lon="1.57359">
        <ele>208.2</ele>
        <time>2024-12-25T12:13:42Z</time>
      </trkpt>
      <trkpt lat="44.7884" lon="1.5736">
        <ele>208.3</ele>
        <time>2024-12-25T12:13:43Z</time>
      </trkpt>
      <trkpt lat="44.7884" lon="1.5736">
        <ele>208.4</ele>
        <time>2024-12-25T12:13:44Z</time>
      </trkpt>
      <trkpt lat="44.7884" lon="1.57361">
        <ele>208.4</ele>
        <time>2024-12-25T12:13:45Z</time>
      </trkpt>
      <trkpt lat="44.78839" lon="1.57361">
        <ele>208.6</ele>
        <time>2024-12-25T12:13:46Z</time>
      </trkpt>
      <trkpt lat="44.78839" lon="1.57363">
        <ele>208.8</ele>
        <time>2024-12-25T12:13:47Z</time>
      </trkpt>
      <trkpt lat="44.78839" lon="1.57365">
        <ele>209</ele>
        <time>2024-12-25T12:13:48Z</time>
      </trkpt>
      <trkpt lat="44.78838" lon="1.57367">
        <ele>209.3</ele>
        <time>2024-12-25T12:13:49Z</time>
      </trkpt>
      <trkpt lat="44.78838" lon="1.57368">
        <ele>209.5</ele>
        <time>2024-12-25T12:13:50Z</time>
      </trkpt>
      <trkpt lat="44.78838" lon="1.5737">
        <ele>209.7</ele>
        <time>2024-12-25T12:13:51Z</time>
      </trkpt>
      <trkpt lat="44.78838" lon="1.57371">
        <ele>209.9</ele>
        <time>2024-12-25T12:13:52Z</time>
      </trkpt>
      <trkpt lat="44.78838" lon="1.57373">
        <ele>210.1</ele>
        <time>2024-12-25T12:13:53Z</time>
      </trkpt>
      <trkpt lat="44.78838" lon="1.57375">
        <ele>210.4</ele>
        <time>2024-12-25T12:13:54Z</time>
      </trkpt>
      <trkpt lat="44.78838" lon="1.57376">
        <ele>210.6</ele>
        <time>2024-12-25T12:13:55Z</time>
      </trkpt>
      <trkpt lat="44.78837" lon="1.57378">
        <ele>210.9</ele>
        <time>2024-12-25T12:13:56Z</time>
      </trkpt>
      <trkpt lat="44.78837" lon="1.5738">
        <ele>211.1</ele>
        <time>2024-12-25T12:13:57Z</time>
      </trkpt>
      <trkpt lat="44.78836" lon="1.57381">
        <ele>211.3</ele>
        <time>2024-12-25T12:13:58Z</time>
      </trkpt>
      <trkpt lat="44.78836" lon="1.57382">
        <ele>211.5</ele>
        <time>2024-12-25T12:13:59Z</time>
      </trkpt>
      <trkpt lat="44.78836" lon="1.57383">
        <ele>211.6</ele>
        <time>2024-12-25T12:14:00Z</time>
      </trkpt>
      <trkpt lat="44.78835" lon="1.57385">
        <ele>211.8</ele>
        <time>2024-12-25T12:14:01Z</time>
      </trkpt>
      <trkpt lat="44.78835" lon="1.57387">
        <ele>212.1</ele>
        <time>2024-12-25T12:14:02Z</time>
      </trkpt>
      <trkpt lat="44.78835" lon="1.57388">
        <ele>212.2</ele>
        <time>2024-12-25T12:14:03Z</time>
      </trkpt>
      <trkpt lat="44.78835" lon="1.57389">
        <ele>212.4</ele>
        <time>2024-12-25T12:14:04Z</time>
      </trkpt>
      <trkpt lat="44.78835" lon="1.5739">
        <ele>212.5</ele>
        <time>2024-12-25T12:14:05Z</time>
      </trkpt>
      <trkpt lat="44.78834" lon="1.57391">
        <ele>212.7</ele>
        <time>2024-12-25T12:14:06Z</time>
      </trkpt>
      <trkpt lat="44.78833" lon="1.57392">
        <ele>212.9</ele>
        <time>2024-12-25T12:14:07Z</time>
      </trkpt>
      <trkpt lat="44.78833" lon="1.57393">
        <ele>213</ele>
        <time>2024-12-25T12:14:08Z</time>
      </trkpt>
      <trkpt lat="44.78832" lon="1.57394">
        <ele>213.2</ele>
        <time>2024-12-25T12:14:09Z</time>
      </trkpt>
      <trkpt lat="44.78831" lon="1.57395">
        <ele>213.3</ele>
        <time>2024-12-25T12:14:10Z</time>
      </trkpt>
      <trkpt lat="44.78831" lon="1.57395">
        <ele>213.4</ele>
        <time>2024-12-25T12:14:11Z</time>
      </trkpt>
      <trkpt lat="44.78831" lon="1.57396">
        <ele>213.5</ele>
        <time>2024-12-25T12:14:12Z</time>
      </trkpt>
      <trkpt lat="44.78831" lon="1.57397">
        <ele>213.6</ele>
        <time>2024-12-25T12:14:13Z</time>
      </trkpt>
      <trkpt lat="44.78831" lon="1.57397">
        <ele>213.6</ele>
        <time>2024-12-25T12:14:14Z</time>
      </trkpt>
      <trkpt lat="44.78831" lon="1.57397">
        <ele>213.7</ele>
        <time>2024-12-25T12:14:15Z</time>
      </trkpt>
      <trkpt lat="44.78831" lon="1.57397">
        <ele>213.7</ele>
        <time>2024-12-25T12:14:16Z</time>
      </trkpt>
      <trkpt lat="44.78831" lon="1.57396">
        <ele>213.8</ele>
        <time>2024-12-25T12:14:17Z</time>
      </trkpt>
      <trkpt lat="44.78832" lon="1.57397">
        <ele>213.9</ele>
        <time>2024-12-25T12:14:19Z</time>
      </trkpt>
      <trkpt lat="44.78832" lon="1.57397">
        <ele>213.9</ele>
        <time>2024-12-25T12:14:20Z</time>
      </trkpt>
      <trkpt lat="44.78832" lon="1.57397">
        <ele>214</ele>
        <time>2024-12-25T12:14:21Z</time>
      </trkpt>
      <trkpt lat="44.78832" lon="1.57397">
        <ele>214</ele>
        <time>2024-12-25T12:14:22Z</time>
      </trkpt>
      <trkpt lat="44.78832" lon="1.57397">
        <ele>214</ele>
        <time>2024-12-25T12:14:23Z</time>
      </trkpt>
      <trkpt lat="44.78832" lon="1.57397">
        <ele>214</ele>
        <time>2024-12-25T12:14:24Z</time>
      </trkpt>
      <trkpt lat="44.78832" lon="1.57397">
        <ele>214.1</ele>
        <time>2024-12-25T12:14:25Z</time>
      </trkpt>
      <trkpt lat="44.78832" lon="1.57397">
        <ele>214.1</ele>
        <time>2024-12-25T12:14:27Z</time>
      </trkpt>
      <trkpt lat="44.78831" lon="1.57398">
        <ele>214.2</ele>
        <time>2024-12-25T12:14:28Z</time>
      </trkpt>
      <trkpt lat="44.78831" lon="1.57399">
        <ele>214.2</ele>
        <time>2024-12-25T12:14:29Z</time>
      </trkpt>
      <trkpt lat="44.78831" lon="1.574">
        <ele>214.3</ele>
        <time>2024-12-25T12:14:30Z</time>
      </trkpt>
      <trkpt lat="44.7883" lon="1.57401">
        <ele>214.5</ele>
        <time>2024-12-25T12:14:31Z</time>
      </trkpt>
      <trkpt lat="44.7883" lon="1.57402">
        <ele>214.6</ele>
        <time>2024-12-25T12:14:32Z</time>
      </trkpt>
      <trkpt lat="44.78829" lon="1.57402">
        <ele>214.7</ele>
        <time>2024-12-25T12:14:33Z</time>
      </trkpt>
      <trkpt lat="44.78829" lon="1.57401">
        <ele>214.7</ele>
        <time>2024-12-25T12:14:34Z</time>
      </trkpt>
      <trkpt lat="44.78829" lon="1.57401">
        <ele>214.8</ele>
        <time>2024-12-25T12:14:35Z</time>
      </trkpt>
      <trkpt lat="44.78828" lon="1.57402">
        <ele>214.8</ele>
        <time>2024-12-25T12:14:36Z</time>
      </trkpt>
      <trkpt lat="44.78828" lon="1.57403">
        <ele>214.9</ele>
        <time>2024-12-25T12:14:37Z</time>
      </trkpt>
      <trkpt lat="44.78828" lon="1.57404">
        <ele>215</ele>
        <time>2024-12-25T12:14:38Z</time>
      </trkpt>
      <trkpt lat="44.78827" lon="1.57405">
        <ele>215.1</ele>
        <time>2024-12-25T12:14:39Z</time>
      </trkpt>
      <trkpt lat="44.78826" lon="1.57407">
        <ele>215.3</ele>
        <time>2024-12-25T12:14:40Z</time>
      </trkpt>
      <trkpt lat="44.78825" lon="1.57408">
        <ele>215.4</ele>
        <time>2024-12-25T12:14:41Z</time>
      </trkpt>
      <trkpt lat="44.78824" lon="1.57411">
        <ele>215.6</ele>
        <time>2024-12-25T12:14:42Z</time>
      </trkpt>
      <trkpt lat="44.78823" lon="1.57411">
        <ele>215.7</ele>
        <time>2024-12-25T12:14:43Z</time>
      </trkpt>
      <trkpt lat="44.78823" lon="1.57412">
        <ele>215.8</ele>
        <time>2024-12-25T12:14:44Z</time>
      </trkpt>
      <trkpt lat="44.78821" lon="1.57414">
        <ele>215.9</ele>
        <time>2024-12-25T12:14:45Z</time>
      </trkpt>
      <trkpt lat="44.7882" lon="1.57415">
        <ele>216</ele>
        <time>2024-12-25T12:14:46Z</time>
      </trkpt>
      <trkpt lat="44.7882" lon="1.57416">
        <ele>216.1</ele>
        <time>2024-12-25T12:14:47Z</time>
      </trkpt>
      <trkpt lat="44.78819" lon="1.57417">
        <ele>216.2</ele>
        <time>2024-12-25T12:14:48Z</time>
      </trkpt>
      <trkpt lat="44.78818" lon="1.57418">
        <ele>216.3</ele>
        <time>2024-12-25T12:14:49Z</time>
      </trkpt>
      <trkpt lat="44.78817" lon="1.57419">
        <ele>216.4</ele>
        <time>2024-12-25T12:14:50Z</time>
      </trkpt>
      <trkpt lat="44.78816" lon="1.5742">
        <ele>216.5</ele>
        <time>2024-12-25T12:14:51Z</time>
      </trkpt>
      <trkpt lat="44.78815" lon="1.57421">
        <ele>216.6</ele>
        <time>2024-12-25T12:14:52Z</time>
      </trkpt>
      <trkpt lat="44.78815" lon="1.57422">
        <ele>216.7</ele>
        <time>2024-12-25T12:14:53Z</time>
      </trkpt>
      <trkpt lat="44.78814" lon="1.57424">
        <ele>216.8</ele>
        <time>2024-12-25T12:14:54Z</time>
      </trkpt>
      <trkpt lat="44.78814" lon="1.57425">
        <ele>216.9</ele>
        <time>2024-12-25T12:14:55Z</time>
      </trkpt>
      <trkpt lat="44.78813" lon="1.57426">
        <ele>216.9</ele>
        <time>2024-12-25T12:14:56Z</time>
      </trkpt>
      <trkpt lat="44.78812" lon="1.57427">
        <ele>217</ele>
        <time>2024-12-25T12:14:57Z</time>
      </trkpt>
      <trkpt lat="44.78812" lon="1.57428">
        <ele>217.1</ele>
        <time>2024-12-25T12:14:58Z</time>
      </trkpt>
      <trkpt lat="44.78812" lon="1.57428">
        <ele>217.1</ele>
        <time>2024-12-25T12:14:59Z</time>
      </trkpt>
      <trkpt lat="44.78811" lon="1.57429">
        <ele>217.2</ele>
        <time>2024-12-25T12:15:00Z</time>
      </trkpt>
      <trkpt lat="44.78811" lon="1.57429">
        <ele>217.2</ele>
        <time>2024-12-25T12:15:01Z</time>
      </trkpt>
      <trkpt lat="44.78811" lon="1.5743">
        <ele>217.2</ele>
        <time>2024-12-25T12:15:02Z</time>
      </trkpt>
      <trkpt lat="44.78811" lon="1.5743">
        <ele>217.2</ele>
        <time>2024-12-25T12:15:03Z</time>
      </trkpt>
      <trkpt lat="44.78811" lon="1.57431">
        <ele>217.3</ele>
        <time>2024-12-25T12:15:04Z</time>
      </trkpt>
      <trkpt lat="44.78811" lon="1.57431">
        <ele>217.3</ele>
        <time>2024-12-25T12:15:05Z</time>
      </trkpt>
      <trkpt lat="44.78811" lon="1.57432">
        <ele>217.3</ele>
        <time>2024-12-25T12:15:06Z</time>
      </trkpt>
      <trkpt lat="44.7881" lon="1.57433">
        <ele>217.4</ele>
        <time>2024-12-25T12:15:07Z</time>
      </trkpt>
      <trkpt lat="44.7881" lon="1.57433">
        <ele>217.4</ele>
        <time>2024-12-25T12:15:08Z</time>
      </trkpt>
      <trkpt lat="44.7881" lon="1.57434">
        <ele>217.5</ele>
        <time>2024-12-25T12:15:09Z</time>
      </trkpt>
      <trkpt lat="44.7881" lon="1.57434">
        <ele>217.5</ele>
        <time>2024-12-25T12:15:10Z</time>
      </trkpt>
      <trkpt lat="44.7881" lon="1.57435">
        <ele>217.5</ele>
        <time>2024-12-25T12:15:11Z</time>
      </trkpt>
      <trkpt lat="44.7881" lon="1.57435">
        <ele>217.6</ele>
        <time>2024-12-25T12:15:12Z</time>
      </trkpt>
      <trkpt lat="44.7881" lon="1.57435">
        <ele>217.6</ele>
        <time>2024-12-25T12:15:13Z</time>
      </trkpt>
      <trkpt lat="44.78809" lon="1.57435">
        <ele>217.6</ele>
        <time>2024-12-25T12:15:14Z</time>
      </trkpt>
      <trkpt lat="44.78809" lon="1.57436">
        <ele>217.6</ele>
        <time>2024-12-25T12:15:15Z</time>
      </trkpt>
      <trkpt lat="44.78809" lon="1.57437">
        <ele>217.7</ele>
        <time>2024-12-25T12:15:16Z</time>
      </trkpt>
      <trkpt lat="44.78809" lon="1.57439">
        <ele>217.8</ele>
        <time>2024-12-25T12:15:17Z</time>
      </trkpt>
      <trkpt lat="44.78808" lon="1.5744">
        <ele>217.9</ele>
        <time>2024-12-25T12:15:18Z</time>
      </trkpt>
      <trkpt lat="44.78808" lon="1.57442">
        <ele>218</ele>
        <time>2024-12-25T12:15:19Z</time>
      </trkpt>
      <trkpt lat="44.78807" lon="1.57443">
        <ele>218.1</ele>
        <time>2024-12-25T12:15:20Z</time>
      </trkpt>
      <trkpt lat="44.78807" lon="1.57444">
        <ele>218.2</ele>
        <time>2024-12-25T12:15:21Z</time>
      </trkpt>
      <trkpt lat="44.78806" lon="1.57445">
        <ele>218.3</ele>
        <time>2024-12-25T12:15:22Z</time>
      </trkpt>
      <trkpt lat="44.78805" lon="1.57447">
        <ele>218.4</ele>
        <time>2024-12-25T12:15:23Z</time>
      </trkpt>
      <trkpt lat="44.78804" lon="1.57448">
        <ele>218.4</ele>
        <time>2024-12-25T12:15:24Z</time>
      </trkpt>
      <trkpt lat="44.78804" lon="1.57449">
        <ele>218.5</ele>
        <time>2024-12-25T12:15:25Z</time>
      </trkpt>
      <trkpt lat="44.78803" lon="1.5745">
        <ele>218.6</ele>
        <time>2024-12-25T12:15:26Z</time>
      </trkpt>
      <trkpt lat="44.78802" lon="1.57452">
        <ele>218.8</ele>
        <time>2024-12-25T12:15:27Z</time>
      </trkpt>
      <trkpt lat="44.78802" lon="1.57453">
        <ele>218.9</ele>
        <time>2024-12-25T12:15:28Z</time>
      </trkpt>
      <trkpt lat="44.78801" lon="1.57454">
        <ele>219</ele>
        <time>2024-12-25T12:15:29Z</time>
      </trkpt>
      <trkpt lat="44.788" lon="1.57455">
        <ele>219.2</ele>
        <time>2024-12-25T12:15:31Z</time>
      </trkpt>
      <trkpt lat="44.78799" lon="1.57456">
        <ele>219.3</ele>
        <time>2024-12-25T12:15:32Z</time>
      </trkpt>
      <trkpt lat="44.78798" lon="1.57458">
        <ele>219.5</ele>
        <time>2024-12-25T12:15:33Z</time>
      </trkpt>
      <trkpt lat="44.78797" lon="1.57458">
        <ele>219.6</ele>
        <time>2024-12-25T12:15:34Z</time>
      </trkpt>
      <trkpt lat="44.78796" lon="1.57459">
        <ele>219.8</ele>
        <time>2024-12-25T12:15:35Z</time>
      </trkpt>
      <trkpt lat="44.78796" lon="1.5746">
        <ele>219.9</ele>
        <time>2024-12-25T12:15:36Z</time>
      </trkpt>
      <trkpt lat="44.78795" lon="1.57462">
        <ele>220.1</ele>
        <time>2024-12-25T12:15:37Z</time>
      </trkpt>
      <trkpt lat="44.78795" lon="1.57463">
        <ele>220.2</ele>
        <time>2024-12-25T12:15:38Z</time>
      </trkpt>
      <trkpt lat="44.78794" lon="1.57464">
        <ele>220.4</ele>
        <time>2024-12-25T12:15:39Z</time>
      </trkpt>
      <trkpt lat="44.78793" lon="1.57465">
        <ele>220.5</ele>
        <time>2024-12-25T12:15:40Z</time>
      </trkpt>
      <trkpt lat="44.78793" lon="1.57466">
        <ele>220.7</ele>
        <time>2024-12-25T12:15:41Z</time>
      </trkpt>
      <trkpt lat="44.78792" lon="1.57468">
        <ele>220.9</ele>
        <time>2024-12-25T12:15:42Z</time>
      </trkpt>
      <trkpt lat="44.78791" lon="1.5747">
        <ele>221.2</ele>
        <time>2024-12-25T12:15:43Z</time>
      </trkpt>
      <trkpt lat="44.78791" lon="1.57471">
        <ele>221.3</ele>
        <time>2024-12-25T12:15:44Z</time>
      </trkpt>
      <trkpt lat="44.7879" lon="1.57471">
        <ele>221.4</ele>
        <time>2024-12-25T12:15:45Z</time>
      </trkpt>
      <trkpt lat="44.7879" lon="1.57472">
        <ele>221.6</ele>
        <time>2024-12-25T12:15:46Z</time>
      </trkpt>
      <trkpt lat="44.78789" lon="1.57474">
        <ele>221.8</ele>
        <time>2024-12-25T12:15:47Z</time>
      </trkpt>
      <trkpt lat="44.78789" lon="1.57475">
        <ele>221.9</ele>
        <time>2024-12-25T12:15:48Z</time>
      </trkpt>
      <trkpt lat="44.78788" lon="1.57477">
        <ele>222.1</ele>
        <time>2024-12-25T12:15:49Z</time>
      </trkpt>
      <trkpt lat="44.78788" lon="1.57479">
        <ele>222.5</ele>
        <time>2024-12-25T12:15:50Z</time>
      </trkpt>
      <trkpt lat="44.78787" lon="1.5748">
        <ele>222.6</ele>
        <time>2024-12-25T12:15:51Z</time>
      </trkpt>
      <trkpt lat="44.78787" lon="1.57482">
        <ele>222.8</ele>
        <time>2024-12-25T12:15:52Z</time>
      </trkpt>
      <trkpt lat="44.78787" lon="1.57483">
        <ele>223</ele>
        <time>2024-12-25T12:15:53Z</time>
      </trkpt>
      <trkpt lat="44.78787" lon="1.57484">
        <ele>223.1</ele>
        <time>2024-12-25T12:15:54Z</time>
      </trkpt>
      <trkpt lat="44.78786" lon="1.57486">
        <ele>223.4</ele>
        <time>2024-12-25T12:15:55Z</time>
      </trkpt>
      <trkpt lat="44.78786" lon="1.57487">
        <ele>223.5</ele>
        <time>2024-12-25T12:15:56Z</time>
      </trkpt>
      <trkpt lat="44.78785" lon="1.57489">
        <ele>223.8</ele>
        <time>2024-12-25T12:15:57Z</time>
      </trkpt>
      <trkpt lat="44.78785" lon="1.5749">
        <ele>223.9</ele>
        <time>2024-12-25T12:15:58Z</time>
      </trkpt>
      <trkpt lat="44.78783" lon="1.57492">
        <ele>224.3</ele>
        <time>2024-12-25T12:15:59Z</time>
      </trkpt>
      <trkpt lat="44.78783" lon="1.57493">
        <ele>224.4</ele>
        <time>2024-12-25T12:16:00Z</time>
      </trkpt>
      <trkpt lat="44.78782" lon="1.57494">
        <ele>224.6</ele>
        <time>2024-12-25T12:16:01Z</time>
      </trkpt>
      <trkpt lat="44.78782" lon="1.57496">
        <ele>224.9</ele>
        <time>2024-12-25T12:16:02Z</time>
      </trkpt>
      <trkpt lat="44.78781" lon="1.57497">
        <ele>225</ele>
        <time>2024-12-25T12:16:03Z</time>
      </trkpt>
      <trkpt lat="44.7878" lon="1.57498">
        <ele>225.2</ele>
        <time>2024-12-25T12:16:04Z</time>
      </trkpt>
      <trkpt lat="44.7878" lon="1.57499">
        <ele>225.4</ele>
        <time>2024-12-25T12:16:05Z</time>
      </trkpt>
      <trkpt lat="44.78779" lon="1.575">
        <ele>225.6</ele>
        <time>2024-12-25T12:16:06Z</time>
      </trkpt>
      <trkpt lat="44.78778" lon="1.57502">
        <ele>225.8</ele>
        <time>2024-12-25T12:16:07Z</time>
      </trkpt>
      <trkpt lat="44.78777" lon="1.57503">
        <ele>226</ele>
        <time>2024-12-25T12:16:08Z</time>
      </trkpt>
      <trkpt lat="44.78777" lon="1.57504">
        <ele>226.2</ele>
        <time>2024-12-25T12:16:09Z</time>
      </trkpt>
      <trkpt lat="44.78776" lon="1.57506">
        <ele>226.4</ele>
        <time>2024-12-25T12:16:10Z</time>
      </trkpt>
      <trkpt lat="44.78776" lon="1.57507">
        <ele>226.6</ele>
        <time>2024-12-25T12:16:11Z</time>
      </trkpt>
      <trkpt lat="44.78775" lon="1.57509">
        <ele>226.9</ele>
        <time>2024-12-25T12:16:12Z</time>
      </trkpt>
      <trkpt lat="44.78774" lon="1.5751">
        <ele>227</ele>
        <time>2024-12-25T12:16:13Z</time>
      </trkpt>
      <trkpt lat="44.78774" lon="1.57511">
        <ele>227.1</ele>
        <time>2024-12-25T12:16:14Z</time>
      </trkpt>
      <trkpt lat="44.78773" lon="1.57511">
        <ele>227.3</ele>
        <time>2024-12-25T12:16:15Z</time>
      </trkpt>
      <trkpt lat="44.78772" lon="1.57513">
        <ele>227.4</ele>
        <time>2024-12-25T12:16:16Z</time>
      </trkpt>
      <trkpt lat="44.78771" lon="1.57514">
        <ele>227.7</ele>
        <time>2024-12-25T12:16:17Z</time>
      </trkpt>
      <trkpt lat="44.78771" lon="1.57515">
        <ele>227.8</ele>
        <time>2024-12-25T12:16:18Z</time>
      </trkpt>
      <trkpt lat="44.7877" lon="1.57516">
        <ele>228</ele>
        <time>2024-12-25T12:16:19Z</time>
      </trkpt>
      <trkpt lat="44.78769" lon="1.57519">
        <ele>228.3</ele>
        <time>2024-12-25T12:16:20Z</time>
      </trkpt>
      <trkpt lat="44.78769" lon="1.5752">
        <ele>228.5</ele>
        <time>2024-12-25T12:16:21Z</time>
      </trkpt>
      <trkpt lat="44.78768" lon="1.57521">
        <ele>228.6</ele>
        <time>2024-12-25T12:16:22Z</time>
      </trkpt>
      <trkpt lat="44.78768" lon="1.57521">
        <ele>228.7</ele>
        <time>2024-12-25T12:16:23Z</time>
      </trkpt>
      <trkpt lat="44.78767" lon="1.57523">
        <ele>229</ele>
        <time>2024-12-25T12:16:24Z</time>
      </trkpt>
      <trkpt lat="44.78766" lon="1.57524">
        <ele>229.2</ele>
        <time>2024-12-25T12:16:25Z</time>
      </trkpt>
      <trkpt lat="44.78766" lon="1.57525">
        <ele>229.3</ele>
        <time>2024-12-25T12:16:26Z</time>
      </trkpt>
      <trkpt lat="44.78765" lon="1.57527">
        <ele>229.6</ele>
        <time>2024-12-25T12:16:27Z</time>
      </trkpt>
      <trkpt lat="44.78764" lon="1.57528">
        <ele>229.8</ele>
        <time>2024-12-25T12:16:28Z</time>
      </trkpt>
      <trkpt lat="44.78764" lon="1.5753">
        <ele>230.1</ele>
        <time>2024-12-25T12:16:29Z</time>
      </trkpt>
      <trkpt lat="44.78763" lon="1.57531">
        <ele>230.3</ele>
        <time>2024-12-25T12:16:30Z</time>
      </trkpt>
      <trkpt lat="44.78763" lon="1.57533">
        <ele>230.5</ele>
        <time>2024-12-25T12:16:31Z</time>
      </trkpt>
      <trkpt lat="44.78761" lon="1.57534">
        <ele>230.8</ele>
        <time>2024-12-25T12:16:32Z</time>
      </trkpt>
      <trkpt lat="44.78761" lon="1.57535">
        <ele>230.9</ele>
        <time>2024-12-25T12:16:33Z</time>
      </trkpt>
      <trkpt lat="44.78761" lon="1.57536">
        <ele>231.1</ele>
        <time>2024-12-25T12:16:34Z</time>
      </trkpt>
      <trkpt lat="44.7876" lon="1.57537">
        <ele>231.3</ele>
        <time>2024-12-25T12:16:35Z</time>
      </trkpt>
      <trkpt lat="44.78759" lon="1.57538">
        <ele>231.5</ele>
        <time>2024-12-25T12:16:36Z</time>
      </trkpt>
      <trkpt lat="44.78759" lon="1.57539">
        <ele>231.7</ele>
        <time>2024-12-25T12:16:37Z</time>
      </trkpt>
      <trkpt lat="44.78758" lon="1.5754">
        <ele>231.9</ele>
        <time>2024-12-25T12:16:38Z</time>
      </trkpt>
      <trkpt lat="44.78757" lon="1.57541">
        <ele>232.1</ele>
        <time>2024-12-25T12:16:39Z</time>
      </trkpt>
      <trkpt lat="44.78756" lon="1.57542">
        <ele>232.3</ele>
        <time>2024-12-25T12:16:40Z</time>
      </trkpt>
      <trkpt lat="44.78756" lon="1.57543">
        <ele>232.5</ele>
        <time>2024-12-25T12:16:41Z</time>
      </trkpt>
      <trkpt lat="44.78755" lon="1.57544">
        <ele>232.6</ele>
        <time>2024-12-25T12:16:42Z</time>
      </trkpt>
      <trkpt lat="44.78754" lon="1.57546">
        <ele>232.9</ele>
        <time>2024-12-25T12:16:43Z</time>
      </trkpt>
      <trkpt lat="44.78754" lon="1.57547">
        <ele>233</ele>
        <time>2024-12-25T12:16:44Z</time>
      </trkpt>
      <trkpt lat="44.78753" lon="1.57548">
        <ele>233.2</ele>
        <time>2024-12-25T12:16:45Z</time>
      </trkpt>
      <trkpt lat="44.78752" lon="1.57549">
        <ele>233.4</ele>
        <time>2024-12-25T12:16:46Z</time>
      </trkpt>
      <trkpt lat="44.78752" lon="1.5755">
        <ele>233.6</ele>
        <time>2024-12-25T12:16:47Z</time>
      </trkpt>
      <trkpt lat="44.78751" lon="1.57551">
        <ele>233.8</ele>
        <time>2024-12-25T12:16:48Z</time>
      </trkpt>
      <trkpt lat="44.7875" lon="1.57552">
        <ele>234</ele>
        <time>2024-12-25T12:16:49Z</time>
      </trkpt>
      <trkpt lat="44.78749" lon="1.57553">
        <ele>234.2</ele>
        <time>2024-12-25T12:16:50Z</time>
      </trkpt>
      <trkpt lat="44.78748" lon="1.57554">
        <ele>234.4</ele>
        <time>2024-12-25T12:16:51Z</time>
      </trkpt>
      <trkpt lat="44.78747" lon="1.57555">
        <ele>234.6</ele>
        <time>2024-12-25T12:16:52Z</time>
      </trkpt>
      <trkpt lat="44.78747" lon="1.57556">
        <ele>234.8</ele>
        <time>2024-12-25T12:16:53Z</time>
      </trkpt>
      <trkpt lat="44.78746" lon="1.57557">
        <ele>235</ele>
        <time>2024-12-25T12:16:54Z</time>
      </trkpt>
      <trkpt lat="44.78745" lon="1.57558">
        <ele>235.2</ele>
        <time>2024-12-25T12:16:55Z</time>
      </trkpt>
      <trkpt lat="44.78744" lon="1.5756">
        <ele>235.4</ele>
        <time>2024-12-25T12:16:56Z</time>
      </trkpt>
      <trkpt lat="44.78743" lon="1.57561">
        <ele>235.6</ele>
        <time>2024-12-25T12:16:57Z</time>
      </trkpt>
      <trkpt lat="44.78743" lon="1.57561">
        <ele>235.7</ele>
        <time>2024-12-25T12:16:58Z</time>
      </trkpt>
      <trkpt lat="44.78742" lon="1.57563">
        <ele>235.9</ele>
        <time>2024-12-25T12:16:59Z</time>
      </trkpt>
      <trkpt lat="44.78741" lon="1.57564">
        <ele>236.1</ele>
        <time>2024-12-25T12:17:00Z</time>
      </trkpt>
      <trkpt lat="44.7874" lon="1.57565">
        <ele>236.3</ele>
        <time>2024-12-25T12:17:01Z</time>
      </trkpt>
      <trkpt lat="44.78739" lon="1.57566">
        <ele>236.5</ele>
        <time>2024-12-25T12:17:02Z</time>
      </trkpt>
      <trkpt lat="44.78738" lon="1.57567">
        <ele>236.7</ele>
        <time>2024-12-25T12:17:03Z</time>
      </trkpt>
      <trkpt lat="44.78738" lon="1.57568">
        <ele>236.9</ele>
        <time>2024-12-25T12:17:04Z</time>
      </trkpt>
      <trkpt lat="44.78736" lon="1.57571">
        <ele>237.3</ele>
        <time>2024-12-25T12:17:05Z</time>
      </trkpt>
      <trkpt lat="44.78736" lon="1.57572">
        <ele>237.4</ele>
        <time>2024-12-25T12:17:06Z</time>
      </trkpt>
      <trkpt lat="44.78735" lon="1.57573">
        <ele>237.6</ele>
        <time>2024-12-25T12:17:07Z</time>
      </trkpt>
      <trkpt lat="44.78734" lon="1.57575">
        <ele>237.9</ele>
        <time>2024-12-25T12:17:08Z</time>
      </trkpt>
      <trkpt lat="44.78733" lon="1.57576">
        <ele>238.1</ele>
        <time>2024-12-25T12:17:09Z</time>
      </trkpt>
      <trkpt lat="44.78732" lon="1.57578">
        <ele>238.3</ele>
        <time>2024-12-25T12:17:10Z</time>
      </trkpt>
      <trkpt lat="44.78731" lon="1.57579">
        <ele>238.5</ele>
        <time>2024-12-25T12:17:11Z</time>
      </trkpt>
      <trkpt lat="44.78729" lon="1.57583">
        <ele>239</ele>
        <time>2024-12-25T12:17:12Z</time>
      </trkpt>
      <trkpt lat="44.78728" lon="1.57584">
        <ele>239.2</ele>
        <time>2024-12-25T12:17:13Z</time>
      </trkpt>
      <trkpt lat="44.78727" lon="1.57586">
        <ele>239.4</ele>
        <time>2024-12-25T12:17:14Z</time>
      </trkpt>
      <trkpt lat="44.78726" lon="1.57588">
        <ele>239.6</ele>
        <time>2024-12-25T12:17:15Z</time>
      </trkpt>
      <trkpt lat="44.78725" lon="1.57589">
        <ele>239.8</ele>
        <time>2024-12-25T12:17:16Z</time>
      </trkpt>
      <trkpt lat="44.78724" lon="1.57591">
        <ele>240.1</ele>
        <time>2024-12-25T12:17:17Z</time>
      </trkpt>
      <trkpt lat="44.78724" lon="1.57592">
        <ele>240.2</ele>
        <time>2024-12-25T12:17:18Z</time>
      </trkpt>
      <trkpt lat="44.78723" lon="1.57593">
        <ele>240.4</ele>
        <time>2024-12-25T12:17:19Z</time>
      </trkpt>
      <trkpt lat="44.78722" lon="1.57594">
        <ele>240.5</ele>
        <time>2024-12-25T12:17:20Z</time>
      </trkpt>
      <trkpt lat="44.78722" lon="1.57596">
        <ele>240.7</ele>
        <time>2024-12-25T12:17:21Z</time>
      </trkpt>
      <trkpt lat="44.78721" lon="1.57597">
        <ele>240.9</ele>
        <time>2024-12-25T12:17:22Z</time>
      </trkpt>
      <trkpt lat="44.7872" lon="1.57598">
        <ele>241</ele>
        <time>2024-12-25T12:17:23Z</time>
      </trkpt>
      <trkpt lat="44.7872" lon="1.57599">
        <ele>241.2</ele>
        <time>2024-12-25T12:17:24Z</time>
      </trkpt>
      <trkpt lat="44.78719" lon="1.576">
        <ele>241.3</ele>
        <time>2024-12-25T12:17:25Z</time>
      </trkpt>
      <trkpt lat="44.78719" lon="1.57601">
        <ele>241.5</ele>
        <time>2024-12-25T12:17:26Z</time>
      </trkpt>
      <trkpt lat="44.78718" lon="1.57603">
        <ele>241.7</ele>
        <time>2024-12-25T12:17:27Z</time>
      </trkpt>
      <trkpt lat="44.78718" lon="1.57604">
        <ele>241.8</ele>
        <time>2024-12-25T12:17:28Z</time>
      </trkpt>
      <trkpt lat="44.78718" lon="1.57606">
        <ele>242</ele>
        <time>2024-12-25T12:17:29Z</time>
      </trkpt>
      <trkpt lat="44.78717" lon="1.57607">
        <ele>242.2</ele>
        <time>2024-12-25T12:17:30Z</time>
      </trkpt>
      <trkpt lat="44.78717" lon="1.57608">
        <ele>242.4</ele>
        <time>2024-12-25T12:17:31Z</time>
      </trkpt>
      <trkpt lat="44.78716" lon="1.5761">
        <ele>242.5</ele>
        <time>2024-12-25T12:17:32Z</time>
      </trkpt>
      <trkpt lat="44.78716" lon="1.57611">
        <ele>242.7</ele>
        <time>2024-12-25T12:17:33Z</time>
      </trkpt>
      <trkpt lat="44.78715" lon="1.57612">
        <ele>242.8</ele>
        <time>2024-12-25T12:17:34Z</time>
      </trkpt>
      <trkpt lat="44.78715" lon="1.57613">
        <ele>242.9</ele>
        <time>2024-12-25T12:17:35Z</time>
      </trkpt>
      <trkpt lat="44.78715" lon="1.57614">
        <ele>243.1</ele>
        <time>2024-12-25T12:17:36Z</time>
      </trkpt>
      <trkpt lat="44.78714" lon="1.57616">
        <ele>243.3</ele>
        <time>2024-12-25T12:17:37Z</time>
      </trkpt>
      <trkpt lat="44.78714" lon="1.57616">
        <ele>243.3</ele>
        <time>2024-12-25T12:17:38Z</time>
      </trkpt>
      <trkpt lat="44.78714" lon="1.57617">
        <ele>243.5</ele>
        <time>2024-12-25T12:17:39Z</time>
      </trkpt>
      <trkpt lat="44.78713" lon="1.57618">
        <ele>243.6</ele>
        <time>2024-12-25T12:17:40Z</time>
      </trkpt>
      <trkpt lat="44.78712" lon="1.57619">
        <ele>243.7</ele>
        <time>2024-12-25T12:17:41Z</time>
      </trkpt>
      <trkpt lat="44.78712" lon="1.5762">
        <ele>243.9</ele>
        <time>2024-12-25T12:17:42Z</time>
      </trkpt>
      <trkpt lat="44.78711" lon="1.57621">
        <ele>244</ele>
        <time>2024-12-25T12:17:43Z</time>
      </trkpt>
      <trkpt lat="44.7871" lon="1.57622">
        <ele>244.1</ele>
        <time>2024-12-25T12:17:44Z</time>
      </trkpt>
      <trkpt lat="44.7871" lon="1.57623">
        <ele>244.3</ele>
        <time>2024-12-25T12:17:45Z</time>
      </trkpt>
      <trkpt lat="44.78709" lon="1.57624">
        <ele>244.4</ele>
        <time>2024-12-25T12:17:46Z</time>
      </trkpt>
      <trkpt lat="44.78708" lon="1.57626">
        <ele>244.6</ele>
        <time>2024-12-25T12:17:47Z</time>
      </trkpt>
      <trkpt lat="44.78707" lon="1.57627">
        <ele>244.8</ele>
        <time>2024-12-25T12:17:48Z</time>
      </trkpt>
      <trkpt lat="44.78705" lon="1.57629">
        <ele>245</ele>
        <time>2024-12-25T12:17:49Z</time>
      </trkpt>
      <trkpt lat="44.78705" lon="1.5763">
        <ele>245.1</ele>
        <time>2024-12-25T12:17:50Z</time>
      </trkpt>
      <trkpt lat="44.78704" lon="1.57631">
        <ele>245.2</ele>
        <time>2024-12-25T12:17:51Z</time>
      </trkpt>
      <trkpt lat="44.78703" lon="1.57632">
        <ele>245.3</ele>
        <time>2024-12-25T12:17:52Z</time>
      </trkpt>
      <trkpt lat="44.78702" lon="1.57634">
        <ele>245.5</ele>
        <time>2024-12-25T12:17:53Z</time>
      </trkpt>
      <trkpt lat="44.78702" lon="1.57636">
        <ele>245.7</ele>
        <time>2024-12-25T12:17:54Z</time>
      </trkpt>
      <trkpt lat="44.78701" lon="1.57637">
        <ele>245.8</ele>
        <time>2024-12-25T12:17:55Z</time>
      </trkpt>
      <trkpt lat="44.787" lon="1.57638">
        <ele>245.9</ele>
        <time>2024-12-25T12:17:56Z</time>
      </trkpt>
      <trkpt lat="44.78699" lon="1.57638">
        <ele>246</ele>
        <time>2024-12-25T12:17:57Z</time>
      </trkpt>
      <trkpt lat="44.78698" lon="1.57639">
        <ele>246.1</ele>
        <time>2024-12-25T12:17:58Z</time>
      </trkpt>
      <trkpt lat="44.78698" lon="1.5764">
        <ele>246.2</ele>
        <time>2024-12-25T12:17:59Z</time>
      </trkpt>
      <trkpt lat="44.78697" lon="1.57641">
        <ele>246.2</ele>
        <time>2024-12-25T12:18:00Z</time>
      </trkpt>
      <trkpt lat="44.78697" lon="1.57641">
        <ele>246.3</ele>
        <time>2024-12-25T12:18:01Z</time>
      </trkpt>
      <trkpt lat="44.78696" lon="1.57642">
        <ele>246.4</ele>
        <time>2024-12-25T12:18:02Z</time>
      </trkpt>
      <trkpt lat="44.78696" lon="1.57643">
        <ele>246.4</ele>
        <time>2024-12-25T12:18:03Z</time>
      </trkpt>
      <trkpt lat="44.78696" lon="1.57644">
        <ele>246.5</ele>
        <time>2024-12-25T12:18:04Z</time>
      </trkpt>
      <trkpt lat="44.78696" lon="1.57646">
        <ele>246.6</ele>
        <time>2024-12-25T12:18:05Z</time>
      </trkpt>
      <trkpt lat="44.78695" lon="1.57647">
        <ele>246.7</ele>
        <time>2024-12-25T12:18:06Z</time>
      </trkpt>
      <trkpt lat="44.78695" lon="1.57649">
        <ele>246.8</ele>
        <time>2024-12-25T12:18:07Z</time>
      </trkpt>
      <trkpt lat="44.78695" lon="1.57649">
        <ele>246.8</ele>
        <time>2024-12-25T12:18:08Z</time>
      </trkpt>
      <trkpt lat="44.78694" lon="1.57651">
        <ele>246.9</ele>
        <time>2024-12-25T12:18:09Z</time>
      </trkpt>
      <trkpt lat="44.78694" lon="1.57652">
        <ele>246.9</ele>
        <time>2024-12-25T12:18:10Z</time>
      </trkpt>
      <trkpt lat="44.78693" lon="1.57653">
        <ele>247</ele>
        <time>2024-12-25T12:18:11Z</time>
      </trkpt>
      <trkpt lat="44.78693" lon="1.57654">
        <ele>247.1</ele>
        <time>2024-12-25T12:18:12Z</time>
      </trkpt>
      <trkpt lat="44.78692" lon="1.57655">
        <ele>247.1</ele>
        <time>2024-12-25T12:18:13Z</time>
      </trkpt>
      <trkpt lat="44.78692" lon="1.57656">
        <ele>247.2</ele>
        <time>2024-12-25T12:18:14Z</time>
      </trkpt>
      <trkpt lat="44.78691" lon="1.57658">
        <ele>247.2</ele>
        <time>2024-12-25T12:18:15Z</time>
      </trkpt>
      <trkpt lat="44.78691" lon="1.57659">
        <ele>247.3</ele>
        <time>2024-12-25T12:18:16Z</time>
      </trkpt>
      <trkpt lat="44.7869" lon="1.57661">
        <ele>247.4</ele>
        <time>2024-12-25T12:18:17Z</time>
      </trkpt>
      <trkpt lat="44.7869" lon="1.57662">
        <ele>247.4</ele>
        <time>2024-12-25T12:18:18Z</time>
      </trkpt>
      <trkpt lat="44.78689" lon="1.57663">
        <ele>247.5</ele>
        <time>2024-12-25T12:18:19Z</time>
      </trkpt>
      <trkpt lat="44.78688" lon="1.57665">
        <ele>247.6</ele>
        <time>2024-12-25T12:18:20Z</time>
      </trkpt>
      <trkpt lat="44.78688" lon="1.57666">
        <ele>247.7</ele>
        <time>2024-12-25T12:18:21Z</time>
      </trkpt>
      <trkpt lat="44.78687" lon="1.57667">
        <ele>247.7</ele>
        <time>2024-12-25T12:18:22Z</time>
      </trkpt>
      <trkpt lat="44.78687" lon="1.57668">
        <ele>247.8</ele>
        <time>2024-12-25T12:18:23Z</time>
      </trkpt>
      <trkpt lat="44.78687" lon="1.5767">
        <ele>247.8</ele>
        <time>2024-12-25T12:18:24Z</time>
      </trkpt>
      <trkpt lat="44.78687" lon="1.57671">
        <ele>247.9</ele>
        <time>2024-12-25T12:18:25Z</time>
      </trkpt>
      <trkpt lat="44.78686" lon="1.57672">
        <ele>247.9</ele>
        <time>2024-12-25T12:18:26Z</time>
      </trkpt>
      <trkpt lat="44.78685" lon="1.57674">
        <ele>248</ele>
        <time>2024-12-25T12:18:27Z</time>
      </trkpt>
      <trkpt lat="44.78685" lon="1.57674">
        <ele>248</ele>
        <time>2024-12-25T12:18:28Z</time>
      </trkpt>
      <trkpt lat="44.78684" lon="1.57676">
        <ele>248.1</ele>
        <time>2024-12-25T12:18:29Z</time>
      </trkpt>
      <trkpt lat="44.78684" lon="1.57677">
        <ele>248.2</ele>
        <time>2024-12-25T12:18:30Z</time>
      </trkpt>
      <trkpt lat="44.78684" lon="1.57679">
        <ele>248.2</ele>
        <time>2024-12-25T12:18:31Z</time>
      </trkpt>
      <trkpt lat="44.78683" lon="1.57682">
        <ele>248.4</ele>
        <time>2024-12-25T12:18:32Z</time>
      </trkpt>
      <trkpt lat="44.78683" lon="1.57683">
        <ele>248.4</ele>
        <time>2024-12-25T12:18:33Z</time>
      </trkpt>
      <trkpt lat="44.78682" lon="1.57684">
        <ele>248.5</ele>
        <time>2024-12-25T12:18:34Z</time>
      </trkpt>
      <trkpt lat="44.78682" lon="1.57685">
        <ele>248.5</ele>
        <time>2024-12-25T12:18:35Z</time>
      </trkpt>
      <trkpt lat="44.78681" lon="1.57687">
        <ele>248.6</ele>
        <time>2024-12-25T12:18:36Z</time>
      </trkpt>
      <trkpt lat="44.78681" lon="1.57689">
        <ele>248.7</ele>
        <time>2024-12-25T12:18:37Z</time>
      </trkpt>
      <trkpt lat="44.78681" lon="1.57689">
        <ele>248.7</ele>
        <time>2024-12-25T12:18:38Z</time>
      </trkpt>
      <trkpt lat="44.78681" lon="1.57691">
        <ele>248.8</ele>
        <time>2024-12-25T12:18:39Z</time>
      </trkpt>
      <trkpt lat="44.78681" lon="1.57692">
        <ele>248.8</ele>
        <time>2024-12-25T12:18:40Z</time>
      </trkpt>
      <trkpt lat="44.78681" lon="1.57693">
        <ele>248.9</ele>
        <time>2024-12-25T12:18:41Z</time>
      </trkpt>
      <trkpt lat="44.7868" lon="1.57695">
        <ele>248.9</ele>
        <time>2024-12-25T12:18:42Z</time>
      </trkpt>
      <trkpt lat="44.7868" lon="1.57696">
        <ele>249</ele>
        <time>2024-12-25T12:18:43Z</time>
      </trkpt>
      <trkpt lat="44.7868" lon="1.57697">
        <ele>249</ele>
        <time>2024-12-25T12:18:44Z</time>
      </trkpt>
      <trkpt lat="44.78679" lon="1.57698">
        <ele>249.1</ele>
        <time>2024-12-25T12:18:45Z</time>
      </trkpt>
      <trkpt lat="44.78679" lon="1.577">
        <ele>249.2</ele>
        <time>2024-12-25T12:18:46Z</time>
      </trkpt>
      <trkpt lat="44.78679" lon="1.57701">
        <ele>249.2</ele>
        <time>2024-12-25T12:18:47Z</time>
      </trkpt>
      <trkpt lat="44.78679" lon="1.57703">
        <ele>249.3</ele>
        <time>2024-12-25T12:18:48Z</time>
      </trkpt>
      <trkpt lat="44.78678" lon="1.57704">
        <ele>249.4</ele>
        <time>2024-12-25T12:18:49Z</time>
      </trkpt>
      <trkpt lat="44.78677" lon="1.57706">
        <ele>249.5</ele>
        <time>2024-12-25T12:18:50Z</time>
      </trkpt>
      <trkpt lat="44.78676" lon="1.57707">
        <ele>249.6</ele>
        <time>2024-12-25T12:18:51Z</time>
      </trkpt>
      <trkpt lat="44.78674" lon="1.57707">
        <ele>249.7</ele>
        <time>2024-12-25T12:18:52Z</time>
      </trkpt>
      <trkpt lat="44.78673" lon="1.57709">
        <ele>249.8</ele>
        <time>2024-12-25T12:18:53Z</time>
      </trkpt>
      <trkpt lat="44.78673" lon="1.57711">
        <ele>249.9</ele>
        <time>2024-12-25T12:18:54Z</time>
      </trkpt>
      <trkpt lat="44.78673" lon="1.57713">
        <ele>250</ele>
        <time>2024-12-25T12:18:55Z</time>
      </trkpt>
      <trkpt lat="44.78673" lon="1.57715">
        <ele>250.1</ele>
        <time>2024-12-25T12:18:56Z</time>
      </trkpt>
      <trkpt lat="44.78672" lon="1.57717">
        <ele>250.2</ele>
        <time>2024-12-25T12:18:57Z</time>
      </trkpt>
      <trkpt lat="44.78672" lon="1.57717">
        <ele>250.3</ele>
        <time>2024-12-25T12:18:58Z</time>
      </trkpt>
      <trkpt lat="44.78671" lon="1.57719">
        <ele>250.3</ele>
        <time>2024-12-25T12:18:59Z</time>
      </trkpt>
      <trkpt lat="44.78671" lon="1.5772">
        <ele>250.4</ele>
        <time>2024-12-25T12:19:00Z</time>
      </trkpt>
      <trkpt lat="44.7867" lon="1.57723">
        <ele>250.6</ele>
        <time>2024-12-25T12:19:01Z</time>
      </trkpt>
      <trkpt lat="44.78669" lon="1.57724">
        <ele>250.6</ele>
        <time>2024-12-25T12:19:02Z</time>
      </trkpt>
      <trkpt lat="44.78668" lon="1.57725">
        <ele>250.7</ele>
        <time>2024-12-25T12:19:03Z</time>
      </trkpt>
      <trkpt lat="44.78667" lon="1.57725">
        <ele>250.8</ele>
        <time>2024-12-25T12:19:04Z</time>
      </trkpt>
      <trkpt lat="44.78666" lon="1.57726">
        <ele>250.9</ele>
        <time>2024-12-25T12:19:05Z</time>
      </trkpt>
      <trkpt lat="44.78666" lon="1.57728">
        <ele>251</ele>
        <time>2024-12-25T12:19:06Z</time>
      </trkpt>
      <trkpt lat="44.78666" lon="1.5773">
        <ele>251.1</ele>
        <time>2024-12-25T12:19:07Z</time>
      </trkpt>
      <trkpt lat="44.78666" lon="1.57732">
        <ele>251.1</ele>
        <time>2024-12-25T12:19:08Z</time>
      </trkpt>
      <trkpt lat="44.78666" lon="1.57733">
        <ele>251.2</ele>
        <time>2024-12-25T12:19:09Z</time>
      </trkpt>
      <trkpt lat="44.78665" lon="1.57736">
        <ele>251.3</ele>
        <time>2024-12-25T12:19:10Z</time>
      </trkpt>
      <trkpt lat="44.78664" lon="1.57737">
        <ele>251.4</ele>
        <time>2024-12-25T12:19:11Z</time>
      </trkpt>
      <trkpt lat="44.78664" lon="1.57738">
        <ele>251.4</ele>
        <time>2024-12-25T12:19:12Z</time>
      </trkpt>
      <trkpt lat="44.78663" lon="1.57739">
        <ele>251.5</ele>
        <time>2024-12-25T12:19:13Z</time>
      </trkpt>
      <trkpt lat="44.78663" lon="1.57741">
        <ele>251.5</ele>
        <time>2024-12-25T12:19:14Z</time>
      </trkpt>
      <trkpt lat="44.78662" lon="1.57742">
        <ele>251.6</ele>
        <time>2024-12-25T12:19:15Z</time>
      </trkpt>
      <trkpt lat="44.78662" lon="1.57744">
        <ele>251.6</ele>
        <time>2024-12-25T12:19:16Z</time>
      </trkpt>
      <trkpt lat="44.78662" lon="1.57746">
        <ele>251.7</ele>
        <time>2024-12-25T12:19:17Z</time>
      </trkpt>
      <trkpt lat="44.78661" lon="1.57748">
        <ele>251.8</ele>
        <time>2024-12-25T12:19:18Z</time>
      </trkpt>
      <trkpt lat="44.7866" lon="1.57749">
        <ele>251.9</ele>
        <time>2024-12-25T12:19:19Z</time>
      </trkpt>
      <trkpt lat="44.78659" lon="1.57752">
        <ele>252</ele>
        <time>2024-12-25T12:19:20Z</time>
      </trkpt>
      <trkpt lat="44.78659" lon="1.57753">
        <ele>252</ele>
        <time>2024-12-25T12:19:21Z</time>
      </trkpt>
      <trkpt lat="44.78659" lon="1.57754">
        <ele>252</ele>
        <time>2024-12-25T12:19:22Z</time>
      </trkpt>
      <trkpt lat="44.78658" lon="1.57755">
        <ele>252.1</ele>
        <time>2024-12-25T12:19:23Z</time>
      </trkpt>
      <trkpt lat="44.78658" lon="1.57757">
        <ele>252.1</ele>
        <time>2024-12-25T12:19:24Z</time>
      </trkpt>
      <trkpt lat="44.78657" lon="1.57758">
        <ele>252.2</ele>
        <time>2024-12-25T12:19:25Z</time>
      </trkpt>
      <trkpt lat="44.78656" lon="1.57759">
        <ele>252.3</ele>
        <time>2024-12-25T12:19:26Z</time>
      </trkpt>
      <trkpt lat="44.78655" lon="1.5776">
        <ele>252.3</ele>
        <time>2024-12-25T12:19:27Z</time>
      </trkpt>
      <trkpt lat="44.78655" lon="1.57762">
        <ele>252.4</ele>
        <time>2024-12-25T12:19:28Z</time>
      </trkpt>
      <trkpt lat="44.78655" lon="1.57764">
        <ele>252.4</ele>
        <time>2024-12-25T12:19:29Z</time>
      </trkpt>
      <trkpt lat="44.78655" lon="1.57766">
        <ele>252.5</ele>
        <time>2024-12-25T12:19:30Z</time>
      </trkpt>
      <trkpt lat="44.78655" lon="1.57768">
        <ele>252.6</ele>
        <time>2024-12-25T12:19:31Z</time>
      </trkpt>
      <trkpt lat="44.78655" lon="1.57769">
        <ele>252.6</ele>
        <time>2024-12-25T12:19:32Z</time>
      </trkpt>
      <trkpt lat="44.78654" lon="1.5777">
        <ele>252.7</ele>
        <time>2024-12-25T12:19:33Z</time>
      </trkpt>
      <trkpt lat="44.78653" lon="1.57773">
        <ele>252.8</ele>
        <time>2024-12-25T12:19:34Z</time>
      </trkpt>
      <trkpt lat="44.78652" lon="1.57774">
        <ele>252.9</ele>
        <time>2024-12-25T12:19:35Z</time>
      </trkpt>
      <trkpt lat="44.78651" lon="1.57776">
        <ele>253</ele>
        <time>2024-12-25T12:19:36Z</time>
      </trkpt>
      <trkpt lat="44.78651" lon="1.57778">
        <ele>253</ele>
        <time>2024-12-25T12:19:37Z</time>
      </trkpt>
      <trkpt lat="44.7865" lon="1.5778">
        <ele>253.1</ele>
        <time>2024-12-25T12:19:38Z</time>
      </trkpt>
      <trkpt lat="44.78649" lon="1.57781">
        <ele>253.2</ele>
        <time>2024-12-25T12:19:39Z</time>
      </trkpt>
      <trkpt lat="44.78649" lon="1.57782">
        <ele>253.2</ele>
        <time>2024-12-25T12:19:40Z</time>
      </trkpt>
      <trkpt lat="44.78649" lon="1.57784">
        <ele>253.3</ele>
        <time>2024-12-25T12:19:41Z</time>
      </trkpt>
      <trkpt lat="44.78648" lon="1.57786">
        <ele>253.4</ele>
        <time>2024-12-25T12:19:42Z</time>
      </trkpt>
      <trkpt lat="44.78648" lon="1.57787">
        <ele>253.4</ele>
        <time>2024-12-25T12:19:43Z</time>
      </trkpt>
      <trkpt lat="44.78648" lon="1.57789">
        <ele>253.5</ele>
        <time>2024-12-25T12:19:44Z</time>
      </trkpt>
      <trkpt lat="44.78648" lon="1.57791">
        <ele>253.5</ele>
        <time>2024-12-25T12:19:45Z</time>
      </trkpt>
      <trkpt lat="44.78648" lon="1.57792">
        <ele>253.6</ele>
        <time>2024-12-25T12:19:46Z</time>
      </trkpt>
      <trkpt lat="44.78648" lon="1.57793">
        <ele>253.6</ele>
        <time>2024-12-25T12:19:47Z</time>
      </trkpt>
      <trkpt lat="44.78647" lon="1.57794">
        <ele>253.7</ele>
        <time>2024-12-25T12:19:48Z</time>
      </trkpt>
      <trkpt lat="44.78647" lon="1.57796">
        <ele>253.7</ele>
        <time>2024-12-25T12:19:49Z</time>
      </trkpt>
      <trkpt lat="44.78646" lon="1.57798">
        <ele>253.8</ele>
        <time>2024-12-25T12:19:50Z</time>
      </trkpt>
      <trkpt lat="44.78645" lon="1.57798">
        <ele>253.9</ele>
        <time>2024-12-25T12:19:51Z</time>
      </trkpt>
      <trkpt lat="44.78644" lon="1.578">
        <ele>253.9</ele>
        <time>2024-12-25T12:19:52Z</time>
      </trkpt>
      <trkpt lat="44.78644" lon="1.57802">
        <ele>254</ele>
        <time>2024-12-25T12:19:53Z</time>
      </trkpt>
      <trkpt lat="44.78643" lon="1.57803">
        <ele>254</ele>
        <time>2024-12-25T12:19:54Z</time>
      </trkpt>
      <trkpt lat="44.78642" lon="1.57805">
        <ele>254.1</ele>
        <time>2024-12-25T12:19:55Z</time>
      </trkpt>
      <trkpt lat="44.78642" lon="1.57806">
        <ele>254.2</ele>
        <time>2024-12-25T12:19:56Z</time>
      </trkpt>
      <trkpt lat="44.78641" lon="1.57809">
        <ele>254.3</ele>
        <time>2024-12-25T12:19:57Z</time>
      </trkpt>
      <trkpt lat="44.78641" lon="1.57811">
        <ele>254.3</ele>
        <time>2024-12-25T12:19:58Z</time>
      </trkpt>
      <trkpt lat="44.7864" lon="1.57812">
        <ele>254.3</ele>
        <time>2024-12-25T12:19:59Z</time>
      </trkpt>
      <trkpt lat="44.7864" lon="1.57814">
        <ele>254.4</ele>
        <time>2024-12-25T12:20:00Z</time>
      </trkpt>
      <trkpt lat="44.78639" lon="1.57816">
        <ele>254.5</ele>
        <time>2024-12-25T12:20:01Z</time>
      </trkpt>
      <trkpt lat="44.78638" lon="1.57817">
        <ele>254.5</ele>
        <time>2024-12-25T12:20:02Z</time>
      </trkpt>
      <trkpt lat="44.78637" lon="1.57819">
        <ele>254.5</ele>
        <time>2024-12-25T12:20:03Z</time>
      </trkpt>
      <trkpt lat="44.78637" lon="1.5782">
        <ele>254.6</ele>
        <time>2024-12-25T12:20:04Z</time>
      </trkpt>
      <trkpt lat="44.78636" lon="1.57821">
        <ele>254.6</ele>
        <time>2024-12-25T12:20:05Z</time>
      </trkpt>
      <trkpt lat="44.78636" lon="1.57823">
        <ele>254.6</ele>
        <time>2024-12-25T12:20:06Z</time>
      </trkpt>
      <trkpt lat="44.78635" lon="1.57825">
        <ele>254.6</ele>
        <time>2024-12-25T12:20:07Z</time>
      </trkpt>
      <trkpt lat="44.78635" lon="1.57827">
        <ele>254.7</ele>
        <time>2024-12-25T12:20:08Z</time>
      </trkpt>
      <trkpt lat="44.78634" lon="1.57829">
        <ele>254.7</ele>
        <time>2024-12-25T12:20:09Z</time>
      </trkpt>
      <trkpt lat="44.78634" lon="1.5783">
        <ele>254.7</ele>
        <time>2024-12-25T12:20:10Z</time>
      </trkpt>
      <trkpt lat="44.78634" lon="1.57832">
        <ele>254.8</ele>
        <time>2024-12-25T12:20:11Z</time>
      </trkpt>
      <trkpt lat="44.78634" lon="1.57833">
        <ele>254.8</ele>
        <time>2024-12-25T12:20:12Z</time>
      </trkpt>
      <trkpt lat="44.78633" lon="1.57835">
        <ele>254.8</ele>
        <time>2024-12-25T12:20:13Z</time>
      </trkpt>
      <trkpt lat="44.78632" lon="1.57837">
        <ele>254.8</ele>
        <time>2024-12-25T12:20:14Z</time>
      </trkpt>
      <trkpt lat="44.78631" lon="1.57839">
        <ele>254.9</ele>
        <time>2024-12-25T12:20:15Z</time>
      </trkpt>
      <trkpt lat="44.7863" lon="1.5784">
        <ele>254.9</ele>
        <time>2024-12-25T12:20:16Z</time>
      </trkpt>
      <trkpt lat="44.7863" lon="1.57843">
        <ele>254.9</ele>
        <time>2024-12-25T12:20:17Z</time>
      </trkpt>
      <trkpt lat="44.7863" lon="1.57844">
        <ele>255</ele>
        <time>2024-12-25T12:20:18Z</time>
      </trkpt>
      <trkpt lat="44.7863" lon="1.57845">
        <ele>255</ele>
        <time>2024-12-25T12:20:19Z</time>
      </trkpt>
      <trkpt lat="44.78629" lon="1.57849">
        <ele>255.1</ele>
        <time>2024-12-25T12:20:20Z</time>
      </trkpt>
      <trkpt lat="44.78628" lon="1.5785">
        <ele>255.1</ele>
        <time>2024-12-25T12:20:21Z</time>
      </trkpt>
      <trkpt lat="44.78627" lon="1.57852">
        <ele>255.2</ele>
        <time>2024-12-25T12:20:22Z</time>
      </trkpt>
      <trkpt lat="44.78627" lon="1.57852">
        <ele>255.2</ele>
        <time>2024-12-25T12:20:23Z</time>
      </trkpt>
      <trkpt lat="44.78626" lon="1.57854">
        <ele>255.2</ele>
        <time>2024-12-25T12:20:24Z</time>
      </trkpt>
      <trkpt lat="44.78626" lon="1.57855">
        <ele>255.3</ele>
        <time>2024-12-25T12:20:25Z</time>
      </trkpt>
      <trkpt lat="44.78625" lon="1.57857">
        <ele>255.3</ele>
        <time>2024-12-25T12:20:26Z</time>
      </trkpt>
      <trkpt lat="44.78625" lon="1.57861">
        <ele>255.4</ele>
        <time>2024-12-25T12:20:27Z</time>
      </trkpt>
      <trkpt lat="44.78624" lon="1.57865">
        <ele>255.5</ele>
        <time>2024-12-25T12:20:28Z</time>
      </trkpt>
      <trkpt lat="44.78624" lon="1.57865">
        <ele>255.6</ele>
        <time>2024-12-25T12:20:29Z</time>
      </trkpt>
      <trkpt lat="44.78624" lon="1.57866">
        <ele>255.6</ele>
        <time>2024-12-25T12:20:30Z</time>
      </trkpt>
      <trkpt lat="44.78623" lon="1.57868">
        <ele>255.6</ele>
        <time>2024-12-25T12:20:31Z</time>
      </trkpt>
      <trkpt lat="44.78623" lon="1.57869">
        <ele>255.7</ele>
        <time>2024-12-25T12:20:32Z</time>
      </trkpt>
      <trkpt lat="44.78623" lon="1.5787">
        <ele>255.7</ele>
        <time>2024-12-25T12:20:33Z</time>
      </trkpt>
      <trkpt lat="44.78622" lon="1.57871">
        <ele>255.7</ele>
        <time>2024-12-25T12:20:34Z</time>
      </trkpt>
      <trkpt lat="44.78622" lon="1.57872">
        <ele>255.8</ele>
        <time>2024-12-25T12:20:35Z</time>
      </trkpt>
      <trkpt lat="44.78621" lon="1.57873">
        <ele>255.8</ele>
        <time>2024-12-25T12:20:36Z</time>
      </trkpt>
      <trkpt lat="44.7862" lon="1.57874">
        <ele>255.8</ele>
        <time>2024-12-25T12:20:37Z</time>
      </trkpt>
      <trkpt lat="44.78619" lon="1.57875">
        <ele>255.9</ele>
        <time>2024-12-25T12:20:38Z</time>
      </trkpt>
      <trkpt lat="44.78618" lon="1.57876">
        <ele>255.9</ele>
        <time>2024-12-25T12:20:39Z</time>
      </trkpt>
      <trkpt lat="44.78617" lon="1.57879">
        <ele>256</ele>
        <time>2024-12-25T12:20:40Z</time>
      </trkpt>
      <trkpt lat="44.78617" lon="1.5788">
        <ele>256</ele>
        <time>2024-12-25T12:20:41Z</time>
      </trkpt>
      <trkpt lat="44.78616" lon="1.57881">
        <ele>256</ele>
        <time>2024-12-25T12:20:42Z</time>
      </trkpt>
      <trkpt lat="44.78615" lon="1.57882">
        <ele>256</ele>
        <time>2024-12-25T12:20:43Z</time>
      </trkpt>
      <trkpt lat="44.78614" lon="1.57884">
        <ele>256</ele>
        <time>2024-12-25T12:20:44Z</time>
      </trkpt>
      <trkpt lat="44.78613" lon="1.57886">
        <ele>256.1</ele>
        <time>2024-12-25T12:20:45Z</time>
      </trkpt>
      <trkpt lat="44.78612" lon="1.57887">
        <ele>256.1</ele>
        <time>2024-12-25T12:20:46Z</time>
      </trkpt>
      <trkpt lat="44.78612" lon="1.57888">
        <ele>256.1</ele>
        <time>2024-12-25T12:20:47Z</time>
      </trkpt>
      <trkpt lat="44.78611" lon="1.5789">
        <ele>256.1</ele>
        <time>2024-12-25T12:20:48Z</time>
      </trkpt>
      <trkpt lat="44.7861" lon="1.57891">
        <ele>256.1</ele>
        <time>2024-12-25T12:20:49Z</time>
      </trkpt>
      <trkpt lat="44.78608" lon="1.57894">
        <ele>256</ele>
        <time>2024-12-25T12:20:50Z</time>
      </trkpt>
      <trkpt lat="44.78608" lon="1.57895">
        <ele>256</ele>
        <time>2024-12-25T12:20:51Z</time>
      </trkpt>
      <trkpt lat="44.78607" lon="1.57896">
        <ele>256</ele>
        <time>2024-12-25T12:20:52Z</time>
      </trkpt>
      <trkpt lat="44.78607" lon="1.57898">
        <ele>256</ele>
        <time>2024-12-25T12:20:53Z</time>
      </trkpt>
      <trkpt lat="44.78606" lon="1.579">
        <ele>256</ele>
        <time>2024-12-25T12:20:54Z</time>
      </trkpt>
      <trkpt lat="44.78605" lon="1.57902">
        <ele>256</ele>
        <time>2024-12-25T12:20:55Z</time>
      </trkpt>
      <trkpt lat="44.78605" lon="1.57903">
        <ele>256</ele>
        <time>2024-12-25T12:20:56Z</time>
      </trkpt>
      <trkpt lat="44.78605" lon="1.57905">
        <ele>256</ele>
        <time>2024-12-25T12:20:57Z</time>
      </trkpt>
      <trkpt lat="44.78604" lon="1.57906">
        <ele>256</ele>
        <time>2024-12-25T12:20:58Z</time>
      </trkpt>
      <trkpt lat="44.78604" lon="1.57908">
        <ele>256</ele>
        <time>2024-12-25T12:20:59Z</time>
      </trkpt>
      <trkpt lat="44.78604" lon="1.57909">
        <ele>256</ele>
        <time>2024-12-25T12:21:00Z</time>
      </trkpt>
      <trkpt lat="44.78603" lon="1.57912">
        <ele>256</ele>
        <time>2024-12-25T12:21:01Z</time>
      </trkpt>
      <trkpt lat="44.78603" lon="1.57913">
        <ele>256</ele>
        <time>2024-12-25T12:21:02Z</time>
      </trkpt>
      <trkpt lat="44.78603" lon="1.57914">
        <ele>256</ele>
        <time>2024-12-25T12:21:03Z</time>
      </trkpt>
      <trkpt lat="44.78602" lon="1.57917">
        <ele>256</ele>
        <time>2024-12-25T12:21:04Z</time>
      </trkpt>
      <trkpt lat="44.78602" lon="1.57918">
        <ele>256</ele>
        <time>2024-12-25T12:21:05Z</time>
      </trkpt>
      <trkpt lat="44.78602" lon="1.57919">
        <ele>256</ele>
        <time>2024-12-25T12:21:06Z</time>
      </trkpt>
      <trkpt lat="44.78601" lon="1.57921">
        <ele>256</ele>
        <time>2024-12-25T12:21:07Z</time>
      </trkpt>
      <trkpt lat="44.786" lon="1.57923">
        <ele>256</ele>
        <time>2024-12-25T12:21:08Z</time>
      </trkpt>
      <trkpt lat="44.786" lon="1.57925">
        <ele>256</ele>
        <time>2024-12-25T12:21:09Z</time>
      </trkpt>
      <trkpt lat="44.786" lon="1.57927">
        <ele>256</ele>
        <time>2024-12-25T12:21:10Z</time>
      </trkpt>
      <trkpt lat="44.786" lon="1.57929">
        <ele>256</ele>
        <time>2024-12-25T12:21:11Z</time>
      </trkpt>
      <trkpt lat="44.78599" lon="1.57931">
        <ele>256</ele>
        <time>2024-12-25T12:21:12Z</time>
      </trkpt>
      <trkpt lat="44.78599" lon="1.57933">
        <ele>256</ele>
        <time>2024-12-25T12:21:13Z</time>
      </trkpt>
      <trkpt lat="44.78598" lon="1.57935">
        <ele>256</ele>
        <time>2024-12-25T12:21:14Z</time>
      </trkpt>
      <trkpt lat="44.78597" lon="1.57937">
        <ele>256</ele>
        <time>2024-12-25T12:21:15Z</time>
      </trkpt>
      <trkpt lat="44.78596" lon="1.57938">
        <ele>256</ele>
        <time>2024-12-25T12:21:16Z</time>
      </trkpt>
      <trkpt lat="44.78596" lon="1.57939">
        <ele>256</ele>
        <time>2024-12-25T12:21:17Z</time>
      </trkpt>
      <trkpt lat="44.78594" lon="1.57939">
        <ele>256</ele>
        <time>2024-12-25T12:21:18Z</time>
      </trkpt>
      <trkpt lat="44.78593" lon="1.57941">
        <ele>256</ele>
        <time>2024-12-25T12:21:19Z</time>
      </trkpt>
      <trkpt lat="44.78592" lon="1.57943">
        <ele>256</ele>
        <time>2024-12-25T12:21:20Z</time>
      </trkpt>
      <trkpt lat="44.78592" lon="1.57944">
        <ele>256</ele>
        <time>2024-12-25T12:21:21Z</time>
      </trkpt>
      <trkpt lat="44.78591" lon="1.57945">
        <ele>256</ele>
        <time>2024-12-25T12:21:22Z</time>
      </trkpt>
      <trkpt lat="44.78591" lon="1.57947">
        <ele>256</ele>
        <time>2024-12-25T12:21:23Z</time>
      </trkpt>
      <trkpt lat="44.78589" lon="1.57948">
        <ele>256</ele>
        <time>2024-12-25T12:21:24Z</time>
      </trkpt>
      <trkpt lat="44.78589" lon="1.57949">
        <ele>256</ele>
        <time>2024-12-25T12:21:25Z</time>
      </trkpt>
      <trkpt lat="44.78588" lon="1.57951">
        <ele>256.1</ele>
        <time>2024-12-25T12:21:26Z</time>
      </trkpt>
      <trkpt lat="44.78587" lon="1.57952">
        <ele>256.1</ele>
        <time>2024-12-25T12:21:27Z</time>
      </trkpt>
      <trkpt lat="44.78586" lon="1.57954">
        <ele>256.1</ele>
        <time>2024-12-25T12:21:28Z</time>
      </trkpt>
      <trkpt lat="44.78585" lon="1.57956">
        <ele>256.1</ele>
        <time>2024-12-25T12:21:29Z</time>
      </trkpt>
      <trkpt lat="44.78584" lon="1.57958">
        <ele>256.1</ele>
        <time>2024-12-25T12:21:30Z</time>
      </trkpt>
      <trkpt lat="44.78584" lon="1.57959">
        <ele>256.1</ele>
        <time>2024-12-25T12:21:31Z</time>
      </trkpt>
      <trkpt lat="44.78583" lon="1.5796">
        <ele>256.1</ele>
        <time>2024-12-25T12:21:32Z</time>
      </trkpt>
      <trkpt lat="44.78582" lon="1.57961">
        <ele>256.1</ele>
        <time>2024-12-25T12:21:33Z</time>
      </trkpt>
      <trkpt lat="44.78581" lon="1.57963">
        <ele>256.1</ele>
        <time>2024-12-25T12:21:34Z</time>
      </trkpt>
      <trkpt lat="44.7858" lon="1.57965">
        <ele>256.1</ele>
        <time>2024-12-25T12:21:35Z</time>
      </trkpt>
      <trkpt lat="44.7858" lon="1.57966">
        <ele>256.1</ele>
        <time>2024-12-25T12:21:36Z</time>
      </trkpt>
      <trkpt lat="44.78579" lon="1.57967">
        <ele>256.1</ele>
        <time>2024-12-25T12:21:37Z</time>
      </trkpt>
      <trkpt lat="44.78579" lon="1.57969">
        <ele>256.1</ele>
        <time>2024-12-25T12:21:38Z</time>
      </trkpt>
      <trkpt lat="44.78578" lon="1.57971">
        <ele>256.1</ele>
        <time>2024-12-25T12:21:39Z</time>
      </trkpt>
      <trkpt lat="44.78578" lon="1.57973">
        <ele>256.1</ele>
        <time>2024-12-25T12:21:40Z</time>
      </trkpt>
      <trkpt lat="44.78577" lon="1.57974">
        <ele>256.1</ele>
        <time>2024-12-25T12:21:41Z</time>
      </trkpt>
      <trkpt lat="44.78577" lon="1.57975">
        <ele>256.1</ele>
        <time>2024-12-25T12:21:42Z</time>
      </trkpt>
      <trkpt lat="44.78576" lon="1.57978">
        <ele>256.1</ele>
        <time>2024-12-25T12:21:43Z</time>
      </trkpt>
      <trkpt lat="44.78575" lon="1.57979">
        <ele>256.1</ele>
        <time>2024-12-25T12:21:44Z</time>
      </trkpt>
      <trkpt lat="44.78575" lon="1.5798">
        <ele>256.1</ele>
        <time>2024-12-25T12:21:45Z</time>
      </trkpt>
      <trkpt lat="44.78574" lon="1.57982">
        <ele>256</ele>
        <time>2024-12-25T12:21:46Z</time>
      </trkpt>
      <trkpt lat="44.78573" lon="1.57984">
        <ele>256</ele>
        <time>2024-12-25T12:21:47Z</time>
      </trkpt>
      <trkpt lat="44.78573" lon="1.57985">
        <ele>256</ele>
        <time>2024-12-25T12:21:48Z</time>
      </trkpt>
      <trkpt lat="44.78572" lon="1.57987">
        <ele>255.9</ele>
        <time>2024-12-25T12:21:49Z</time>
      </trkpt>
      <trkpt lat="44.78571" lon="1.5799">
        <ele>255.8</ele>
        <time>2024-12-25T12:21:50Z</time>
      </trkpt>
      <trkpt lat="44.7857" lon="1.57991">
        <ele>255.8</ele>
        <time>2024-12-25T12:21:52Z</time>
      </trkpt>
      <trkpt lat="44.7857" lon="1.57992">
        <ele>255.8</ele>
        <time>2024-12-25T12:21:53Z</time>
      </trkpt>
      <trkpt lat="44.78569" lon="1.57993">
        <ele>255.7</ele>
        <time>2024-12-25T12:21:54Z</time>
      </trkpt>
      <trkpt lat="44.78569" lon="1.57995">
        <ele>255.7</ele>
        <time>2024-12-25T12:21:55Z</time>
      </trkpt>
      <trkpt lat="44.78568" lon="1.57996">
        <ele>255.6</ele>
        <time>2024-12-25T12:21:56Z</time>
      </trkpt>
      <trkpt lat="44.78567" lon="1.57999">
        <ele>255.6</ele>
        <time>2024-12-25T12:21:57Z</time>
      </trkpt>
      <trkpt lat="44.78567" lon="1.58">
        <ele>255.5</ele>
        <time>2024-12-25T12:21:58Z</time>
      </trkpt>
      <trkpt lat="44.78566" lon="1.58002">
        <ele>255.5</ele>
        <time>2024-12-25T12:21:59Z</time>
      </trkpt>
      <trkpt lat="44.78566" lon="1.58005">
        <ele>255.4</ele>
        <time>2024-12-25T12:22:00Z</time>
      </trkpt>
      <trkpt lat="44.78565" lon="1.58006">
        <ele>255.4</ele>
        <time>2024-12-25T12:22:01Z</time>
      </trkpt>
      <trkpt lat="44.78565" lon="1.58007">
        <ele>255.4</ele>
        <time>2024-12-25T12:22:02Z</time>
      </trkpt>
      <trkpt lat="44.78564" lon="1.58009">
        <ele>255.4</ele>
        <time>2024-12-25T12:22:03Z</time>
      </trkpt>
      <trkpt lat="44.78563" lon="1.5801">
        <ele>255.4</ele>
        <time>2024-12-25T12:22:04Z</time>
      </trkpt>
      <trkpt lat="44.78563" lon="1.58011">
        <ele>255.4</ele>
        <time>2024-12-25T12:22:05Z</time>
      </trkpt>
      <trkpt lat="44.78562" lon="1.58014">
        <ele>255.4</ele>
        <time>2024-12-25T12:22:06Z</time>
      </trkpt>
      <trkpt lat="44.78561" lon="1.58015">
        <ele>255.4</ele>
        <time>2024-12-25T12:22:07Z</time>
      </trkpt>
      <trkpt lat="44.78561" lon="1.58016">
        <ele>255.4</ele>
        <time>2024-12-25T12:22:08Z</time>
      </trkpt>
      <trkpt lat="44.7856" lon="1.58019">
        <ele>255.4</ele>
        <time>2024-12-25T12:22:09Z</time>
      </trkpt>
      <trkpt lat="44.7856" lon="1.5802">
        <ele>255.4</ele>
        <time>2024-12-25T12:22:10Z</time>
      </trkpt>
      <trkpt lat="44.7856" lon="1.58021">
        <ele>255.4</ele>
        <time>2024-12-25T12:22:11Z</time>
      </trkpt>
      <trkpt lat="44.78559" lon="1.58023">
        <ele>255.4</ele>
        <time>2024-12-25T12:22:12Z</time>
      </trkpt>
      <trkpt lat="44.78558" lon="1.58025">
        <ele>255.4</ele>
        <time>2024-12-25T12:22:13Z</time>
      </trkpt>
      <trkpt lat="44.78557" lon="1.58026">
        <ele>255.5</ele>
        <time>2024-12-25T12:22:14Z</time>
      </trkpt>
      <trkpt lat="44.78557" lon="1.58027">
        <ele>255.5</ele>
        <time>2024-12-25T12:22:15Z</time>
      </trkpt>
      <trkpt lat="44.78556" lon="1.58028">
        <ele>255.5</ele>
        <time>2024-12-25T12:22:16Z</time>
      </trkpt>
      <trkpt lat="44.78554" lon="1.5803">
        <ele>255.6</ele>
        <time>2024-12-25T12:22:17Z</time>
      </trkpt>
      <trkpt lat="44.78553" lon="1.58031">
        <ele>255.6</ele>
        <time>2024-12-25T12:22:18Z</time>
      </trkpt>
      <trkpt lat="44.78552" lon="1.58031">
        <ele>255.6</ele>
        <time>2024-12-25T12:22:19Z</time>
      </trkpt>
      <trkpt lat="44.7855" lon="1.58033">
        <ele>255.7</ele>
        <time>2024-12-25T12:22:20Z</time>
      </trkpt>
      <trkpt lat="44.7855" lon="1.58034">
        <ele>255.7</ele>
        <time>2024-12-25T12:22:21Z</time>
      </trkpt>
      <trkpt lat="44.78549" lon="1.58035">
        <ele>255.7</ele>
        <time>2024-12-25T12:22:22Z</time>
      </trkpt>
      <trkpt lat="44.78548" lon="1.58036">
        <ele>255.7</ele>
        <time>2024-12-25T12:22:23Z</time>
      </trkpt>
      <trkpt lat="44.78547" lon="1.58037">
        <ele>255.8</ele>
        <time>2024-12-25T12:22:24Z</time>
      </trkpt>
      <trkpt lat="44.78547" lon="1.58038">
        <ele>255.8</ele>
        <time>2024-12-25T12:22:25Z</time>
      </trkpt>
      <trkpt lat="44.78546" lon="1.58039">
        <ele>255.8</ele>
        <time>2024-12-25T12:22:26Z</time>
      </trkpt>
      <trkpt lat="44.78544" lon="1.58041">
        <ele>255.9</ele>
        <time>2024-12-25T12:22:27Z</time>
      </trkpt>
      <trkpt lat="44.78542" lon="1.58044">
        <ele>256</ele>
        <time>2024-12-25T12:22:28Z</time>
      </trkpt>
      <trkpt lat="44.78541" lon="1.58046">
        <ele>256</ele>
        <time>2024-12-25T12:22:29Z</time>
      </trkpt>
      <trkpt lat="44.7854" lon="1.58046">
        <ele>256</ele>
        <time>2024-12-25T12:22:30Z</time>
      </trkpt>
      <trkpt lat="44.7854" lon="1.58048">
        <ele>256.1</ele>
        <time>2024-12-25T12:22:31Z</time>
      </trkpt>
      <trkpt lat="44.7854" lon="1.58049">
        <ele>256.1</ele>
        <time>2024-12-25T12:22:32Z</time>
      </trkpt>
      <trkpt lat="44.78539" lon="1.5805">
        <ele>256.1</ele>
        <time>2024-12-25T12:22:33Z</time>
      </trkpt>
      <trkpt lat="44.78538" lon="1.58052">
        <ele>256.2</ele>
        <time>2024-12-25T12:22:34Z</time>
      </trkpt>
      <trkpt lat="44.78537" lon="1.58053">
        <ele>256.2</ele>
        <time>2024-12-25T12:22:35Z</time>
      </trkpt>
      <trkpt lat="44.78536" lon="1.58054">
        <ele>256.2</ele>
        <time>2024-12-25T12:22:36Z</time>
      </trkpt>
      <trkpt lat="44.78535" lon="1.58055">
        <ele>256.3</ele>
        <time>2024-12-25T12:22:37Z</time>
      </trkpt>
      <trkpt lat="44.78535" lon="1.58056">
        <ele>256.3</ele>
        <time>2024-12-25T12:22:38Z</time>
      </trkpt>
      <trkpt lat="44.78533" lon="1.58059">
        <ele>256.3</ele>
        <time>2024-12-25T12:22:39Z</time>
      </trkpt>
      <trkpt lat="44.78533" lon="1.58059">
        <ele>256.4</ele>
        <time>2024-12-25T12:22:40Z</time>
      </trkpt>
      <trkpt lat="44.78532" lon="1.5806">
        <ele>256.4</ele>
        <time>2024-12-25T12:22:41Z</time>
      </trkpt>
      <trkpt lat="44.78531" lon="1.58062">
        <ele>256.4</ele>
        <time>2024-12-25T12:22:42Z</time>
      </trkpt>
      <trkpt lat="44.7853" lon="1.58063">
        <ele>256.5</ele>
        <time>2024-12-25T12:22:43Z</time>
      </trkpt>
      <trkpt lat="44.78529" lon="1.58065">
        <ele>256.5</ele>
        <time>2024-12-25T12:22:44Z</time>
      </trkpt>
      <trkpt lat="44.78528" lon="1.58066">
        <ele>256.5</ele>
        <time>2024-12-25T12:22:45Z</time>
      </trkpt>
      <trkpt lat="44.78528" lon="1.58067">
        <ele>256.5</ele>
        <time>2024-12-25T12:22:46Z</time>
      </trkpt>
      <trkpt lat="44.78526" lon="1.58069">
        <ele>256.5</ele>
        <time>2024-12-25T12:22:47Z</time>
      </trkpt>
      <trkpt lat="44.78525" lon="1.58071">
        <ele>256.5</ele>
        <time>2024-12-25T12:22:48Z</time>
      </trkpt>
      <trkpt lat="44.78524" lon="1.58072">
        <ele>256.6</ele>
        <time>2024-12-25T12:22:49Z</time>
      </trkpt>
      <trkpt lat="44.78523" lon="1.58072">
        <ele>256.6</ele>
        <time>2024-12-25T12:22:50Z</time>
      </trkpt>
      <trkpt lat="44.78522" lon="1.58074">
        <ele>256.6</ele>
        <time>2024-12-25T12:22:51Z</time>
      </trkpt>
      <trkpt lat="44.78522" lon="1.58077">
        <ele>256.6</ele>
        <time>2024-12-25T12:22:52Z</time>
      </trkpt>
      <trkpt lat="44.78521" lon="1.58079">
        <ele>256.6</ele>
        <time>2024-12-25T12:22:53Z</time>
      </trkpt>
      <trkpt lat="44.7852" lon="1.58082">
        <ele>256.6</ele>
        <time>2024-12-25T12:22:54Z</time>
      </trkpt>
      <trkpt lat="44.7852" lon="1.58083">
        <ele>256.6</ele>
        <time>2024-12-25T12:22:55Z</time>
      </trkpt>
      <trkpt lat="44.7852" lon="1.58084">
        <ele>256.6</ele>
        <time>2024-12-25T12:22:56Z</time>
      </trkpt>
      <trkpt lat="44.7852" lon="1.58086">
        <ele>256.6</ele>
        <time>2024-12-25T12:22:57Z</time>
      </trkpt>
      <trkpt lat="44.78519" lon="1.58088">
        <ele>256.6</ele>
        <time>2024-12-25T12:22:58Z</time>
      </trkpt>
      <trkpt lat="44.78518" lon="1.58089">
        <ele>256.6</ele>
        <time>2024-12-25T12:22:59Z</time>
      </trkpt>
      <trkpt lat="44.78518" lon="1.5809">
        <ele>256.6</ele>
        <time>2024-12-25T12:23:00Z</time>
      </trkpt>
      <trkpt lat="44.78517" lon="1.58092">
        <ele>256.7</ele>
        <time>2024-12-25T12:23:01Z</time>
      </trkpt>
      <trkpt lat="44.78517" lon="1.58094">
        <ele>256.7</ele>
        <time>2024-12-25T12:23:02Z</time>
      </trkpt>
      <trkpt lat="44.78517" lon="1.58095">
        <ele>256.7</ele>
        <time>2024-12-25T12:23:03Z</time>
      </trkpt>
      <trkpt lat="44.78516" lon="1.58096">
        <ele>256.7</ele>
        <time>2024-12-25T12:23:04Z</time>
      </trkpt>
      <trkpt lat="44.78515" lon="1.58098">
        <ele>256.8</ele>
        <time>2024-12-25T12:23:05Z</time>
      </trkpt>
      <trkpt lat="44.78514" lon="1.58099">
        <ele>256.8</ele>
        <time>2024-12-25T12:23:06Z</time>
      </trkpt>
      <trkpt lat="44.78513" lon="1.581">
        <ele>256.9</ele>
        <time>2024-12-25T12:23:07Z</time>
      </trkpt>
      <trkpt lat="44.78512" lon="1.58102">
        <ele>256.9</ele>
        <time>2024-12-25T12:23:08Z</time>
      </trkpt>
      <trkpt lat="44.78511" lon="1.58103">
        <ele>257</ele>
        <time>2024-12-25T12:23:09Z</time>
      </trkpt>
      <trkpt lat="44.7851" lon="1.58104">
        <ele>257</ele>
        <time>2024-12-25T12:23:10Z</time>
      </trkpt>
      <trkpt lat="44.7851" lon="1.58105">
        <ele>257.1</ele>
        <time>2024-12-25T12:23:11Z</time>
      </trkpt>
      <trkpt lat="44.78509" lon="1.58106">
        <ele>257.1</ele>
        <time>2024-12-25T12:23:12Z</time>
      </trkpt>
      <trkpt lat="44.78508" lon="1.58108">
        <ele>257.2</ele>
        <time>2024-12-25T12:23:13Z</time>
      </trkpt>
      <trkpt lat="44.78507" lon="1.58109">
        <ele>257.3</ele>
        <time>2024-12-25T12:23:14Z</time>
      </trkpt>
      <trkpt lat="44.78506" lon="1.58111">
        <ele>257.4</ele>
        <time>2024-12-25T12:23:15Z</time>
      </trkpt>
      <trkpt lat="44.78505" lon="1.58112">
        <ele>257.4</ele>
        <time>2024-12-25T12:23:16Z</time>
      </trkpt>
      <trkpt lat="44.78505" lon="1.58113">
        <ele>257.5</ele>
        <time>2024-12-25T12:23:17Z</time>
      </trkpt>
      <trkpt lat="44.78504" lon="1.58115">
        <ele>257.6</ele>
        <time>2024-12-25T12:23:18Z</time>
      </trkpt>
      <trkpt lat="44.78502" lon="1.58117">
        <ele>257.7</ele>
        <time>2024-12-25T12:23:19Z</time>
      </trkpt>
      <trkpt lat="44.78501" lon="1.58118">
        <ele>257.8</ele>
        <time>2024-12-25T12:23:20Z</time>
      </trkpt>
      <trkpt lat="44.785" lon="1.58122">
        <ele>258</ele>
        <time>2024-12-25T12:23:21Z</time>
      </trkpt>
      <trkpt lat="44.78499" lon="1.58123">
        <ele>258</ele>
        <time>2024-12-25T12:23:22Z</time>
      </trkpt>
      <trkpt lat="44.78498" lon="1.58124">
        <ele>258.1</ele>
        <time>2024-12-25T12:23:23Z</time>
      </trkpt>
      <trkpt lat="44.78498" lon="1.58125">
        <ele>258.2</ele>
        <time>2024-12-25T12:23:24Z</time>
      </trkpt>
      <trkpt lat="44.78497" lon="1.58126">
        <ele>258</ele>
        <time>2024-12-25T12:23:25Z</time>
      </trkpt>
      <trkpt lat="44.78497" lon="1.58127">
        <ele>258</ele>
        <time>2024-12-25T12:23:26Z</time>
      </trkpt>
      <trkpt lat="44.78495" lon="1.58128">
        <ele>257.9</ele>
        <time>2024-12-25T12:23:27Z</time>
      </trkpt>
      <trkpt lat="44.78495" lon="1.58129">
        <ele>257.8</ele>
        <time>2024-12-25T12:23:28Z</time>
      </trkpt>
      <trkpt lat="44.78494" lon="1.58131">
        <ele>257.7</ele>
        <time>2024-12-25T12:23:29Z</time>
      </trkpt>
      <trkpt lat="44.78494" lon="1.58132">
        <ele>257.6</ele>
        <time>2024-12-25T12:23:30Z</time>
      </trkpt>
      <trkpt lat="44.78494" lon="1.58134">
        <ele>257.5</ele>
        <time>2024-12-25T12:23:31Z</time>
      </trkpt>
      <trkpt lat="44.78496" lon="1.58133">
        <ele>257.3</ele>
        <time>2024-12-25T12:23:32Z</time>
      </trkpt>
      <trkpt lat="44.78498" lon="1.58133">
        <ele>257.2</ele>
        <time>2024-12-25T12:23:33Z</time>
      </trkpt>
      <trkpt lat="44.78499" lon="1.58133">
        <ele>257.1</ele>
        <time>2024-12-25T12:23:34Z</time>
      </trkpt>
      <trkpt lat="44.785" lon="1.58133">
        <ele>257</ele>
        <time>2024-12-25T12:23:35Z</time>
      </trkpt>
      <trkpt lat="44.78502" lon="1.58133">
        <ele>256.8</ele>
        <time>2024-12-25T12:23:36Z</time>
      </trkpt>
      <trkpt lat="44.78503" lon="1.58134">
        <ele>256.7</ele>
        <time>2024-12-25T12:23:37Z</time>
      </trkpt>
      <trkpt lat="44.78505" lon="1.58134">
        <ele>256.4</ele>
        <time>2024-12-25T12:23:38Z</time>
      </trkpt>
      <trkpt lat="44.78506" lon="1.58135">
        <ele>256.3</ele>
        <time>2024-12-25T12:23:39Z</time>
      </trkpt>
      <trkpt lat="44.78507" lon="1.58135">
        <ele>256.3</ele>
        <time>2024-12-25T12:23:40Z</time>
      </trkpt>
      <trkpt lat="44.78508" lon="1.58136">
        <ele>256.1</ele>
        <time>2024-12-25T12:23:41Z</time>
      </trkpt>
      <trkpt lat="44.7851" lon="1.58137">
        <ele>255.9</ele>
        <time>2024-12-25T12:23:42Z</time>
      </trkpt>
      <trkpt lat="44.78511" lon="1.58138">
        <ele>255.8</ele>
        <time>2024-12-25T12:23:43Z</time>
      </trkpt>
      <trkpt lat="44.78512" lon="1.58139">
        <ele>255.6</ele>
        <time>2024-12-25T12:23:44Z</time>
      </trkpt>
      <trkpt lat="44.78514" lon="1.58141">
        <ele>255.4</ele>
        <time>2024-12-25T12:23:45Z</time>
      </trkpt>
      <trkpt lat="44.78515" lon="1.58142">
        <ele>255.3</ele>
        <time>2024-12-25T12:23:46Z</time>
      </trkpt>
      <trkpt lat="44.78516" lon="1.58143">
        <ele>255.2</ele>
        <time>2024-12-25T12:23:47Z</time>
      </trkpt>
      <trkpt lat="44.78517" lon="1.58145">
        <ele>255</ele>
        <time>2024-12-25T12:23:48Z</time>
      </trkpt>
      <trkpt lat="44.78517" lon="1.58146">
        <ele>254.9</ele>
        <time>2024-12-25T12:23:49Z</time>
      </trkpt>
      <trkpt lat="44.78518" lon="1.58147">
        <ele>254.8</ele>
        <time>2024-12-25T12:23:50Z</time>
      </trkpt>
      <trkpt lat="44.78519" lon="1.58148">
        <ele>254.7</ele>
        <time>2024-12-25T12:23:51Z</time>
      </trkpt>
      <trkpt lat="44.7852" lon="1.58149">
        <ele>254.5</ele>
        <time>2024-12-25T12:23:52Z</time>
      </trkpt>
      <trkpt lat="44.78521" lon="1.5815">
        <ele>254.4</ele>
        <time>2024-12-25T12:23:53Z</time>
      </trkpt>
      <trkpt lat="44.78522" lon="1.5815">
        <ele>254.2</ele>
        <time>2024-12-25T12:23:54Z</time>
      </trkpt>
      <trkpt lat="44.78524" lon="1.58151">
        <ele>254.1</ele>
        <time>2024-12-25T12:23:55Z</time>
      </trkpt>
      <trkpt lat="44.78525" lon="1.58152">
        <ele>254</ele>
        <time>2024-12-25T12:23:56Z</time>
      </trkpt>
      <trkpt lat="44.78527" lon="1.58153">
        <ele>253.8</ele>
        <time>2024-12-25T12:23:57Z</time>
      </trkpt>
      <trkpt lat="44.78528" lon="1.58153">
        <ele>253.7</ele>
        <time>2024-12-25T12:23:58Z</time>
      </trkpt>
      <trkpt lat="44.78529" lon="1.58154">
        <ele>253.6</ele>
        <time>2024-12-25T12:23:59Z</time>
      </trkpt>
      <trkpt lat="44.78531" lon="1.58155">
        <ele>253.4</ele>
        <time>2024-12-25T12:24:00Z</time>
      </trkpt>
      <trkpt lat="44.78532" lon="1.58156">
        <ele>253.3</ele>
        <time>2024-12-25T12:24:01Z</time>
      </trkpt>
      <trkpt lat="44.78533" lon="1.58156">
        <ele>253.2</ele>
        <time>2024-12-25T12:24:02Z</time>
      </trkpt>
      <trkpt lat="44.78534" lon="1.58157">
        <ele>253.2</ele>
        <time>2024-12-25T12:24:03Z</time>
      </trkpt>
      <trkpt lat="44.78534" lon="1.58157">
        <ele>253.1</ele>
        <time>2024-12-25T12:24:04Z</time>
      </trkpt>
      <trkpt lat="44.78536" lon="1.58157">
        <ele>253</ele>
        <time>2024-12-25T12:24:05Z</time>
      </trkpt>
      <trkpt lat="44.78537" lon="1.58158">
        <ele>252.9</ele>
        <time>2024-12-25T12:24:06Z</time>
      </trkpt>
      <trkpt lat="44.78538" lon="1.58158">
        <ele>252.8</ele>
        <time>2024-12-25T12:24:07Z</time>
      </trkpt>
      <trkpt lat="44.78539" lon="1.58158">
        <ele>252.8</ele>
        <time>2024-12-25T12:24:08Z</time>
      </trkpt>
      <trkpt lat="44.7854" lon="1.58158">
        <ele>252.7</ele>
        <time>2024-12-25T12:24:09Z</time>
      </trkpt>
      <trkpt lat="44.78541" lon="1.58158">
        <ele>252.6</ele>
        <time>2024-12-25T12:24:10Z</time>
      </trkpt>
      <trkpt lat="44.78542" lon="1.58158">
        <ele>252.5</ele>
        <time>2024-12-25T12:24:11Z</time>
      </trkpt>
      <trkpt lat="44.78543" lon="1.58158">
        <ele>252.4</ele>
        <time>2024-12-25T12:24:12Z</time>
      </trkpt>
      <trkpt lat="44.78544" lon="1.58158">
        <ele>252.4</ele>
        <time>2024-12-25T12:24:13Z</time>
      </trkpt>
      <trkpt lat="44.78545" lon="1.58158">
        <ele>252.3</ele>
        <time>2024-12-25T12:24:14Z</time>
      </trkpt>
      <trkpt lat="44.78546" lon="1.58157">
        <ele>252.2</ele>
        <time>2024-12-25T12:24:15Z</time>
      </trkpt>
      <trkpt lat="44.78547" lon="1.58157">
        <ele>252.1</ele>
        <time>2024-12-25T12:24:16Z</time>
      </trkpt>
      <trkpt lat="44.78548" lon="1.58156">
        <ele>252</ele>
        <time>2024-12-25T12:24:17Z</time>
      </trkpt>
      <trkpt lat="44.78549" lon="1.58155">
        <ele>251.9</ele>
        <time>2024-12-25T12:24:18Z</time>
      </trkpt>
      <trkpt lat="44.78551" lon="1.58155">
        <ele>251.8</ele>
        <time>2024-12-25T12:24:19Z</time>
      </trkpt>
      <trkpt lat="44.78552" lon="1.58156">
        <ele>251.7</ele>
        <time>2024-12-25T12:24:20Z</time>
      </trkpt>
      <trkpt lat="44.78553" lon="1.58156">
        <ele>251.7</ele>
        <time>2024-12-25T12:24:21Z</time>
      </trkpt>
      <trkpt lat="44.78554" lon="1.58156">
        <ele>251.6</ele>
        <time>2024-12-25T12:24:22Z</time>
      </trkpt>
      <trkpt lat="44.78555" lon="1.58155">
        <ele>251.5</ele>
        <time>2024-12-25T12:24:23Z</time>
      </trkpt>
      <trkpt lat="44.78556" lon="1.58154">
        <ele>251.4</ele>
        <time>2024-12-25T12:24:24Z</time>
      </trkpt>
      <trkpt lat="44.78557" lon="1.58153">
        <ele>251.4</ele>
        <time>2024-12-25T12:24:25Z</time>
      </trkpt>
      <trkpt lat="44.78558" lon="1.58152">
        <ele>251.3</ele>
        <time>2024-12-25T12:24:26Z</time>
      </trkpt>
      <trkpt lat="44.7856" lon="1.58151">
        <ele>251.1</ele>
        <time>2024-12-25T12:24:27Z</time>
      </trkpt>
      <trkpt lat="44.78562" lon="1.58151">
        <ele>251</ele>
        <time>2024-12-25T12:24:28Z</time>
      </trkpt>
      <trkpt lat="44.78563" lon="1.5815">
        <ele>250.9</ele>
        <time>2024-12-25T12:24:29Z</time>
      </trkpt>
      <trkpt lat="44.78564" lon="1.5815">
        <ele>250.9</ele>
        <time>2024-12-25T12:24:30Z</time>
      </trkpt>
      <trkpt lat="44.78565" lon="1.58149">
        <ele>250.7</ele>
        <time>2024-12-25T12:24:31Z</time>
      </trkpt>
      <trkpt lat="44.78566" lon="1.58148">
        <ele>250.7</ele>
        <time>2024-12-25T12:24:32Z</time>
      </trkpt>
      <trkpt lat="44.78567" lon="1.58148">
        <ele>250.6</ele>
        <time>2024-12-25T12:24:33Z</time>
      </trkpt>
      <trkpt lat="44.78567" lon="1.58148">
        <ele>250.6</ele>
        <time>2024-12-25T12:24:34Z</time>
      </trkpt>
      <trkpt lat="44.78568" lon="1.58146">
        <ele>250.4</ele>
        <time>2024-12-25T12:24:35Z</time>
      </trkpt>
      <trkpt lat="44.78569" lon="1.58145">
        <ele>250.3</ele>
        <time>2024-12-25T12:24:36Z</time>
      </trkpt>
      <trkpt lat="44.78571" lon="1.58142">
        <ele>250.1</ele>
        <time>2024-12-25T12:24:37Z</time>
      </trkpt>
      <trkpt lat="44.78572" lon="1.58141">
        <ele>250</ele>
        <time>2024-12-25T12:24:38Z</time>
      </trkpt>
      <trkpt lat="44.78571" lon="1.58143">
        <ele>249.7</ele>
        <time>2024-12-25T12:24:40Z</time>
      </trkpt>
      <trkpt lat="44.78568" lon="1.58147">
        <ele>249.2</ele>
        <time>2024-12-25T12:24:41Z</time>
      </trkpt>
      <trkpt lat="44.78565" lon="1.58151">
        <ele>248.6</ele>
        <time>2024-12-25T12:24:42Z</time>
      </trkpt>
      <trkpt lat="44.78569" lon="1.5815">
        <ele>247.8</ele>
        <time>2024-12-25T12:24:43Z</time>
      </trkpt>
      <trkpt lat="44.78574" lon="1.58149">
        <ele>247</ele>
        <time>2024-12-25T12:24:44Z</time>
      </trkpt>
      <trkpt lat="44.78578" lon="1.58147">
        <ele>246</ele>
        <time>2024-12-25T12:24:47Z</time>
      </trkpt>
      <trkpt lat="44.78583" lon="1.58145">
        <ele>245.1</ele>
        <time>2024-12-25T12:24:48Z</time>
      </trkpt>
      <trkpt lat="44.78584" lon="1.58143">
        <ele>244.8</ele>
        <time>2024-12-25T12:24:49Z</time>
      </trkpt>
      <trkpt lat="44.78585" lon="1.58142">
        <ele>244.6</ele>
        <time>2024-12-25T12:24:50Z</time>
      </trkpt>
      <trkpt lat="44.78586" lon="1.58141">
        <ele>244.2</ele>
        <time>2024-12-25T12:24:51Z</time>
      </trkpt>
      <trkpt lat="44.78587" lon="1.58141">
        <ele>244</ele>
        <time>2024-12-25T12:24:52Z</time>
      </trkpt>
      <trkpt lat="44.78588" lon="1.5814">
        <ele>243.8</ele>
        <time>2024-12-25T12:24:53Z</time>
      </trkpt>
      <trkpt lat="44.78589" lon="1.5814">
        <ele>243.6</ele>
        <time>2024-12-25T12:24:54Z</time>
      </trkpt>
      <trkpt lat="44.7859" lon="1.58139">
        <ele>243.5</ele>
        <time>2024-12-25T12:24:55Z</time>
      </trkpt>
      <trkpt lat="44.78591" lon="1.58139">
        <ele>243.4</ele>
        <time>2024-12-25T12:24:56Z</time>
      </trkpt>
      <trkpt lat="44.78591" lon="1.58139">
        <ele>243.2</ele>
        <time>2024-12-25T12:24:57Z</time>
      </trkpt>
      <trkpt lat="44.78592" lon="1.58139">
        <ele>243.1</ele>
        <time>2024-12-25T12:24:58Z</time>
      </trkpt>
      <trkpt lat="44.78593" lon="1.58138">
        <ele>242.8</ele>
        <time>2024-12-25T12:24:59Z</time>
      </trkpt>
      <trkpt lat="44.78595" lon="1.58136">
        <ele>242.5</ele>
        <time>2024-12-25T12:25:00Z</time>
      </trkpt>
      <trkpt lat="44.78596" lon="1.58136">
        <ele>242.2</ele>
        <time>2024-12-25T12:25:01Z</time>
      </trkpt>
      <trkpt lat="44.78598" lon="1.58136">
        <ele>241.9</ele>
        <time>2024-12-25T12:25:02Z</time>
      </trkpt>
      <trkpt lat="44.786" lon="1.58135">
        <ele>241.5</ele>
        <time>2024-12-25T12:25:03Z</time>
      </trkpt>
      <trkpt lat="44.78601" lon="1.58134">
        <ele>241.4</ele>
        <time>2024-12-25T12:25:04Z</time>
      </trkpt>
      <trkpt lat="44.78601" lon="1.58134">
        <ele>241.2</ele>
        <time>2024-12-25T12:25:05Z</time>
      </trkpt>
      <trkpt lat="44.78602" lon="1.58133">
        <ele>241</ele>
        <time>2024-12-25T12:25:06Z</time>
      </trkpt>
      <trkpt lat="44.78604" lon="1.58132">
        <ele>240.6</ele>
        <time>2024-12-25T12:25:07Z</time>
      </trkpt>
      <trkpt lat="44.78606" lon="1.58133">
        <ele>240.3</ele>
        <time>2024-12-25T12:25:08Z</time>
      </trkpt>
      <trkpt lat="44.78607" lon="1.58133">
        <ele>240.1</ele>
        <time>2024-12-25T12:25:09Z</time>
      </trkpt>
      <trkpt lat="44.78608" lon="1.58134">
        <ele>240</ele>
        <time>2024-12-25T12:25:10Z</time>
      </trkpt>
      <trkpt lat="44.78609" lon="1.58133">
        <ele>239.8</ele>
        <time>2024-12-25T12:25:11Z</time>
      </trkpt>
      <trkpt lat="44.7861" lon="1.58133">
        <ele>239.5</ele>
        <time>2024-12-25T12:25:12Z</time>
      </trkpt>
      <trkpt lat="44.78611" lon="1.58132">
        <ele>239.3</ele>
        <time>2024-12-25T12:25:13Z</time>
      </trkpt>
      <trkpt lat="44.78612" lon="1.58131">
        <ele>239</ele>
        <time>2024-12-25T12:25:14Z</time>
      </trkpt>
      <trkpt lat="44.78614" lon="1.5813">
        <ele>238.8</ele>
        <time>2024-12-25T12:25:15Z</time>
      </trkpt>
      <trkpt lat="44.78614" lon="1.5813">
        <ele>238.6</ele>
        <time>2024-12-25T12:25:16Z</time>
      </trkpt>
      <trkpt lat="44.78615" lon="1.58129">
        <ele>238.4</ele>
        <time>2024-12-25T12:25:17Z</time>
      </trkpt>
      <trkpt lat="44.78617" lon="1.58129">
        <ele>238.1</ele>
        <time>2024-12-25T12:25:18Z</time>
      </trkpt>
      <trkpt lat="44.78619" lon="1.58128">
        <ele>237.7</ele>
        <time>2024-12-25T12:25:19Z</time>
      </trkpt>
      <trkpt lat="44.7862" lon="1.58128">
        <ele>237.5</ele>
        <time>2024-12-25T12:25:20Z</time>
      </trkpt>
      <trkpt lat="44.7862" lon="1.58128">
        <ele>237.4</ele>
        <time>2024-12-25T12:25:21Z</time>
      </trkpt>
      <trkpt lat="44.78622" lon="1.58127">
        <ele>237.1</ele>
        <time>2024-12-25T12:25:22Z</time>
      </trkpt>
      <trkpt lat="44.78623" lon="1.58128">
        <ele>237</ele>
        <time>2024-12-25T12:25:23Z</time>
      </trkpt>
      <trkpt lat="44.78624" lon="1.58127">
        <ele>236.7</ele>
        <time>2024-12-25T12:25:24Z</time>
      </trkpt>
      <trkpt lat="44.78625" lon="1.58127">
        <ele>236.5</ele>
        <time>2024-12-25T12:25:25Z</time>
      </trkpt>
      <trkpt lat="44.78626" lon="1.58127">
        <ele>236.3</ele>
        <time>2024-12-25T12:25:26Z</time>
      </trkpt>
      <trkpt lat="44.78627" lon="1.58127">
        <ele>236.2</ele>
        <time>2024-12-25T12:25:27Z</time>
      </trkpt>
      <trkpt lat="44.78628" lon="1.58127">
        <ele>235.9</ele>
        <time>2024-12-25T12:25:28Z</time>
      </trkpt>
      <trkpt lat="44.7863" lon="1.58127">
        <ele>235.7</ele>
        <time>2024-12-25T12:25:29Z</time>
      </trkpt>
      <trkpt lat="44.7863" lon="1.58128">
        <ele>235.5</ele>
        <time>2024-12-25T12:25:30Z</time>
      </trkpt>
      <trkpt lat="44.78631" lon="1.58129">
        <ele>235.4</ele>
        <time>2024-12-25T12:25:31Z</time>
      </trkpt>
      <trkpt lat="44.78631" lon="1.58129">
        <ele>235.3</ele>
        <time>2024-12-25T12:25:32Z</time>
      </trkpt>
      <trkpt lat="44.78632" lon="1.5813">
        <ele>235.2</ele>
        <time>2024-12-25T12:25:33Z</time>
      </trkpt>
      <trkpt lat="44.78633" lon="1.5813">
        <ele>235.1</ele>
        <time>2024-12-25T12:25:34Z</time>
      </trkpt>
      <trkpt lat="44.78634" lon="1.58131">
        <ele>234.9</ele>
        <time>2024-12-25T12:25:35Z</time>
      </trkpt>
      <trkpt lat="44.78635" lon="1.58131">
        <ele>234.7</ele>
        <time>2024-12-25T12:25:36Z</time>
      </trkpt>
      <trkpt lat="44.78636" lon="1.58131">
        <ele>234.4</ele>
        <time>2024-12-25T12:25:37Z</time>
      </trkpt>
      <trkpt lat="44.78638" lon="1.58131">
        <ele>234.1</ele>
        <time>2024-12-25T12:25:39Z</time>
      </trkpt>
      <trkpt lat="44.78639" lon="1.58131">
        <ele>233.8</ele>
        <time>2024-12-25T12:25:40Z</time>
      </trkpt>
      <trkpt lat="44.7864" lon="1.58131">
        <ele>233.6</ele>
        <time>2024-12-25T12:25:41Z</time>
      </trkpt>
      <trkpt lat="44.78641" lon="1.58131">
        <ele>233.3</ele>
        <time>2024-12-25T12:25:42Z</time>
      </trkpt>
      <trkpt lat="44.78642" lon="1.58131">
        <ele>233.2</ele>
        <time>2024-12-25T12:25:43Z</time>
      </trkpt>
      <trkpt lat="44.78642" lon="1.58131">
        <ele>233.1</ele>
        <time>2024-12-25T12:25:44Z</time>
      </trkpt>
      <trkpt lat="44.78642" lon="1.58131">
        <ele>233</ele>
        <time>2024-12-25T12:25:45Z</time>
      </trkpt>
      <trkpt lat="44.78643" lon="1.5813">
        <ele>232.9</ele>
        <time>2024-12-25T12:25:46Z</time>
      </trkpt>
      <trkpt lat="44.78643" lon="1.5813">
        <ele>232.8</ele>
        <time>2024-12-25T12:25:47Z</time>
      </trkpt>
      <trkpt lat="44.78644" lon="1.5813">
        <ele>232.7</ele>
        <time>2024-12-25T12:25:48Z</time>
      </trkpt>
      <trkpt lat="44.78644" lon="1.5813">
        <ele>232.6</ele>
        <time>2024-12-25T12:25:49Z</time>
      </trkpt>
      <trkpt lat="44.78644" lon="1.5813">
        <ele>232.5</ele>
        <time>2024-12-25T12:25:50Z</time>
      </trkpt>
      <trkpt lat="44.78645" lon="1.5813">
        <ele>232.4</ele>
        <time>2024-12-25T12:25:51Z</time>
      </trkpt>
      <trkpt lat="44.78645" lon="1.58129">
        <ele>232.3</ele>
        <time>2024-12-25T12:25:52Z</time>
      </trkpt>
      <trkpt lat="44.78649" lon="1.5813">
        <ele>231.5</ele>
        <time>2024-12-25T12:25:53Z</time>
      </trkpt>
      <trkpt lat="44.7865" lon="1.58129">
        <ele>231.2</ele>
        <time>2024-12-25T12:25:54Z</time>
      </trkpt>
      <trkpt lat="44.78653" lon="1.58129">
        <ele>230.4</ele>
        <time>2024-12-25T12:25:55Z</time>
      </trkpt>
      <trkpt lat="44.78654" lon="1.58128">
        <ele>230.1</ele>
        <time>2024-12-25T12:25:56Z</time>
      </trkpt>
      <trkpt lat="44.78657" lon="1.58127">
        <ele>229.4</ele>
        <time>2024-12-25T12:25:57Z</time>
      </trkpt>
      <trkpt lat="44.78658" lon="1.58127">
        <ele>229.1</ele>
        <time>2024-12-25T12:25:58Z</time>
      </trkpt>
      <trkpt lat="44.7866" lon="1.58125">
        <ele>228.4</ele>
        <time>2024-12-25T12:25:59Z</time>
      </trkpt>
      <trkpt lat="44.78661" lon="1.58125">
        <ele>228.1</ele>
        <time>2024-12-25T12:26:00Z</time>
      </trkpt>
      <trkpt lat="44.78663" lon="1.58124">
        <ele>227.7</ele>
        <time>2024-12-25T12:26:01Z</time>
      </trkpt>
      <trkpt lat="44.78664" lon="1.58124">
        <ele>227.3</ele>
        <time>2024-12-25T12:26:02Z</time>
      </trkpt>
      <trkpt lat="44.78667" lon="1.58122">
        <ele>226.5</ele>
        <time>2024-12-25T12:26:03Z</time>
      </trkpt>
      <trkpt lat="44.78668" lon="1.58121">
        <ele>226.2</ele>
        <time>2024-12-25T12:26:04Z</time>
      </trkpt>
      <trkpt lat="44.78669" lon="1.58121">
        <ele>225.9</ele>
        <time>2024-12-25T12:26:05Z</time>
      </trkpt>
      <trkpt lat="44.7867" lon="1.5812">
        <ele>225.7</ele>
        <time>2024-12-25T12:26:06Z</time>
      </trkpt>
      <trkpt lat="44.7867" lon="1.58119">
        <ele>225.4</ele>
        <time>2024-12-25T12:26:07Z</time>
      </trkpt>
      <trkpt lat="44.78672" lon="1.58117">
        <ele>224.8</ele>
        <time>2024-12-25T12:26:08Z</time>
      </trkpt>
      <trkpt lat="44.78673" lon="1.58116">
        <ele>224.6</ele>
        <time>2024-12-25T12:26:09Z</time>
      </trkpt>
      <trkpt lat="44.78673" lon="1.58116">
        <ele>224.4</ele>
        <time>2024-12-25T12:26:10Z</time>
      </trkpt>
      <trkpt lat="44.78675" lon="1.58114">
        <ele>223.9</ele>
        <time>2024-12-25T12:26:11Z</time>
      </trkpt>
      <trkpt lat="44.78676" lon="1.58113">
        <ele>223.6</ele>
        <time>2024-12-25T12:26:12Z</time>
      </trkpt>
      <trkpt lat="44.78676" lon="1.58113">
        <ele>223.4</ele>
        <time>2024-12-25T12:26:13Z</time>
      </trkpt>
      <trkpt lat="44.78679" lon="1.58112">
        <ele>222.8</ele>
        <time>2024-12-25T12:26:14Z</time>
      </trkpt>
      <trkpt lat="44.78679" lon="1.58112">
        <ele>222.6</ele>
        <time>2024-12-25T12:26:15Z</time>
      </trkpt>
      <trkpt lat="44.7868" lon="1.58112">
        <ele>222.4</ele>
        <time>2024-12-25T12:26:16Z</time>
      </trkpt>
      <trkpt lat="44.78681" lon="1.58112">
        <ele>222.1</ele>
        <time>2024-12-25T12:26:17Z</time>
      </trkpt>
      <trkpt lat="44.78683" lon="1.58111">
        <ele>221.6</ele>
        <time>2024-12-25T12:26:18Z</time>
      </trkpt>
      <trkpt lat="44.78684" lon="1.58111">
        <ele>221.4</ele>
        <time>2024-12-25T12:26:19Z</time>
      </trkpt>
      <trkpt lat="44.78685" lon="1.58111">
        <ele>221.1</ele>
        <time>2024-12-25T12:26:20Z</time>
      </trkpt>
      <trkpt lat="44.78686" lon="1.5811">
        <ele>220.9</ele>
        <time>2024-12-25T12:26:21Z</time>
      </trkpt>
      <trkpt lat="44.78687" lon="1.5811">
        <ele>220.6</ele>
        <time>2024-12-25T12:26:22Z</time>
      </trkpt>
      <trkpt lat="44.78688" lon="1.58109">
        <ele>220.3</ele>
        <time>2024-12-25T12:26:23Z</time>
      </trkpt>
      <trkpt lat="44.78688" lon="1.58109">
        <ele>220.1</ele>
        <time>2024-12-25T12:26:24Z</time>
      </trkpt>
      <trkpt lat="44.78689" lon="1.58109">
        <ele>219.9</ele>
        <time>2024-12-25T12:26:25Z</time>
      </trkpt>
      <trkpt lat="44.78691" lon="1.58109">
        <ele>219.6</ele>
        <time>2024-12-25T12:26:26Z</time>
      </trkpt>
      <trkpt lat="44.78692" lon="1.58109">
        <ele>219.3</ele>
        <time>2024-12-25T12:26:27Z</time>
      </trkpt>
      <trkpt lat="44.78693" lon="1.58109">
        <ele>219</ele>
        <time>2024-12-25T12:26:28Z</time>
      </trkpt>
      <trkpt lat="44.78693" lon="1.58109">
        <ele>218.9</ele>
        <time>2024-12-25T12:26:29Z</time>
      </trkpt>
      <trkpt lat="44.78694" lon="1.58109">
        <ele>218.8</ele>
        <time>2024-12-25T12:26:30Z</time>
      </trkpt>
      <trkpt lat="44.78694" lon="1.58109">
        <ele>218.5</ele>
        <time>2024-12-25T12:26:31Z</time>
      </trkpt>
      <trkpt lat="44.78696" lon="1.58109">
        <ele>218.2</ele>
        <time>2024-12-25T12:26:32Z</time>
      </trkpt>
      <trkpt lat="44.78696" lon="1.58109">
        <ele>218.1</ele>
        <time>2024-12-25T12:26:33Z</time>
      </trkpt>
      <trkpt lat="44.78696" lon="1.58109">
        <ele>218</ele>
        <time>2024-12-25T12:26:34Z</time>
      </trkpt>
      <trkpt lat="44.78697" lon="1.58109">
        <ele>218</ele>
        <time>2024-12-25T12:26:35Z</time>
      </trkpt>
      <trkpt lat="44.78697" lon="1.58109">
        <ele>217.9</ele>
        <time>2024-12-25T12:26:36Z</time>
      </trkpt>
      <trkpt lat="44.78697" lon="1.58109">
        <ele>217.8</ele>
        <time>2024-12-25T12:26:37Z</time>
      </trkpt>
      <trkpt lat="44.78698" lon="1.58108">
        <ele>217.7</ele>
        <time>2024-12-25T12:26:38Z</time>
      </trkpt>
      <trkpt lat="44.78698" lon="1.58108">
        <ele>217.6</ele>
        <time>2024-12-25T12:26:39Z</time>
      </trkpt>
      <trkpt lat="44.78698" lon="1.58108">
        <ele>217.5</ele>
        <time>2024-12-25T12:26:40Z</time>
      </trkpt>
      <trkpt lat="44.78698" lon="1.58108">
        <ele>217.4</ele>
        <time>2024-12-25T12:26:41Z</time>
      </trkpt>
      <trkpt lat="44.78701" lon="1.58107">
        <ele>216.7</ele>
        <time>2024-12-25T12:26:42Z</time>
      </trkpt>
      <trkpt lat="44.78702" lon="1.58107">
        <ele>216.4</ele>
        <time>2024-12-25T12:26:43Z</time>
      </trkpt>
      <trkpt lat="44.78702" lon="1.58107">
        <ele>216.3</ele>
        <time>2024-12-25T12:26:44Z</time>
      </trkpt>
      <trkpt lat="44.78703" lon="1.58107">
        <ele>216.2</ele>
        <time>2024-12-25T12:26:45Z</time>
      </trkpt>
      <trkpt lat="44.78704" lon="1.58107">
        <ele>216</ele>
        <time>2024-12-25T12:26:46Z</time>
      </trkpt>
      <trkpt lat="44.78704" lon="1.58107">
        <ele>215.8</ele>
        <time>2024-12-25T12:26:47Z</time>
      </trkpt>
      <trkpt lat="44.78704" lon="1.58107">
        <ele>215.7</ele>
        <time>2024-12-25T12:26:48Z</time>
      </trkpt>
      <trkpt lat="44.78705" lon="1.58107">
        <ele>215.6</ele>
        <time>2024-12-25T12:26:49Z</time>
      </trkpt>
      <trkpt lat="44.78707" lon="1.58107">
        <ele>215.1</ele>
        <time>2024-12-25T12:26:50Z</time>
      </trkpt>
      <trkpt lat="44.78708" lon="1.58107">
        <ele>214.7</ele>
        <time>2024-12-25T12:26:51Z</time>
      </trkpt>
      <trkpt lat="44.78709" lon="1.58107">
        <ele>214.4</ele>
        <time>2024-12-25T12:26:52Z</time>
      </trkpt>
      <trkpt lat="44.78712" lon="1.58106">
        <ele>213.7</ele>
        <time>2024-12-25T12:26:53Z</time>
      </trkpt>
      <trkpt lat="44.78713" lon="1.58106">
        <ele>213.4</ele>
        <time>2024-12-25T12:26:54Z</time>
      </trkpt>
      <trkpt lat="44.78715" lon="1.58107">
        <ele>213</ele>
        <time>2024-12-25T12:26:55Z</time>
      </trkpt>
      <trkpt lat="44.78717" lon="1.58107">
        <ele>212.5</ele>
        <time>2024-12-25T12:26:56Z</time>
      </trkpt>
      <trkpt lat="44.78718" lon="1.58107">
        <ele>212.1</ele>
        <time>2024-12-25T12:26:57Z</time>
      </trkpt>
      <trkpt lat="44.7872" lon="1.58106">
        <ele>211.7</ele>
        <time>2024-12-25T12:26:58Z</time>
      </trkpt>
      <trkpt lat="44.78722" lon="1.58106">
        <ele>211.2</ele>
        <time>2024-12-25T12:26:59Z</time>
      </trkpt>
      <trkpt lat="44.78723" lon="1.58106">
        <ele>211</ele>
        <time>2024-12-25T12:27:00Z</time>
      </trkpt>
      <trkpt lat="44.78723" lon="1.58106">
        <ele>210.7</ele>
        <time>2024-12-25T12:27:01Z</time>
      </trkpt>
      <trkpt lat="44.78725" lon="1.58106">
        <ele>210.3</ele>
        <time>2024-12-25T12:27:02Z</time>
      </trkpt>
      <trkpt lat="44.78727" lon="1.58106">
        <ele>209.9</ele>
        <time>2024-12-25T12:27:03Z</time>
      </trkpt>
      <trkpt lat="44.78729" lon="1.58106">
        <ele>209.4</ele>
        <time>2024-12-25T12:27:04Z</time>
      </trkpt>
      <trkpt lat="44.7873" lon="1.58106">
        <ele>209.2</ele>
        <time>2024-12-25T12:27:05Z</time>
      </trkpt>
      <trkpt lat="44.7873" lon="1.58105">
        <ele>208.9</ele>
        <time>2024-12-25T12:27:06Z</time>
      </trkpt>
      <trkpt lat="44.78732" lon="1.58105">
        <ele>208.5</ele>
        <time>2024-12-25T12:27:07Z</time>
      </trkpt>
      <trkpt lat="44.78734" lon="1.58104">
        <ele>208.1</ele>
        <time>2024-12-25T12:27:08Z</time>
      </trkpt>
      <trkpt lat="44.78735" lon="1.58104">
        <ele>207.7</ele>
        <time>2024-12-25T12:27:09Z</time>
      </trkpt>
      <trkpt lat="44.78737" lon="1.58104">
        <ele>207.4</ele>
        <time>2024-12-25T12:27:10Z</time>
      </trkpt>
      <trkpt lat="44.78739" lon="1.58104">
        <ele>206.8</ele>
        <time>2024-12-25T12:27:11Z</time>
      </trkpt>
      <trkpt lat="44.78739" lon="1.58103">
        <ele>206.6</ele>
        <time>2024-12-25T12:27:12Z</time>
      </trkpt>
      <trkpt lat="44.7874" lon="1.58103">
        <ele>206.4</ele>
        <time>2024-12-25T12:27:13Z</time>
      </trkpt>
      <trkpt lat="44.78741" lon="1.58103">
        <ele>206.2</ele>
        <time>2024-12-25T12:27:14Z</time>
      </trkpt>
      <trkpt lat="44.78742" lon="1.58102">
        <ele>205.9</ele>
        <time>2024-12-25T12:27:15Z</time>
      </trkpt>
      <trkpt lat="44.78743" lon="1.58102">
        <ele>205.6</ele>
        <time>2024-12-25T12:27:16Z</time>
      </trkpt>
      <trkpt lat="44.78745" lon="1.58101">
        <ele>205</ele>
        <time>2024-12-25T12:27:17Z</time>
      </trkpt>
      <trkpt lat="44.78746" lon="1.581">
        <ele>204.8</ele>
        <time>2024-12-25T12:27:18Z</time>
      </trkpt>
      <trkpt lat="44.78747" lon="1.581">
        <ele>204.6</ele>
        <time>2024-12-25T12:27:19Z</time>
      </trkpt>
      <trkpt lat="44.78747" lon="1.58099">
        <ele>204.3</ele>
        <time>2024-12-25T12:27:20Z</time>
      </trkpt>
      <trkpt lat="44.78748" lon="1.58099">
        <ele>204.1</ele>
        <time>2024-12-25T12:27:21Z</time>
      </trkpt>
      <trkpt lat="44.78749" lon="1.58098">
        <ele>203.8</ele>
        <time>2024-12-25T12:27:22Z</time>
      </trkpt>
      <trkpt lat="44.7875" lon="1.58098">
        <ele>203.6</ele>
        <time>2024-12-25T12:27:23Z</time>
      </trkpt>
      <trkpt lat="44.78751" lon="1.58098">
        <ele>203.3</ele>
        <time>2024-12-25T12:27:24Z</time>
      </trkpt>
      <trkpt lat="44.78753" lon="1.58098">
        <ele>202.9</ele>
        <time>2024-12-25T12:27:25Z</time>
      </trkpt>
      <trkpt lat="44.78754" lon="1.58098">
        <ele>202.7</ele>
        <time>2024-12-25T12:27:26Z</time>
      </trkpt>
      <trkpt lat="44.78755" lon="1.58098">
        <ele>202.4</ele>
        <time>2024-12-25T12:27:27Z</time>
      </trkpt>
      <trkpt lat="44.78756" lon="1.58098">
        <ele>202</ele>
        <time>2024-12-25T12:27:28Z</time>
      </trkpt>
      <trkpt lat="44.78757" lon="1.58098">
        <ele>201.8</ele>
        <time>2024-12-25T12:27:29Z</time>
      </trkpt>
      <trkpt lat="44.78758" lon="1.58097">
        <ele>201.5</ele>
        <time>2024-12-25T12:27:30Z</time>
      </trkpt>
      <trkpt lat="44.7876" lon="1.58097">
        <ele>201.1</ele>
        <time>2024-12-25T12:27:32Z</time>
      </trkpt>
      <trkpt lat="44.78761" lon="1.58097">
        <ele>200.7</ele>
        <time>2024-12-25T12:27:33Z</time>
      </trkpt>
      <trkpt lat="44.78763" lon="1.58096">
        <ele>200.3</ele>
        <time>2024-12-25T12:27:34Z</time>
      </trkpt>
      <trkpt lat="44.78765" lon="1.58096">
        <ele>199.8</ele>
        <time>2024-12-25T12:27:35Z</time>
      </trkpt>
      <trkpt lat="44.78765" lon="1.58096">
        <ele>199.5</ele>
        <time>2024-12-25T12:27:36Z</time>
      </trkpt>
      <trkpt lat="44.78766" lon="1.58095">
        <ele>199.3</ele>
        <time>2024-12-25T12:27:37Z</time>
      </trkpt>
      <trkpt lat="44.78768" lon="1.58096">
        <ele>198.9</ele>
        <time>2024-12-25T12:27:38Z</time>
      </trkpt>
      <trkpt lat="44.78769" lon="1.58096">
        <ele>198.6</ele>
        <time>2024-12-25T12:27:39Z</time>
      </trkpt>
      <trkpt lat="44.7877" lon="1.58096">
        <ele>198.3</ele>
        <time>2024-12-25T12:27:40Z</time>
      </trkpt>
      <trkpt lat="44.78771" lon="1.58096">
        <ele>198.1</ele>
        <time>2024-12-25T12:27:41Z</time>
      </trkpt>
      <trkpt lat="44.78772" lon="1.58096">
        <ele>197.9</ele>
        <time>2024-12-25T12:27:42Z</time>
      </trkpt>
      <trkpt lat="44.78773" lon="1.58096">
        <ele>197.7</ele>
        <time>2024-12-25T12:27:43Z</time>
      </trkpt>
      <trkpt lat="44.78774" lon="1.58096">
        <ele>197.4</ele>
        <time>2024-12-25T12:27:44Z</time>
      </trkpt>
      <trkpt lat="44.78775" lon="1.58097">
        <ele>197.1</ele>
        <time>2024-12-25T12:27:45Z</time>
      </trkpt>
      <trkpt lat="44.78777" lon="1.58097">
        <ele>196.7</ele>
        <time>2024-12-25T12:27:46Z</time>
      </trkpt>
      <trkpt lat="44.78778" lon="1.58097">
        <ele>196.5</ele>
        <time>2024-12-25T12:27:47Z</time>
      </trkpt>
      <trkpt lat="44.78779" lon="1.58097">
        <ele>196.3</ele>
        <time>2024-12-25T12:27:48Z</time>
      </trkpt>
      <trkpt lat="44.7878" lon="1.58097">
        <ele>196.1</ele>
        <time>2024-12-25T12:27:49Z</time>
      </trkpt>
      <trkpt lat="44.78782" lon="1.58097">
        <ele>195.8</ele>
        <time>2024-12-25T12:27:50Z</time>
      </trkpt>
      <trkpt lat="44.78783" lon="1.58098">
        <ele>195.6</ele>
        <time>2024-12-25T12:27:51Z</time>
      </trkpt>
      <trkpt lat="44.78784" lon="1.58098">
        <ele>195.3</ele>
        <time>2024-12-25T12:27:53Z</time>
      </trkpt>
      <trkpt lat="44.78785" lon="1.58099">
        <ele>195</ele>
        <time>2024-12-25T12:27:54Z</time>
      </trkpt>
      <trkpt lat="44.78786" lon="1.58099">
        <ele>194.9</ele>
        <time>2024-12-25T12:27:55Z</time>
      </trkpt>
      <trkpt lat="44.78786" lon="1.58099">
        <ele>194.9</ele>
        <time>2024-12-25T12:27:56Z</time>
      </trkpt>
      <trkpt lat="44.78787" lon="1.58099">
        <ele>194.8</ele>
        <time>2024-12-25T12:27:57Z</time>
      </trkpt>
      <trkpt lat="44.78788" lon="1.581">
        <ele>194.5</ele>
        <time>2024-12-25T12:27:58Z</time>
      </trkpt>
      <trkpt lat="44.78788" lon="1.58101">
        <ele>194.4</ele>
        <time>2024-12-25T12:27:59Z</time>
      </trkpt>
      <trkpt lat="44.78789" lon="1.58101">
        <ele>194.2</ele>
        <time>2024-12-25T12:28:00Z</time>
      </trkpt>
      <trkpt lat="44.7879" lon="1.58102">
        <ele>194</ele>
        <time>2024-12-25T12:28:01Z</time>
      </trkpt>
      <trkpt lat="44.78791" lon="1.58102">
        <ele>193.8</ele>
        <time>2024-12-25T12:28:02Z</time>
      </trkpt>
      <trkpt lat="44.78792" lon="1.58102">
        <ele>193.6</ele>
        <time>2024-12-25T12:28:03Z</time>
      </trkpt>
      <trkpt lat="44.78793" lon="1.58103">
        <ele>193.4</ele>
        <time>2024-12-25T12:28:04Z</time>
      </trkpt>
      <trkpt lat="44.78794" lon="1.58103">
        <ele>193.2</ele>
        <time>2024-12-25T12:28:05Z</time>
      </trkpt>
      <trkpt lat="44.78795" lon="1.58103">
        <ele>192.9</ele>
        <time>2024-12-25T12:28:06Z</time>
      </trkpt>
      <trkpt lat="44.78796" lon="1.58104">
        <ele>192.7</ele>
        <time>2024-12-25T12:28:07Z</time>
      </trkpt>
      <trkpt lat="44.78797" lon="1.58104">
        <ele>192.5</ele>
        <time>2024-12-25T12:28:08Z</time>
      </trkpt>
      <trkpt lat="44.78799" lon="1.58106">
        <ele>192.1</ele>
        <time>2024-12-25T12:28:10Z</time>
      </trkpt>
      <trkpt lat="44.788" lon="1.58106">
        <ele>191.8</ele>
        <time>2024-12-25T12:28:11Z</time>
      </trkpt>
      <trkpt lat="44.78801" lon="1.58107">
        <ele>191.6</ele>
        <time>2024-12-25T12:28:12Z</time>
      </trkpt>
      <trkpt lat="44.78802" lon="1.58107">
        <ele>191.5</ele>
        <time>2024-12-25T12:28:13Z</time>
      </trkpt>
      <trkpt lat="44.78802" lon="1.58108">
        <ele>191.3</ele>
        <time>2024-12-25T12:28:14Z</time>
      </trkpt>
      <trkpt lat="44.78803" lon="1.58108">
        <ele>191.2</ele>
        <time>2024-12-25T12:28:15Z</time>
      </trkpt>
      <trkpt lat="44.78803" lon="1.58109">
        <ele>191.1</ele>
        <time>2024-12-25T12:28:16Z</time>
      </trkpt>
      <trkpt lat="44.78804" lon="1.58109">
        <ele>190.9</ele>
        <time>2024-12-25T12:28:17Z</time>
      </trkpt>
      <trkpt lat="44.78804" lon="1.5811">
        <ele>190.8</ele>
        <time>2024-12-25T12:28:18Z</time>
      </trkpt>
      <trkpt lat="44.78804" lon="1.5811">
        <ele>190.8</ele>
        <time>2024-12-25T12:28:19Z</time>
      </trkpt>
      <trkpt lat="44.78803" lon="1.58109">
        <ele>190.6</ele>
        <time>2024-12-25T12:28:20Z</time>
      </trkpt>
      <trkpt lat="44.78803" lon="1.58109">
        <ele>190.5</ele>
        <time>2024-12-25T12:28:21Z</time>
      </trkpt>
      <trkpt lat="44.78804" lon="1.58109">
        <ele>190.4</ele>
        <time>2024-12-25T12:28:23Z</time>
      </trkpt>
      <trkpt lat="44.78805" lon="1.58108">
        <ele>190.1</ele>
        <time>2024-12-25T12:28:24Z</time>
      </trkpt>
      <trkpt lat="44.78806" lon="1.58108">
        <ele>189.9</ele>
        <time>2024-12-25T12:28:25Z</time>
      </trkpt>
      <trkpt lat="44.78807" lon="1.58108">
        <ele>189.6</ele>
        <time>2024-12-25T12:28:26Z</time>
      </trkpt>
      <trkpt lat="44.78807" lon="1.58108">
        <ele>189.5</ele>
        <time>2024-12-25T12:28:27Z</time>
      </trkpt>
      <trkpt lat="44.78808" lon="1.58109">
        <ele>189.3</ele>
        <time>2024-12-25T12:28:28Z</time>
      </trkpt>
      <trkpt lat="44.78809" lon="1.58109">
        <ele>189.1</ele>
        <time>2024-12-25T12:28:29Z</time>
      </trkpt>
      <trkpt lat="44.7881" lon="1.58109">
        <ele>188.9</ele>
        <time>2024-12-25T12:28:30Z</time>
      </trkpt>
      <trkpt lat="44.7881" lon="1.58109">
        <ele>188.7</ele>
        <time>2024-12-25T12:28:31Z</time>
      </trkpt>
      <trkpt lat="44.78811" lon="1.58109">
        <ele>188.6</ele>
        <time>2024-12-25T12:28:32Z</time>
      </trkpt>
      <trkpt lat="44.78812" lon="1.58109">
        <ele>188.4</ele>
        <time>2024-12-25T12:28:33Z</time>
      </trkpt>
      <trkpt lat="44.78812" lon="1.5811">
        <ele>188.2</ele>
        <time>2024-12-25T12:28:34Z</time>
      </trkpt>
      <trkpt lat="44.78813" lon="1.5811">
        <ele>188</ele>
        <time>2024-12-25T12:28:35Z</time>
      </trkpt>
      <trkpt lat="44.78815" lon="1.5811">
        <ele>187.7</ele>
        <time>2024-12-25T12:28:36Z</time>
      </trkpt>
      <trkpt lat="44.78816" lon="1.58111">
        <ele>187.3</ele>
        <time>2024-12-25T12:28:37Z</time>
      </trkpt>
      <trkpt lat="44.78817" lon="1.58111">
        <ele>187</ele>
        <time>2024-12-25T12:28:38Z</time>
      </trkpt>
      <trkpt lat="44.78818" lon="1.58112">
        <ele>186.7</ele>
        <time>2024-12-25T12:28:39Z</time>
      </trkpt>
      <trkpt lat="44.7882" lon="1.58113">
        <ele>186.1</ele>
        <time>2024-12-25T12:28:40Z</time>
      </trkpt>
      <trkpt lat="44.78821" lon="1.58114">
        <ele>185.9</ele>
        <time>2024-12-25T12:28:41Z</time>
      </trkpt>
      <trkpt lat="44.78822" lon="1.58114">
        <ele>185.7</ele>
        <time>2024-12-25T12:28:42Z</time>
      </trkpt>
      <trkpt lat="44.78824" lon="1.58116">
        <ele>185</ele>
        <time>2024-12-25T12:28:43Z</time>
      </trkpt>
      <trkpt lat="44.78825" lon="1.58116">
        <ele>184.7</ele>
        <time>2024-12-25T12:28:45Z</time>
      </trkpt>
      <trkpt lat="44.78826" lon="1.58117">
        <ele>184.4</ele>
        <time>2024-12-25T12:28:46Z</time>
      </trkpt>
      <trkpt lat="44.78827" lon="1.58118">
        <ele>184.1</ele>
        <time>2024-12-25T12:28:47Z</time>
      </trkpt>
      <trkpt lat="44.78828" lon="1.58118">
        <ele>183.7</ele>
        <time>2024-12-25T12:28:48Z</time>
      </trkpt>
      <trkpt lat="44.7883" lon="1.5812">
        <ele>183.1</ele>
        <time>2024-12-25T12:28:49Z</time>
      </trkpt>
      <trkpt lat="44.78831" lon="1.5812">
        <ele>182.9</ele>
        <time>2024-12-25T12:28:50Z</time>
      </trkpt>
      <trkpt lat="44.78833" lon="1.5812">
        <ele>182.3</ele>
        <time>2024-12-25T12:28:51Z</time>
      </trkpt>
      <trkpt lat="44.78834" lon="1.5812">
        <ele>182</ele>
        <time>2024-12-25T12:28:52Z</time>
      </trkpt>
      <trkpt lat="44.78835" lon="1.58121">
        <ele>181.8</ele>
        <time>2024-12-25T12:28:53Z</time>
      </trkpt>
      <trkpt lat="44.78837" lon="1.58121">
        <ele>181.3</ele>
        <time>2024-12-25T12:28:55Z</time>
      </trkpt>
      <trkpt lat="44.78838" lon="1.58122">
        <ele>180.9</ele>
        <time>2024-12-25T12:28:59Z</time>
      </trkpt>
      <trkpt lat="44.78837" lon="1.58123">
        <ele>180.6</ele>
        <time>2024-12-25T12:29:04Z</time>
      </trkpt>
      <trkpt lat="44.78841" lon="1.58129">
        <ele>179.2</ele>
        <time>2024-12-25T12:29:09Z</time>
      </trkpt>
      <trkpt lat="44.78847" lon="1.5813">
        <ele>177.7</ele>
        <time>2024-12-25T12:29:10Z</time>
      </trkpt>
      <trkpt lat="44.78852" lon="1.58133">
        <ele>176.6</ele>
        <time>2024-12-25T12:29:11Z</time>
      </trkpt>
      <trkpt lat="44.78854" lon="1.58133">
        <ele>176.1</ele>
        <time>2024-12-25T12:29:12Z</time>
      </trkpt>
      <trkpt lat="44.78855" lon="1.58134">
        <ele>175.8</ele>
        <time>2024-12-25T12:29:13Z</time>
      </trkpt>
      <trkpt lat="44.78856" lon="1.58134">
        <ele>175.5</ele>
        <time>2024-12-25T12:29:14Z</time>
      </trkpt>
      <trkpt lat="44.78857" lon="1.58134">
        <ele>175.3</ele>
        <time>2024-12-25T12:29:15Z</time>
      </trkpt>
      <trkpt lat="44.78857" lon="1.58135">
        <ele>175.3</ele>
        <time>2024-12-25T12:29:16Z</time>
      </trkpt>
      <trkpt lat="44.78857" lon="1.58135">
        <ele>175.2</ele>
        <time>2024-12-25T12:29:17Z</time>
      </trkpt>
      <trkpt lat="44.78858" lon="1.58135">
        <ele>175</ele>
        <time>2024-12-25T12:29:18Z</time>
      </trkpt>
      <trkpt lat="44.78859" lon="1.58135">
        <ele>174.7</ele>
        <time>2024-12-25T12:29:19Z</time>
      </trkpt>
      <trkpt lat="44.78861" lon="1.58136">
        <ele>174.3</ele>
        <time>2024-12-25T12:29:20Z</time>
      </trkpt>
      <trkpt lat="44.78864" lon="1.58137">
        <ele>173.6</ele>
        <time>2024-12-25T12:29:21Z</time>
      </trkpt>
      <trkpt lat="44.78867" lon="1.58139">
        <ele>172.9</ele>
        <time>2024-12-25T12:29:22Z</time>
      </trkpt>
      <trkpt lat="44.78868" lon="1.5814">
        <ele>172.6</ele>
        <time>2024-12-25T12:29:23Z</time>
      </trkpt>
      <trkpt lat="44.78869" lon="1.58141">
        <ele>172.2</ele>
        <time>2024-12-25T12:29:24Z</time>
      </trkpt>
      <trkpt lat="44.7887" lon="1.58143">
        <ele>171.8</ele>
        <time>2024-12-25T12:29:25Z</time>
      </trkpt>
      <trkpt lat="44.78872" lon="1.58144">
        <ele>171.3</ele>
        <time>2024-12-25T12:29:26Z</time>
      </trkpt>
      <trkpt lat="44.78872" lon="1.58145">
        <ele>171</ele>
        <time>2024-12-25T12:29:27Z</time>
      </trkpt>
      <trkpt lat="44.78873" lon="1.58146">
        <ele>170.8</ele>
        <time>2024-12-25T12:29:28Z</time>
      </trkpt>
      <trkpt lat="44.78874" lon="1.58147">
        <ele>170.4</ele>
        <time>2024-12-25T12:29:29Z</time>
      </trkpt>
      <trkpt lat="44.78875" lon="1.58147">
        <ele>170.2</ele>
        <time>2024-12-25T12:29:30Z</time>
      </trkpt>
      <trkpt lat="44.78876" lon="1.58148">
        <ele>169.9</ele>
        <time>2024-12-25T12:29:31Z</time>
      </trkpt>
      <trkpt lat="44.78877" lon="1.58148">
        <ele>169.6</ele>
        <time>2024-12-25T12:29:32Z</time>
      </trkpt>
      <trkpt lat="44.78878" lon="1.58149">
        <ele>169.4</ele>
        <time>2024-12-25T12:29:33Z</time>
      </trkpt>
      <trkpt lat="44.78879" lon="1.58149">
        <ele>169.2</ele>
        <time>2024-12-25T12:29:34Z</time>
      </trkpt>
      <trkpt lat="44.78879" lon="1.5815">
        <ele>169</ele>
        <time>2024-12-25T12:29:35Z</time>
      </trkpt>
      <trkpt lat="44.7888" lon="1.5815">
        <ele>168.9</ele>
        <time>2024-12-25T12:29:36Z</time>
      </trkpt>
      <trkpt lat="44.7888" lon="1.5815">
        <ele>168.7</ele>
        <time>2024-12-25T12:29:37Z</time>
      </trkpt>
      <trkpt lat="44.78881" lon="1.58151">
        <ele>168.4</ele>
        <time>2024-12-25T12:29:38Z</time>
      </trkpt>
      <trkpt lat="44.78882" lon="1.58152">
        <ele>168.2</ele>
        <time>2024-12-25T12:29:39Z</time>
      </trkpt>
      <trkpt lat="44.78882" lon="1.58153">
        <ele>167.9</ele>
        <time>2024-12-25T12:29:40Z</time>
      </trkpt>
      <trkpt lat="44.78883" lon="1.58153">
        <ele>167.6</ele>
        <time>2024-12-25T12:29:41Z</time>
      </trkpt>
      <trkpt lat="44.78884" lon="1.58154">
        <ele>167.3</ele>
        <time>2024-12-25T12:29:42Z</time>
      </trkpt>
      <trkpt lat="44.78885" lon="1.58155">
        <ele>167</ele>
        <time>2024-12-25T12:29:43Z</time>
      </trkpt>
      <trkpt lat="44.78886" lon="1.58156">
        <ele>166.8</ele>
        <time>2024-12-25T12:29:44Z</time>
      </trkpt>
      <trkpt lat="44.78887" lon="1.58157">
        <ele>166.5</ele>
        <time>2024-12-25T12:29:45Z</time>
      </trkpt>
      <trkpt lat="44.78887" lon="1.58158">
        <ele>166.2</ele>
        <time>2024-12-25T12:29:46Z</time>
      </trkpt>
      <trkpt lat="44.78888" lon="1.58159">
        <ele>165.9</ele>
        <time>2024-12-25T12:29:47Z</time>
      </trkpt>
      <trkpt lat="44.78888" lon="1.5816">
        <ele>165.7</ele>
        <time>2024-12-25T12:29:48Z</time>
      </trkpt>
      <trkpt lat="44.78889" lon="1.58161">
        <ele>165.4</ele>
        <time>2024-12-25T12:29:49Z</time>
      </trkpt>
      <trkpt lat="44.7889" lon="1.58162">
        <ele>165.1</ele>
        <time>2024-12-25T12:29:50Z</time>
      </trkpt>
      <trkpt lat="44.78891" lon="1.58163">
        <ele>164.8</ele>
        <time>2024-12-25T12:29:51Z</time>
      </trkpt>
      <trkpt lat="44.78891" lon="1.58164">
        <ele>164.6</ele>
        <time>2024-12-25T12:29:52Z</time>
      </trkpt>
      <trkpt lat="44.78892" lon="1.58164">
        <ele>164.5</ele>
        <time>2024-12-25T12:29:53Z</time>
      </trkpt>
      <trkpt lat="44.78892" lon="1.58165">
        <ele>164.4</ele>
        <time>2024-12-25T12:29:54Z</time>
      </trkpt>
      <trkpt lat="44.78892" lon="1.58166">
        <ele>164.2</ele>
        <time>2024-12-25T12:29:55Z</time>
      </trkpt>
      <trkpt lat="44.78892" lon="1.58166">
        <ele>164.1</ele>
        <time>2024-12-25T12:29:56Z</time>
      </trkpt>
      <trkpt lat="44.78892" lon="1.58167">
        <ele>164</ele>
        <time>2024-12-25T12:29:57Z</time>
      </trkpt>
      <trkpt lat="44.78892" lon="1.58168">
        <ele>163.9</ele>
        <time>2024-12-25T12:29:58Z</time>
      </trkpt>
      <trkpt lat="44.78892" lon="1.58168">
        <ele>163.7</ele>
        <time>2024-12-25T12:29:59Z</time>
      </trkpt>
      <trkpt lat="44.78894" lon="1.58169">
        <ele>163.4</ele>
        <time>2024-12-25T12:30:00Z</time>
      </trkpt>
      <trkpt lat="44.78894" lon="1.5817">
        <ele>163.2</ele>
        <time>2024-12-25T12:30:01Z</time>
      </trkpt>
      <trkpt lat="44.78895" lon="1.5817">
        <ele>163</ele>
        <time>2024-12-25T12:30:02Z</time>
      </trkpt>
      <trkpt lat="44.78896" lon="1.58171">
        <ele>162.7</ele>
        <time>2024-12-25T12:30:03Z</time>
      </trkpt>
      <trkpt lat="44.78898" lon="1.58172">
        <ele>162.2</ele>
        <time>2024-12-25T12:30:04Z</time>
      </trkpt>
      <trkpt lat="44.78899" lon="1.58172">
        <ele>162.1</ele>
        <time>2024-12-25T12:30:05Z</time>
      </trkpt>
      <trkpt lat="44.789" lon="1.58173">
        <ele>161.8</ele>
        <time>2024-12-25T12:30:06Z</time>
      </trkpt>
      <trkpt lat="44.789" lon="1.58174">
        <ele>161.6</ele>
        <time>2024-12-25T12:30:07Z</time>
      </trkpt>
      <trkpt lat="44.78901" lon="1.58175">
        <ele>161.3</ele>
        <time>2024-12-25T12:30:08Z</time>
      </trkpt>
      <trkpt lat="44.78902" lon="1.58177">
        <ele>160.9</ele>
        <time>2024-12-25T12:30:09Z</time>
      </trkpt>
      <trkpt lat="44.78903" lon="1.58177">
        <ele>160.8</ele>
        <time>2024-12-25T12:30:10Z</time>
      </trkpt>
      <trkpt lat="44.78904" lon="1.58178">
        <ele>160.5</ele>
        <time>2024-12-25T12:30:11Z</time>
      </trkpt>
      <trkpt lat="44.78905" lon="1.58179">
        <ele>160.2</ele>
        <time>2024-12-25T12:30:12Z</time>
      </trkpt>
      <trkpt lat="44.78907" lon="1.5818">
        <ele>159.8</ele>
        <time>2024-12-25T12:30:13Z</time>
      </trkpt>
      <trkpt lat="44.78908" lon="1.5818">
        <ele>159.4</ele>
        <time>2024-12-25T12:30:14Z</time>
      </trkpt>
      <trkpt lat="44.78909" lon="1.58182">
        <ele>159.1</ele>
        <time>2024-12-25T12:30:15Z</time>
      </trkpt>
      <trkpt lat="44.7891" lon="1.58182">
        <ele>158.8</ele>
        <time>2024-12-25T12:30:16Z</time>
      </trkpt>
      <trkpt lat="44.78912" lon="1.58182">
        <ele>158.5</ele>
        <time>2024-12-25T12:30:17Z</time>
      </trkpt>
      <trkpt lat="44.78913" lon="1.58182">
        <ele>158.2</ele>
        <time>2024-12-25T12:30:18Z</time>
      </trkpt>
      <trkpt lat="44.78914" lon="1.58182">
        <ele>157.9</ele>
        <time>2024-12-25T12:30:19Z</time>
      </trkpt>
      <trkpt lat="44.78915" lon="1.58182">
        <ele>157.7</ele>
        <time>2024-12-25T12:30:20Z</time>
      </trkpt>
      <trkpt lat="44.78916" lon="1.58182">
        <ele>157.4</ele>
        <time>2024-12-25T12:30:21Z</time>
      </trkpt>
      <trkpt lat="44.78917" lon="1.58182">
        <ele>157.2</ele>
        <time>2024-12-25T12:30:22Z</time>
      </trkpt>
      <trkpt lat="44.78918" lon="1.58182">
        <ele>156.9</ele>
        <time>2024-12-25T12:30:23Z</time>
      </trkpt>
      <trkpt lat="44.7892" lon="1.58182">
        <ele>156.6</ele>
        <time>2024-12-25T12:30:24Z</time>
      </trkpt>
      <trkpt lat="44.78921" lon="1.58183">
        <ele>156.3</ele>
        <time>2024-12-25T12:30:25Z</time>
      </trkpt>
      <trkpt lat="44.78922" lon="1.58183">
        <ele>156</ele>
        <time>2024-12-25T12:30:26Z</time>
      </trkpt>
      <trkpt lat="44.78923" lon="1.58184">
        <ele>155.7</ele>
        <time>2024-12-25T12:30:27Z</time>
      </trkpt>
      <trkpt lat="44.78925" lon="1.58185">
        <ele>155.2</ele>
        <time>2024-12-25T12:30:28Z</time>
      </trkpt>
      <trkpt lat="44.78926" lon="1.58185">
        <ele>155</ele>
        <time>2024-12-25T12:30:29Z</time>
      </trkpt>
      <trkpt lat="44.78926" lon="1.58186">
        <ele>154.8</ele>
        <time>2024-12-25T12:30:30Z</time>
      </trkpt>
      <trkpt lat="44.78928" lon="1.58187">
        <ele>154.3</ele>
        <time>2024-12-25T12:30:31Z</time>
      </trkpt>
      <trkpt lat="44.78928" lon="1.58188">
        <ele>154.1</ele>
        <time>2024-12-25T12:30:32Z</time>
      </trkpt>
      <trkpt lat="44.78929" lon="1.58189">
        <ele>153.9</ele>
        <time>2024-12-25T12:30:33Z</time>
      </trkpt>
      <trkpt lat="44.78929" lon="1.5819">
        <ele>153.7</ele>
        <time>2024-12-25T12:30:34Z</time>
      </trkpt>
      <trkpt lat="44.78929" lon="1.58191">
        <ele>153.6</ele>
        <time>2024-12-25T12:30:35Z</time>
      </trkpt>
      <trkpt lat="44.7893" lon="1.58191">
        <ele>153.4</ele>
        <time>2024-12-25T12:30:36Z</time>
      </trkpt>
      <trkpt lat="44.7893" lon="1.58192">
        <ele>153.2</ele>
        <time>2024-12-25T12:30:37Z</time>
      </trkpt>
      <trkpt lat="44.78931" lon="1.58193">
        <ele>152.9</ele>
        <time>2024-12-25T12:30:38Z</time>
      </trkpt>
      <trkpt lat="44.78931" lon="1.58194">
        <ele>152.7</ele>
        <time>2024-12-25T12:30:39Z</time>
      </trkpt>
      <trkpt lat="44.78932" lon="1.58194">
        <ele>152.6</ele>
        <time>2024-12-25T12:30:41Z</time>
      </trkpt>
      <trkpt lat="44.78933" lon="1.58195">
        <ele>152.2</ele>
        <time>2024-12-25T12:30:42Z</time>
      </trkpt>
      <trkpt lat="44.78935" lon="1.58196">
        <ele>151.8</ele>
        <time>2024-12-25T12:30:43Z</time>
      </trkpt>
      <trkpt lat="44.78936" lon="1.58196">
        <ele>151.4</ele>
        <time>2024-12-25T12:30:44Z</time>
      </trkpt>
      <trkpt lat="44.78937" lon="1.58197">
        <ele>151</ele>
        <time>2024-12-25T12:30:45Z</time>
      </trkpt>
      <trkpt lat="44.78939" lon="1.58198">
        <ele>150.4</ele>
        <time>2024-12-25T12:30:46Z</time>
      </trkpt>
      <trkpt lat="44.7894" lon="1.58199">
        <ele>150.2</ele>
        <time>2024-12-25T12:30:47Z</time>
      </trkpt>
      <trkpt lat="44.78941" lon="1.582">
        <ele>150</ele>
        <time>2024-12-25T12:30:48Z</time>
      </trkpt>
      <trkpt lat="44.78942" lon="1.582">
        <ele>149.6</ele>
        <time>2024-12-25T12:30:49Z</time>
      </trkpt>
      <trkpt lat="44.78943" lon="1.58201">
        <ele>149.3</ele>
        <time>2024-12-25T12:30:50Z</time>
      </trkpt>
      <trkpt lat="44.78944" lon="1.58202">
        <ele>149</ele>
        <time>2024-12-25T12:30:51Z</time>
      </trkpt>
      <trkpt lat="44.78945" lon="1.58203">
        <ele>148.6</ele>
        <time>2024-12-25T12:30:52Z</time>
      </trkpt>
      <trkpt lat="44.78946" lon="1.58204">
        <ele>148.2</ele>
        <time>2024-12-25T12:30:53Z</time>
      </trkpt>
      <trkpt lat="44.78948" lon="1.58206">
        <ele>147.6</ele>
        <time>2024-12-25T12:30:54Z</time>
      </trkpt>
      <trkpt lat="44.78949" lon="1.58206">
        <ele>147.4</ele>
        <time>2024-12-25T12:30:55Z</time>
      </trkpt>
      <trkpt lat="44.7895" lon="1.58207">
        <ele>147.1</ele>
        <time>2024-12-25T12:30:56Z</time>
      </trkpt>
      <trkpt lat="44.78952" lon="1.58207">
        <ele>146.7</ele>
        <time>2024-12-25T12:30:57Z</time>
      </trkpt>
      <trkpt lat="44.78954" lon="1.58209">
        <ele>146.1</ele>
        <time>2024-12-25T12:30:58Z</time>
      </trkpt>
      <trkpt lat="44.78955" lon="1.58209">
        <ele>145.8</ele>
        <time>2024-12-25T12:30:59Z</time>
      </trkpt>
      <trkpt lat="44.78955" lon="1.5821">
        <ele>145.5</ele>
        <time>2024-12-25T12:31:00Z</time>
      </trkpt>
      <trkpt lat="44.78957" lon="1.58211">
        <ele>145</ele>
        <time>2024-12-25T12:31:01Z</time>
      </trkpt>
      <trkpt lat="44.78958" lon="1.58212">
        <ele>144.8</ele>
        <time>2024-12-25T12:31:02Z</time>
      </trkpt>
      <trkpt lat="44.78959" lon="1.58212">
        <ele>144.5</ele>
        <time>2024-12-25T12:31:03Z</time>
      </trkpt>
      <trkpt lat="44.7896" lon="1.58213">
        <ele>144.1</ele>
        <time>2024-12-25T12:31:04Z</time>
      </trkpt>
      <trkpt lat="44.78961" lon="1.58214">
        <ele>143.9</ele>
        <time>2024-12-25T12:31:05Z</time>
      </trkpt>
      <trkpt lat="44.78962" lon="1.58215">
        <ele>143.6</ele>
        <time>2024-12-25T12:31:06Z</time>
      </trkpt>
      <trkpt lat="44.78962" lon="1.58216">
        <ele>143.4</ele>
        <time>2024-12-25T12:31:07Z</time>
      </trkpt>
      <trkpt lat="44.78963" lon="1.58217">
        <ele>143.1</ele>
        <time>2024-12-25T12:31:08Z</time>
      </trkpt>
      <trkpt lat="44.78963" lon="1.58218">
        <ele>142.9</ele>
        <time>2024-12-25T12:31:09Z</time>
      </trkpt>
      <trkpt lat="44.78964" lon="1.5822">
        <ele>142.5</ele>
        <time>2024-12-25T12:31:10Z</time>
      </trkpt>
      <trkpt lat="44.78965" lon="1.58221">
        <ele>142.3</ele>
        <time>2024-12-25T12:31:11Z</time>
      </trkpt>
      <trkpt lat="44.78966" lon="1.58223">
        <ele>141.9</ele>
        <time>2024-12-25T12:31:12Z</time>
      </trkpt>
      <trkpt lat="44.78966" lon="1.58224">
        <ele>141.7</ele>
        <time>2024-12-25T12:31:13Z</time>
      </trkpt>
      <trkpt lat="44.78967" lon="1.58225">
        <ele>141.6</ele>
        <time>2024-12-25T12:31:14Z</time>
      </trkpt>
      <trkpt lat="44.78967" lon="1.58226">
        <ele>141.4</ele>
        <time>2024-12-25T12:31:15Z</time>
      </trkpt>
      <trkpt lat="44.78968" lon="1.58228">
        <ele>141.1</ele>
        <time>2024-12-25T12:31:16Z</time>
      </trkpt>
      <trkpt lat="44.78969" lon="1.58228">
        <ele>141</ele>
        <time>2024-12-25T12:31:17Z</time>
      </trkpt>
      <trkpt lat="44.78969" lon="1.58229">
        <ele>140.8</ele>
        <time>2024-12-25T12:31:18Z</time>
      </trkpt>
      <trkpt lat="44.78969" lon="1.5823">
        <ele>140.7</ele>
        <time>2024-12-25T12:31:19Z</time>
      </trkpt>
      <trkpt lat="44.78971" lon="1.58232">
        <ele>140.3</ele>
        <time>2024-12-25T12:31:20Z</time>
      </trkpt>
      <trkpt lat="44.78972" lon="1.58232">
        <ele>140.2</ele>
        <time>2024-12-25T12:31:22Z</time>
      </trkpt>
      <trkpt lat="44.78972" lon="1.58233">
        <ele>140</ele>
        <time>2024-12-25T12:31:23Z</time>
      </trkpt>
      <trkpt lat="44.78974" lon="1.58234">
        <ele>139.8</ele>
        <time>2024-12-25T12:31:24Z</time>
      </trkpt>
      <trkpt lat="44.78975" lon="1.58235">
        <ele>139.5</ele>
        <time>2024-12-25T12:31:25Z</time>
      </trkpt>
      <trkpt lat="44.78976" lon="1.58236">
        <ele>139.2</ele>
        <time>2024-12-25T12:31:26Z</time>
      </trkpt>
      <trkpt lat="44.78978" lon="1.58236">
        <ele>138.9</ele>
        <time>2024-12-25T12:31:27Z</time>
      </trkpt>
      <trkpt lat="44.78981" lon="1.58237">
        <ele>138.4</ele>
        <time>2024-12-25T12:31:28Z</time>
      </trkpt>
      <trkpt lat="44.78982" lon="1.58237">
        <ele>138.3</ele>
        <time>2024-12-25T12:31:29Z</time>
      </trkpt>
      <trkpt lat="44.78985" lon="1.58238">
        <ele>137.8</ele>
        <time>2024-12-25T12:31:30Z</time>
      </trkpt>
      <trkpt lat="44.78985" lon="1.58239">
        <ele>137.6</ele>
        <time>2024-12-25T12:31:31Z</time>
      </trkpt>
      <trkpt lat="44.78987" lon="1.58239">
        <ele>137.4</ele>
        <time>2024-12-25T12:31:32Z</time>
      </trkpt>
      <trkpt lat="44.78989" lon="1.58241">
        <ele>137</ele>
        <time>2024-12-25T12:31:34Z</time>
      </trkpt>
      <trkpt lat="44.78991" lon="1.58243">
        <ele>136.5</ele>
        <time>2024-12-25T12:31:35Z</time>
      </trkpt>
      <trkpt lat="44.78991" lon="1.58243">
        <ele>136.4</ele>
        <time>2024-12-25T12:31:36Z</time>
      </trkpt>
      <trkpt lat="44.78993" lon="1.58244">
        <ele>136.2</ele>
        <time>2024-12-25T12:31:37Z</time>
      </trkpt>
      <trkpt lat="44.78993" lon="1.58245">
        <ele>136.1</ele>
        <time>2024-12-25T12:31:38Z</time>
      </trkpt>
      <trkpt lat="44.78994" lon="1.58246">
        <ele>135.9</ele>
        <time>2024-12-25T12:31:39Z</time>
      </trkpt>
      <trkpt lat="44.78994" lon="1.58247">
        <ele>135.8</ele>
        <time>2024-12-25T12:31:40Z</time>
      </trkpt>
      <trkpt lat="44.78995" lon="1.58248">
        <ele>135.6</ele>
        <time>2024-12-25T12:31:41Z</time>
      </trkpt>
      <trkpt lat="44.78996" lon="1.58249">
        <ele>135.4</ele>
        <time>2024-12-25T12:31:42Z</time>
      </trkpt>
      <trkpt lat="44.78996" lon="1.58251">
        <ele>135.2</ele>
        <time>2024-12-25T12:31:44Z</time>
      </trkpt>
      <trkpt lat="44.78997" lon="1.58257">
        <ele>134.5</ele>
        <time>2024-12-25T12:31:50Z</time>
      </trkpt>
      <trkpt lat="44.78995" lon="1.58255">
        <ele>134</ele>
        <time>2024-12-25T12:31:55Z</time>
      </trkpt>
      <trkpt lat="44.78992" lon="1.58246">
        <ele>132.9</ele>
        <time>2024-12-25T12:32:00Z</time>
      </trkpt>
      <trkpt lat="44.78992" lon="1.58251">
        <ele>132.2</ele>
        <time>2024-12-25T12:32:05Z</time>
      </trkpt>
      <trkpt lat="44.78994" lon="1.58262">
        <ele>130.9</ele>
        <time>2024-12-25T12:32:10Z</time>
      </trkpt>
      <trkpt lat="44.78996" lon="1.58273">
        <ele>129.2</ele>
        <time>2024-12-25T12:32:15Z</time>
      </trkpt>
      <trkpt lat="44.78998" lon="1.58284">
        <ele>128.9</ele>
        <time>2024-12-25T12:32:20Z</time>
      </trkpt>
      <trkpt lat="44.79" lon="1.58295">
        <ele>128.2</ele>
        <time>2024-12-25T12:32:25Z</time>
      </trkpt>
      <trkpt lat="44.79002" lon="1.58306">
        <ele>127.3</ele>
        <time>2024-12-25T12:32:26Z</time>
      </trkpt>
      <trkpt lat="44.79004" lon="1.58317">
        <ele>126.4</ele>
        <time>2024-12-25T12:32:27Z</time>
      </trkpt>
      <trkpt lat="44.79004" lon="1.58322">
        <ele>126</ele>
        <time>2024-12-25T12:32:28Z</time>
      </trkpt>
      <trkpt lat="44.79002" lon="1.58325">
        <ele>125.7</ele>
        <time>2024-12-25T12:32:29Z</time>
      </trkpt>
      <trkpt lat="44.79001" lon="1.58326">
        <ele>125.5</ele>
        <time>2024-12-25T12:32:30Z</time>
      </trkpt>
      <trkpt lat="44.79" lon="1.58328">
        <ele>125.4</ele>
        <time>2024-12-25T12:32:31Z</time>
      </trkpt>
      <trkpt lat="44.78998" lon="1.58329">
        <ele>125.1</ele>
        <time>2024-12-25T12:32:33Z</time>
      </trkpt>
      <trkpt lat="44.78995" lon="1.58332">
        <ele>124.7</ele>
        <time>2024-12-25T12:32:34Z</time>
      </trkpt>
      <trkpt lat="44.78994" lon="1.58333">
        <ele>124.5</ele>
        <time>2024-12-25T12:32:35Z</time>
      </trkpt>
      <trkpt lat="44.78994" lon="1.58334">
        <ele>124.5</ele>
        <time>2024-12-25T12:32:36Z</time>
      </trkpt>
      <trkpt lat="44.78994" lon="1.58335">
        <ele>124.3</ele>
        <time>2024-12-25T12:32:37Z</time>
      </trkpt>
      <trkpt lat="44.78993" lon="1.58336">
        <ele>124.2</ele>
        <time>2024-12-25T12:32:38Z</time>
      </trkpt>
      <trkpt lat="44.78992" lon="1.58337">
        <ele>124.1</ele>
        <time>2024-12-25T12:32:39Z</time>
      </trkpt>
      <trkpt lat="44.78992" lon="1.58339">
        <ele>124</ele>
        <time>2024-12-25T12:32:40Z</time>
      </trkpt>
      <trkpt lat="44.78991" lon="1.5834">
        <ele>123.8</ele>
        <time>2024-12-25T12:32:41Z</time>
      </trkpt>
      <trkpt lat="44.78991" lon="1.58341">
        <ele>123.7</ele>
        <time>2024-12-25T12:32:42Z</time>
      </trkpt>
      <trkpt lat="44.7899" lon="1.58343">
        <ele>123.5</ele>
        <time>2024-12-25T12:32:43Z</time>
      </trkpt>
      <trkpt lat="44.7899" lon="1.58344">
        <ele>123.4</ele>
        <time>2024-12-25T12:32:44Z</time>
      </trkpt>
      <trkpt lat="44.7899" lon="1.58345">
        <ele>123.3</ele>
        <time>2024-12-25T12:32:45Z</time>
      </trkpt>
      <trkpt lat="44.7899" lon="1.58347">
        <ele>123.1</ele>
        <time>2024-12-25T12:32:46Z</time>
      </trkpt>
      <trkpt lat="44.78989" lon="1.58349">
        <ele>123</ele>
        <time>2024-12-25T12:32:47Z</time>
      </trkpt>
      <trkpt lat="44.78989" lon="1.5835">
        <ele>122.8</ele>
        <time>2024-12-25T12:32:48Z</time>
      </trkpt>
      <trkpt lat="44.78989" lon="1.58352">
        <ele>122.7</ele>
        <time>2024-12-25T12:32:49Z</time>
      </trkpt>
      <trkpt lat="44.78989" lon="1.58353">
        <ele>122.5</ele>
        <time>2024-12-25T12:32:50Z</time>
      </trkpt>
      <trkpt lat="44.78988" lon="1.58355">
        <ele>122.3</ele>
        <time>2024-12-25T12:32:51Z</time>
      </trkpt>
      <trkpt lat="44.78988" lon="1.58356">
        <ele>122.2</ele>
        <time>2024-12-25T12:32:52Z</time>
      </trkpt>
      <trkpt lat="44.78988" lon="1.58357">
        <ele>122.1</ele>
        <time>2024-12-25T12:32:53Z</time>
      </trkpt>
      <trkpt lat="44.78988" lon="1.58359">
        <ele>121.9</ele>
        <time>2024-12-25T12:32:54Z</time>
      </trkpt>
      <trkpt lat="44.78988" lon="1.5836">
        <ele>121.8</ele>
        <time>2024-12-25T12:32:55Z</time>
      </trkpt>
      <trkpt lat="44.78988" lon="1.58362">
        <ele>121.6</ele>
        <time>2024-12-25T12:32:56Z</time>
      </trkpt>
      <trkpt lat="44.78988" lon="1.58363">
        <ele>121.5</ele>
        <time>2024-12-25T12:32:57Z</time>
      </trkpt>
      <trkpt lat="44.78988" lon="1.58365">
        <ele>121.3</ele>
        <time>2024-12-25T12:32:58Z</time>
      </trkpt>
      <trkpt lat="44.78987" lon="1.58366">
        <ele>121.1</ele>
        <time>2024-12-25T12:32:59Z</time>
      </trkpt>
      <trkpt lat="44.78987" lon="1.58368">
        <ele>121</ele>
        <time>2024-12-25T12:33:00Z</time>
      </trkpt>
      <trkpt lat="44.78987" lon="1.58371">
        <ele>120.7</ele>
        <time>2024-12-25T12:33:01Z</time>
      </trkpt>
      <trkpt lat="44.78987" lon="1.58372">
        <ele>120.5</ele>
        <time>2024-12-25T12:33:02Z</time>
      </trkpt>
      <trkpt lat="44.78987" lon="1.58373">
        <ele>120.4</ele>
        <time>2024-12-25T12:33:03Z</time>
      </trkpt>
      <trkpt lat="44.78987" lon="1.58375">
        <ele>120.3</ele>
        <time>2024-12-25T12:33:04Z</time>
      </trkpt>
      <trkpt lat="44.78986" lon="1.58376">
        <ele>120.1</ele>
        <time>2024-12-25T12:33:05Z</time>
      </trkpt>
      <trkpt lat="44.78986" lon="1.58378">
        <ele>119.9</ele>
        <time>2024-12-25T12:33:06Z</time>
      </trkpt>
      <trkpt lat="44.78986" lon="1.5838">
        <ele>119.8</ele>
        <time>2024-12-25T12:33:07Z</time>
      </trkpt>
      <trkpt lat="44.78986" lon="1.58381">
        <ele>119.6</ele>
        <time>2024-12-25T12:33:08Z</time>
      </trkpt>
      <trkpt lat="44.78986" lon="1.58382">
        <ele>119.5</ele>
        <time>2024-12-25T12:33:09Z</time>
      </trkpt>
      <trkpt lat="44.78986" lon="1.58384">
        <ele>119.4</ele>
        <time>2024-12-25T12:33:10Z</time>
      </trkpt>
      <trkpt lat="44.78987" lon="1.58386">
        <ele>119.2</ele>
        <time>2024-12-25T12:33:11Z</time>
      </trkpt>
      <trkpt lat="44.78987" lon="1.58387">
        <ele>119</ele>
        <time>2024-12-25T12:33:12Z</time>
      </trkpt>
      <trkpt lat="44.78988" lon="1.58389">
        <ele>118.9</ele>
        <time>2024-12-25T12:33:13Z</time>
      </trkpt>
      <trkpt lat="44.78988" lon="1.58391">
        <ele>118.8</ele>
        <time>2024-12-25T12:33:14Z</time>
      </trkpt>
      <trkpt lat="44.78988" lon="1.58394">
        <ele>118.6</ele>
        <time>2024-12-25T12:33:15Z</time>
      </trkpt>
      <trkpt lat="44.78988" lon="1.58395">
        <ele>118.5</ele>
        <time>2024-12-25T12:33:16Z</time>
      </trkpt>
      <trkpt lat="44.78989" lon="1.58396">
        <ele>118.4</ele>
        <time>2024-12-25T12:33:17Z</time>
      </trkpt>
      <trkpt lat="44.78989" lon="1.58398">
        <ele>118.3</ele>
        <time>2024-12-25T12:33:18Z</time>
      </trkpt>
      <trkpt lat="44.78989" lon="1.584">
        <ele>118.2</ele>
        <time>2024-12-25T12:33:19Z</time>
      </trkpt>
      <trkpt lat="44.78989" lon="1.58402">
        <ele>118.1</ele>
        <time>2024-12-25T12:33:20Z</time>
      </trkpt>
      <trkpt lat="44.7899" lon="1.58404">
        <ele>118</ele>
        <time>2024-12-25T12:33:21Z</time>
      </trkpt>
      <trkpt lat="44.7899" lon="1.58405">
        <ele>118</ele>
        <time>2024-12-25T12:33:22Z</time>
      </trkpt>
      <trkpt lat="44.7899" lon="1.58407">
        <ele>117.9</ele>
        <time>2024-12-25T12:33:23Z</time>
      </trkpt>
      <trkpt lat="44.7899" lon="1.58409">
        <ele>117.9</ele>
        <time>2024-12-25T12:33:24Z</time>
      </trkpt>
      <trkpt lat="44.7899" lon="1.58411">
        <ele>117.8</ele>
        <time>2024-12-25T12:33:25Z</time>
      </trkpt>
      <trkpt lat="44.78991" lon="1.58413">
        <ele>117.8</ele>
        <time>2024-12-25T12:33:26Z</time>
      </trkpt>
      <trkpt lat="44.78991" lon="1.58414">
        <ele>117.8</ele>
        <time>2024-12-25T12:33:27Z</time>
      </trkpt>
      <trkpt lat="44.78991" lon="1.58416">
        <ele>117.8</ele>
        <time>2024-12-25T12:33:28Z</time>
      </trkpt>
      <trkpt lat="44.78991" lon="1.58418">
        <ele>117.8</ele>
        <time>2024-12-25T12:33:29Z</time>
      </trkpt>
      <trkpt lat="44.7899" lon="1.5842">
        <ele>117.7</ele>
        <time>2024-12-25T12:33:30Z</time>
      </trkpt>
      <trkpt lat="44.78991" lon="1.58422">
        <ele>117.7</ele>
        <time>2024-12-25T12:33:31Z</time>
      </trkpt>
      <trkpt lat="44.78991" lon="1.58422">
        <ele>117.8</ele>
        <time>2024-12-25T12:33:32Z</time>
      </trkpt>
      <trkpt lat="44.78992" lon="1.58424">
        <ele>117.8</ele>
        <time>2024-12-25T12:33:33Z</time>
      </trkpt>
      <trkpt lat="44.78992" lon="1.58425">
        <ele>117.8</ele>
        <time>2024-12-25T12:33:34Z</time>
      </trkpt>
      <trkpt lat="44.78993" lon="1.58428">
        <ele>117.8</ele>
        <time>2024-12-25T12:33:35Z</time>
      </trkpt>
      <trkpt lat="44.78993" lon="1.58429">
        <ele>117.8</ele>
        <time>2024-12-25T12:33:36Z</time>
      </trkpt>
      <trkpt lat="44.78994" lon="1.5843">
        <ele>117.8</ele>
        <time>2024-12-25T12:33:37Z</time>
      </trkpt>
      <trkpt lat="44.78994" lon="1.58432">
        <ele>117.9</ele>
        <time>2024-12-25T12:33:38Z</time>
      </trkpt>
      <trkpt lat="44.78995" lon="1.58434">
        <ele>117.9</ele>
        <time>2024-12-25T12:33:39Z</time>
      </trkpt>
      <trkpt lat="44.78995" lon="1.58436">
        <ele>117.9</ele>
        <time>2024-12-25T12:33:40Z</time>
      </trkpt>
      <trkpt lat="44.78996" lon="1.58438">
        <ele>117.9</ele>
        <time>2024-12-25T12:33:41Z</time>
      </trkpt>
      <trkpt lat="44.78996" lon="1.58439">
        <ele>117.9</ele>
        <time>2024-12-25T12:33:42Z</time>
      </trkpt>
      <trkpt lat="44.78996" lon="1.58441">
        <ele>117.9</ele>
        <time>2024-12-25T12:33:43Z</time>
      </trkpt>
      <trkpt lat="44.78996" lon="1.58442">
        <ele>117.9</ele>
        <time>2024-12-25T12:33:44Z</time>
      </trkpt>
      <trkpt lat="44.78997" lon="1.58444">
        <ele>117.9</ele>
        <time>2024-12-25T12:33:45Z</time>
      </trkpt>
      <trkpt lat="44.78998" lon="1.58445">
        <ele>117.9</ele>
        <time>2024-12-25T12:33:46Z</time>
      </trkpt>
      <trkpt lat="44.78998" lon="1.58446">
        <ele>117.9</ele>
        <time>2024-12-25T12:33:47Z</time>
      </trkpt>
      <trkpt lat="44.79" lon="1.58448">
        <ele>117.9</ele>
        <time>2024-12-25T12:33:48Z</time>
      </trkpt>
      <trkpt lat="44.79" lon="1.58448">
        <ele>117.9</ele>
        <time>2024-12-25T12:33:49Z</time>
      </trkpt>
      <trkpt lat="44.79001" lon="1.58449">
        <ele>117.9</ele>
        <time>2024-12-25T12:33:50Z</time>
      </trkpt>
      <trkpt lat="44.79002" lon="1.58449">
        <ele>117.9</ele>
        <time>2024-12-25T12:33:51Z</time>
      </trkpt>
      <trkpt lat="44.79003" lon="1.5845">
        <ele>117.9</ele>
        <time>2024-12-25T12:33:52Z</time>
      </trkpt>
      <trkpt lat="44.79004" lon="1.58451">
        <ele>117.9</ele>
        <time>2024-12-25T12:33:53Z</time>
      </trkpt>
      <trkpt lat="44.79005" lon="1.58451">
        <ele>117.8</ele>
        <time>2024-12-25T12:33:54Z</time>
      </trkpt>
      <trkpt lat="44.79006" lon="1.58451">
        <ele>117.8</ele>
        <time>2024-12-25T12:33:55Z</time>
      </trkpt>
      <trkpt lat="44.79007" lon="1.58451">
        <ele>117.8</ele>
        <time>2024-12-25T12:33:56Z</time>
      </trkpt>
      <trkpt lat="44.79007" lon="1.58451">
        <ele>117.8</ele>
        <time>2024-12-25T12:33:57Z</time>
      </trkpt>
      <trkpt lat="44.79007" lon="1.58451">
        <ele>117.8</ele>
        <time>2024-12-25T12:33:58Z</time>
      </trkpt>
      <trkpt lat="44.79008" lon="1.58451">
        <ele>117.8</ele>
        <time>2024-12-25T12:33:59Z</time>
      </trkpt>
      <trkpt lat="44.79011" lon="1.58453">
        <ele>117.7</ele>
        <time>2024-12-25T12:34:00Z</time>
      </trkpt>
      <trkpt lat="44.79012" lon="1.58453">
        <ele>117.6</ele>
        <time>2024-12-25T12:34:01Z</time>
      </trkpt>
      <trkpt lat="44.79016" lon="1.58454">
        <ele>117.6</ele>
        <time>2024-12-25T12:34:02Z</time>
      </trkpt>
      <trkpt lat="44.79016" lon="1.58455">
        <ele>117.6</ele>
        <time>2024-12-25T12:34:03Z</time>
      </trkpt>
      <trkpt lat="44.79017" lon="1.58455">
        <ele>117.6</ele>
        <time>2024-12-25T12:34:04Z</time>
      </trkpt>
      <trkpt lat="44.79017" lon="1.58455">
        <ele>117.6</ele>
        <time>2024-12-25T12:34:05Z</time>
      </trkpt>
      <trkpt lat="44.79018" lon="1.58456">
        <ele>117.6</ele>
        <time>2024-12-25T12:34:06Z</time>
      </trkpt>
      <trkpt lat="44.79019" lon="1.58457">
        <ele>117.5</ele>
        <time>2024-12-25T12:34:07Z</time>
      </trkpt>
      <trkpt lat="44.7902" lon="1.58458">
        <ele>117.5</ele>
        <time>2024-12-25T12:34:08Z</time>
      </trkpt>
      <trkpt lat="44.79021" lon="1.58458">
        <ele>117.5</ele>
        <time>2024-12-25T12:34:09Z</time>
      </trkpt>
      <trkpt lat="44.79022" lon="1.58458">
        <ele>117.5</ele>
        <time>2024-12-25T12:34:10Z</time>
      </trkpt>
      <trkpt lat="44.79023" lon="1.58459">
        <ele>117.6</ele>
        <time>2024-12-25T12:34:11Z</time>
      </trkpt>
      <trkpt lat="44.79024" lon="1.58459">
        <ele>117.6</ele>
        <time>2024-12-25T12:34:12Z</time>
      </trkpt>
      <trkpt lat="44.79025" lon="1.58459">
        <ele>117.6</ele>
        <time>2024-12-25T12:34:13Z</time>
      </trkpt>
      <trkpt lat="44.79026" lon="1.58458">
        <ele>117.6</ele>
        <time>2024-12-25T12:34:14Z</time>
      </trkpt>
      <trkpt lat="44.79027" lon="1.58458">
        <ele>117.6</ele>
        <time>2024-12-25T12:34:15Z</time>
      </trkpt>
      <trkpt lat="44.79027" lon="1.58459">
        <ele>117.6</ele>
        <time>2024-12-25T12:34:16Z</time>
      </trkpt>
      <trkpt lat="44.79028" lon="1.58459">
        <ele>117.7</ele>
        <time>2024-12-25T12:34:17Z</time>
      </trkpt>
      <trkpt lat="44.79029" lon="1.58459">
        <ele>117.7</ele>
        <time>2024-12-25T12:34:18Z</time>
      </trkpt>
      <trkpt lat="44.79029" lon="1.5846">
        <ele>117.7</ele>
        <time>2024-12-25T12:34:19Z</time>
      </trkpt>
      <trkpt lat="44.7903" lon="1.5846">
        <ele>117.7</ele>
        <time>2024-12-25T12:34:20Z</time>
      </trkpt>
      <trkpt lat="44.7903" lon="1.58459">
        <ele>117.7</ele>
        <time>2024-12-25T12:34:21Z</time>
      </trkpt>
      <trkpt lat="44.79032" lon="1.58458">
        <ele>117.8</ele>
        <time>2024-12-25T12:34:22Z</time>
      </trkpt>
      <trkpt lat="44.79033" lon="1.58457">
        <ele>117.8</ele>
        <time>2024-12-25T12:34:23Z</time>
      </trkpt>
      <trkpt lat="44.79034" lon="1.58455">
        <ele>117.9</ele>
        <time>2024-12-25T12:34:24Z</time>
      </trkpt>
      <trkpt lat="44.79035" lon="1.58454">
        <ele>117.9</ele>
        <time>2024-12-25T12:34:25Z</time>
      </trkpt>
      <trkpt lat="44.79036" lon="1.58454">
        <ele>117.9</ele>
        <time>2024-12-25T12:34:26Z</time>
      </trkpt>
      <trkpt lat="44.79036" lon="1.58454">
        <ele>118</ele>
        <time>2024-12-25T12:34:27Z</time>
      </trkpt>
      <trkpt lat="44.79037" lon="1.58455">
        <ele>118</ele>
        <time>2024-12-25T12:34:28Z</time>
      </trkpt>
      <trkpt lat="44.79038" lon="1.58455">
        <ele>118</ele>
        <time>2024-12-25T12:34:29Z</time>
      </trkpt>
      <trkpt lat="44.7904" lon="1.58454">
        <ele>118</ele>
        <time>2024-12-25T12:34:30Z</time>
      </trkpt>
      <trkpt lat="44.79041" lon="1.58454">
        <ele>118.1</ele>
        <time>2024-12-25T12:34:31Z</time>
      </trkpt>
      <trkpt lat="44.79043" lon="1.58453">
        <ele>118.1</ele>
        <time>2024-12-25T12:34:32Z</time>
      </trkpt>
      <trkpt lat="44.79044" lon="1.58452">
        <ele>118.1</ele>
        <time>2024-12-25T12:34:33Z</time>
      </trkpt>
      <trkpt lat="44.79046" lon="1.58452">
        <ele>118.1</ele>
        <time>2024-12-25T12:34:34Z</time>
      </trkpt>
      <trkpt lat="44.79047" lon="1.58452">
        <ele>118.1</ele>
        <time>2024-12-25T12:34:35Z</time>
      </trkpt>
      <trkpt lat="44.79048" lon="1.58453">
        <ele>118</ele>
        <time>2024-12-25T12:34:36Z</time>
      </trkpt>
      <trkpt lat="44.7905" lon="1.58453">
        <ele>118</ele>
        <time>2024-12-25T12:34:37Z</time>
      </trkpt>
      <trkpt lat="44.7905" lon="1.58454">
        <ele>118</ele>
        <time>2024-12-25T12:34:38Z</time>
      </trkpt>
      <trkpt lat="44.79051" lon="1.58454">
        <ele>118</ele>
        <time>2024-12-25T12:34:39Z</time>
      </trkpt>
      <trkpt lat="44.79052" lon="1.58455">
        <ele>118</ele>
        <time>2024-12-25T12:34:40Z</time>
      </trkpt>
      <trkpt lat="44.79053" lon="1.58456">
        <ele>117.9</ele>
        <time>2024-12-25T12:34:41Z</time>
      </trkpt>
      <trkpt lat="44.79054" lon="1.58457">
        <ele>117.9</ele>
        <time>2024-12-25T12:34:42Z</time>
      </trkpt>
      <trkpt lat="44.79055" lon="1.58458">
        <ele>117.8</ele>
        <time>2024-12-25T12:34:43Z</time>
      </trkpt>
      <trkpt lat="44.79056" lon="1.58459">
        <ele>117.8</ele>
        <time>2024-12-25T12:34:44Z</time>
      </trkpt>
      <trkpt lat="44.79056" lon="1.5846">
        <ele>117.7</ele>
        <time>2024-12-25T12:34:45Z</time>
      </trkpt>
      <trkpt lat="44.79056" lon="1.58461">
        <ele>117.7</ele>
        <time>2024-12-25T12:34:46Z</time>
      </trkpt>
      <trkpt lat="44.79057" lon="1.58462">
        <ele>117.7</ele>
        <time>2024-12-25T12:34:47Z</time>
      </trkpt>
      <trkpt lat="44.79058" lon="1.58462">
        <ele>117.6</ele>
        <time>2024-12-25T12:34:48Z</time>
      </trkpt>
      <trkpt lat="44.7906" lon="1.58462">
        <ele>117.6</ele>
        <time>2024-12-25T12:34:49Z</time>
      </trkpt>
      <trkpt lat="44.79061" lon="1.58463">
        <ele>117.6</ele>
        <time>2024-12-25T12:34:50Z</time>
      </trkpt>
      <trkpt lat="44.79062" lon="1.58463">
        <ele>117.6</ele>
        <time>2024-12-25T12:34:51Z</time>
      </trkpt>
      <trkpt lat="44.79063" lon="1.58464">
        <ele>117.7</ele>
        <time>2024-12-25T12:34:52Z</time>
      </trkpt>
      <trkpt lat="44.79064" lon="1.58465">
        <ele>117.7</ele>
        <time>2024-12-25T12:34:53Z</time>
      </trkpt>
      <trkpt lat="44.79065" lon="1.58465">
        <ele>117.7</ele>
        <time>2024-12-25T12:34:54Z</time>
      </trkpt>
      <trkpt lat="44.79066" lon="1.58466">
        <ele>117.7</ele>
        <time>2024-12-25T12:34:55Z</time>
      </trkpt>
      <trkpt lat="44.79067" lon="1.58466">
        <ele>117.7</ele>
        <time>2024-12-25T12:34:56Z</time>
      </trkpt>
      <trkpt lat="44.79068" lon="1.58468">
        <ele>117.7</ele>
        <time>2024-12-25T12:34:57Z</time>
      </trkpt>
      <trkpt lat="44.79067" lon="1.5847">
        <ele>117.7</ele>
        <time>2024-12-25T12:34:58Z</time>
      </trkpt>
      <trkpt lat="44.79067" lon="1.58472">
        <ele>117.7</ele>
        <time>2024-12-25T12:34:59Z</time>
      </trkpt>
      <trkpt lat="44.79068" lon="1.58474">
        <ele>117.7</ele>
        <time>2024-12-25T12:35:00Z</time>
      </trkpt>
      <trkpt lat="44.79068" lon="1.58476">
        <ele>117.7</ele>
        <time>2024-12-25T12:35:01Z</time>
      </trkpt>
      <trkpt lat="44.79069" lon="1.58479">
        <ele>117.6</ele>
        <time>2024-12-25T12:35:02Z</time>
      </trkpt>
      <trkpt lat="44.7907" lon="1.5848">
        <ele>117.6</ele>
        <time>2024-12-25T12:35:03Z</time>
      </trkpt>
      <trkpt lat="44.7907" lon="1.58482">
        <ele>117.6</ele>
        <time>2024-12-25T12:35:04Z</time>
      </trkpt>
      <trkpt lat="44.7907" lon="1.58483">
        <ele>117.5</ele>
        <time>2024-12-25T12:35:05Z</time>
      </trkpt>
      <trkpt lat="44.7907" lon="1.58485">
        <ele>117.5</ele>
        <time>2024-12-25T12:35:06Z</time>
      </trkpt>
      <trkpt lat="44.7907" lon="1.58487">
        <ele>117.5</ele>
        <time>2024-12-25T12:35:07Z</time>
      </trkpt>
      <trkpt lat="44.7907" lon="1.58489">
        <ele>117.5</ele>
        <time>2024-12-25T12:35:08Z</time>
      </trkpt>
      <trkpt lat="44.7907" lon="1.5849">
        <ele>117.5</ele>
        <time>2024-12-25T12:35:09Z</time>
      </trkpt>
      <trkpt lat="44.79071" lon="1.58493">
        <ele>117.4</ele>
        <time>2024-12-25T12:35:10Z</time>
      </trkpt>
      <trkpt lat="44.79071" lon="1.58494">
        <ele>117.4</ele>
        <time>2024-12-25T12:35:11Z</time>
      </trkpt>
      <trkpt lat="44.79072" lon="1.58496">
        <ele>117.4</ele>
        <time>2024-12-25T12:35:12Z</time>
      </trkpt>
      <trkpt lat="44.79073" lon="1.58497">
        <ele>117.3</ele>
        <time>2024-12-25T12:35:13Z</time>
      </trkpt>
      <trkpt lat="44.79074" lon="1.58499">
        <ele>117.3</ele>
        <time>2024-12-25T12:35:14Z</time>
      </trkpt>
      <trkpt lat="44.79075" lon="1.58501">
        <ele>117.3</ele>
        <time>2024-12-25T12:35:15Z</time>
      </trkpt>
      <trkpt lat="44.79075" lon="1.58502">
        <ele>117.3</ele>
        <time>2024-12-25T12:35:16Z</time>
      </trkpt>
      <trkpt lat="44.79075" lon="1.58504">
        <ele>117.3</ele>
        <time>2024-12-25T12:35:17Z</time>
      </trkpt>
      <trkpt lat="44.79075" lon="1.58505">
        <ele>117.3</ele>
        <time>2024-12-25T12:35:18Z</time>
      </trkpt>
      <trkpt lat="44.79076" lon="1.58506">
        <ele>117.2</ele>
        <time>2024-12-25T12:35:19Z</time>
      </trkpt>
      <trkpt lat="44.79077" lon="1.58507">
        <ele>117.2</ele>
        <time>2024-12-25T12:35:20Z</time>
      </trkpt>
      <trkpt lat="44.79077" lon="1.58509">
        <ele>117.2</ele>
        <time>2024-12-25T12:35:21Z</time>
      </trkpt>
      <trkpt lat="44.79077" lon="1.58511">
        <ele>117.2</ele>
        <time>2024-12-25T12:35:22Z</time>
      </trkpt>
      <trkpt lat="44.79078" lon="1.58513">
        <ele>117.2</ele>
        <time>2024-12-25T12:35:23Z</time>
      </trkpt>
      <trkpt lat="44.79077" lon="1.58514">
        <ele>117.2</ele>
        <time>2024-12-25T12:35:24Z</time>
      </trkpt>
      <trkpt lat="44.79077" lon="1.58516">
        <ele>117.2</ele>
        <time>2024-12-25T12:35:25Z</time>
      </trkpt>
      <trkpt lat="44.79077" lon="1.58518">
        <ele>117.2</ele>
        <time>2024-12-25T12:35:26Z</time>
      </trkpt>
      <trkpt lat="44.79077" lon="1.5852">
        <ele>117.2</ele>
        <time>2024-12-25T12:35:27Z</time>
      </trkpt>
      <trkpt lat="44.79078" lon="1.58523">
        <ele>117.2</ele>
        <time>2024-12-25T12:35:28Z</time>
      </trkpt>
      <trkpt lat="44.79078" lon="1.58524">
        <ele>117.2</ele>
        <time>2024-12-25T12:35:29Z</time>
      </trkpt>
      <trkpt lat="44.79078" lon="1.58525">
        <ele>117.2</ele>
        <time>2024-12-25T12:35:30Z</time>
      </trkpt>
      <trkpt lat="44.79079" lon="1.58527">
        <ele>117.2</ele>
        <time>2024-12-25T12:35:31Z</time>
      </trkpt>
      <trkpt lat="44.79079" lon="1.58529">
        <ele>117.2</ele>
        <time>2024-12-25T12:35:32Z</time>
      </trkpt>
      <trkpt lat="44.7908" lon="1.5853">
        <ele>117.3</ele>
        <time>2024-12-25T12:35:33Z</time>
      </trkpt>
      <trkpt lat="44.7908" lon="1.58532">
        <ele>117.3</ele>
        <time>2024-12-25T12:35:34Z</time>
      </trkpt>
      <trkpt lat="44.7908" lon="1.58534">
        <ele>117.3</ele>
        <time>2024-12-25T12:35:35Z</time>
      </trkpt>
      <trkpt lat="44.79082" lon="1.58535">
        <ele>117.3</ele>
        <time>2024-12-25T12:35:36Z</time>
      </trkpt>
      <trkpt lat="44.79082" lon="1.58537">
        <ele>117.3</ele>
        <time>2024-12-25T12:35:37Z</time>
      </trkpt>
      <trkpt lat="44.79083" lon="1.58538">
        <ele>117.3</ele>
        <time>2024-12-25T12:35:38Z</time>
      </trkpt>
      <trkpt lat="44.79083" lon="1.5854">
        <ele>117.3</ele>
        <time>2024-12-25T12:35:39Z</time>
      </trkpt>
      <trkpt lat="44.79083" lon="1.58542">
        <ele>117.3</ele>
        <time>2024-12-25T12:35:40Z</time>
      </trkpt>
      <trkpt lat="44.79083" lon="1.58543">
        <ele>117.4</ele>
        <time>2024-12-25T12:35:41Z</time>
      </trkpt>
      <trkpt lat="44.79084" lon="1.58546">
        <ele>117.4</ele>
        <time>2024-12-25T12:35:42Z</time>
      </trkpt>
      <trkpt lat="44.79084" lon="1.58547">
        <ele>117.4</ele>
        <time>2024-12-25T12:35:43Z</time>
      </trkpt>
      <trkpt lat="44.79084" lon="1.58549">
        <ele>117.4</ele>
        <time>2024-12-25T12:35:44Z</time>
      </trkpt>
      <trkpt lat="44.79084" lon="1.5855">
        <ele>117.4</ele>
        <time>2024-12-25T12:35:45Z</time>
      </trkpt>
      <trkpt lat="44.79084" lon="1.58551">
        <ele>117.4</ele>
        <time>2024-12-25T12:35:46Z</time>
      </trkpt>
      <trkpt lat="44.79085" lon="1.58553">
        <ele>117.4</ele>
        <time>2024-12-25T12:35:47Z</time>
      </trkpt>
      <trkpt lat="44.79085" lon="1.58554">
        <ele>117.4</ele>
        <time>2024-12-25T12:35:48Z</time>
      </trkpt>
      <trkpt lat="44.79086" lon="1.58557">
        <ele>117.5</ele>
        <time>2024-12-25T12:35:49Z</time>
      </trkpt>
      <trkpt lat="44.79086" lon="1.58558">
        <ele>117.5</ele>
        <time>2024-12-25T12:35:50Z</time>
      </trkpt>
      <trkpt lat="44.79086" lon="1.58559">
        <ele>117.5</ele>
        <time>2024-12-25T12:35:51Z</time>
      </trkpt>
      <trkpt lat="44.79087" lon="1.58563">
        <ele>117.6</ele>
        <time>2024-12-25T12:35:52Z</time>
      </trkpt>
      <trkpt lat="44.79087" lon="1.58564">
        <ele>117.6</ele>
        <time>2024-12-25T12:35:53Z</time>
      </trkpt>
      <trkpt lat="44.79087" lon="1.58565">
        <ele>117.6</ele>
        <time>2024-12-25T12:35:54Z</time>
      </trkpt>
      <trkpt lat="44.79087" lon="1.58567">
        <ele>117.6</ele>
        <time>2024-12-25T12:35:55Z</time>
      </trkpt>
      <trkpt lat="44.79087" lon="1.58569">
        <ele>117.6</ele>
        <time>2024-12-25T12:35:56Z</time>
      </trkpt>
      <trkpt lat="44.79088" lon="1.58572">
        <ele>117.7</ele>
        <time>2024-12-25T12:35:57Z</time>
      </trkpt>
      <trkpt lat="44.79089" lon="1.58574">
        <ele>117.7</ele>
        <time>2024-12-25T12:35:59Z</time>
      </trkpt>
      <trkpt lat="44.79089" lon="1.58575">
        <ele>117.7</ele>
        <time>2024-12-25T12:36:00Z</time>
      </trkpt>
      <trkpt lat="44.7909" lon="1.58576">
        <ele>117.7</ele>
        <time>2024-12-25T12:36:01Z</time>
      </trkpt>
      <trkpt lat="44.79091" lon="1.58577">
        <ele>117.8</ele>
        <time>2024-12-25T12:36:02Z</time>
      </trkpt>
      <trkpt lat="44.79091" lon="1.58578">
        <ele>117.8</ele>
        <time>2024-12-25T12:36:03Z</time>
      </trkpt>
      <trkpt lat="44.79092" lon="1.58579">
        <ele>117.8</ele>
        <time>2024-12-25T12:36:04Z</time>
      </trkpt>
      <trkpt lat="44.79093" lon="1.58581">
        <ele>117.8</ele>
        <time>2024-12-25T12:36:05Z</time>
      </trkpt>
      <trkpt lat="44.79094" lon="1.58582">
        <ele>117.8</ele>
        <time>2024-12-25T12:36:06Z</time>
      </trkpt>
      <trkpt lat="44.79095" lon="1.58584">
        <ele>117.9</ele>
        <time>2024-12-25T12:36:07Z</time>
      </trkpt>
      <trkpt lat="44.79097" lon="1.58584">
        <ele>117.9</ele>
        <time>2024-12-25T12:36:08Z</time>
      </trkpt>
      <trkpt lat="44.79098" lon="1.58585">
        <ele>117.9</ele>
        <time>2024-12-25T12:36:09Z</time>
      </trkpt>
      <trkpt lat="44.79099" lon="1.58585">
        <ele>117.9</ele>
        <time>2024-12-25T12:36:10Z</time>
      </trkpt>
      <trkpt lat="44.791" lon="1.58585">
        <ele>117.9</ele>
        <time>2024-12-25T12:36:11Z</time>
      </trkpt>
      <trkpt lat="44.79102" lon="1.58585">
        <ele>118</ele>
        <time>2024-12-25T12:36:12Z</time>
      </trkpt>
      <trkpt lat="44.79103" lon="1.58586">
        <ele>118</ele>
        <time>2024-12-25T12:36:13Z</time>
      </trkpt>
      <trkpt lat="44.79104" lon="1.58587">
        <ele>118</ele>
        <time>2024-12-25T12:36:14Z</time>
      </trkpt>
      <trkpt lat="44.79105" lon="1.58588">
        <ele>118</ele>
        <time>2024-12-25T12:36:15Z</time>
      </trkpt>
      <trkpt lat="44.79106" lon="1.5859">
        <ele>118</ele>
        <time>2024-12-25T12:36:16Z</time>
      </trkpt>
      <trkpt lat="44.79107" lon="1.5859">
        <ele>118</ele>
        <time>2024-12-25T12:36:17Z</time>
      </trkpt>
      <trkpt lat="44.79108" lon="1.58591">
        <ele>118</ele>
        <time>2024-12-25T12:36:18Z</time>
      </trkpt>
      <trkpt lat="44.79109" lon="1.58593">
        <ele>118</ele>
        <time>2024-12-25T12:36:19Z</time>
      </trkpt>
      <trkpt lat="44.7911" lon="1.58594">
        <ele>118</ele>
        <time>2024-12-25T12:36:20Z</time>
      </trkpt>
      <trkpt lat="44.79111" lon="1.58595">
        <ele>118</ele>
        <time>2024-12-25T12:36:21Z</time>
      </trkpt>
      <trkpt lat="44.79113" lon="1.58596">
        <ele>118</ele>
        <time>2024-12-25T12:36:22Z</time>
      </trkpt>
      <trkpt lat="44.79114" lon="1.58597">
        <ele>118</ele>
        <time>2024-12-25T12:36:23Z</time>
      </trkpt>
      <trkpt lat="44.79114" lon="1.58597">
        <ele>118</ele>
        <time>2024-12-25T12:36:24Z</time>
      </trkpt>
      <trkpt lat="44.79117" lon="1.58598">
        <ele>118</ele>
        <time>2024-12-25T12:36:25Z</time>
      </trkpt>
      <trkpt lat="44.79118" lon="1.58598">
        <ele>118</ele>
        <time>2024-12-25T12:36:26Z</time>
      </trkpt>
      <trkpt lat="44.79119" lon="1.58598">
        <ele>118</ele>
        <time>2024-12-25T12:36:27Z</time>
      </trkpt>
      <trkpt lat="44.7912" lon="1.58598">
        <ele>118</ele>
        <time>2024-12-25T12:36:28Z</time>
      </trkpt>
      <trkpt lat="44.79121" lon="1.58599">
        <ele>118</ele>
        <time>2024-12-25T12:36:29Z</time>
      </trkpt>
      <trkpt lat="44.79122" lon="1.58599">
        <ele>118</ele>
        <time>2024-12-25T12:36:30Z</time>
      </trkpt>
      <trkpt lat="44.79123" lon="1.58599">
        <ele>118</ele>
        <time>2024-12-25T12:36:31Z</time>
      </trkpt>
      <trkpt lat="44.79124" lon="1.58599">
        <ele>118</ele>
        <time>2024-12-25T12:36:32Z</time>
      </trkpt>
      <trkpt lat="44.79125" lon="1.58599">
        <ele>118</ele>
        <time>2024-12-25T12:36:33Z</time>
      </trkpt>
      <trkpt lat="44.79126" lon="1.58599">
        <ele>118</ele>
        <time>2024-12-25T12:36:34Z</time>
      </trkpt>
      <trkpt lat="44.79127" lon="1.58599">
        <ele>118</ele>
        <time>2024-12-25T12:36:35Z</time>
      </trkpt>
      <trkpt lat="44.79128" lon="1.586">
        <ele>118</ele>
        <time>2024-12-25T12:36:36Z</time>
      </trkpt>
      <trkpt lat="44.79129" lon="1.586">
        <ele>117.9</ele>
        <time>2024-12-25T12:36:37Z</time>
      </trkpt>
      <trkpt lat="44.79131" lon="1.586">
        <ele>117.9</ele>
        <time>2024-12-25T12:36:38Z</time>
      </trkpt>
      <trkpt lat="44.79132" lon="1.586">
        <ele>117.9</ele>
        <time>2024-12-25T12:36:39Z</time>
      </trkpt>
      <trkpt lat="44.79133" lon="1.586">
        <ele>117.9</ele>
        <time>2024-12-25T12:36:40Z</time>
      </trkpt>
      <trkpt lat="44.79135" lon="1.586">
        <ele>117.9</ele>
        <time>2024-12-25T12:36:41Z</time>
      </trkpt>
      <trkpt lat="44.79138" lon="1.58601">
        <ele>117.9</ele>
        <time>2024-12-25T12:36:42Z</time>
      </trkpt>
      <trkpt lat="44.79138" lon="1.58601">
        <ele>117.9</ele>
        <time>2024-12-25T12:36:43Z</time>
      </trkpt>
      <trkpt lat="44.7914" lon="1.58601">
        <ele>118</ele>
        <time>2024-12-25T12:36:44Z</time>
      </trkpt>
      <trkpt lat="44.79142" lon="1.58601">
        <ele>118</ele>
        <time>2024-12-25T12:36:45Z</time>
      </trkpt>
      <trkpt lat="44.79143" lon="1.58601">
        <ele>118</ele>
        <time>2024-12-25T12:36:46Z</time>
      </trkpt>
      <trkpt lat="44.79144" lon="1.58601">
        <ele>118</ele>
        <time>2024-12-25T12:36:47Z</time>
      </trkpt>
      <trkpt lat="44.79145" lon="1.58601">
        <ele>118</ele>
        <time>2024-12-25T12:36:48Z</time>
      </trkpt>
      <trkpt lat="44.79146" lon="1.58601">
        <ele>118</ele>
        <time>2024-12-25T12:36:49Z</time>
      </trkpt>
      <trkpt lat="44.79147" lon="1.58602">
        <ele>118</ele>
        <time>2024-12-25T12:36:50Z</time>
      </trkpt>
      <trkpt lat="44.79149" lon="1.58603">
        <ele>118.1</ele>
        <time>2024-12-25T12:36:51Z</time>
      </trkpt>
      <trkpt lat="44.7915" lon="1.58605">
        <ele>118.1</ele>
        <time>2024-12-25T12:36:52Z</time>
      </trkpt>
      <trkpt lat="44.79151" lon="1.58606">
        <ele>118.1</ele>
        <time>2024-12-25T12:36:53Z</time>
      </trkpt>
      <trkpt lat="44.79152" lon="1.58607">
        <ele>118.2</ele>
        <time>2024-12-25T12:36:54Z</time>
      </trkpt>
      <trkpt lat="44.79155" lon="1.58609">
        <ele>118.2</ele>
        <time>2024-12-25T12:36:55Z</time>
      </trkpt>
      <trkpt lat="44.79155" lon="1.5861">
        <ele>118.3</ele>
        <time>2024-12-25T12:36:56Z</time>
      </trkpt>
      <trkpt lat="44.79156" lon="1.58613">
        <ele>118.3</ele>
        <time>2024-12-25T12:36:57Z</time>
      </trkpt>
      <trkpt lat="44.79156" lon="1.58615">
        <ele>118.4</ele>
        <time>2024-12-25T12:36:58Z</time>
      </trkpt>
      <trkpt lat="44.79157" lon="1.58616">
        <ele>118.4</ele>
        <time>2024-12-25T12:36:59Z</time>
      </trkpt>
      <trkpt lat="44.79158" lon="1.58618">
        <ele>118.4</ele>
        <time>2024-12-25T12:37:00Z</time>
      </trkpt>
      <trkpt lat="44.79158" lon="1.58619">
        <ele>118.5</ele>
        <time>2024-12-25T12:37:01Z</time>
      </trkpt>
      <trkpt lat="44.79159" lon="1.58622">
        <ele>118.5</ele>
        <time>2024-12-25T12:37:02Z</time>
      </trkpt>
      <trkpt lat="44.7916" lon="1.58622">
        <ele>118.6</ele>
        <time>2024-12-25T12:37:03Z</time>
      </trkpt>
      <trkpt lat="44.7916" lon="1.58623">
        <ele>118.6</ele>
        <time>2024-12-25T12:37:04Z</time>
      </trkpt>
      <trkpt lat="44.79161" lon="1.58626">
        <ele>118.7</ele>
        <time>2024-12-25T12:37:05Z</time>
      </trkpt>
      <trkpt lat="44.79161" lon="1.58627">
        <ele>118.7</ele>
        <time>2024-12-25T12:37:06Z</time>
      </trkpt>
      <trkpt lat="44.79161" lon="1.58629">
        <ele>118.7</ele>
        <time>2024-12-25T12:37:07Z</time>
      </trkpt>
      <trkpt lat="44.79162" lon="1.58631">
        <ele>118.8</ele>
        <time>2024-12-25T12:37:08Z</time>
      </trkpt>
      <trkpt lat="44.79162" lon="1.58633">
        <ele>118.8</ele>
        <time>2024-12-25T12:37:09Z</time>
      </trkpt>
      <trkpt lat="44.79163" lon="1.58634">
        <ele>118.8</ele>
        <time>2024-12-25T12:37:10Z</time>
      </trkpt>
      <trkpt lat="44.79163" lon="1.58636">
        <ele>118.9</ele>
        <time>2024-12-25T12:37:11Z</time>
      </trkpt>
      <trkpt lat="44.79164" lon="1.58638">
        <ele>118.9</ele>
        <time>2024-12-25T12:37:12Z</time>
      </trkpt>
      <trkpt lat="44.79164" lon="1.58639">
        <ele>118.9</ele>
        <time>2024-12-25T12:37:13Z</time>
      </trkpt>
      <trkpt lat="44.79165" lon="1.5864">
        <ele>119</ele>
        <time>2024-12-25T12:37:14Z</time>
      </trkpt>
      <trkpt lat="44.79165" lon="1.58642">
        <ele>119</ele>
        <time>2024-12-25T12:37:15Z</time>
      </trkpt>
      <trkpt lat="44.79166" lon="1.58643">
        <ele>119</ele>
        <time>2024-12-25T12:37:16Z</time>
      </trkpt>
      <trkpt lat="44.79166" lon="1.58644">
        <ele>119</ele>
        <time>2024-12-25T12:37:17Z</time>
      </trkpt>
      <trkpt lat="44.79166" lon="1.58646">
        <ele>119</ele>
        <time>2024-12-25T12:37:18Z</time>
      </trkpt>
      <trkpt lat="44.79167" lon="1.58647">
        <ele>119.1</ele>
        <time>2024-12-25T12:37:19Z</time>
      </trkpt>
      <trkpt lat="44.79167" lon="1.58649">
        <ele>119.1</ele>
        <time>2024-12-25T12:37:20Z</time>
      </trkpt>
      <trkpt lat="44.79167" lon="1.5865">
        <ele>119.1</ele>
        <time>2024-12-25T12:37:21Z</time>
      </trkpt>
      <trkpt lat="44.79168" lon="1.58652">
        <ele>119.1</ele>
        <time>2024-12-25T12:37:22Z</time>
      </trkpt>
      <trkpt lat="44.79169" lon="1.58654">
        <ele>119.1</ele>
        <time>2024-12-25T12:37:23Z</time>
      </trkpt>
      <trkpt lat="44.79169" lon="1.58655">
        <ele>119.1</ele>
        <time>2024-12-25T12:37:24Z</time>
      </trkpt>
      <trkpt lat="44.7917" lon="1.58658">
        <ele>119.2</ele>
        <time>2024-12-25T12:37:25Z</time>
      </trkpt>
      <trkpt lat="44.7917" lon="1.5866">
        <ele>119.2</ele>
        <time>2024-12-25T12:37:26Z</time>
      </trkpt>
      <trkpt lat="44.7917" lon="1.58663">
        <ele>119.2</ele>
        <time>2024-12-25T12:37:27Z</time>
      </trkpt>
      <trkpt lat="44.7917" lon="1.58664">
        <ele>119.2</ele>
        <time>2024-12-25T12:37:28Z</time>
      </trkpt>
      <trkpt lat="44.79171" lon="1.58666">
        <ele>119.2</ele>
        <time>2024-12-25T12:37:29Z</time>
      </trkpt>
      <trkpt lat="44.79172" lon="1.58668">
        <ele>119.2</ele>
        <time>2024-12-25T12:37:31Z</time>
      </trkpt>
      <trkpt lat="44.79173" lon="1.5867">
        <ele>119.3</ele>
        <time>2024-12-25T12:37:32Z</time>
      </trkpt>
      <trkpt lat="44.79173" lon="1.58672">
        <ele>119.3</ele>
        <time>2024-12-25T12:37:33Z</time>
      </trkpt>
      <trkpt lat="44.79174" lon="1.58673">
        <ele>119.3</ele>
        <time>2024-12-25T12:37:34Z</time>
      </trkpt>
      <trkpt lat="44.79174" lon="1.58674">
        <ele>119.3</ele>
        <time>2024-12-25T12:37:35Z</time>
      </trkpt>
      <trkpt lat="44.79174" lon="1.58676">
        <ele>119.3</ele>
        <time>2024-12-25T12:37:36Z</time>
      </trkpt>
      <trkpt lat="44.79175" lon="1.58678">
        <ele>119.3</ele>
        <time>2024-12-25T12:37:37Z</time>
      </trkpt>
      <trkpt lat="44.79175" lon="1.58678">
        <ele>119.3</ele>
        <time>2024-12-25T12:37:38Z</time>
      </trkpt>
      <trkpt lat="44.79176" lon="1.5868">
        <ele>119.3</ele>
        <time>2024-12-25T12:37:39Z</time>
      </trkpt>
      <trkpt lat="44.79176" lon="1.58682">
        <ele>119.4</ele>
        <time>2024-12-25T12:37:40Z</time>
      </trkpt>
      <trkpt lat="44.79176" lon="1.58684">
        <ele>119.4</ele>
        <time>2024-12-25T12:37:41Z</time>
      </trkpt>
      <trkpt lat="44.79176" lon="1.58686">
        <ele>119.4</ele>
        <time>2024-12-25T12:37:42Z</time>
      </trkpt>
      <trkpt lat="44.79176" lon="1.58688">
        <ele>119.4</ele>
        <time>2024-12-25T12:37:43Z</time>
      </trkpt>
      <trkpt lat="44.79176" lon="1.58691">
        <ele>119.4</ele>
        <time>2024-12-25T12:37:44Z</time>
      </trkpt>
      <trkpt lat="44.79177" lon="1.58693">
        <ele>119.4</ele>
        <time>2024-12-25T12:37:45Z</time>
      </trkpt>
      <trkpt lat="44.79177" lon="1.58695">
        <ele>119.4</ele>
        <time>2024-12-25T12:37:46Z</time>
      </trkpt>
      <trkpt lat="44.79177" lon="1.58698">
        <ele>119.5</ele>
        <time>2024-12-25T12:37:47Z</time>
      </trkpt>
      <trkpt lat="44.79177" lon="1.58699">
        <ele>119.5</ele>
        <time>2024-12-25T12:37:48Z</time>
      </trkpt>
      <trkpt lat="44.79178" lon="1.587">
        <ele>119.5</ele>
        <time>2024-12-25T12:37:49Z</time>
      </trkpt>
      <trkpt lat="44.79178" lon="1.58702">
        <ele>119.5</ele>
        <time>2024-12-25T12:37:50Z</time>
      </trkpt>
      <trkpt lat="44.79179" lon="1.58704">
        <ele>119.5</ele>
        <time>2024-12-25T12:37:51Z</time>
      </trkpt>
      <trkpt lat="44.7918" lon="1.58706">
        <ele>119.5</ele>
        <time>2024-12-25T12:37:52Z</time>
      </trkpt>
      <trkpt lat="44.79181" lon="1.58708">
        <ele>119.5</ele>
        <time>2024-12-25T12:37:53Z</time>
      </trkpt>
      <trkpt lat="44.79181" lon="1.58709">
        <ele>119.5</ele>
        <time>2024-12-25T12:37:54Z</time>
      </trkpt>
      <trkpt lat="44.79182" lon="1.58711">
        <ele>119.5</ele>
        <time>2024-12-25T12:37:55Z</time>
      </trkpt>
      <trkpt lat="44.79182" lon="1.58713">
        <ele>119.5</ele>
        <time>2024-12-25T12:37:56Z</time>
      </trkpt>
      <trkpt lat="44.79183" lon="1.58715">
        <ele>119.5</ele>
        <time>2024-12-25T12:37:57Z</time>
      </trkpt>
      <trkpt lat="44.79183" lon="1.58717">
        <ele>119.5</ele>
        <time>2024-12-25T12:37:58Z</time>
      </trkpt>
      <trkpt lat="44.79184" lon="1.58719">
        <ele>119.5</ele>
        <time>2024-12-25T12:37:59Z</time>
      </trkpt>
      <trkpt lat="44.79184" lon="1.58721">
        <ele>119.5</ele>
        <time>2024-12-25T12:38:00Z</time>
      </trkpt>
      <trkpt lat="44.79184" lon="1.58723">
        <ele>119.5</ele>
        <time>2024-12-25T12:38:01Z</time>
      </trkpt>
      <trkpt lat="44.79184" lon="1.58725">
        <ele>119.6</ele>
        <time>2024-12-25T12:38:02Z</time>
      </trkpt>
      <trkpt lat="44.79184" lon="1.58727">
        <ele>119.6</ele>
        <time>2024-12-25T12:38:03Z</time>
      </trkpt>
      <trkpt lat="44.79185" lon="1.58728">
        <ele>119.6</ele>
        <time>2024-12-25T12:38:04Z</time>
      </trkpt>
      <trkpt lat="44.79184" lon="1.5873">
        <ele>119.6</ele>
        <time>2024-12-25T12:38:05Z</time>
      </trkpt>
      <trkpt lat="44.79184" lon="1.58732">
        <ele>119.6</ele>
        <time>2024-12-25T12:38:06Z</time>
      </trkpt>
      <trkpt lat="44.79184" lon="1.58734">
        <ele>119.6</ele>
        <time>2024-12-25T12:38:07Z</time>
      </trkpt>
      <trkpt lat="44.79184" lon="1.58737">
        <ele>119.6</ele>
        <time>2024-12-25T12:38:08Z</time>
      </trkpt>
      <trkpt lat="44.79184" lon="1.58738">
        <ele>119.6</ele>
        <time>2024-12-25T12:38:09Z</time>
      </trkpt>
      <trkpt lat="44.79184" lon="1.5874">
        <ele>119.6</ele>
        <time>2024-12-25T12:38:10Z</time>
      </trkpt>
      <trkpt lat="44.79184" lon="1.58742">
        <ele>119.6</ele>
        <time>2024-12-25T12:38:11Z</time>
      </trkpt>
      <trkpt lat="44.79184" lon="1.58744">
        <ele>119.6</ele>
        <time>2024-12-25T12:38:12Z</time>
      </trkpt>
      <trkpt lat="44.79185" lon="1.58745">
        <ele>119.6</ele>
        <time>2024-12-25T12:38:13Z</time>
      </trkpt>
      <trkpt lat="44.79185" lon="1.58747">
        <ele>119.6</ele>
        <time>2024-12-25T12:38:14Z</time>
      </trkpt>
      <trkpt lat="44.79185" lon="1.58749">
        <ele>119.6</ele>
        <time>2024-12-25T12:38:15Z</time>
      </trkpt>
      <trkpt lat="44.79185" lon="1.58752">
        <ele>119.6</ele>
        <time>2024-12-25T12:38:16Z</time>
      </trkpt>
      <trkpt lat="44.79185" lon="1.58753">
        <ele>119.6</ele>
        <time>2024-12-25T12:38:17Z</time>
      </trkpt>
      <trkpt lat="44.79185" lon="1.58754">
        <ele>119.6</ele>
        <time>2024-12-25T12:38:18Z</time>
      </trkpt>
      <trkpt lat="44.79184" lon="1.58757">
        <ele>119.6</ele>
        <time>2024-12-25T12:38:19Z</time>
      </trkpt>
      <trkpt lat="44.79184" lon="1.58758">
        <ele>119.6</ele>
        <time>2024-12-25T12:38:20Z</time>
      </trkpt>
      <trkpt lat="44.79184" lon="1.58759">
        <ele>119.7</ele>
        <time>2024-12-25T12:38:21Z</time>
      </trkpt>
      <trkpt lat="44.79183" lon="1.58761">
        <ele>119.7</ele>
        <time>2024-12-25T12:38:22Z</time>
      </trkpt>
      <trkpt lat="44.79183" lon="1.58762">
        <ele>119.7</ele>
        <time>2024-12-25T12:38:23Z</time>
      </trkpt>
      <trkpt lat="44.79183" lon="1.58764">
        <ele>119.7</ele>
        <time>2024-12-25T12:38:24Z</time>
      </trkpt>
      <trkpt lat="44.79183" lon="1.58767">
        <ele>119.7</ele>
        <time>2024-12-25T12:38:25Z</time>
      </trkpt>
      <trkpt lat="44.79183" lon="1.58769">
        <ele>119.7</ele>
        <time>2024-12-25T12:38:26Z</time>
      </trkpt>
      <trkpt lat="44.79183" lon="1.5877">
        <ele>119.7</ele>
        <time>2024-12-25T12:38:27Z</time>
      </trkpt>
      <trkpt lat="44.79183" lon="1.58772">
        <ele>119.6</ele>
        <time>2024-12-25T12:38:28Z</time>
      </trkpt>
      <trkpt lat="44.79184" lon="1.58773">
        <ele>119.6</ele>
        <time>2024-12-25T12:38:29Z</time>
      </trkpt>
      <trkpt lat="44.79184" lon="1.58775">
        <ele>119.6</ele>
        <time>2024-12-25T12:38:30Z</time>
      </trkpt>
      <trkpt lat="44.79184" lon="1.58777">
        <ele>119.6</ele>
        <time>2024-12-25T12:38:31Z</time>
      </trkpt>
      <trkpt lat="44.79184" lon="1.58779">
        <ele>119.6</ele>
        <time>2024-12-25T12:38:32Z</time>
      </trkpt>
      <trkpt lat="44.79184" lon="1.58781">
        <ele>119.6</ele>
        <time>2024-12-25T12:38:33Z</time>
      </trkpt>
      <trkpt lat="44.79185" lon="1.58783">
        <ele>119.6</ele>
        <time>2024-12-25T12:38:34Z</time>
      </trkpt>
      <trkpt lat="44.79185" lon="1.58784">
        <ele>119.6</ele>
        <time>2024-12-25T12:38:35Z</time>
      </trkpt>
      <trkpt lat="44.79185" lon="1.58786">
        <ele>119.6</ele>
        <time>2024-12-25T12:38:36Z</time>
      </trkpt>
      <trkpt lat="44.79185" lon="1.58788">
        <ele>119.6</ele>
        <time>2024-12-25T12:38:37Z</time>
      </trkpt>
      <trkpt lat="44.79185" lon="1.58791">
        <ele>119.6</ele>
        <time>2024-12-25T12:38:38Z</time>
      </trkpt>
      <trkpt lat="44.79184" lon="1.58792">
        <ele>119.6</ele>
        <time>2024-12-25T12:38:39Z</time>
      </trkpt>
      <trkpt lat="44.79184" lon="1.58794">
        <ele>119.6</ele>
        <time>2024-12-25T12:38:40Z</time>
      </trkpt>
      <trkpt lat="44.79184" lon="1.58796">
        <ele>119.6</ele>
        <time>2024-12-25T12:38:41Z</time>
      </trkpt>
      <trkpt lat="44.79184" lon="1.58799">
        <ele>119.6</ele>
        <time>2024-12-25T12:38:42Z</time>
      </trkpt>
      <trkpt lat="44.79184" lon="1.58801">
        <ele>119.6</ele>
        <time>2024-12-25T12:38:43Z</time>
      </trkpt>
      <trkpt lat="44.79183" lon="1.58802">
        <ele>119.6</ele>
        <time>2024-12-25T12:38:44Z</time>
      </trkpt>
      <trkpt lat="44.79183" lon="1.58804">
        <ele>119.6</ele>
        <time>2024-12-25T12:38:45Z</time>
      </trkpt>
      <trkpt lat="44.79183" lon="1.58805">
        <ele>119.6</ele>
        <time>2024-12-25T12:38:46Z</time>
      </trkpt>
      <trkpt lat="44.79182" lon="1.58808">
        <ele>119.6</ele>
        <time>2024-12-25T12:38:47Z</time>
      </trkpt>
      <trkpt lat="44.79182" lon="1.58809">
        <ele>119.6</ele>
        <time>2024-12-25T12:38:48Z</time>
      </trkpt>
      <trkpt lat="44.79181" lon="1.5881">
        <ele>119.6</ele>
        <time>2024-12-25T12:38:49Z</time>
      </trkpt>
      <trkpt lat="44.79181" lon="1.58812">
        <ele>119.6</ele>
        <time>2024-12-25T12:38:50Z</time>
      </trkpt>
      <trkpt lat="44.7918" lon="1.58815">
        <ele>119.6</ele>
        <time>2024-12-25T12:38:51Z</time>
      </trkpt>
      <trkpt lat="44.7918" lon="1.58816">
        <ele>119.6</ele>
        <time>2024-12-25T12:38:52Z</time>
      </trkpt>
      <trkpt lat="44.7918" lon="1.58817">
        <ele>119.6</ele>
        <time>2024-12-25T12:38:53Z</time>
      </trkpt>
      <trkpt lat="44.7918" lon="1.58819">
        <ele>119.6</ele>
        <time>2024-12-25T12:38:54Z</time>
      </trkpt>
      <trkpt lat="44.79179" lon="1.5882">
        <ele>119.7</ele>
        <time>2024-12-25T12:38:55Z</time>
      </trkpt>
      <trkpt lat="44.79179" lon="1.58822">
        <ele>119.7</ele>
        <time>2024-12-25T12:38:56Z</time>
      </trkpt>
      <trkpt lat="44.79179" lon="1.58824">
        <ele>119.7</ele>
        <time>2024-12-25T12:38:57Z</time>
      </trkpt>
      <trkpt lat="44.79179" lon="1.58825">
        <ele>119.7</ele>
        <time>2024-12-25T12:38:58Z</time>
      </trkpt>
      <trkpt lat="44.7918" lon="1.58826">
        <ele>119.7</ele>
        <time>2024-12-25T12:38:59Z</time>
      </trkpt>
      <trkpt lat="44.7918" lon="1.58828">
        <ele>119.7</ele>
        <time>2024-12-25T12:39:00Z</time>
      </trkpt>
      <trkpt lat="44.79181" lon="1.5883">
        <ele>119.7</ele>
        <time>2024-12-25T12:39:01Z</time>
      </trkpt>
      <trkpt lat="44.79181" lon="1.58831">
        <ele>119.8</ele>
        <time>2024-12-25T12:39:02Z</time>
      </trkpt>
      <trkpt lat="44.79182" lon="1.58833">
        <ele>119.8</ele>
        <time>2024-12-25T12:39:03Z</time>
      </trkpt>
      <trkpt lat="44.79182" lon="1.58834">
        <ele>119.8</ele>
        <time>2024-12-25T12:39:04Z</time>
      </trkpt>
      <trkpt lat="44.79182" lon="1.58836">
        <ele>119.8</ele>
        <time>2024-12-25T12:39:05Z</time>
      </trkpt>
      <trkpt lat="44.79183" lon="1.58836">
        <ele>119.8</ele>
        <time>2024-12-25T12:39:06Z</time>
      </trkpt>
      <trkpt lat="44.79183" lon="1.58837">
        <ele>119.8</ele>
        <time>2024-12-25T12:39:07Z</time>
      </trkpt>
      <trkpt lat="44.79183" lon="1.58839">
        <ele>119.8</ele>
        <time>2024-12-25T12:39:08Z</time>
      </trkpt>
      <trkpt lat="44.79182" lon="1.58841">
        <ele>119.8</ele>
        <time>2024-12-25T12:39:09Z</time>
      </trkpt>
      <trkpt lat="44.79181" lon="1.58843">
        <ele>119.9</ele>
        <time>2024-12-25T12:39:11Z</time>
      </trkpt>
      <trkpt lat="44.79178" lon="1.58847">
        <ele>119.9</ele>
        <time>2024-12-25T12:39:12Z</time>
      </trkpt>
      <trkpt lat="44.79178" lon="1.58849">
        <ele>119.9</ele>
        <time>2024-12-25T12:39:13Z</time>
      </trkpt>
      <trkpt lat="44.79177" lon="1.58851">
        <ele>119.9</ele>
        <time>2024-12-25T12:39:14Z</time>
      </trkpt>
      <trkpt lat="44.79176" lon="1.58853">
        <ele>119.9</ele>
        <time>2024-12-25T12:39:15Z</time>
      </trkpt>
      <trkpt lat="44.79175" lon="1.58856">
        <ele>119.9</ele>
        <time>2024-12-25T12:39:16Z</time>
      </trkpt>
      <trkpt lat="44.79175" lon="1.58858">
        <ele>119.9</ele>
        <time>2024-12-25T12:39:17Z</time>
      </trkpt>
      <trkpt lat="44.79175" lon="1.58861">
        <ele>119.9</ele>
        <time>2024-12-25T12:39:18Z</time>
      </trkpt>
      <trkpt lat="44.79174" lon="1.58863">
        <ele>120</ele>
        <time>2024-12-25T12:39:20Z</time>
      </trkpt>
      <trkpt lat="44.79174" lon="1.58865">
        <ele>120</ele>
        <time>2024-12-25T12:39:21Z</time>
      </trkpt>
      <trkpt lat="44.79174" lon="1.58867">
        <ele>120</ele>
        <time>2024-12-25T12:39:22Z</time>
      </trkpt>
      <trkpt lat="44.79173" lon="1.5887">
        <ele>120</ele>
        <time>2024-12-25T12:39:23Z</time>
      </trkpt>
      <trkpt lat="44.79173" lon="1.58872">
        <ele>120</ele>
        <time>2024-12-25T12:39:24Z</time>
      </trkpt>
      <trkpt lat="44.79173" lon="1.58874">
        <ele>120</ele>
        <time>2024-12-25T12:39:25Z</time>
      </trkpt>
      <trkpt lat="44.79173" lon="1.58875">
        <ele>120</ele>
        <time>2024-12-25T12:39:26Z</time>
      </trkpt>
      <trkpt lat="44.79173" lon="1.58876">
        <ele>120</ele>
        <time>2024-12-25T12:39:27Z</time>
      </trkpt>
      <trkpt lat="44.79173" lon="1.58879">
        <ele>120</ele>
        <time>2024-12-25T12:39:28Z</time>
      </trkpt>
      <trkpt lat="44.79173" lon="1.5888">
        <ele>120</ele>
        <time>2024-12-25T12:39:29Z</time>
      </trkpt>
      <trkpt lat="44.79173" lon="1.58883">
        <ele>120</ele>
        <time>2024-12-25T12:39:30Z</time>
      </trkpt>
      <trkpt lat="44.79173" lon="1.58885">
        <ele>120</ele>
        <time>2024-12-25T12:39:31Z</time>
      </trkpt>
      <trkpt lat="44.79173" lon="1.58886">
        <ele>120</ele>
        <time>2024-12-25T12:39:32Z</time>
      </trkpt>
      <trkpt lat="44.79173" lon="1.58888">
        <ele>120</ele>
        <time>2024-12-25T12:39:33Z</time>
      </trkpt>
      <trkpt lat="44.79174" lon="1.5889">
        <ele>120</ele>
        <time>2024-12-25T12:39:34Z</time>
      </trkpt>
      <trkpt lat="44.79174" lon="1.58893">
        <ele>120</ele>
        <time>2024-12-25T12:39:35Z</time>
      </trkpt>
      <trkpt lat="44.79173" lon="1.58895">
        <ele>120</ele>
        <time>2024-12-25T12:39:36Z</time>
      </trkpt>
      <trkpt lat="44.79173" lon="1.58896">
        <ele>120</ele>
        <time>2024-12-25T12:39:37Z</time>
      </trkpt>
      <trkpt lat="44.79173" lon="1.58899">
        <ele>120</ele>
        <time>2024-12-25T12:39:38Z</time>
      </trkpt>
      <trkpt lat="44.79172" lon="1.589">
        <ele>120</ele>
        <time>2024-12-25T12:39:39Z</time>
      </trkpt>
      <trkpt lat="44.79171" lon="1.58902">
        <ele>120</ele>
        <time>2024-12-25T12:39:40Z</time>
      </trkpt>
      <trkpt lat="44.79171" lon="1.58904">
        <ele>120</ele>
        <time>2024-12-25T12:39:41Z</time>
      </trkpt>
      <trkpt lat="44.79171" lon="1.58907">
        <ele>120</ele>
        <time>2024-12-25T12:39:42Z</time>
      </trkpt>
      <trkpt lat="44.79171" lon="1.58908">
        <ele>120</ele>
        <time>2024-12-25T12:39:43Z</time>
      </trkpt>
      <trkpt lat="44.79171" lon="1.58909">
        <ele>120</ele>
        <time>2024-12-25T12:39:44Z</time>
      </trkpt>
      <trkpt lat="44.79172" lon="1.58911">
        <ele>120</ele>
        <time>2024-12-25T12:39:45Z</time>
      </trkpt>
      <trkpt lat="44.79173" lon="1.58913">
        <ele>120</ele>
        <time>2024-12-25T12:39:46Z</time>
      </trkpt>
      <trkpt lat="44.79173" lon="1.58914">
        <ele>120</ele>
        <time>2024-12-25T12:39:47Z</time>
      </trkpt>
      <trkpt lat="44.79174" lon="1.58916">
        <ele>120</ele>
        <time>2024-12-25T12:39:48Z</time>
      </trkpt>
      <trkpt lat="44.79174" lon="1.58917">
        <ele>120</ele>
        <time>2024-12-25T12:39:49Z</time>
      </trkpt>
      <trkpt lat="44.79174" lon="1.58918">
        <ele>120</ele>
        <time>2024-12-25T12:39:50Z</time>
      </trkpt>
      <trkpt lat="44.79174" lon="1.5892">
        <ele>120.1</ele>
        <time>2024-12-25T12:39:51Z</time>
      </trkpt>
      <trkpt lat="44.79174" lon="1.58921">
        <ele>120.1</ele>
        <time>2024-12-25T12:39:52Z</time>
      </trkpt>
      <trkpt lat="44.79174" lon="1.58923">
        <ele>120.1</ele>
        <time>2024-12-25T12:39:53Z</time>
      </trkpt>
      <trkpt lat="44.79174" lon="1.58925">
        <ele>120.1</ele>
        <time>2024-12-25T12:39:54Z</time>
      </trkpt>
      <trkpt lat="44.79174" lon="1.58926">
        <ele>120.1</ele>
        <time>2024-12-25T12:39:55Z</time>
      </trkpt>
      <trkpt lat="44.79173" lon="1.58929">
        <ele>120.1</ele>
        <time>2024-12-25T12:39:56Z</time>
      </trkpt>
      <trkpt lat="44.79173" lon="1.5893">
        <ele>120.2</ele>
        <time>2024-12-25T12:39:57Z</time>
      </trkpt>
      <trkpt lat="44.79173" lon="1.58931">
        <ele>120.2</ele>
        <time>2024-12-25T12:39:58Z</time>
      </trkpt>
      <trkpt lat="44.79173" lon="1.58932">
        <ele>120.2</ele>
        <time>2024-12-25T12:39:59Z</time>
      </trkpt>
      <trkpt lat="44.79173" lon="1.58933">
        <ele>120.2</ele>
        <time>2024-12-25T12:40:00Z</time>
      </trkpt>
      <trkpt lat="44.79173" lon="1.58935">
        <ele>120.2</ele>
        <time>2024-12-25T12:40:01Z</time>
      </trkpt>
      <trkpt lat="44.79174" lon="1.58936">
        <ele>120.2</ele>
        <time>2024-12-25T12:40:02Z</time>
      </trkpt>
      <trkpt lat="44.79174" lon="1.58938">
        <ele>120.3</ele>
        <time>2024-12-25T12:40:03Z</time>
      </trkpt>
      <trkpt lat="44.79174" lon="1.58939">
        <ele>120.3</ele>
        <time>2024-12-25T12:40:04Z</time>
      </trkpt>
      <trkpt lat="44.79174" lon="1.5894">
        <ele>120.3</ele>
        <time>2024-12-25T12:40:05Z</time>
      </trkpt>
      <trkpt lat="44.79174" lon="1.58942">
        <ele>120.3</ele>
        <time>2024-12-25T12:40:06Z</time>
      </trkpt>
      <trkpt lat="44.79174" lon="1.58943">
        <ele>120.3</ele>
        <time>2024-12-25T12:40:07Z</time>
      </trkpt>
      <trkpt lat="44.79173" lon="1.58946">
        <ele>120.4</ele>
        <time>2024-12-25T12:40:08Z</time>
      </trkpt>
      <trkpt lat="44.79173" lon="1.58946">
        <ele>120.4</ele>
        <time>2024-12-25T12:40:09Z</time>
      </trkpt>
      <trkpt lat="44.79173" lon="1.58948">
        <ele>120.4</ele>
        <time>2024-12-25T12:40:10Z</time>
      </trkpt>
      <trkpt lat="44.79173" lon="1.58951">
        <ele>120.4</ele>
        <time>2024-12-25T12:40:11Z</time>
      </trkpt>
      <trkpt lat="44.79173" lon="1.58952">
        <ele>120.4</ele>
        <time>2024-12-25T12:40:12Z</time>
      </trkpt>
      <trkpt lat="44.79173" lon="1.58954">
        <ele>120.4</ele>
        <time>2024-12-25T12:40:13Z</time>
      </trkpt>
      <trkpt lat="44.79173" lon="1.58955">
        <ele>120.5</ele>
        <time>2024-12-25T12:40:14Z</time>
      </trkpt>
      <trkpt lat="44.79173" lon="1.58956">
        <ele>120.5</ele>
        <time>2024-12-25T12:40:15Z</time>
      </trkpt>
      <trkpt lat="44.79173" lon="1.58958">
        <ele>120.5</ele>
        <time>2024-12-25T12:40:16Z</time>
      </trkpt>
      <trkpt lat="44.79172" lon="1.5896">
        <ele>120.5</ele>
        <time>2024-12-25T12:40:17Z</time>
      </trkpt>
      <trkpt lat="44.79172" lon="1.58962">
        <ele>120.5</ele>
        <time>2024-12-25T12:40:18Z</time>
      </trkpt>
      <trkpt lat="44.79172" lon="1.58963">
        <ele>120.6</ele>
        <time>2024-12-25T12:40:19Z</time>
      </trkpt>
      <trkpt lat="44.79172" lon="1.58964">
        <ele>120.6</ele>
        <time>2024-12-25T12:40:20Z</time>
      </trkpt>
      <trkpt lat="44.79172" lon="1.58966">
        <ele>120.6</ele>
        <time>2024-12-25T12:40:21Z</time>
      </trkpt>
      <trkpt lat="44.79173" lon="1.58967">
        <ele>120.6</ele>
        <time>2024-12-25T12:40:22Z</time>
      </trkpt>
      <trkpt lat="44.79174" lon="1.5897">
        <ele>120.6</ele>
        <time>2024-12-25T12:40:23Z</time>
      </trkpt>
      <trkpt lat="44.79175" lon="1.5897">
        <ele>120.6</ele>
        <time>2024-12-25T12:40:24Z</time>
      </trkpt>
      <trkpt lat="44.79175" lon="1.58972">
        <ele>120.6</ele>
        <time>2024-12-25T12:40:25Z</time>
      </trkpt>
      <trkpt lat="44.79176" lon="1.58973">
        <ele>120.6</ele>
        <time>2024-12-25T12:40:26Z</time>
      </trkpt>
      <trkpt lat="44.79176" lon="1.58975">
        <ele>120.6</ele>
        <time>2024-12-25T12:40:27Z</time>
      </trkpt>
      <trkpt lat="44.79177" lon="1.58977">
        <ele>120.6</ele>
        <time>2024-12-25T12:40:28Z</time>
      </trkpt>
      <trkpt lat="44.79178" lon="1.58978">
        <ele>120.6</ele>
        <time>2024-12-25T12:40:29Z</time>
      </trkpt>
      <trkpt lat="44.79178" lon="1.58979">
        <ele>120.6</ele>
        <time>2024-12-25T12:40:30Z</time>
      </trkpt>
      <trkpt lat="44.79179" lon="1.58982">
        <ele>120.6</ele>
        <time>2024-12-25T12:40:31Z</time>
      </trkpt>
      <trkpt lat="44.7918" lon="1.58984">
        <ele>120.6</ele>
        <time>2024-12-25T12:40:32Z</time>
      </trkpt>
      <trkpt lat="44.7918" lon="1.58985">
        <ele>120.6</ele>
        <time>2024-12-25T12:40:33Z</time>
      </trkpt>
      <trkpt lat="44.7918" lon="1.58986">
        <ele>120.6</ele>
        <time>2024-12-25T12:40:34Z</time>
      </trkpt>
      <trkpt lat="44.7918" lon="1.58988">
        <ele>120.6</ele>
        <time>2024-12-25T12:40:35Z</time>
      </trkpt>
      <trkpt lat="44.79181" lon="1.58989">
        <ele>120.6</ele>
        <time>2024-12-25T12:40:36Z</time>
      </trkpt>
      <trkpt lat="44.79181" lon="1.58993">
        <ele>120.6</ele>
        <time>2024-12-25T12:40:37Z</time>
      </trkpt>
      <trkpt lat="44.79181" lon="1.58994">
        <ele>120.6</ele>
        <time>2024-12-25T12:40:38Z</time>
      </trkpt>
      <trkpt lat="44.79181" lon="1.58995">
        <ele>120.6</ele>
        <time>2024-12-25T12:40:39Z</time>
      </trkpt>
      <trkpt lat="44.79181" lon="1.58998">
        <ele>120.5</ele>
        <time>2024-12-25T12:40:40Z</time>
      </trkpt>
      <trkpt lat="44.7918" lon="1.58999">
        <ele>120.5</ele>
        <time>2024-12-25T12:40:41Z</time>
      </trkpt>
      <trkpt lat="44.7918" lon="1.59">
        <ele>120.5</ele>
        <time>2024-12-25T12:40:42Z</time>
      </trkpt>
      <trkpt lat="44.7918" lon="1.59001">
        <ele>120.5</ele>
        <time>2024-12-25T12:40:43Z</time>
      </trkpt>
      <trkpt lat="44.79179" lon="1.59003">
        <ele>120.5</ele>
        <time>2024-12-25T12:40:44Z</time>
      </trkpt>
      <trkpt lat="44.79179" lon="1.59005">
        <ele>120.5</ele>
        <time>2024-12-25T12:40:45Z</time>
      </trkpt>
      <trkpt lat="44.79179" lon="1.59007">
        <ele>120.5</ele>
        <time>2024-12-25T12:40:46Z</time>
      </trkpt>
      <trkpt lat="44.79178" lon="1.59009">
        <ele>120.5</ele>
        <time>2024-12-25T12:40:47Z</time>
      </trkpt>
      <trkpt lat="44.79178" lon="1.5901">
        <ele>120.5</ele>
        <time>2024-12-25T12:40:48Z</time>
      </trkpt>
      <trkpt lat="44.79178" lon="1.59012">
        <ele>120.5</ele>
        <time>2024-12-25T12:40:49Z</time>
      </trkpt>
      <trkpt lat="44.79178" lon="1.59013">
        <ele>120.5</ele>
        <time>2024-12-25T12:40:50Z</time>
      </trkpt>
      <trkpt lat="44.79178" lon="1.59015">
        <ele>120.5</ele>
        <time>2024-12-25T12:40:51Z</time>
      </trkpt>
      <trkpt lat="44.79177" lon="1.59017">
        <ele>120.5</ele>
        <time>2024-12-25T12:40:52Z</time>
      </trkpt>
      <trkpt lat="44.79177" lon="1.59018">
        <ele>120.5</ele>
        <time>2024-12-25T12:40:53Z</time>
      </trkpt>
      <trkpt lat="44.79176" lon="1.5902">
        <ele>120.5</ele>
        <time>2024-12-25T12:40:54Z</time>
      </trkpt>
      <trkpt lat="44.79175" lon="1.59021">
        <ele>120.5</ele>
        <time>2024-12-25T12:40:55Z</time>
      </trkpt>
      <trkpt lat="44.79175" lon="1.59022">
        <ele>120.5</ele>
        <time>2024-12-25T12:40:56Z</time>
      </trkpt>
      <trkpt lat="44.79174" lon="1.59023">
        <ele>120.5</ele>
        <time>2024-12-25T12:40:57Z</time>
      </trkpt>
      <trkpt lat="44.79174" lon="1.59025">
        <ele>120.5</ele>
        <time>2024-12-25T12:40:58Z</time>
      </trkpt>
      <trkpt lat="44.79174" lon="1.59027">
        <ele>120.5</ele>
        <time>2024-12-25T12:40:59Z</time>
      </trkpt>
      <trkpt lat="44.79175" lon="1.59028">
        <ele>120.5</ele>
        <time>2024-12-25T12:41:00Z</time>
      </trkpt>
      <trkpt lat="44.79175" lon="1.59031">
        <ele>120.6</ele>
        <time>2024-12-25T12:41:01Z</time>
      </trkpt>
      <trkpt lat="44.79175" lon="1.59033">
        <ele>120.6</ele>
        <time>2024-12-25T12:41:02Z</time>
      </trkpt>
      <trkpt lat="44.79176" lon="1.59034">
        <ele>120.6</ele>
        <time>2024-12-25T12:41:03Z</time>
      </trkpt>
      <trkpt lat="44.79176" lon="1.59036">
        <ele>120.6</ele>
        <time>2024-12-25T12:41:04Z</time>
      </trkpt>
      <trkpt lat="44.79176" lon="1.59037">
        <ele>120.6</ele>
        <time>2024-12-25T12:41:05Z</time>
      </trkpt>
      <trkpt lat="44.79176" lon="1.59039">
        <ele>120.6</ele>
        <time>2024-12-25T12:41:06Z</time>
      </trkpt>
      <trkpt lat="44.79176" lon="1.5904">
        <ele>120.6</ele>
        <time>2024-12-25T12:41:07Z</time>
      </trkpt>
      <trkpt lat="44.79176" lon="1.59042">
        <ele>120.6</ele>
        <time>2024-12-25T12:41:08Z</time>
      </trkpt>
      <trkpt lat="44.79176" lon="1.59043">
        <ele>120.6</ele>
        <time>2024-12-25T12:41:09Z</time>
      </trkpt>
      <trkpt lat="44.79177" lon="1.59044">
        <ele>120.6</ele>
        <time>2024-12-25T12:41:10Z</time>
      </trkpt>
      <trkpt lat="44.79176" lon="1.59045">
        <ele>120.6</ele>
        <time>2024-12-25T12:41:11Z</time>
      </trkpt>
      <trkpt lat="44.79176" lon="1.59047">
        <ele>120.6</ele>
        <time>2024-12-25T12:41:12Z</time>
      </trkpt>
      <trkpt lat="44.79176" lon="1.59048">
        <ele>120.6</ele>
        <time>2024-12-25T12:41:13Z</time>
      </trkpt>
      <trkpt lat="44.79176" lon="1.59049">
        <ele>120.6</ele>
        <time>2024-12-25T12:41:14Z</time>
      </trkpt>
      <trkpt lat="44.79177" lon="1.5905">
        <ele>120.6</ele>
        <time>2024-12-25T12:41:15Z</time>
      </trkpt>
      <trkpt lat="44.79178" lon="1.59051">
        <ele>120.6</ele>
        <time>2024-12-25T12:41:16Z</time>
      </trkpt>
      <trkpt lat="44.79178" lon="1.59053">
        <ele>120.7</ele>
        <time>2024-12-25T12:41:17Z</time>
      </trkpt>
      <trkpt lat="44.79177" lon="1.59054">
        <ele>120.7</ele>
        <time>2024-12-25T12:41:18Z</time>
      </trkpt>
      <trkpt lat="44.79178" lon="1.59055">
        <ele>120.7</ele>
        <time>2024-12-25T12:41:19Z</time>
      </trkpt>
      <trkpt lat="44.79178" lon="1.59057">
        <ele>120.7</ele>
        <time>2024-12-25T12:41:20Z</time>
      </trkpt>
      <trkpt lat="44.79178" lon="1.59058">
        <ele>120.7</ele>
        <time>2024-12-25T12:41:21Z</time>
      </trkpt>
      <trkpt lat="44.79177" lon="1.5906">
        <ele>120.7</ele>
        <time>2024-12-25T12:41:22Z</time>
      </trkpt>
      <trkpt lat="44.79177" lon="1.59061">
        <ele>120.7</ele>
        <time>2024-12-25T12:41:23Z</time>
      </trkpt>
      <trkpt lat="44.79177" lon="1.59063">
        <ele>120.7</ele>
        <time>2024-12-25T12:41:24Z</time>
      </trkpt>
      <trkpt lat="44.79177" lon="1.59064">
        <ele>120.7</ele>
        <time>2024-12-25T12:41:25Z</time>
      </trkpt>
      <trkpt lat="44.79177" lon="1.59065">
        <ele>120.7</ele>
        <time>2024-12-25T12:41:26Z</time>
      </trkpt>
      <trkpt lat="44.79176" lon="1.59066">
        <ele>120.7</ele>
        <time>2024-12-25T12:41:27Z</time>
      </trkpt>
      <trkpt lat="44.79176" lon="1.59068">
        <ele>120.7</ele>
        <time>2024-12-25T12:41:28Z</time>
      </trkpt>
      <trkpt lat="44.79175" lon="1.59069">
        <ele>120.7</ele>
        <time>2024-12-25T12:41:29Z</time>
      </trkpt>
      <trkpt lat="44.79175" lon="1.59071">
        <ele>120.7</ele>
        <time>2024-12-25T12:41:30Z</time>
      </trkpt>
      <trkpt lat="44.79174" lon="1.59072">
        <ele>120.7</ele>
        <time>2024-12-25T12:41:31Z</time>
      </trkpt>
      <trkpt lat="44.79174" lon="1.59073">
        <ele>120.7</ele>
        <time>2024-12-25T12:41:32Z</time>
      </trkpt>
      <trkpt lat="44.79174" lon="1.59074">
        <ele>120.7</ele>
        <time>2024-12-25T12:41:33Z</time>
      </trkpt>
      <trkpt lat="44.79173" lon="1.59075">
        <ele>120.8</ele>
        <time>2024-12-25T12:41:34Z</time>
      </trkpt>
      <trkpt lat="44.79172" lon="1.59076">
        <ele>120.8</ele>
        <time>2024-12-25T12:41:35Z</time>
      </trkpt>
      <trkpt lat="44.79172" lon="1.59077">
        <ele>120.8</ele>
        <time>2024-12-25T12:41:36Z</time>
      </trkpt>
      <trkpt lat="44.79171" lon="1.59077">
        <ele>120.8</ele>
        <time>2024-12-25T12:41:37Z</time>
      </trkpt>
      <trkpt lat="44.7917" lon="1.59078">
        <ele>120.8</ele>
        <time>2024-12-25T12:41:38Z</time>
      </trkpt>
      <trkpt lat="44.79169" lon="1.59078">
        <ele>120.7</ele>
        <time>2024-12-25T12:41:39Z</time>
      </trkpt>
      <trkpt lat="44.79168" lon="1.59079">
        <ele>120.7</ele>
        <time>2024-12-25T12:41:40Z</time>
      </trkpt>
      <trkpt lat="44.79167" lon="1.5908">
        <ele>120.7</ele>
        <time>2024-12-25T12:41:41Z</time>
      </trkpt>
      <trkpt lat="44.79166" lon="1.5908">
        <ele>120.7</ele>
        <time>2024-12-25T12:41:42Z</time>
      </trkpt>
      <trkpt lat="44.79165" lon="1.59081">
        <ele>120.7</ele>
        <time>2024-12-25T12:41:43Z</time>
      </trkpt>
      <trkpt lat="44.79164" lon="1.59082">
        <ele>120.7</ele>
        <time>2024-12-25T12:41:44Z</time>
      </trkpt>
      <trkpt lat="44.79163" lon="1.59083">
        <ele>120.7</ele>
        <time>2024-12-25T12:41:45Z</time>
      </trkpt>
      <trkpt lat="44.79163" lon="1.59084">
        <ele>120.7</ele>
        <time>2024-12-25T12:41:46Z</time>
      </trkpt>
      <trkpt lat="44.79162" lon="1.59085">
        <ele>120.7</ele>
        <time>2024-12-25T12:41:47Z</time>
      </trkpt>
      <trkpt lat="44.79161" lon="1.59086">
        <ele>120.7</ele>
        <time>2024-12-25T12:41:48Z</time>
      </trkpt>
      <trkpt lat="44.79161" lon="1.59087">
        <ele>120.7</ele>
        <time>2024-12-25T12:41:49Z</time>
      </trkpt>
      <trkpt lat="44.7916" lon="1.59088">
        <ele>120.7</ele>
        <time>2024-12-25T12:41:50Z</time>
      </trkpt>
      <trkpt lat="44.7916" lon="1.59089">
        <ele>120.7</ele>
        <time>2024-12-25T12:41:51Z</time>
      </trkpt>
      <trkpt lat="44.79159" lon="1.5909">
        <ele>120.7</ele>
        <time>2024-12-25T12:41:52Z</time>
      </trkpt>
      <trkpt lat="44.79159" lon="1.59092">
        <ele>120.6</ele>
        <time>2024-12-25T12:41:53Z</time>
      </trkpt>
      <trkpt lat="44.79158" lon="1.59093">
        <ele>120.6</ele>
        <time>2024-12-25T12:41:54Z</time>
      </trkpt>
      <trkpt lat="44.79159" lon="1.59095">
        <ele>120.6</ele>
        <time>2024-12-25T12:41:55Z</time>
      </trkpt>
      <trkpt lat="44.79159" lon="1.59098">
        <ele>120.6</ele>
        <time>2024-12-25T12:41:56Z</time>
      </trkpt>
      <trkpt lat="44.7916" lon="1.59101">
        <ele>120.6</ele>
        <time>2024-12-25T12:41:57Z</time>
      </trkpt>
      <trkpt lat="44.79161" lon="1.59102">
        <ele>120.6</ele>
        <time>2024-12-25T12:41:58Z</time>
      </trkpt>
      <trkpt lat="44.79161" lon="1.59106">
        <ele>120.6</ele>
        <time>2024-12-25T12:41:59Z</time>
      </trkpt>
      <trkpt lat="44.79162" lon="1.59107">
        <ele>120.6</ele>
        <time>2024-12-25T12:42:00Z</time>
      </trkpt>
      <trkpt lat="44.79162" lon="1.59109">
        <ele>120.6</ele>
        <time>2024-12-25T12:42:01Z</time>
      </trkpt>
      <trkpt lat="44.79163" lon="1.59111">
        <ele>120.6</ele>
        <time>2024-12-25T12:42:02Z</time>
      </trkpt>
      <trkpt lat="44.79164" lon="1.59113">
        <ele>120.6</ele>
        <time>2024-12-25T12:42:03Z</time>
      </trkpt>
      <trkpt lat="44.79165" lon="1.59116">
        <ele>120.7</ele>
        <time>2024-12-25T12:42:04Z</time>
      </trkpt>
      <trkpt lat="44.79165" lon="1.59118">
        <ele>120.7</ele>
        <time>2024-12-25T12:42:05Z</time>
      </trkpt>
      <trkpt lat="44.79165" lon="1.5912">
        <ele>120.7</ele>
        <time>2024-12-25T12:42:06Z</time>
      </trkpt>
      <trkpt lat="44.79165" lon="1.59121">
        <ele>120.7</ele>
        <time>2024-12-25T12:42:07Z</time>
      </trkpt>
      <trkpt lat="44.79164" lon="1.59124">
        <ele>120.8</ele>
        <time>2024-12-25T12:42:08Z</time>
      </trkpt>
      <trkpt lat="44.79163" lon="1.59126">
        <ele>120.8</ele>
        <time>2024-12-25T12:42:09Z</time>
      </trkpt>
      <trkpt lat="44.79162" lon="1.59127">
        <ele>120.8</ele>
        <time>2024-12-25T12:42:10Z</time>
      </trkpt>
      <trkpt lat="44.79161" lon="1.59129">
        <ele>120.9</ele>
        <time>2024-12-25T12:42:11Z</time>
      </trkpt>
      <trkpt lat="44.79159" lon="1.59132">
        <ele>120.9</ele>
        <time>2024-12-25T12:42:12Z</time>
      </trkpt>
      <trkpt lat="44.79158" lon="1.59133">
        <ele>120.9</ele>
        <time>2024-12-25T12:42:13Z</time>
      </trkpt>
      <trkpt lat="44.79155" lon="1.59135">
        <ele>121</ele>
        <time>2024-12-25T12:42:14Z</time>
      </trkpt>
      <trkpt lat="44.79154" lon="1.59136">
        <ele>121</ele>
        <time>2024-12-25T12:42:15Z</time>
      </trkpt>
      <trkpt lat="44.79153" lon="1.59137">
        <ele>121</ele>
        <time>2024-12-25T12:42:16Z</time>
      </trkpt>
      <trkpt lat="44.79152" lon="1.59139">
        <ele>121.1</ele>
        <time>2024-12-25T12:42:17Z</time>
      </trkpt>
      <trkpt lat="44.7915" lon="1.59142">
        <ele>121.1</ele>
        <time>2024-12-25T12:42:18Z</time>
      </trkpt>
      <trkpt lat="44.79149" lon="1.59143">
        <ele>121.2</ele>
        <time>2024-12-25T12:42:19Z</time>
      </trkpt>
      <trkpt lat="44.79145" lon="1.59145">
        <ele>121.2</ele>
        <time>2024-12-25T12:42:20Z</time>
      </trkpt>
      <trkpt lat="44.79143" lon="1.59146">
        <ele>121.2</ele>
        <time>2024-12-25T12:42:21Z</time>
      </trkpt>
      <trkpt lat="44.79141" lon="1.59148">
        <ele>121.3</ele>
        <time>2024-12-25T12:42:22Z</time>
      </trkpt>
      <trkpt lat="44.79138" lon="1.59152">
        <ele>121.4</ele>
        <time>2024-12-25T12:42:23Z</time>
      </trkpt>
      <trkpt lat="44.79136" lon="1.59154">
        <ele>121.4</ele>
        <time>2024-12-25T12:42:24Z</time>
      </trkpt>
      <trkpt lat="44.79135" lon="1.59157">
        <ele>121.4</ele>
        <time>2024-12-25T12:42:25Z</time>
      </trkpt>
      <trkpt lat="44.79133" lon="1.5916">
        <ele>121.5</ele>
        <time>2024-12-25T12:42:26Z</time>
      </trkpt>
      <trkpt lat="44.79133" lon="1.59161">
        <ele>121.5</ele>
        <time>2024-12-25T12:42:27Z</time>
      </trkpt>
      <trkpt lat="44.79131" lon="1.59165">
        <ele>121.5</ele>
        <time>2024-12-25T12:42:28Z</time>
      </trkpt>
      <trkpt lat="44.7913" lon="1.59166">
        <ele>121.5</ele>
        <time>2024-12-25T12:42:29Z</time>
      </trkpt>
      <trkpt lat="44.7913" lon="1.59166">
        <ele>121.5</ele>
        <time>2024-12-25T12:42:30Z</time>
      </trkpt>
      <trkpt lat="44.79129" lon="1.59167">
        <ele>121.6</ele>
        <time>2024-12-25T12:42:31Z</time>
      </trkpt>
      <trkpt lat="44.79128" lon="1.59169">
        <ele>121.6</ele>
        <time>2024-12-25T12:42:32Z</time>
      </trkpt>
      <trkpt lat="44.79128" lon="1.59171">
        <ele>121.6</ele>
        <time>2024-12-25T12:42:33Z</time>
      </trkpt>
      <trkpt lat="44.79127" lon="1.59173">
        <ele>121.6</ele>
        <time>2024-12-25T12:42:34Z</time>
      </trkpt>
      <trkpt lat="44.79127" lon="1.59174">
        <ele>121.6</ele>
        <time>2024-12-25T12:42:35Z</time>
      </trkpt>
      <trkpt lat="44.79126" lon="1.59177">
        <ele>121.6</ele>
        <time>2024-12-25T12:42:36Z</time>
      </trkpt>
      <trkpt lat="44.79126" lon="1.59178">
        <ele>121.6</ele>
        <time>2024-12-25T12:42:37Z</time>
      </trkpt>
      <trkpt lat="44.79125" lon="1.59179">
        <ele>121.6</ele>
        <time>2024-12-25T12:42:38Z</time>
      </trkpt>
      <trkpt lat="44.79124" lon="1.59181">
        <ele>121.6</ele>
        <time>2024-12-25T12:42:39Z</time>
      </trkpt>
      <trkpt lat="44.79124" lon="1.59182">
        <ele>121.7</ele>
        <time>2024-12-25T12:42:40Z</time>
      </trkpt>
      <trkpt lat="44.79123" lon="1.59185">
        <ele>121.7</ele>
        <time>2024-12-25T12:42:41Z</time>
      </trkpt>
      <trkpt lat="44.79123" lon="1.59186">
        <ele>121.7</ele>
        <time>2024-12-25T12:42:42Z</time>
      </trkpt>
      <trkpt lat="44.79123" lon="1.59188">
        <ele>121.7</ele>
        <time>2024-12-25T12:42:43Z</time>
      </trkpt>
      <trkpt lat="44.79122" lon="1.5919">
        <ele>121.7</ele>
        <time>2024-12-25T12:42:44Z</time>
      </trkpt>
      <trkpt lat="44.79122" lon="1.59191">
        <ele>121.7</ele>
        <time>2024-12-25T12:42:45Z</time>
      </trkpt>
      <trkpt lat="44.79121" lon="1.59192">
        <ele>121.7</ele>
        <time>2024-12-25T12:42:46Z</time>
      </trkpt>
      <trkpt lat="44.7912" lon="1.59195">
        <ele>121.7</ele>
        <time>2024-12-25T12:42:47Z</time>
      </trkpt>
      <trkpt lat="44.79119" lon="1.59196">
        <ele>121.7</ele>
        <time>2024-12-25T12:42:48Z</time>
      </trkpt>
      <trkpt lat="44.79119" lon="1.59197">
        <ele>121.7</ele>
        <time>2024-12-25T12:42:49Z</time>
      </trkpt>
      <trkpt lat="44.79118" lon="1.59198">
        <ele>121.8</ele>
        <time>2024-12-25T12:42:50Z</time>
      </trkpt>
      <trkpt lat="44.79118" lon="1.592">
        <ele>121.8</ele>
        <time>2024-12-25T12:42:51Z</time>
      </trkpt>
      <trkpt lat="44.79118" lon="1.59201">
        <ele>121.8</ele>
        <time>2024-12-25T12:42:52Z</time>
      </trkpt>
      <trkpt lat="44.79117" lon="1.59203">
        <ele>121.8</ele>
        <time>2024-12-25T12:42:53Z</time>
      </trkpt>
      <trkpt lat="44.79117" lon="1.59204">
        <ele>121.8</ele>
        <time>2024-12-25T12:42:54Z</time>
      </trkpt>
      <trkpt lat="44.79117" lon="1.59206">
        <ele>121.8</ele>
        <time>2024-12-25T12:42:55Z</time>
      </trkpt>
      <trkpt lat="44.79117" lon="1.59207">
        <ele>121.8</ele>
        <time>2024-12-25T12:42:56Z</time>
      </trkpt>
      <trkpt lat="44.79116" lon="1.59208">
        <ele>121.8</ele>
        <time>2024-12-25T12:42:57Z</time>
      </trkpt>
      <trkpt lat="44.79116" lon="1.5921">
        <ele>121.9</ele>
        <time>2024-12-25T12:42:58Z</time>
      </trkpt>
      <trkpt lat="44.79116" lon="1.59211">
        <ele>121.9</ele>
        <time>2024-12-25T12:42:59Z</time>
      </trkpt>
      <trkpt lat="44.79115" lon="1.59212">
        <ele>121.9</ele>
        <time>2024-12-25T12:43:00Z</time>
      </trkpt>
      <trkpt lat="44.79115" lon="1.59214">
        <ele>121.9</ele>
        <time>2024-12-25T12:43:01Z</time>
      </trkpt>
      <trkpt lat="44.79114" lon="1.59216">
        <ele>121.9</ele>
        <time>2024-12-25T12:43:02Z</time>
      </trkpt>
      <trkpt lat="44.79114" lon="1.59217">
        <ele>121.9</ele>
        <time>2024-12-25T12:43:03Z</time>
      </trkpt>
      <trkpt lat="44.79113" lon="1.59218">
        <ele>122</ele>
        <time>2024-12-25T12:43:04Z</time>
      </trkpt>
      <trkpt lat="44.79113" lon="1.5922">
        <ele>122</ele>
        <time>2024-12-25T12:43:05Z</time>
      </trkpt>
      <trkpt lat="44.79113" lon="1.59222">
        <ele>122</ele>
        <time>2024-12-25T12:43:06Z</time>
      </trkpt>
      <trkpt lat="44.79112" lon="1.59223">
        <ele>122</ele>
        <time>2024-12-25T12:43:07Z</time>
      </trkpt>
      <trkpt lat="44.79112" lon="1.59226">
        <ele>122</ele>
        <time>2024-12-25T12:43:08Z</time>
      </trkpt>
      <trkpt lat="44.79112" lon="1.59227">
        <ele>122</ele>
        <time>2024-12-25T12:43:09Z</time>
      </trkpt>
      <trkpt lat="44.79112" lon="1.59228">
        <ele>122.1</ele>
        <time>2024-12-25T12:43:10Z</time>
      </trkpt>
      <trkpt lat="44.79112" lon="1.59231">
        <ele>122.1</ele>
        <time>2024-12-25T12:43:11Z</time>
      </trkpt>
      <trkpt lat="44.79112" lon="1.59233">
        <ele>122.1</ele>
        <time>2024-12-25T12:43:12Z</time>
      </trkpt>
      <trkpt lat="44.79112" lon="1.59234">
        <ele>122.1</ele>
        <time>2024-12-25T12:43:13Z</time>
      </trkpt>
      <trkpt lat="44.79112" lon="1.59236">
        <ele>122.2</ele>
        <time>2024-12-25T12:43:14Z</time>
      </trkpt>
      <trkpt lat="44.79112" lon="1.59237">
        <ele>122.2</ele>
        <time>2024-12-25T12:43:15Z</time>
      </trkpt>
      <trkpt lat="44.79112" lon="1.59239">
        <ele>122.2</ele>
        <time>2024-12-25T12:43:16Z</time>
      </trkpt>
      <trkpt lat="44.79111" lon="1.59242">
        <ele>122.3</ele>
        <time>2024-12-25T12:43:17Z</time>
      </trkpt>
      <trkpt lat="44.7911" lon="1.59243">
        <ele>122.3</ele>
        <time>2024-12-25T12:43:18Z</time>
      </trkpt>
      <trkpt lat="44.7911" lon="1.59244">
        <ele>122.3</ele>
        <time>2024-12-25T12:43:19Z</time>
      </trkpt>
      <trkpt lat="44.79109" lon="1.59247">
        <ele>122.3</ele>
        <time>2024-12-25T12:43:20Z</time>
      </trkpt>
      <trkpt lat="44.79108" lon="1.59248">
        <ele>122.4</ele>
        <time>2024-12-25T12:43:21Z</time>
      </trkpt>
      <trkpt lat="44.79107" lon="1.59249">
        <ele>122.4</ele>
        <time>2024-12-25T12:43:22Z</time>
      </trkpt>
      <trkpt lat="44.79107" lon="1.5925">
        <ele>122.4</ele>
        <time>2024-12-25T12:43:23Z</time>
      </trkpt>
      <trkpt lat="44.79107" lon="1.59252">
        <ele>122.4</ele>
        <time>2024-12-25T12:43:24Z</time>
      </trkpt>
      <trkpt lat="44.79106" lon="1.59255">
        <ele>122.4</ele>
        <time>2024-12-25T12:43:25Z</time>
      </trkpt>
      <trkpt lat="44.79105" lon="1.59256">
        <ele>122.4</ele>
        <time>2024-12-25T12:43:26Z</time>
      </trkpt>
      <trkpt lat="44.79105" lon="1.59257">
        <ele>122.4</ele>
        <time>2024-12-25T12:43:27Z</time>
      </trkpt>
      <trkpt lat="44.79104" lon="1.59259">
        <ele>122.4</ele>
        <time>2024-12-25T12:43:28Z</time>
      </trkpt>
      <trkpt lat="44.79104" lon="1.5926">
        <ele>122.4</ele>
        <time>2024-12-25T12:43:29Z</time>
      </trkpt>
      <trkpt lat="44.79103" lon="1.59262">
        <ele>122.4</ele>
        <time>2024-12-25T12:43:30Z</time>
      </trkpt>
      <trkpt lat="44.79103" lon="1.59264">
        <ele>122.4</ele>
        <time>2024-12-25T12:43:31Z</time>
      </trkpt>
      <trkpt lat="44.79102" lon="1.59265">
        <ele>122.3</ele>
        <time>2024-12-25T12:43:32Z</time>
      </trkpt>
      <trkpt lat="44.79102" lon="1.59266">
        <ele>122.3</ele>
        <time>2024-12-25T12:43:33Z</time>
      </trkpt>
      <trkpt lat="44.79101" lon="1.59268">
        <ele>122.3</ele>
        <time>2024-12-25T12:43:34Z</time>
      </trkpt>
      <trkpt lat="44.79101" lon="1.59269">
        <ele>122.3</ele>
        <time>2024-12-25T12:43:35Z</time>
      </trkpt>
      <trkpt lat="44.791" lon="1.5927">
        <ele>122.2</ele>
        <time>2024-12-25T12:43:36Z</time>
      </trkpt>
      <trkpt lat="44.791" lon="1.59271">
        <ele>122.2</ele>
        <time>2024-12-25T12:43:37Z</time>
      </trkpt>
      <trkpt lat="44.79099" lon="1.59272">
        <ele>122.2</ele>
        <time>2024-12-25T12:43:38Z</time>
      </trkpt>
      <trkpt lat="44.79098" lon="1.59273">
        <ele>122.1</ele>
        <time>2024-12-25T12:43:39Z</time>
      </trkpt>
      <trkpt lat="44.79098" lon="1.59274">
        <ele>122.1</ele>
        <time>2024-12-25T12:43:40Z</time>
      </trkpt>
      <trkpt lat="44.79097" lon="1.59275">
        <ele>122</ele>
        <time>2024-12-25T12:43:41Z</time>
      </trkpt>
      <trkpt lat="44.79096" lon="1.59277">
        <ele>122</ele>
        <time>2024-12-25T12:43:42Z</time>
      </trkpt>
      <trkpt lat="44.79096" lon="1.59278">
        <ele>121.9</ele>
        <time>2024-12-25T12:43:43Z</time>
      </trkpt>
      <trkpt lat="44.79094" lon="1.59278">
        <ele>121.9</ele>
        <time>2024-12-25T12:43:44Z</time>
      </trkpt>
      <trkpt lat="44.79094" lon="1.59278">
        <ele>121.8</ele>
        <time>2024-12-25T12:43:45Z</time>
      </trkpt>
      <trkpt lat="44.79093" lon="1.59279">
        <ele>121.8</ele>
        <time>2024-12-25T12:43:46Z</time>
      </trkpt>
      <trkpt lat="44.79092" lon="1.59279">
        <ele>121.8</ele>
        <time>2024-12-25T12:43:47Z</time>
      </trkpt>
      <trkpt lat="44.79092" lon="1.59278">
        <ele>121.7</ele>
        <time>2024-12-25T12:43:48Z</time>
      </trkpt>
      <trkpt lat="44.79091" lon="1.59277">
        <ele>121.6</ele>
        <time>2024-12-25T12:43:49Z</time>
      </trkpt>
      <trkpt lat="44.7909" lon="1.59278">
        <ele>121.6</ele>
        <time>2024-12-25T12:43:50Z</time>
      </trkpt>
      <trkpt lat="44.7909" lon="1.59279">
        <ele>121.6</ele>
        <time>2024-12-25T12:43:51Z</time>
      </trkpt>
      <trkpt lat="44.7909" lon="1.5928">
        <ele>122</ele>
        <time>2024-12-25T12:43:52Z</time>
      </trkpt>
      <trkpt lat="44.7909" lon="1.59282">
        <ele>122.6</ele>
        <time>2024-12-25T12:43:53Z</time>
      </trkpt>
      <trkpt lat="44.7909" lon="1.59283">
        <ele>123.1</ele>
        <time>2024-12-25T12:43:54Z</time>
      </trkpt>
      <trkpt lat="44.79089" lon="1.59283">
        <ele>123.3</ele>
        <time>2024-12-25T12:43:55Z</time>
      </trkpt>
      <trkpt lat="44.79089" lon="1.59284">
        <ele>123.6</ele>
        <time>2024-12-25T12:43:56Z</time>
      </trkpt>
      <trkpt lat="44.79088" lon="1.59285">
        <ele>124.1</ele>
        <time>2024-12-25T12:43:57Z</time>
      </trkpt>
      <trkpt lat="44.79088" lon="1.59286">
        <ele>124.5</ele>
        <time>2024-12-25T12:43:58Z</time>
      </trkpt>
      <trkpt lat="44.79089" lon="1.59289">
        <ele>125.5</ele>
        <time>2024-12-25T12:43:59Z</time>
      </trkpt>
      <trkpt lat="44.79089" lon="1.5929">
        <ele>126</ele>
        <time>2024-12-25T12:44:00Z</time>
      </trkpt>
      <trkpt lat="44.7909" lon="1.59292">
        <ele>126.7</ele>
        <time>2024-12-25T12:44:01Z</time>
      </trkpt>
      <trkpt lat="44.79091" lon="1.59293">
        <ele>127.2</ele>
        <time>2024-12-25T12:44:02Z</time>
      </trkpt>
      <trkpt lat="44.79091" lon="1.59294">
        <ele>127.6</ele>
        <time>2024-12-25T12:44:03Z</time>
      </trkpt>
      <trkpt lat="44.79091" lon="1.59294">
        <ele>127.7</ele>
        <time>2024-12-25T12:44:04Z</time>
      </trkpt>
      <trkpt lat="44.79091" lon="1.59296">
        <ele>128.2</ele>
        <time>2024-12-25T12:44:05Z</time>
      </trkpt>
      <trkpt lat="44.7909" lon="1.59298">
        <ele>129.2</ele>
        <time>2024-12-25T12:44:06Z</time>
      </trkpt>
      <trkpt lat="44.7909" lon="1.59304">
        <ele>131</ele>
        <time>2024-12-25T12:44:07Z</time>
      </trkpt>
      <trkpt lat="44.79091" lon="1.59308">
        <ele>132.7</ele>
        <time>2024-12-25T12:44:08Z</time>
      </trkpt>
      <trkpt lat="44.79091" lon="1.5931">
        <ele>133.6</ele>
        <time>2024-12-25T12:44:09Z</time>
      </trkpt>
      <trkpt lat="44.79092" lon="1.59312">
        <ele>134.2</ele>
        <time>2024-12-25T12:44:10Z</time>
      </trkpt>
      <trkpt lat="44.79092" lon="1.59313">
        <ele>134.8</ele>
        <time>2024-12-25T12:44:11Z</time>
      </trkpt>
      <trkpt lat="44.79092" lon="1.59315">
        <ele>135.3</ele>
        <time>2024-12-25T12:44:12Z</time>
      </trkpt>
      <trkpt lat="44.79092" lon="1.59316">
        <ele>135.9</ele>
        <time>2024-12-25T12:44:13Z</time>
      </trkpt>
      <trkpt lat="44.79091" lon="1.59318">
        <ele>136.6</ele>
        <time>2024-12-25T12:44:14Z</time>
      </trkpt>
      <trkpt lat="44.79091" lon="1.59319">
        <ele>137.2</ele>
        <time>2024-12-25T12:44:15Z</time>
      </trkpt>
      <trkpt lat="44.79091" lon="1.59321">
        <ele>137.8</ele>
        <time>2024-12-25T12:44:16Z</time>
      </trkpt>
      <trkpt lat="44.79091" lon="1.59322">
        <ele>138.4</ele>
        <time>2024-12-25T12:44:17Z</time>
      </trkpt>
      <trkpt lat="44.79091" lon="1.59324">
        <ele>139.2</ele>
        <time>2024-12-25T12:44:18Z</time>
      </trkpt>
      <trkpt lat="44.79091" lon="1.59325">
        <ele>139.5</ele>
        <time>2024-12-25T12:44:19Z</time>
      </trkpt>
      <trkpt lat="44.79091" lon="1.59327">
        <ele>140</ele>
        <time>2024-12-25T12:44:20Z</time>
      </trkpt>
      <trkpt lat="44.79091" lon="1.59328">
        <ele>140.4</ele>
        <time>2024-12-25T12:44:21Z</time>
      </trkpt>
      <trkpt lat="44.79091" lon="1.59329">
        <ele>140.8</ele>
        <time>2024-12-25T12:44:22Z</time>
      </trkpt>
      <trkpt lat="44.79091" lon="1.59329">
        <ele>140.6</ele>
        <time>2024-12-25T12:44:23Z</time>
      </trkpt>
      <trkpt lat="44.79091" lon="1.5933">
        <ele>140.6</ele>
        <time>2024-12-25T12:44:24Z</time>
      </trkpt>
      <trkpt lat="44.79091" lon="1.5933">
        <ele>140.5</ele>
        <time>2024-12-25T12:44:25Z</time>
      </trkpt>
      <trkpt lat="44.79092" lon="1.5933">
        <ele>140.4</ele>
        <time>2024-12-25T12:44:26Z</time>
      </trkpt>
      <trkpt lat="44.79091" lon="1.5933">
        <ele>140.4</ele>
        <time>2024-12-25T12:44:27Z</time>
      </trkpt>
      <trkpt lat="44.79091" lon="1.5933">
        <ele>140.3</ele>
        <time>2024-12-25T12:44:28Z</time>
      </trkpt>
      <trkpt lat="44.79092" lon="1.59329">
        <ele>140.2</ele>
        <time>2024-12-25T12:44:29Z</time>
      </trkpt>
      <trkpt lat="44.79092" lon="1.59329">
        <ele>140.2</ele>
        <time>2024-12-25T12:44:30Z</time>
      </trkpt>
      <trkpt lat="44.79092" lon="1.59329">
        <ele>140.1</ele>
        <time>2024-12-25T12:44:31Z</time>
      </trkpt>
      <trkpt lat="44.79092" lon="1.59329">
        <ele>140.1</ele>
        <time>2024-12-25T12:44:32Z</time>
      </trkpt>
      <trkpt lat="44.79092" lon="1.59329">
        <ele>140.1</ele>
        <time>2024-12-25T12:44:33Z</time>
      </trkpt>
      <trkpt lat="44.79092" lon="1.59329">
        <ele>140.1</ele>
        <time>2024-12-25T12:44:34Z</time>
      </trkpt>
      <trkpt lat="44.79092" lon="1.59329">
        <ele>140</ele>
        <time>2024-12-25T12:44:35Z</time>
      </trkpt>
      <trkpt lat="44.79092" lon="1.59329">
        <ele>139.9</ele>
        <time>2024-12-25T12:44:36Z</time>
      </trkpt>
      <trkpt lat="44.79092" lon="1.59328">
        <ele>139.9</ele>
        <time>2024-12-25T12:44:37Z</time>
      </trkpt>
      <trkpt lat="44.79092" lon="1.59328">
        <ele>139.8</ele>
        <time>2024-12-25T12:44:38Z</time>
      </trkpt>
      <trkpt lat="44.79092" lon="1.59328">
        <ele>139.8</ele>
        <time>2024-12-25T12:44:39Z</time>
      </trkpt>
      <trkpt lat="44.79093" lon="1.59328">
        <ele>139.8</ele>
        <time>2024-12-25T12:44:40Z</time>
      </trkpt>
      <trkpt lat="44.79093" lon="1.59328">
        <ele>139.7</ele>
        <time>2024-12-25T12:44:41Z</time>
      </trkpt>
      <trkpt lat="44.79093" lon="1.59328">
        <ele>139.7</ele>
        <time>2024-12-25T12:44:42Z</time>
      </trkpt>
      <trkpt lat="44.79093" lon="1.59328">
        <ele>139.6</ele>
        <time>2024-12-25T12:44:43Z</time>
      </trkpt>
      <trkpt lat="44.79093" lon="1.59328">
        <ele>139.6</ele>
        <time>2024-12-25T12:44:44Z</time>
      </trkpt>
      <trkpt lat="44.79092" lon="1.59329">
        <ele>139.5</ele>
        <time>2024-12-25T12:44:48Z</time>
      </trkpt>
      <trkpt lat="44.79092" lon="1.59329">
        <ele>139.5</ele>
        <time>2024-12-25T12:44:49Z</time>
      </trkpt>
      <trkpt lat="44.79092" lon="1.59329">
        <ele>139.5</ele>
        <time>2024-12-25T12:44:53Z</time>
      </trkpt>
      <trkpt lat="44.79092" lon="1.5933">
        <ele>139.3</ele>
        <time>2024-12-25T12:44:58Z</time>
      </trkpt>
      <trkpt lat="44.79094" lon="1.59333">
        <ele>138.5</ele>
        <time>2024-12-25T12:45:00Z</time>
      </trkpt>
      <trkpt lat="44.79095" lon="1.59334">
        <ele>138.2</ele>
        <time>2024-12-25T12:45:01Z</time>
      </trkpt>
      <trkpt lat="44.79095" lon="1.59334">
        <ele>138</ele>
        <time>2024-12-25T12:45:02Z</time>
      </trkpt>
      <trkpt lat="44.79096" lon="1.59334">
        <ele>137.9</ele>
        <time>2024-12-25T12:45:03Z</time>
      </trkpt>
      <trkpt lat="44.79096" lon="1.59336">
        <ele>137.6</ele>
        <time>2024-12-25T12:45:07Z</time>
      </trkpt>
      <trkpt lat="44.79097" lon="1.59335">
        <ele>137.2</ele>
        <time>2024-12-25T12:45:13Z</time>
      </trkpt>
      <trkpt lat="44.79099" lon="1.59337">
        <ele>136.6</ele>
        <time>2024-12-25T12:45:14Z</time>
      </trkpt>
      <trkpt lat="44.791" lon="1.59337">
        <ele>136.4</ele>
        <time>2024-12-25T12:45:15Z</time>
      </trkpt>
      <trkpt lat="44.791" lon="1.59338">
        <ele>136.1</ele>
        <time>2024-12-25T12:45:16Z</time>
      </trkpt>
      <trkpt lat="44.791" lon="1.59339">
        <ele>136</ele>
        <time>2024-12-25T12:45:17Z</time>
      </trkpt>
      <trkpt lat="44.79101" lon="1.5934">
        <ele>135.8</ele>
        <time>2024-12-25T12:45:18Z</time>
      </trkpt>
      <trkpt lat="44.79101" lon="1.59341">
        <ele>135.6</ele>
        <time>2024-12-25T12:45:19Z</time>
      </trkpt>
      <trkpt lat="44.79101" lon="1.59341">
        <ele>135.4</ele>
        <time>2024-12-25T12:45:20Z</time>
      </trkpt>
      <trkpt lat="44.79101" lon="1.59341">
        <ele>135.3</ele>
        <time>2024-12-25T12:45:21Z</time>
      </trkpt>
      <trkpt lat="44.79101" lon="1.5934">
        <ele>135</ele>
        <time>2024-12-25T12:45:22Z</time>
      </trkpt>
      <trkpt lat="44.791" lon="1.59338">
        <ele>134.8</ele>
        <time>2024-12-25T12:45:23Z</time>
      </trkpt>
      <trkpt lat="44.791" lon="1.59337">
        <ele>134.5</ele>
        <time>2024-12-25T12:45:28Z</time>
      </trkpt>
      <trkpt lat="44.791" lon="1.59336">
        <ele>134.2</ele>
        <time>2024-12-25T12:45:33Z</time>
      </trkpt>
      <trkpt lat="44.79099" lon="1.59335">
        <ele>133.9</ele>
        <time>2024-12-25T12:45:38Z</time>
      </trkpt>
      <trkpt lat="44.79099" lon="1.59333">
        <ele>133.6</ele>
        <time>2024-12-25T12:45:43Z</time>
      </trkpt>
      <trkpt lat="44.79099" lon="1.59332">
        <ele>133.4</ele>
        <time>2024-12-25T12:45:48Z</time>
      </trkpt>
      <trkpt lat="44.79099" lon="1.59331">
        <ele>133.1</ele>
        <time>2024-12-25T12:45:53Z</time>
      </trkpt>
      <trkpt lat="44.79098" lon="1.59329">
        <ele>132.9</ele>
        <time>2024-12-25T12:45:58Z</time>
      </trkpt>
      <trkpt lat="44.79098" lon="1.59328">
        <ele>132.6</ele>
        <time>2024-12-25T12:46:03Z</time>
      </trkpt>
      <trkpt lat="44.79098" lon="1.59327">
        <ele>132.3</ele>
        <time>2024-12-25T12:46:08Z</time>
      </trkpt>
      <trkpt lat="44.79097" lon="1.59326">
        <ele>132.1</ele>
        <time>2024-12-25T12:46:13Z</time>
      </trkpt>
      <trkpt lat="44.79097" lon="1.59324">
        <ele>131.8</ele>
        <time>2024-12-25T12:46:14Z</time>
      </trkpt>
      <trkpt lat="44.79097" lon="1.59323">
        <ele>131.5</ele>
        <time>2024-12-25T12:46:15Z</time>
      </trkpt>
      <trkpt lat="44.79095" lon="1.59322">
        <ele>131</ele>
        <time>2024-12-25T12:46:16Z</time>
      </trkpt>
      <trkpt lat="44.79094" lon="1.59321">
        <ele>130.7</ele>
        <time>2024-12-25T12:46:17Z</time>
      </trkpt>
      <trkpt lat="44.79094" lon="1.5932">
        <ele>130.4</ele>
        <time>2024-12-25T12:46:18Z</time>
      </trkpt>
      <trkpt lat="44.79094" lon="1.59319">
        <ele>130.3</ele>
        <time>2024-12-25T12:46:19Z</time>
      </trkpt>
      <trkpt lat="44.79094" lon="1.59319">
        <ele>130.2</ele>
        <time>2024-12-25T12:46:20Z</time>
      </trkpt>
      <trkpt lat="44.79094" lon="1.5932">
        <ele>130.1</ele>
        <time>2024-12-25T12:46:21Z</time>
      </trkpt>
      <trkpt lat="44.79094" lon="1.5932">
        <ele>130</ele>
        <time>2024-12-25T12:46:22Z</time>
      </trkpt>
      <trkpt lat="44.79094" lon="1.59321">
        <ele>129.9</ele>
        <time>2024-12-25T12:46:23Z</time>
      </trkpt>
      <trkpt lat="44.79094" lon="1.59321">
        <ele>129.8</ele>
        <time>2024-12-25T12:46:24Z</time>
      </trkpt>
      <trkpt lat="44.79094" lon="1.5932">
        <ele>129.8</ele>
        <time>2024-12-25T12:46:25Z</time>
      </trkpt>
      <trkpt lat="44.79093" lon="1.5932">
        <ele>129.6</ele>
        <time>2024-12-25T12:46:26Z</time>
      </trkpt>
      <trkpt lat="44.79093" lon="1.59318">
        <ele>129.4</ele>
        <time>2024-12-25T12:46:27Z</time>
      </trkpt>
      <trkpt lat="44.79093" lon="1.59317">
        <ele>129.2</ele>
        <time>2024-12-25T12:46:28Z</time>
      </trkpt>
      <trkpt lat="44.79092" lon="1.59315">
        <ele>128.7</ele>
        <time>2024-12-25T12:46:29Z</time>
      </trkpt>
      <trkpt lat="44.79092" lon="1.59315">
        <ele>128.6</ele>
        <time>2024-12-25T12:46:30Z</time>
      </trkpt>
      <trkpt lat="44.79092" lon="1.59315">
        <ele>128.6</ele>
        <time>2024-12-25T12:46:31Z</time>
      </trkpt>
      <trkpt lat="44.79092" lon="1.59315">
        <ele>128.6</ele>
        <time>2024-12-25T12:46:32Z</time>
      </trkpt>
      <trkpt lat="44.79092" lon="1.59315">
        <ele>128.5</ele>
        <time>2024-12-25T12:46:33Z</time>
      </trkpt>
      <trkpt lat="44.79092" lon="1.59315">
        <ele>128.5</ele>
        <time>2024-12-25T12:46:34Z</time>
      </trkpt>
      <trkpt lat="44.79092" lon="1.59315">
        <ele>128.5</ele>
        <time>2024-12-25T12:46:35Z</time>
      </trkpt>
      <trkpt lat="44.79092" lon="1.59315">
        <ele>128.4</ele>
        <time>2024-12-25T12:46:36Z</time>
      </trkpt>
      <trkpt lat="44.79092" lon="1.59315">
        <ele>128.4</ele>
        <time>2024-12-25T12:46:37Z</time>
      </trkpt>
      <trkpt lat="44.79092" lon="1.59315">
        <ele>128.4</ele>
        <time>2024-12-25T12:46:38Z</time>
      </trkpt>
      <trkpt lat="44.79092" lon="1.59315">
        <ele>128.4</ele>
        <time>2024-12-25T12:46:39Z</time>
      </trkpt>
      <trkpt lat="44.79092" lon="1.59315">
        <ele>128.4</ele>
        <time>2024-12-25T12:46:40Z</time>
      </trkpt>
      <trkpt lat="44.79092" lon="1.59315">
        <ele>128.3</ele>
        <time>2024-12-25T12:46:41Z</time>
      </trkpt>
      <trkpt lat="44.79092" lon="1.59315">
        <ele>128.3</ele>
        <time>2024-12-25T12:46:42Z</time>
      </trkpt>
      <trkpt lat="44.79092" lon="1.59315">
        <ele>128.3</ele>
        <time>2024-12-25T12:46:43Z</time>
      </trkpt>
      <trkpt lat="44.79092" lon="1.59314">
        <ele>128.2</ele>
        <time>2024-12-25T12:46:44Z</time>
      </trkpt>
      <trkpt lat="44.79092" lon="1.59313">
        <ele>128</ele>
        <time>2024-12-25T12:46:45Z</time>
      </trkpt>
      <trkpt lat="44.79091" lon="1.59312">
        <ele>127.8</ele>
        <time>2024-12-25T12:46:46Z</time>
      </trkpt>
      <trkpt lat="44.7909" lon="1.59309">
        <ele>127.1</ele>
        <time>2024-12-25T12:46:47Z</time>
      </trkpt>
      <trkpt lat="44.79089" lon="1.59305">
        <ele>126.3</ele>
        <time>2024-12-25T12:46:48Z</time>
      </trkpt>
      <trkpt lat="44.79088" lon="1.59304">
        <ele>126.1</ele>
        <time>2024-12-25T12:46:49Z</time>
      </trkpt>
      <trkpt lat="44.79088" lon="1.59301">
        <ele>125.5</ele>
        <time>2024-12-25T12:46:50Z</time>
      </trkpt>
      <trkpt lat="44.79088" lon="1.593">
        <ele>125.3</ele>
        <time>2024-12-25T12:46:51Z</time>
      </trkpt>
      <trkpt lat="44.79088" lon="1.59298">
        <ele>125.1</ele>
        <time>2024-12-25T12:46:52Z</time>
      </trkpt>
      <trkpt lat="44.79087" lon="1.59297">
        <ele>124.9</ele>
        <time>2024-12-25T12:46:53Z</time>
      </trkpt>
      <trkpt lat="44.79087" lon="1.59296">
        <ele>124.6</ele>
        <time>2024-12-25T12:46:54Z</time>
      </trkpt>
      <trkpt lat="44.79086" lon="1.59295">
        <ele>124.3</ele>
        <time>2024-12-25T12:46:55Z</time>
      </trkpt>
      <trkpt lat="44.79086" lon="1.59292">
        <ele>123.8</ele>
        <time>2024-12-25T12:46:56Z</time>
      </trkpt>
      <trkpt lat="44.79087" lon="1.59291">
        <ele>123.6</ele>
        <time>2024-12-25T12:46:57Z</time>
      </trkpt>
      <trkpt lat="44.79087" lon="1.5929">
        <ele>123.4</ele>
        <time>2024-12-25T12:46:58Z</time>
      </trkpt>
      <trkpt lat="44.79087" lon="1.59288">
        <ele>123.1</ele>
        <time>2024-12-25T12:46:59Z</time>
      </trkpt>
      <trkpt lat="44.79087" lon="1.59286">
        <ele>122.8</ele>
        <time>2024-12-25T12:47:00Z</time>
      </trkpt>
      <trkpt lat="44.79086" lon="1.59285">
        <ele>122.5</ele>
        <time>2024-12-25T12:47:01Z</time>
      </trkpt>
      <trkpt lat="44.79086" lon="1.59284">
        <ele>122.3</ele>
        <time>2024-12-25T12:47:02Z</time>
      </trkpt>
      <trkpt lat="44.79085" lon="1.59283">
        <ele>122</ele>
        <time>2024-12-25T12:47:03Z</time>
      </trkpt>
      <trkpt lat="44.79083" lon="1.59283">
        <ele>121.7</ele>
        <time>2024-12-25T12:47:04Z</time>
      </trkpt>
      <trkpt lat="44.79082" lon="1.59285">
        <ele>121.4</ele>
        <time>2024-12-25T12:47:05Z</time>
      </trkpt>
      <trkpt lat="44.79081" lon="1.59286">
        <ele>121.3</ele>
        <time>2024-12-25T12:47:06Z</time>
      </trkpt>
      <trkpt lat="44.7908" lon="1.59286">
        <ele>121.3</ele>
        <time>2024-12-25T12:47:07Z</time>
      </trkpt>
      <trkpt lat="44.79079" lon="1.59288">
        <ele>121.2</ele>
        <time>2024-12-25T12:47:08Z</time>
      </trkpt>
      <trkpt lat="44.79078" lon="1.59289">
        <ele>121.2</ele>
        <time>2024-12-25T12:47:09Z</time>
      </trkpt>
      <trkpt lat="44.79077" lon="1.59289">
        <ele>121.2</ele>
        <time>2024-12-25T12:47:10Z</time>
      </trkpt>
      <trkpt lat="44.79075" lon="1.59291">
        <ele>121.1</ele>
        <time>2024-12-25T12:47:11Z</time>
      </trkpt>
      <trkpt lat="44.79075" lon="1.59292">
        <ele>121.1</ele>
        <time>2024-12-25T12:47:12Z</time>
      </trkpt>
      <trkpt lat="44.79074" lon="1.59292">
        <ele>121.1</ele>
        <time>2024-12-25T12:47:13Z</time>
      </trkpt>
      <trkpt lat="44.79073" lon="1.59295">
        <ele>121</ele>
        <time>2024-12-25T12:47:14Z</time>
      </trkpt>
      <trkpt lat="44.79072" lon="1.59296">
        <ele>121</ele>
        <time>2024-12-25T12:47:15Z</time>
      </trkpt>
      <trkpt lat="44.79072" lon="1.59297">
        <ele>121</ele>
        <time>2024-12-25T12:47:16Z</time>
      </trkpt>
      <trkpt lat="44.79071" lon="1.59297">
        <ele>121</ele>
        <time>2024-12-25T12:47:17Z</time>
      </trkpt>
      <trkpt lat="44.7907" lon="1.59298">
        <ele>121</ele>
        <time>2024-12-25T12:47:18Z</time>
      </trkpt>
      <trkpt lat="44.79069" lon="1.59299">
        <ele>121</ele>
        <time>2024-12-25T12:47:19Z</time>
      </trkpt>
      <trkpt lat="44.79068" lon="1.593">
        <ele>120.9</ele>
        <time>2024-12-25T12:47:20Z</time>
      </trkpt>
      <trkpt lat="44.79067" lon="1.59301">
        <ele>120.9</ele>
        <time>2024-12-25T12:47:21Z</time>
      </trkpt>
      <trkpt lat="44.79067" lon="1.59302">
        <ele>120.9</ele>
        <time>2024-12-25T12:47:22Z</time>
      </trkpt>
      <trkpt lat="44.79065" lon="1.59304">
        <ele>120.9</ele>
        <time>2024-12-25T12:47:23Z</time>
      </trkpt>
      <trkpt lat="44.79064" lon="1.59304">
        <ele>121</ele>
        <time>2024-12-25T12:47:24Z</time>
      </trkpt>
      <trkpt lat="44.79063" lon="1.59305">
        <ele>121</ele>
        <time>2024-12-25T12:47:25Z</time>
      </trkpt>
      <trkpt lat="44.79061" lon="1.59307">
        <ele>121</ele>
        <time>2024-12-25T12:47:26Z</time>
      </trkpt>
      <trkpt lat="44.79061" lon="1.59307">
        <ele>121</ele>
        <time>2024-12-25T12:47:27Z</time>
      </trkpt>
      <trkpt lat="44.7906" lon="1.59308">
        <ele>121</ele>
        <time>2024-12-25T12:47:28Z</time>
      </trkpt>
      <trkpt lat="44.79059" lon="1.5931">
        <ele>121</ele>
        <time>2024-12-25T12:47:29Z</time>
      </trkpt>
      <trkpt lat="44.79058" lon="1.59311">
        <ele>121.1</ele>
        <time>2024-12-25T12:47:30Z</time>
      </trkpt>
      <trkpt lat="44.79057" lon="1.59312">
        <ele>121.1</ele>
        <time>2024-12-25T12:47:31Z</time>
      </trkpt>
      <trkpt lat="44.79055" lon="1.59313">
        <ele>121.1</ele>
        <time>2024-12-25T12:47:32Z</time>
      </trkpt>
      <trkpt lat="44.79055" lon="1.59314">
        <ele>121.1</ele>
        <time>2024-12-25T12:47:33Z</time>
      </trkpt>
      <trkpt lat="44.79054" lon="1.59315">
        <ele>121.1</ele>
        <time>2024-12-25T12:47:34Z</time>
      </trkpt>
      <trkpt lat="44.79052" lon="1.59317">
        <ele>121.1</ele>
        <time>2024-12-25T12:47:35Z</time>
      </trkpt>
      <trkpt lat="44.79052" lon="1.59318">
        <ele>121.2</ele>
        <time>2024-12-25T12:47:36Z</time>
      </trkpt>
      <trkpt lat="44.79051" lon="1.59319">
        <ele>121.2</ele>
        <time>2024-12-25T12:47:37Z</time>
      </trkpt>
      <trkpt lat="44.7905" lon="1.59322">
        <ele>121.2</ele>
        <time>2024-12-25T12:47:38Z</time>
      </trkpt>
      <trkpt lat="44.79049" lon="1.59324">
        <ele>121.2</ele>
        <time>2024-12-25T12:47:39Z</time>
      </trkpt>
      <trkpt lat="44.79048" lon="1.59325">
        <ele>121.2</ele>
        <time>2024-12-25T12:47:40Z</time>
      </trkpt>
      <trkpt lat="44.79048" lon="1.59327">
        <ele>121.2</ele>
        <time>2024-12-25T12:47:41Z</time>
      </trkpt>
      <trkpt lat="44.79047" lon="1.59328">
        <ele>121.2</ele>
        <time>2024-12-25T12:47:42Z</time>
      </trkpt>
      <trkpt lat="44.79047" lon="1.59328">
        <ele>121.2</ele>
        <time>2024-12-25T12:47:43Z</time>
      </trkpt>
      <trkpt lat="44.79046" lon="1.59329">
        <ele>121.2</ele>
        <time>2024-12-25T12:47:44Z</time>
      </trkpt>
      <trkpt lat="44.79044" lon="1.5933">
        <ele>121.2</ele>
        <time>2024-12-25T12:47:45Z</time>
      </trkpt>
      <trkpt lat="44.79043" lon="1.59331">
        <ele>121.2</ele>
        <time>2024-12-25T12:47:46Z</time>
      </trkpt>
      <trkpt lat="44.79041" lon="1.59332">
        <ele>121.2</ele>
        <time>2024-12-25T12:47:47Z</time>
      </trkpt>
      <trkpt lat="44.7904" lon="1.59332">
        <ele>121.2</ele>
        <time>2024-12-25T12:47:48Z</time>
      </trkpt>
      <trkpt lat="44.79039" lon="1.59333">
        <ele>121.3</ele>
        <time>2024-12-25T12:47:49Z</time>
      </trkpt>
      <trkpt lat="44.79038" lon="1.59333">
        <ele>121.3</ele>
        <time>2024-12-25T12:47:50Z</time>
      </trkpt>
      <trkpt lat="44.79037" lon="1.59334">
        <ele>121.3</ele>
        <time>2024-12-25T12:47:51Z</time>
      </trkpt>
      <trkpt lat="44.79036" lon="1.59333">
        <ele>121.3</ele>
        <time>2024-12-25T12:47:52Z</time>
      </trkpt>
      <trkpt lat="44.79034" lon="1.59333">
        <ele>121.3</ele>
        <time>2024-12-25T12:47:53Z</time>
      </trkpt>
      <trkpt lat="44.79033" lon="1.59333">
        <ele>121.3</ele>
        <time>2024-12-25T12:47:54Z</time>
      </trkpt>
      <trkpt lat="44.79031" lon="1.59333">
        <ele>121.3</ele>
        <time>2024-12-25T12:47:55Z</time>
      </trkpt>
      <trkpt lat="44.7903" lon="1.59333">
        <ele>121.3</ele>
        <time>2024-12-25T12:47:56Z</time>
      </trkpt>
      <trkpt lat="44.79029" lon="1.59333">
        <ele>121.3</ele>
        <time>2024-12-25T12:47:57Z</time>
      </trkpt>
      <trkpt lat="44.79028" lon="1.59333">
        <ele>121.3</ele>
        <time>2024-12-25T12:47:58Z</time>
      </trkpt>
      <trkpt lat="44.79027" lon="1.59333">
        <ele>121.3</ele>
        <time>2024-12-25T12:47:59Z</time>
      </trkpt>
      <trkpt lat="44.79026" lon="1.59332">
        <ele>121.3</ele>
        <time>2024-12-25T12:48:00Z</time>
      </trkpt>
      <trkpt lat="44.79024" lon="1.59332">
        <ele>121.4</ele>
        <time>2024-12-25T12:48:01Z</time>
      </trkpt>
      <trkpt lat="44.79023" lon="1.59332">
        <ele>121.4</ele>
        <time>2024-12-25T12:48:02Z</time>
      </trkpt>
      <trkpt lat="44.79022" lon="1.59333">
        <ele>121.4</ele>
        <time>2024-12-25T12:48:03Z</time>
      </trkpt>
      <trkpt lat="44.79021" lon="1.59333">
        <ele>121.4</ele>
        <time>2024-12-25T12:48:04Z</time>
      </trkpt>
      <trkpt lat="44.7902" lon="1.59334">
        <ele>121.4</ele>
        <time>2024-12-25T12:48:05Z</time>
      </trkpt>
      <trkpt lat="44.79018" lon="1.59334">
        <ele>121.5</ele>
        <time>2024-12-25T12:48:06Z</time>
      </trkpt>
      <trkpt lat="44.79017" lon="1.59335">
        <ele>121.5</ele>
        <time>2024-12-25T12:48:07Z</time>
      </trkpt>
      <trkpt lat="44.79016" lon="1.59335">
        <ele>121.5</ele>
        <time>2024-12-25T12:48:08Z</time>
      </trkpt>
      <trkpt lat="44.79014" lon="1.59335">
        <ele>121.5</ele>
        <time>2024-12-25T12:48:09Z</time>
      </trkpt>
      <trkpt lat="44.79013" lon="1.59335">
        <ele>121.5</ele>
        <time>2024-12-25T12:48:10Z</time>
      </trkpt>
      <trkpt lat="44.79012" lon="1.59335">
        <ele>121.6</ele>
        <time>2024-12-25T12:48:11Z</time>
      </trkpt>
      <trkpt lat="44.7901" lon="1.59335">
        <ele>121.6</ele>
        <time>2024-12-25T12:48:12Z</time>
      </trkpt>
      <trkpt lat="44.79009" lon="1.59335">
        <ele>121.6</ele>
        <time>2024-12-25T12:48:13Z</time>
      </trkpt>
      <trkpt lat="44.79008" lon="1.59335">
        <ele>121.6</ele>
        <time>2024-12-25T12:48:14Z</time>
      </trkpt>
      <trkpt lat="44.79007" lon="1.59334">
        <ele>121.7</ele>
        <time>2024-12-25T12:48:15Z</time>
      </trkpt>
      <trkpt lat="44.79005" lon="1.59334">
        <ele>121.7</ele>
        <time>2024-12-25T12:48:16Z</time>
      </trkpt>
      <trkpt lat="44.79003" lon="1.59334">
        <ele>121.7</ele>
        <time>2024-12-25T12:48:17Z</time>
      </trkpt>
      <trkpt lat="44.79001" lon="1.59334">
        <ele>121.7</ele>
        <time>2024-12-25T12:48:18Z</time>
      </trkpt>
      <trkpt lat="44.79" lon="1.59334">
        <ele>121.8</ele>
        <time>2024-12-25T12:48:19Z</time>
      </trkpt>
      <trkpt lat="44.78999" lon="1.59334">
        <ele>121.8</ele>
        <time>2024-12-25T12:48:20Z</time>
      </trkpt>
      <trkpt lat="44.78998" lon="1.59334">
        <ele>121.8</ele>
        <time>2024-12-25T12:48:21Z</time>
      </trkpt>
      <trkpt lat="44.78997" lon="1.59334">
        <ele>121.8</ele>
        <time>2024-12-25T12:48:22Z</time>
      </trkpt>
      <trkpt lat="44.78995" lon="1.59335">
        <ele>121.8</ele>
        <time>2024-12-25T12:48:23Z</time>
      </trkpt>
      <trkpt lat="44.78994" lon="1.59335">
        <ele>121.8</ele>
        <time>2024-12-25T12:48:24Z</time>
      </trkpt>
      <trkpt lat="44.78992" lon="1.59335">
        <ele>121.9</ele>
        <time>2024-12-25T12:48:25Z</time>
      </trkpt>
      <trkpt lat="44.78991" lon="1.59335">
        <ele>121.9</ele>
        <time>2024-12-25T12:48:26Z</time>
      </trkpt>
      <trkpt lat="44.78989" lon="1.59334">
        <ele>121.9</ele>
        <time>2024-12-25T12:48:27Z</time>
      </trkpt>
      <trkpt lat="44.78988" lon="1.59333">
        <ele>121.9</ele>
        <time>2024-12-25T12:48:28Z</time>
      </trkpt>
      <trkpt lat="44.78988" lon="1.59333">
        <ele>121.9</ele>
        <time>2024-12-25T12:48:29Z</time>
      </trkpt>
      <trkpt lat="44.78987" lon="1.59333">
        <ele>121.9</ele>
        <time>2024-12-25T12:48:30Z</time>
      </trkpt>
      <trkpt lat="44.78986" lon="1.59332">
        <ele>121.9</ele>
        <time>2024-12-25T12:48:31Z</time>
      </trkpt>
      <trkpt lat="44.78984" lon="1.59331">
        <ele>122</ele>
        <time>2024-12-25T12:48:32Z</time>
      </trkpt>
      <trkpt lat="44.78984" lon="1.59331">
        <ele>122</ele>
        <time>2024-12-25T12:48:33Z</time>
      </trkpt>
      <trkpt lat="44.78983" lon="1.5933">
        <ele>122</ele>
        <time>2024-12-25T12:48:34Z</time>
      </trkpt>
      <trkpt lat="44.78982" lon="1.5933">
        <ele>122</ele>
        <time>2024-12-25T12:48:35Z</time>
      </trkpt>
      <trkpt lat="44.78981" lon="1.5933">
        <ele>122</ele>
        <time>2024-12-25T12:48:36Z</time>
      </trkpt>
      <trkpt lat="44.7898" lon="1.59329">
        <ele>122</ele>
        <time>2024-12-25T12:48:37Z</time>
      </trkpt>
      <trkpt lat="44.78977" lon="1.59329">
        <ele>122.1</ele>
        <time>2024-12-25T12:48:38Z</time>
      </trkpt>
      <trkpt lat="44.78976" lon="1.59329">
        <ele>122.1</ele>
        <time>2024-12-25T12:48:39Z</time>
      </trkpt>
      <trkpt lat="44.78975" lon="1.59329">
        <ele>122.1</ele>
        <time>2024-12-25T12:48:40Z</time>
      </trkpt>
      <trkpt lat="44.78972" lon="1.5933">
        <ele>122.1</ele>
        <time>2024-12-25T12:48:41Z</time>
      </trkpt>
      <trkpt lat="44.78972" lon="1.5933">
        <ele>122.2</ele>
        <time>2024-12-25T12:48:42Z</time>
      </trkpt>
      <trkpt lat="44.78969" lon="1.5933">
        <ele>122.2</ele>
        <time>2024-12-25T12:48:43Z</time>
      </trkpt>
      <trkpt lat="44.78968" lon="1.59331">
        <ele>122.2</ele>
        <time>2024-12-25T12:48:44Z</time>
      </trkpt>
      <trkpt lat="44.78966" lon="1.59331">
        <ele>122.3</ele>
        <time>2024-12-25T12:48:45Z</time>
      </trkpt>
      <trkpt lat="44.78965" lon="1.5933">
        <ele>122.3</ele>
        <time>2024-12-25T12:48:46Z</time>
      </trkpt>
      <trkpt lat="44.78964" lon="1.5933">
        <ele>122.3</ele>
        <time>2024-12-25T12:48:47Z</time>
      </trkpt>
      <trkpt lat="44.78961" lon="1.59328">
        <ele>122.4</ele>
        <time>2024-12-25T12:48:48Z</time>
      </trkpt>
      <trkpt lat="44.78961" lon="1.59328">
        <ele>122.4</ele>
        <time>2024-12-25T12:48:49Z</time>
      </trkpt>
      <trkpt lat="44.7896" lon="1.59327">
        <ele>122.5</ele>
        <time>2024-12-25T12:48:50Z</time>
      </trkpt>
      <trkpt lat="44.78959" lon="1.59326">
        <ele>122.5</ele>
        <time>2024-12-25T12:48:51Z</time>
      </trkpt>
      <trkpt lat="44.78958" lon="1.59326">
        <ele>122.5</ele>
        <time>2024-12-25T12:48:52Z</time>
      </trkpt>
      <trkpt lat="44.78957" lon="1.59325">
        <ele>122.6</ele>
        <time>2024-12-25T12:48:53Z</time>
      </trkpt>
      <trkpt lat="44.78955" lon="1.59325">
        <ele>122.6</ele>
        <time>2024-12-25T12:48:54Z</time>
      </trkpt>
      <trkpt lat="44.78954" lon="1.59324">
        <ele>122.7</ele>
        <time>2024-12-25T12:48:55Z</time>
      </trkpt>
      <trkpt lat="44.78954" lon="1.59322">
        <ele>122.7</ele>
        <time>2024-12-25T12:48:56Z</time>
      </trkpt>
      <trkpt lat="44.78953" lon="1.59322">
        <ele>122.7</ele>
        <time>2024-12-25T12:48:57Z</time>
      </trkpt>
      <trkpt lat="44.78952" lon="1.59321">
        <ele>122.8</ele>
        <time>2024-12-25T12:48:58Z</time>
      </trkpt>
      <trkpt lat="44.7895" lon="1.59322">
        <ele>122.8</ele>
        <time>2024-12-25T12:48:59Z</time>
      </trkpt>
      <trkpt lat="44.78949" lon="1.59322">
        <ele>122.9</ele>
        <time>2024-12-25T12:49:00Z</time>
      </trkpt>
      <trkpt lat="44.78948" lon="1.59322">
        <ele>122.9</ele>
        <time>2024-12-25T12:49:01Z</time>
      </trkpt>
      <trkpt lat="44.78947" lon="1.59323">
        <ele>123</ele>
        <time>2024-12-25T12:49:02Z</time>
      </trkpt>
      <trkpt lat="44.78945" lon="1.59323">
        <ele>123</ele>
        <time>2024-12-25T12:49:03Z</time>
      </trkpt>
      <trkpt lat="44.78943" lon="1.59324">
        <ele>123.1</ele>
        <time>2024-12-25T12:49:04Z</time>
      </trkpt>
      <trkpt lat="44.78942" lon="1.59324">
        <ele>123.1</ele>
        <time>2024-12-25T12:49:05Z</time>
      </trkpt>
      <trkpt lat="44.78941" lon="1.59325">
        <ele>123.1</ele>
        <time>2024-12-25T12:49:06Z</time>
      </trkpt>
      <trkpt lat="44.7894" lon="1.59326">
        <ele>123.2</ele>
        <time>2024-12-25T12:49:07Z</time>
      </trkpt>
      <trkpt lat="44.78938" lon="1.59327">
        <ele>123.2</ele>
        <time>2024-12-25T12:49:08Z</time>
      </trkpt>
      <trkpt lat="44.78937" lon="1.59327">
        <ele>123.3</ele>
        <time>2024-12-25T12:49:09Z</time>
      </trkpt>
      <trkpt lat="44.78935" lon="1.59327">
        <ele>123.3</ele>
        <time>2024-12-25T12:49:10Z</time>
      </trkpt>
      <trkpt lat="44.78934" lon="1.59327">
        <ele>123.3</ele>
        <time>2024-12-25T12:49:11Z</time>
      </trkpt>
      <trkpt lat="44.78933" lon="1.59327">
        <ele>123.3</ele>
        <time>2024-12-25T12:49:12Z</time>
      </trkpt>
      <trkpt lat="44.78933" lon="1.59327">
        <ele>123.4</ele>
        <time>2024-12-25T12:49:13Z</time>
      </trkpt>
      <trkpt lat="44.78931" lon="1.59328">
        <ele>123.4</ele>
        <time>2024-12-25T12:49:14Z</time>
      </trkpt>
      <trkpt lat="44.78929" lon="1.59328">
        <ele>123.4</ele>
        <time>2024-12-25T12:49:15Z</time>
      </trkpt>
      <trkpt lat="44.78928" lon="1.59329">
        <ele>123.5</ele>
        <time>2024-12-25T12:49:16Z</time>
      </trkpt>
      <trkpt lat="44.78926" lon="1.59329">
        <ele>123.5</ele>
        <time>2024-12-25T12:49:17Z</time>
      </trkpt>
      <trkpt lat="44.78925" lon="1.5933">
        <ele>123.5</ele>
        <time>2024-12-25T12:49:18Z</time>
      </trkpt>
      <trkpt lat="44.78923" lon="1.59331">
        <ele>123.6</ele>
        <time>2024-12-25T12:49:19Z</time>
      </trkpt>
      <trkpt lat="44.78922" lon="1.59331">
        <ele>123.6</ele>
        <time>2024-12-25T12:49:20Z</time>
      </trkpt>
      <trkpt lat="44.78921" lon="1.59331">
        <ele>123.6</ele>
        <time>2024-12-25T12:49:21Z</time>
      </trkpt>
      <trkpt lat="44.7892" lon="1.59332">
        <ele>123.7</ele>
        <time>2024-12-25T12:49:22Z</time>
      </trkpt>
      <trkpt lat="44.78918" lon="1.59332">
        <ele>123.7</ele>
        <time>2024-12-25T12:49:23Z</time>
      </trkpt>
      <trkpt lat="44.78917" lon="1.59332">
        <ele>123.7</ele>
        <time>2024-12-25T12:49:24Z</time>
      </trkpt>
      <trkpt lat="44.78916" lon="1.59332">
        <ele>123.7</ele>
        <time>2024-12-25T12:49:25Z</time>
      </trkpt>
      <trkpt lat="44.78914" lon="1.59332">
        <ele>123.8</ele>
        <time>2024-12-25T12:49:26Z</time>
      </trkpt>
      <trkpt lat="44.78914" lon="1.59333">
        <ele>123.8</ele>
        <time>2024-12-25T12:49:27Z</time>
      </trkpt>
      <trkpt lat="44.78913" lon="1.59333">
        <ele>123.8</ele>
        <time>2024-12-25T12:49:28Z</time>
      </trkpt>
      <trkpt lat="44.78911" lon="1.59335">
        <ele>123.9</ele>
        <time>2024-12-25T12:49:29Z</time>
      </trkpt>
      <trkpt lat="44.7891" lon="1.59335">
        <ele>123.9</ele>
        <time>2024-12-25T12:49:30Z</time>
      </trkpt>
      <trkpt lat="44.78909" lon="1.59335">
        <ele>123.9</ele>
        <time>2024-12-25T12:49:31Z</time>
      </trkpt>
      <trkpt lat="44.78907" lon="1.59336">
        <ele>123.9</ele>
        <time>2024-12-25T12:49:32Z</time>
      </trkpt>
      <trkpt lat="44.78906" lon="1.59336">
        <ele>124</ele>
        <time>2024-12-25T12:49:33Z</time>
      </trkpt>
      <trkpt lat="44.78905" lon="1.59335">
        <ele>124</ele>
        <time>2024-12-25T12:49:34Z</time>
      </trkpt>
      <trkpt lat="44.78903" lon="1.59336">
        <ele>124</ele>
        <time>2024-12-25T12:49:35Z</time>
      </trkpt>
      <trkpt lat="44.78902" lon="1.59337">
        <ele>124.1</ele>
        <time>2024-12-25T12:49:36Z</time>
      </trkpt>
      <trkpt lat="44.78901" lon="1.59337">
        <ele>124.1</ele>
        <time>2024-12-25T12:49:37Z</time>
      </trkpt>
      <trkpt lat="44.789" lon="1.59338">
        <ele>124.1</ele>
        <time>2024-12-25T12:49:38Z</time>
      </trkpt>
      <trkpt lat="44.78898" lon="1.59338">
        <ele>124.1</ele>
        <time>2024-12-25T12:49:39Z</time>
      </trkpt>
      <trkpt lat="44.78897" lon="1.59339">
        <ele>124.2</ele>
        <time>2024-12-25T12:49:40Z</time>
      </trkpt>
      <trkpt lat="44.78896" lon="1.59339">
        <ele>124.2</ele>
        <time>2024-12-25T12:49:41Z</time>
      </trkpt>
      <trkpt lat="44.78895" lon="1.5934">
        <ele>124.2</ele>
        <time>2024-12-25T12:49:42Z</time>
      </trkpt>
      <trkpt lat="44.78893" lon="1.5934">
        <ele>124.3</ele>
        <time>2024-12-25T12:49:43Z</time>
      </trkpt>
      <trkpt lat="44.78892" lon="1.5934">
        <ele>124.3</ele>
        <time>2024-12-25T12:49:44Z</time>
      </trkpt>
      <trkpt lat="44.78891" lon="1.59341">
        <ele>124.3</ele>
        <time>2024-12-25T12:49:45Z</time>
      </trkpt>
      <trkpt lat="44.7889" lon="1.59341">
        <ele>124.4</ele>
        <time>2024-12-25T12:49:46Z</time>
      </trkpt>
      <trkpt lat="44.78889" lon="1.59341">
        <ele>124.4</ele>
        <time>2024-12-25T12:49:47Z</time>
      </trkpt>
      <trkpt lat="44.78888" lon="1.59342">
        <ele>124.4</ele>
        <time>2024-12-25T12:49:48Z</time>
      </trkpt>
      <trkpt lat="44.78886" lon="1.59344">
        <ele>124.5</ele>
        <time>2024-12-25T12:49:49Z</time>
      </trkpt>
      <trkpt lat="44.78886" lon="1.59344">
        <ele>124.5</ele>
        <time>2024-12-25T12:49:50Z</time>
      </trkpt>
      <trkpt lat="44.78885" lon="1.59345">
        <ele>124.6</ele>
        <time>2024-12-25T12:49:51Z</time>
      </trkpt>
      <trkpt lat="44.78883" lon="1.59346">
        <ele>124.6</ele>
        <time>2024-12-25T12:49:52Z</time>
      </trkpt>
      <trkpt lat="44.78882" lon="1.59346">
        <ele>124.7</ele>
        <time>2024-12-25T12:49:53Z</time>
      </trkpt>
      <trkpt lat="44.78881" lon="1.59346">
        <ele>124.7</ele>
        <time>2024-12-25T12:49:54Z</time>
      </trkpt>
      <trkpt lat="44.7888" lon="1.59346">
        <ele>124.7</ele>
        <time>2024-12-25T12:49:55Z</time>
      </trkpt>
      <trkpt lat="44.78878" lon="1.59346">
        <ele>124.8</ele>
        <time>2024-12-25T12:49:56Z</time>
      </trkpt>
      <trkpt lat="44.78877" lon="1.59346">
        <ele>124.8</ele>
        <time>2024-12-25T12:49:57Z</time>
      </trkpt>
      <trkpt lat="44.78875" lon="1.59346">
        <ele>124.9</ele>
        <time>2024-12-25T12:49:58Z</time>
      </trkpt>
      <trkpt lat="44.78874" lon="1.59346">
        <ele>125</ele>
        <time>2024-12-25T12:49:59Z</time>
      </trkpt>
      <trkpt lat="44.78872" lon="1.59346">
        <ele>125</ele>
        <time>2024-12-25T12:50:00Z</time>
      </trkpt>
      <trkpt lat="44.78871" lon="1.59346">
        <ele>125.1</ele>
        <time>2024-12-25T12:50:01Z</time>
      </trkpt>
      <trkpt lat="44.7887" lon="1.59346">
        <ele>125.1</ele>
        <time>2024-12-25T12:50:02Z</time>
      </trkpt>
      <trkpt lat="44.78869" lon="1.59346">
        <ele>125.2</ele>
        <time>2024-12-25T12:50:03Z</time>
      </trkpt>
      <trkpt lat="44.78868" lon="1.59346">
        <ele>125.2</ele>
        <time>2024-12-25T12:50:04Z</time>
      </trkpt>
      <trkpt lat="44.78867" lon="1.59346">
        <ele>125.3</ele>
        <time>2024-12-25T12:50:05Z</time>
      </trkpt>
      <trkpt lat="44.78866" lon="1.59346">
        <ele>125.3</ele>
        <time>2024-12-25T12:50:06Z</time>
      </trkpt>
      <trkpt lat="44.78865" lon="1.59346">
        <ele>125.4</ele>
        <time>2024-12-25T12:50:07Z</time>
      </trkpt>
      <trkpt lat="44.78864" lon="1.59346">
        <ele>125.4</ele>
        <time>2024-12-25T12:50:08Z</time>
      </trkpt>
      <trkpt lat="44.78861" lon="1.59347">
        <ele>125.6</ele>
        <time>2024-12-25T12:50:09Z</time>
      </trkpt>
      <trkpt lat="44.78861" lon="1.59347">
        <ele>125.6</ele>
        <time>2024-12-25T12:50:10Z</time>
      </trkpt>
      <trkpt lat="44.7886" lon="1.59347">
        <ele>125.7</ele>
        <time>2024-12-25T12:50:11Z</time>
      </trkpt>
      <trkpt lat="44.78859" lon="1.59347">
        <ele>125.7</ele>
        <time>2024-12-25T12:50:12Z</time>
      </trkpt>
      <trkpt lat="44.78857" lon="1.59347">
        <ele>125.8</ele>
        <time>2024-12-25T12:50:13Z</time>
      </trkpt>
      <trkpt lat="44.78856" lon="1.59347">
        <ele>125.9</ele>
        <time>2024-12-25T12:50:14Z</time>
      </trkpt>
      <trkpt lat="44.78855" lon="1.59347">
        <ele>125.9</ele>
        <time>2024-12-25T12:50:15Z</time>
      </trkpt>
      <trkpt lat="44.78854" lon="1.59347">
        <ele>126</ele>
        <time>2024-12-25T12:50:16Z</time>
      </trkpt>
      <trkpt lat="44.78853" lon="1.59347">
        <ele>126.1</ele>
        <time>2024-12-25T12:50:17Z</time>
      </trkpt>
      <trkpt lat="44.78852" lon="1.59347">
        <ele>126.1</ele>
        <time>2024-12-25T12:50:18Z</time>
      </trkpt>
      <trkpt lat="44.78851" lon="1.59347">
        <ele>126.2</ele>
        <time>2024-12-25T12:50:19Z</time>
      </trkpt>
      <trkpt lat="44.7885" lon="1.59348">
        <ele>126.2</ele>
        <time>2024-12-25T12:50:20Z</time>
      </trkpt>
      <trkpt lat="44.7885" lon="1.59348">
        <ele>126.3</ele>
        <time>2024-12-25T12:50:21Z</time>
      </trkpt>
      <trkpt lat="44.78848" lon="1.5935">
        <ele>126.4</ele>
        <time>2024-12-25T12:50:22Z</time>
      </trkpt>
      <trkpt lat="44.78848" lon="1.59351">
        <ele>126.5</ele>
        <time>2024-12-25T12:50:23Z</time>
      </trkpt>
      <trkpt lat="44.78847" lon="1.59352">
        <ele>126.5</ele>
        <time>2024-12-25T12:50:24Z</time>
      </trkpt>
      <trkpt lat="44.78847" lon="1.59354">
        <ele>126.6</ele>
        <time>2024-12-25T12:50:25Z</time>
      </trkpt>
      <trkpt lat="44.78846" lon="1.59355">
        <ele>126.7</ele>
        <time>2024-12-25T12:50:26Z</time>
      </trkpt>
      <trkpt lat="44.78845" lon="1.59356">
        <ele>126.8</ele>
        <time>2024-12-25T12:50:27Z</time>
      </trkpt>
      <trkpt lat="44.78844" lon="1.59358">
        <ele>126.9</ele>
        <time>2024-12-25T12:50:28Z</time>
      </trkpt>
      <trkpt lat="44.78843" lon="1.5936">
        <ele>127</ele>
        <time>2024-12-25T12:50:29Z</time>
      </trkpt>
      <trkpt lat="44.78843" lon="1.59361">
        <ele>127</ele>
        <time>2024-12-25T12:50:30Z</time>
      </trkpt>
      <trkpt lat="44.78843" lon="1.59362">
        <ele>127.1</ele>
        <time>2024-12-25T12:50:31Z</time>
      </trkpt>
      <trkpt lat="44.78842" lon="1.59363">
        <ele>127.2</ele>
        <time>2024-12-25T12:50:32Z</time>
      </trkpt>
      <trkpt lat="44.78842" lon="1.59365">
        <ele>127.3</ele>
        <time>2024-12-25T12:50:33Z</time>
      </trkpt>
      <trkpt lat="44.78841" lon="1.59367">
        <ele>127.4</ele>
        <time>2024-12-25T12:50:34Z</time>
      </trkpt>
      <trkpt lat="44.78841" lon="1.59369">
        <ele>127.5</ele>
        <time>2024-12-25T12:50:35Z</time>
      </trkpt>
      <trkpt lat="44.7884" lon="1.59371">
        <ele>127.6</ele>
        <time>2024-12-25T12:50:36Z</time>
      </trkpt>
      <trkpt lat="44.7884" lon="1.59372">
        <ele>127.7</ele>
        <time>2024-12-25T12:50:37Z</time>
      </trkpt>
      <trkpt lat="44.78839" lon="1.59373">
        <ele>127.8</ele>
        <time>2024-12-25T12:50:38Z</time>
      </trkpt>
      <trkpt lat="44.78839" lon="1.59375">
        <ele>127.9</ele>
        <time>2024-12-25T12:50:39Z</time>
      </trkpt>
      <trkpt lat="44.78838" lon="1.59377">
        <ele>128</ele>
        <time>2024-12-25T12:50:40Z</time>
      </trkpt>
      <trkpt lat="44.78838" lon="1.59378">
        <ele>128.1</ele>
        <time>2024-12-25T12:50:41Z</time>
      </trkpt>
      <trkpt lat="44.78837" lon="1.5938">
        <ele>128.2</ele>
        <time>2024-12-25T12:50:42Z</time>
      </trkpt>
      <trkpt lat="44.78837" lon="1.59381">
        <ele>128.3</ele>
        <time>2024-12-25T12:50:43Z</time>
      </trkpt>
      <trkpt lat="44.78836" lon="1.59383">
        <ele>128.5</ele>
        <time>2024-12-25T12:50:44Z</time>
      </trkpt>
      <trkpt lat="44.78835" lon="1.59384">
        <ele>128.6</ele>
        <time>2024-12-25T12:50:45Z</time>
      </trkpt>
      <trkpt lat="44.78835" lon="1.59385">
        <ele>128.7</ele>
        <time>2024-12-25T12:50:46Z</time>
      </trkpt>
      <trkpt lat="44.78834" lon="1.59387">
        <ele>128.8</ele>
        <time>2024-12-25T12:50:47Z</time>
      </trkpt>
      <trkpt lat="44.78834" lon="1.59388">
        <ele>128.9</ele>
        <time>2024-12-25T12:50:48Z</time>
      </trkpt>
      <trkpt lat="44.78833" lon="1.5939">
        <ele>129</ele>
        <time>2024-12-25T12:50:49Z</time>
      </trkpt>
      <trkpt lat="44.78833" lon="1.59391">
        <ele>129.1</ele>
        <time>2024-12-25T12:50:50Z</time>
      </trkpt>
      <trkpt lat="44.78833" lon="1.59392">
        <ele>129.1</ele>
        <time>2024-12-25T12:50:51Z</time>
      </trkpt>
      <trkpt lat="44.78832" lon="1.59393">
        <ele>129.2</ele>
        <time>2024-12-25T12:50:52Z</time>
      </trkpt>
      <trkpt lat="44.78831" lon="1.59394">
        <ele>129.3</ele>
        <time>2024-12-25T12:50:53Z</time>
      </trkpt>
      <trkpt lat="44.7883" lon="1.59396">
        <ele>129.5</ele>
        <time>2024-12-25T12:50:54Z</time>
      </trkpt>
      <trkpt lat="44.78829" lon="1.59397">
        <ele>129.6</ele>
        <time>2024-12-25T12:50:55Z</time>
      </trkpt>
      <trkpt lat="44.78828" lon="1.59398">
        <ele>129.5</ele>
        <time>2024-12-25T12:50:56Z</time>
      </trkpt>
      <trkpt lat="44.78827" lon="1.59398">
        <ele>129.4</ele>
        <time>2024-12-25T12:50:57Z</time>
      </trkpt>
      <trkpt lat="44.78825" lon="1.59399">
        <ele>129.3</ele>
        <time>2024-12-25T12:50:58Z</time>
      </trkpt>
      <trkpt lat="44.78823" lon="1.59399">
        <ele>129.2</ele>
        <time>2024-12-25T12:50:59Z</time>
      </trkpt>
      <trkpt lat="44.78823" lon="1.59398">
        <ele>129.2</ele>
        <time>2024-12-25T12:51:00Z</time>
      </trkpt>
      <trkpt lat="44.78822" lon="1.59398">
        <ele>129.1</ele>
        <time>2024-12-25T12:51:01Z</time>
      </trkpt>
      <trkpt lat="44.78821" lon="1.59398">
        <ele>129.1</ele>
        <time>2024-12-25T12:51:02Z</time>
      </trkpt>
      <trkpt lat="44.7882" lon="1.59398">
        <ele>129</ele>
        <time>2024-12-25T12:51:03Z</time>
      </trkpt>
      <trkpt lat="44.78819" lon="1.59397">
        <ele>128.9</ele>
        <time>2024-12-25T12:51:04Z</time>
      </trkpt>
      <trkpt lat="44.78817" lon="1.59397">
        <ele>128.8</ele>
        <time>2024-12-25T12:51:05Z</time>
      </trkpt>
      <trkpt lat="44.78815" lon="1.59396">
        <ele>128.7</ele>
        <time>2024-12-25T12:51:06Z</time>
      </trkpt>
      <trkpt lat="44.78814" lon="1.59396">
        <ele>128.6</ele>
        <time>2024-12-25T12:51:07Z</time>
      </trkpt>
      <trkpt lat="44.78814" lon="1.59395">
        <ele>128.6</ele>
        <time>2024-12-25T12:51:08Z</time>
      </trkpt>
      <trkpt lat="44.78812" lon="1.59394">
        <ele>128.4</ele>
        <time>2024-12-25T12:51:09Z</time>
      </trkpt>
      <trkpt lat="44.78811" lon="1.59394">
        <ele>128.4</ele>
        <time>2024-12-25T12:51:10Z</time>
      </trkpt>
      <trkpt lat="44.7881" lon="1.59393">
        <ele>128.3</ele>
        <time>2024-12-25T12:51:11Z</time>
      </trkpt>
      <trkpt lat="44.78808" lon="1.59393">
        <ele>128.2</ele>
        <time>2024-12-25T12:51:12Z</time>
      </trkpt>
      <trkpt lat="44.78807" lon="1.59393">
        <ele>128.1</ele>
        <time>2024-12-25T12:51:13Z</time>
      </trkpt>
      <trkpt lat="44.78805" lon="1.59393">
        <ele>128</ele>
        <time>2024-12-25T12:51:14Z</time>
      </trkpt>
      <trkpt lat="44.78804" lon="1.59392">
        <ele>127.9</ele>
        <time>2024-12-25T12:51:15Z</time>
      </trkpt>
      <trkpt lat="44.78803" lon="1.5939">
        <ele>127.8</ele>
        <time>2024-12-25T12:51:16Z</time>
      </trkpt>
      <trkpt lat="44.78805" lon="1.59389">
        <ele>127.6</ele>
        <time>2024-12-25T12:51:17Z</time>
      </trkpt>
      <trkpt lat="44.78805" lon="1.59389">
        <ele>127.6</ele>
        <time>2024-12-25T12:51:18Z</time>
      </trkpt>
      <trkpt lat="44.78806" lon="1.5939">
        <ele>127.5</ele>
        <time>2024-12-25T12:51:19Z</time>
      </trkpt>
      <trkpt lat="44.78807" lon="1.5939">
        <ele>127.5</ele>
        <time>2024-12-25T12:51:20Z</time>
      </trkpt>
      <trkpt lat="44.78807" lon="1.59391">
        <ele>127.4</ele>
        <time>2024-12-25T12:51:21Z</time>
      </trkpt>
      <trkpt lat="44.78807" lon="1.59391">
        <ele>127.4</ele>
        <time>2024-12-25T12:51:22Z</time>
      </trkpt>
      <trkpt lat="44.78807" lon="1.59391">
        <ele>127.4</ele>
        <time>2024-12-25T12:51:23Z</time>
      </trkpt>
      <trkpt lat="44.78807" lon="1.59391">
        <ele>127.4</ele>
        <time>2024-12-25T12:51:24Z</time>
      </trkpt>
      <trkpt lat="44.78807" lon="1.59391">
        <ele>127.4</ele>
        <time>2024-12-25T12:51:25Z</time>
      </trkpt>
      <trkpt lat="44.78807" lon="1.59391">
        <ele>127.4</ele>
        <time>2024-12-25T12:51:26Z</time>
      </trkpt>
      <trkpt lat="44.78808" lon="1.59391">
        <ele>127.4</ele>
        <time>2024-12-25T12:51:27Z</time>
      </trkpt>
      <trkpt lat="44.78808" lon="1.59391">
        <ele>127.4</ele>
        <time>2024-12-25T12:51:28Z</time>
      </trkpt>
      <trkpt lat="44.78808" lon="1.59391">
        <ele>127.4</ele>
        <time>2024-12-25T12:51:29Z</time>
      </trkpt>
      <trkpt lat="44.78808" lon="1.59391">
        <ele>127.4</ele>
        <time>2024-12-25T12:51:30Z</time>
      </trkpt>
      <trkpt lat="44.78808" lon="1.59391">
        <ele>127.4</ele>
        <time>2024-12-25T12:51:31Z</time>
      </trkpt>
      <trkpt lat="44.78808" lon="1.59391">
        <ele>127.4</ele>
        <time>2024-12-25T12:51:32Z</time>
      </trkpt>
      <trkpt lat="44.78807" lon="1.59391">
        <ele>127.3</ele>
        <time>2024-12-25T12:51:33Z</time>
      </trkpt>
      <trkpt lat="44.78807" lon="1.59391">
        <ele>127.3</ele>
        <time>2024-12-25T12:51:34Z</time>
      </trkpt>
      <trkpt lat="44.78807" lon="1.59391">
        <ele>127.3</ele>
        <time>2024-12-25T12:51:35Z</time>
      </trkpt>
      <trkpt lat="44.78807" lon="1.59391">
        <ele>127.3</ele>
        <time>2024-12-25T12:51:36Z</time>
      </trkpt>
      <trkpt lat="44.78807" lon="1.5939">
        <ele>127.3</ele>
        <time>2024-12-25T12:51:37Z</time>
      </trkpt>
      <trkpt lat="44.78806" lon="1.5939">
        <ele>127.3</ele>
        <time>2024-12-25T12:51:38Z</time>
      </trkpt>
      <trkpt lat="44.78806" lon="1.59391">
        <ele>127.3</ele>
        <time>2024-12-25T12:51:39Z</time>
      </trkpt>
      <trkpt lat="44.78806" lon="1.59391">
        <ele>127.2</ele>
        <time>2024-12-25T12:51:40Z</time>
      </trkpt>
      <trkpt lat="44.78806" lon="1.59391">
        <ele>127.2</ele>
        <time>2024-12-25T12:51:41Z</time>
      </trkpt>
      <trkpt lat="44.78806" lon="1.59391">
        <ele>127.2</ele>
        <time>2024-12-25T12:51:42Z</time>
      </trkpt>
      <trkpt lat="44.78806" lon="1.59391">
        <ele>127.2</ele>
        <time>2024-12-25T12:51:43Z</time>
      </trkpt>
      <trkpt lat="44.78806" lon="1.5939">
        <ele>127.2</ele>
        <time>2024-12-25T12:51:44Z</time>
      </trkpt>
      <trkpt lat="44.78806" lon="1.5939">
        <ele>127.2</ele>
        <time>2024-12-25T12:51:45Z</time>
      </trkpt>
      <trkpt lat="44.78806" lon="1.5939">
        <ele>127.2</ele>
        <time>2024-12-25T12:51:46Z</time>
      </trkpt>
      <trkpt lat="44.78806" lon="1.5939">
        <ele>127.2</ele>
        <time>2024-12-25T12:51:47Z</time>
      </trkpt>
      <trkpt lat="44.78806" lon="1.5939">
        <ele>127.2</ele>
        <time>2024-12-25T12:51:48Z</time>
      </trkpt>
      <trkpt lat="44.78806" lon="1.5939">
        <ele>127.2</ele>
        <time>2024-12-25T12:51:49Z</time>
      </trkpt>
      <trkpt lat="44.78805" lon="1.5939">
        <ele>127.2</ele>
        <time>2024-12-25T12:51:50Z</time>
      </trkpt>
      <trkpt lat="44.78804" lon="1.59389">
        <ele>127.1</ele>
        <time>2024-12-25T12:51:51Z</time>
      </trkpt>
      <trkpt lat="44.78804" lon="1.59389">
        <ele>127.1</ele>
        <time>2024-12-25T12:51:52Z</time>
      </trkpt>
      <trkpt lat="44.78803" lon="1.59389">
        <ele>127.1</ele>
        <time>2024-12-25T12:51:53Z</time>
      </trkpt>
      <trkpt lat="44.788" lon="1.59385">
        <ele>126.8</ele>
        <time>2024-12-25T12:51:54Z</time>
      </trkpt>
      <trkpt lat="44.78797" lon="1.59384">
        <ele>126.7</ele>
        <time>2024-12-25T12:51:55Z</time>
      </trkpt>
      <trkpt lat="44.78795" lon="1.59384">
        <ele>126.6</ele>
        <time>2024-12-25T12:51:56Z</time>
      </trkpt>
      <trkpt lat="44.78794" lon="1.59383">
        <ele>126.5</ele>
        <time>2024-12-25T12:51:57Z</time>
      </trkpt>
      <trkpt lat="44.78793" lon="1.59383">
        <ele>126.5</ele>
        <time>2024-12-25T12:51:58Z</time>
      </trkpt>
      <trkpt lat="44.78793" lon="1.59383">
        <ele>126.5</ele>
        <time>2024-12-25T12:51:59Z</time>
      </trkpt>
      <trkpt lat="44.78792" lon="1.59383">
        <ele>126.4</ele>
        <time>2024-12-25T12:52:00Z</time>
      </trkpt>
      <trkpt lat="44.7879" lon="1.59382">
        <ele>126.4</ele>
        <time>2024-12-25T12:52:01Z</time>
      </trkpt>
      <trkpt lat="44.78789" lon="1.59381">
        <ele>126.3</ele>
        <time>2024-12-25T12:52:02Z</time>
      </trkpt>
      <trkpt lat="44.78787" lon="1.5938">
        <ele>126.2</ele>
        <time>2024-12-25T12:52:03Z</time>
      </trkpt>
      <trkpt lat="44.78784" lon="1.59378">
        <ele>126.1</ele>
        <time>2024-12-25T12:52:04Z</time>
      </trkpt>
      <trkpt lat="44.78782" lon="1.59378">
        <ele>126.1</ele>
        <time>2024-12-25T12:52:05Z</time>
      </trkpt>
      <trkpt lat="44.78781" lon="1.59378">
        <ele>126</ele>
        <time>2024-12-25T12:52:06Z</time>
      </trkpt>
      <trkpt lat="44.7878" lon="1.59378">
        <ele>126</ele>
        <time>2024-12-25T12:52:07Z</time>
      </trkpt>
      <trkpt lat="44.7878" lon="1.59378">
        <ele>126</ele>
        <time>2024-12-25T12:52:08Z</time>
      </trkpt>
      <trkpt lat="44.78779" lon="1.59378">
        <ele>126</ele>
        <time>2024-12-25T12:52:09Z</time>
      </trkpt>
      <trkpt lat="44.78778" lon="1.59378">
        <ele>126</ele>
        <time>2024-12-25T12:52:10Z</time>
      </trkpt>
      <trkpt lat="44.78776" lon="1.59378">
        <ele>125.9</ele>
        <time>2024-12-25T12:52:11Z</time>
      </trkpt>
      <trkpt lat="44.78775" lon="1.59378">
        <ele>125.9</ele>
        <time>2024-12-25T12:52:12Z</time>
      </trkpt>
      <trkpt lat="44.78771" lon="1.59378">
        <ele>125.8</ele>
        <time>2024-12-25T12:52:13Z</time>
      </trkpt>
      <trkpt lat="44.7877" lon="1.59378">
        <ele>125.8</ele>
        <time>2024-12-25T12:52:14Z</time>
      </trkpt>
      <trkpt lat="44.78769" lon="1.59379">
        <ele>125.8</ele>
        <time>2024-12-25T12:52:15Z</time>
      </trkpt>
      <trkpt lat="44.78769" lon="1.59381">
        <ele>125.8</ele>
        <time>2024-12-25T12:52:16Z</time>
      </trkpt>
      <trkpt lat="44.78769" lon="1.59382">
        <ele>125.7</ele>
        <time>2024-12-25T12:52:17Z</time>
      </trkpt>
      <trkpt lat="44.78769" lon="1.59383">
        <ele>125.7</ele>
        <time>2024-12-25T12:52:18Z</time>
      </trkpt>
      <trkpt lat="44.78767" lon="1.59384">
        <ele>125.7</ele>
        <time>2024-12-25T12:52:19Z</time>
      </trkpt>
      <trkpt lat="44.78765" lon="1.59384">
        <ele>125.7</ele>
        <time>2024-12-25T12:52:20Z</time>
      </trkpt>
      <trkpt lat="44.78764" lon="1.59384">
        <ele>125.7</ele>
        <time>2024-12-25T12:52:21Z</time>
      </trkpt>
      <trkpt lat="44.78761" lon="1.5938">
        <ele>125.6</ele>
        <time>2024-12-25T12:52:22Z</time>
      </trkpt>
      <trkpt lat="44.78759" lon="1.59379">
        <ele>125.6</ele>
        <time>2024-12-25T12:52:23Z</time>
      </trkpt>
      <trkpt lat="44.78758" lon="1.59379">
        <ele>125.6</ele>
        <time>2024-12-25T12:52:24Z</time>
      </trkpt>
      <trkpt lat="44.78757" lon="1.5938">
        <ele>125.6</ele>
        <time>2024-12-25T12:52:25Z</time>
      </trkpt>
      <trkpt lat="44.78757" lon="1.5938">
        <ele>125.6</ele>
        <time>2024-12-25T12:52:26Z</time>
      </trkpt>
      <trkpt lat="44.78756" lon="1.5938">
        <ele>125.6</ele>
        <time>2024-12-25T12:52:27Z</time>
      </trkpt>
      <trkpt lat="44.78755" lon="1.59379">
        <ele>125.6</ele>
        <time>2024-12-25T12:52:28Z</time>
      </trkpt>
      <trkpt lat="44.78752" lon="1.59378">
        <ele>125.6</ele>
        <time>2024-12-25T12:52:29Z</time>
      </trkpt>
      <trkpt lat="44.7875" lon="1.59377">
        <ele>125.6</ele>
        <time>2024-12-25T12:52:30Z</time>
      </trkpt>
      <trkpt lat="44.78749" lon="1.59376">
        <ele>125.6</ele>
        <time>2024-12-25T12:52:31Z</time>
      </trkpt>
      <trkpt lat="44.78748" lon="1.59378">
        <ele>125.7</ele>
        <time>2024-12-25T12:52:32Z</time>
      </trkpt>
      <trkpt lat="44.78747" lon="1.59379">
        <ele>125.7</ele>
        <time>2024-12-25T12:52:33Z</time>
      </trkpt>
      <trkpt lat="44.78747" lon="1.59378">
        <ele>125.7</ele>
        <time>2024-12-25T12:52:34Z</time>
      </trkpt>
      <trkpt lat="44.78745" lon="1.59379">
        <ele>125.7</ele>
        <time>2024-12-25T12:52:35Z</time>
      </trkpt>
      <trkpt lat="44.78744" lon="1.5938">
        <ele>125.7</ele>
        <time>2024-12-25T12:52:36Z</time>
      </trkpt>
      <trkpt lat="44.78742" lon="1.59379">
        <ele>125.7</ele>
        <time>2024-12-25T12:52:37Z</time>
      </trkpt>
      <trkpt lat="44.78741" lon="1.5938">
        <ele>125.7</ele>
        <time>2024-12-25T12:52:38Z</time>
      </trkpt>
      <trkpt lat="44.7874" lon="1.5938">
        <ele>125.7</ele>
        <time>2024-12-25T12:52:39Z</time>
      </trkpt>
      <trkpt lat="44.78738" lon="1.59381">
        <ele>125.7</ele>
        <time>2024-12-25T12:52:40Z</time>
      </trkpt>
      <trkpt lat="44.78737" lon="1.59382">
        <ele>125.8</ele>
        <time>2024-12-25T12:52:41Z</time>
      </trkpt>
      <trkpt lat="44.78736" lon="1.59383">
        <ele>125.8</ele>
        <time>2024-12-25T12:52:42Z</time>
      </trkpt>
      <trkpt lat="44.78735" lon="1.59383">
        <ele>125.8</ele>
        <time>2024-12-25T12:52:43Z</time>
      </trkpt>
      <trkpt lat="44.78734" lon="1.59383">
        <ele>125.8</ele>
        <time>2024-12-25T12:52:44Z</time>
      </trkpt>
      <trkpt lat="44.78732" lon="1.59383">
        <ele>125.8</ele>
        <time>2024-12-25T12:52:45Z</time>
      </trkpt>
      <trkpt lat="44.78731" lon="1.59384">
        <ele>125.8</ele>
        <time>2024-12-25T12:52:46Z</time>
      </trkpt>
      <trkpt lat="44.7873" lon="1.59384">
        <ele>125.8</ele>
        <time>2024-12-25T12:52:47Z</time>
      </trkpt>
      <trkpt lat="44.78729" lon="1.59385">
        <ele>125.8</ele>
        <time>2024-12-25T12:52:48Z</time>
      </trkpt>
      <trkpt lat="44.78728" lon="1.59385">
        <ele>125.9</ele>
        <time>2024-12-25T12:52:49Z</time>
      </trkpt>
      <trkpt lat="44.78727" lon="1.59384">
        <ele>125.9</ele>
        <time>2024-12-25T12:52:50Z</time>
      </trkpt>
      <trkpt lat="44.78726" lon="1.59384">
        <ele>125.9</ele>
        <time>2024-12-25T12:52:51Z</time>
      </trkpt>
      <trkpt lat="44.78725" lon="1.59383">
        <ele>125.9</ele>
        <time>2024-12-25T12:52:52Z</time>
      </trkpt>
      <trkpt lat="44.78724" lon="1.59381">
        <ele>125.9</ele>
        <time>2024-12-25T12:52:53Z</time>
      </trkpt>
      <trkpt lat="44.78722" lon="1.5938">
        <ele>126</ele>
        <time>2024-12-25T12:52:54Z</time>
      </trkpt>
      <trkpt lat="44.7872" lon="1.59378">
        <ele>126</ele>
        <time>2024-12-25T12:52:55Z</time>
      </trkpt>
      <trkpt lat="44.78719" lon="1.59378">
        <ele>126</ele>
        <time>2024-12-25T12:52:56Z</time>
      </trkpt>
      <trkpt lat="44.78718" lon="1.59379">
        <ele>126</ele>
        <time>2024-12-25T12:52:57Z</time>
      </trkpt>
      <trkpt lat="44.78718" lon="1.59379">
        <ele>126</ele>
        <time>2024-12-25T12:52:58Z</time>
      </trkpt>
      <trkpt lat="44.78718" lon="1.5938">
        <ele>126</ele>
        <time>2024-12-25T12:52:59Z</time>
      </trkpt>
      <trkpt lat="44.78717" lon="1.59379">
        <ele>126.1</ele>
        <time>2024-12-25T12:53:00Z</time>
      </trkpt>
      <trkpt lat="44.78716" lon="1.59377">
        <ele>126.1</ele>
        <time>2024-12-25T12:53:01Z</time>
      </trkpt>
      <trkpt lat="44.78716" lon="1.59376">
        <ele>126.1</ele>
        <time>2024-12-25T12:53:02Z</time>
      </trkpt>
      <trkpt lat="44.78716" lon="1.59371">
        <ele>126.2</ele>
        <time>2024-12-25T12:53:03Z</time>
      </trkpt>
      <trkpt lat="44.78716" lon="1.5937">
        <ele>126.2</ele>
        <time>2024-12-25T12:53:04Z</time>
      </trkpt>
      <trkpt lat="44.78716" lon="1.59367">
        <ele>126.2</ele>
        <time>2024-12-25T12:53:05Z</time>
      </trkpt>
      <trkpt lat="44.78716" lon="1.59365">
        <ele>126.2</ele>
        <time>2024-12-25T12:53:06Z</time>
      </trkpt>
      <trkpt lat="44.78716" lon="1.59364">
        <ele>126.3</ele>
        <time>2024-12-25T12:53:07Z</time>
      </trkpt>
      <trkpt lat="44.78715" lon="1.59362">
        <ele>126.3</ele>
        <time>2024-12-25T12:53:08Z</time>
      </trkpt>
      <trkpt lat="44.78713" lon="1.59361">
        <ele>126.3</ele>
        <time>2024-12-25T12:53:09Z</time>
      </trkpt>
      <trkpt lat="44.78712" lon="1.5936">
        <ele>126.3</ele>
        <time>2024-12-25T12:53:10Z</time>
      </trkpt>
      <trkpt lat="44.7871" lon="1.59358">
        <ele>126.4</ele>
        <time>2024-12-25T12:53:11Z</time>
      </trkpt>
      <trkpt lat="44.78709" lon="1.59358">
        <ele>126.4</ele>
        <time>2024-12-25T12:53:12Z</time>
      </trkpt>
      <trkpt lat="44.78708" lon="1.59358">
        <ele>126.4</ele>
        <time>2024-12-25T12:53:13Z</time>
      </trkpt>
      <trkpt lat="44.78707" lon="1.59358">
        <ele>126.4</ele>
        <time>2024-12-25T12:53:14Z</time>
      </trkpt>
      <trkpt lat="44.78706" lon="1.59358">
        <ele>126.5</ele>
        <time>2024-12-25T12:53:15Z</time>
      </trkpt>
      <trkpt lat="44.78704" lon="1.59359">
        <ele>126.5</ele>
        <time>2024-12-25T12:53:16Z</time>
      </trkpt>
      <trkpt lat="44.78703" lon="1.59359">
        <ele>126.5</ele>
        <time>2024-12-25T12:53:17Z</time>
      </trkpt>
      <trkpt lat="44.78702" lon="1.5936">
        <ele>126.5</ele>
        <time>2024-12-25T12:53:18Z</time>
      </trkpt>
      <trkpt lat="44.78701" lon="1.5936">
        <ele>126.5</ele>
        <time>2024-12-25T12:53:19Z</time>
      </trkpt>
      <trkpt lat="44.78699" lon="1.5936">
        <ele>126.5</ele>
        <time>2024-12-25T12:53:20Z</time>
      </trkpt>
      <trkpt lat="44.78697" lon="1.59361">
        <ele>126.6</ele>
        <time>2024-12-25T12:53:21Z</time>
      </trkpt>
      <trkpt lat="44.78697" lon="1.5936">
        <ele>126.6</ele>
        <time>2024-12-25T12:53:22Z</time>
      </trkpt>
      <trkpt lat="44.78695" lon="1.5936">
        <ele>126.6</ele>
        <time>2024-12-25T12:53:23Z</time>
      </trkpt>
      <trkpt lat="44.78694" lon="1.59361">
        <ele>126.6</ele>
        <time>2024-12-25T12:53:24Z</time>
      </trkpt>
      <trkpt lat="44.78693" lon="1.5936">
        <ele>126.6</ele>
        <time>2024-12-25T12:53:25Z</time>
      </trkpt>
      <trkpt lat="44.78692" lon="1.59359">
        <ele>126.6</ele>
        <time>2024-12-25T12:53:26Z</time>
      </trkpt>
      <trkpt lat="44.78691" lon="1.59359">
        <ele>126.7</ele>
        <time>2024-12-25T12:53:27Z</time>
      </trkpt>
      <trkpt lat="44.7869" lon="1.59359">
        <ele>126.7</ele>
        <time>2024-12-25T12:53:28Z</time>
      </trkpt>
      <trkpt lat="44.78687" lon="1.59359">
        <ele>126.7</ele>
        <time>2024-12-25T12:53:29Z</time>
      </trkpt>
      <trkpt lat="44.78686" lon="1.59359">
        <ele>126.7</ele>
        <time>2024-12-25T12:53:30Z</time>
      </trkpt>
      <trkpt lat="44.78685" lon="1.59359">
        <ele>126.7</ele>
        <time>2024-12-25T12:53:31Z</time>
      </trkpt>
      <trkpt lat="44.78684" lon="1.59358">
        <ele>126.7</ele>
        <time>2024-12-25T12:53:32Z</time>
      </trkpt>
      <trkpt lat="44.78682" lon="1.59357">
        <ele>126.8</ele>
        <time>2024-12-25T12:53:33Z</time>
      </trkpt>
      <trkpt lat="44.78681" lon="1.59357">
        <ele>126.8</ele>
        <time>2024-12-25T12:53:34Z</time>
      </trkpt>
      <trkpt lat="44.78679" lon="1.59357">
        <ele>126.8</ele>
        <time>2024-12-25T12:53:35Z</time>
      </trkpt>
      <trkpt lat="44.78677" lon="1.59357">
        <ele>126.8</ele>
        <time>2024-12-25T12:53:36Z</time>
      </trkpt>
      <trkpt lat="44.78677" lon="1.59357">
        <ele>126.8</ele>
        <time>2024-12-25T12:53:37Z</time>
      </trkpt>
      <trkpt lat="44.78676" lon="1.59356">
        <ele>126.9</ele>
        <time>2024-12-25T12:53:38Z</time>
      </trkpt>
      <trkpt lat="44.78676" lon="1.59355">
        <ele>126.9</ele>
        <time>2024-12-25T12:53:39Z</time>
      </trkpt>
      <trkpt lat="44.78676" lon="1.59354">
        <ele>126.9</ele>
        <time>2024-12-25T12:53:40Z</time>
      </trkpt>
      <trkpt lat="44.78676" lon="1.59353">
        <ele>126.9</ele>
        <time>2024-12-25T12:53:41Z</time>
      </trkpt>
      <trkpt lat="44.78676" lon="1.59354">
        <ele>126.9</ele>
        <time>2024-12-25T12:53:42Z</time>
      </trkpt>
      <trkpt lat="44.78675" lon="1.59354">
        <ele>126.9</ele>
        <time>2024-12-25T12:53:43Z</time>
      </trkpt>
      <trkpt lat="44.78675" lon="1.59354">
        <ele>126.9</ele>
        <time>2024-12-25T12:53:44Z</time>
      </trkpt>
      <trkpt lat="44.78675" lon="1.59354">
        <ele>126.9</ele>
        <time>2024-12-25T12:53:45Z</time>
      </trkpt>
      <trkpt lat="44.78676" lon="1.59353">
        <ele>126.9</ele>
        <time>2024-12-25T12:53:46Z</time>
      </trkpt>
      <trkpt lat="44.78675" lon="1.59354">
        <ele>126.9</ele>
        <time>2024-12-25T12:53:47Z</time>
      </trkpt>
      <trkpt lat="44.78675" lon="1.59354">
        <ele>126.9</ele>
        <time>2024-12-25T12:53:48Z</time>
      </trkpt>
      <trkpt lat="44.78676" lon="1.59355">
        <ele>126.9</ele>
        <time>2024-12-25T12:53:49Z</time>
      </trkpt>
      <trkpt lat="44.78677" lon="1.59357">
        <ele>127</ele>
        <time>2024-12-25T12:53:50Z</time>
      </trkpt>
      <trkpt lat="44.78679" lon="1.59358">
        <ele>127</ele>
        <time>2024-12-25T12:53:51Z</time>
      </trkpt>
      <trkpt lat="44.78679" lon="1.59358">
        <ele>127</ele>
        <time>2024-12-25T12:53:52Z</time>
      </trkpt>
      <trkpt lat="44.78679" lon="1.59359">
        <ele>127</ele>
        <time>2024-12-25T12:53:53Z</time>
      </trkpt>
      <trkpt lat="44.78679" lon="1.59359">
        <ele>127</ele>
        <time>2024-12-25T12:53:54Z</time>
      </trkpt>
      <trkpt lat="44.78678" lon="1.59359">
        <ele>127</ele>
        <time>2024-12-25T12:53:55Z</time>
      </trkpt>
      <trkpt lat="44.78678" lon="1.5936">
        <ele>127</ele>
        <time>2024-12-25T12:53:56Z</time>
      </trkpt>
      <trkpt lat="44.78677" lon="1.5936">
        <ele>127</ele>
        <time>2024-12-25T12:53:57Z</time>
      </trkpt>
      <trkpt lat="44.78677" lon="1.5936">
        <ele>127</ele>
        <time>2024-12-25T12:53:58Z</time>
      </trkpt>
      <trkpt lat="44.78677" lon="1.5936">
        <ele>127.1</ele>
        <time>2024-12-25T12:53:59Z</time>
      </trkpt>
      <trkpt lat="44.78676" lon="1.59361">
        <ele>127.1</ele>
        <time>2024-12-25T12:54:00Z</time>
      </trkpt>
      <trkpt lat="44.78676" lon="1.59361">
        <ele>127.1</ele>
        <time>2024-12-25T12:54:01Z</time>
      </trkpt>
      <trkpt lat="44.78674" lon="1.5936">
        <ele>127.1</ele>
        <time>2024-12-25T12:54:02Z</time>
      </trkpt>
      <trkpt lat="44.78673" lon="1.5936">
        <ele>127.1</ele>
        <time>2024-12-25T12:54:03Z</time>
      </trkpt>
      <trkpt lat="44.78672" lon="1.5936">
        <ele>127.1</ele>
        <time>2024-12-25T12:54:04Z</time>
      </trkpt>
      <trkpt lat="44.78669" lon="1.59359">
        <ele>127.2</ele>
        <time>2024-12-25T12:54:05Z</time>
      </trkpt>
      <trkpt lat="44.78668" lon="1.59359">
        <ele>127.2</ele>
        <time>2024-12-25T12:54:06Z</time>
      </trkpt>
      <trkpt lat="44.78665" lon="1.59362">
        <ele>127.3</ele>
        <time>2024-12-25T12:54:07Z</time>
      </trkpt>
      <trkpt lat="44.78663" lon="1.59361">
        <ele>127.3</ele>
        <time>2024-12-25T12:54:08Z</time>
      </trkpt>
      <trkpt lat="44.78662" lon="1.59361">
        <ele>127.3</ele>
        <time>2024-12-25T12:54:09Z</time>
      </trkpt>
      <trkpt lat="44.78661" lon="1.59361">
        <ele>127.4</ele>
        <time>2024-12-25T12:54:10Z</time>
      </trkpt>
      <trkpt lat="44.7866" lon="1.59361">
        <ele>127.4</ele>
        <time>2024-12-25T12:54:11Z</time>
      </trkpt>
      <trkpt lat="44.7866" lon="1.59362">
        <ele>127.4</ele>
        <time>2024-12-25T12:54:12Z</time>
      </trkpt>
      <trkpt lat="44.78659" lon="1.59362">
        <ele>127.4</ele>
        <time>2024-12-25T12:54:13Z</time>
      </trkpt>
      <trkpt lat="44.78658" lon="1.59362">
        <ele>127.5</ele>
        <time>2024-12-25T12:54:14Z</time>
      </trkpt>
      <trkpt lat="44.78657" lon="1.59363">
        <ele>127.5</ele>
        <time>2024-12-25T12:54:15Z</time>
      </trkpt>
      <trkpt lat="44.78655" lon="1.59363">
        <ele>127.6</ele>
        <time>2024-12-25T12:54:16Z</time>
      </trkpt>
      <trkpt lat="44.78654" lon="1.59365">
        <ele>127.6</ele>
        <time>2024-12-25T12:54:17Z</time>
      </trkpt>
      <trkpt lat="44.78653" lon="1.59365">
        <ele>127.6</ele>
        <time>2024-12-25T12:54:18Z</time>
      </trkpt>
      <trkpt lat="44.78651" lon="1.59366">
        <ele>127.7</ele>
        <time>2024-12-25T12:54:19Z</time>
      </trkpt>
      <trkpt lat="44.7865" lon="1.59367">
        <ele>127.7</ele>
        <time>2024-12-25T12:54:20Z</time>
      </trkpt>
      <trkpt lat="44.78649" lon="1.59367">
        <ele>127.8</ele>
        <time>2024-12-25T12:54:21Z</time>
      </trkpt>
      <trkpt lat="44.78646" lon="1.59368">
        <ele>127.9</ele>
        <time>2024-12-25T12:54:22Z</time>
      </trkpt>
      <trkpt lat="44.78645" lon="1.59368">
        <ele>127.9</ele>
        <time>2024-12-25T12:54:23Z</time>
      </trkpt>
      <trkpt lat="44.78644" lon="1.59368">
        <ele>127.9</ele>
        <time>2024-12-25T12:54:24Z</time>
      </trkpt>
      <trkpt lat="44.78642" lon="1.59368">
        <ele>128</ele>
        <time>2024-12-25T12:54:25Z</time>
      </trkpt>
      <trkpt lat="44.78642" lon="1.59369">
        <ele>128</ele>
        <time>2024-12-25T12:54:26Z</time>
      </trkpt>
      <trkpt lat="44.78641" lon="1.59369">
        <ele>128</ele>
        <time>2024-12-25T12:54:27Z</time>
      </trkpt>
      <trkpt lat="44.7864" lon="1.5937">
        <ele>128</ele>
        <time>2024-12-25T12:54:28Z</time>
      </trkpt>
      <trkpt lat="44.7864" lon="1.5937">
        <ele>128.1</ele>
        <time>2024-12-25T12:54:29Z</time>
      </trkpt>
      <trkpt lat="44.78638" lon="1.5937">
        <ele>128.1</ele>
        <time>2024-12-25T12:54:30Z</time>
      </trkpt>
      <trkpt lat="44.78637" lon="1.5937">
        <ele>128.1</ele>
        <time>2024-12-25T12:54:31Z</time>
      </trkpt>
      <trkpt lat="44.78635" lon="1.5937">
        <ele>128.2</ele>
        <time>2024-12-25T12:54:32Z</time>
      </trkpt>
      <trkpt lat="44.78633" lon="1.5937">
        <ele>128.2</ele>
        <time>2024-12-25T12:54:33Z</time>
      </trkpt>
      <trkpt lat="44.78633" lon="1.5937">
        <ele>128.3</ele>
        <time>2024-12-25T12:54:34Z</time>
      </trkpt>
      <trkpt lat="44.78632" lon="1.5937">
        <ele>128.3</ele>
        <time>2024-12-25T12:54:35Z</time>
      </trkpt>
      <trkpt lat="44.78631" lon="1.5937">
        <ele>128.3</ele>
        <time>2024-12-25T12:54:36Z</time>
      </trkpt>
      <trkpt lat="44.7863" lon="1.5937">
        <ele>128.3</ele>
        <time>2024-12-25T12:54:37Z</time>
      </trkpt>
      <trkpt lat="44.78628" lon="1.5937">
        <ele>128.4</ele>
        <time>2024-12-25T12:54:38Z</time>
      </trkpt>
      <trkpt lat="44.78627" lon="1.5937">
        <ele>128.4</ele>
        <time>2024-12-25T12:54:39Z</time>
      </trkpt>
      <trkpt lat="44.78625" lon="1.5937">
        <ele>128.4</ele>
        <time>2024-12-25T12:54:40Z</time>
      </trkpt>
      <trkpt lat="44.78624" lon="1.5937">
        <ele>128.5</ele>
        <time>2024-12-25T12:54:41Z</time>
      </trkpt>
      <trkpt lat="44.78623" lon="1.5937">
        <ele>128.5</ele>
        <time>2024-12-25T12:54:42Z</time>
      </trkpt>
      <trkpt lat="44.78622" lon="1.5937">
        <ele>128.5</ele>
        <time>2024-12-25T12:54:43Z</time>
      </trkpt>
      <trkpt lat="44.7862" lon="1.5937">
        <ele>128.6</ele>
        <time>2024-12-25T12:54:44Z</time>
      </trkpt>
      <trkpt lat="44.78619" lon="1.5937">
        <ele>128.6</ele>
        <time>2024-12-25T12:54:45Z</time>
      </trkpt>
      <trkpt lat="44.78618" lon="1.5937">
        <ele>128.7</ele>
        <time>2024-12-25T12:54:46Z</time>
      </trkpt>
      <trkpt lat="44.78616" lon="1.5937">
        <ele>128.7</ele>
        <time>2024-12-25T12:54:47Z</time>
      </trkpt>
      <trkpt lat="44.78615" lon="1.5937">
        <ele>128.8</ele>
        <time>2024-12-25T12:54:48Z</time>
      </trkpt>
      <trkpt lat="44.78614" lon="1.5937">
        <ele>128.8</ele>
        <time>2024-12-25T12:54:49Z</time>
      </trkpt>
      <trkpt lat="44.78613" lon="1.5937">
        <ele>128.8</ele>
        <time>2024-12-25T12:54:50Z</time>
      </trkpt>
      <trkpt lat="44.78611" lon="1.5937">
        <ele>128.9</ele>
        <time>2024-12-25T12:54:51Z</time>
      </trkpt>
      <trkpt lat="44.78609" lon="1.5937">
        <ele>129</ele>
        <time>2024-12-25T12:54:52Z</time>
      </trkpt>
      <trkpt lat="44.78608" lon="1.59371">
        <ele>129</ele>
        <time>2024-12-25T12:54:53Z</time>
      </trkpt>
      <trkpt lat="44.78606" lon="1.59372">
        <ele>129.1</ele>
        <time>2024-12-25T12:54:54Z</time>
      </trkpt>
      <trkpt lat="44.78605" lon="1.59373">
        <ele>129.1</ele>
        <time>2024-12-25T12:54:55Z</time>
      </trkpt>
      <trkpt lat="44.78603" lon="1.59374">
        <ele>129.2</ele>
        <time>2024-12-25T12:54:56Z</time>
      </trkpt>
      <trkpt lat="44.78602" lon="1.59375">
        <ele>129.2</ele>
        <time>2024-12-25T12:54:57Z</time>
      </trkpt>
      <trkpt lat="44.78602" lon="1.59375">
        <ele>129.2</ele>
        <time>2024-12-25T12:54:58Z</time>
      </trkpt>
      <trkpt lat="44.786" lon="1.59375">
        <ele>129.3</ele>
        <time>2024-12-25T12:54:59Z</time>
      </trkpt>
      <trkpt lat="44.78599" lon="1.59375">
        <ele>129.3</ele>
        <time>2024-12-25T12:55:00Z</time>
      </trkpt>
      <trkpt lat="44.78597" lon="1.59376">
        <ele>129.3</ele>
        <time>2024-12-25T12:55:01Z</time>
      </trkpt>
      <trkpt lat="44.78596" lon="1.59376">
        <ele>129.4</ele>
        <time>2024-12-25T12:55:02Z</time>
      </trkpt>
      <trkpt lat="44.78595" lon="1.59376">
        <ele>129.4</ele>
        <time>2024-12-25T12:55:03Z</time>
      </trkpt>
      <trkpt lat="44.78593" lon="1.59376">
        <ele>129.5</ele>
        <time>2024-12-25T12:55:04Z</time>
      </trkpt>
      <trkpt lat="44.78592" lon="1.59377">
        <ele>129.5</ele>
        <time>2024-12-25T12:55:05Z</time>
      </trkpt>
      <trkpt lat="44.78591" lon="1.59377">
        <ele>129.5</ele>
        <time>2024-12-25T12:55:06Z</time>
      </trkpt>
      <trkpt lat="44.7859" lon="1.59376">
        <ele>129.6</ele>
        <time>2024-12-25T12:55:07Z</time>
      </trkpt>
      <trkpt lat="44.78588" lon="1.59376">
        <ele>129.6</ele>
        <time>2024-12-25T12:55:08Z</time>
      </trkpt>
      <trkpt lat="44.78586" lon="1.59375">
        <ele>129.7</ele>
        <time>2024-12-25T12:55:09Z</time>
      </trkpt>
      <trkpt lat="44.78585" lon="1.59375">
        <ele>129.7</ele>
        <time>2024-12-25T12:55:10Z</time>
      </trkpt>
      <trkpt lat="44.78584" lon="1.59374">
        <ele>129.8</ele>
        <time>2024-12-25T12:55:11Z</time>
      </trkpt>
      <trkpt lat="44.78583" lon="1.59374">
        <ele>129.8</ele>
        <time>2024-12-25T12:55:12Z</time>
      </trkpt>
      <trkpt lat="44.78583" lon="1.59373">
        <ele>129.8</ele>
        <time>2024-12-25T12:55:13Z</time>
      </trkpt>
      <trkpt lat="44.78582" lon="1.59373">
        <ele>129.8</ele>
        <time>2024-12-25T12:55:14Z</time>
      </trkpt>
      <trkpt lat="44.78579" lon="1.59372">
        <ele>129.9</ele>
        <time>2024-12-25T12:55:15Z</time>
      </trkpt>
      <trkpt lat="44.78578" lon="1.59372">
        <ele>130</ele>
        <time>2024-12-25T12:55:16Z</time>
      </trkpt>
      <trkpt lat="44.78577" lon="1.59372">
        <ele>130</ele>
        <time>2024-12-25T12:55:17Z</time>
      </trkpt>
      <trkpt lat="44.78575" lon="1.59372">
        <ele>130.1</ele>
        <time>2024-12-25T12:55:18Z</time>
      </trkpt>
      <trkpt lat="44.78574" lon="1.59371">
        <ele>130.1</ele>
        <time>2024-12-25T12:55:19Z</time>
      </trkpt>
      <trkpt lat="44.78573" lon="1.5937">
        <ele>130.1</ele>
        <time>2024-12-25T12:55:20Z</time>
      </trkpt>
      <trkpt lat="44.7857" lon="1.59367">
        <ele>130.2</ele>
        <time>2024-12-25T12:55:21Z</time>
      </trkpt>
      <trkpt lat="44.78569" lon="1.59367">
        <ele>130.3</ele>
        <time>2024-12-25T12:55:22Z</time>
      </trkpt>
      <trkpt lat="44.78568" lon="1.59366">
        <ele>130.3</ele>
        <time>2024-12-25T12:55:23Z</time>
      </trkpt>
      <trkpt lat="44.78567" lon="1.59365">
        <ele>130.3</ele>
        <time>2024-12-25T12:55:24Z</time>
      </trkpt>
      <trkpt lat="44.78567" lon="1.59365">
        <ele>130.4</ele>
        <time>2024-12-25T12:55:25Z</time>
      </trkpt>
      <trkpt lat="44.78565" lon="1.59365">
        <ele>130.4</ele>
        <time>2024-12-25T12:55:26Z</time>
      </trkpt>
      <trkpt lat="44.78563" lon="1.59366">
        <ele>130.5</ele>
        <time>2024-12-25T12:55:27Z</time>
      </trkpt>
      <trkpt lat="44.78562" lon="1.59367">
        <ele>130.6</ele>
        <time>2024-12-25T12:55:28Z</time>
      </trkpt>
      <trkpt lat="44.7856" lon="1.59366">
        <ele>130.6</ele>
        <time>2024-12-25T12:55:29Z</time>
      </trkpt>
      <trkpt lat="44.7856" lon="1.59365">
        <ele>130.6</ele>
        <time>2024-12-25T12:55:30Z</time>
      </trkpt>
      <trkpt lat="44.78559" lon="1.59365">
        <ele>130.7</ele>
        <time>2024-12-25T12:55:31Z</time>
      </trkpt>
      <trkpt lat="44.78558" lon="1.59364">
        <ele>130.7</ele>
        <time>2024-12-25T12:55:32Z</time>
      </trkpt>
      <trkpt lat="44.78557" lon="1.59364">
        <ele>130.7</ele>
        <time>2024-12-25T12:55:33Z</time>
      </trkpt>
      <trkpt lat="44.78556" lon="1.59364">
        <ele>130.8</ele>
        <time>2024-12-25T12:55:34Z</time>
      </trkpt>
      <trkpt lat="44.78555" lon="1.59363">
        <ele>130.8</ele>
        <time>2024-12-25T12:55:35Z</time>
      </trkpt>
      <trkpt lat="44.78554" lon="1.59363">
        <ele>130.8</ele>
        <time>2024-12-25T12:55:36Z</time>
      </trkpt>
      <trkpt lat="44.78553" lon="1.59362">
        <ele>130.9</ele>
        <time>2024-12-25T12:55:37Z</time>
      </trkpt>
      <trkpt lat="44.78552" lon="1.59362">
        <ele>130.9</ele>
        <time>2024-12-25T12:55:38Z</time>
      </trkpt>
      <trkpt lat="44.78551" lon="1.59362">
        <ele>130.9</ele>
        <time>2024-12-25T12:55:39Z</time>
      </trkpt>
      <trkpt lat="44.78549" lon="1.59362">
        <ele>131</ele>
        <time>2024-12-25T12:55:40Z</time>
      </trkpt>
      <trkpt lat="44.78548" lon="1.59361">
        <ele>131</ele>
        <time>2024-12-25T12:55:41Z</time>
      </trkpt>
      <trkpt lat="44.78547" lon="1.59361">
        <ele>131.1</ele>
        <time>2024-12-25T12:55:42Z</time>
      </trkpt>
      <trkpt lat="44.78546" lon="1.59361">
        <ele>131.1</ele>
        <time>2024-12-25T12:55:43Z</time>
      </trkpt>
      <trkpt lat="44.78545" lon="1.5936">
        <ele>131.1</ele>
        <time>2024-12-25T12:55:44Z</time>
      </trkpt>
      <trkpt lat="44.78544" lon="1.5936">
        <ele>131.2</ele>
        <time>2024-12-25T12:55:45Z</time>
      </trkpt>
      <trkpt lat="44.78543" lon="1.5936">
        <ele>131.2</ele>
        <time>2024-12-25T12:55:46Z</time>
      </trkpt>
      <trkpt lat="44.78542" lon="1.5936">
        <ele>131.2</ele>
        <time>2024-12-25T12:55:47Z</time>
      </trkpt>
      <trkpt lat="44.7854" lon="1.5936">
        <ele>131.3</ele>
        <time>2024-12-25T12:55:48Z</time>
      </trkpt>
      <trkpt lat="44.78539" lon="1.59361">
        <ele>131.4</ele>
        <time>2024-12-25T12:55:49Z</time>
      </trkpt>
      <trkpt lat="44.78538" lon="1.59361">
        <ele>131.4</ele>
        <time>2024-12-25T12:55:50Z</time>
      </trkpt>
      <trkpt lat="44.78536" lon="1.59362">
        <ele>131.4</ele>
        <time>2024-12-25T12:55:51Z</time>
      </trkpt>
      <trkpt lat="44.78534" lon="1.59363">
        <ele>131.5</ele>
        <time>2024-12-25T12:55:52Z</time>
      </trkpt>
      <trkpt lat="44.78534" lon="1.59363">
        <ele>131.5</ele>
        <time>2024-12-25T12:55:53Z</time>
      </trkpt>
      <trkpt lat="44.78533" lon="1.59363">
        <ele>131.6</ele>
        <time>2024-12-25T12:55:54Z</time>
      </trkpt>
      <trkpt lat="44.78531" lon="1.59364">
        <ele>131.6</ele>
        <time>2024-12-25T12:55:55Z</time>
      </trkpt>
      <trkpt lat="44.7853" lon="1.59364">
        <ele>131.7</ele>
        <time>2024-12-25T12:55:56Z</time>
      </trkpt>
      <trkpt lat="44.78529" lon="1.59364">
        <ele>131.7</ele>
        <time>2024-12-25T12:55:57Z</time>
      </trkpt>
      <trkpt lat="44.78527" lon="1.59365">
        <ele>131.8</ele>
        <time>2024-12-25T12:55:58Z</time>
      </trkpt>
      <trkpt lat="44.78526" lon="1.59365">
        <ele>131.8</ele>
        <time>2024-12-25T12:55:59Z</time>
      </trkpt>
      <trkpt lat="44.78525" lon="1.59366">
        <ele>131.8</ele>
        <time>2024-12-25T12:56:00Z</time>
      </trkpt>
      <trkpt lat="44.78524" lon="1.59366">
        <ele>131.9</ele>
        <time>2024-12-25T12:56:01Z</time>
      </trkpt>
      <trkpt lat="44.78523" lon="1.59367">
        <ele>131.9</ele>
        <time>2024-12-25T12:56:02Z</time>
      </trkpt>
      <trkpt lat="44.78521" lon="1.59367">
        <ele>132</ele>
        <time>2024-12-25T12:56:03Z</time>
      </trkpt>
      <trkpt lat="44.7852" lon="1.59368">
        <ele>132</ele>
        <time>2024-12-25T12:56:04Z</time>
      </trkpt>
      <trkpt lat="44.7852" lon="1.59368">
        <ele>132</ele>
        <time>2024-12-25T12:56:05Z</time>
      </trkpt>
      <trkpt lat="44.78519" lon="1.59369">
        <ele>132.1</ele>
        <time>2024-12-25T12:56:06Z</time>
      </trkpt>
      <trkpt lat="44.78518" lon="1.59369">
        <ele>132.1</ele>
        <time>2024-12-25T12:56:07Z</time>
      </trkpt>
      <trkpt lat="44.78517" lon="1.5937">
        <ele>132.1</ele>
        <time>2024-12-25T12:56:08Z</time>
      </trkpt>
      <trkpt lat="44.78516" lon="1.5937">
        <ele>132.2</ele>
        <time>2024-12-25T12:56:09Z</time>
      </trkpt>
      <trkpt lat="44.78515" lon="1.59371">
        <ele>132.2</ele>
        <time>2024-12-25T12:56:10Z</time>
      </trkpt>
      <trkpt lat="44.78514" lon="1.59372">
        <ele>132.2</ele>
        <time>2024-12-25T12:56:11Z</time>
      </trkpt>
      <trkpt lat="44.78513" lon="1.59372">
        <ele>132.3</ele>
        <time>2024-12-25T12:56:12Z</time>
      </trkpt>
      <trkpt lat="44.78511" lon="1.59373">
        <ele>132.3</ele>
        <time>2024-12-25T12:56:13Z</time>
      </trkpt>
      <trkpt lat="44.78511" lon="1.59374">
        <ele>132.4</ele>
        <time>2024-12-25T12:56:14Z</time>
      </trkpt>
      <trkpt lat="44.7851" lon="1.59375">
        <ele>132.4</ele>
        <time>2024-12-25T12:56:15Z</time>
      </trkpt>
      <trkpt lat="44.78509" lon="1.59375">
        <ele>132.4</ele>
        <time>2024-12-25T12:56:16Z</time>
      </trkpt>
      <trkpt lat="44.78508" lon="1.59376">
        <ele>132.5</ele>
        <time>2024-12-25T12:56:17Z</time>
      </trkpt>
      <trkpt lat="44.78507" lon="1.59378">
        <ele>132.5</ele>
        <time>2024-12-25T12:56:18Z</time>
      </trkpt>
      <trkpt lat="44.78506" lon="1.59379">
        <ele>132.5</ele>
        <time>2024-12-25T12:56:19Z</time>
      </trkpt>
      <trkpt lat="44.78505" lon="1.59379">
        <ele>132.6</ele>
        <time>2024-12-25T12:56:20Z</time>
      </trkpt>
      <trkpt lat="44.78503" lon="1.59381">
        <ele>132.6</ele>
        <time>2024-12-25T12:56:22Z</time>
      </trkpt>
      <trkpt lat="44.785" lon="1.5938">
        <ele>132.7</ele>
        <time>2024-12-25T12:56:23Z</time>
      </trkpt>
      <trkpt lat="44.78499" lon="1.5938">
        <ele>132.8</ele>
        <time>2024-12-25T12:56:24Z</time>
      </trkpt>
      <trkpt lat="44.78497" lon="1.5938">
        <ele>132.8</ele>
        <time>2024-12-25T12:56:25Z</time>
      </trkpt>
      <trkpt lat="44.78496" lon="1.5938">
        <ele>132.8</ele>
        <time>2024-12-25T12:56:26Z</time>
      </trkpt>
      <trkpt lat="44.78495" lon="1.59381">
        <ele>132.8</ele>
        <time>2024-12-25T12:56:27Z</time>
      </trkpt>
      <trkpt lat="44.78493" lon="1.59383">
        <ele>132.9</ele>
        <time>2024-12-25T12:56:29Z</time>
      </trkpt>
      <trkpt lat="44.78493" lon="1.59384">
        <ele>132.9</ele>
        <time>2024-12-25T12:56:30Z</time>
      </trkpt>
      <trkpt lat="44.78492" lon="1.59384">
        <ele>132.9</ele>
        <time>2024-12-25T12:56:31Z</time>
      </trkpt>
      <trkpt lat="44.78491" lon="1.59385">
        <ele>133</ele>
        <time>2024-12-25T12:56:32Z</time>
      </trkpt>
      <trkpt lat="44.7849" lon="1.59386">
        <ele>133</ele>
        <time>2024-12-25T12:56:33Z</time>
      </trkpt>
      <trkpt lat="44.78489" lon="1.59387">
        <ele>133</ele>
        <time>2024-12-25T12:56:34Z</time>
      </trkpt>
      <trkpt lat="44.78488" lon="1.59388">
        <ele>133</ele>
        <time>2024-12-25T12:56:35Z</time>
      </trkpt>
      <trkpt lat="44.78488" lon="1.59389">
        <ele>133.1</ele>
        <time>2024-12-25T12:56:36Z</time>
      </trkpt>
      <trkpt lat="44.78487" lon="1.5939">
        <ele>133.1</ele>
        <time>2024-12-25T12:56:37Z</time>
      </trkpt>
      <trkpt lat="44.78486" lon="1.59391">
        <ele>133.1</ele>
        <time>2024-12-25T12:56:38Z</time>
      </trkpt>
      <trkpt lat="44.78485" lon="1.59392">
        <ele>133.1</ele>
        <time>2024-12-25T12:56:39Z</time>
      </trkpt>
      <trkpt lat="44.78484" lon="1.59393">
        <ele>133.2</ele>
        <time>2024-12-25T12:56:40Z</time>
      </trkpt>
      <trkpt lat="44.78483" lon="1.59393">
        <ele>133.2</ele>
        <time>2024-12-25T12:56:41Z</time>
      </trkpt>
      <trkpt lat="44.78482" lon="1.59393">
        <ele>133.2</ele>
        <time>2024-12-25T12:56:42Z</time>
      </trkpt>
      <trkpt lat="44.78481" lon="1.59393">
        <ele>133.2</ele>
        <time>2024-12-25T12:56:44Z</time>
      </trkpt>
      <trkpt lat="44.7848" lon="1.59393">
        <ele>133.3</ele>
        <time>2024-12-25T12:56:45Z</time>
      </trkpt>
      <trkpt lat="44.78479" lon="1.59393">
        <ele>133.3</ele>
        <time>2024-12-25T12:56:46Z</time>
      </trkpt>
      <trkpt lat="44.78478" lon="1.59393">
        <ele>133.3</ele>
        <time>2024-12-25T12:56:47Z</time>
      </trkpt>
      <trkpt lat="44.78477" lon="1.59393">
        <ele>133.3</ele>
        <time>2024-12-25T12:56:49Z</time>
      </trkpt>
      <trkpt lat="44.78476" lon="1.59393">
        <ele>133.3</ele>
        <time>2024-12-25T12:56:50Z</time>
      </trkpt>
      <trkpt lat="44.78475" lon="1.59393">
        <ele>133.3</ele>
        <time>2024-12-25T12:56:51Z</time>
      </trkpt>
      <trkpt lat="44.78474" lon="1.59393">
        <ele>133.4</ele>
        <time>2024-12-25T12:56:52Z</time>
      </trkpt>
      <trkpt lat="44.78473" lon="1.59393">
        <ele>133.4</ele>
        <time>2024-12-25T12:56:53Z</time>
      </trkpt>
      <trkpt lat="44.78473" lon="1.59393">
        <ele>133.4</ele>
        <time>2024-12-25T12:56:54Z</time>
      </trkpt>
      <trkpt lat="44.78472" lon="1.59393">
        <ele>133.4</ele>
        <time>2024-12-25T12:56:55Z</time>
      </trkpt>
      <trkpt lat="44.78471" lon="1.59393">
        <ele>133.4</ele>
        <time>2024-12-25T12:56:56Z</time>
      </trkpt>
      <trkpt lat="44.7847" lon="1.59393">
        <ele>133.4</ele>
        <time>2024-12-25T12:56:57Z</time>
      </trkpt>
      <trkpt lat="44.78468" lon="1.59394">
        <ele>133.5</ele>
        <time>2024-12-25T12:56:58Z</time>
      </trkpt>
      <trkpt lat="44.78468" lon="1.59394">
        <ele>133.5</ele>
        <time>2024-12-25T12:56:59Z</time>
      </trkpt>
      <trkpt lat="44.78467" lon="1.59394">
        <ele>133.5</ele>
        <time>2024-12-25T12:57:00Z</time>
      </trkpt>
      <trkpt lat="44.78466" lon="1.59394">
        <ele>133.5</ele>
        <time>2024-12-25T12:57:01Z</time>
      </trkpt>
      <trkpt lat="44.78465" lon="1.59395">
        <ele>133.5</ele>
        <time>2024-12-25T12:57:02Z</time>
      </trkpt>
      <trkpt lat="44.78464" lon="1.59396">
        <ele>133.5</ele>
        <time>2024-12-25T12:57:03Z</time>
      </trkpt>
      <trkpt lat="44.78463" lon="1.59396">
        <ele>133.5</ele>
        <time>2024-12-25T12:57:04Z</time>
      </trkpt>
      <trkpt lat="44.78463" lon="1.59397">
        <ele>133.5</ele>
        <time>2024-12-25T12:57:05Z</time>
      </trkpt>
      <trkpt lat="44.78462" lon="1.59398">
        <ele>133.6</ele>
        <time>2024-12-25T12:57:06Z</time>
      </trkpt>
      <trkpt lat="44.78461" lon="1.59398">
        <ele>133.6</ele>
        <time>2024-12-25T12:57:07Z</time>
      </trkpt>
      <trkpt lat="44.78461" lon="1.59399">
        <ele>133.6</ele>
        <time>2024-12-25T12:57:08Z</time>
      </trkpt>
      <trkpt lat="44.78459" lon="1.594">
        <ele>133.6</ele>
        <time>2024-12-25T12:57:09Z</time>
      </trkpt>
      <trkpt lat="44.78459" lon="1.59401">
        <ele>133.6</ele>
        <time>2024-12-25T12:57:10Z</time>
      </trkpt>
      <trkpt lat="44.78458" lon="1.59402">
        <ele>133.6</ele>
        <time>2024-12-25T12:57:11Z</time>
      </trkpt>
      <trkpt lat="44.78457" lon="1.59403">
        <ele>133.7</ele>
        <time>2024-12-25T12:57:12Z</time>
      </trkpt>
      <trkpt lat="44.78455" lon="1.59405">
        <ele>133.7</ele>
        <time>2024-12-25T12:57:13Z</time>
      </trkpt>
      <trkpt lat="44.78455" lon="1.59405">
        <ele>133.7</ele>
        <time>2024-12-25T12:57:14Z</time>
      </trkpt>
      <trkpt lat="44.78454" lon="1.59406">
        <ele>133.7</ele>
        <time>2024-12-25T12:57:15Z</time>
      </trkpt>
      <trkpt lat="44.78453" lon="1.59407">
        <ele>133.7</ele>
        <time>2024-12-25T12:57:16Z</time>
      </trkpt>
      <trkpt lat="44.78452" lon="1.59408">
        <ele>133.7</ele>
        <time>2024-12-25T12:57:17Z</time>
      </trkpt>
      <trkpt lat="44.7845" lon="1.59408">
        <ele>133.8</ele>
        <time>2024-12-25T12:57:18Z</time>
      </trkpt>
      <trkpt lat="44.78449" lon="1.59409">
        <ele>133.8</ele>
        <time>2024-12-25T12:57:20Z</time>
      </trkpt>
      <trkpt lat="44.78448" lon="1.5941">
        <ele>133.8</ele>
        <time>2024-12-25T12:57:21Z</time>
      </trkpt>
      <trkpt lat="44.78448" lon="1.59411">
        <ele>133.8</ele>
        <time>2024-12-25T12:57:22Z</time>
      </trkpt>
      <trkpt lat="44.78445" lon="1.59412">
        <ele>133.9</ele>
        <time>2024-12-25T12:57:23Z</time>
      </trkpt>
      <trkpt lat="44.78444" lon="1.59413">
        <ele>133.9</ele>
        <time>2024-12-25T12:57:25Z</time>
      </trkpt>
      <trkpt lat="44.78442" lon="1.59414">
        <ele>134</ele>
        <time>2024-12-25T12:57:26Z</time>
      </trkpt>
      <trkpt lat="44.7844" lon="1.59415">
        <ele>134</ele>
        <time>2024-12-25T12:57:27Z</time>
      </trkpt>
      <trkpt lat="44.78438" lon="1.59417">
        <ele>134.1</ele>
        <time>2024-12-25T12:57:28Z</time>
      </trkpt>
      <trkpt lat="44.7843" lon="1.59423">
        <ele>134.3</ele>
        <time>2024-12-25T12:57:30Z</time>
      </trkpt>
      <trkpt lat="44.78427" lon="1.59426">
        <ele>134.4</ele>
        <time>2024-12-25T12:57:31Z</time>
      </trkpt>
      <trkpt lat="44.78424" lon="1.59428">
        <ele>134.5</ele>
        <time>2024-12-25T12:57:32Z</time>
      </trkpt>
      <trkpt lat="44.78424" lon="1.59429">
        <ele>134.5</ele>
        <time>2024-12-25T12:57:33Z</time>
      </trkpt>
      <trkpt lat="44.78422" lon="1.59431">
        <ele>134.5</ele>
        <time>2024-12-25T12:57:34Z</time>
      </trkpt>
      <trkpt lat="44.78421" lon="1.59432">
        <ele>134.6</ele>
        <time>2024-12-25T12:57:35Z</time>
      </trkpt>
      <trkpt lat="44.7842" lon="1.59433">
        <ele>134.6</ele>
        <time>2024-12-25T12:57:36Z</time>
      </trkpt>
      <trkpt lat="44.78419" lon="1.59435">
        <ele>134.6</ele>
        <time>2024-12-25T12:57:37Z</time>
      </trkpt>
      <trkpt lat="44.78418" lon="1.59435">
        <ele>134.6</ele>
        <time>2024-12-25T12:57:38Z</time>
      </trkpt>
      <trkpt lat="44.78417" lon="1.59437">
        <ele>134.7</ele>
        <time>2024-12-25T12:57:39Z</time>
      </trkpt>
      <trkpt lat="44.78415" lon="1.59439">
        <ele>134.7</ele>
        <time>2024-12-25T12:57:40Z</time>
      </trkpt>
      <trkpt lat="44.78415" lon="1.5944">
        <ele>134.7</ele>
        <time>2024-12-25T12:57:41Z</time>
      </trkpt>
      <trkpt lat="44.78414" lon="1.59441">
        <ele>134.7</ele>
        <time>2024-12-25T12:57:42Z</time>
      </trkpt>
      <trkpt lat="44.78413" lon="1.59443">
        <ele>134.8</ele>
        <time>2024-12-25T12:57:43Z</time>
      </trkpt>
      <trkpt lat="44.78412" lon="1.59443">
        <ele>134.8</ele>
        <time>2024-12-25T12:57:44Z</time>
      </trkpt>
      <trkpt lat="44.78412" lon="1.59445">
        <ele>134.8</ele>
        <time>2024-12-25T12:57:45Z</time>
      </trkpt>
      <trkpt lat="44.78411" lon="1.59446">
        <ele>134.8</ele>
        <time>2024-12-25T12:57:46Z</time>
      </trkpt>
      <trkpt lat="44.7841" lon="1.59447">
        <ele>134.8</ele>
        <time>2024-12-25T12:57:47Z</time>
      </trkpt>
      <trkpt lat="44.7841" lon="1.59449">
        <ele>134.9</ele>
        <time>2024-12-25T12:57:48Z</time>
      </trkpt>
      <trkpt lat="44.78408" lon="1.59451">
        <ele>134.9</ele>
        <time>2024-12-25T12:57:49Z</time>
      </trkpt>
      <trkpt lat="44.78408" lon="1.59452">
        <ele>134.9</ele>
        <time>2024-12-25T12:57:50Z</time>
      </trkpt>
      <trkpt lat="44.78407" lon="1.59453">
        <ele>134.9</ele>
        <time>2024-12-25T12:57:51Z</time>
      </trkpt>
      <trkpt lat="44.78406" lon="1.59455">
        <ele>135</ele>
        <time>2024-12-25T12:57:52Z</time>
      </trkpt>
      <trkpt lat="44.78405" lon="1.59456">
        <ele>135</ele>
        <time>2024-12-25T12:57:53Z</time>
      </trkpt>
      <trkpt lat="44.78403" lon="1.59461">
        <ele>135.1</ele>
        <time>2024-12-25T12:57:55Z</time>
      </trkpt>
      <trkpt lat="44.78402" lon="1.59462">
        <ele>135.1</ele>
        <time>2024-12-25T12:57:57Z</time>
      </trkpt>
      <trkpt lat="44.78401" lon="1.59463">
        <ele>135.1</ele>
        <time>2024-12-25T12:57:58Z</time>
      </trkpt>
      <trkpt lat="44.784" lon="1.59465">
        <ele>135.1</ele>
        <time>2024-12-25T12:57:59Z</time>
      </trkpt>
      <trkpt lat="44.78399" lon="1.59466">
        <ele>135.2</ele>
        <time>2024-12-25T12:58:00Z</time>
      </trkpt>
      <trkpt lat="44.78398" lon="1.59469">
        <ele>135.2</ele>
        <time>2024-12-25T12:58:01Z</time>
      </trkpt>
      <trkpt lat="44.78397" lon="1.5947">
        <ele>135.2</ele>
        <time>2024-12-25T12:58:02Z</time>
      </trkpt>
      <trkpt lat="44.78397" lon="1.59471">
        <ele>135.2</ele>
        <time>2024-12-25T12:58:03Z</time>
      </trkpt>
      <trkpt lat="44.78396" lon="1.59472">
        <ele>135.2</ele>
        <time>2024-12-25T12:58:04Z</time>
      </trkpt>
      <trkpt lat="44.78395" lon="1.59474">
        <ele>135.2</ele>
        <time>2024-12-25T12:58:05Z</time>
      </trkpt>
      <trkpt lat="44.78394" lon="1.59476">
        <ele>135.3</ele>
        <time>2024-12-25T12:58:06Z</time>
      </trkpt>
      <trkpt lat="44.78394" lon="1.59478">
        <ele>135.3</ele>
        <time>2024-12-25T12:58:07Z</time>
      </trkpt>
      <trkpt lat="44.78392" lon="1.5948">
        <ele>135.3</ele>
        <time>2024-12-25T12:58:08Z</time>
      </trkpt>
      <trkpt lat="44.78392" lon="1.59481">
        <ele>135.3</ele>
        <time>2024-12-25T12:58:09Z</time>
      </trkpt>
      <trkpt lat="44.78391" lon="1.59482">
        <ele>135.3</ele>
        <time>2024-12-25T12:58:10Z</time>
      </trkpt>
      <trkpt lat="44.7839" lon="1.59483">
        <ele>135.4</ele>
        <time>2024-12-25T12:58:11Z</time>
      </trkpt>
      <trkpt lat="44.7839" lon="1.59485">
        <ele>135.4</ele>
        <time>2024-12-25T12:58:12Z</time>
      </trkpt>
      <trkpt lat="44.78389" lon="1.59486">
        <ele>135.4</ele>
        <time>2024-12-25T12:58:13Z</time>
      </trkpt>
      <trkpt lat="44.78389" lon="1.59487">
        <ele>135.4</ele>
        <time>2024-12-25T12:58:14Z</time>
      </trkpt>
      <trkpt lat="44.78389" lon="1.59489">
        <ele>135.4</ele>
        <time>2024-12-25T12:58:15Z</time>
      </trkpt>
      <trkpt lat="44.78388" lon="1.59491">
        <ele>135.5</ele>
        <time>2024-12-25T12:58:16Z</time>
      </trkpt>
      <trkpt lat="44.78388" lon="1.59494">
        <ele>135.5</ele>
        <time>2024-12-25T12:58:17Z</time>
      </trkpt>
      <trkpt lat="44.78389" lon="1.59495">
        <ele>135.5</ele>
        <time>2024-12-25T12:58:18Z</time>
      </trkpt>
      <trkpt lat="44.78389" lon="1.59497">
        <ele>135.6</ele>
        <time>2024-12-25T12:58:19Z</time>
      </trkpt>
      <trkpt lat="44.78389" lon="1.59498">
        <ele>135.6</ele>
        <time>2024-12-25T12:58:20Z</time>
      </trkpt>
      <trkpt lat="44.78389" lon="1.595">
        <ele>135.6</ele>
        <time>2024-12-25T12:58:21Z</time>
      </trkpt>
      <trkpt lat="44.78389" lon="1.59501">
        <ele>135.6</ele>
        <time>2024-12-25T12:58:22Z</time>
      </trkpt>
      <trkpt lat="44.78389" lon="1.59503">
        <ele>135.7</ele>
        <time>2024-12-25T12:58:23Z</time>
      </trkpt>
      <trkpt lat="44.7839" lon="1.59504">
        <ele>135.7</ele>
        <time>2024-12-25T12:58:24Z</time>
      </trkpt>
      <trkpt lat="44.7839" lon="1.59506">
        <ele>135.7</ele>
        <time>2024-12-25T12:58:25Z</time>
      </trkpt>
      <trkpt lat="44.78389" lon="1.59507">
        <ele>135.7</ele>
        <time>2024-12-25T12:58:26Z</time>
      </trkpt>
      <trkpt lat="44.78389" lon="1.59508">
        <ele>135.8</ele>
        <time>2024-12-25T12:58:27Z</time>
      </trkpt>
      <trkpt lat="44.78389" lon="1.5951">
        <ele>135.8</ele>
        <time>2024-12-25T12:58:28Z</time>
      </trkpt>
      <trkpt lat="44.78388" lon="1.59513">
        <ele>135.8</ele>
        <time>2024-12-25T12:58:30Z</time>
      </trkpt>
      <trkpt lat="44.78388" lon="1.59514">
        <ele>135.9</ele>
        <time>2024-12-25T12:58:31Z</time>
      </trkpt>
      <trkpt lat="44.78388" lon="1.59515">
        <ele>135.9</ele>
        <time>2024-12-25T12:58:32Z</time>
      </trkpt>
      <trkpt lat="44.78387" lon="1.59516">
        <ele>135.9</ele>
        <time>2024-12-25T12:58:33Z</time>
      </trkpt>
      <trkpt lat="44.78386" lon="1.59516">
        <ele>135.9</ele>
        <time>2024-12-25T12:58:34Z</time>
      </trkpt>
      <trkpt lat="44.78385" lon="1.59516">
        <ele>136</ele>
        <time>2024-12-25T12:58:35Z</time>
      </trkpt>
      <trkpt lat="44.78384" lon="1.59518">
        <ele>136</ele>
        <time>2024-12-25T12:58:36Z</time>
      </trkpt>
      <trkpt lat="44.78384" lon="1.5952">
        <ele>136</ele>
        <time>2024-12-25T12:58:37Z</time>
      </trkpt>
      <trkpt lat="44.78383" lon="1.59522">
        <ele>136</ele>
        <time>2024-12-25T12:58:38Z</time>
      </trkpt>
      <trkpt lat="44.78383" lon="1.59523">
        <ele>136.1</ele>
        <time>2024-12-25T12:58:39Z</time>
      </trkpt>
      <trkpt lat="44.78383" lon="1.59529">
        <ele>136.1</ele>
        <time>2024-12-25T12:58:40Z</time>
      </trkpt>
      <trkpt lat="44.78381" lon="1.59534">
        <ele>136.2</ele>
        <time>2024-12-25T12:58:41Z</time>
      </trkpt>
      <trkpt lat="44.78381" lon="1.59535">
        <ele>136.2</ele>
        <time>2024-12-25T12:58:42Z</time>
      </trkpt>
      <trkpt lat="44.78379" lon="1.59539">
        <ele>136.3</ele>
        <time>2024-12-25T12:58:43Z</time>
      </trkpt>
      <trkpt lat="44.78378" lon="1.59541">
        <ele>136.3</ele>
        <time>2024-12-25T12:58:44Z</time>
      </trkpt>
      <trkpt lat="44.78377" lon="1.59546">
        <ele>136.4</ele>
        <time>2024-12-25T12:58:45Z</time>
      </trkpt>
      <trkpt lat="44.78376" lon="1.5955">
        <ele>136.4</ele>
        <time>2024-12-25T12:58:46Z</time>
      </trkpt>
      <trkpt lat="44.78375" lon="1.59554">
        <ele>136.5</ele>
        <time>2024-12-25T12:58:47Z</time>
      </trkpt>
      <trkpt lat="44.78375" lon="1.59555">
        <ele>136.5</ele>
        <time>2024-12-25T12:58:48Z</time>
      </trkpt>
      <trkpt lat="44.78374" lon="1.59557">
        <ele>136.5</ele>
        <time>2024-12-25T12:58:49Z</time>
      </trkpt>
      <trkpt lat="44.78374" lon="1.59558">
        <ele>136.5</ele>
        <time>2024-12-25T12:58:50Z</time>
      </trkpt>
      <trkpt lat="44.78373" lon="1.5956">
        <ele>136.6</ele>
        <time>2024-12-25T12:58:51Z</time>
      </trkpt>
      <trkpt lat="44.78372" lon="1.59563">
        <ele>136.6</ele>
        <time>2024-12-25T12:58:52Z</time>
      </trkpt>
      <trkpt lat="44.78372" lon="1.59564">
        <ele>136.6</ele>
        <time>2024-12-25T12:58:53Z</time>
      </trkpt>
      <trkpt lat="44.78372" lon="1.59565">
        <ele>136.7</ele>
        <time>2024-12-25T12:58:54Z</time>
      </trkpt>
      <trkpt lat="44.78371" lon="1.59566">
        <ele>136.7</ele>
        <time>2024-12-25T12:58:55Z</time>
      </trkpt>
      <trkpt lat="44.78371" lon="1.59567">
        <ele>136.7</ele>
        <time>2024-12-25T12:58:56Z</time>
      </trkpt>
      <trkpt lat="44.7837" lon="1.59569">
        <ele>136.8</ele>
        <time>2024-12-25T12:58:57Z</time>
      </trkpt>
      <trkpt lat="44.7837" lon="1.59572">
        <ele>136.8</ele>
        <time>2024-12-25T12:58:58Z</time>
      </trkpt>
      <trkpt lat="44.78369" lon="1.59573">
        <ele>136.8</ele>
        <time>2024-12-25T12:58:59Z</time>
      </trkpt>
      <trkpt lat="44.78369" lon="1.59574">
        <ele>136.8</ele>
        <time>2024-12-25T12:59:00Z</time>
      </trkpt>
      <trkpt lat="44.78369" lon="1.59575">
        <ele>136.9</ele>
        <time>2024-12-25T12:59:01Z</time>
      </trkpt>
      <trkpt lat="44.78368" lon="1.59577">
        <ele>136.9</ele>
        <time>2024-12-25T12:59:02Z</time>
      </trkpt>
      <trkpt lat="44.78368" lon="1.59578">
        <ele>136.9</ele>
        <time>2024-12-25T12:59:03Z</time>
      </trkpt>
      <trkpt lat="44.78367" lon="1.5958">
        <ele>137</ele>
        <time>2024-12-25T12:59:04Z</time>
      </trkpt>
      <trkpt lat="44.78367" lon="1.59581">
        <ele>137</ele>
        <time>2024-12-25T12:59:05Z</time>
      </trkpt>
      <trkpt lat="44.78367" lon="1.59583">
        <ele>137</ele>
        <time>2024-12-25T12:59:06Z</time>
      </trkpt>
      <trkpt lat="44.78366" lon="1.59584">
        <ele>137.1</ele>
        <time>2024-12-25T12:59:07Z</time>
      </trkpt>
      <trkpt lat="44.78366" lon="1.59586">
        <ele>137.1</ele>
        <time>2024-12-25T12:59:08Z</time>
      </trkpt>
      <trkpt lat="44.78365" lon="1.59587">
        <ele>137.1</ele>
        <time>2024-12-25T12:59:09Z</time>
      </trkpt>
      <trkpt lat="44.78364" lon="1.59588">
        <ele>137.2</ele>
        <time>2024-12-25T12:59:10Z</time>
      </trkpt>
      <trkpt lat="44.78363" lon="1.59589">
        <ele>137.2</ele>
        <time>2024-12-25T12:59:11Z</time>
      </trkpt>
      <trkpt lat="44.78362" lon="1.59589">
        <ele>137.2</ele>
        <time>2024-12-25T12:59:12Z</time>
      </trkpt>
      <trkpt lat="44.78361" lon="1.59588">
        <ele>137.2</ele>
        <time>2024-12-25T12:59:13Z</time>
      </trkpt>
      <trkpt lat="44.78361" lon="1.59586">
        <ele>137.3</ele>
        <time>2024-12-25T12:59:14Z</time>
      </trkpt>
      <trkpt lat="44.78361" lon="1.59585">
        <ele>137.3</ele>
        <time>2024-12-25T12:59:15Z</time>
      </trkpt>
      <trkpt lat="44.78361" lon="1.59583">
        <ele>137.3</ele>
        <time>2024-12-25T12:59:16Z</time>
      </trkpt>
      <trkpt lat="44.78361" lon="1.59582">
        <ele>137.3</ele>
        <time>2024-12-25T12:59:17Z</time>
      </trkpt>
      <trkpt lat="44.7836" lon="1.59581">
        <ele>137.4</ele>
        <time>2024-12-25T12:59:18Z</time>
      </trkpt>
      <trkpt lat="44.78359" lon="1.5958">
        <ele>137.4</ele>
        <time>2024-12-25T12:59:19Z</time>
      </trkpt>
      <trkpt lat="44.78358" lon="1.5958">
        <ele>137.4</ele>
        <time>2024-12-25T12:59:20Z</time>
      </trkpt>
      <trkpt lat="44.78358" lon="1.59579">
        <ele>137.4</ele>
        <time>2024-12-25T12:59:21Z</time>
      </trkpt>
      <trkpt lat="44.78358" lon="1.59579">
        <ele>137.5</ele>
        <time>2024-12-25T12:59:22Z</time>
      </trkpt>
      <trkpt lat="44.78358" lon="1.5958">
        <ele>137.5</ele>
        <time>2024-12-25T12:59:23Z</time>
      </trkpt>
      <trkpt lat="44.78359" lon="1.5958">
        <ele>137.5</ele>
        <time>2024-12-25T12:59:24Z</time>
      </trkpt>
      <trkpt lat="44.78359" lon="1.5958">
        <ele>137.5</ele>
        <time>2024-12-25T12:59:25Z</time>
      </trkpt>
      <trkpt lat="44.78359" lon="1.59581">
        <ele>137.5</ele>
        <time>2024-12-25T12:59:26Z</time>
      </trkpt>
      <trkpt lat="44.7836" lon="1.59581">
        <ele>137.5</ele>
        <time>2024-12-25T12:59:27Z</time>
      </trkpt>
      <trkpt lat="44.7836" lon="1.59581">
        <ele>137.5</ele>
        <time>2024-12-25T12:59:28Z</time>
      </trkpt>
      <trkpt lat="44.7836" lon="1.59581">
        <ele>137.5</ele>
        <time>2024-12-25T12:59:29Z</time>
      </trkpt>
      <trkpt lat="44.7836" lon="1.59581">
        <ele>137.5</ele>
        <time>2024-12-25T12:59:30Z</time>
      </trkpt>
      <trkpt lat="44.7836" lon="1.59582">
        <ele>137.5</ele>
        <time>2024-12-25T12:59:31Z</time>
      </trkpt>
      <trkpt lat="44.7836" lon="1.59582">
        <ele>137.5</ele>
        <time>2024-12-25T12:59:32Z</time>
      </trkpt>
      <trkpt lat="44.78361" lon="1.59583">
        <ele>137.6</ele>
        <time>2024-12-25T12:59:33Z</time>
      </trkpt>
      <trkpt lat="44.78362" lon="1.59586">
        <ele>137.6</ele>
        <time>2024-12-25T12:59:34Z</time>
      </trkpt>
      <trkpt lat="44.78362" lon="1.59588">
        <ele>137.7</ele>
        <time>2024-12-25T12:59:35Z</time>
      </trkpt>
      <trkpt lat="44.78362" lon="1.5959">
        <ele>137.7</ele>
        <time>2024-12-25T12:59:36Z</time>
      </trkpt>
      <trkpt lat="44.78362" lon="1.59592">
        <ele>137.7</ele>
        <time>2024-12-25T12:59:37Z</time>
      </trkpt>
      <trkpt lat="44.78362" lon="1.59594">
        <ele>137.8</ele>
        <time>2024-12-25T12:59:38Z</time>
      </trkpt>
      <trkpt lat="44.78362" lon="1.59596">
        <ele>137.8</ele>
        <time>2024-12-25T12:59:39Z</time>
      </trkpt>
      <trkpt lat="44.78362" lon="1.59598">
        <ele>137.8</ele>
        <time>2024-12-25T12:59:40Z</time>
      </trkpt>
      <trkpt lat="44.78361" lon="1.596">
        <ele>137.9</ele>
        <time>2024-12-25T12:59:41Z</time>
      </trkpt>
      <trkpt lat="44.78361" lon="1.59602">
        <ele>137.9</ele>
        <time>2024-12-25T12:59:42Z</time>
      </trkpt>
      <trkpt lat="44.7836" lon="1.59604">
        <ele>138</ele>
        <time>2024-12-25T12:59:43Z</time>
      </trkpt>
      <trkpt lat="44.7836" lon="1.59607">
        <ele>138</ele>
        <time>2024-12-25T12:59:44Z</time>
      </trkpt>
      <trkpt lat="44.78359" lon="1.59608">
        <ele>138</ele>
        <time>2024-12-25T12:59:45Z</time>
      </trkpt>
      <trkpt lat="44.78359" lon="1.59609">
        <ele>138.1</ele>
        <time>2024-12-25T12:59:46Z</time>
      </trkpt>
      <trkpt lat="44.78359" lon="1.59611">
        <ele>138.1</ele>
        <time>2024-12-25T12:59:47Z</time>
      </trkpt>
      <trkpt lat="44.78358" lon="1.59613">
        <ele>138.2</ele>
        <time>2024-12-25T12:59:48Z</time>
      </trkpt>
      <trkpt lat="44.78358" lon="1.59616">
        <ele>138.2</ele>
        <time>2024-12-25T12:59:49Z</time>
      </trkpt>
      <trkpt lat="44.78358" lon="1.59618">
        <ele>138.2</ele>
        <time>2024-12-25T12:59:50Z</time>
      </trkpt>
      <trkpt lat="44.78358" lon="1.5962">
        <ele>138.3</ele>
        <time>2024-12-25T12:59:51Z</time>
      </trkpt>
      <trkpt lat="44.78357" lon="1.59622">
        <ele>138.3</ele>
        <time>2024-12-25T12:59:52Z</time>
      </trkpt>
      <trkpt lat="44.78357" lon="1.59623">
        <ele>138.3</ele>
        <time>2024-12-25T12:59:53Z</time>
      </trkpt>
      <trkpt lat="44.78357" lon="1.59626">
        <ele>138.4</ele>
        <time>2024-12-25T12:59:54Z</time>
      </trkpt>
      <trkpt lat="44.78357" lon="1.59629">
        <ele>138.4</ele>
        <time>2024-12-25T12:59:55Z</time>
      </trkpt>
      <trkpt lat="44.78357" lon="1.5963">
        <ele>138.5</ele>
        <time>2024-12-25T12:59:56Z</time>
      </trkpt>
      <trkpt lat="44.78357" lon="1.59631">
        <ele>138.5</ele>
        <time>2024-12-25T12:59:57Z</time>
      </trkpt>
      <trkpt lat="44.78356" lon="1.59634">
        <ele>138.5</ele>
        <time>2024-12-25T12:59:58Z</time>
      </trkpt>
      <trkpt lat="44.78356" lon="1.59635">
        <ele>138.6</ele>
        <time>2024-12-25T12:59:59Z</time>
      </trkpt>
      <trkpt lat="44.78356" lon="1.59636">
        <ele>138.6</ele>
        <time>2024-12-25T13:00:00Z</time>
      </trkpt>
      <trkpt lat="44.78356" lon="1.59638">
        <ele>138.6</ele>
        <time>2024-12-25T13:00:01Z</time>
      </trkpt>
      <trkpt lat="44.78356" lon="1.59641">
        <ele>138.7</ele>
        <time>2024-12-25T13:00:02Z</time>
      </trkpt>
      <trkpt lat="44.78356" lon="1.59643">
        <ele>138.7</ele>
        <time>2024-12-25T13:00:03Z</time>
      </trkpt>
      <trkpt lat="44.78356" lon="1.59645">
        <ele>138.7</ele>
        <time>2024-12-25T13:00:04Z</time>
      </trkpt>
      <trkpt lat="44.78356" lon="1.59648">
        <ele>138.8</ele>
        <time>2024-12-25T13:00:05Z</time>
      </trkpt>
      <trkpt lat="44.78355" lon="1.5965">
        <ele>138.8</ele>
        <time>2024-12-25T13:00:06Z</time>
      </trkpt>
      <trkpt lat="44.78355" lon="1.59651">
        <ele>138.8</ele>
        <time>2024-12-25T13:00:07Z</time>
      </trkpt>
      <trkpt lat="44.78355" lon="1.59655">
        <ele>138.9</ele>
        <time>2024-12-25T13:00:08Z</time>
      </trkpt>
      <trkpt lat="44.78355" lon="1.59657">
        <ele>138.9</ele>
        <time>2024-12-25T13:00:09Z</time>
      </trkpt>
      <trkpt lat="44.78355" lon="1.5966">
        <ele>139</ele>
        <time>2024-12-25T13:00:10Z</time>
      </trkpt>
      <trkpt lat="44.78355" lon="1.59661">
        <ele>139</ele>
        <time>2024-12-25T13:00:11Z</time>
      </trkpt>
      <trkpt lat="44.78355" lon="1.59663">
        <ele>139</ele>
        <time>2024-12-25T13:00:12Z</time>
      </trkpt>
      <trkpt lat="44.78354" lon="1.59664">
        <ele>139.1</ele>
        <time>2024-12-25T13:00:13Z</time>
      </trkpt>
      <trkpt lat="44.78354" lon="1.59666">
        <ele>139.1</ele>
        <time>2024-12-25T13:00:14Z</time>
      </trkpt>
      <trkpt lat="44.78354" lon="1.59668">
        <ele>139.1</ele>
        <time>2024-12-25T13:00:15Z</time>
      </trkpt>
      <trkpt lat="44.78353" lon="1.59669">
        <ele>139.2</ele>
        <time>2024-12-25T13:00:16Z</time>
      </trkpt>
      <trkpt lat="44.78353" lon="1.59671">
        <ele>139.2</ele>
        <time>2024-12-25T13:00:17Z</time>
      </trkpt>
      <trkpt lat="44.78352" lon="1.59673">
        <ele>139.3</ele>
        <time>2024-12-25T13:00:18Z</time>
      </trkpt>
      <trkpt lat="44.78351" lon="1.59675">
        <ele>139.3</ele>
        <time>2024-12-25T13:00:19Z</time>
      </trkpt>
      <trkpt lat="44.7835" lon="1.59676">
        <ele>139.3</ele>
        <time>2024-12-25T13:00:20Z</time>
      </trkpt>
      <trkpt lat="44.7835" lon="1.59678">
        <ele>139.4</ele>
        <time>2024-12-25T13:00:21Z</time>
      </trkpt>
      <trkpt lat="44.78349" lon="1.5968">
        <ele>139.4</ele>
        <time>2024-12-25T13:00:22Z</time>
      </trkpt>
      <trkpt lat="44.78349" lon="1.59682">
        <ele>139.5</ele>
        <time>2024-12-25T13:00:23Z</time>
      </trkpt>
      <trkpt lat="44.78349" lon="1.59685">
        <ele>139.5</ele>
        <time>2024-12-25T13:00:24Z</time>
      </trkpt>
      <trkpt lat="44.78349" lon="1.59686">
        <ele>139.6</ele>
        <time>2024-12-25T13:00:25Z</time>
      </trkpt>
      <trkpt lat="44.78348" lon="1.59689">
        <ele>139.6</ele>
        <time>2024-12-25T13:00:26Z</time>
      </trkpt>
      <trkpt lat="44.78348" lon="1.5969">
        <ele>139.6</ele>
        <time>2024-12-25T13:00:27Z</time>
      </trkpt>
      <trkpt lat="44.78348" lon="1.59692">
        <ele>139.7</ele>
        <time>2024-12-25T13:00:28Z</time>
      </trkpt>
      <trkpt lat="44.78347" lon="1.59693">
        <ele>139.7</ele>
        <time>2024-12-25T13:00:29Z</time>
      </trkpt>
      <trkpt lat="44.78346" lon="1.59694">
        <ele>139.8</ele>
        <time>2024-12-25T13:00:30Z</time>
      </trkpt>
      <trkpt lat="44.78346" lon="1.59697">
        <ele>139.8</ele>
        <time>2024-12-25T13:00:31Z</time>
      </trkpt>
      <trkpt lat="44.78346" lon="1.59698">
        <ele>139.8</ele>
        <time>2024-12-25T13:00:32Z</time>
      </trkpt>
      <trkpt lat="44.78346" lon="1.597">
        <ele>139.9</ele>
        <time>2024-12-25T13:00:33Z</time>
      </trkpt>
      <trkpt lat="44.78345" lon="1.59701">
        <ele>139.9</ele>
        <time>2024-12-25T13:00:34Z</time>
      </trkpt>
      <trkpt lat="44.78345" lon="1.59703">
        <ele>139.9</ele>
        <time>2024-12-25T13:00:35Z</time>
      </trkpt>
      <trkpt lat="44.78345" lon="1.59704">
        <ele>140</ele>
        <time>2024-12-25T13:00:36Z</time>
      </trkpt>
      <trkpt lat="44.78344" lon="1.59706">
        <ele>140</ele>
        <time>2024-12-25T13:00:37Z</time>
      </trkpt>
      <trkpt lat="44.78344" lon="1.59708">
        <ele>140.1</ele>
        <time>2024-12-25T13:00:38Z</time>
      </trkpt>
      <trkpt lat="44.78343" lon="1.59709">
        <ele>140.1</ele>
        <time>2024-12-25T13:00:39Z</time>
      </trkpt>
      <trkpt lat="44.78342" lon="1.5971">
        <ele>140.1</ele>
        <time>2024-12-25T13:00:40Z</time>
      </trkpt>
      <trkpt lat="44.78341" lon="1.59711">
        <ele>140.2</ele>
        <time>2024-12-25T13:00:41Z</time>
      </trkpt>
      <trkpt lat="44.7834" lon="1.59713">
        <ele>140.2</ele>
        <time>2024-12-25T13:00:42Z</time>
      </trkpt>
      <trkpt lat="44.7834" lon="1.59714">
        <ele>140.2</ele>
        <time>2024-12-25T13:00:43Z</time>
      </trkpt>
      <trkpt lat="44.78339" lon="1.59715">
        <ele>140.3</ele>
        <time>2024-12-25T13:00:44Z</time>
      </trkpt>
      <trkpt lat="44.78339" lon="1.59716">
        <ele>140.3</ele>
        <time>2024-12-25T13:00:45Z</time>
      </trkpt>
      <trkpt lat="44.78338" lon="1.59718">
        <ele>140.3</ele>
        <time>2024-12-25T13:00:46Z</time>
      </trkpt>
      <trkpt lat="44.78338" lon="1.59719">
        <ele>140.3</ele>
        <time>2024-12-25T13:00:47Z</time>
      </trkpt>
      <trkpt lat="44.78337" lon="1.5972">
        <ele>140.4</ele>
        <time>2024-12-25T13:00:48Z</time>
      </trkpt>
      <trkpt lat="44.78336" lon="1.59722">
        <ele>140.4</ele>
        <time>2024-12-25T13:00:49Z</time>
      </trkpt>
      <trkpt lat="44.78335" lon="1.59725">
        <ele>140.5</ele>
        <time>2024-12-25T13:00:50Z</time>
      </trkpt>
      <trkpt lat="44.78335" lon="1.59726">
        <ele>140.5</ele>
        <time>2024-12-25T13:00:51Z</time>
      </trkpt>
      <trkpt lat="44.78335" lon="1.59727">
        <ele>140.5</ele>
        <time>2024-12-25T13:00:52Z</time>
      </trkpt>
      <trkpt lat="44.78334" lon="1.59729">
        <ele>140.6</ele>
        <time>2024-12-25T13:00:53Z</time>
      </trkpt>
      <trkpt lat="44.78334" lon="1.59731">
        <ele>140.6</ele>
        <time>2024-12-25T13:00:54Z</time>
      </trkpt>
      <trkpt lat="44.78333" lon="1.59732">
        <ele>140.6</ele>
        <time>2024-12-25T13:00:55Z</time>
      </trkpt>
      <trkpt lat="44.78332" lon="1.59735">
        <ele>140.7</ele>
        <time>2024-12-25T13:00:56Z</time>
      </trkpt>
      <trkpt lat="44.78332" lon="1.59736">
        <ele>140.7</ele>
        <time>2024-12-25T13:00:57Z</time>
      </trkpt>
      <trkpt lat="44.78331" lon="1.59737">
        <ele>140.8</ele>
        <time>2024-12-25T13:00:58Z</time>
      </trkpt>
      <trkpt lat="44.78331" lon="1.59738">
        <ele>140.8</ele>
        <time>2024-12-25T13:00:59Z</time>
      </trkpt>
      <trkpt lat="44.7833" lon="1.59739">
        <ele>140.8</ele>
        <time>2024-12-25T13:01:00Z</time>
      </trkpt>
      <trkpt lat="44.78329" lon="1.5974">
        <ele>140.9</ele>
        <time>2024-12-25T13:01:01Z</time>
      </trkpt>
      <trkpt lat="44.78327" lon="1.59742">
        <ele>140.9</ele>
        <time>2024-12-25T13:01:02Z</time>
      </trkpt>
      <trkpt lat="44.78326" lon="1.59743">
        <ele>141</ele>
        <time>2024-12-25T13:01:03Z</time>
      </trkpt>
      <trkpt lat="44.78326" lon="1.59743">
        <ele>141</ele>
        <time>2024-12-25T13:01:04Z</time>
      </trkpt>
      <trkpt lat="44.78325" lon="1.59744">
        <ele>141</ele>
        <time>2024-12-25T13:01:05Z</time>
      </trkpt>
      <trkpt lat="44.78323" lon="1.59745">
        <ele>141.1</ele>
        <time>2024-12-25T13:01:06Z</time>
      </trkpt>
      <trkpt lat="44.78322" lon="1.59747">
        <ele>141.1</ele>
        <time>2024-12-25T13:01:07Z</time>
      </trkpt>
      <trkpt lat="44.78321" lon="1.59749">
        <ele>141.2</ele>
        <time>2024-12-25T13:01:08Z</time>
      </trkpt>
      <trkpt lat="44.7832" lon="1.5975">
        <ele>141.2</ele>
        <time>2024-12-25T13:01:09Z</time>
      </trkpt>
      <trkpt lat="44.7832" lon="1.59752">
        <ele>141.3</ele>
        <time>2024-12-25T13:01:10Z</time>
      </trkpt>
      <trkpt lat="44.78319" lon="1.59755">
        <ele>141.3</ele>
        <time>2024-12-25T13:01:11Z</time>
      </trkpt>
      <trkpt lat="44.78318" lon="1.59756">
        <ele>141.4</ele>
        <time>2024-12-25T13:01:12Z</time>
      </trkpt>
      <trkpt lat="44.78318" lon="1.59757">
        <ele>141.4</ele>
        <time>2024-12-25T13:01:13Z</time>
      </trkpt>
      <trkpt lat="44.78318" lon="1.5976">
        <ele>141.5</ele>
        <time>2024-12-25T13:01:14Z</time>
      </trkpt>
      <trkpt lat="44.78318" lon="1.59761">
        <ele>141.5</ele>
        <time>2024-12-25T13:01:15Z</time>
      </trkpt>
      <trkpt lat="44.78317" lon="1.59763">
        <ele>141.5</ele>
        <time>2024-12-25T13:01:16Z</time>
      </trkpt>
      <trkpt lat="44.78317" lon="1.59765">
        <ele>141.6</ele>
        <time>2024-12-25T13:01:17Z</time>
      </trkpt>
      <trkpt lat="44.78316" lon="1.59767">
        <ele>141.6</ele>
        <time>2024-12-25T13:01:18Z</time>
      </trkpt>
      <trkpt lat="44.78316" lon="1.59769">
        <ele>141.7</ele>
        <time>2024-12-25T13:01:19Z</time>
      </trkpt>
      <trkpt lat="44.78315" lon="1.59771">
        <ele>141.7</ele>
        <time>2024-12-25T13:01:20Z</time>
      </trkpt>
      <trkpt lat="44.78314" lon="1.59772">
        <ele>141.8</ele>
        <time>2024-12-25T13:01:21Z</time>
      </trkpt>
      <trkpt lat="44.78313" lon="1.59774">
        <ele>141.8</ele>
        <time>2024-12-25T13:01:22Z</time>
      </trkpt>
      <trkpt lat="44.78312" lon="1.59775">
        <ele>141.8</ele>
        <time>2024-12-25T13:01:23Z</time>
      </trkpt>
      <trkpt lat="44.78311" lon="1.59777">
        <ele>141.9</ele>
        <time>2024-12-25T13:01:24Z</time>
      </trkpt>
      <trkpt lat="44.7831" lon="1.59779">
        <ele>141.9</ele>
        <time>2024-12-25T13:01:25Z</time>
      </trkpt>
      <trkpt lat="44.7831" lon="1.5978">
        <ele>141.9</ele>
        <time>2024-12-25T13:01:26Z</time>
      </trkpt>
      <trkpt lat="44.78309" lon="1.59782">
        <ele>142</ele>
        <time>2024-12-25T13:01:27Z</time>
      </trkpt>
      <trkpt lat="44.78308" lon="1.59784">
        <ele>142</ele>
        <time>2024-12-25T13:01:28Z</time>
      </trkpt>
      <trkpt lat="44.78307" lon="1.59787">
        <ele>142.1</ele>
        <time>2024-12-25T13:01:29Z</time>
      </trkpt>
      <trkpt lat="44.78307" lon="1.59788">
        <ele>142.1</ele>
        <time>2024-12-25T13:01:30Z</time>
      </trkpt>
      <trkpt lat="44.78306" lon="1.59789">
        <ele>142.1</ele>
        <time>2024-12-25T13:01:31Z</time>
      </trkpt>
      <trkpt lat="44.78305" lon="1.59791">
        <ele>142.2</ele>
        <time>2024-12-25T13:01:32Z</time>
      </trkpt>
      <trkpt lat="44.78305" lon="1.59793">
        <ele>142.2</ele>
        <time>2024-12-25T13:01:33Z</time>
      </trkpt>
      <trkpt lat="44.78304" lon="1.59794">
        <ele>142.2</ele>
        <time>2024-12-25T13:01:34Z</time>
      </trkpt>
      <trkpt lat="44.78303" lon="1.59795">
        <ele>142.3</ele>
        <time>2024-12-25T13:01:35Z</time>
      </trkpt>
      <trkpt lat="44.78302" lon="1.59796">
        <ele>142.3</ele>
        <time>2024-12-25T13:01:36Z</time>
      </trkpt>
      <trkpt lat="44.783" lon="1.59797">
        <ele>142.3</ele>
        <time>2024-12-25T13:01:37Z</time>
      </trkpt>
      <trkpt lat="44.78299" lon="1.59798">
        <ele>142.4</ele>
        <time>2024-12-25T13:01:38Z</time>
      </trkpt>
      <trkpt lat="44.78297" lon="1.59799">
        <ele>142.4</ele>
        <time>2024-12-25T13:01:39Z</time>
      </trkpt>
      <trkpt lat="44.78297" lon="1.59799">
        <ele>142.4</ele>
        <time>2024-12-25T13:01:40Z</time>
      </trkpt>
      <trkpt lat="44.78296" lon="1.598">
        <ele>142.5</ele>
        <time>2024-12-25T13:01:41Z</time>
      </trkpt>
      <trkpt lat="44.78295" lon="1.59801">
        <ele>142.5</ele>
        <time>2024-12-25T13:01:42Z</time>
      </trkpt>
      <trkpt lat="44.78293" lon="1.59802">
        <ele>142.5</ele>
        <time>2024-12-25T13:01:43Z</time>
      </trkpt>
      <trkpt lat="44.78293" lon="1.59804">
        <ele>142.5</ele>
        <time>2024-12-25T13:01:44Z</time>
      </trkpt>
      <trkpt lat="44.78292" lon="1.59805">
        <ele>142.6</ele>
        <time>2024-12-25T13:01:45Z</time>
      </trkpt>
      <trkpt lat="44.78292" lon="1.59806">
        <ele>142.6</ele>
        <time>2024-12-25T13:01:46Z</time>
      </trkpt>
      <trkpt lat="44.78291" lon="1.59807">
        <ele>142.6</ele>
        <time>2024-12-25T13:01:47Z</time>
      </trkpt>
      <trkpt lat="44.78289" lon="1.59809">
        <ele>142.6</ele>
        <time>2024-12-25T13:01:48Z</time>
      </trkpt>
      <trkpt lat="44.78288" lon="1.59809">
        <ele>142.7</ele>
        <time>2024-12-25T13:01:49Z</time>
      </trkpt>
      <trkpt lat="44.78287" lon="1.5981">
        <ele>142.7</ele>
        <time>2024-12-25T13:01:50Z</time>
      </trkpt>
      <trkpt lat="44.78286" lon="1.59811">
        <ele>142.7</ele>
        <time>2024-12-25T13:01:51Z</time>
      </trkpt>
      <trkpt lat="44.78286" lon="1.59813">
        <ele>142.7</ele>
        <time>2024-12-25T13:01:52Z</time>
      </trkpt>
      <trkpt lat="44.78285" lon="1.59814">
        <ele>142.7</ele>
        <time>2024-12-25T13:01:53Z</time>
      </trkpt>
      <trkpt lat="44.78284" lon="1.59815">
        <ele>142.7</ele>
        <time>2024-12-25T13:01:54Z</time>
      </trkpt>
      <trkpt lat="44.78283" lon="1.59816">
        <ele>142.8</ele>
        <time>2024-12-25T13:01:55Z</time>
      </trkpt>
      <trkpt lat="44.78283" lon="1.59816">
        <ele>142.8</ele>
        <time>2024-12-25T13:01:57Z</time>
      </trkpt>
      <trkpt lat="44.78285" lon="1.59815">
        <ele>142.8</ele>
        <time>2024-12-25T13:01:59Z</time>
      </trkpt>
      <trkpt lat="44.78285" lon="1.59815">
        <ele>142.8</ele>
        <time>2024-12-25T13:02:00Z</time>
      </trkpt>
      <trkpt lat="44.78285" lon="1.59815">
        <ele>142.8</ele>
        <time>2024-12-25T13:02:01Z</time>
      </trkpt>
      <trkpt lat="44.78285" lon="1.59815">
        <ele>142.8</ele>
        <time>2024-12-25T13:02:02Z</time>
      </trkpt>
      <trkpt lat="44.78284" lon="1.59816">
        <ele>142.8</ele>
        <time>2024-12-25T13:02:03Z</time>
      </trkpt>
      <trkpt lat="44.78284" lon="1.59816">
        <ele>142.8</ele>
        <time>2024-12-25T13:02:04Z</time>
      </trkpt>
      <trkpt lat="44.78284" lon="1.59816">
        <ele>142.8</ele>
        <time>2024-12-25T13:02:05Z</time>
      </trkpt>
      <trkpt lat="44.78283" lon="1.59817">
        <ele>142.8</ele>
        <time>2024-12-25T13:02:06Z</time>
      </trkpt>
      <trkpt lat="44.78283" lon="1.59819">
        <ele>142.8</ele>
        <time>2024-12-25T13:02:07Z</time>
      </trkpt>
      <trkpt lat="44.78282" lon="1.59819">
        <ele>142.8</ele>
        <time>2024-12-25T13:02:08Z</time>
      </trkpt>
      <trkpt lat="44.78282" lon="1.59821">
        <ele>142.8</ele>
        <time>2024-12-25T13:02:09Z</time>
      </trkpt>
      <trkpt lat="44.78281" lon="1.59822">
        <ele>142.9</ele>
        <time>2024-12-25T13:02:10Z</time>
      </trkpt>
      <trkpt lat="44.78279" lon="1.59825">
        <ele>142.9</ele>
        <time>2024-12-25T13:02:11Z</time>
      </trkpt>
      <trkpt lat="44.78278" lon="1.59829">
        <ele>142.9</ele>
        <time>2024-12-25T13:02:12Z</time>
      </trkpt>
      <trkpt lat="44.78276" lon="1.59832">
        <ele>143</ele>
        <time>2024-12-25T13:02:13Z</time>
      </trkpt>
      <trkpt lat="44.78274" lon="1.59836">
        <ele>143</ele>
        <time>2024-12-25T13:02:14Z</time>
      </trkpt>
      <trkpt lat="44.78272" lon="1.59841">
        <ele>143.1</ele>
        <time>2024-12-25T13:02:15Z</time>
      </trkpt>
      <trkpt lat="44.78271" lon="1.59843">
        <ele>143.1</ele>
        <time>2024-12-25T13:02:16Z</time>
      </trkpt>
      <trkpt lat="44.78271" lon="1.59846">
        <ele>143.1</ele>
        <time>2024-12-25T13:02:17Z</time>
      </trkpt>
      <trkpt lat="44.78272" lon="1.59848">
        <ele>143.2</ele>
        <time>2024-12-25T13:02:18Z</time>
      </trkpt>
      <trkpt lat="44.78272" lon="1.59849">
        <ele>143.2</ele>
        <time>2024-12-25T13:02:19Z</time>
      </trkpt>
      <trkpt lat="44.78272" lon="1.59852">
        <ele>143.2</ele>
        <time>2024-12-25T13:02:20Z</time>
      </trkpt>
      <trkpt lat="44.78272" lon="1.59853">
        <ele>143.3</ele>
        <time>2024-12-25T13:02:21Z</time>
      </trkpt>
      <trkpt lat="44.78272" lon="1.59855">
        <ele>143.3</ele>
        <time>2024-12-25T13:02:22Z</time>
      </trkpt>
      <trkpt lat="44.78273" lon="1.59856">
        <ele>143.3</ele>
        <time>2024-12-25T13:02:23Z</time>
      </trkpt>
      <trkpt lat="44.78274" lon="1.59858">
        <ele>143.3</ele>
        <time>2024-12-25T13:02:24Z</time>
      </trkpt>
      <trkpt lat="44.78274" lon="1.5986">
        <ele>143.4</ele>
        <time>2024-12-25T13:02:25Z</time>
      </trkpt>
      <trkpt lat="44.78275" lon="1.59862">
        <ele>143.4</ele>
        <time>2024-12-25T13:02:26Z</time>
      </trkpt>
      <trkpt lat="44.78275" lon="1.59864">
        <ele>143.5</ele>
        <time>2024-12-25T13:02:27Z</time>
      </trkpt>
      <trkpt lat="44.78276" lon="1.59866">
        <ele>143.5</ele>
        <time>2024-12-25T13:02:28Z</time>
      </trkpt>
      <trkpt lat="44.78271" lon="1.5987">
        <ele>143.7</ele>
        <time>2024-12-25T13:02:29Z</time>
      </trkpt>
      <trkpt lat="44.78265" lon="1.59872">
        <ele>143.8</ele>
        <time>2024-12-25T13:02:30Z</time>
      </trkpt>
      <trkpt lat="44.7826" lon="1.59874">
        <ele>144</ele>
        <time>2024-12-25T13:02:31Z</time>
      </trkpt>
      <trkpt lat="44.78259" lon="1.59878">
        <ele>144.1</ele>
        <time>2024-12-25T13:02:32Z</time>
      </trkpt>
      <trkpt lat="44.78259" lon="1.5988">
        <ele>144.1</ele>
        <time>2024-12-25T13:02:33Z</time>
      </trkpt>
      <trkpt lat="44.78259" lon="1.59882">
        <ele>144.1</ele>
        <time>2024-12-25T13:02:35Z</time>
      </trkpt>
      <trkpt lat="44.78259" lon="1.59884">
        <ele>144.2</ele>
        <time>2024-12-25T13:02:36Z</time>
      </trkpt>
      <trkpt lat="44.78259" lon="1.59886">
        <ele>144.2</ele>
        <time>2024-12-25T13:02:37Z</time>
      </trkpt>
      <trkpt lat="44.78259" lon="1.59888">
        <ele>144.3</ele>
        <time>2024-12-25T13:02:38Z</time>
      </trkpt>
      <trkpt lat="44.78259" lon="1.59891">
        <ele>144.3</ele>
        <time>2024-12-25T13:02:39Z</time>
      </trkpt>
      <trkpt lat="44.78258" lon="1.59893">
        <ele>144.4</ele>
        <time>2024-12-25T13:02:40Z</time>
      </trkpt>
      <trkpt lat="44.78257" lon="1.59896">
        <ele>144.4</ele>
        <time>2024-12-25T13:02:41Z</time>
      </trkpt>
      <trkpt lat="44.78257" lon="1.59897">
        <ele>144.5</ele>
        <time>2024-12-25T13:02:42Z</time>
      </trkpt>
      <trkpt lat="44.78257" lon="1.59898">
        <ele>144.5</ele>
        <time>2024-12-25T13:02:43Z</time>
      </trkpt>
      <trkpt lat="44.78256" lon="1.59901">
        <ele>144.6</ele>
        <time>2024-12-25T13:02:44Z</time>
      </trkpt>
      <trkpt lat="44.78256" lon="1.59902">
        <ele>144.6</ele>
        <time>2024-12-25T13:02:45Z</time>
      </trkpt>
      <trkpt lat="44.78256" lon="1.59903">
        <ele>144.6</ele>
        <time>2024-12-25T13:02:46Z</time>
      </trkpt>
      <trkpt lat="44.78255" lon="1.59904">
        <ele>144.6</ele>
        <time>2024-12-25T13:02:47Z</time>
      </trkpt>
      <trkpt lat="44.78254" lon="1.59906">
        <ele>144.7</ele>
        <time>2024-12-25T13:02:49Z</time>
      </trkpt>
      <trkpt lat="44.78255" lon="1.59908">
        <ele>144.7</ele>
        <time>2024-12-25T13:02:50Z</time>
      </trkpt>
      <trkpt lat="44.78255" lon="1.5991">
        <ele>144.8</ele>
        <time>2024-12-25T13:02:51Z</time>
      </trkpt>
      <trkpt lat="44.78256" lon="1.59912">
        <ele>144.8</ele>
        <time>2024-12-25T13:02:52Z</time>
      </trkpt>
      <trkpt lat="44.78257" lon="1.59914">
        <ele>144.8</ele>
        <time>2024-12-25T13:02:53Z</time>
      </trkpt>
      <trkpt lat="44.78257" lon="1.59916">
        <ele>144.9</ele>
        <time>2024-12-25T13:02:54Z</time>
      </trkpt>
      <trkpt lat="44.78258" lon="1.59918">
        <ele>144.9</ele>
        <time>2024-12-25T13:02:55Z</time>
      </trkpt>
      <trkpt lat="44.78259" lon="1.5992">
        <ele>145</ele>
        <time>2024-12-25T13:02:56Z</time>
      </trkpt>
      <trkpt lat="44.78259" lon="1.59922">
        <ele>145</ele>
        <time>2024-12-25T13:02:57Z</time>
      </trkpt>
      <trkpt lat="44.7826" lon="1.59924">
        <ele>145</ele>
        <time>2024-12-25T13:02:58Z</time>
      </trkpt>
      <trkpt lat="44.7826" lon="1.59926">
        <ele>145.1</ele>
        <time>2024-12-25T13:02:59Z</time>
      </trkpt>
      <trkpt lat="44.78261" lon="1.59928">
        <ele>145.1</ele>
        <time>2024-12-25T13:03:00Z</time>
      </trkpt>
      <trkpt lat="44.78261" lon="1.5993">
        <ele>145.2</ele>
        <time>2024-12-25T13:03:01Z</time>
      </trkpt>
      <trkpt lat="44.78261" lon="1.59931">
        <ele>145.2</ele>
        <time>2024-12-25T13:03:02Z</time>
      </trkpt>
      <trkpt lat="44.78261" lon="1.59933">
        <ele>145.2</ele>
        <time>2024-12-25T13:03:03Z</time>
      </trkpt>
      <trkpt lat="44.78261" lon="1.59936">
        <ele>145.3</ele>
        <time>2024-12-25T13:03:04Z</time>
      </trkpt>
      <trkpt lat="44.78261" lon="1.59938">
        <ele>145.3</ele>
        <time>2024-12-25T13:03:05Z</time>
      </trkpt>
      <trkpt lat="44.78261" lon="1.59939">
        <ele>145.3</ele>
        <time>2024-12-25T13:03:06Z</time>
      </trkpt>
      <trkpt lat="44.78262" lon="1.59941">
        <ele>145.3</ele>
        <time>2024-12-25T13:03:07Z</time>
      </trkpt>
      <trkpt lat="44.78262" lon="1.59942">
        <ele>145.3</ele>
        <time>2024-12-25T13:03:08Z</time>
      </trkpt>
      <trkpt lat="44.78263" lon="1.59944">
        <ele>145.4</ele>
        <time>2024-12-25T13:03:09Z</time>
      </trkpt>
      <trkpt lat="44.78263" lon="1.59945">
        <ele>145.4</ele>
        <time>2024-12-25T13:03:10Z</time>
      </trkpt>
      <trkpt lat="44.78264" lon="1.59946">
        <ele>145.4</ele>
        <time>2024-12-25T13:03:11Z</time>
      </trkpt>
      <trkpt lat="44.78264" lon="1.59948">
        <ele>145.4</ele>
        <time>2024-12-25T13:03:12Z</time>
      </trkpt>
      <trkpt lat="44.78264" lon="1.59949">
        <ele>145.4</ele>
        <time>2024-12-25T13:03:13Z</time>
      </trkpt>
      <trkpt lat="44.78264" lon="1.59951">
        <ele>145.4</ele>
        <time>2024-12-25T13:03:14Z</time>
      </trkpt>
      <trkpt lat="44.78264" lon="1.59953">
        <ele>145.5</ele>
        <time>2024-12-25T13:03:16Z</time>
      </trkpt>
      <trkpt lat="44.78265" lon="1.59955">
        <ele>145.5</ele>
        <time>2024-12-25T13:03:17Z</time>
      </trkpt>
      <trkpt lat="44.78266" lon="1.59957">
        <ele>145.5</ele>
        <time>2024-12-25T13:03:18Z</time>
      </trkpt>
      <trkpt lat="44.78267" lon="1.59958">
        <ele>145.5</ele>
        <time>2024-12-25T13:03:19Z</time>
      </trkpt>
      <trkpt lat="44.78267" lon="1.59959">
        <ele>145.6</ele>
        <time>2024-12-25T13:03:20Z</time>
      </trkpt>
      <trkpt lat="44.78267" lon="1.59961">
        <ele>145.6</ele>
        <time>2024-12-25T13:03:21Z</time>
      </trkpt>
      <trkpt lat="44.78268" lon="1.59963">
        <ele>145.6</ele>
        <time>2024-12-25T13:03:22Z</time>
      </trkpt>
      <trkpt lat="44.78268" lon="1.59964">
        <ele>145.6</ele>
        <time>2024-12-25T13:03:23Z</time>
      </trkpt>
      <trkpt lat="44.78268" lon="1.59967">
        <ele>145.7</ele>
        <time>2024-12-25T13:03:24Z</time>
      </trkpt>
      <trkpt lat="44.78267" lon="1.59973">
        <ele>145.8</ele>
        <time>2024-12-25T13:03:26Z</time>
      </trkpt>
      <trkpt lat="44.78266" lon="1.59976">
        <ele>145.8</ele>
        <time>2024-12-25T13:03:27Z</time>
      </trkpt>
      <trkpt lat="44.78266" lon="1.59978">
        <ele>145.9</ele>
        <time>2024-12-25T13:03:28Z</time>
      </trkpt>
      <trkpt lat="44.78266" lon="1.5998">
        <ele>145.9</ele>
        <time>2024-12-25T13:03:30Z</time>
      </trkpt>
      <trkpt lat="44.78268" lon="1.59984">
        <ele>146</ele>
        <time>2024-12-25T13:03:31Z</time>
      </trkpt>
      <trkpt lat="44.78268" lon="1.59986">
        <ele>146</ele>
        <time>2024-12-25T13:03:32Z</time>
      </trkpt>
      <trkpt lat="44.78268" lon="1.59989">
        <ele>146</ele>
        <time>2024-12-25T13:03:33Z</time>
      </trkpt>
      <trkpt lat="44.78268" lon="1.5999">
        <ele>146.1</ele>
        <time>2024-12-25T13:03:34Z</time>
      </trkpt>
      <trkpt lat="44.78268" lon="1.59991">
        <ele>146.1</ele>
        <time>2024-12-25T13:03:35Z</time>
      </trkpt>
      <trkpt lat="44.78268" lon="1.59993">
        <ele>146.1</ele>
        <time>2024-12-25T13:03:36Z</time>
      </trkpt>
      <trkpt lat="44.78267" lon="1.59995">
        <ele>146.1</ele>
        <time>2024-12-25T13:03:37Z</time>
      </trkpt>
      <trkpt lat="44.78265" lon="1.59998">
        <ele>146.2</ele>
        <time>2024-12-25T13:03:38Z</time>
      </trkpt>
      <trkpt lat="44.78265" lon="1.59999">
        <ele>146.2</ele>
        <time>2024-12-25T13:03:39Z</time>
      </trkpt>
      <trkpt lat="44.78264" lon="1.6">
        <ele>146.2</ele>
        <time>2024-12-25T13:03:40Z</time>
      </trkpt>
      <trkpt lat="44.78262" lon="1.60003">
        <ele>146.3</ele>
        <time>2024-12-25T13:03:41Z</time>
      </trkpt>
      <trkpt lat="44.78261" lon="1.60004">
        <ele>146.3</ele>
        <time>2024-12-25T13:03:43Z</time>
      </trkpt>
      <trkpt lat="44.78261" lon="1.60006">
        <ele>146.3</ele>
        <time>2024-12-25T13:03:44Z</time>
      </trkpt>
      <trkpt lat="44.7826" lon="1.60007">
        <ele>146.4</ele>
        <time>2024-12-25T13:03:45Z</time>
      </trkpt>
      <trkpt lat="44.7826" lon="1.60009">
        <ele>146.4</ele>
        <time>2024-12-25T13:03:46Z</time>
      </trkpt>
      <trkpt lat="44.7826" lon="1.60013">
        <ele>146.4</ele>
        <time>2024-12-25T13:03:48Z</time>
      </trkpt>
      <trkpt lat="44.7826" lon="1.60016">
        <ele>146.5</ele>
        <time>2024-12-25T13:03:49Z</time>
      </trkpt>
      <trkpt lat="44.7826" lon="1.60017">
        <ele>146.5</ele>
        <time>2024-12-25T13:03:50Z</time>
      </trkpt>
      <trkpt lat="44.7826" lon="1.60018">
        <ele>146.5</ele>
        <time>2024-12-25T13:03:51Z</time>
      </trkpt>
      <trkpt lat="44.7826" lon="1.60021">
        <ele>146.5</ele>
        <time>2024-12-25T13:03:52Z</time>
      </trkpt>
      <trkpt lat="44.78259" lon="1.60022">
        <ele>146.6</ele>
        <time>2024-12-25T13:03:53Z</time>
      </trkpt>
      <trkpt lat="44.78259" lon="1.60023">
        <ele>146.6</ele>
        <time>2024-12-25T13:03:54Z</time>
      </trkpt>
      <trkpt lat="44.78259" lon="1.60027">
        <ele>146.6</ele>
        <time>2024-12-25T13:03:55Z</time>
      </trkpt>
      <trkpt lat="44.78259" lon="1.60028">
        <ele>146.6</ele>
        <time>2024-12-25T13:03:56Z</time>
      </trkpt>
      <trkpt lat="44.78259" lon="1.60029">
        <ele>146.7</ele>
        <time>2024-12-25T13:03:57Z</time>
      </trkpt>
      <trkpt lat="44.78258" lon="1.60032">
        <ele>146.7</ele>
        <time>2024-12-25T13:03:58Z</time>
      </trkpt>
      <trkpt lat="44.78257" lon="1.60033">
        <ele>146.7</ele>
        <time>2024-12-25T13:03:59Z</time>
      </trkpt>
      <trkpt lat="44.78257" lon="1.60034">
        <ele>146.7</ele>
        <time>2024-12-25T13:04:00Z</time>
      </trkpt>
      <trkpt lat="44.78256" lon="1.60035">
        <ele>146.8</ele>
        <time>2024-12-25T13:04:01Z</time>
      </trkpt>
      <trkpt lat="44.78256" lon="1.60037">
        <ele>146.8</ele>
        <time>2024-12-25T13:04:02Z</time>
      </trkpt>
      <trkpt lat="44.78255" lon="1.60038">
        <ele>146.9</ele>
        <time>2024-12-25T13:04:03Z</time>
      </trkpt>
      <trkpt lat="44.78255" lon="1.6004">
        <ele>146.9</ele>
        <time>2024-12-25T13:04:04Z</time>
      </trkpt>
      <trkpt lat="44.78255" lon="1.60042">
        <ele>146.9</ele>
        <time>2024-12-25T13:04:05Z</time>
      </trkpt>
      <trkpt lat="44.78255" lon="1.60044">
        <ele>147</ele>
        <time>2024-12-25T13:04:06Z</time>
      </trkpt>
      <trkpt lat="44.78255" lon="1.60046">
        <ele>147</ele>
        <time>2024-12-25T13:04:07Z</time>
      </trkpt>
      <trkpt lat="44.78255" lon="1.60047">
        <ele>147</ele>
        <time>2024-12-25T13:04:08Z</time>
      </trkpt>
      <trkpt lat="44.78255" lon="1.60049">
        <ele>147.1</ele>
        <time>2024-12-25T13:04:09Z</time>
      </trkpt>
      <trkpt lat="44.78254" lon="1.6005">
        <ele>147.1</ele>
        <time>2024-12-25T13:04:10Z</time>
      </trkpt>
      <trkpt lat="44.78255" lon="1.60052">
        <ele>147.1</ele>
        <time>2024-12-25T13:04:11Z</time>
      </trkpt>
      <trkpt lat="44.78255" lon="1.60053">
        <ele>147.2</ele>
        <time>2024-12-25T13:04:12Z</time>
      </trkpt>
      <trkpt lat="44.78255" lon="1.60055">
        <ele>147.2</ele>
        <time>2024-12-25T13:04:13Z</time>
      </trkpt>
      <trkpt lat="44.78255" lon="1.60057">
        <ele>147.3</ele>
        <time>2024-12-25T13:04:14Z</time>
      </trkpt>
      <trkpt lat="44.78255" lon="1.60058">
        <ele>147.3</ele>
        <time>2024-12-25T13:04:15Z</time>
      </trkpt>
      <trkpt lat="44.78256" lon="1.6006">
        <ele>147.4</ele>
        <time>2024-12-25T13:04:16Z</time>
      </trkpt>
      <trkpt lat="44.78256" lon="1.60063">
        <ele>147.4</ele>
        <time>2024-12-25T13:04:17Z</time>
      </trkpt>
      <trkpt lat="44.78256" lon="1.60065">
        <ele>147.5</ele>
        <time>2024-12-25T13:04:18Z</time>
      </trkpt>
      <trkpt lat="44.78256" lon="1.60067">
        <ele>147.6</ele>
        <time>2024-12-25T13:04:19Z</time>
      </trkpt>
      <trkpt lat="44.78255" lon="1.60072">
        <ele>147.7</ele>
        <time>2024-12-25T13:04:21Z</time>
      </trkpt>
      <trkpt lat="44.78255" lon="1.60074">
        <ele>147.8</ele>
        <time>2024-12-25T13:04:22Z</time>
      </trkpt>
      <trkpt lat="44.78255" lon="1.60076">
        <ele>147.8</ele>
        <time>2024-12-25T13:04:23Z</time>
      </trkpt>
      <trkpt lat="44.78255" lon="1.60079">
        <ele>147.9</ele>
        <time>2024-12-25T13:04:24Z</time>
      </trkpt>
      <trkpt lat="44.78254" lon="1.60081">
        <ele>147.9</ele>
        <time>2024-12-25T13:04:25Z</time>
      </trkpt>
      <trkpt lat="44.78254" lon="1.60083">
        <ele>148</ele>
        <time>2024-12-25T13:04:26Z</time>
      </trkpt>
      <trkpt lat="44.78253" lon="1.60084">
        <ele>148</ele>
        <time>2024-12-25T13:04:27Z</time>
      </trkpt>
      <trkpt lat="44.78253" lon="1.60085">
        <ele>148.1</ele>
        <time>2024-12-25T13:04:28Z</time>
      </trkpt>
      <trkpt lat="44.78252" lon="1.60088">
        <ele>148.1</ele>
        <time>2024-12-25T13:04:29Z</time>
      </trkpt>
      <trkpt lat="44.78253" lon="1.60089">
        <ele>148.1</ele>
        <time>2024-12-25T13:04:30Z</time>
      </trkpt>
      <trkpt lat="44.78254" lon="1.60092">
        <ele>148.2</ele>
        <time>2024-12-25T13:04:32Z</time>
      </trkpt>
      <trkpt lat="44.78254" lon="1.60094">
        <ele>148.2</ele>
        <time>2024-12-25T13:04:33Z</time>
      </trkpt>
      <trkpt lat="44.78254" lon="1.60097">
        <ele>148.3</ele>
        <time>2024-12-25T13:04:34Z</time>
      </trkpt>
      <trkpt lat="44.78254" lon="1.60098">
        <ele>148.3</ele>
        <time>2024-12-25T13:04:35Z</time>
      </trkpt>
      <trkpt lat="44.78254" lon="1.60101">
        <ele>148.3</ele>
        <time>2024-12-25T13:04:36Z</time>
      </trkpt>
      <trkpt lat="44.78253" lon="1.60104">
        <ele>148.4</ele>
        <time>2024-12-25T13:04:37Z</time>
      </trkpt>
      <trkpt lat="44.78253" lon="1.60105">
        <ele>148.4</ele>
        <time>2024-12-25T13:04:38Z</time>
      </trkpt>
      <trkpt lat="44.78253" lon="1.60106">
        <ele>148.4</ele>
        <time>2024-12-25T13:04:39Z</time>
      </trkpt>
      <trkpt lat="44.78253" lon="1.60109">
        <ele>148.5</ele>
        <time>2024-12-25T13:04:40Z</time>
      </trkpt>
      <trkpt lat="44.78253" lon="1.6011">
        <ele>148.5</ele>
        <time>2024-12-25T13:04:41Z</time>
      </trkpt>
      <trkpt lat="44.78253" lon="1.60112">
        <ele>148.5</ele>
        <time>2024-12-25T13:04:42Z</time>
      </trkpt>
      <trkpt lat="44.78253" lon="1.60113">
        <ele>148.5</ele>
        <time>2024-12-25T13:04:43Z</time>
      </trkpt>
      <trkpt lat="44.78253" lon="1.60115">
        <ele>148.5</ele>
        <time>2024-12-25T13:04:44Z</time>
      </trkpt>
      <trkpt lat="44.78253" lon="1.60116">
        <ele>148.6</ele>
        <time>2024-12-25T13:04:45Z</time>
      </trkpt>
      <trkpt lat="44.78252" lon="1.60117">
        <ele>148.6</ele>
        <time>2024-12-25T13:04:46Z</time>
      </trkpt>
      <trkpt lat="44.78253" lon="1.60119">
        <ele>148.6</ele>
        <time>2024-12-25T13:04:47Z</time>
      </trkpt>
      <trkpt lat="44.78253" lon="1.60121">
        <ele>148.6</ele>
        <time>2024-12-25T13:04:48Z</time>
      </trkpt>
      <trkpt lat="44.78253" lon="1.60123">
        <ele>148.7</ele>
        <time>2024-12-25T13:04:49Z</time>
      </trkpt>
      <trkpt lat="44.78253" lon="1.60125">
        <ele>148.7</ele>
        <time>2024-12-25T13:04:50Z</time>
      </trkpt>
      <trkpt lat="44.78253" lon="1.60128">
        <ele>148.7</ele>
        <time>2024-12-25T13:04:51Z</time>
      </trkpt>
      <trkpt lat="44.78254" lon="1.60129">
        <ele>148.7</ele>
        <time>2024-12-25T13:04:52Z</time>
      </trkpt>
      <trkpt lat="44.78254" lon="1.6013">
        <ele>148.8</ele>
        <time>2024-12-25T13:04:53Z</time>
      </trkpt>
      <trkpt lat="44.78254" lon="1.60133">
        <ele>148.8</ele>
        <time>2024-12-25T13:04:54Z</time>
      </trkpt>
      <trkpt lat="44.78254" lon="1.60135">
        <ele>148.8</ele>
        <time>2024-12-25T13:04:55Z</time>
      </trkpt>
      <trkpt lat="44.78255" lon="1.60137">
        <ele>148.8</ele>
        <time>2024-12-25T13:04:56Z</time>
      </trkpt>
      <trkpt lat="44.78255" lon="1.60139">
        <ele>148.9</ele>
        <time>2024-12-25T13:04:57Z</time>
      </trkpt>
      <trkpt lat="44.78255" lon="1.60141">
        <ele>148.9</ele>
        <time>2024-12-25T13:04:58Z</time>
      </trkpt>
      <trkpt lat="44.78256" lon="1.60144">
        <ele>148.9</ele>
        <time>2024-12-25T13:04:59Z</time>
      </trkpt>
      <trkpt lat="44.78257" lon="1.60147">
        <ele>149</ele>
        <time>2024-12-25T13:05:00Z</time>
      </trkpt>
      <trkpt lat="44.78257" lon="1.60148">
        <ele>149</ele>
        <time>2024-12-25T13:05:01Z</time>
      </trkpt>
      <trkpt lat="44.78258" lon="1.60149">
        <ele>149</ele>
        <time>2024-12-25T13:05:02Z</time>
      </trkpt>
      <trkpt lat="44.78257" lon="1.60153">
        <ele>149.1</ele>
        <time>2024-12-25T13:05:04Z</time>
      </trkpt>
      <trkpt lat="44.78257" lon="1.60155">
        <ele>149.1</ele>
        <time>2024-12-25T13:05:05Z</time>
      </trkpt>
      <trkpt lat="44.78256" lon="1.60157">
        <ele>149.2</ele>
        <time>2024-12-25T13:05:06Z</time>
      </trkpt>
      <trkpt lat="44.78256" lon="1.60159">
        <ele>149.2</ele>
        <time>2024-12-25T13:05:07Z</time>
      </trkpt>
      <trkpt lat="44.78256" lon="1.60161">
        <ele>149.2</ele>
        <time>2024-12-25T13:05:08Z</time>
      </trkpt>
      <trkpt lat="44.78255" lon="1.60163">
        <ele>149.3</ele>
        <time>2024-12-25T13:05:09Z</time>
      </trkpt>
      <trkpt lat="44.78255" lon="1.60165">
        <ele>149.3</ele>
        <time>2024-12-25T13:05:10Z</time>
      </trkpt>
      <trkpt lat="44.78255" lon="1.60167">
        <ele>149.3</ele>
        <time>2024-12-25T13:05:12Z</time>
      </trkpt>
      <trkpt lat="44.78255" lon="1.6017">
        <ele>149.4</ele>
        <time>2024-12-25T13:05:13Z</time>
      </trkpt>
      <trkpt lat="44.78255" lon="1.60172">
        <ele>149.4</ele>
        <time>2024-12-25T13:05:14Z</time>
      </trkpt>
      <trkpt lat="44.78256" lon="1.60174">
        <ele>149.5</ele>
        <time>2024-12-25T13:05:15Z</time>
      </trkpt>
      <trkpt lat="44.78256" lon="1.60175">
        <ele>149.5</ele>
        <time>2024-12-25T13:05:16Z</time>
      </trkpt>
      <trkpt lat="44.78256" lon="1.60177">
        <ele>149.5</ele>
        <time>2024-12-25T13:05:17Z</time>
      </trkpt>
      <trkpt lat="44.78255" lon="1.60179">
        <ele>149.6</ele>
        <time>2024-12-25T13:05:18Z</time>
      </trkpt>
      <trkpt lat="44.78255" lon="1.60181">
        <ele>149.6</ele>
        <time>2024-12-25T13:05:19Z</time>
      </trkpt>
      <trkpt lat="44.78255" lon="1.60184">
        <ele>149.6</ele>
        <time>2024-12-25T13:05:20Z</time>
      </trkpt>
      <trkpt lat="44.78256" lon="1.60185">
        <ele>149.7</ele>
        <time>2024-12-25T13:05:21Z</time>
      </trkpt>
      <trkpt lat="44.78256" lon="1.60187">
        <ele>149.7</ele>
        <time>2024-12-25T13:05:22Z</time>
      </trkpt>
      <trkpt lat="44.78256" lon="1.6019">
        <ele>149.7</ele>
        <time>2024-12-25T13:05:23Z</time>
      </trkpt>
      <trkpt lat="44.78257" lon="1.60191">
        <ele>149.8</ele>
        <time>2024-12-25T13:05:24Z</time>
      </trkpt>
      <trkpt lat="44.78257" lon="1.60192">
        <ele>149.8</ele>
        <time>2024-12-25T13:05:25Z</time>
      </trkpt>
      <trkpt lat="44.78256" lon="1.60193">
        <ele>149.8</ele>
        <time>2024-12-25T13:05:26Z</time>
      </trkpt>
      <trkpt lat="44.78256" lon="1.60194">
        <ele>149.8</ele>
        <time>2024-12-25T13:05:27Z</time>
      </trkpt>
      <trkpt lat="44.78255" lon="1.60196">
        <ele>149.9</ele>
        <time>2024-12-25T13:05:28Z</time>
      </trkpt>
      <trkpt lat="44.78256" lon="1.602">
        <ele>149.9</ele>
        <time>2024-12-25T13:05:29Z</time>
      </trkpt>
      <trkpt lat="44.78256" lon="1.60202">
        <ele>150</ele>
        <time>2024-12-25T13:05:30Z</time>
      </trkpt>
      <trkpt lat="44.78256" lon="1.60204">
        <ele>150</ele>
        <time>2024-12-25T13:05:31Z</time>
      </trkpt>
      <trkpt lat="44.78256" lon="1.60206">
        <ele>150</ele>
        <time>2024-12-25T13:05:32Z</time>
      </trkpt>
      <trkpt lat="44.78256" lon="1.60207">
        <ele>150.1</ele>
        <time>2024-12-25T13:05:33Z</time>
      </trkpt>
      <trkpt lat="44.78256" lon="1.6021">
        <ele>150.1</ele>
        <time>2024-12-25T13:05:34Z</time>
      </trkpt>
      <trkpt lat="44.78256" lon="1.60211">
        <ele>150.1</ele>
        <time>2024-12-25T13:05:35Z</time>
      </trkpt>
      <trkpt lat="44.78256" lon="1.60212">
        <ele>150.1</ele>
        <time>2024-12-25T13:05:36Z</time>
      </trkpt>
      <trkpt lat="44.78257" lon="1.60214">
        <ele>150.2</ele>
        <time>2024-12-25T13:05:37Z</time>
      </trkpt>
      <trkpt lat="44.78256" lon="1.60217">
        <ele>150.2</ele>
        <time>2024-12-25T13:05:38Z</time>
      </trkpt>
      <trkpt lat="44.78256" lon="1.60218">
        <ele>150.2</ele>
        <time>2024-12-25T13:05:39Z</time>
      </trkpt>
      <trkpt lat="44.78256" lon="1.60219">
        <ele>150.3</ele>
        <time>2024-12-25T13:05:40Z</time>
      </trkpt>
      <trkpt lat="44.78255" lon="1.60222">
        <ele>150.3</ele>
        <time>2024-12-25T13:05:41Z</time>
      </trkpt>
      <trkpt lat="44.78254" lon="1.60223">
        <ele>150.3</ele>
        <time>2024-12-25T13:05:42Z</time>
      </trkpt>
      <trkpt lat="44.78254" lon="1.60225">
        <ele>150.4</ele>
        <time>2024-12-25T13:05:43Z</time>
      </trkpt>
      <trkpt lat="44.78253" lon="1.60227">
        <ele>150.4</ele>
        <time>2024-12-25T13:05:44Z</time>
      </trkpt>
      <trkpt lat="44.78253" lon="1.60229">
        <ele>150.4</ele>
        <time>2024-12-25T13:05:45Z</time>
      </trkpt>
      <trkpt lat="44.78253" lon="1.6023">
        <ele>150.5</ele>
        <time>2024-12-25T13:05:46Z</time>
      </trkpt>
      <trkpt lat="44.78253" lon="1.60232">
        <ele>150.5</ele>
        <time>2024-12-25T13:05:47Z</time>
      </trkpt>
      <trkpt lat="44.78254" lon="1.60235">
        <ele>150.5</ele>
        <time>2024-12-25T13:05:48Z</time>
      </trkpt>
      <trkpt lat="44.78254" lon="1.60236">
        <ele>150.5</ele>
        <time>2024-12-25T13:05:49Z</time>
      </trkpt>
      <trkpt lat="44.78254" lon="1.60237">
        <ele>150.6</ele>
        <time>2024-12-25T13:05:50Z</time>
      </trkpt>
      <trkpt lat="44.78253" lon="1.60243">
        <ele>150.6</ele>
        <time>2024-12-25T13:05:52Z</time>
      </trkpt>
      <trkpt lat="44.78253" lon="1.60244">
        <ele>150.7</ele>
        <time>2024-12-25T13:05:53Z</time>
      </trkpt>
      <trkpt lat="44.78252" lon="1.60246">
        <ele>150.7</ele>
        <time>2024-12-25T13:05:54Z</time>
      </trkpt>
      <trkpt lat="44.78251" lon="1.60248">
        <ele>150.7</ele>
        <time>2024-12-25T13:05:55Z</time>
      </trkpt>
      <trkpt lat="44.7825" lon="1.60249">
        <ele>150.8</ele>
        <time>2024-12-25T13:05:56Z</time>
      </trkpt>
      <trkpt lat="44.7825" lon="1.6025">
        <ele>150.8</ele>
        <time>2024-12-25T13:05:57Z</time>
      </trkpt>
      <trkpt lat="44.7825" lon="1.60252">
        <ele>150.8</ele>
        <time>2024-12-25T13:05:58Z</time>
      </trkpt>
      <trkpt lat="44.7825" lon="1.60253">
        <ele>150.8</ele>
        <time>2024-12-25T13:05:59Z</time>
      </trkpt>
      <trkpt lat="44.7825" lon="1.60255">
        <ele>150.9</ele>
        <time>2024-12-25T13:06:00Z</time>
      </trkpt>
      <trkpt lat="44.7825" lon="1.60257">
        <ele>150.9</ele>
        <time>2024-12-25T13:06:01Z</time>
      </trkpt>
      <trkpt lat="44.7825" lon="1.60258">
        <ele>150.9</ele>
        <time>2024-12-25T13:06:02Z</time>
      </trkpt>
      <trkpt lat="44.78249" lon="1.6026">
        <ele>150.9</ele>
        <time>2024-12-25T13:06:03Z</time>
      </trkpt>
      <trkpt lat="44.78249" lon="1.60261">
        <ele>151</ele>
        <time>2024-12-25T13:06:04Z</time>
      </trkpt>
      <trkpt lat="44.78249" lon="1.60264">
        <ele>151</ele>
        <time>2024-12-25T13:06:05Z</time>
      </trkpt>
      <trkpt lat="44.78249" lon="1.60266">
        <ele>151</ele>
        <time>2024-12-25T13:06:06Z</time>
      </trkpt>
      <trkpt lat="44.7825" lon="1.60267">
        <ele>151</ele>
        <time>2024-12-25T13:06:07Z</time>
      </trkpt>
      <trkpt lat="44.7825" lon="1.60269">
        <ele>151.1</ele>
        <time>2024-12-25T13:06:09Z</time>
      </trkpt>
      <trkpt lat="44.7825" lon="1.60272">
        <ele>151.1</ele>
        <time>2024-12-25T13:06:10Z</time>
      </trkpt>
      <trkpt lat="44.7825" lon="1.60274">
        <ele>151.2</ele>
        <time>2024-12-25T13:06:11Z</time>
      </trkpt>
      <trkpt lat="44.78249" lon="1.60277">
        <ele>151.2</ele>
        <time>2024-12-25T13:06:12Z</time>
      </trkpt>
      <trkpt lat="44.78249" lon="1.60279">
        <ele>151.2</ele>
        <time>2024-12-25T13:06:13Z</time>
      </trkpt>
      <trkpt lat="44.78249" lon="1.60281">
        <ele>151.3</ele>
        <time>2024-12-25T13:06:14Z</time>
      </trkpt>
      <trkpt lat="44.78249" lon="1.60283">
        <ele>151.3</ele>
        <time>2024-12-25T13:06:15Z</time>
      </trkpt>
      <trkpt lat="44.78249" lon="1.60286">
        <ele>151.3</ele>
        <time>2024-12-25T13:06:16Z</time>
      </trkpt>
      <trkpt lat="44.78248" lon="1.60287">
        <ele>151.3</ele>
        <time>2024-12-25T13:06:17Z</time>
      </trkpt>
      <trkpt lat="44.78248" lon="1.60288">
        <ele>151.3</ele>
        <time>2024-12-25T13:06:18Z</time>
      </trkpt>
      <trkpt lat="44.78248" lon="1.6029">
        <ele>151.3</ele>
        <time>2024-12-25T13:06:19Z</time>
      </trkpt>
      <trkpt lat="44.78247" lon="1.60292">
        <ele>151.3</ele>
        <time>2024-12-25T13:06:20Z</time>
      </trkpt>
      <trkpt lat="44.78246" lon="1.60294">
        <ele>151.2</ele>
        <time>2024-12-25T13:06:21Z</time>
      </trkpt>
      <trkpt lat="44.78246" lon="1.60296">
        <ele>151.2</ele>
        <time>2024-12-25T13:06:22Z</time>
      </trkpt>
      <trkpt lat="44.78246" lon="1.60297">
        <ele>151.2</ele>
        <time>2024-12-25T13:06:23Z</time>
      </trkpt>
      <trkpt lat="44.78245" lon="1.60301">
        <ele>151.2</ele>
        <time>2024-12-25T13:06:25Z</time>
      </trkpt>
      <trkpt lat="44.78244" lon="1.60301">
        <ele>151.1</ele>
        <time>2024-12-25T13:06:26Z</time>
      </trkpt>
      <trkpt lat="44.78244" lon="1.60303">
        <ele>151.1</ele>
        <time>2024-12-25T13:06:27Z</time>
      </trkpt>
      <trkpt lat="44.78243" lon="1.60305">
        <ele>151.1</ele>
        <time>2024-12-25T13:06:28Z</time>
      </trkpt>
      <trkpt lat="44.78242" lon="1.60309">
        <ele>151.1</ele>
        <time>2024-12-25T13:06:30Z</time>
      </trkpt>
      <trkpt lat="44.78241" lon="1.60309">
        <ele>151.1</ele>
        <time>2024-12-25T13:06:31Z</time>
      </trkpt>
      <trkpt lat="44.7824" lon="1.60311">
        <ele>151.1</ele>
        <time>2024-12-25T13:06:33Z</time>
      </trkpt>
      <trkpt lat="44.7824" lon="1.60313">
        <ele>151.1</ele>
        <time>2024-12-25T13:06:34Z</time>
      </trkpt>
      <trkpt lat="44.78239" lon="1.60316">
        <ele>151.1</ele>
        <time>2024-12-25T13:06:35Z</time>
      </trkpt>
      <trkpt lat="44.78239" lon="1.60317">
        <ele>151.1</ele>
        <time>2024-12-25T13:06:36Z</time>
      </trkpt>
      <trkpt lat="44.78238" lon="1.60319">
        <ele>151.1</ele>
        <time>2024-12-25T13:06:37Z</time>
      </trkpt>
      <trkpt lat="44.78237" lon="1.60321">
        <ele>151.1</ele>
        <time>2024-12-25T13:06:38Z</time>
      </trkpt>
      <trkpt lat="44.78235" lon="1.60325">
        <ele>151.1</ele>
        <time>2024-12-25T13:06:40Z</time>
      </trkpt>
      <trkpt lat="44.78235" lon="1.60325">
        <ele>151.1</ele>
        <time>2024-12-25T13:06:41Z</time>
      </trkpt>
      <trkpt lat="44.78234" lon="1.60328">
        <ele>151.1</ele>
        <time>2024-12-25T13:06:42Z</time>
      </trkpt>
      <trkpt lat="44.78233" lon="1.60329">
        <ele>151.1</ele>
        <time>2024-12-25T13:06:43Z</time>
      </trkpt>
      <trkpt lat="44.78233" lon="1.6033">
        <ele>151.1</ele>
        <time>2024-12-25T13:06:44Z</time>
      </trkpt>
      <trkpt lat="44.78232" lon="1.60332">
        <ele>151.1</ele>
        <time>2024-12-25T13:06:45Z</time>
      </trkpt>
      <trkpt lat="44.78231" lon="1.60333">
        <ele>151.1</ele>
        <time>2024-12-25T13:06:46Z</time>
      </trkpt>
      <trkpt lat="44.78229" lon="1.60335">
        <ele>151</ele>
        <time>2024-12-25T13:06:47Z</time>
      </trkpt>
      <trkpt lat="44.78229" lon="1.60336">
        <ele>151</ele>
        <time>2024-12-25T13:06:48Z</time>
      </trkpt>
      <trkpt lat="44.78228" lon="1.60337">
        <ele>151</ele>
        <time>2024-12-25T13:06:49Z</time>
      </trkpt>
      <trkpt lat="44.78227" lon="1.6034">
        <ele>151</ele>
        <time>2024-12-25T13:06:51Z</time>
      </trkpt>
      <trkpt lat="44.78226" lon="1.60342">
        <ele>151</ele>
        <time>2024-12-25T13:06:52Z</time>
      </trkpt>
      <trkpt lat="44.78225" lon="1.60343">
        <ele>151</ele>
        <time>2024-12-25T13:06:53Z</time>
      </trkpt>
      <trkpt lat="44.78225" lon="1.60344">
        <ele>151</ele>
        <time>2024-12-25T13:06:54Z</time>
      </trkpt>
      <trkpt lat="44.78224" lon="1.60345">
        <ele>151</ele>
        <time>2024-12-25T13:06:55Z</time>
      </trkpt>
      <trkpt lat="44.78223" lon="1.60347">
        <ele>151</ele>
        <time>2024-12-25T13:06:56Z</time>
      </trkpt>
      <trkpt lat="44.78222" lon="1.60348">
        <ele>151</ele>
        <time>2024-12-25T13:06:57Z</time>
      </trkpt>
      <trkpt lat="44.78222" lon="1.60349">
        <ele>151</ele>
        <time>2024-12-25T13:06:58Z</time>
      </trkpt>
      <trkpt lat="44.78221" lon="1.60351">
        <ele>151</ele>
        <time>2024-12-25T13:06:59Z</time>
      </trkpt>
      <trkpt lat="44.78222" lon="1.60353">
        <ele>151</ele>
        <time>2024-12-25T13:07:00Z</time>
      </trkpt>
      <trkpt lat="44.78222" lon="1.60354">
        <ele>151</ele>
        <time>2024-12-25T13:07:01Z</time>
      </trkpt>
      <trkpt lat="44.78223" lon="1.60356">
        <ele>151</ele>
        <time>2024-12-25T13:07:03Z</time>
      </trkpt>
      <trkpt lat="44.78224" lon="1.60358">
        <ele>151</ele>
        <time>2024-12-25T13:07:04Z</time>
      </trkpt>
      <trkpt lat="44.78225" lon="1.6036">
        <ele>151.1</ele>
        <time>2024-12-25T13:07:05Z</time>
      </trkpt>
      <trkpt lat="44.78227" lon="1.60362">
        <ele>151.1</ele>
        <time>2024-12-25T13:07:06Z</time>
      </trkpt>
      <trkpt lat="44.78227" lon="1.60363">
        <ele>151.1</ele>
        <time>2024-12-25T13:07:07Z</time>
      </trkpt>
      <trkpt lat="44.78228" lon="1.60364">
        <ele>151.1</ele>
        <time>2024-12-25T13:07:08Z</time>
      </trkpt>
      <trkpt lat="44.78229" lon="1.60369">
        <ele>151.1</ele>
        <time>2024-12-25T13:07:10Z</time>
      </trkpt>
      <trkpt lat="44.78229" lon="1.60371">
        <ele>151.1</ele>
        <time>2024-12-25T13:07:11Z</time>
      </trkpt>
      <trkpt lat="44.78229" lon="1.60372">
        <ele>151.1</ele>
        <time>2024-12-25T13:07:12Z</time>
      </trkpt>
      <trkpt lat="44.78228" lon="1.60374">
        <ele>151.1</ele>
        <time>2024-12-25T13:07:13Z</time>
      </trkpt>
      <trkpt lat="44.78228" lon="1.60376">
        <ele>151.1</ele>
        <time>2024-12-25T13:07:14Z</time>
      </trkpt>
      <trkpt lat="44.78227" lon="1.60378">
        <ele>151.1</ele>
        <time>2024-12-25T13:07:15Z</time>
      </trkpt>
      <trkpt lat="44.78226" lon="1.6038">
        <ele>151.1</ele>
        <time>2024-12-25T13:07:16Z</time>
      </trkpt>
      <trkpt lat="44.78226" lon="1.60381">
        <ele>151.1</ele>
        <time>2024-12-25T13:07:17Z</time>
      </trkpt>
      <trkpt lat="44.78225" lon="1.60382">
        <ele>151.1</ele>
        <time>2024-12-25T13:07:18Z</time>
      </trkpt>
      <trkpt lat="44.78224" lon="1.60384">
        <ele>151.1</ele>
        <time>2024-12-25T13:07:19Z</time>
      </trkpt>
      <trkpt lat="44.78223" lon="1.60385">
        <ele>151.1</ele>
        <time>2024-12-25T13:07:20Z</time>
      </trkpt>
      <trkpt lat="44.78223" lon="1.60386">
        <ele>151.1</ele>
        <time>2024-12-25T13:07:21Z</time>
      </trkpt>
      <trkpt lat="44.78221" lon="1.60389">
        <ele>151.1</ele>
        <time>2024-12-25T13:07:23Z</time>
      </trkpt>
      <trkpt lat="44.7822" lon="1.60391">
        <ele>151.1</ele>
        <time>2024-12-25T13:07:24Z</time>
      </trkpt>
      <trkpt lat="44.78219" lon="1.60395">
        <ele>151.2</ele>
        <time>2024-12-25T13:07:26Z</time>
      </trkpt>
      <trkpt lat="44.78218" lon="1.60397">
        <ele>151.2</ele>
        <time>2024-12-25T13:07:27Z</time>
      </trkpt>
      <trkpt lat="44.78217" lon="1.604">
        <ele>151.2</ele>
        <time>2024-12-25T13:07:28Z</time>
      </trkpt>
      <trkpt lat="44.78217" lon="1.60402">
        <ele>151.3</ele>
        <time>2024-12-25T13:07:30Z</time>
      </trkpt>
      <trkpt lat="44.78217" lon="1.60404">
        <ele>151.3</ele>
        <time>2024-12-25T13:07:31Z</time>
      </trkpt>
      <trkpt lat="44.78217" lon="1.60406">
        <ele>151.3</ele>
        <time>2024-12-25T13:07:32Z</time>
      </trkpt>
      <trkpt lat="44.78217" lon="1.60407">
        <ele>151.3</ele>
        <time>2024-12-25T13:07:33Z</time>
      </trkpt>
      <trkpt lat="44.78217" lon="1.60409">
        <ele>151.4</ele>
        <time>2024-12-25T13:07:35Z</time>
      </trkpt>
      <trkpt lat="44.78217" lon="1.60412">
        <ele>151.4</ele>
        <time>2024-12-25T13:07:36Z</time>
      </trkpt>
      <trkpt lat="44.78217" lon="1.60414">
        <ele>151.5</ele>
        <time>2024-12-25T13:07:37Z</time>
      </trkpt>
      <trkpt lat="44.78218" lon="1.60416">
        <ele>151.5</ele>
        <time>2024-12-25T13:07:38Z</time>
      </trkpt>
      <trkpt lat="44.78218" lon="1.60418">
        <ele>151.5</ele>
        <time>2024-12-25T13:07:40Z</time>
      </trkpt>
      <trkpt lat="44.78218" lon="1.6042">
        <ele>151.6</ele>
        <time>2024-12-25T13:07:41Z</time>
      </trkpt>
      <trkpt lat="44.78219" lon="1.60422">
        <ele>151.6</ele>
        <time>2024-12-25T13:07:42Z</time>
      </trkpt>
      <trkpt lat="44.7822" lon="1.60426">
        <ele>151.7</ele>
        <time>2024-12-25T13:07:43Z</time>
      </trkpt>
      <trkpt lat="44.78221" lon="1.60428">
        <ele>151.8</ele>
        <time>2024-12-25T13:07:44Z</time>
      </trkpt>
      <trkpt lat="44.78222" lon="1.60431">
        <ele>151.8</ele>
        <time>2024-12-25T13:07:45Z</time>
      </trkpt>
      <trkpt lat="44.78222" lon="1.60433">
        <ele>151.9</ele>
        <time>2024-12-25T13:07:47Z</time>
      </trkpt>
      <trkpt lat="44.78223" lon="1.60435">
        <ele>151.9</ele>
        <time>2024-12-25T13:07:48Z</time>
      </trkpt>
      <trkpt lat="44.78223" lon="1.60437">
        <ele>152</ele>
        <time>2024-12-25T13:07:49Z</time>
      </trkpt>
      <trkpt lat="44.78224" lon="1.60439">
        <ele>152</ele>
        <time>2024-12-25T13:07:50Z</time>
      </trkpt>
      <trkpt lat="44.78225" lon="1.6044">
        <ele>152.1</ele>
        <time>2024-12-25T13:07:51Z</time>
      </trkpt>
      <trkpt lat="44.78227" lon="1.60441">
        <ele>152.1</ele>
        <time>2024-12-25T13:07:53Z</time>
      </trkpt>
      <trkpt lat="44.78228" lon="1.60441">
        <ele>152.2</ele>
        <time>2024-12-25T13:07:54Z</time>
      </trkpt>
      <trkpt lat="44.78229" lon="1.60443">
        <ele>152.2</ele>
        <time>2024-12-25T13:07:55Z</time>
      </trkpt>
      <trkpt lat="44.78231" lon="1.60446">
        <ele>152.3</ele>
        <time>2024-12-25T13:07:57Z</time>
      </trkpt>
      <trkpt lat="44.78232" lon="1.60447">
        <ele>152.4</ele>
        <time>2024-12-25T13:07:58Z</time>
      </trkpt>
      <trkpt lat="44.78234" lon="1.60448">
        <ele>152.5</ele>
        <time>2024-12-25T13:07:59Z</time>
      </trkpt>
      <trkpt lat="44.78235" lon="1.60449">
        <ele>152.5</ele>
        <time>2024-12-25T13:08:00Z</time>
      </trkpt>
      <trkpt lat="44.78237" lon="1.60451">
        <ele>152.6</ele>
        <time>2024-12-25T13:08:02Z</time>
      </trkpt>
      <trkpt lat="44.78238" lon="1.60451">
        <ele>152.6</ele>
        <time>2024-12-25T13:08:03Z</time>
      </trkpt>
      <trkpt lat="44.78239" lon="1.60452">
        <ele>152.7</ele>
        <time>2024-12-25T13:08:04Z</time>
      </trkpt>
      <trkpt lat="44.78239" lon="1.60453">
        <ele>152.7</ele>
        <time>2024-12-25T13:08:05Z</time>
      </trkpt>
      <trkpt lat="44.7824" lon="1.60453">
        <ele>152.7</ele>
        <time>2024-12-25T13:08:06Z</time>
      </trkpt>
      <trkpt lat="44.78241" lon="1.60454">
        <ele>152.8</ele>
        <time>2024-12-25T13:08:07Z</time>
      </trkpt>
      <trkpt lat="44.78242" lon="1.60455">
        <ele>152.8</ele>
        <time>2024-12-25T13:08:09Z</time>
      </trkpt>
      <trkpt lat="44.78242" lon="1.60457">
        <ele>152.9</ele>
        <time>2024-12-25T13:08:10Z</time>
      </trkpt>
      <trkpt lat="44.78243" lon="1.6046">
        <ele>153</ele>
        <time>2024-12-25T13:08:11Z</time>
      </trkpt>
      <trkpt lat="44.78245" lon="1.60461">
        <ele>153</ele>
        <time>2024-12-25T13:08:13Z</time>
      </trkpt>
      <trkpt lat="44.78245" lon="1.60462">
        <ele>153</ele>
        <time>2024-12-25T13:08:14Z</time>
      </trkpt>
      <trkpt lat="44.78246" lon="1.60463">
        <ele>153.1</ele>
        <time>2024-12-25T13:08:15Z</time>
      </trkpt>
      <trkpt lat="44.78247" lon="1.60465">
        <ele>153.1</ele>
        <time>2024-12-25T13:08:16Z</time>
      </trkpt>
      <trkpt lat="44.78248" lon="1.60465">
        <ele>153.2</ele>
        <time>2024-12-25T13:08:17Z</time>
      </trkpt>
      <trkpt lat="44.78249" lon="1.60466">
        <ele>153.2</ele>
        <time>2024-12-25T13:08:18Z</time>
      </trkpt>
      <trkpt lat="44.78249" lon="1.60466">
        <ele>153.2</ele>
        <time>2024-12-25T13:08:19Z</time>
      </trkpt>
      <trkpt lat="44.7825" lon="1.60466">
        <ele>153.3</ele>
        <time>2024-12-25T13:08:20Z</time>
      </trkpt>
      <trkpt lat="44.78252" lon="1.60466">
        <ele>153.3</ele>
        <time>2024-12-25T13:08:21Z</time>
      </trkpt>
      <trkpt lat="44.78252" lon="1.60466">
        <ele>153.4</ele>
        <time>2024-12-25T13:08:22Z</time>
      </trkpt>
      <trkpt lat="44.78253" lon="1.60466">
        <ele>153.4</ele>
        <time>2024-12-25T13:08:23Z</time>
      </trkpt>
      <trkpt lat="44.78254" lon="1.60465">
        <ele>153.4</ele>
        <time>2024-12-25T13:08:24Z</time>
      </trkpt>
      <trkpt lat="44.78255" lon="1.60465">
        <ele>153.5</ele>
        <time>2024-12-25T13:08:25Z</time>
      </trkpt>
      <trkpt lat="44.78257" lon="1.60466">
        <ele>153.5</ele>
        <time>2024-12-25T13:08:26Z</time>
      </trkpt>
      <trkpt lat="44.78258" lon="1.60466">
        <ele>153.6</ele>
        <time>2024-12-25T13:08:27Z</time>
      </trkpt>
      <trkpt lat="44.78259" lon="1.60467">
        <ele>153.6</ele>
        <time>2024-12-25T13:08:29Z</time>
      </trkpt>
      <trkpt lat="44.78261" lon="1.60467">
        <ele>153.7</ele>
        <time>2024-12-25T13:08:30Z</time>
      </trkpt>
      <trkpt lat="44.78263" lon="1.60467">
        <ele>153.8</ele>
        <time>2024-12-25T13:08:32Z</time>
      </trkpt>
      <trkpt lat="44.78264" lon="1.60467">
        <ele>153.8</ele>
        <time>2024-12-25T13:08:33Z</time>
      </trkpt>
      <trkpt lat="44.78266" lon="1.60468">
        <ele>153.8</ele>
        <time>2024-12-25T13:08:34Z</time>
      </trkpt>
      <trkpt lat="44.78267" lon="1.60468">
        <ele>153.9</ele>
        <time>2024-12-25T13:08:35Z</time>
      </trkpt>
      <trkpt lat="44.78269" lon="1.60469">
        <ele>154</ele>
        <time>2024-12-25T13:08:37Z</time>
      </trkpt>
      <trkpt lat="44.7827" lon="1.6047">
        <ele>154</ele>
        <time>2024-12-25T13:08:38Z</time>
      </trkpt>
      <trkpt lat="44.78271" lon="1.60471">
        <ele>154.1</ele>
        <time>2024-12-25T13:08:39Z</time>
      </trkpt>
      <trkpt lat="44.78272" lon="1.60471">
        <ele>154.1</ele>
        <time>2024-12-25T13:08:41Z</time>
      </trkpt>
      <trkpt lat="44.78275" lon="1.60472">
        <ele>154.2</ele>
        <time>2024-12-25T13:08:42Z</time>
      </trkpt>
      <trkpt lat="44.78276" lon="1.60472">
        <ele>154.2</ele>
        <time>2024-12-25T13:08:43Z</time>
      </trkpt>
      <trkpt lat="44.78277" lon="1.60473">
        <ele>154.2</ele>
        <time>2024-12-25T13:08:44Z</time>
      </trkpt>
      <trkpt lat="44.78278" lon="1.60473">
        <ele>154.3</ele>
        <time>2024-12-25T13:08:45Z</time>
      </trkpt>
      <trkpt lat="44.78279" lon="1.60474">
        <ele>154.3</ele>
        <time>2024-12-25T13:08:46Z</time>
      </trkpt>
      <trkpt lat="44.7828" lon="1.60474">
        <ele>154.4</ele>
        <time>2024-12-25T13:08:47Z</time>
      </trkpt>
      <trkpt lat="44.78282" lon="1.60475">
        <ele>154.4</ele>
        <time>2024-12-25T13:08:48Z</time>
      </trkpt>
      <trkpt lat="44.78283" lon="1.60476">
        <ele>154.5</ele>
        <time>2024-12-25T13:08:49Z</time>
      </trkpt>
      <trkpt lat="44.78284" lon="1.60476">
        <ele>154.5</ele>
        <time>2024-12-25T13:08:50Z</time>
      </trkpt>
      <trkpt lat="44.78286" lon="1.60477">
        <ele>154.6</ele>
        <time>2024-12-25T13:08:52Z</time>
      </trkpt>
      <trkpt lat="44.78287" lon="1.60478">
        <ele>154.6</ele>
        <time>2024-12-25T13:08:53Z</time>
      </trkpt>
      <trkpt lat="44.78288" lon="1.60479">
        <ele>154.7</ele>
        <time>2024-12-25T13:08:54Z</time>
      </trkpt>
      <trkpt lat="44.7829" lon="1.60479">
        <ele>154.7</ele>
        <time>2024-12-25T13:08:55Z</time>
      </trkpt>
      <trkpt lat="44.78291" lon="1.6048">
        <ele>154.8</ele>
        <time>2024-12-25T13:08:56Z</time>
      </trkpt>
      <trkpt lat="44.78292" lon="1.60482">
        <ele>154.8</ele>
        <time>2024-12-25T13:08:57Z</time>
      </trkpt>
      <trkpt lat="44.78293" lon="1.60483">
        <ele>154.9</ele>
        <time>2024-12-25T13:08:58Z</time>
      </trkpt>
      <trkpt lat="44.78295" lon="1.60486">
        <ele>155</ele>
        <time>2024-12-25T13:09:00Z</time>
      </trkpt>
      <trkpt lat="44.78297" lon="1.60491">
        <ele>155.1</ele>
        <time>2024-12-25T13:09:02Z</time>
      </trkpt>
      <trkpt lat="44.78297" lon="1.60492">
        <ele>155.2</ele>
        <time>2024-12-25T13:09:03Z</time>
      </trkpt>
      <trkpt lat="44.78298" lon="1.60493">
        <ele>155.2</ele>
        <time>2024-12-25T13:09:04Z</time>
      </trkpt>
      <trkpt lat="44.78298" lon="1.60494">
        <ele>155.3</ele>
        <time>2024-12-25T13:09:05Z</time>
      </trkpt>
      <trkpt lat="44.78299" lon="1.60495">
        <ele>155.3</ele>
        <time>2024-12-25T13:09:06Z</time>
      </trkpt>
      <trkpt lat="44.783" lon="1.60497">
        <ele>155.3</ele>
        <time>2024-12-25T13:09:07Z</time>
      </trkpt>
      <trkpt lat="44.783" lon="1.605">
        <ele>155.4</ele>
        <time>2024-12-25T13:09:09Z</time>
      </trkpt>
      <trkpt lat="44.783" lon="1.60501">
        <ele>155.5</ele>
        <time>2024-12-25T13:09:10Z</time>
      </trkpt>
      <trkpt lat="44.78301" lon="1.60502">
        <ele>155.5</ele>
        <time>2024-12-25T13:09:11Z</time>
      </trkpt>
      <trkpt lat="44.78302" lon="1.60505">
        <ele>155.6</ele>
        <time>2024-12-25T13:09:12Z</time>
      </trkpt>
      <trkpt lat="44.78302" lon="1.60506">
        <ele>155.7</ele>
        <time>2024-12-25T13:09:13Z</time>
      </trkpt>
      <trkpt lat="44.78304" lon="1.6051">
        <ele>155.8</ele>
        <time>2024-12-25T13:09:14Z</time>
      </trkpt>
      <trkpt lat="44.78305" lon="1.60511">
        <ele>155.8</ele>
        <time>2024-12-25T13:09:15Z</time>
      </trkpt>
      <trkpt lat="44.78306" lon="1.60519">
        <ele>156.1</ele>
        <time>2024-12-25T13:09:16Z</time>
      </trkpt>
      <trkpt lat="44.78307" lon="1.60523">
        <ele>156.2</ele>
        <time>2024-12-25T13:09:17Z</time>
      </trkpt>
      <trkpt lat="44.78307" lon="1.60524">
        <ele>156.2</ele>
        <time>2024-12-25T13:09:18Z</time>
      </trkpt>
      <trkpt lat="44.78308" lon="1.60527">
        <ele>156.3</ele>
        <time>2024-12-25T13:09:19Z</time>
      </trkpt>
      <trkpt lat="44.78308" lon="1.60528">
        <ele>156.3</ele>
        <time>2024-12-25T13:09:20Z</time>
      </trkpt>
      <trkpt lat="44.78308" lon="1.60529">
        <ele>156.4</ele>
        <time>2024-12-25T13:09:21Z</time>
      </trkpt>
      <trkpt lat="44.78308" lon="1.60531">
        <ele>156.4</ele>
        <time>2024-12-25T13:09:22Z</time>
      </trkpt>
      <trkpt lat="44.78308" lon="1.60533">
        <ele>156.5</ele>
        <time>2024-12-25T13:09:23Z</time>
      </trkpt>
      <trkpt lat="44.78308" lon="1.60534">
        <ele>156.5</ele>
        <time>2024-12-25T13:09:24Z</time>
      </trkpt>
      <trkpt lat="44.78308" lon="1.60537">
        <ele>156.6</ele>
        <time>2024-12-25T13:09:25Z</time>
      </trkpt>
      <trkpt lat="44.78308" lon="1.60538">
        <ele>156.6</ele>
        <time>2024-12-25T13:09:26Z</time>
      </trkpt>
      <trkpt lat="44.78308" lon="1.60539">
        <ele>156.7</ele>
        <time>2024-12-25T13:09:27Z</time>
      </trkpt>
      <trkpt lat="44.78307" lon="1.60541">
        <ele>156.7</ele>
        <time>2024-12-25T13:09:28Z</time>
      </trkpt>
      <trkpt lat="44.78307" lon="1.60543">
        <ele>156.8</ele>
        <time>2024-12-25T13:09:29Z</time>
      </trkpt>
      <trkpt lat="44.78307" lon="1.60545">
        <ele>156.8</ele>
        <time>2024-12-25T13:09:30Z</time>
      </trkpt>
      <trkpt lat="44.78307" lon="1.60547">
        <ele>156.9</ele>
        <time>2024-12-25T13:09:31Z</time>
      </trkpt>
      <trkpt lat="44.78308" lon="1.60549">
        <ele>156.9</ele>
        <time>2024-12-25T13:09:32Z</time>
      </trkpt>
      <trkpt lat="44.78307" lon="1.60551">
        <ele>157</ele>
        <time>2024-12-25T13:09:33Z</time>
      </trkpt>
      <trkpt lat="44.78307" lon="1.60554">
        <ele>157.1</ele>
        <time>2024-12-25T13:09:34Z</time>
      </trkpt>
      <trkpt lat="44.78307" lon="1.60555">
        <ele>157.1</ele>
        <time>2024-12-25T13:09:35Z</time>
      </trkpt>
      <trkpt lat="44.78307" lon="1.60557">
        <ele>157.1</ele>
        <time>2024-12-25T13:09:36Z</time>
      </trkpt>
      <trkpt lat="44.78307" lon="1.60559">
        <ele>157.2</ele>
        <time>2024-12-25T13:09:37Z</time>
      </trkpt>
      <trkpt lat="44.78307" lon="1.60561">
        <ele>157.2</ele>
        <time>2024-12-25T13:09:38Z</time>
      </trkpt>
      <trkpt lat="44.78307" lon="1.60562">
        <ele>157.2</ele>
        <time>2024-12-25T13:09:39Z</time>
      </trkpt>
      <trkpt lat="44.78308" lon="1.60565">
        <ele>157.3</ele>
        <time>2024-12-25T13:09:41Z</time>
      </trkpt>
      <trkpt lat="44.78309" lon="1.60567">
        <ele>157.3</ele>
        <time>2024-12-25T13:09:42Z</time>
      </trkpt>
      <trkpt lat="44.78309" lon="1.60569">
        <ele>157.4</ele>
        <time>2024-12-25T13:09:43Z</time>
      </trkpt>
      <trkpt lat="44.78309" lon="1.6057">
        <ele>157.4</ele>
        <time>2024-12-25T13:09:44Z</time>
      </trkpt>
      <trkpt lat="44.78309" lon="1.60573">
        <ele>157.5</ele>
        <time>2024-12-25T13:09:45Z</time>
      </trkpt>
      <trkpt lat="44.78309" lon="1.60574">
        <ele>157.5</ele>
        <time>2024-12-25T13:09:46Z</time>
      </trkpt>
      <trkpt lat="44.78309" lon="1.60575">
        <ele>157.5</ele>
        <time>2024-12-25T13:09:47Z</time>
      </trkpt>
      <trkpt lat="44.78309" lon="1.60577">
        <ele>157.5</ele>
        <time>2024-12-25T13:09:48Z</time>
      </trkpt>
      <trkpt lat="44.78309" lon="1.60578">
        <ele>157.5</ele>
        <time>2024-12-25T13:09:49Z</time>
      </trkpt>
      <trkpt lat="44.78309" lon="1.6058">
        <ele>157.6</ele>
        <time>2024-12-25T13:09:50Z</time>
      </trkpt>
      <trkpt lat="44.78308" lon="1.60581">
        <ele>157.6</ele>
        <time>2024-12-25T13:09:51Z</time>
      </trkpt>
      <trkpt lat="44.78308" lon="1.60583">
        <ele>157.6</ele>
        <time>2024-12-25T13:09:52Z</time>
      </trkpt>
      <trkpt lat="44.78308" lon="1.60584">
        <ele>157.6</ele>
        <time>2024-12-25T13:09:54Z</time>
      </trkpt>
      <trkpt lat="44.78308" lon="1.60585">
        <ele>157.6</ele>
        <time>2024-12-25T13:09:55Z</time>
      </trkpt>
      <trkpt lat="44.78307" lon="1.60588">
        <ele>157.7</ele>
        <time>2024-12-25T13:09:56Z</time>
      </trkpt>
      <trkpt lat="44.78306" lon="1.60589">
        <ele>157.7</ele>
        <time>2024-12-25T13:09:57Z</time>
      </trkpt>
      <trkpt lat="44.78305" lon="1.60591">
        <ele>157.7</ele>
        <time>2024-12-25T13:09:58Z</time>
      </trkpt>
      <trkpt lat="44.78305" lon="1.60592">
        <ele>157.8</ele>
        <time>2024-12-25T13:10:00Z</time>
      </trkpt>
      <trkpt lat="44.78303" lon="1.60595">
        <ele>157.8</ele>
        <time>2024-12-25T13:10:01Z</time>
      </trkpt>
      <trkpt lat="44.78303" lon="1.60596">
        <ele>157.8</ele>
        <time>2024-12-25T13:10:02Z</time>
      </trkpt>
      <trkpt lat="44.78302" lon="1.60596">
        <ele>157.8</ele>
        <time>2024-12-25T13:10:03Z</time>
      </trkpt>
      <trkpt lat="44.783" lon="1.60598">
        <ele>157.9</ele>
        <time>2024-12-25T13:10:04Z</time>
      </trkpt>
      <trkpt lat="44.78299" lon="1.60599">
        <ele>157.9</ele>
        <time>2024-12-25T13:10:05Z</time>
      </trkpt>
      <trkpt lat="44.78299" lon="1.60599">
        <ele>157.9</ele>
        <time>2024-12-25T13:10:06Z</time>
      </trkpt>
      <trkpt lat="44.78297" lon="1.60601">
        <ele>157.9</ele>
        <time>2024-12-25T13:10:07Z</time>
      </trkpt>
      <trkpt lat="44.78296" lon="1.60602">
        <ele>157.9</ele>
        <time>2024-12-25T13:10:08Z</time>
      </trkpt>
      <trkpt lat="44.78295" lon="1.60602">
        <ele>157.9</ele>
        <time>2024-12-25T13:10:09Z</time>
      </trkpt>
      <trkpt lat="44.78294" lon="1.60603">
        <ele>157.9</ele>
        <time>2024-12-25T13:10:11Z</time>
      </trkpt>
      <trkpt lat="44.78293" lon="1.60604">
        <ele>158</ele>
        <time>2024-12-25T13:10:12Z</time>
      </trkpt>
      <trkpt lat="44.7829" lon="1.60606">
        <ele>158</ele>
        <time>2024-12-25T13:10:13Z</time>
      </trkpt>
      <trkpt lat="44.78289" lon="1.60607">
        <ele>158</ele>
        <time>2024-12-25T13:10:15Z</time>
      </trkpt>
      <trkpt lat="44.78286" lon="1.6061">
        <ele>158</ele>
        <time>2024-12-25T13:10:16Z</time>
      </trkpt>
      <trkpt lat="44.78286" lon="1.6061">
        <ele>158</ele>
        <time>2024-12-25T13:10:17Z</time>
      </trkpt>
      <trkpt lat="44.78285" lon="1.60611">
        <ele>158</ele>
        <time>2024-12-25T13:10:18Z</time>
      </trkpt>
      <trkpt lat="44.78284" lon="1.60612">
        <ele>158</ele>
        <time>2024-12-25T13:10:19Z</time>
      </trkpt>
      <trkpt lat="44.78283" lon="1.60611">
        <ele>158</ele>
        <time>2024-12-25T13:10:21Z</time>
      </trkpt>
      <trkpt lat="44.78282" lon="1.6061">
        <ele>158</ele>
        <time>2024-12-25T13:10:22Z</time>
      </trkpt>
      <trkpt lat="44.78281" lon="1.60609">
        <ele>158</ele>
        <time>2024-12-25T13:10:24Z</time>
      </trkpt>
      <trkpt lat="44.7828" lon="1.60607">
        <ele>158.1</ele>
        <time>2024-12-25T13:10:25Z</time>
      </trkpt>
      <trkpt lat="44.7828" lon="1.60604">
        <ele>158.1</ele>
        <time>2024-12-25T13:10:27Z</time>
      </trkpt>
      <trkpt lat="44.78279" lon="1.60603">
        <ele>158.1</ele>
        <time>2024-12-25T13:10:28Z</time>
      </trkpt>
      <trkpt lat="44.78278" lon="1.60602">
        <ele>158.1</ele>
        <time>2024-12-25T13:10:29Z</time>
      </trkpt>
      <trkpt lat="44.78278" lon="1.60601">
        <ele>158.1</ele>
        <time>2024-12-25T13:10:30Z</time>
      </trkpt>
      <trkpt lat="44.78278" lon="1.60599">
        <ele>158.1</ele>
        <time>2024-12-25T13:10:31Z</time>
      </trkpt>
      <trkpt lat="44.78278" lon="1.60598">
        <ele>158.1</ele>
        <time>2024-12-25T13:10:32Z</time>
      </trkpt>
      <trkpt lat="44.78277" lon="1.60596">
        <ele>158.1</ele>
        <time>2024-12-25T13:10:34Z</time>
      </trkpt>
      <trkpt lat="44.78277" lon="1.60597">
        <ele>158.1</ele>
        <time>2024-12-25T13:10:35Z</time>
      </trkpt>
      <trkpt lat="44.78276" lon="1.60597">
        <ele>158.1</ele>
        <time>2024-12-25T13:10:37Z</time>
      </trkpt>
      <trkpt lat="44.78275" lon="1.60597">
        <ele>158.1</ele>
        <time>2024-12-25T13:10:38Z</time>
      </trkpt>
      <trkpt lat="44.78274" lon="1.60597">
        <ele>158.1</ele>
        <time>2024-12-25T13:10:39Z</time>
      </trkpt>
      <trkpt lat="44.78273" lon="1.60596">
        <ele>158.2</ele>
        <time>2024-12-25T13:10:40Z</time>
      </trkpt>
      <trkpt lat="44.78272" lon="1.60596">
        <ele>158.2</ele>
        <time>2024-12-25T13:10:41Z</time>
      </trkpt>
      <trkpt lat="44.78272" lon="1.60597">
        <ele>158.2</ele>
        <time>2024-12-25T13:10:42Z</time>
      </trkpt>
      <trkpt lat="44.78271" lon="1.60597">
        <ele>158.2</ele>
        <time>2024-12-25T13:10:43Z</time>
      </trkpt>
      <trkpt lat="44.7827" lon="1.60597">
        <ele>158.2</ele>
        <time>2024-12-25T13:10:45Z</time>
      </trkpt>
      <trkpt lat="44.78267" lon="1.60595">
        <ele>158.2</ele>
        <time>2024-12-25T13:10:46Z</time>
      </trkpt>
      <trkpt lat="44.78267" lon="1.60595">
        <ele>158.2</ele>
        <time>2024-12-25T13:10:48Z</time>
      </trkpt>
      <trkpt lat="44.78265" lon="1.60596">
        <ele>158.2</ele>
        <time>2024-12-25T13:10:49Z</time>
      </trkpt>
      <trkpt lat="44.78263" lon="1.60596">
        <ele>158.3</ele>
        <time>2024-12-25T13:10:50Z</time>
      </trkpt>
      <trkpt lat="44.78262" lon="1.60597">
        <ele>158.3</ele>
        <time>2024-12-25T13:10:51Z</time>
      </trkpt>
      <trkpt lat="44.78262" lon="1.60598">
        <ele>158.3</ele>
        <time>2024-12-25T13:10:53Z</time>
      </trkpt>
      <trkpt lat="44.78262" lon="1.60599">
        <ele>158.3</ele>
        <time>2024-12-25T13:10:54Z</time>
      </trkpt>
      <trkpt lat="44.78262" lon="1.60599">
        <ele>158.3</ele>
        <time>2024-12-25T13:10:56Z</time>
      </trkpt>
      <trkpt lat="44.78262" lon="1.606">
        <ele>158.4</ele>
        <time>2024-12-25T13:10:57Z</time>
      </trkpt>
      <trkpt lat="44.78262" lon="1.60601">
        <ele>158.4</ele>
        <time>2024-12-25T13:10:58Z</time>
      </trkpt>
      <trkpt lat="44.78262" lon="1.60601">
        <ele>158.4</ele>
        <time>2024-12-25T13:10:59Z</time>
      </trkpt>
      <trkpt lat="44.78262" lon="1.60602">
        <ele>158.4</ele>
        <time>2024-12-25T13:11:01Z</time>
      </trkpt>
      <trkpt lat="44.78262" lon="1.60603">
        <ele>158.4</ele>
        <time>2024-12-25T13:11:02Z</time>
      </trkpt>
      <trkpt lat="44.78262" lon="1.60607">
        <ele>158.5</ele>
        <time>2024-12-25T13:11:04Z</time>
      </trkpt>
      <trkpt lat="44.78262" lon="1.60608">
        <ele>158.5</ele>
        <time>2024-12-25T13:11:05Z</time>
      </trkpt>
      <trkpt lat="44.78262" lon="1.60613">
        <ele>158.6</ele>
        <time>2024-12-25T13:11:06Z</time>
      </trkpt>
      <trkpt lat="44.78263" lon="1.60615">
        <ele>158.6</ele>
        <time>2024-12-25T13:11:08Z</time>
      </trkpt>
      <trkpt lat="44.78264" lon="1.60615">
        <ele>158.7</ele>
        <time>2024-12-25T13:11:09Z</time>
      </trkpt>
      <trkpt lat="44.78263" lon="1.60615">
        <ele>158.7</ele>
        <time>2024-12-25T13:11:10Z</time>
      </trkpt>
      <trkpt lat="44.78262" lon="1.60615">
        <ele>158.8</ele>
        <time>2024-12-25T13:11:11Z</time>
      </trkpt>
      <trkpt lat="44.78261" lon="1.60616">
        <ele>158.9</ele>
        <time>2024-12-25T13:11:12Z</time>
      </trkpt>
      <trkpt lat="44.7826" lon="1.60617">
        <ele>158.9</ele>
        <time>2024-12-25T13:11:14Z</time>
      </trkpt>
      <trkpt lat="44.78259" lon="1.60617">
        <ele>159</ele>
        <time>2024-12-25T13:11:15Z</time>
      </trkpt>
      <trkpt lat="44.78258" lon="1.60618">
        <ele>159</ele>
        <time>2024-12-25T13:11:16Z</time>
      </trkpt>
      <trkpt lat="44.78257" lon="1.6062">
        <ele>159.1</ele>
        <time>2024-12-25T13:11:17Z</time>
      </trkpt>
      <trkpt lat="44.78255" lon="1.60622">
        <ele>159.1</ele>
        <time>2024-12-25T13:11:19Z</time>
      </trkpt>
      <trkpt lat="44.78254" lon="1.60626">
        <ele>159.2</ele>
        <time>2024-12-25T13:11:20Z</time>
      </trkpt>
      <trkpt lat="44.78254" lon="1.60629">
        <ele>159.3</ele>
        <time>2024-12-25T13:11:21Z</time>
      </trkpt>
      <trkpt lat="44.78254" lon="1.60631">
        <ele>159.3</ele>
        <time>2024-12-25T13:11:22Z</time>
      </trkpt>
      <trkpt lat="44.78254" lon="1.60633">
        <ele>159.4</ele>
        <time>2024-12-25T13:11:23Z</time>
      </trkpt>
      <trkpt lat="44.78254" lon="1.60635">
        <ele>159.4</ele>
        <time>2024-12-25T13:11:25Z</time>
      </trkpt>
      <trkpt lat="44.78255" lon="1.6064">
        <ele>159.5</ele>
        <time>2024-12-25T13:11:26Z</time>
      </trkpt>
      <trkpt lat="44.78255" lon="1.60641">
        <ele>159.6</ele>
        <time>2024-12-25T13:11:27Z</time>
      </trkpt>
      <trkpt lat="44.78256" lon="1.60643">
        <ele>159.6</ele>
        <time>2024-12-25T13:11:29Z</time>
      </trkpt>
      <trkpt lat="44.78257" lon="1.60647">
        <ele>159.8</ele>
        <time>2024-12-25T13:11:30Z</time>
      </trkpt>
      <trkpt lat="44.78259" lon="1.60652">
        <ele>159.9</ele>
        <time>2024-12-25T13:11:32Z</time>
      </trkpt>
      <trkpt lat="44.78259" lon="1.60653">
        <ele>159.9</ele>
        <time>2024-12-25T13:11:33Z</time>
      </trkpt>
      <trkpt lat="44.7826" lon="1.60654">
        <ele>160</ele>
        <time>2024-12-25T13:11:35Z</time>
      </trkpt>
      <trkpt lat="44.7826" lon="1.60655">
        <ele>160</ele>
        <time>2024-12-25T13:11:36Z</time>
      </trkpt>
      <trkpt lat="44.78262" lon="1.6066">
        <ele>160.1</ele>
        <time>2024-12-25T13:11:37Z</time>
      </trkpt>
      <trkpt lat="44.78262" lon="1.60662">
        <ele>160.1</ele>
        <time>2024-12-25T13:11:39Z</time>
      </trkpt>
      <trkpt lat="44.78262" lon="1.60664">
        <ele>160.2</ele>
        <time>2024-12-25T13:11:40Z</time>
      </trkpt>
      <trkpt lat="44.78263" lon="1.60665">
        <ele>160.2</ele>
        <time>2024-12-25T13:11:41Z</time>
      </trkpt>
      <trkpt lat="44.78263" lon="1.60667">
        <ele>160.3</ele>
        <time>2024-12-25T13:11:43Z</time>
      </trkpt>
      <trkpt lat="44.78263" lon="1.6067">
        <ele>160.4</ele>
        <time>2024-12-25T13:11:44Z</time>
      </trkpt>
      <trkpt lat="44.78264" lon="1.60673">
        <ele>160.5</ele>
        <time>2024-12-25T13:11:46Z</time>
      </trkpt>
      <trkpt lat="44.78264" lon="1.60675">
        <ele>160.5</ele>
        <time>2024-12-25T13:11:47Z</time>
      </trkpt>
      <trkpt lat="44.78265" lon="1.60677">
        <ele>160.6</ele>
        <time>2024-12-25T13:11:48Z</time>
      </trkpt>
      <trkpt lat="44.78265" lon="1.60678">
        <ele>160.6</ele>
        <time>2024-12-25T13:11:50Z</time>
      </trkpt>
      <trkpt lat="44.78266" lon="1.60682">
        <ele>160.7</ele>
        <time>2024-12-25T13:11:51Z</time>
      </trkpt>
      <trkpt lat="44.78267" lon="1.60683">
        <ele>160.8</ele>
        <time>2024-12-25T13:11:52Z</time>
      </trkpt>
      <trkpt lat="44.78267" lon="1.60684">
        <ele>160.9</ele>
        <time>2024-12-25T13:11:54Z</time>
      </trkpt>
      <trkpt lat="44.78268" lon="1.60688">
        <ele>161</ele>
        <time>2024-12-25T13:11:55Z</time>
      </trkpt>
      <trkpt lat="44.78269" lon="1.6069">
        <ele>161.1</ele>
        <time>2024-12-25T13:11:56Z</time>
      </trkpt>
      <trkpt lat="44.78269" lon="1.60692">
        <ele>161.1</ele>
        <time>2024-12-25T13:11:57Z</time>
      </trkpt>
      <trkpt lat="44.78269" lon="1.60693">
        <ele>161.1</ele>
        <time>2024-12-25T13:11:58Z</time>
      </trkpt>
      <trkpt lat="44.7827" lon="1.60695">
        <ele>161.2</ele>
        <time>2024-12-25T13:11:59Z</time>
      </trkpt>
      <trkpt lat="44.7827" lon="1.60699">
        <ele>161.3</ele>
        <time>2024-12-25T13:12:01Z</time>
      </trkpt>
      <trkpt lat="44.7827" lon="1.607">
        <ele>161.4</ele>
        <time>2024-12-25T13:12:02Z</time>
      </trkpt>
      <trkpt lat="44.78271" lon="1.60701">
        <ele>161.4</ele>
        <time>2024-12-25T13:12:03Z</time>
      </trkpt>
      <trkpt lat="44.78271" lon="1.60703">
        <ele>161.5</ele>
        <time>2024-12-25T13:12:04Z</time>
      </trkpt>
      <trkpt lat="44.78271" lon="1.60708">
        <ele>161.6</ele>
        <time>2024-12-25T13:12:06Z</time>
      </trkpt>
      <trkpt lat="44.78271" lon="1.6071">
        <ele>161.7</ele>
        <time>2024-12-25T13:12:08Z</time>
      </trkpt>
      <trkpt lat="44.78271" lon="1.60712">
        <ele>161.8</ele>
        <time>2024-12-25T13:12:09Z</time>
      </trkpt>
      <trkpt lat="44.78271" lon="1.60714">
        <ele>161.8</ele>
        <time>2024-12-25T13:12:11Z</time>
      </trkpt>
      <trkpt lat="44.78271" lon="1.60715">
        <ele>161.9</ele>
        <time>2024-12-25T13:12:12Z</time>
      </trkpt>
      <trkpt lat="44.78271" lon="1.60718">
        <ele>161.9</ele>
        <time>2024-12-25T13:12:13Z</time>
      </trkpt>
      <trkpt lat="44.7827" lon="1.6072">
        <ele>162</ele>
        <time>2024-12-25T13:12:14Z</time>
      </trkpt>
      <trkpt lat="44.7827" lon="1.60721">
        <ele>162</ele>
        <time>2024-12-25T13:12:15Z</time>
      </trkpt>
      <trkpt lat="44.7827" lon="1.60723">
        <ele>162.1</ele>
        <time>2024-12-25T13:12:16Z</time>
      </trkpt>
      <trkpt lat="44.7827" lon="1.60724">
        <ele>162.1</ele>
        <time>2024-12-25T13:12:17Z</time>
      </trkpt>
      <trkpt lat="44.7827" lon="1.60726">
        <ele>162.2</ele>
        <time>2024-12-25T13:12:19Z</time>
      </trkpt>
      <trkpt lat="44.7827" lon="1.60728">
        <ele>162.2</ele>
        <time>2024-12-25T13:12:20Z</time>
      </trkpt>
      <trkpt lat="44.78271" lon="1.60729">
        <ele>162.3</ele>
        <time>2024-12-25T13:12:21Z</time>
      </trkpt>
      <trkpt lat="44.78271" lon="1.6073">
        <ele>162.4</ele>
        <time>2024-12-25T13:12:22Z</time>
      </trkpt>
      <trkpt lat="44.78271" lon="1.60732">
        <ele>162.4</ele>
        <time>2024-12-25T13:12:23Z</time>
      </trkpt>
      <trkpt lat="44.78272" lon="1.60733">
        <ele>162.4</ele>
        <time>2024-12-25T13:12:25Z</time>
      </trkpt>
      <trkpt lat="44.78273" lon="1.60738">
        <ele>162.5</ele>
        <time>2024-12-25T13:12:26Z</time>
      </trkpt>
      <trkpt lat="44.78273" lon="1.60739">
        <ele>162.6</ele>
        <time>2024-12-25T13:12:27Z</time>
      </trkpt>
      <trkpt lat="44.78274" lon="1.6074">
        <ele>162.6</ele>
        <time>2024-12-25T13:12:29Z</time>
      </trkpt>
      <trkpt lat="44.78276" lon="1.60743">
        <ele>162.7</ele>
        <time>2024-12-25T13:12:30Z</time>
      </trkpt>
      <trkpt lat="44.78277" lon="1.60745">
        <ele>162.8</ele>
        <time>2024-12-25T13:12:31Z</time>
      </trkpt>
      <trkpt lat="44.78278" lon="1.60749">
        <ele>162.9</ele>
        <time>2024-12-25T13:12:33Z</time>
      </trkpt>
      <trkpt lat="44.78278" lon="1.6075">
        <ele>163</ele>
        <time>2024-12-25T13:12:34Z</time>
      </trkpt>
      <trkpt lat="44.7828" lon="1.60753">
        <ele>163.1</ele>
        <time>2024-12-25T13:12:36Z</time>
      </trkpt>
      <trkpt lat="44.7828" lon="1.60755">
        <ele>163.2</ele>
        <time>2024-12-25T13:12:37Z</time>
      </trkpt>
      <trkpt lat="44.78281" lon="1.60756">
        <ele>163.2</ele>
        <time>2024-12-25T13:12:38Z</time>
      </trkpt>
      <trkpt lat="44.78282" lon="1.60758">
        <ele>163.2</ele>
        <time>2024-12-25T13:12:40Z</time>
      </trkpt>
      <trkpt lat="44.78283" lon="1.60762">
        <ele>163.4</ele>
        <time>2024-12-25T13:12:41Z</time>
      </trkpt>
      <trkpt lat="44.78285" lon="1.60764">
        <ele>163.4</ele>
        <time>2024-12-25T13:12:42Z</time>
      </trkpt>
      <trkpt lat="44.78286" lon="1.60764">
        <ele>163.5</ele>
        <time>2024-12-25T13:12:43Z</time>
      </trkpt>
      <trkpt lat="44.78287" lon="1.60765">
        <ele>163.5</ele>
        <time>2024-12-25T13:12:44Z</time>
      </trkpt>
      <trkpt lat="44.78289" lon="1.60767">
        <ele>163.6</ele>
        <time>2024-12-25T13:12:45Z</time>
      </trkpt>
      <trkpt lat="44.7829" lon="1.60768">
        <ele>163.6</ele>
        <time>2024-12-25T13:12:46Z</time>
      </trkpt>
      <trkpt lat="44.78292" lon="1.60769">
        <ele>163.7</ele>
        <time>2024-12-25T13:12:48Z</time>
      </trkpt>
      <trkpt lat="44.78293" lon="1.6077">
        <ele>163.8</ele>
        <time>2024-12-25T13:12:49Z</time>
      </trkpt>
      <trkpt lat="44.78296" lon="1.60771">
        <ele>164</ele>
        <time>2024-12-25T13:12:50Z</time>
      </trkpt>
      <trkpt lat="44.78297" lon="1.60772">
        <ele>164</ele>
        <time>2024-12-25T13:12:51Z</time>
      </trkpt>
      <trkpt lat="44.783" lon="1.60771">
        <ele>164.1</ele>
        <time>2024-12-25T13:12:53Z</time>
      </trkpt>
      <trkpt lat="44.78302" lon="1.6077">
        <ele>164.2</ele>
        <time>2024-12-25T13:12:54Z</time>
      </trkpt>
      <trkpt lat="44.78303" lon="1.6077">
        <ele>164.3</ele>
        <time>2024-12-25T13:12:56Z</time>
      </trkpt>
      <trkpt lat="44.78305" lon="1.60771">
        <ele>164.3</ele>
        <time>2024-12-25T13:12:57Z</time>
      </trkpt>
      <trkpt lat="44.78306" lon="1.60772">
        <ele>164.4</ele>
        <time>2024-12-25T13:12:58Z</time>
      </trkpt>
      <trkpt lat="44.78308" lon="1.60773">
        <ele>164.5</ele>
        <time>2024-12-25T13:13:00Z</time>
      </trkpt>
      <trkpt lat="44.78309" lon="1.60775">
        <ele>164.6</ele>
        <time>2024-12-25T13:13:01Z</time>
      </trkpt>
      <trkpt lat="44.78311" lon="1.60777">
        <ele>164.7</ele>
        <time>2024-12-25T13:13:02Z</time>
      </trkpt>
      <trkpt lat="44.78311" lon="1.60778">
        <ele>164.7</ele>
        <time>2024-12-25T13:13:03Z</time>
      </trkpt>
      <trkpt lat="44.78312" lon="1.60779">
        <ele>164.8</ele>
        <time>2024-12-25T13:13:04Z</time>
      </trkpt>
      <trkpt lat="44.78313" lon="1.6078">
        <ele>164.9</ele>
        <time>2024-12-25T13:13:05Z</time>
      </trkpt>
      <trkpt lat="44.78314" lon="1.60781">
        <ele>165</ele>
        <time>2024-12-25T13:13:07Z</time>
      </trkpt>
      <trkpt lat="44.78315" lon="1.60783">
        <ele>165.1</ele>
        <time>2024-12-25T13:13:08Z</time>
      </trkpt>
      <trkpt lat="44.78316" lon="1.60784">
        <ele>165.1</ele>
        <time>2024-12-25T13:13:09Z</time>
      </trkpt>
      <trkpt lat="44.78318" lon="1.60786">
        <ele>165.3</ele>
        <time>2024-12-25T13:13:11Z</time>
      </trkpt>
      <trkpt lat="44.78319" lon="1.60787">
        <ele>165.3</ele>
        <time>2024-12-25T13:13:12Z</time>
      </trkpt>
      <trkpt lat="44.7832" lon="1.60788">
        <ele>165.4</ele>
        <time>2024-12-25T13:13:14Z</time>
      </trkpt>
      <trkpt lat="44.78321" lon="1.6079">
        <ele>165.5</ele>
        <time>2024-12-25T13:13:15Z</time>
      </trkpt>
      <trkpt lat="44.78323" lon="1.60792">
        <ele>165.6</ele>
        <time>2024-12-25T13:13:16Z</time>
      </trkpt>
      <trkpt lat="44.78325" lon="1.60794">
        <ele>165.8</ele>
        <time>2024-12-25T13:13:18Z</time>
      </trkpt>
      <trkpt lat="44.78325" lon="1.60796">
        <ele>165.8</ele>
        <time>2024-12-25T13:13:19Z</time>
      </trkpt>
      <trkpt lat="44.78326" lon="1.60798">
        <ele>165.9</ele>
        <time>2024-12-25T13:13:21Z</time>
      </trkpt>
      <trkpt lat="44.78326" lon="1.60799">
        <ele>166</ele>
        <time>2024-12-25T13:13:22Z</time>
      </trkpt>
      <trkpt lat="44.78327" lon="1.60802">
        <ele>166.1</ele>
        <time>2024-12-25T13:13:23Z</time>
      </trkpt>
      <trkpt lat="44.78328" lon="1.60805">
        <ele>166.2</ele>
        <time>2024-12-25T13:13:25Z</time>
      </trkpt>
      <trkpt lat="44.7833" lon="1.60806">
        <ele>166.3</ele>
        <time>2024-12-25T13:13:27Z</time>
      </trkpt>
      <trkpt lat="44.7833" lon="1.60809">
        <ele>166.5</ele>
        <time>2024-12-25T13:13:29Z</time>
      </trkpt>
      <trkpt lat="44.78331" lon="1.60812">
        <ele>166.6</ele>
        <time>2024-12-25T13:13:31Z</time>
      </trkpt>
      <trkpt lat="44.78331" lon="1.60814">
        <ele>166.6</ele>
        <time>2024-12-25T13:13:32Z</time>
      </trkpt>
      <trkpt lat="44.78332" lon="1.60818">
        <ele>166.8</ele>
        <time>2024-12-25T13:13:34Z</time>
      </trkpt>
      <trkpt lat="44.78332" lon="1.60819">
        <ele>166.8</ele>
        <time>2024-12-25T13:13:35Z</time>
      </trkpt>
      <trkpt lat="44.78332" lon="1.6082">
        <ele>166.9</ele>
        <time>2024-12-25T13:13:37Z</time>
      </trkpt>
      <trkpt lat="44.78333" lon="1.60821">
        <ele>166.9</ele>
        <time>2024-12-25T13:13:38Z</time>
      </trkpt>
      <trkpt lat="44.78334" lon="1.60825">
        <ele>167</ele>
        <time>2024-12-25T13:13:39Z</time>
      </trkpt>
      <trkpt lat="44.78335" lon="1.60827">
        <ele>167.1</ele>
        <time>2024-12-25T13:13:41Z</time>
      </trkpt>
      <trkpt lat="44.78337" lon="1.6083">
        <ele>167.2</ele>
        <time>2024-12-25T13:13:42Z</time>
      </trkpt>
      <trkpt lat="44.78338" lon="1.60831">
        <ele>167.2</ele>
        <time>2024-12-25T13:13:43Z</time>
      </trkpt>
      <trkpt lat="44.78339" lon="1.60833">
        <ele>167.3</ele>
        <time>2024-12-25T13:13:44Z</time>
      </trkpt>
      <trkpt lat="44.7834" lon="1.60835">
        <ele>167.3</ele>
        <time>2024-12-25T13:13:45Z</time>
      </trkpt>
      <trkpt lat="44.78341" lon="1.60836">
        <ele>167.4</ele>
        <time>2024-12-25T13:13:46Z</time>
      </trkpt>
      <trkpt lat="44.78342" lon="1.60839">
        <ele>167.4</ele>
        <time>2024-12-25T13:13:48Z</time>
      </trkpt>
      <trkpt lat="44.78343" lon="1.6084">
        <ele>167.5</ele>
        <time>2024-12-25T13:13:49Z</time>
      </trkpt>
      <trkpt lat="44.78344" lon="1.60843">
        <ele>167.5</ele>
        <time>2024-12-25T13:13:51Z</time>
      </trkpt>
      <trkpt lat="44.78344" lon="1.60844">
        <ele>167.5</ele>
        <time>2024-12-25T13:13:52Z</time>
      </trkpt>
      <trkpt lat="44.78345" lon="1.60847">
        <ele>167.5</ele>
        <time>2024-12-25T13:13:53Z</time>
      </trkpt>
      <trkpt lat="44.78346" lon="1.60848">
        <ele>167.6</ele>
        <time>2024-12-25T13:13:54Z</time>
      </trkpt>
      <trkpt lat="44.78346" lon="1.60849">
        <ele>167.6</ele>
        <time>2024-12-25T13:13:55Z</time>
      </trkpt>
      <trkpt lat="44.78346" lon="1.6085">
        <ele>167.6</ele>
        <time>2024-12-25T13:13:56Z</time>
      </trkpt>
      <trkpt lat="44.78347" lon="1.60851">
        <ele>167.6</ele>
        <time>2024-12-25T13:13:57Z</time>
      </trkpt>
      <trkpt lat="44.78347" lon="1.60852">
        <ele>167.6</ele>
        <time>2024-12-25T13:13:58Z</time>
      </trkpt>
      <trkpt lat="44.78348" lon="1.60853">
        <ele>167.6</ele>
        <time>2024-12-25T13:13:59Z</time>
      </trkpt>
      <trkpt lat="44.78348" lon="1.60855">
        <ele>167.7</ele>
        <time>2024-12-25T13:14:00Z</time>
      </trkpt>
      <trkpt lat="44.78348" lon="1.60857">
        <ele>167.7</ele>
        <time>2024-12-25T13:14:02Z</time>
      </trkpt>
      <trkpt lat="44.78347" lon="1.6086">
        <ele>167.7</ele>
        <time>2024-12-25T13:14:04Z</time>
      </trkpt>
      <trkpt lat="44.78347" lon="1.60862">
        <ele>167.8</ele>
        <time>2024-12-25T13:14:05Z</time>
      </trkpt>
      <trkpt lat="44.78347" lon="1.60863">
        <ele>167.8</ele>
        <time>2024-12-25T13:14:06Z</time>
      </trkpt>
      <trkpt lat="44.78347" lon="1.60865">
        <ele>167.8</ele>
        <time>2024-12-25T13:14:07Z</time>
      </trkpt>
      <trkpt lat="44.78347" lon="1.60867">
        <ele>167.8</ele>
        <time>2024-12-25T13:14:08Z</time>
      </trkpt>
      <trkpt lat="44.78347" lon="1.60869">
        <ele>167.8</ele>
        <time>2024-12-25T13:14:09Z</time>
      </trkpt>
      <trkpt lat="44.78347" lon="1.60872">
        <ele>167.9</ele>
        <time>2024-12-25T13:14:10Z</time>
      </trkpt>
      <trkpt lat="44.78347" lon="1.60873">
        <ele>167.9</ele>
        <time>2024-12-25T13:14:11Z</time>
      </trkpt>
      <trkpt lat="44.78346" lon="1.60876">
        <ele>168</ele>
        <time>2024-12-25T13:14:13Z</time>
      </trkpt>
      <trkpt lat="44.78346" lon="1.6088">
        <ele>168</ele>
        <time>2024-12-25T13:14:14Z</time>
      </trkpt>
      <trkpt lat="44.78345" lon="1.60887">
        <ele>168.1</ele>
        <time>2024-12-25T13:14:15Z</time>
      </trkpt>
      <trkpt lat="44.78345" lon="1.60889">
        <ele>168.2</ele>
        <time>2024-12-25T13:14:16Z</time>
      </trkpt>
      <trkpt lat="44.78344" lon="1.60892">
        <ele>168.2</ele>
        <time>2024-12-25T13:14:18Z</time>
      </trkpt>
      <trkpt lat="44.78344" lon="1.60897">
        <ele>168.3</ele>
        <time>2024-12-25T13:14:19Z</time>
      </trkpt>
      <trkpt lat="44.78343" lon="1.609">
        <ele>168.3</ele>
        <time>2024-12-25T13:14:21Z</time>
      </trkpt>
      <trkpt lat="44.78343" lon="1.60902">
        <ele>168.3</ele>
        <time>2024-12-25T13:14:22Z</time>
      </trkpt>
      <trkpt lat="44.78343" lon="1.60906">
        <ele>168.4</ele>
        <time>2024-12-25T13:14:23Z</time>
      </trkpt>
      <trkpt lat="44.78343" lon="1.60908">
        <ele>168.4</ele>
        <time>2024-12-25T13:14:25Z</time>
      </trkpt>
      <trkpt lat="44.78343" lon="1.60911">
        <ele>168.4</ele>
        <time>2024-12-25T13:14:26Z</time>
      </trkpt>
      <trkpt lat="44.78342" lon="1.60915">
        <ele>168.4</ele>
        <time>2024-12-25T13:14:27Z</time>
      </trkpt>
      <trkpt lat="44.78342" lon="1.60916">
        <ele>168.4</ele>
        <time>2024-12-25T13:14:28Z</time>
      </trkpt>
      <trkpt lat="44.78341" lon="1.60918">
        <ele>168.4</ele>
        <time>2024-12-25T13:14:29Z</time>
      </trkpt>
      <trkpt lat="44.7834" lon="1.60921">
        <ele>168.5</ele>
        <time>2024-12-25T13:14:30Z</time>
      </trkpt>
      <trkpt lat="44.78338" lon="1.60922">
        <ele>168.5</ele>
        <time>2024-12-25T13:14:31Z</time>
      </trkpt>
      <trkpt lat="44.78337" lon="1.60925">
        <ele>168.5</ele>
        <time>2024-12-25T13:14:33Z</time>
      </trkpt>
      <trkpt lat="44.78336" lon="1.60926">
        <ele>168.5</ele>
        <time>2024-12-25T13:14:34Z</time>
      </trkpt>
      <trkpt lat="44.78335" lon="1.60927">
        <ele>168.5</ele>
        <time>2024-12-25T13:14:35Z</time>
      </trkpt>
      <trkpt lat="44.78333" lon="1.60929">
        <ele>168.5</ele>
        <time>2024-12-25T13:14:36Z</time>
      </trkpt>
      <trkpt lat="44.78332" lon="1.60931">
        <ele>168.5</ele>
        <time>2024-12-25T13:14:37Z</time>
      </trkpt>
      <trkpt lat="44.78332" lon="1.60932">
        <ele>168.5</ele>
        <time>2024-12-25T13:14:38Z</time>
      </trkpt>
      <trkpt lat="44.78332" lon="1.60933">
        <ele>168.5</ele>
        <time>2024-12-25T13:14:39Z</time>
      </trkpt>
      <trkpt lat="44.78331" lon="1.60933">
        <ele>168.5</ele>
        <time>2024-12-25T13:14:41Z</time>
      </trkpt>
      <trkpt lat="44.7833" lon="1.60935">
        <ele>168.5</ele>
        <time>2024-12-25T13:14:42Z</time>
      </trkpt>
      <trkpt lat="44.7833" lon="1.60936">
        <ele>168.5</ele>
        <time>2024-12-25T13:14:44Z</time>
      </trkpt>
      <trkpt lat="44.78329" lon="1.60937">
        <ele>168.5</ele>
        <time>2024-12-25T13:14:45Z</time>
      </trkpt>
      <trkpt lat="44.78329" lon="1.60939">
        <ele>168.5</ele>
        <time>2024-12-25T13:14:46Z</time>
      </trkpt>
      <trkpt lat="44.78327" lon="1.60942">
        <ele>168.5</ele>
        <time>2024-12-25T13:14:47Z</time>
      </trkpt>
      <trkpt lat="44.78326" lon="1.60942">
        <ele>168.5</ele>
        <time>2024-12-25T13:14:48Z</time>
      </trkpt>
      <trkpt lat="44.78324" lon="1.60943">
        <ele>168.6</ele>
        <time>2024-12-25T13:14:50Z</time>
      </trkpt>
      <trkpt lat="44.78322" lon="1.60943">
        <ele>168.6</ele>
        <time>2024-12-25T13:14:51Z</time>
      </trkpt>
      <trkpt lat="44.7832" lon="1.60943">
        <ele>168.6</ele>
        <time>2024-12-25T13:14:52Z</time>
      </trkpt>
      <trkpt lat="44.78318" lon="1.60942">
        <ele>168.6</ele>
        <time>2024-12-25T13:14:54Z</time>
      </trkpt>
      <trkpt lat="44.78317" lon="1.60941">
        <ele>168.6</ele>
        <time>2024-12-25T13:14:55Z</time>
      </trkpt>
      <trkpt lat="44.78315" lon="1.60941">
        <ele>168.6</ele>
        <time>2024-12-25T13:14:56Z</time>
      </trkpt>
      <trkpt lat="44.78312" lon="1.6094">
        <ele>168.6</ele>
        <time>2024-12-25T13:14:57Z</time>
      </trkpt>
      <trkpt lat="44.78311" lon="1.6094">
        <ele>168.6</ele>
        <time>2024-12-25T13:14:58Z</time>
      </trkpt>
      <trkpt lat="44.7831" lon="1.6094">
        <ele>168.7</ele>
        <time>2024-12-25T13:15:00Z</time>
      </trkpt>
      <trkpt lat="44.78309" lon="1.6094">
        <ele>168.7</ele>
        <time>2024-12-25T13:15:01Z</time>
      </trkpt>
      <trkpt lat="44.78306" lon="1.6094">
        <ele>168.7</ele>
        <time>2024-12-25T13:15:02Z</time>
      </trkpt>
      <trkpt lat="44.78305" lon="1.60939">
        <ele>168.7</ele>
        <time>2024-12-25T13:15:04Z</time>
      </trkpt>
      <trkpt lat="44.78304" lon="1.60939">
        <ele>168.7</ele>
        <time>2024-12-25T13:15:05Z</time>
      </trkpt>
      <trkpt lat="44.78302" lon="1.60939">
        <ele>168.7</ele>
        <time>2024-12-25T13:15:06Z</time>
      </trkpt>
      <trkpt lat="44.783" lon="1.60939">
        <ele>168.8</ele>
        <time>2024-12-25T13:15:08Z</time>
      </trkpt>
      <trkpt lat="44.78298" lon="1.60937">
        <ele>168.8</ele>
        <time>2024-12-25T13:15:09Z</time>
      </trkpt>
      <trkpt lat="44.78295" lon="1.60936">
        <ele>168.8</ele>
        <time>2024-12-25T13:15:11Z</time>
      </trkpt>
      <trkpt lat="44.78294" lon="1.60935">
        <ele>168.8</ele>
        <time>2024-12-25T13:15:13Z</time>
      </trkpt>
      <trkpt lat="44.78293" lon="1.60935">
        <ele>168.8</ele>
        <time>2024-12-25T13:15:14Z</time>
      </trkpt>
      <trkpt lat="44.78292" lon="1.60935">
        <ele>168.8</ele>
        <time>2024-12-25T13:15:15Z</time>
      </trkpt>
      <trkpt lat="44.78289" lon="1.60934">
        <ele>168.9</ele>
        <time>2024-12-25T13:15:16Z</time>
      </trkpt>
      <trkpt lat="44.78286" lon="1.60934">
        <ele>168.9</ele>
        <time>2024-12-25T13:15:18Z</time>
      </trkpt>
      <trkpt lat="44.78285" lon="1.60934">
        <ele>168.9</ele>
        <time>2024-12-25T13:15:19Z</time>
      </trkpt>
      <trkpt lat="44.78284" lon="1.60934">
        <ele>168.9</ele>
        <time>2024-12-25T13:15:20Z</time>
      </trkpt>
      <trkpt lat="44.78282" lon="1.60934">
        <ele>169</ele>
        <time>2024-12-25T13:15:22Z</time>
      </trkpt>
      <trkpt lat="44.78281" lon="1.60935">
        <ele>169</ele>
        <time>2024-12-25T13:15:23Z</time>
      </trkpt>
      <trkpt lat="44.78278" lon="1.60935">
        <ele>169</ele>
        <time>2024-12-25T13:15:24Z</time>
      </trkpt>
      <trkpt lat="44.78275" lon="1.60934">
        <ele>169.1</ele>
        <time>2024-12-25T13:15:25Z</time>
      </trkpt>
      <trkpt lat="44.78274" lon="1.60933">
        <ele>169.1</ele>
        <time>2024-12-25T13:15:27Z</time>
      </trkpt>
      <trkpt lat="44.7827" lon="1.60931">
        <ele>169.2</ele>
        <time>2024-12-25T13:15:28Z</time>
      </trkpt>
      <trkpt lat="44.78269" lon="1.6093">
        <ele>169.2</ele>
        <time>2024-12-25T13:15:29Z</time>
      </trkpt>
      <trkpt lat="44.78267" lon="1.60929">
        <ele>169.2</ele>
        <time>2024-12-25T13:15:31Z</time>
      </trkpt>
      <trkpt lat="44.78265" lon="1.60929">
        <ele>169.3</ele>
        <time>2024-12-25T13:15:32Z</time>
      </trkpt>
      <trkpt lat="44.78263" lon="1.60929">
        <ele>169.3</ele>
        <time>2024-12-25T13:15:33Z</time>
      </trkpt>
      <trkpt lat="44.78261" lon="1.60929">
        <ele>169.4</ele>
        <time>2024-12-25T13:15:35Z</time>
      </trkpt>
      <trkpt lat="44.7826" lon="1.60929">
        <ele>169.4</ele>
        <time>2024-12-25T13:15:36Z</time>
      </trkpt>
      <trkpt lat="44.78258" lon="1.60929">
        <ele>169.4</ele>
        <time>2024-12-25T13:15:37Z</time>
      </trkpt>
      <trkpt lat="44.78255" lon="1.60931">
        <ele>169.5</ele>
        <time>2024-12-25T13:15:38Z</time>
      </trkpt>
      <trkpt lat="44.78254" lon="1.60931">
        <ele>169.6</ele>
        <time>2024-12-25T13:15:40Z</time>
      </trkpt>
      <trkpt lat="44.78251" lon="1.60931">
        <ele>169.6</ele>
        <time>2024-12-25T13:15:41Z</time>
      </trkpt>
      <trkpt lat="44.78249" lon="1.60931">
        <ele>169.7</ele>
        <time>2024-12-25T13:15:42Z</time>
      </trkpt>
      <trkpt lat="44.78249" lon="1.60931">
        <ele>169.7</ele>
        <time>2024-12-25T13:15:44Z</time>
      </trkpt>
      <trkpt lat="44.78247" lon="1.60931">
        <ele>169.7</ele>
        <time>2024-12-25T13:15:45Z</time>
      </trkpt>
      <trkpt lat="44.78245" lon="1.60932">
        <ele>169.8</ele>
        <time>2024-12-25T13:15:46Z</time>
      </trkpt>
      <trkpt lat="44.78244" lon="1.60933">
        <ele>169.9</ele>
        <time>2024-12-25T13:15:47Z</time>
      </trkpt>
      <trkpt lat="44.78243" lon="1.60933">
        <ele>169.9</ele>
        <time>2024-12-25T13:15:48Z</time>
      </trkpt>
      <trkpt lat="44.78241" lon="1.60933">
        <ele>170</ele>
        <time>2024-12-25T13:15:50Z</time>
      </trkpt>
      <trkpt lat="44.7824" lon="1.60933">
        <ele>170</ele>
        <time>2024-12-25T13:15:52Z</time>
      </trkpt>
      <trkpt lat="44.78238" lon="1.60934">
        <ele>170</ele>
        <time>2024-12-25T13:15:53Z</time>
      </trkpt>
      <trkpt lat="44.78237" lon="1.60934">
        <ele>170.1</ele>
        <time>2024-12-25T13:15:54Z</time>
      </trkpt>
      <trkpt lat="44.78236" lon="1.60934">
        <ele>170.1</ele>
        <time>2024-12-25T13:15:56Z</time>
      </trkpt>
      <trkpt lat="44.78234" lon="1.60935">
        <ele>170.2</ele>
        <time>2024-12-25T13:15:57Z</time>
      </trkpt>
      <trkpt lat="44.78232" lon="1.60937">
        <ele>170.2</ele>
        <time>2024-12-25T13:15:59Z</time>
      </trkpt>
      <trkpt lat="44.78231" lon="1.60939">
        <ele>170.3</ele>
        <time>2024-12-25T13:16:00Z</time>
      </trkpt>
      <trkpt lat="44.7823" lon="1.6094">
        <ele>170.3</ele>
        <time>2024-12-25T13:16:01Z</time>
      </trkpt>
      <trkpt lat="44.7823" lon="1.60941">
        <ele>170.4</ele>
        <time>2024-12-25T13:16:02Z</time>
      </trkpt>
      <trkpt lat="44.78228" lon="1.60944">
        <ele>170.4</ele>
        <time>2024-12-25T13:16:04Z</time>
      </trkpt>
      <trkpt lat="44.78227" lon="1.60945">
        <ele>170.5</ele>
        <time>2024-12-25T13:16:05Z</time>
      </trkpt>
      <trkpt lat="44.78225" lon="1.60948">
        <ele>170.6</ele>
        <time>2024-12-25T13:16:07Z</time>
      </trkpt>
      <trkpt lat="44.78223" lon="1.6095">
        <ele>170.6</ele>
        <time>2024-12-25T13:16:09Z</time>
      </trkpt>
      <trkpt lat="44.78223" lon="1.6095">
        <ele>170.6</ele>
        <time>2024-12-25T13:16:10Z</time>
      </trkpt>
      <trkpt lat="44.78222" lon="1.60953">
        <ele>170.7</ele>
        <time>2024-12-25T13:16:11Z</time>
      </trkpt>
      <trkpt lat="44.78222" lon="1.60955">
        <ele>170.8</ele>
        <time>2024-12-25T13:16:12Z</time>
      </trkpt>
      <trkpt lat="44.78223" lon="1.6096">
        <ele>170.9</ele>
        <time>2024-12-25T13:16:14Z</time>
      </trkpt>
      <trkpt lat="44.78223" lon="1.60962">
        <ele>170.9</ele>
        <time>2024-12-25T13:16:15Z</time>
      </trkpt>
      <trkpt lat="44.78224" lon="1.60965">
        <ele>171</ele>
        <time>2024-12-25T13:16:17Z</time>
      </trkpt>
      <trkpt lat="44.78223" lon="1.60969">
        <ele>171.1</ele>
        <time>2024-12-25T13:16:19Z</time>
      </trkpt>
      <trkpt lat="44.78223" lon="1.60971">
        <ele>171.1</ele>
        <time>2024-12-25T13:16:21Z</time>
      </trkpt>
      <trkpt lat="44.78222" lon="1.60974">
        <ele>171.2</ele>
        <time>2024-12-25T13:16:23Z</time>
      </trkpt>
      <trkpt lat="44.78222" lon="1.60975">
        <ele>171.2</ele>
        <time>2024-12-25T13:16:24Z</time>
      </trkpt>
      <trkpt lat="44.7822" lon="1.60976">
        <ele>171.3</ele>
        <time>2024-12-25T13:16:25Z</time>
      </trkpt>
      <trkpt lat="44.78218" lon="1.60979">
        <ele>171.3</ele>
        <time>2024-12-25T13:16:27Z</time>
      </trkpt>
      <trkpt lat="44.78216" lon="1.6098">
        <ele>171.4</ele>
        <time>2024-12-25T13:16:29Z</time>
      </trkpt>
      <trkpt lat="44.78213" lon="1.60982">
        <ele>171.5</ele>
        <time>2024-12-25T13:16:30Z</time>
      </trkpt>
      <trkpt lat="44.78212" lon="1.60984">
        <ele>171.5</ele>
        <time>2024-12-25T13:16:32Z</time>
      </trkpt>
      <trkpt lat="44.78211" lon="1.60985">
        <ele>171.6</ele>
        <time>2024-12-25T13:16:33Z</time>
      </trkpt>
      <trkpt lat="44.78209" lon="1.60988">
        <ele>171.6</ele>
        <time>2024-12-25T13:16:34Z</time>
      </trkpt>
      <trkpt lat="44.78208" lon="1.6099">
        <ele>171.7</ele>
        <time>2024-12-25T13:16:35Z</time>
      </trkpt>
      <trkpt lat="44.78207" lon="1.60991">
        <ele>171.7</ele>
        <time>2024-12-25T13:16:37Z</time>
      </trkpt>
      <trkpt lat="44.78203" lon="1.60993">
        <ele>171.8</ele>
        <time>2024-12-25T13:16:38Z</time>
      </trkpt>
      <trkpt lat="44.78201" lon="1.60993">
        <ele>171.9</ele>
        <time>2024-12-25T13:16:39Z</time>
      </trkpt>
      <trkpt lat="44.78201" lon="1.60998">
        <ele>172</ele>
        <time>2024-12-25T13:16:40Z</time>
      </trkpt>
      <trkpt lat="44.78201" lon="1.61">
        <ele>172</ele>
        <time>2024-12-25T13:16:42Z</time>
      </trkpt>
      <trkpt lat="44.78201" lon="1.61004">
        <ele>172.1</ele>
        <time>2024-12-25T13:16:43Z</time>
      </trkpt>
      <trkpt lat="44.78201" lon="1.61009">
        <ele>172.2</ele>
        <time>2024-12-25T13:16:45Z</time>
      </trkpt>
      <trkpt lat="44.78201" lon="1.61012">
        <ele>172.3</ele>
        <time>2024-12-25T13:16:46Z</time>
      </trkpt>
      <trkpt lat="44.78201" lon="1.61016">
        <ele>172.3</ele>
        <time>2024-12-25T13:16:47Z</time>
      </trkpt>
      <trkpt lat="44.782" lon="1.61018">
        <ele>172.4</ele>
        <time>2024-12-25T13:16:49Z</time>
      </trkpt>
      <trkpt lat="44.782" lon="1.61022">
        <ele>172.5</ele>
        <time>2024-12-25T13:16:50Z</time>
      </trkpt>
      <trkpt lat="44.78199" lon="1.61026">
        <ele>172.5</ele>
        <time>2024-12-25T13:16:52Z</time>
      </trkpt>
      <trkpt lat="44.78198" lon="1.61028">
        <ele>172.6</ele>
        <time>2024-12-25T13:16:53Z</time>
      </trkpt>
      <trkpt lat="44.78198" lon="1.61029">
        <ele>172.6</ele>
        <time>2024-12-25T13:16:55Z</time>
      </trkpt>
      <trkpt lat="44.78197" lon="1.61032">
        <ele>172.7</ele>
        <time>2024-12-25T13:16:56Z</time>
      </trkpt>
      <trkpt lat="44.78197" lon="1.61036">
        <ele>172.7</ele>
        <time>2024-12-25T13:16:57Z</time>
      </trkpt>
      <trkpt lat="44.78197" lon="1.61037">
        <ele>172.8</ele>
        <time>2024-12-25T13:16:59Z</time>
      </trkpt>
      <trkpt lat="44.78197" lon="1.61038">
        <ele>172.8</ele>
        <time>2024-12-25T13:17:00Z</time>
      </trkpt>
      <trkpt lat="44.78198" lon="1.61044">
        <ele>172.9</ele>
        <time>2024-12-25T13:17:01Z</time>
      </trkpt>
      <trkpt lat="44.78198" lon="1.61048">
        <ele>173</ele>
        <time>2024-12-25T13:17:03Z</time>
      </trkpt>
      <trkpt lat="44.78198" lon="1.61049">
        <ele>173</ele>
        <time>2024-12-25T13:17:04Z</time>
      </trkpt>
      <trkpt lat="44.78198" lon="1.61052">
        <ele>173.1</ele>
        <time>2024-12-25T13:17:05Z</time>
      </trkpt>
      <trkpt lat="44.78198" lon="1.61054">
        <ele>173.1</ele>
        <time>2024-12-25T13:17:06Z</time>
      </trkpt>
      <trkpt lat="44.78198" lon="1.61057">
        <ele>173.2</ele>
        <time>2024-12-25T13:17:07Z</time>
      </trkpt>
      <trkpt lat="44.78198" lon="1.61059">
        <ele>173.3</ele>
        <time>2024-12-25T13:17:08Z</time>
      </trkpt>
      <trkpt lat="44.78197" lon="1.6106">
        <ele>173.3</ele>
        <time>2024-12-25T13:17:10Z</time>
      </trkpt>
      <trkpt lat="44.78196" lon="1.61064">
        <ele>173.4</ele>
        <time>2024-12-25T13:17:11Z</time>
      </trkpt>
      <trkpt lat="44.78196" lon="1.61066">
        <ele>173.4</ele>
        <time>2024-12-25T13:17:12Z</time>
      </trkpt>
      <trkpt lat="44.78196" lon="1.61068">
        <ele>173.5</ele>
        <time>2024-12-25T13:17:14Z</time>
      </trkpt>
      <trkpt lat="44.78195" lon="1.61072">
        <ele>173.6</ele>
        <time>2024-12-25T13:17:15Z</time>
      </trkpt>
      <trkpt lat="44.78195" lon="1.61073">
        <ele>173.6</ele>
        <time>2024-12-25T13:17:17Z</time>
      </trkpt>
      <trkpt lat="44.78194" lon="1.61076">
        <ele>173.7</ele>
        <time>2024-12-25T13:17:18Z</time>
      </trkpt>
      <trkpt lat="44.78193" lon="1.61079">
        <ele>173.8</ele>
        <time>2024-12-25T13:17:19Z</time>
      </trkpt>
      <trkpt lat="44.78193" lon="1.6108">
        <ele>173.8</ele>
        <time>2024-12-25T13:17:21Z</time>
      </trkpt>
      <trkpt lat="44.78193" lon="1.61081">
        <ele>173.9</ele>
        <time>2024-12-25T13:17:22Z</time>
      </trkpt>
      <trkpt lat="44.78192" lon="1.61085">
        <ele>174</ele>
        <time>2024-12-25T13:17:23Z</time>
      </trkpt>
      <trkpt lat="44.78192" lon="1.61087">
        <ele>174</ele>
        <time>2024-12-25T13:17:25Z</time>
      </trkpt>
      <trkpt lat="44.78191" lon="1.61089">
        <ele>174.1</ele>
        <time>2024-12-25T13:17:26Z</time>
      </trkpt>
      <trkpt lat="44.7819" lon="1.61092">
        <ele>174.2</ele>
        <time>2024-12-25T13:17:27Z</time>
      </trkpt>
      <trkpt lat="44.78189" lon="1.61094">
        <ele>174.2</ele>
        <time>2024-12-25T13:17:29Z</time>
      </trkpt>
      <trkpt lat="44.78188" lon="1.61095">
        <ele>174.3</ele>
        <time>2024-12-25T13:17:30Z</time>
      </trkpt>
      <trkpt lat="44.78187" lon="1.61098">
        <ele>174.4</ele>
        <time>2024-12-25T13:17:31Z</time>
      </trkpt>
      <trkpt lat="44.78187" lon="1.611">
        <ele>174.4</ele>
        <time>2024-12-25T13:17:32Z</time>
      </trkpt>
      <trkpt lat="44.78186" lon="1.61103">
        <ele>174.5</ele>
        <time>2024-12-25T13:17:34Z</time>
      </trkpt>
      <trkpt lat="44.78186" lon="1.61105">
        <ele>174.6</ele>
        <time>2024-12-25T13:17:35Z</time>
      </trkpt>
      <trkpt lat="44.78185" lon="1.61106">
        <ele>174.6</ele>
        <time>2024-12-25T13:17:37Z</time>
      </trkpt>
      <trkpt lat="44.78185" lon="1.61108">
        <ele>174.6</ele>
        <time>2024-12-25T13:17:38Z</time>
      </trkpt>
      <trkpt lat="44.78184" lon="1.61111">
        <ele>174.7</ele>
        <time>2024-12-25T13:17:39Z</time>
      </trkpt>
      <trkpt lat="44.78184" lon="1.61112">
        <ele>174.8</ele>
        <time>2024-12-25T13:17:40Z</time>
      </trkpt>
      <trkpt lat="44.78183" lon="1.61114">
        <ele>174.8</ele>
        <time>2024-12-25T13:17:41Z</time>
      </trkpt>
      <trkpt lat="44.78183" lon="1.61115">
        <ele>174.8</ele>
        <time>2024-12-25T13:17:43Z</time>
      </trkpt>
      <trkpt lat="44.78183" lon="1.61117">
        <ele>174.9</ele>
        <time>2024-12-25T13:17:44Z</time>
      </trkpt>
      <trkpt lat="44.78183" lon="1.61118">
        <ele>174.9</ele>
        <time>2024-12-25T13:17:45Z</time>
      </trkpt>
      <trkpt lat="44.78182" lon="1.6112">
        <ele>175</ele>
        <time>2024-12-25T13:17:46Z</time>
      </trkpt>
      <trkpt lat="44.78182" lon="1.61121">
        <ele>175</ele>
        <time>2024-12-25T13:17:47Z</time>
      </trkpt>
      <trkpt lat="44.78182" lon="1.61123">
        <ele>175</ele>
        <time>2024-12-25T13:17:48Z</time>
      </trkpt>
      <trkpt lat="44.78182" lon="1.61127">
        <ele>175.2</ele>
        <time>2024-12-25T13:17:49Z</time>
      </trkpt>
      <trkpt lat="44.78182" lon="1.61129">
        <ele>175.2</ele>
        <time>2024-12-25T13:17:50Z</time>
      </trkpt>
      <trkpt lat="44.78182" lon="1.6113">
        <ele>175.2</ele>
        <time>2024-12-25T13:17:52Z</time>
      </trkpt>
      <trkpt lat="44.78181" lon="1.61133">
        <ele>175.3</ele>
        <time>2024-12-25T13:17:53Z</time>
      </trkpt>
      <trkpt lat="44.78181" lon="1.61135">
        <ele>175.4</ele>
        <time>2024-12-25T13:17:54Z</time>
      </trkpt>
      <trkpt lat="44.78181" lon="1.61139">
        <ele>175.5</ele>
        <time>2024-12-25T13:17:56Z</time>
      </trkpt>
      <trkpt lat="44.7818" lon="1.6114">
        <ele>175.5</ele>
        <time>2024-12-25T13:17:57Z</time>
      </trkpt>
      <trkpt lat="44.7818" lon="1.61142">
        <ele>175.6</ele>
        <time>2024-12-25T13:17:58Z</time>
      </trkpt>
      <trkpt lat="44.7818" lon="1.61144">
        <ele>175.6</ele>
        <time>2024-12-25T13:18:00Z</time>
      </trkpt>
      <trkpt lat="44.7818" lon="1.61147">
        <ele>175.7</ele>
        <time>2024-12-25T13:18:01Z</time>
      </trkpt>
      <trkpt lat="44.7818" lon="1.6115">
        <ele>175.8</ele>
        <time>2024-12-25T13:18:02Z</time>
      </trkpt>
      <trkpt lat="44.7818" lon="1.61155">
        <ele>175.9</ele>
        <time>2024-12-25T13:18:04Z</time>
      </trkpt>
      <trkpt lat="44.78181" lon="1.61162">
        <ele>176.1</ele>
        <time>2024-12-25T13:18:06Z</time>
      </trkpt>
      <trkpt lat="44.78182" lon="1.61165">
        <ele>176.2</ele>
        <time>2024-12-25T13:18:08Z</time>
      </trkpt>
      <trkpt lat="44.78182" lon="1.6117">
        <ele>176.3</ele>
        <time>2024-12-25T13:18:09Z</time>
      </trkpt>
      <trkpt lat="44.78182" lon="1.61173">
        <ele>176.4</ele>
        <time>2024-12-25T13:18:11Z</time>
      </trkpt>
      <trkpt lat="44.78183" lon="1.61174">
        <ele>176.4</ele>
        <time>2024-12-25T13:18:12Z</time>
      </trkpt>
      <trkpt lat="44.78183" lon="1.61177">
        <ele>176.5</ele>
        <time>2024-12-25T13:18:13Z</time>
      </trkpt>
      <trkpt lat="44.78183" lon="1.61178">
        <ele>176.6</ele>
        <time>2024-12-25T13:18:14Z</time>
      </trkpt>
      <trkpt lat="44.78183" lon="1.6118">
        <ele>176.6</ele>
        <time>2024-12-25T13:18:15Z</time>
      </trkpt>
      <trkpt lat="44.78184" lon="1.61184">
        <ele>176.7</ele>
        <time>2024-12-25T13:18:16Z</time>
      </trkpt>
      <trkpt lat="44.78184" lon="1.61185">
        <ele>176.8</ele>
        <time>2024-12-25T13:18:17Z</time>
      </trkpt>
      <trkpt lat="44.78184" lon="1.61187">
        <ele>176.8</ele>
        <time>2024-12-25T13:18:18Z</time>
      </trkpt>
      <trkpt lat="44.78186" lon="1.6119">
        <ele>177</ele>
        <time>2024-12-25T13:18:20Z</time>
      </trkpt>
      <trkpt lat="44.78187" lon="1.61192">
        <ele>177</ele>
        <time>2024-12-25T13:18:22Z</time>
      </trkpt>
      <trkpt lat="44.78187" lon="1.61195">
        <ele>177.1</ele>
        <time>2024-12-25T13:18:24Z</time>
      </trkpt>
      <trkpt lat="44.78187" lon="1.61196">
        <ele>177.2</ele>
        <time>2024-12-25T13:18:25Z</time>
      </trkpt>
      <trkpt lat="44.78187" lon="1.612">
        <ele>177.3</ele>
        <time>2024-12-25T13:18:27Z</time>
      </trkpt>
      <trkpt lat="44.78187" lon="1.61201">
        <ele>177.3</ele>
        <time>2024-12-25T13:18:28Z</time>
      </trkpt>
      <trkpt lat="44.78186" lon="1.61205">
        <ele>177.5</ele>
        <time>2024-12-25T13:18:30Z</time>
      </trkpt>
      <trkpt lat="44.78186" lon="1.61206">
        <ele>177.5</ele>
        <time>2024-12-25T13:18:31Z</time>
      </trkpt>
      <trkpt lat="44.78185" lon="1.61207">
        <ele>177.6</ele>
        <time>2024-12-25T13:18:33Z</time>
      </trkpt>
      <trkpt lat="44.78185" lon="1.61211">
        <ele>177.7</ele>
        <time>2024-12-25T13:18:34Z</time>
      </trkpt>
      <trkpt lat="44.78185" lon="1.61212">
        <ele>177.7</ele>
        <time>2024-12-25T13:18:35Z</time>
      </trkpt>
      <trkpt lat="44.78185" lon="1.61217">
        <ele>177.9</ele>
        <time>2024-12-25T13:18:37Z</time>
      </trkpt>
      <trkpt lat="44.78185" lon="1.6122">
        <ele>178</ele>
        <time>2024-12-25T13:18:39Z</time>
      </trkpt>
      <trkpt lat="44.78187" lon="1.61226">
        <ele>178.2</ele>
        <time>2024-12-25T13:18:41Z</time>
      </trkpt>
      <trkpt lat="44.78188" lon="1.61227">
        <ele>178.3</ele>
        <time>2024-12-25T13:18:43Z</time>
      </trkpt>
      <trkpt lat="44.78189" lon="1.61229">
        <ele>178.4</ele>
        <time>2024-12-25T13:18:44Z</time>
      </trkpt>
      <trkpt lat="44.7819" lon="1.61232">
        <ele>178.5</ele>
        <time>2024-12-25T13:18:46Z</time>
      </trkpt>
      <trkpt lat="44.78191" lon="1.61233">
        <ele>178.5</ele>
        <time>2024-12-25T13:18:47Z</time>
      </trkpt>
      <trkpt lat="44.78192" lon="1.61234">
        <ele>178.5</ele>
        <time>2024-12-25T13:18:48Z</time>
      </trkpt>
      <trkpt lat="44.78193" lon="1.61235">
        <ele>178.6</ele>
        <time>2024-12-25T13:18:49Z</time>
      </trkpt>
      <trkpt lat="44.78194" lon="1.61236">
        <ele>178.6</ele>
        <time>2024-12-25T13:18:50Z</time>
      </trkpt>
      <trkpt lat="44.78195" lon="1.61237">
        <ele>178.6</ele>
        <time>2024-12-25T13:18:51Z</time>
      </trkpt>
      <trkpt lat="44.78197" lon="1.61238">
        <ele>178.6</ele>
        <time>2024-12-25T13:18:53Z</time>
      </trkpt>
      <trkpt lat="44.78199" lon="1.61239">
        <ele>178.7</ele>
        <time>2024-12-25T13:18:54Z</time>
      </trkpt>
      <trkpt lat="44.782" lon="1.61239">
        <ele>178.7</ele>
        <time>2024-12-25T13:18:56Z</time>
      </trkpt>
      <trkpt lat="44.78201" lon="1.61239">
        <ele>178.7</ele>
        <time>2024-12-25T13:18:57Z</time>
      </trkpt>
      <trkpt lat="44.78204" lon="1.6124">
        <ele>178.7</ele>
        <time>2024-12-25T13:18:58Z</time>
      </trkpt>
      <trkpt lat="44.78205" lon="1.61241">
        <ele>178.8</ele>
        <time>2024-12-25T13:19:00Z</time>
      </trkpt>
      <trkpt lat="44.78206" lon="1.61241">
        <ele>178.8</ele>
        <time>2024-12-25T13:19:01Z</time>
      </trkpt>
      <trkpt lat="44.78208" lon="1.61243">
        <ele>178.8</ele>
        <time>2024-12-25T13:19:02Z</time>
      </trkpt>
      <trkpt lat="44.7821" lon="1.61245">
        <ele>178.9</ele>
        <time>2024-12-25T13:19:03Z</time>
      </trkpt>
      <trkpt lat="44.78211" lon="1.61246">
        <ele>178.9</ele>
        <time>2024-12-25T13:19:05Z</time>
      </trkpt>
      <trkpt lat="44.78212" lon="1.61247">
        <ele>178.9</ele>
        <time>2024-12-25T13:19:06Z</time>
      </trkpt>
      <trkpt lat="44.78214" lon="1.61248">
        <ele>178.9</ele>
        <time>2024-12-25T13:19:07Z</time>
      </trkpt>
      <trkpt lat="44.78215" lon="1.61249">
        <ele>178.9</ele>
        <time>2024-12-25T13:19:09Z</time>
      </trkpt>
      <trkpt lat="44.78216" lon="1.61251">
        <ele>179</ele>
        <time>2024-12-25T13:19:11Z</time>
      </trkpt>
      <trkpt lat="44.78217" lon="1.61252">
        <ele>179</ele>
        <time>2024-12-25T13:19:12Z</time>
      </trkpt>
      <trkpt lat="44.78218" lon="1.61252">
        <ele>179</ele>
        <time>2024-12-25T13:19:13Z</time>
      </trkpt>
      <trkpt lat="44.78219" lon="1.61253">
        <ele>179</ele>
        <time>2024-12-25T13:19:14Z</time>
      </trkpt>
      <trkpt lat="44.7822" lon="1.61254">
        <ele>179</ele>
        <time>2024-12-25T13:19:15Z</time>
      </trkpt>
      <trkpt lat="44.78221" lon="1.61255">
        <ele>179.1</ele>
        <time>2024-12-25T13:19:16Z</time>
      </trkpt>
      <trkpt lat="44.78222" lon="1.61256">
        <ele>179.1</ele>
        <time>2024-12-25T13:19:18Z</time>
      </trkpt>
      <trkpt lat="44.78225" lon="1.61257">
        <ele>179.1</ele>
        <time>2024-12-25T13:19:19Z</time>
      </trkpt>
      <trkpt lat="44.78227" lon="1.61259">
        <ele>179.2</ele>
        <time>2024-12-25T13:19:21Z</time>
      </trkpt>
      <trkpt lat="44.7823" lon="1.6126">
        <ele>179.3</ele>
        <time>2024-12-25T13:19:23Z</time>
      </trkpt>
      <trkpt lat="44.78231" lon="1.6126">
        <ele>179.3</ele>
        <time>2024-12-25T13:19:24Z</time>
      </trkpt>
      <trkpt lat="44.78234" lon="1.61259">
        <ele>179.4</ele>
        <time>2024-12-25T13:19:26Z</time>
      </trkpt>
      <trkpt lat="44.78236" lon="1.61261">
        <ele>179.5</ele>
        <time>2024-12-25T13:19:28Z</time>
      </trkpt>
      <trkpt lat="44.78237" lon="1.61262">
        <ele>179.5</ele>
        <time>2024-12-25T13:19:29Z</time>
      </trkpt>
      <trkpt lat="44.78238" lon="1.61263">
        <ele>179.5</ele>
        <time>2024-12-25T13:19:30Z</time>
      </trkpt>
      <trkpt lat="44.78239" lon="1.61264">
        <ele>179.6</ele>
        <time>2024-12-25T13:19:32Z</time>
      </trkpt>
      <trkpt lat="44.7824" lon="1.61265">
        <ele>179.6</ele>
        <time>2024-12-25T13:19:33Z</time>
      </trkpt>
      <trkpt lat="44.78241" lon="1.61267">
        <ele>179.7</ele>
        <time>2024-12-25T13:19:34Z</time>
      </trkpt>
      <trkpt lat="44.78242" lon="1.61268">
        <ele>179.7</ele>
        <time>2024-12-25T13:19:35Z</time>
      </trkpt>
      <trkpt lat="44.78242" lon="1.61269">
        <ele>179.7</ele>
        <time>2024-12-25T13:19:36Z</time>
      </trkpt>
      <trkpt lat="44.78243" lon="1.6127">
        <ele>179.8</ele>
        <time>2024-12-25T13:19:37Z</time>
      </trkpt>
      <trkpt lat="44.78243" lon="1.61273">
        <ele>179.9</ele>
        <time>2024-12-25T13:19:38Z</time>
      </trkpt>
      <trkpt lat="44.78243" lon="1.61277">
        <ele>179.9</ele>
        <time>2024-12-25T13:19:40Z</time>
      </trkpt>
      <trkpt lat="44.78242" lon="1.61279">
        <ele>180</ele>
        <time>2024-12-25T13:19:41Z</time>
      </trkpt>
      <trkpt lat="44.78242" lon="1.61281">
        <ele>180</ele>
        <time>2024-12-25T13:19:42Z</time>
      </trkpt>
      <trkpt lat="44.78241" lon="1.61283">
        <ele>180</ele>
        <time>2024-12-25T13:19:44Z</time>
      </trkpt>
      <trkpt lat="44.78239" lon="1.61286">
        <ele>180</ele>
        <time>2024-12-25T13:19:45Z</time>
      </trkpt>
      <trkpt lat="44.78237" lon="1.6129">
        <ele>180</ele>
        <time>2024-12-25T13:19:46Z</time>
      </trkpt>
      <trkpt lat="44.78236" lon="1.61291">
        <ele>180</ele>
        <time>2024-12-25T13:19:48Z</time>
      </trkpt>
      <trkpt lat="44.78235" lon="1.61292">
        <ele>180</ele>
        <time>2024-12-25T13:19:49Z</time>
      </trkpt>
      <trkpt lat="44.78234" lon="1.61293">
        <ele>180</ele>
        <time>2024-12-25T13:19:50Z</time>
      </trkpt>
      <trkpt lat="44.78235" lon="1.61295">
        <ele>180</ele>
        <time>2024-12-25T13:19:52Z</time>
      </trkpt>
      <trkpt lat="44.78235" lon="1.61297">
        <ele>180</ele>
        <time>2024-12-25T13:19:53Z</time>
      </trkpt>
      <trkpt lat="44.78236" lon="1.61298">
        <ele>180</ele>
        <time>2024-12-25T13:19:54Z</time>
      </trkpt>
      <trkpt lat="44.78236" lon="1.61299">
        <ele>179.9</ele>
        <time>2024-12-25T13:19:56Z</time>
      </trkpt>
      <trkpt lat="44.78235" lon="1.61301">
        <ele>179.9</ele>
        <time>2024-12-25T13:19:57Z</time>
      </trkpt>
      <trkpt lat="44.78235" lon="1.61302">
        <ele>179.9</ele>
        <time>2024-12-25T13:19:58Z</time>
      </trkpt>
      <trkpt lat="44.78235" lon="1.61303">
        <ele>179.9</ele>
        <time>2024-12-25T13:19:59Z</time>
      </trkpt>
      <trkpt lat="44.78234" lon="1.61305">
        <ele>179.8</ele>
        <time>2024-12-25T13:20:00Z</time>
      </trkpt>
      <trkpt lat="44.78232" lon="1.61309">
        <ele>179.8</ele>
        <time>2024-12-25T13:20:02Z</time>
      </trkpt>
      <trkpt lat="44.78232" lon="1.6131">
        <ele>179.8</ele>
        <time>2024-12-25T13:20:04Z</time>
      </trkpt>
      <trkpt lat="44.78231" lon="1.61312">
        <ele>179.7</ele>
        <time>2024-12-25T13:20:05Z</time>
      </trkpt>
      <trkpt lat="44.78231" lon="1.61312">
        <ele>179.7</ele>
        <time>2024-12-25T13:20:06Z</time>
      </trkpt>
      <trkpt lat="44.7823" lon="1.61315">
        <ele>179.7</ele>
        <time>2024-12-25T13:20:07Z</time>
      </trkpt>
      <trkpt lat="44.78229" lon="1.61315">
        <ele>179.7</ele>
        <time>2024-12-25T13:20:08Z</time>
      </trkpt>
      <trkpt lat="44.78228" lon="1.61318">
        <ele>179.6</ele>
        <time>2024-12-25T13:20:09Z</time>
      </trkpt>
      <trkpt lat="44.78227" lon="1.61319">
        <ele>179.6</ele>
        <time>2024-12-25T13:20:11Z</time>
      </trkpt>
      <trkpt lat="44.78227" lon="1.61319">
        <ele>179.6</ele>
        <time>2024-12-25T13:20:12Z</time>
      </trkpt>
      <trkpt lat="44.78225" lon="1.61322">
        <ele>179.5</ele>
        <time>2024-12-25T13:20:13Z</time>
      </trkpt>
      <trkpt lat="44.78223" lon="1.61323">
        <ele>179.5</ele>
        <time>2024-12-25T13:20:15Z</time>
      </trkpt>
      <trkpt lat="44.78222" lon="1.61323">
        <ele>179.5</ele>
        <time>2024-12-25T13:20:16Z</time>
      </trkpt>
      <trkpt lat="44.7822" lon="1.61324">
        <ele>179.5</ele>
        <time>2024-12-25T13:20:17Z</time>
      </trkpt>
      <trkpt lat="44.78217" lon="1.61325">
        <ele>179.4</ele>
        <time>2024-12-25T13:20:18Z</time>
      </trkpt>
      <trkpt lat="44.78214" lon="1.61326">
        <ele>179.4</ele>
        <time>2024-12-25T13:20:20Z</time>
      </trkpt>
      <trkpt lat="44.78212" lon="1.61326">
        <ele>179.4</ele>
        <time>2024-12-25T13:20:21Z</time>
      </trkpt>
      <trkpt lat="44.7821" lon="1.61327">
        <ele>179.3</ele>
        <time>2024-12-25T13:20:23Z</time>
      </trkpt>
      <trkpt lat="44.78208" lon="1.61327">
        <ele>179.3</ele>
        <time>2024-12-25T13:20:24Z</time>
      </trkpt>
      <trkpt lat="44.78206" lon="1.61328">
        <ele>179.3</ele>
        <time>2024-12-25T13:20:25Z</time>
      </trkpt>
      <trkpt lat="44.78205" lon="1.61329">
        <ele>179.3</ele>
        <time>2024-12-25T13:20:27Z</time>
      </trkpt>
      <trkpt lat="44.78204" lon="1.6133">
        <ele>179.3</ele>
        <time>2024-12-25T13:20:28Z</time>
      </trkpt>
      <trkpt lat="44.78203" lon="1.61331">
        <ele>179.3</ele>
        <time>2024-12-25T13:20:29Z</time>
      </trkpt>
      <trkpt lat="44.78202" lon="1.61332">
        <ele>179.2</ele>
        <time>2024-12-25T13:20:31Z</time>
      </trkpt>
      <trkpt lat="44.782" lon="1.61334">
        <ele>179.2</ele>
        <time>2024-12-25T13:20:32Z</time>
      </trkpt>
      <trkpt lat="44.78199" lon="1.61335">
        <ele>179.2</ele>
        <time>2024-12-25T13:20:34Z</time>
      </trkpt>
      <trkpt lat="44.78197" lon="1.61338">
        <ele>179.2</ele>
        <time>2024-12-25T13:20:35Z</time>
      </trkpt>
      <trkpt lat="44.78195" lon="1.61339">
        <ele>179.2</ele>
        <time>2024-12-25T13:20:36Z</time>
      </trkpt>
      <trkpt lat="44.78194" lon="1.6134">
        <ele>179.2</ele>
        <time>2024-12-25T13:20:38Z</time>
      </trkpt>
      <trkpt lat="44.78193" lon="1.61342">
        <ele>179.2</ele>
        <time>2024-12-25T13:20:39Z</time>
      </trkpt>
      <trkpt lat="44.78192" lon="1.61344">
        <ele>179.2</ele>
        <time>2024-12-25T13:20:40Z</time>
      </trkpt>
      <trkpt lat="44.78191" lon="1.61345">
        <ele>179.2</ele>
        <time>2024-12-25T13:20:42Z</time>
      </trkpt>
      <trkpt lat="44.78189" lon="1.61349">
        <ele>179.2</ele>
        <time>2024-12-25T13:20:43Z</time>
      </trkpt>
      <trkpt lat="44.78188" lon="1.61352">
        <ele>179.2</ele>
        <time>2024-12-25T13:20:44Z</time>
      </trkpt>
      <trkpt lat="44.78187" lon="1.61353">
        <ele>179.2</ele>
        <time>2024-12-25T13:20:46Z</time>
      </trkpt>
      <trkpt lat="44.78187" lon="1.61354">
        <ele>179.2</ele>
        <time>2024-12-25T13:20:47Z</time>
      </trkpt>
      <trkpt lat="44.78186" lon="1.61359">
        <ele>179.2</ele>
        <time>2024-12-25T13:20:48Z</time>
      </trkpt>
      <trkpt lat="44.78186" lon="1.61362">
        <ele>179.2</ele>
        <time>2024-12-25T13:20:50Z</time>
      </trkpt>
      <trkpt lat="44.78186" lon="1.61364">
        <ele>179.2</ele>
        <time>2024-12-25T13:20:51Z</time>
      </trkpt>
      <trkpt lat="44.78185" lon="1.61366">
        <ele>179.2</ele>
        <time>2024-12-25T13:20:52Z</time>
      </trkpt>
      <trkpt lat="44.78185" lon="1.61367">
        <ele>179.2</ele>
        <time>2024-12-25T13:20:54Z</time>
      </trkpt>
      <trkpt lat="44.78184" lon="1.6137">
        <ele>179.2</ele>
        <time>2024-12-25T13:20:55Z</time>
      </trkpt>
      <trkpt lat="44.78183" lon="1.61375">
        <ele>179.2</ele>
        <time>2024-12-25T13:20:57Z</time>
      </trkpt>
      <trkpt lat="44.78183" lon="1.61376">
        <ele>179.2</ele>
        <time>2024-12-25T13:20:58Z</time>
      </trkpt>
      <trkpt lat="44.78183" lon="1.61378">
        <ele>179.2</ele>
        <time>2024-12-25T13:21:00Z</time>
      </trkpt>
      <trkpt lat="44.78183" lon="1.61379">
        <ele>179.2</ele>
        <time>2024-12-25T13:21:01Z</time>
      </trkpt>
      <trkpt lat="44.78183" lon="1.61381">
        <ele>179.2</ele>
        <time>2024-12-25T13:21:02Z</time>
      </trkpt>
      <trkpt lat="44.78183" lon="1.61383">
        <ele>179.2</ele>
        <time>2024-12-25T13:21:03Z</time>
      </trkpt>
      <trkpt lat="44.78183" lon="1.61385">
        <ele>179.2</ele>
        <time>2024-12-25T13:21:04Z</time>
      </trkpt>
      <trkpt lat="44.78184" lon="1.61388">
        <ele>179.2</ele>
        <time>2024-12-25T13:21:05Z</time>
      </trkpt>
      <trkpt lat="44.78186" lon="1.61391">
        <ele>179.2</ele>
        <time>2024-12-25T13:21:06Z</time>
      </trkpt>
      <trkpt lat="44.78187" lon="1.61393">
        <ele>179.2</ele>
        <time>2024-12-25T13:21:08Z</time>
      </trkpt>
      <trkpt lat="44.78187" lon="1.61394">
        <ele>179.3</ele>
        <time>2024-12-25T13:21:09Z</time>
      </trkpt>
      <trkpt lat="44.78188" lon="1.61395">
        <ele>179.3</ele>
        <time>2024-12-25T13:21:10Z</time>
      </trkpt>
      <trkpt lat="44.78189" lon="1.61399">
        <ele>179.3</ele>
        <time>2024-12-25T13:21:12Z</time>
      </trkpt>
      <trkpt lat="44.78189" lon="1.61401">
        <ele>179.3</ele>
        <time>2024-12-25T13:21:13Z</time>
      </trkpt>
      <trkpt lat="44.78189" lon="1.61403">
        <ele>179.3</ele>
        <time>2024-12-25T13:21:14Z</time>
      </trkpt>
      <trkpt lat="44.7819" lon="1.61405">
        <ele>179.3</ele>
        <time>2024-12-25T13:21:16Z</time>
      </trkpt>
      <trkpt lat="44.7819" lon="1.61407">
        <ele>179.3</ele>
        <time>2024-12-25T13:21:17Z</time>
      </trkpt>
      <trkpt lat="44.7819" lon="1.61408">
        <ele>179.3</ele>
        <time>2024-12-25T13:21:18Z</time>
      </trkpt>
      <trkpt lat="44.78191" lon="1.61412">
        <ele>179.3</ele>
        <time>2024-12-25T13:21:19Z</time>
      </trkpt>
      <trkpt lat="44.78191" lon="1.61413">
        <ele>179.3</ele>
        <time>2024-12-25T13:21:20Z</time>
      </trkpt>
      <trkpt lat="44.78191" lon="1.61414">
        <ele>179.3</ele>
        <time>2024-12-25T13:21:21Z</time>
      </trkpt>
      <trkpt lat="44.78192" lon="1.61417">
        <ele>179.4</ele>
        <time>2024-12-25T13:21:22Z</time>
      </trkpt>
      <trkpt lat="44.78192" lon="1.61418">
        <ele>179.4</ele>
        <time>2024-12-25T13:21:23Z</time>
      </trkpt>
      <trkpt lat="44.78192" lon="1.61419">
        <ele>179.4</ele>
        <time>2024-12-25T13:21:24Z</time>
      </trkpt>
      <trkpt lat="44.78193" lon="1.61422">
        <ele>179.4</ele>
        <time>2024-12-25T13:21:25Z</time>
      </trkpt>
      <trkpt lat="44.78194" lon="1.61425">
        <ele>179.4</ele>
        <time>2024-12-25T13:21:26Z</time>
      </trkpt>
      <trkpt lat="44.78196" lon="1.61427">
        <ele>179.5</ele>
        <time>2024-12-25T13:21:28Z</time>
      </trkpt>
      <trkpt lat="44.78196" lon="1.61429">
        <ele>179.5</ele>
        <time>2024-12-25T13:21:30Z</time>
      </trkpt>
      <trkpt lat="44.78197" lon="1.6143">
        <ele>179.5</ele>
        <time>2024-12-25T13:21:31Z</time>
      </trkpt>
      <trkpt lat="44.78199" lon="1.61434">
        <ele>179.5</ele>
        <time>2024-12-25T13:21:32Z</time>
      </trkpt>
      <trkpt lat="44.78199" lon="1.61435">
        <ele>179.5</ele>
        <time>2024-12-25T13:21:34Z</time>
      </trkpt>
      <trkpt lat="44.78201" lon="1.61438">
        <ele>179.6</ele>
        <time>2024-12-25T13:21:35Z</time>
      </trkpt>
      <trkpt lat="44.78202" lon="1.6144">
        <ele>179.6</ele>
        <time>2024-12-25T13:21:36Z</time>
      </trkpt>
      <trkpt lat="44.78204" lon="1.61441">
        <ele>179.6</ele>
        <time>2024-12-25T13:21:38Z</time>
      </trkpt>
      <trkpt lat="44.78205" lon="1.61442">
        <ele>179.6</ele>
        <time>2024-12-25T13:21:39Z</time>
      </trkpt>
      <trkpt lat="44.78205" lon="1.61443">
        <ele>179.6</ele>
        <time>2024-12-25T13:21:40Z</time>
      </trkpt>
      <trkpt lat="44.78206" lon="1.61444">
        <ele>179.6</ele>
        <time>2024-12-25T13:21:41Z</time>
      </trkpt>
      <trkpt lat="44.78208" lon="1.61446">
        <ele>179.7</ele>
        <time>2024-12-25T13:21:42Z</time>
      </trkpt>
      <trkpt lat="44.78209" lon="1.61447">
        <ele>179.7</ele>
        <time>2024-12-25T13:21:44Z</time>
      </trkpt>
      <trkpt lat="44.78211" lon="1.61449">
        <ele>179.7</ele>
        <time>2024-12-25T13:21:45Z</time>
      </trkpt>
      <trkpt lat="44.78212" lon="1.6145">
        <ele>179.7</ele>
        <time>2024-12-25T13:21:46Z</time>
      </trkpt>
      <trkpt lat="44.78213" lon="1.61451">
        <ele>179.8</ele>
        <time>2024-12-25T13:21:47Z</time>
      </trkpt>
      <trkpt lat="44.78215" lon="1.61452">
        <ele>179.8</ele>
        <time>2024-12-25T13:21:49Z</time>
      </trkpt>
      <trkpt lat="44.78216" lon="1.61453">
        <ele>179.8</ele>
        <time>2024-12-25T13:21:50Z</time>
      </trkpt>
      <trkpt lat="44.78217" lon="1.61456">
        <ele>179.9</ele>
        <time>2024-12-25T13:21:52Z</time>
      </trkpt>
      <trkpt lat="44.78218" lon="1.61459">
        <ele>179.9</ele>
        <time>2024-12-25T13:21:54Z</time>
      </trkpt>
      <trkpt lat="44.78219" lon="1.6146">
        <ele>179.9</ele>
        <time>2024-12-25T13:21:55Z</time>
      </trkpt>
      <trkpt lat="44.78219" lon="1.61461">
        <ele>179.9</ele>
        <time>2024-12-25T13:21:56Z</time>
      </trkpt>
      <trkpt lat="44.7822" lon="1.61463">
        <ele>180</ele>
        <time>2024-12-25T13:21:57Z</time>
      </trkpt>
      <trkpt lat="44.78221" lon="1.61464">
        <ele>180</ele>
        <time>2024-12-25T13:21:58Z</time>
      </trkpt>
      <trkpt lat="44.78222" lon="1.61466">
        <ele>180</ele>
        <time>2024-12-25T13:21:59Z</time>
      </trkpt>
      <trkpt lat="44.78222" lon="1.61468">
        <ele>180</ele>
        <time>2024-12-25T13:22:01Z</time>
      </trkpt>
      <trkpt lat="44.78223" lon="1.61471">
        <ele>180.1</ele>
        <time>2024-12-25T13:22:02Z</time>
      </trkpt>
      <trkpt lat="44.78223" lon="1.61475">
        <ele>180.1</ele>
        <time>2024-12-25T13:22:04Z</time>
      </trkpt>
      <trkpt lat="44.78223" lon="1.61477">
        <ele>180.2</ele>
        <time>2024-12-25T13:22:05Z</time>
      </trkpt>
      <trkpt lat="44.78223" lon="1.61478">
        <ele>180.2</ele>
        <time>2024-12-25T13:22:06Z</time>
      </trkpt>
      <trkpt lat="44.78224" lon="1.61481">
        <ele>180.2</ele>
        <time>2024-12-25T13:22:07Z</time>
      </trkpt>
      <trkpt lat="44.78224" lon="1.61485">
        <ele>180.2</ele>
        <time>2024-12-25T13:22:09Z</time>
      </trkpt>
      <trkpt lat="44.78223" lon="1.6149">
        <ele>180.3</ele>
        <time>2024-12-25T13:22:11Z</time>
      </trkpt>
      <trkpt lat="44.78223" lon="1.61492">
        <ele>180.3</ele>
        <time>2024-12-25T13:22:12Z</time>
      </trkpt>
      <trkpt lat="44.78222" lon="1.61494">
        <ele>180.3</ele>
        <time>2024-12-25T13:22:14Z</time>
      </trkpt>
      <trkpt lat="44.78224" lon="1.61498">
        <ele>180.4</ele>
        <time>2024-12-25T13:22:15Z</time>
      </trkpt>
      <trkpt lat="44.78225" lon="1.615">
        <ele>180.4</ele>
        <time>2024-12-25T13:22:17Z</time>
      </trkpt>
      <trkpt lat="44.78226" lon="1.61504">
        <ele>180.5</ele>
        <time>2024-12-25T13:22:18Z</time>
      </trkpt>
      <trkpt lat="44.78226" lon="1.61505">
        <ele>180.5</ele>
        <time>2024-12-25T13:22:20Z</time>
      </trkpt>
      <trkpt lat="44.78227" lon="1.61509">
        <ele>180.6</ele>
        <time>2024-12-25T13:22:21Z</time>
      </trkpt>
      <trkpt lat="44.78229" lon="1.61512">
        <ele>180.6</ele>
        <time>2024-12-25T13:22:23Z</time>
      </trkpt>
      <trkpt lat="44.78229" lon="1.61513">
        <ele>180.6</ele>
        <time>2024-12-25T13:22:24Z</time>
      </trkpt>
      <trkpt lat="44.78229" lon="1.61515">
        <ele>180.6</ele>
        <time>2024-12-25T13:22:26Z</time>
      </trkpt>
      <trkpt lat="44.78229" lon="1.61519">
        <ele>180.7</ele>
        <time>2024-12-25T13:22:27Z</time>
      </trkpt>
      <trkpt lat="44.78228" lon="1.61522">
        <ele>180.8</ele>
        <time>2024-12-25T13:22:29Z</time>
      </trkpt>
      <trkpt lat="44.78228" lon="1.61524">
        <ele>180.8</ele>
        <time>2024-12-25T13:22:30Z</time>
      </trkpt>
      <trkpt lat="44.78228" lon="1.61525">
        <ele>180.8</ele>
        <time>2024-12-25T13:22:31Z</time>
      </trkpt>
      <trkpt lat="44.78229" lon="1.61528">
        <ele>180.9</ele>
        <time>2024-12-25T13:22:32Z</time>
      </trkpt>
      <trkpt lat="44.78229" lon="1.6153">
        <ele>180.9</ele>
        <time>2024-12-25T13:22:33Z</time>
      </trkpt>
      <trkpt lat="44.78229" lon="1.61531">
        <ele>180.9</ele>
        <time>2024-12-25T13:22:34Z</time>
      </trkpt>
      <trkpt lat="44.78229" lon="1.61532">
        <ele>180.9</ele>
        <time>2024-12-25T13:22:35Z</time>
      </trkpt>
      <trkpt lat="44.7823" lon="1.61534">
        <ele>181</ele>
        <time>2024-12-25T13:22:36Z</time>
      </trkpt>
      <trkpt lat="44.7823" lon="1.61536">
        <ele>181</ele>
        <time>2024-12-25T13:22:37Z</time>
      </trkpt>
      <trkpt lat="44.78231" lon="1.61538">
        <ele>181</ele>
        <time>2024-12-25T13:22:38Z</time>
      </trkpt>
      <trkpt lat="44.78232" lon="1.61542">
        <ele>181.1</ele>
        <time>2024-12-25T13:22:39Z</time>
      </trkpt>
      <trkpt lat="44.78233" lon="1.61545">
        <ele>181.1</ele>
        <time>2024-12-25T13:22:41Z</time>
      </trkpt>
      <trkpt lat="44.78233" lon="1.61547">
        <ele>181.2</ele>
        <time>2024-12-25T13:22:42Z</time>
      </trkpt>
      <trkpt lat="44.78233" lon="1.61549">
        <ele>181.2</ele>
        <time>2024-12-25T13:22:44Z</time>
      </trkpt>
      <trkpt lat="44.78234" lon="1.61551">
        <ele>181.3</ele>
        <time>2024-12-25T13:22:45Z</time>
      </trkpt>
      <trkpt lat="44.78235" lon="1.61553">
        <ele>181.3</ele>
        <time>2024-12-25T13:22:47Z</time>
      </trkpt>
      <trkpt lat="44.78235" lon="1.61557">
        <ele>181.4</ele>
        <time>2024-12-25T13:22:48Z</time>
      </trkpt>
      <trkpt lat="44.78235" lon="1.61559">
        <ele>181.4</ele>
        <time>2024-12-25T13:22:50Z</time>
      </trkpt>
      <trkpt lat="44.78235" lon="1.6156">
        <ele>181.4</ele>
        <time>2024-12-25T13:22:51Z</time>
      </trkpt>
      <trkpt lat="44.78236" lon="1.61563">
        <ele>181.5</ele>
        <time>2024-12-25T13:22:52Z</time>
      </trkpt>
      <trkpt lat="44.78235" lon="1.61564">
        <ele>181.5</ele>
        <time>2024-12-25T13:22:54Z</time>
      </trkpt>
      <trkpt lat="44.78235" lon="1.61567">
        <ele>181.6</ele>
        <time>2024-12-25T13:22:55Z</time>
      </trkpt>
      <trkpt lat="44.78235" lon="1.61569">
        <ele>181.6</ele>
        <time>2024-12-25T13:22:57Z</time>
      </trkpt>
      <trkpt lat="44.78233" lon="1.61572">
        <ele>181.7</ele>
        <time>2024-12-25T13:22:58Z</time>
      </trkpt>
      <trkpt lat="44.78233" lon="1.61572">
        <ele>181.8</ele>
        <time>2024-12-25T13:22:59Z</time>
      </trkpt>
      <trkpt lat="44.78232" lon="1.61574">
        <ele>181.8</ele>
        <time>2024-12-25T13:23:00Z</time>
      </trkpt>
      <trkpt lat="44.78231" lon="1.61575">
        <ele>181.8</ele>
        <time>2024-12-25T13:23:01Z</time>
      </trkpt>
      <trkpt lat="44.7823" lon="1.61576">
        <ele>181.9</ele>
        <time>2024-12-25T13:23:02Z</time>
      </trkpt>
      <trkpt lat="44.7823" lon="1.61577">
        <ele>181.9</ele>
        <time>2024-12-25T13:23:04Z</time>
      </trkpt>
      <trkpt lat="44.78227" lon="1.61579">
        <ele>182</ele>
        <time>2024-12-25T13:23:05Z</time>
      </trkpt>
      <trkpt lat="44.78226" lon="1.6158">
        <ele>182</ele>
        <time>2024-12-25T13:23:07Z</time>
      </trkpt>
      <trkpt lat="44.78225" lon="1.61582">
        <ele>182.1</ele>
        <time>2024-12-25T13:23:08Z</time>
      </trkpt>
      <trkpt lat="44.78224" lon="1.61583">
        <ele>182.1</ele>
        <time>2024-12-25T13:23:10Z</time>
      </trkpt>
      <trkpt lat="44.78223" lon="1.61585">
        <ele>182.1</ele>
        <time>2024-12-25T13:23:11Z</time>
      </trkpt>
      <trkpt lat="44.78223" lon="1.61586">
        <ele>182.2</ele>
        <time>2024-12-25T13:23:13Z</time>
      </trkpt>
      <trkpt lat="44.78221" lon="1.61588">
        <ele>182.2</ele>
        <time>2024-12-25T13:23:14Z</time>
      </trkpt>
      <trkpt lat="44.78221" lon="1.61588">
        <ele>182.2</ele>
        <time>2024-12-25T13:23:15Z</time>
      </trkpt>
      <trkpt lat="44.7822" lon="1.61589">
        <ele>182.2</ele>
        <time>2024-12-25T13:23:17Z</time>
      </trkpt>
      <trkpt lat="44.78219" lon="1.6159">
        <ele>182.3</ele>
        <time>2024-12-25T13:23:18Z</time>
      </trkpt>
      <trkpt lat="44.78218" lon="1.61591">
        <ele>182.3</ele>
        <time>2024-12-25T13:23:19Z</time>
      </trkpt>
      <trkpt lat="44.78217" lon="1.61591">
        <ele>182.3</ele>
        <time>2024-12-25T13:23:20Z</time>
      </trkpt>
      <trkpt lat="44.78216" lon="1.61592">
        <ele>182.3</ele>
        <time>2024-12-25T13:23:21Z</time>
      </trkpt>
      <trkpt lat="44.78215" lon="1.61593">
        <ele>182.4</ele>
        <time>2024-12-25T13:23:23Z</time>
      </trkpt>
      <trkpt lat="44.78214" lon="1.61593">
        <ele>182.4</ele>
        <time>2024-12-25T13:23:24Z</time>
      </trkpt>
      <trkpt lat="44.78213" lon="1.61594">
        <ele>182.4</ele>
        <time>2024-12-25T13:23:25Z</time>
      </trkpt>
      <trkpt lat="44.78211" lon="1.61594">
        <ele>182.4</ele>
        <time>2024-12-25T13:23:26Z</time>
      </trkpt>
      <trkpt lat="44.7821" lon="1.61594">
        <ele>182.4</ele>
        <time>2024-12-25T13:23:27Z</time>
      </trkpt>
      <trkpt lat="44.78209" lon="1.61594">
        <ele>182.4</ele>
        <time>2024-12-25T13:23:28Z</time>
      </trkpt>
      <trkpt lat="44.78207" lon="1.61595">
        <ele>182.5</ele>
        <time>2024-12-25T13:23:29Z</time>
      </trkpt>
      <trkpt lat="44.78207" lon="1.61595">
        <ele>182.5</ele>
        <time>2024-12-25T13:23:30Z</time>
      </trkpt>
      <trkpt lat="44.78206" lon="1.61596">
        <ele>182.5</ele>
        <time>2024-12-25T13:23:31Z</time>
      </trkpt>
      <trkpt lat="44.78204" lon="1.61598">
        <ele>182.5</ele>
        <time>2024-12-25T13:23:32Z</time>
      </trkpt>
      <trkpt lat="44.78203" lon="1.616">
        <ele>182.5</ele>
        <time>2024-12-25T13:23:34Z</time>
      </trkpt>
      <trkpt lat="44.78203" lon="1.61603">
        <ele>182.6</ele>
        <time>2024-12-25T13:23:35Z</time>
      </trkpt>
      <trkpt lat="44.78202" lon="1.61605">
        <ele>182.6</ele>
        <time>2024-12-25T13:23:36Z</time>
      </trkpt>
      <trkpt lat="44.78201" lon="1.61608">
        <ele>182.6</ele>
        <time>2024-12-25T13:23:37Z</time>
      </trkpt>
      <trkpt lat="44.782" lon="1.6161">
        <ele>182.6</ele>
        <time>2024-12-25T13:23:39Z</time>
      </trkpt>
      <trkpt lat="44.78199" lon="1.61612">
        <ele>182.6</ele>
        <time>2024-12-25T13:23:40Z</time>
      </trkpt>
      <trkpt lat="44.78199" lon="1.61613">
        <ele>182.7</ele>
        <time>2024-12-25T13:23:42Z</time>
      </trkpt>
      <trkpt lat="44.78198" lon="1.61615">
        <ele>182.7</ele>
        <time>2024-12-25T13:23:43Z</time>
      </trkpt>
      <trkpt lat="44.78197" lon="1.61617">
        <ele>182.7</ele>
        <time>2024-12-25T13:23:44Z</time>
      </trkpt>
      <trkpt lat="44.78196" lon="1.61618">
        <ele>182.7</ele>
        <time>2024-12-25T13:23:46Z</time>
      </trkpt>
      <trkpt lat="44.78194" lon="1.61621">
        <ele>182.7</ele>
        <time>2024-12-25T13:23:47Z</time>
      </trkpt>
      <trkpt lat="44.78193" lon="1.61623">
        <ele>182.7</ele>
        <time>2024-12-25T13:23:49Z</time>
      </trkpt>
      <trkpt lat="44.78191" lon="1.61626">
        <ele>182.8</ele>
        <time>2024-12-25T13:23:50Z</time>
      </trkpt>
      <trkpt lat="44.7819" lon="1.61628">
        <ele>182.8</ele>
        <time>2024-12-25T13:23:52Z</time>
      </trkpt>
      <trkpt lat="44.78189" lon="1.61632">
        <ele>182.8</ele>
        <time>2024-12-25T13:23:53Z</time>
      </trkpt>
      <trkpt lat="44.78188" lon="1.61637">
        <ele>182.9</ele>
        <time>2024-12-25T13:23:55Z</time>
      </trkpt>
      <trkpt lat="44.78187" lon="1.61639">
        <ele>182.9</ele>
        <time>2024-12-25T13:23:56Z</time>
      </trkpt>
      <trkpt lat="44.78187" lon="1.61642">
        <ele>182.9</ele>
        <time>2024-12-25T13:23:57Z</time>
      </trkpt>
      <trkpt lat="44.78186" lon="1.61644">
        <ele>183</ele>
        <time>2024-12-25T13:23:58Z</time>
      </trkpt>
      <trkpt lat="44.78184" lon="1.61649">
        <ele>183</ele>
        <time>2024-12-25T13:24:00Z</time>
      </trkpt>
      <trkpt lat="44.78183" lon="1.6165">
        <ele>183.1</ele>
        <time>2024-12-25T13:24:02Z</time>
      </trkpt>
      <trkpt lat="44.78181" lon="1.61653">
        <ele>183.1</ele>
        <time>2024-12-25T13:24:03Z</time>
      </trkpt>
      <trkpt lat="44.7818" lon="1.61654">
        <ele>183.2</ele>
        <time>2024-12-25T13:24:05Z</time>
      </trkpt>
      <trkpt lat="44.78176" lon="1.61656">
        <ele>183.2</ele>
        <time>2024-12-25T13:24:06Z</time>
      </trkpt>
      <trkpt lat="44.78174" lon="1.61656">
        <ele>183.3</ele>
        <time>2024-12-25T13:24:08Z</time>
      </trkpt>
      <trkpt lat="44.78169" lon="1.61658">
        <ele>183.4</ele>
        <time>2024-12-25T13:24:09Z</time>
      </trkpt>
      <trkpt lat="44.78167" lon="1.61659">
        <ele>183.5</ele>
        <time>2024-12-25T13:24:11Z</time>
      </trkpt>
      <trkpt lat="44.78165" lon="1.6166">
        <ele>183.6</ele>
        <time>2024-12-25T13:24:12Z</time>
      </trkpt>
      <trkpt lat="44.78163" lon="1.61662">
        <ele>183.6</ele>
        <time>2024-12-25T13:24:14Z</time>
      </trkpt>
      <trkpt lat="44.78162" lon="1.61663">
        <ele>183.7</ele>
        <time>2024-12-25T13:24:16Z</time>
      </trkpt>
      <trkpt lat="44.78162" lon="1.61663">
        <ele>183.7</ele>
        <time>2024-12-25T13:24:17Z</time>
      </trkpt>
      <trkpt lat="44.78161" lon="1.61665">
        <ele>183.7</ele>
        <time>2024-12-25T13:24:18Z</time>
      </trkpt>
      <trkpt lat="44.78159" lon="1.61667">
        <ele>183.8</ele>
        <time>2024-12-25T13:24:19Z</time>
      </trkpt>
      <trkpt lat="44.78158" lon="1.61668">
        <ele>183.9</ele>
        <time>2024-12-25T13:24:21Z</time>
      </trkpt>
      <trkpt lat="44.78158" lon="1.61669">
        <ele>183.9</ele>
        <time>2024-12-25T13:24:22Z</time>
      </trkpt>
      <trkpt lat="44.78157" lon="1.61671">
        <ele>184</ele>
        <time>2024-12-25T13:24:23Z</time>
      </trkpt>
      <trkpt lat="44.78157" lon="1.61672">
        <ele>184</ele>
        <time>2024-12-25T13:24:24Z</time>
      </trkpt>
      <trkpt lat="44.78156" lon="1.61675">
        <ele>184.2</ele>
        <time>2024-12-25T13:24:25Z</time>
      </trkpt>
      <trkpt lat="44.78155" lon="1.61676">
        <ele>184.2</ele>
        <time>2024-12-25T13:24:27Z</time>
      </trkpt>
      <trkpt lat="44.78155" lon="1.6168">
        <ele>184.4</ele>
        <time>2024-12-25T13:24:28Z</time>
      </trkpt>
      <trkpt lat="44.78155" lon="1.61681">
        <ele>184.4</ele>
        <time>2024-12-25T13:24:30Z</time>
      </trkpt>
      <trkpt lat="44.78154" lon="1.61683">
        <ele>184.5</ele>
        <time>2024-12-25T13:24:31Z</time>
      </trkpt>
      <trkpt lat="44.78154" lon="1.61684">
        <ele>184.6</ele>
        <time>2024-12-25T13:24:32Z</time>
      </trkpt>
      <trkpt lat="44.78153" lon="1.61686">
        <ele>184.7</ele>
        <time>2024-12-25T13:24:33Z</time>
      </trkpt>
      <trkpt lat="44.78153" lon="1.61687">
        <ele>184.7</ele>
        <time>2024-12-25T13:24:34Z</time>
      </trkpt>
      <trkpt lat="44.78152" lon="1.61688">
        <ele>184.8</ele>
        <time>2024-12-25T13:24:35Z</time>
      </trkpt>
      <trkpt lat="44.78152" lon="1.6169">
        <ele>184.9</ele>
        <time>2024-12-25T13:24:36Z</time>
      </trkpt>
      <trkpt lat="44.78151" lon="1.61691">
        <ele>185</ele>
        <time>2024-12-25T13:24:37Z</time>
      </trkpt>
      <trkpt lat="44.7815" lon="1.61693">
        <ele>185.1</ele>
        <time>2024-12-25T13:24:38Z</time>
      </trkpt>
      <trkpt lat="44.7815" lon="1.61694">
        <ele>185.2</ele>
        <time>2024-12-25T13:24:39Z</time>
      </trkpt>
      <trkpt lat="44.78149" lon="1.61695">
        <ele>185.3</ele>
        <time>2024-12-25T13:24:40Z</time>
      </trkpt>
      <trkpt lat="44.78147" lon="1.61699">
        <ele>185.5</ele>
        <time>2024-12-25T13:24:41Z</time>
      </trkpt>
      <trkpt lat="44.78147" lon="1.61699">
        <ele>185.6</ele>
        <time>2024-12-25T13:24:42Z</time>
      </trkpt>
      <trkpt lat="44.78146" lon="1.61701">
        <ele>185.7</ele>
        <time>2024-12-25T13:24:44Z</time>
      </trkpt>
      <trkpt lat="44.78145" lon="1.61703">
        <ele>185.9</ele>
        <time>2024-12-25T13:24:45Z</time>
      </trkpt>
      <trkpt lat="44.78144" lon="1.61705">
        <ele>186</ele>
        <time>2024-12-25T13:24:47Z</time>
      </trkpt>
      <trkpt lat="44.78144" lon="1.61706">
        <ele>186.1</ele>
        <time>2024-12-25T13:24:48Z</time>
      </trkpt>
      <trkpt lat="44.78143" lon="1.61707">
        <ele>186.2</ele>
        <time>2024-12-25T13:24:49Z</time>
      </trkpt>
      <trkpt lat="44.78142" lon="1.61709">
        <ele>186.4</ele>
        <time>2024-12-25T13:24:50Z</time>
      </trkpt>
      <trkpt lat="44.78141" lon="1.61709">
        <ele>186.5</ele>
        <time>2024-12-25T13:24:51Z</time>
      </trkpt>
      <trkpt lat="44.7814" lon="1.61709">
        <ele>186.6</ele>
        <time>2024-12-25T13:24:52Z</time>
      </trkpt>
      <trkpt lat="44.78139" lon="1.61709">
        <ele>186.6</ele>
        <time>2024-12-25T13:24:53Z</time>
      </trkpt>
      <trkpt lat="44.78138" lon="1.6171">
        <ele>186.7</ele>
        <time>2024-12-25T13:24:54Z</time>
      </trkpt>
      <trkpt lat="44.78138" lon="1.61712">
        <ele>186.7</ele>
        <time>2024-12-25T13:24:55Z</time>
      </trkpt>
      <trkpt lat="44.78137" lon="1.61713">
        <ele>186.7</ele>
        <time>2024-12-25T13:24:56Z</time>
      </trkpt>
      <trkpt lat="44.78137" lon="1.61716">
        <ele>186.8</ele>
        <time>2024-12-25T13:24:57Z</time>
      </trkpt>
      <trkpt lat="44.78136" lon="1.61717">
        <ele>186.9</ele>
        <time>2024-12-25T13:24:58Z</time>
      </trkpt>
      <trkpt lat="44.78136" lon="1.61718">
        <ele>186.9</ele>
        <time>2024-12-25T13:24:59Z</time>
      </trkpt>
      <trkpt lat="44.78135" lon="1.61719">
        <ele>187</ele>
        <time>2024-12-25T13:25:00Z</time>
      </trkpt>
      <trkpt lat="44.78134" lon="1.6172">
        <ele>187</ele>
        <time>2024-12-25T13:25:01Z</time>
      </trkpt>
      <trkpt lat="44.78133" lon="1.61722">
        <ele>187.1</ele>
        <time>2024-12-25T13:25:02Z</time>
      </trkpt>
      <trkpt lat="44.78133" lon="1.61723">
        <ele>187.1</ele>
        <time>2024-12-25T13:25:03Z</time>
      </trkpt>
      <trkpt lat="44.78133" lon="1.61725">
        <ele>187.1</ele>
        <time>2024-12-25T13:25:04Z</time>
      </trkpt>
      <trkpt lat="44.78133" lon="1.61726">
        <ele>187.2</ele>
        <time>2024-12-25T13:25:05Z</time>
      </trkpt>
      <trkpt lat="44.78133" lon="1.61727">
        <ele>187.2</ele>
        <time>2024-12-25T13:25:06Z</time>
      </trkpt>
      <trkpt lat="44.78133" lon="1.61729">
        <ele>187.3</ele>
        <time>2024-12-25T13:25:07Z</time>
      </trkpt>
      <trkpt lat="44.78133" lon="1.6173">
        <ele>187.3</ele>
        <time>2024-12-25T13:25:08Z</time>
      </trkpt>
      <trkpt lat="44.78133" lon="1.61731">
        <ele>187.3</ele>
        <time>2024-12-25T13:25:09Z</time>
      </trkpt>
      <trkpt lat="44.78133" lon="1.61732">
        <ele>187.4</ele>
        <time>2024-12-25T13:25:10Z</time>
      </trkpt>
      <trkpt lat="44.78134" lon="1.61733">
        <ele>187.4</ele>
        <time>2024-12-25T13:25:11Z</time>
      </trkpt>
      <trkpt lat="44.78134" lon="1.61735">
        <ele>187.4</ele>
        <time>2024-12-25T13:25:12Z</time>
      </trkpt>
      <trkpt lat="44.78134" lon="1.61735">
        <ele>187.5</ele>
        <time>2024-12-25T13:25:13Z</time>
      </trkpt>
      <trkpt lat="44.78134" lon="1.61736">
        <ele>187.5</ele>
        <time>2024-12-25T13:25:14Z</time>
      </trkpt>
      <trkpt lat="44.78134" lon="1.61737">
        <ele>187.5</ele>
        <time>2024-12-25T13:25:15Z</time>
      </trkpt>
      <trkpt lat="44.78134" lon="1.61738">
        <ele>187.5</ele>
        <time>2024-12-25T13:25:16Z</time>
      </trkpt>
      <trkpt lat="44.78134" lon="1.6174">
        <ele>187.6</ele>
        <time>2024-12-25T13:25:17Z</time>
      </trkpt>
      <trkpt lat="44.78134" lon="1.6174">
        <ele>187.6</ele>
        <time>2024-12-25T13:25:18Z</time>
      </trkpt>
      <trkpt lat="44.78134" lon="1.61741">
        <ele>187.6</ele>
        <time>2024-12-25T13:25:19Z</time>
      </trkpt>
      <trkpt lat="44.78135" lon="1.61741">
        <ele>187.6</ele>
        <time>2024-12-25T13:25:20Z</time>
      </trkpt>
      <trkpt lat="44.78135" lon="1.61742">
        <ele>187.6</ele>
        <time>2024-12-25T13:25:21Z</time>
      </trkpt>
      <trkpt lat="44.78136" lon="1.61741">
        <ele>187.7</ele>
        <time>2024-12-25T13:25:22Z</time>
      </trkpt>
      <trkpt lat="44.78137" lon="1.6174">
        <ele>187.8</ele>
        <time>2024-12-25T13:25:23Z</time>
      </trkpt>
      <trkpt lat="44.78137" lon="1.61738">
        <ele>187.9</ele>
        <time>2024-12-25T13:25:24Z</time>
      </trkpt>
      <trkpt lat="44.78137" lon="1.61735">
        <ele>188.1</ele>
        <time>2024-12-25T13:25:25Z</time>
      </trkpt>
      <trkpt lat="44.78137" lon="1.61733">
        <ele>188.1</ele>
        <time>2024-12-25T13:25:26Z</time>
      </trkpt>
      <trkpt lat="44.78138" lon="1.61732">
        <ele>188.2</ele>
        <time>2024-12-25T13:25:27Z</time>
      </trkpt>
      <trkpt lat="44.78138" lon="1.61731">
        <ele>188.3</ele>
        <time>2024-12-25T13:25:28Z</time>
      </trkpt>
      <trkpt lat="44.78138" lon="1.61729">
        <ele>188.4</ele>
        <time>2024-12-25T13:25:29Z</time>
      </trkpt>
      <trkpt lat="44.78138" lon="1.61728">
        <ele>188.5</ele>
        <time>2024-12-25T13:25:30Z</time>
      </trkpt>
      <trkpt lat="44.78139" lon="1.61727">
        <ele>188.6</ele>
        <time>2024-12-25T13:25:31Z</time>
      </trkpt>
      <trkpt lat="44.78141" lon="1.61726">
        <ele>188.7</ele>
        <time>2024-12-25T13:25:32Z</time>
      </trkpt>
      <trkpt lat="44.78142" lon="1.61726">
        <ele>188.8</ele>
        <time>2024-12-25T13:25:33Z</time>
      </trkpt>
      <trkpt lat="44.78143" lon="1.61725">
        <ele>188.9</ele>
        <time>2024-12-25T13:25:34Z</time>
      </trkpt>
      <trkpt lat="44.78143" lon="1.61724">
        <ele>189</ele>
        <time>2024-12-25T13:25:35Z</time>
      </trkpt>
      <trkpt lat="44.78144" lon="1.61723">
        <ele>189.1</ele>
        <time>2024-12-25T13:25:36Z</time>
      </trkpt>
      <trkpt lat="44.78145" lon="1.61721">
        <ele>189.2</ele>
        <time>2024-12-25T13:25:37Z</time>
      </trkpt>
      <trkpt lat="44.78145" lon="1.6172">
        <ele>189.2</ele>
        <time>2024-12-25T13:25:38Z</time>
      </trkpt>
      <trkpt lat="44.78146" lon="1.61719">
        <ele>189.3</ele>
        <time>2024-12-25T13:25:39Z</time>
      </trkpt>
      <trkpt lat="44.78146" lon="1.61718">
        <ele>189.4</ele>
        <time>2024-12-25T13:25:40Z</time>
      </trkpt>
      <trkpt lat="44.78147" lon="1.61717">
        <ele>189.4</ele>
        <time>2024-12-25T13:25:41Z</time>
      </trkpt>
      <trkpt lat="44.78147" lon="1.61716">
        <ele>189.5</ele>
        <time>2024-12-25T13:25:42Z</time>
      </trkpt>
      <trkpt lat="44.78148" lon="1.61716">
        <ele>189.6</ele>
        <time>2024-12-25T13:25:43Z</time>
      </trkpt>
      <trkpt lat="44.78148" lon="1.61715">
        <ele>189.6</ele>
        <time>2024-12-25T13:25:44Z</time>
      </trkpt>
      <trkpt lat="44.78148" lon="1.61716">
        <ele>189.6</ele>
        <time>2024-12-25T13:25:45Z</time>
      </trkpt>
      <trkpt lat="44.78149" lon="1.61716">
        <ele>189.7</ele>
        <time>2024-12-25T13:25:46Z</time>
      </trkpt>
      <trkpt lat="44.78149" lon="1.61715">
        <ele>189.7</ele>
        <time>2024-12-25T13:25:47Z</time>
      </trkpt>
      <trkpt lat="44.78149" lon="1.61714">
        <ele>189.8</ele>
        <time>2024-12-25T13:25:48Z</time>
      </trkpt>
      <trkpt lat="44.7815" lon="1.61713">
        <ele>189.9</ele>
        <time>2024-12-25T13:25:49Z</time>
      </trkpt>
      <trkpt lat="44.78151" lon="1.61711">
        <ele>190</ele>
        <time>2024-12-25T13:25:50Z</time>
      </trkpt>
      <trkpt lat="44.78151" lon="1.61709">
        <ele>190.1</ele>
        <time>2024-12-25T13:25:51Z</time>
      </trkpt>
      <trkpt lat="44.78153" lon="1.61706">
        <ele>190.4</ele>
        <time>2024-12-25T13:25:52Z</time>
      </trkpt>
      <trkpt lat="44.78153" lon="1.61706">
        <ele>190.4</ele>
        <time>2024-12-25T13:25:53Z</time>
      </trkpt>
      <trkpt lat="44.78154" lon="1.61705">
        <ele>190.5</ele>
        <time>2024-12-25T13:25:54Z</time>
      </trkpt>
      <trkpt lat="44.78155" lon="1.61702">
        <ele>190.7</ele>
        <time>2024-12-25T13:25:55Z</time>
      </trkpt>
      <trkpt lat="44.78155" lon="1.61701">
        <ele>190.7</ele>
        <time>2024-12-25T13:25:56Z</time>
      </trkpt>
      <trkpt lat="44.78156" lon="1.617">
        <ele>190.8</ele>
        <time>2024-12-25T13:25:57Z</time>
      </trkpt>
      <trkpt lat="44.78156" lon="1.617">
        <ele>190.9</ele>
        <time>2024-12-25T13:25:58Z</time>
      </trkpt>
      <trkpt lat="44.78157" lon="1.61699">
        <ele>191</ele>
        <time>2024-12-25T13:25:59Z</time>
      </trkpt>
      <trkpt lat="44.78159" lon="1.61699">
        <ele>191.1</ele>
        <time>2024-12-25T13:26:00Z</time>
      </trkpt>
      <trkpt lat="44.7816" lon="1.617">
        <ele>191.2</ele>
        <time>2024-12-25T13:26:01Z</time>
      </trkpt>
      <trkpt lat="44.78161" lon="1.61699">
        <ele>191.3</ele>
        <time>2024-12-25T13:26:02Z</time>
      </trkpt>
      <trkpt lat="44.78162" lon="1.61698">
        <ele>191.4</ele>
        <time>2024-12-25T13:26:03Z</time>
      </trkpt>
      <trkpt lat="44.78163" lon="1.61696">
        <ele>191.6</ele>
        <time>2024-12-25T13:26:04Z</time>
      </trkpt>
      <trkpt lat="44.78163" lon="1.61695">
        <ele>191.7</ele>
        <time>2024-12-25T13:26:05Z</time>
      </trkpt>
      <trkpt lat="44.78164" lon="1.61693">
        <ele>191.8</ele>
        <time>2024-12-25T13:26:06Z</time>
      </trkpt>
      <trkpt lat="44.78164" lon="1.61691">
        <ele>191.9</ele>
        <time>2024-12-25T13:26:07Z</time>
      </trkpt>
      <trkpt lat="44.78165" lon="1.61689">
        <ele>192.1</ele>
        <time>2024-12-25T13:26:08Z</time>
      </trkpt>
      <trkpt lat="44.78165" lon="1.61688">
        <ele>192.1</ele>
        <time>2024-12-25T13:26:09Z</time>
      </trkpt>
      <trkpt lat="44.78166" lon="1.61687">
        <ele>192.2</ele>
        <time>2024-12-25T13:26:10Z</time>
      </trkpt>
      <trkpt lat="44.78166" lon="1.61686">
        <ele>192.3</ele>
        <time>2024-12-25T13:26:11Z</time>
      </trkpt>
      <trkpt lat="44.78167" lon="1.61685">
        <ele>192.4</ele>
        <time>2024-12-25T13:26:12Z</time>
      </trkpt>
      <trkpt lat="44.78168" lon="1.61684">
        <ele>192.5</ele>
        <time>2024-12-25T13:26:13Z</time>
      </trkpt>
      <trkpt lat="44.78169" lon="1.61683">
        <ele>192.6</ele>
        <time>2024-12-25T13:26:14Z</time>
      </trkpt>
      <trkpt lat="44.7817" lon="1.61682">
        <ele>192.7</ele>
        <time>2024-12-25T13:26:15Z</time>
      </trkpt>
      <trkpt lat="44.78171" lon="1.61682">
        <ele>192.8</ele>
        <time>2024-12-25T13:26:16Z</time>
      </trkpt>
      <trkpt lat="44.78173" lon="1.61681">
        <ele>193</ele>
        <time>2024-12-25T13:26:17Z</time>
      </trkpt>
      <trkpt lat="44.78174" lon="1.6168">
        <ele>193.1</ele>
        <time>2024-12-25T13:26:18Z</time>
      </trkpt>
      <trkpt lat="44.78175" lon="1.6168">
        <ele>193.1</ele>
        <time>2024-12-25T13:26:19Z</time>
      </trkpt>
      <trkpt lat="44.78176" lon="1.6168">
        <ele>193.2</ele>
        <time>2024-12-25T13:26:20Z</time>
      </trkpt>
      <trkpt lat="44.78177" lon="1.61679">
        <ele>193.3</ele>
        <time>2024-12-25T13:26:21Z</time>
      </trkpt>
      <trkpt lat="44.78178" lon="1.61677">
        <ele>193.5</ele>
        <time>2024-12-25T13:26:22Z</time>
      </trkpt>
      <trkpt lat="44.78179" lon="1.61676">
        <ele>193.6</ele>
        <time>2024-12-25T13:26:23Z</time>
      </trkpt>
      <trkpt lat="44.7818" lon="1.61676">
        <ele>193.6</ele>
        <time>2024-12-25T13:26:24Z</time>
      </trkpt>
      <trkpt lat="44.78181" lon="1.61675">
        <ele>193.7</ele>
        <time>2024-12-25T13:26:25Z</time>
      </trkpt>
      <trkpt lat="44.78182" lon="1.61675">
        <ele>193.8</ele>
        <time>2024-12-25T13:26:26Z</time>
      </trkpt>
      <trkpt lat="44.78183" lon="1.61674">
        <ele>193.9</ele>
        <time>2024-12-25T13:26:27Z</time>
      </trkpt>
      <trkpt lat="44.78183" lon="1.61674">
        <ele>193.9</ele>
        <time>2024-12-25T13:26:28Z</time>
      </trkpt>
      <trkpt lat="44.78184" lon="1.61673">
        <ele>194</ele>
        <time>2024-12-25T13:26:29Z</time>
      </trkpt>
      <trkpt lat="44.78185" lon="1.61672">
        <ele>194.2</ele>
        <time>2024-12-25T13:26:30Z</time>
      </trkpt>
      <trkpt lat="44.78186" lon="1.61671">
        <ele>194.3</ele>
        <time>2024-12-25T13:26:31Z</time>
      </trkpt>
      <trkpt lat="44.78187" lon="1.61671">
        <ele>194.3</ele>
        <time>2024-12-25T13:26:32Z</time>
      </trkpt>
      <trkpt lat="44.78189" lon="1.6167">
        <ele>194.5</ele>
        <time>2024-12-25T13:26:33Z</time>
      </trkpt>
      <trkpt lat="44.7819" lon="1.61669">
        <ele>194.6</ele>
        <time>2024-12-25T13:26:34Z</time>
      </trkpt>
      <trkpt lat="44.78191" lon="1.61669">
        <ele>194.6</ele>
        <time>2024-12-25T13:26:35Z</time>
      </trkpt>
      <trkpt lat="44.78192" lon="1.61668">
        <ele>194.7</ele>
        <time>2024-12-25T13:26:36Z</time>
      </trkpt>
      <trkpt lat="44.78194" lon="1.61667">
        <ele>194.9</ele>
        <time>2024-12-25T13:26:37Z</time>
      </trkpt>
      <trkpt lat="44.78195" lon="1.61667">
        <ele>194.9</ele>
        <time>2024-12-25T13:26:38Z</time>
      </trkpt>
      <trkpt lat="44.78196" lon="1.61666">
        <ele>195</ele>
        <time>2024-12-25T13:26:39Z</time>
      </trkpt>
      <trkpt lat="44.78196" lon="1.61665">
        <ele>195.1</ele>
        <time>2024-12-25T13:26:40Z</time>
      </trkpt>
      <trkpt lat="44.78198" lon="1.61664">
        <ele>195.2</ele>
        <time>2024-12-25T13:26:41Z</time>
      </trkpt>
      <trkpt lat="44.78199" lon="1.61664">
        <ele>195.3</ele>
        <time>2024-12-25T13:26:42Z</time>
      </trkpt>
      <trkpt lat="44.782" lon="1.61664">
        <ele>195.4</ele>
        <time>2024-12-25T13:26:43Z</time>
      </trkpt>
      <trkpt lat="44.78201" lon="1.61663">
        <ele>195.5</ele>
        <time>2024-12-25T13:26:44Z</time>
      </trkpt>
      <trkpt lat="44.78202" lon="1.61663">
        <ele>195.5</ele>
        <time>2024-12-25T13:26:45Z</time>
      </trkpt>
      <trkpt lat="44.78203" lon="1.61662">
        <ele>195.6</ele>
        <time>2024-12-25T13:26:46Z</time>
      </trkpt>
      <trkpt lat="44.78205" lon="1.61662">
        <ele>195.7</ele>
        <time>2024-12-25T13:26:47Z</time>
      </trkpt>
      <trkpt lat="44.78205" lon="1.61662">
        <ele>195.7</ele>
        <time>2024-12-25T13:26:48Z</time>
      </trkpt>
      <trkpt lat="44.78206" lon="1.61661">
        <ele>195.8</ele>
        <time>2024-12-25T13:26:49Z</time>
      </trkpt>
      <trkpt lat="44.78207" lon="1.6166">
        <ele>195.9</ele>
        <time>2024-12-25T13:26:50Z</time>
      </trkpt>
      <trkpt lat="44.78208" lon="1.61659">
        <ele>196</ele>
        <time>2024-12-25T13:26:51Z</time>
      </trkpt>
      <trkpt lat="44.7821" lon="1.61657">
        <ele>196.2</ele>
        <time>2024-12-25T13:26:52Z</time>
      </trkpt>
      <trkpt lat="44.78211" lon="1.61656">
        <ele>196.2</ele>
        <time>2024-12-25T13:26:53Z</time>
      </trkpt>
      <trkpt lat="44.78211" lon="1.61656">
        <ele>196.3</ele>
        <time>2024-12-25T13:26:54Z</time>
      </trkpt>
      <trkpt lat="44.78212" lon="1.61654">
        <ele>196.4</ele>
        <time>2024-12-25T13:26:55Z</time>
      </trkpt>
      <trkpt lat="44.78213" lon="1.61653">
        <ele>196.5</ele>
        <time>2024-12-25T13:26:56Z</time>
      </trkpt>
      <trkpt lat="44.78214" lon="1.61652">
        <ele>196.5</ele>
        <time>2024-12-25T13:26:57Z</time>
      </trkpt>
      <trkpt lat="44.78215" lon="1.61652">
        <ele>196.6</ele>
        <time>2024-12-25T13:26:58Z</time>
      </trkpt>
      <trkpt lat="44.78216" lon="1.61652">
        <ele>196.7</ele>
        <time>2024-12-25T13:26:59Z</time>
      </trkpt>
      <trkpt lat="44.78217" lon="1.61652">
        <ele>196.8</ele>
        <time>2024-12-25T13:27:00Z</time>
      </trkpt>
      <trkpt lat="44.78219" lon="1.61652">
        <ele>196.9</ele>
        <time>2024-12-25T13:27:01Z</time>
      </trkpt>
      <trkpt lat="44.7822" lon="1.61652">
        <ele>197</ele>
        <time>2024-12-25T13:27:02Z</time>
      </trkpt>
      <trkpt lat="44.78221" lon="1.61652">
        <ele>197</ele>
        <time>2024-12-25T13:27:03Z</time>
      </trkpt>
      <trkpt lat="44.78223" lon="1.6165">
        <ele>197.2</ele>
        <time>2024-12-25T13:27:04Z</time>
      </trkpt>
      <trkpt lat="44.78223" lon="1.61649">
        <ele>197.2</ele>
        <time>2024-12-25T13:27:05Z</time>
      </trkpt>
      <trkpt lat="44.78224" lon="1.61648">
        <ele>197.3</ele>
        <time>2024-12-25T13:27:06Z</time>
      </trkpt>
      <trkpt lat="44.78224" lon="1.61648">
        <ele>197.3</ele>
        <time>2024-12-25T13:27:07Z</time>
      </trkpt>
      <trkpt lat="44.78225" lon="1.61646">
        <ele>197.5</ele>
        <time>2024-12-25T13:27:08Z</time>
      </trkpt>
      <trkpt lat="44.78226" lon="1.61645">
        <ele>197.5</ele>
        <time>2024-12-25T13:27:09Z</time>
      </trkpt>
      <trkpt lat="44.78227" lon="1.61644">
        <ele>197.6</ele>
        <time>2024-12-25T13:27:10Z</time>
      </trkpt>
      <trkpt lat="44.78228" lon="1.61643">
        <ele>197.7</ele>
        <time>2024-12-25T13:27:11Z</time>
      </trkpt>
      <trkpt lat="44.78229" lon="1.61642">
        <ele>197.8</ele>
        <time>2024-12-25T13:27:12Z</time>
      </trkpt>
      <trkpt lat="44.7823" lon="1.6164">
        <ele>197.9</ele>
        <time>2024-12-25T13:27:13Z</time>
      </trkpt>
      <trkpt lat="44.78231" lon="1.61639">
        <ele>198</ele>
        <time>2024-12-25T13:27:14Z</time>
      </trkpt>
      <trkpt lat="44.78232" lon="1.61638">
        <ele>198.1</ele>
        <time>2024-12-25T13:27:15Z</time>
      </trkpt>
      <trkpt lat="44.78233" lon="1.61638">
        <ele>198.2</ele>
        <time>2024-12-25T13:27:16Z</time>
      </trkpt>
      <trkpt lat="44.78235" lon="1.61638">
        <ele>198.3</ele>
        <time>2024-12-25T13:27:17Z</time>
      </trkpt>
      <trkpt lat="44.78235" lon="1.61639">
        <ele>198.3</ele>
        <time>2024-12-25T13:27:18Z</time>
      </trkpt>
      <trkpt lat="44.78237" lon="1.6164">
        <ele>198.5</ele>
        <time>2024-12-25T13:27:19Z</time>
      </trkpt>
      <trkpt lat="44.78237" lon="1.6164">
        <ele>198.5</ele>
        <time>2024-12-25T13:27:20Z</time>
      </trkpt>
      <trkpt lat="44.78239" lon="1.6164">
        <ele>198.6</ele>
        <time>2024-12-25T13:27:21Z</time>
      </trkpt>
      <trkpt lat="44.78239" lon="1.61641">
        <ele>198.7</ele>
        <time>2024-12-25T13:27:22Z</time>
      </trkpt>
      <trkpt lat="44.7824" lon="1.61641">
        <ele>198.7</ele>
        <time>2024-12-25T13:27:23Z</time>
      </trkpt>
      <trkpt lat="44.78237" lon="1.61639">
        <ele>198.9</ele>
        <time>2024-12-25T13:27:24Z</time>
      </trkpt>
      <trkpt lat="44.78233" lon="1.61637">
        <ele>199.3</ele>
        <time>2024-12-25T13:27:25Z</time>
      </trkpt>
      <trkpt lat="44.78233" lon="1.61637">
        <ele>199.3</ele>
        <time>2024-12-25T13:27:26Z</time>
      </trkpt>
      <trkpt lat="44.78233" lon="1.61637">
        <ele>199.3</ele>
        <time>2024-12-25T13:27:27Z</time>
      </trkpt>
      <trkpt lat="44.78233" lon="1.61637">
        <ele>199.3</ele>
        <time>2024-12-25T13:27:28Z</time>
      </trkpt>
      <trkpt lat="44.78247" lon="1.61622">
        <ele>200.5</ele>
        <time>2024-12-25T13:27:32Z</time>
      </trkpt>
      <trkpt lat="44.78249" lon="1.6162">
        <ele>200.6</ele>
        <time>2024-12-25T13:27:33Z</time>
      </trkpt>
      <trkpt lat="44.7825" lon="1.61619">
        <ele>200.7</ele>
        <time>2024-12-25T13:27:34Z</time>
      </trkpt>
      <trkpt lat="44.7825" lon="1.61619">
        <ele>200.8</ele>
        <time>2024-12-25T13:27:35Z</time>
      </trkpt>
      <trkpt lat="44.78251" lon="1.61618">
        <ele>200.8</ele>
        <time>2024-12-25T13:27:36Z</time>
      </trkpt>
      <trkpt lat="44.78252" lon="1.61617">
        <ele>200.9</ele>
        <time>2024-12-25T13:27:37Z</time>
      </trkpt>
      <trkpt lat="44.78252" lon="1.61616">
        <ele>201</ele>
        <time>2024-12-25T13:27:38Z</time>
      </trkpt>
      <trkpt lat="44.78253" lon="1.61616">
        <ele>201.1</ele>
        <time>2024-12-25T13:27:39Z</time>
      </trkpt>
      <trkpt lat="44.78253" lon="1.61617">
        <ele>201.2</ele>
        <time>2024-12-25T13:27:40Z</time>
      </trkpt>
      <trkpt lat="44.78252" lon="1.61617">
        <ele>201.2</ele>
        <time>2024-12-25T13:27:41Z</time>
      </trkpt>
      <trkpt lat="44.78253" lon="1.61618">
        <ele>201.4</ele>
        <time>2024-12-25T13:27:42Z</time>
      </trkpt>
      <trkpt lat="44.78254" lon="1.61619">
        <ele>201.7</ele>
        <time>2024-12-25T13:27:43Z</time>
      </trkpt>
      <trkpt lat="44.78255" lon="1.61618">
        <ele>202.1</ele>
        <time>2024-12-25T13:27:44Z</time>
      </trkpt>
      <trkpt lat="44.78255" lon="1.61618">
        <ele>202.2</ele>
        <time>2024-12-25T13:27:45Z</time>
      </trkpt>
      <trkpt lat="44.78256" lon="1.61617">
        <ele>202.4</ele>
        <time>2024-12-25T13:27:46Z</time>
      </trkpt>
      <trkpt lat="44.78256" lon="1.61616">
        <ele>202.6</ele>
        <time>2024-12-25T13:27:47Z</time>
      </trkpt>
      <trkpt lat="44.78257" lon="1.61615">
        <ele>202.9</ele>
        <time>2024-12-25T13:27:48Z</time>
      </trkpt>
      <trkpt lat="44.78259" lon="1.61614">
        <ele>203.4</ele>
        <time>2024-12-25T13:27:49Z</time>
      </trkpt>
      <trkpt lat="44.7826" lon="1.61614">
        <ele>203.7</ele>
        <time>2024-12-25T13:27:50Z</time>
      </trkpt>
      <trkpt lat="44.78261" lon="1.61614">
        <ele>204</ele>
        <time>2024-12-25T13:27:51Z</time>
      </trkpt>
      <trkpt lat="44.78265" lon="1.61617">
        <ele>205</ele>
        <time>2024-12-25T13:27:53Z</time>
      </trkpt>
      <trkpt lat="44.78266" lon="1.61616">
        <ele>205.3</ele>
        <time>2024-12-25T13:27:54Z</time>
      </trkpt>
      <trkpt lat="44.78266" lon="1.61615">
        <ele>205.4</ele>
        <time>2024-12-25T13:27:55Z</time>
      </trkpt>
      <trkpt lat="44.78267" lon="1.61615">
        <ele>205.7</ele>
        <time>2024-12-25T13:27:56Z</time>
      </trkpt>
      <trkpt lat="44.78268" lon="1.61614">
        <ele>205.9</ele>
        <time>2024-12-25T13:27:57Z</time>
      </trkpt>
      <trkpt lat="44.78268" lon="1.61613">
        <ele>206.1</ele>
        <time>2024-12-25T13:27:58Z</time>
      </trkpt>
      <trkpt lat="44.78268" lon="1.61612">
        <ele>206.2</ele>
        <time>2024-12-25T13:27:59Z</time>
      </trkpt>
      <trkpt lat="44.78269" lon="1.61611">
        <ele>206.4</ele>
        <time>2024-12-25T13:28:00Z</time>
      </trkpt>
      <trkpt lat="44.78269" lon="1.6161">
        <ele>206.5</ele>
        <time>2024-12-25T13:28:01Z</time>
      </trkpt>
      <trkpt lat="44.78269" lon="1.61609">
        <ele>206.7</ele>
        <time>2024-12-25T13:28:02Z</time>
      </trkpt>
      <trkpt lat="44.7827" lon="1.61608">
        <ele>206.8</ele>
        <time>2024-12-25T13:28:03Z</time>
      </trkpt>
      <trkpt lat="44.7827" lon="1.61608">
        <ele>207</ele>
        <time>2024-12-25T13:28:04Z</time>
      </trkpt>
      <trkpt lat="44.7827" lon="1.61607">
        <ele>207.1</ele>
        <time>2024-12-25T13:28:05Z</time>
      </trkpt>
      <trkpt lat="44.7827" lon="1.61606">
        <ele>207.2</ele>
        <time>2024-12-25T13:28:06Z</time>
      </trkpt>
      <trkpt lat="44.7827" lon="1.61605">
        <ele>207.4</ele>
        <time>2024-12-25T13:28:07Z</time>
      </trkpt>
      <trkpt lat="44.7827" lon="1.61604">
        <ele>207.5</ele>
        <time>2024-12-25T13:28:08Z</time>
      </trkpt>
      <trkpt lat="44.78271" lon="1.61603">
        <ele>207.7</ele>
        <time>2024-12-25T13:28:09Z</time>
      </trkpt>
      <trkpt lat="44.78271" lon="1.61602">
        <ele>207.9</ele>
        <time>2024-12-25T13:28:10Z</time>
      </trkpt>
      <trkpt lat="44.78272" lon="1.61601">
        <ele>208.1</ele>
        <time>2024-12-25T13:28:11Z</time>
      </trkpt>
      <trkpt lat="44.78273" lon="1.61601">
        <ele>208.2</ele>
        <time>2024-12-25T13:28:12Z</time>
      </trkpt>
      <trkpt lat="44.78273" lon="1.616">
        <ele>208.4</ele>
        <time>2024-12-25T13:28:13Z</time>
      </trkpt>
      <trkpt lat="44.78274" lon="1.61599">
        <ele>208.6</ele>
        <time>2024-12-25T13:28:14Z</time>
      </trkpt>
      <trkpt lat="44.78276" lon="1.61598">
        <ele>208.9</ele>
        <time>2024-12-25T13:28:16Z</time>
      </trkpt>
      <trkpt lat="44.78277" lon="1.61596">
        <ele>209.2</ele>
        <time>2024-12-25T13:28:18Z</time>
      </trkpt>
      <trkpt lat="44.78277" lon="1.61595">
        <ele>209.4</ele>
        <time>2024-12-25T13:28:19Z</time>
      </trkpt>
      <trkpt lat="44.78277" lon="1.61593">
        <ele>209.7</ele>
        <time>2024-12-25T13:28:20Z</time>
      </trkpt>
      <trkpt lat="44.78278" lon="1.61592">
        <ele>209.9</ele>
        <time>2024-12-25T13:28:21Z</time>
      </trkpt>
      <trkpt lat="44.7828" lon="1.6159">
        <ele>210.2</ele>
        <time>2024-12-25T13:28:23Z</time>
      </trkpt>
      <trkpt lat="44.78281" lon="1.61589">
        <ele>210.4</ele>
        <time>2024-12-25T13:28:24Z</time>
      </trkpt>
      <trkpt lat="44.78281" lon="1.61589">
        <ele>210.5</ele>
        <time>2024-12-25T13:28:25Z</time>
      </trkpt>
      <trkpt lat="44.78281" lon="1.61588">
        <ele>210.6</ele>
        <time>2024-12-25T13:28:26Z</time>
      </trkpt>
      <trkpt lat="44.78281" lon="1.61587">
        <ele>210.8</ele>
        <time>2024-12-25T13:28:27Z</time>
      </trkpt>
      <trkpt lat="44.78282" lon="1.61586">
        <ele>210.9</ele>
        <time>2024-12-25T13:28:28Z</time>
      </trkpt>
      <trkpt lat="44.78283" lon="1.61584">
        <ele>211.2</ele>
        <time>2024-12-25T13:28:29Z</time>
      </trkpt>
      <trkpt lat="44.78283" lon="1.61583">
        <ele>211.3</ele>
        <time>2024-12-25T13:28:30Z</time>
      </trkpt>
      <trkpt lat="44.78284" lon="1.61582">
        <ele>211.5</ele>
        <time>2024-12-25T13:28:31Z</time>
      </trkpt>
      <trkpt lat="44.78284" lon="1.6158">
        <ele>211.7</ele>
        <time>2024-12-25T13:28:32Z</time>
      </trkpt>
      <trkpt lat="44.78284" lon="1.61579">
        <ele>211.9</ele>
        <time>2024-12-25T13:28:33Z</time>
      </trkpt>
      <trkpt lat="44.78285" lon="1.61577">
        <ele>212.1</ele>
        <time>2024-12-25T13:28:34Z</time>
      </trkpt>
      <trkpt lat="44.78284" lon="1.61576">
        <ele>212.3</ele>
        <time>2024-12-25T13:28:35Z</time>
      </trkpt>
      <trkpt lat="44.78284" lon="1.61575">
        <ele>212.5</ele>
        <time>2024-12-25T13:28:36Z</time>
      </trkpt>
      <trkpt lat="44.78284" lon="1.61574">
        <ele>212.7</ele>
        <time>2024-12-25T13:28:37Z</time>
      </trkpt>
      <trkpt lat="44.78284" lon="1.61572">
        <ele>212.9</ele>
        <time>2024-12-25T13:28:38Z</time>
      </trkpt>
      <trkpt lat="44.78285" lon="1.61571">
        <ele>213.1</ele>
        <time>2024-12-25T13:28:39Z</time>
      </trkpt>
      <trkpt lat="44.78286" lon="1.61571">
        <ele>213.2</ele>
        <time>2024-12-25T13:28:40Z</time>
      </trkpt>
      <trkpt lat="44.78286" lon="1.61571">
        <ele>213.3</ele>
        <time>2024-12-25T13:28:41Z</time>
      </trkpt>
      <trkpt lat="44.78286" lon="1.6157">
        <ele>213.5</ele>
        <time>2024-12-25T13:28:42Z</time>
      </trkpt>
      <trkpt lat="44.78287" lon="1.61568">
        <ele>213.7</ele>
        <time>2024-12-25T13:28:43Z</time>
      </trkpt>
      <trkpt lat="44.78288" lon="1.61567">
        <ele>214</ele>
        <time>2024-12-25T13:28:44Z</time>
      </trkpt>
      <trkpt lat="44.78288" lon="1.61566">
        <ele>214.1</ele>
        <time>2024-12-25T13:28:45Z</time>
      </trkpt>
      <trkpt lat="44.78289" lon="1.61564">
        <ele>214.3</ele>
        <time>2024-12-25T13:28:46Z</time>
      </trkpt>
      <trkpt lat="44.78289" lon="1.61563">
        <ele>214.5</ele>
        <time>2024-12-25T13:28:47Z</time>
      </trkpt>
      <trkpt lat="44.7829" lon="1.61562">
        <ele>214.7</ele>
        <time>2024-12-25T13:28:48Z</time>
      </trkpt>
      <trkpt lat="44.7829" lon="1.61562">
        <ele>214.9</ele>
        <time>2024-12-25T13:28:49Z</time>
      </trkpt>
      <trkpt lat="44.7829" lon="1.6156">
        <ele>215.1</ele>
        <time>2024-12-25T13:28:50Z</time>
      </trkpt>
      <trkpt lat="44.78291" lon="1.61559">
        <ele>215.3</ele>
        <time>2024-12-25T13:28:51Z</time>
      </trkpt>
      <trkpt lat="44.78291" lon="1.61559">
        <ele>215.4</ele>
        <time>2024-12-25T13:28:52Z</time>
      </trkpt>
      <trkpt lat="44.78292" lon="1.61558">
        <ele>215.6</ele>
        <time>2024-12-25T13:28:53Z</time>
      </trkpt>
      <trkpt lat="44.78292" lon="1.61557">
        <ele>215.8</ele>
        <time>2024-12-25T13:28:54Z</time>
      </trkpt>
      <trkpt lat="44.78293" lon="1.61556">
        <ele>215.9</ele>
        <time>2024-12-25T13:28:55Z</time>
      </trkpt>
      <trkpt lat="44.78293" lon="1.61555">
        <ele>216.1</ele>
        <time>2024-12-25T13:28:56Z</time>
      </trkpt>
      <trkpt lat="44.78294" lon="1.61554">
        <ele>216.3</ele>
        <time>2024-12-25T13:28:57Z</time>
      </trkpt>
      <trkpt lat="44.78294" lon="1.61553">
        <ele>216.4</ele>
        <time>2024-12-25T13:28:58Z</time>
      </trkpt>
      <trkpt lat="44.78295" lon="1.61553">
        <ele>216.6</ele>
        <time>2024-12-25T13:28:59Z</time>
      </trkpt>
      <trkpt lat="44.78295" lon="1.61552">
        <ele>216.7</ele>
        <time>2024-12-25T13:29:00Z</time>
      </trkpt>
      <trkpt lat="44.78296" lon="1.61551">
        <ele>216.9</ele>
        <time>2024-12-25T13:29:01Z</time>
      </trkpt>
      <trkpt lat="44.78297" lon="1.61551">
        <ele>217.1</ele>
        <time>2024-12-25T13:29:02Z</time>
      </trkpt>
      <trkpt lat="44.78297" lon="1.6155">
        <ele>217.2</ele>
        <time>2024-12-25T13:29:03Z</time>
      </trkpt>
      <trkpt lat="44.78298" lon="1.61548">
        <ele>217.5</ele>
        <time>2024-12-25T13:29:04Z</time>
      </trkpt>
      <trkpt lat="44.78298" lon="1.61547">
        <ele>217.7</ele>
        <time>2024-12-25T13:29:05Z</time>
      </trkpt>
      <trkpt lat="44.78299" lon="1.61546">
        <ele>217.8</ele>
        <time>2024-12-25T13:29:06Z</time>
      </trkpt>
      <trkpt lat="44.783" lon="1.61545">
        <ele>218.1</ele>
        <time>2024-12-25T13:29:07Z</time>
      </trkpt>
      <trkpt lat="44.783" lon="1.61544">
        <ele>218.2</ele>
        <time>2024-12-25T13:29:08Z</time>
      </trkpt>
      <trkpt lat="44.783" lon="1.61543">
        <ele>218.3</ele>
        <time>2024-12-25T13:29:09Z</time>
      </trkpt>
      <trkpt lat="44.78301" lon="1.61543">
        <ele>218.4</ele>
        <time>2024-12-25T13:29:10Z</time>
      </trkpt>
      <trkpt lat="44.78301" lon="1.61541">
        <ele>218.6</ele>
        <time>2024-12-25T13:29:11Z</time>
      </trkpt>
      <trkpt lat="44.78302" lon="1.61538">
        <ele>219.1</ele>
        <time>2024-12-25T13:29:13Z</time>
      </trkpt>
      <trkpt lat="44.78302" lon="1.61537">
        <ele>219.2</ele>
        <time>2024-12-25T13:29:14Z</time>
      </trkpt>
      <trkpt lat="44.78302" lon="1.61537">
        <ele>219.3</ele>
        <time>2024-12-25T13:29:15Z</time>
      </trkpt>
      <trkpt lat="44.78302" lon="1.61536">
        <ele>219.4</ele>
        <time>2024-12-25T13:29:16Z</time>
      </trkpt>
      <trkpt lat="44.78302" lon="1.61535">
        <ele>219.6</ele>
        <time>2024-12-25T13:29:17Z</time>
      </trkpt>
      <trkpt lat="44.78302" lon="1.61534">
        <ele>219.7</ele>
        <time>2024-12-25T13:29:18Z</time>
      </trkpt>
      <trkpt lat="44.78302" lon="1.61533">
        <ele>219.8</ele>
        <time>2024-12-25T13:29:19Z</time>
      </trkpt>
      <trkpt lat="44.78302" lon="1.61532">
        <ele>219.9</ele>
        <time>2024-12-25T13:29:20Z</time>
      </trkpt>
      <trkpt lat="44.78302" lon="1.61531">
        <ele>220</ele>
        <time>2024-12-25T13:29:21Z</time>
      </trkpt>
      <trkpt lat="44.78303" lon="1.6153">
        <ele>220.3</ele>
        <time>2024-12-25T13:29:22Z</time>
      </trkpt>
      <trkpt lat="44.78304" lon="1.61529">
        <ele>220.5</ele>
        <time>2024-12-25T13:29:23Z</time>
      </trkpt>
      <trkpt lat="44.78304" lon="1.61528">
        <ele>220.7</ele>
        <time>2024-12-25T13:29:24Z</time>
      </trkpt>
      <trkpt lat="44.78305" lon="1.61526">
        <ele>220.9</ele>
        <time>2024-12-25T13:29:25Z</time>
      </trkpt>
      <trkpt lat="44.78306" lon="1.61525">
        <ele>221.1</ele>
        <time>2024-12-25T13:29:26Z</time>
      </trkpt>
      <trkpt lat="44.78306" lon="1.61524">
        <ele>221.3</ele>
        <time>2024-12-25T13:29:27Z</time>
      </trkpt>
      <trkpt lat="44.78307" lon="1.61524">
        <ele>221.5</ele>
        <time>2024-12-25T13:29:28Z</time>
      </trkpt>
      <trkpt lat="44.78308" lon="1.61523">
        <ele>221.7</ele>
        <time>2024-12-25T13:29:29Z</time>
      </trkpt>
      <trkpt lat="44.7831" lon="1.61521">
        <ele>222.1</ele>
        <time>2024-12-25T13:29:30Z</time>
      </trkpt>
      <trkpt lat="44.7831" lon="1.6152">
        <ele>222.2</ele>
        <time>2024-12-25T13:29:31Z</time>
      </trkpt>
      <trkpt lat="44.78311" lon="1.61519">
        <ele>222.4</ele>
        <time>2024-12-25T13:29:32Z</time>
      </trkpt>
      <trkpt lat="44.78312" lon="1.61518">
        <ele>222.7</ele>
        <time>2024-12-25T13:29:33Z</time>
      </trkpt>
      <trkpt lat="44.78312" lon="1.61517">
        <ele>222.8</ele>
        <time>2024-12-25T13:29:34Z</time>
      </trkpt>
      <trkpt lat="44.78313" lon="1.61516">
        <ele>222.9</ele>
        <time>2024-12-25T13:29:35Z</time>
      </trkpt>
      <trkpt lat="44.78313" lon="1.61515">
        <ele>223.1</ele>
        <time>2024-12-25T13:29:36Z</time>
      </trkpt>
      <trkpt lat="44.78314" lon="1.61513">
        <ele>223.3</ele>
        <time>2024-12-25T13:29:37Z</time>
      </trkpt>
      <trkpt lat="44.78314" lon="1.61513">
        <ele>223.5</ele>
        <time>2024-12-25T13:29:38Z</time>
      </trkpt>
      <trkpt lat="44.78315" lon="1.61512">
        <ele>223.6</ele>
        <time>2024-12-25T13:29:39Z</time>
      </trkpt>
      <trkpt lat="44.78316" lon="1.61512">
        <ele>223.8</ele>
        <time>2024-12-25T13:29:40Z</time>
      </trkpt>
      <trkpt lat="44.78316" lon="1.61511">
        <ele>224</ele>
        <time>2024-12-25T13:29:41Z</time>
      </trkpt>
      <trkpt lat="44.78317" lon="1.61509">
        <ele>224.2</ele>
        <time>2024-12-25T13:29:42Z</time>
      </trkpt>
      <trkpt lat="44.78318" lon="1.61508">
        <ele>224.4</ele>
        <time>2024-12-25T13:29:43Z</time>
      </trkpt>
      <trkpt lat="44.78318" lon="1.61507">
        <ele>224.6</ele>
        <time>2024-12-25T13:29:44Z</time>
      </trkpt>
      <trkpt lat="44.78318" lon="1.61506">
        <ele>224.7</ele>
        <time>2024-12-25T13:29:45Z</time>
      </trkpt>
      <trkpt lat="44.78319" lon="1.61505">
        <ele>224.8</ele>
        <time>2024-12-25T13:29:46Z</time>
      </trkpt>
      <trkpt lat="44.7832" lon="1.61504">
        <ele>225</ele>
        <time>2024-12-25T13:29:47Z</time>
      </trkpt>
      <trkpt lat="44.7832" lon="1.61504">
        <ele>225.1</ele>
        <time>2024-12-25T13:29:48Z</time>
      </trkpt>
      <trkpt lat="44.78321" lon="1.61504">
        <ele>225.3</ele>
        <time>2024-12-25T13:29:49Z</time>
      </trkpt>
      <trkpt lat="44.78322" lon="1.61503">
        <ele>225.4</ele>
        <time>2024-12-25T13:29:50Z</time>
      </trkpt>
      <trkpt lat="44.78323" lon="1.61503">
        <ele>225.5</ele>
        <time>2024-12-25T13:29:51Z</time>
      </trkpt>
      <trkpt lat="44.78323" lon="1.61502">
        <ele>225.7</ele>
        <time>2024-12-25T13:29:52Z</time>
      </trkpt>
      <trkpt lat="44.78324" lon="1.61501">
        <ele>225.8</ele>
        <time>2024-12-25T13:29:53Z</time>
      </trkpt>
      <trkpt lat="44.78325" lon="1.61501">
        <ele>225.9</ele>
        <time>2024-12-25T13:29:54Z</time>
      </trkpt>
      <trkpt lat="44.78325" lon="1.615">
        <ele>226.1</ele>
        <time>2024-12-25T13:29:55Z</time>
      </trkpt>
      <trkpt lat="44.78326" lon="1.61499">
        <ele>226.2</ele>
        <time>2024-12-25T13:29:56Z</time>
      </trkpt>
      <trkpt lat="44.78327" lon="1.61498">
        <ele>226.4</ele>
        <time>2024-12-25T13:29:57Z</time>
      </trkpt>
      <trkpt lat="44.78327" lon="1.61497">
        <ele>226.5</ele>
        <time>2024-12-25T13:29:58Z</time>
      </trkpt>
      <trkpt lat="44.78328" lon="1.61496">
        <ele>226.6</ele>
        <time>2024-12-25T13:29:59Z</time>
      </trkpt>
      <trkpt lat="44.78328" lon="1.61494">
        <ele>226.8</ele>
        <time>2024-12-25T13:30:00Z</time>
      </trkpt>
      <trkpt lat="44.78329" lon="1.61494">
        <ele>227</ele>
        <time>2024-12-25T13:30:01Z</time>
      </trkpt>
      <trkpt lat="44.7833" lon="1.61492">
        <ele>227.1</ele>
        <time>2024-12-25T13:30:02Z</time>
      </trkpt>
      <trkpt lat="44.7833" lon="1.61491">
        <ele>227.3</ele>
        <time>2024-12-25T13:30:03Z</time>
      </trkpt>
      <trkpt lat="44.78331" lon="1.6149">
        <ele>227.5</ele>
        <time>2024-12-25T13:30:04Z</time>
      </trkpt>
      <trkpt lat="44.78332" lon="1.61489">
        <ele>227.6</ele>
        <time>2024-12-25T13:30:05Z</time>
      </trkpt>
      <trkpt lat="44.78333" lon="1.61487">
        <ele>227.8</ele>
        <time>2024-12-25T13:30:06Z</time>
      </trkpt>
      <trkpt lat="44.78333" lon="1.61486">
        <ele>228</ele>
        <time>2024-12-25T13:30:07Z</time>
      </trkpt>
      <trkpt lat="44.78334" lon="1.61485">
        <ele>228.1</ele>
        <time>2024-12-25T13:30:08Z</time>
      </trkpt>
      <trkpt lat="44.78334" lon="1.61484">
        <ele>228.2</ele>
        <time>2024-12-25T13:30:09Z</time>
      </trkpt>
      <trkpt lat="44.78335" lon="1.61483">
        <ele>228.4</ele>
        <time>2024-12-25T13:30:10Z</time>
      </trkpt>
      <trkpt lat="44.78336" lon="1.61482">
        <ele>228.5</ele>
        <time>2024-12-25T13:30:11Z</time>
      </trkpt>
      <trkpt lat="44.78337" lon="1.61481">
        <ele>228.7</ele>
        <time>2024-12-25T13:30:12Z</time>
      </trkpt>
      <trkpt lat="44.78338" lon="1.61481">
        <ele>228.8</ele>
        <time>2024-12-25T13:30:13Z</time>
      </trkpt>
      <trkpt lat="44.78339" lon="1.6148">
        <ele>229</ele>
        <time>2024-12-25T13:30:14Z</time>
      </trkpt>
      <trkpt lat="44.7834" lon="1.61479">
        <ele>229.2</ele>
        <time>2024-12-25T13:30:15Z</time>
      </trkpt>
      <trkpt lat="44.78341" lon="1.61478">
        <ele>229.3</ele>
        <time>2024-12-25T13:30:16Z</time>
      </trkpt>
      <trkpt lat="44.78342" lon="1.61477">
        <ele>229.5</ele>
        <time>2024-12-25T13:30:17Z</time>
      </trkpt>
      <trkpt lat="44.78343" lon="1.61477">
        <ele>229.7</ele>
        <time>2024-12-25T13:30:18Z</time>
      </trkpt>
      <trkpt lat="44.78343" lon="1.61476">
        <ele>229.8</ele>
        <time>2024-12-25T13:30:19Z</time>
      </trkpt>
      <trkpt lat="44.78344" lon="1.61476">
        <ele>229.9</ele>
        <time>2024-12-25T13:30:20Z</time>
      </trkpt>
      <trkpt lat="44.78344" lon="1.61475">
        <ele>230</ele>
        <time>2024-12-25T13:30:21Z</time>
      </trkpt>
      <trkpt lat="44.78345" lon="1.61475">
        <ele>230.1</ele>
        <time>2024-12-25T13:30:22Z</time>
      </trkpt>
      <trkpt lat="44.78345" lon="1.61474">
        <ele>230.2</ele>
        <time>2024-12-25T13:30:23Z</time>
      </trkpt>
      <trkpt lat="44.78345" lon="1.61473">
        <ele>230.3</ele>
        <time>2024-12-25T13:30:24Z</time>
      </trkpt>
      <trkpt lat="44.78346" lon="1.61472">
        <ele>230.4</ele>
        <time>2024-12-25T13:30:25Z</time>
      </trkpt>
      <trkpt lat="44.78347" lon="1.61471">
        <ele>230.6</ele>
        <time>2024-12-25T13:30:26Z</time>
      </trkpt>
      <trkpt lat="44.78348" lon="1.61471">
        <ele>230.7</ele>
        <time>2024-12-25T13:30:27Z</time>
      </trkpt>
      <trkpt lat="44.78348" lon="1.6147">
        <ele>230.8</ele>
        <time>2024-12-25T13:30:28Z</time>
      </trkpt>
      <trkpt lat="44.78349" lon="1.61469">
        <ele>231</ele>
        <time>2024-12-25T13:30:29Z</time>
      </trkpt>
      <trkpt lat="44.7835" lon="1.61469">
        <ele>231.1</ele>
        <time>2024-12-25T13:30:30Z</time>
      </trkpt>
      <trkpt lat="44.78351" lon="1.61468">
        <ele>231.2</ele>
        <time>2024-12-25T13:30:31Z</time>
      </trkpt>
      <trkpt lat="44.78351" lon="1.61468">
        <ele>231.3</ele>
        <time>2024-12-25T13:30:32Z</time>
      </trkpt>
      <trkpt lat="44.78352" lon="1.61467">
        <ele>231.4</ele>
        <time>2024-12-25T13:30:33Z</time>
      </trkpt>
      <trkpt lat="44.78353" lon="1.61467">
        <ele>231.5</ele>
        <time>2024-12-25T13:30:34Z</time>
      </trkpt>
      <trkpt lat="44.78353" lon="1.61466">
        <ele>231.7</ele>
        <time>2024-12-25T13:30:35Z</time>
      </trkpt>
      <trkpt lat="44.78354" lon="1.61466">
        <ele>231.8</ele>
        <time>2024-12-25T13:30:36Z</time>
      </trkpt>
      <trkpt lat="44.78354" lon="1.61465">
        <ele>231.9</ele>
        <time>2024-12-25T13:30:37Z</time>
      </trkpt>
      <trkpt lat="44.78355" lon="1.61465">
        <ele>232</ele>
        <time>2024-12-25T13:30:38Z</time>
      </trkpt>
      <trkpt lat="44.78357" lon="1.61466">
        <ele>232.2</ele>
        <time>2024-12-25T13:30:39Z</time>
      </trkpt>
      <trkpt lat="44.78358" lon="1.61466">
        <ele>232.4</ele>
        <time>2024-12-25T13:30:40Z</time>
      </trkpt>
      <trkpt lat="44.78359" lon="1.61465">
        <ele>232.6</ele>
        <time>2024-12-25T13:30:41Z</time>
      </trkpt>
      <trkpt lat="44.7836" lon="1.61465">
        <ele>232.7</ele>
        <time>2024-12-25T13:30:42Z</time>
      </trkpt>
      <trkpt lat="44.78361" lon="1.61465">
        <ele>232.9</ele>
        <time>2024-12-25T13:30:43Z</time>
      </trkpt>
      <trkpt lat="44.78362" lon="1.61465">
        <ele>233</ele>
        <time>2024-12-25T13:30:44Z</time>
      </trkpt>
      <trkpt lat="44.78363" lon="1.61464">
        <ele>233.2</ele>
        <time>2024-12-25T13:30:45Z</time>
      </trkpt>
      <trkpt lat="44.78364" lon="1.61464">
        <ele>233.3</ele>
        <time>2024-12-25T13:30:46Z</time>
      </trkpt>
      <trkpt lat="44.78365" lon="1.61464">
        <ele>233.5</ele>
        <time>2024-12-25T13:30:47Z</time>
      </trkpt>
      <trkpt lat="44.78366" lon="1.61463">
        <ele>233.6</ele>
        <time>2024-12-25T13:30:48Z</time>
      </trkpt>
      <trkpt lat="44.78367" lon="1.61463">
        <ele>233.7</ele>
        <time>2024-12-25T13:30:49Z</time>
      </trkpt>
      <trkpt lat="44.78368" lon="1.61463">
        <ele>233.9</ele>
        <time>2024-12-25T13:30:50Z</time>
      </trkpt>
      <trkpt lat="44.78368" lon="1.61462">
        <ele>234</ele>
        <time>2024-12-25T13:30:51Z</time>
      </trkpt>
      <trkpt lat="44.7837" lon="1.61462">
        <ele>234.1</ele>
        <time>2024-12-25T13:30:52Z</time>
      </trkpt>
      <trkpt lat="44.7837" lon="1.61462">
        <ele>234.3</ele>
        <time>2024-12-25T13:30:53Z</time>
      </trkpt>
      <trkpt lat="44.78371" lon="1.61463">
        <ele>234.4</ele>
        <time>2024-12-25T13:30:54Z</time>
      </trkpt>
      <trkpt lat="44.78372" lon="1.61463">
        <ele>234.5</ele>
        <time>2024-12-25T13:30:55Z</time>
      </trkpt>
      <trkpt lat="44.78373" lon="1.61463">
        <ele>234.6</ele>
        <time>2024-12-25T13:30:56Z</time>
      </trkpt>
      <trkpt lat="44.78374" lon="1.61463">
        <ele>234.8</ele>
        <time>2024-12-25T13:30:57Z</time>
      </trkpt>
      <trkpt lat="44.78375" lon="1.61463">
        <ele>234.9</ele>
        <time>2024-12-25T13:30:58Z</time>
      </trkpt>
      <trkpt lat="44.78376" lon="1.61463">
        <ele>235</ele>
        <time>2024-12-25T13:30:59Z</time>
      </trkpt>
      <trkpt lat="44.78378" lon="1.61463">
        <ele>235.2</ele>
        <time>2024-12-25T13:31:00Z</time>
      </trkpt>
      <trkpt lat="44.78378" lon="1.61463">
        <ele>235.3</ele>
        <time>2024-12-25T13:31:01Z</time>
      </trkpt>
      <trkpt lat="44.7838" lon="1.61462">
        <ele>235.4</ele>
        <time>2024-12-25T13:31:02Z</time>
      </trkpt>
      <trkpt lat="44.78381" lon="1.61462">
        <ele>235.5</ele>
        <time>2024-12-25T13:31:03Z</time>
      </trkpt>
      <trkpt lat="44.78382" lon="1.61462">
        <ele>235.6</ele>
        <time>2024-12-25T13:31:04Z</time>
      </trkpt>
      <trkpt lat="44.78383" lon="1.61462">
        <ele>235.7</ele>
        <time>2024-12-25T13:31:05Z</time>
      </trkpt>
      <trkpt lat="44.78384" lon="1.61461">
        <ele>235.8</ele>
        <time>2024-12-25T13:31:06Z</time>
      </trkpt>
      <trkpt lat="44.78385" lon="1.6146">
        <ele>236</ele>
        <time>2024-12-25T13:31:07Z</time>
      </trkpt>
      <trkpt lat="44.78386" lon="1.6146">
        <ele>236.1</ele>
        <time>2024-12-25T13:31:08Z</time>
      </trkpt>
      <trkpt lat="44.78387" lon="1.61459">
        <ele>236.2</ele>
        <time>2024-12-25T13:31:09Z</time>
      </trkpt>
      <trkpt lat="44.78388" lon="1.61459">
        <ele>236.3</ele>
        <time>2024-12-25T13:31:10Z</time>
      </trkpt>
      <trkpt lat="44.78389" lon="1.61459">
        <ele>236.4</ele>
        <time>2024-12-25T13:31:11Z</time>
      </trkpt>
      <trkpt lat="44.7839" lon="1.61458">
        <ele>236.5</ele>
        <time>2024-12-25T13:31:12Z</time>
      </trkpt>
      <trkpt lat="44.78391" lon="1.61458">
        <ele>236.6</ele>
        <time>2024-12-25T13:31:13Z</time>
      </trkpt>
      <trkpt lat="44.78392" lon="1.61457">
        <ele>236.7</ele>
        <time>2024-12-25T13:31:14Z</time>
      </trkpt>
      <trkpt lat="44.78394" lon="1.61457">
        <ele>236.8</ele>
        <time>2024-12-25T13:31:15Z</time>
      </trkpt>
      <trkpt lat="44.78395" lon="1.61457">
        <ele>236.9</ele>
        <time>2024-12-25T13:31:16Z</time>
      </trkpt>
      <trkpt lat="44.78395" lon="1.61455">
        <ele>237</ele>
        <time>2024-12-25T13:31:17Z</time>
      </trkpt>
      <trkpt lat="44.78395" lon="1.61454">
        <ele>237.1</ele>
        <time>2024-12-25T13:31:18Z</time>
      </trkpt>
      <trkpt lat="44.78395" lon="1.61454">
        <ele>237.1</ele>
        <time>2024-12-25T13:31:19Z</time>
      </trkpt>
      <trkpt lat="44.78396" lon="1.61454">
        <ele>237.1</ele>
        <time>2024-12-25T13:31:20Z</time>
      </trkpt>
      <trkpt lat="44.78397" lon="1.61455">
        <ele>237.2</ele>
        <time>2024-12-25T13:31:21Z</time>
      </trkpt>
      <trkpt lat="44.78398" lon="1.61455">
        <ele>237.3</ele>
        <time>2024-12-25T13:31:22Z</time>
      </trkpt>
      <trkpt lat="44.78399" lon="1.61455">
        <ele>237.4</ele>
        <time>2024-12-25T13:31:23Z</time>
      </trkpt>
      <trkpt lat="44.784" lon="1.61455">
        <ele>237.5</ele>
        <time>2024-12-25T13:31:24Z</time>
      </trkpt>
      <trkpt lat="44.78401" lon="1.61455">
        <ele>237.6</ele>
        <time>2024-12-25T13:31:25Z</time>
      </trkpt>
      <trkpt lat="44.78402" lon="1.61455">
        <ele>237.6</ele>
        <time>2024-12-25T13:31:26Z</time>
      </trkpt>
      <trkpt lat="44.78403" lon="1.61455">
        <ele>237.7</ele>
        <time>2024-12-25T13:31:27Z</time>
      </trkpt>
      <trkpt lat="44.78404" lon="1.61454">
        <ele>237.8</ele>
        <time>2024-12-25T13:31:28Z</time>
      </trkpt>
      <trkpt lat="44.78405" lon="1.61454">
        <ele>237.9</ele>
        <time>2024-12-25T13:31:29Z</time>
      </trkpt>
      <trkpt lat="44.78408" lon="1.61453">
        <ele>238</ele>
        <time>2024-12-25T13:31:30Z</time>
      </trkpt>
      <trkpt lat="44.78408" lon="1.61453">
        <ele>238.1</ele>
        <time>2024-12-25T13:31:31Z</time>
      </trkpt>
      <trkpt lat="44.78409" lon="1.61453">
        <ele>238.1</ele>
        <time>2024-12-25T13:31:32Z</time>
      </trkpt>
      <trkpt lat="44.7841" lon="1.61452">
        <ele>238.2</ele>
        <time>2024-12-25T13:31:33Z</time>
      </trkpt>
      <trkpt lat="44.78411" lon="1.61451">
        <ele>238.3</ele>
        <time>2024-12-25T13:31:34Z</time>
      </trkpt>
      <trkpt lat="44.78412" lon="1.61451">
        <ele>238.4</ele>
        <time>2024-12-25T13:31:35Z</time>
      </trkpt>
      <trkpt lat="44.78414" lon="1.61451">
        <ele>238.4</ele>
        <time>2024-12-25T13:31:36Z</time>
      </trkpt>
      <trkpt lat="44.78415" lon="1.61451">
        <ele>238.5</ele>
        <time>2024-12-25T13:31:37Z</time>
      </trkpt>
      <trkpt lat="44.78416" lon="1.61451">
        <ele>238.6</ele>
        <time>2024-12-25T13:31:38Z</time>
      </trkpt>
      <trkpt lat="44.78418" lon="1.61451">
        <ele>238.8</ele>
        <time>2024-12-25T13:31:40Z</time>
      </trkpt>
      <trkpt lat="44.7842" lon="1.6145">
        <ele>238.9</ele>
        <time>2024-12-25T13:31:42Z</time>
      </trkpt>
      <trkpt lat="44.78421" lon="1.61449">
        <ele>239</ele>
        <time>2024-12-25T13:31:43Z</time>
      </trkpt>
      <trkpt lat="44.78423" lon="1.61448">
        <ele>239.1</ele>
        <time>2024-12-25T13:31:44Z</time>
      </trkpt>
      <trkpt lat="44.78423" lon="1.61448">
        <ele>239.1</ele>
        <time>2024-12-25T13:31:45Z</time>
      </trkpt>
      <trkpt lat="44.78424" lon="1.61447">
        <ele>239.2</ele>
        <time>2024-12-25T13:31:46Z</time>
      </trkpt>
      <trkpt lat="44.78425" lon="1.61446">
        <ele>239.3</ele>
        <time>2024-12-25T13:31:47Z</time>
      </trkpt>
      <trkpt lat="44.78427" lon="1.61445">
        <ele>239.4</ele>
        <time>2024-12-25T13:31:48Z</time>
      </trkpt>
      <trkpt lat="44.78429" lon="1.61445">
        <ele>239.5</ele>
        <time>2024-12-25T13:31:49Z</time>
      </trkpt>
      <trkpt lat="44.7843" lon="1.61445">
        <ele>239.5</ele>
        <time>2024-12-25T13:31:50Z</time>
      </trkpt>
      <trkpt lat="44.78431" lon="1.61444">
        <ele>239.6</ele>
        <time>2024-12-25T13:31:51Z</time>
      </trkpt>
      <trkpt lat="44.78432" lon="1.61444">
        <ele>239.7</ele>
        <time>2024-12-25T13:31:52Z</time>
      </trkpt>
      <trkpt lat="44.78433" lon="1.61444">
        <ele>239.8</ele>
        <time>2024-12-25T13:31:53Z</time>
      </trkpt>
      <trkpt lat="44.78435" lon="1.61444">
        <ele>239.9</ele>
        <time>2024-12-25T13:31:54Z</time>
      </trkpt>
      <trkpt lat="44.78437" lon="1.61444">
        <ele>240</ele>
        <time>2024-12-25T13:31:55Z</time>
      </trkpt>
      <trkpt lat="44.78438" lon="1.61444">
        <ele>240</ele>
        <time>2024-12-25T13:31:56Z</time>
      </trkpt>
      <trkpt lat="44.78439" lon="1.61444">
        <ele>240</ele>
        <time>2024-12-25T13:31:57Z</time>
      </trkpt>
      <trkpt lat="44.7844" lon="1.61445">
        <ele>240.1</ele>
        <time>2024-12-25T13:31:58Z</time>
      </trkpt>
      <trkpt lat="44.78441" lon="1.61445">
        <ele>240.2</ele>
        <time>2024-12-25T13:31:59Z</time>
      </trkpt>
      <trkpt lat="44.78442" lon="1.61445">
        <ele>240.2</ele>
        <time>2024-12-25T13:32:00Z</time>
      </trkpt>
      <trkpt lat="44.78443" lon="1.61445">
        <ele>240.2</ele>
        <time>2024-12-25T13:32:01Z</time>
      </trkpt>
      <trkpt lat="44.78444" lon="1.61445">
        <ele>240.3</ele>
        <time>2024-12-25T13:32:02Z</time>
      </trkpt>
      <trkpt lat="44.78445" lon="1.61444">
        <ele>240.3</ele>
        <time>2024-12-25T13:32:03Z</time>
      </trkpt>
      <trkpt lat="44.78446" lon="1.61444">
        <ele>240.4</ele>
        <time>2024-12-25T13:32:04Z</time>
      </trkpt>
      <trkpt lat="44.78447" lon="1.61444">
        <ele>240.4</ele>
        <time>2024-12-25T13:32:05Z</time>
      </trkpt>
      <trkpt lat="44.78448" lon="1.61444">
        <ele>240.5</ele>
        <time>2024-12-25T13:32:06Z</time>
      </trkpt>
      <trkpt lat="44.7845" lon="1.61443">
        <ele>240.5</ele>
        <time>2024-12-25T13:32:07Z</time>
      </trkpt>
      <trkpt lat="44.78451" lon="1.61443">
        <ele>240.6</ele>
        <time>2024-12-25T13:32:08Z</time>
      </trkpt>
      <trkpt lat="44.78452" lon="1.61442">
        <ele>240.6</ele>
        <time>2024-12-25T13:32:09Z</time>
      </trkpt>
      <trkpt lat="44.78453" lon="1.61442">
        <ele>240.6</ele>
        <time>2024-12-25T13:32:10Z</time>
      </trkpt>
      <trkpt lat="44.78454" lon="1.61442">
        <ele>240.7</ele>
        <time>2024-12-25T13:32:11Z</time>
      </trkpt>
      <trkpt lat="44.78455" lon="1.61442">
        <ele>240.7</ele>
        <time>2024-12-25T13:32:12Z</time>
      </trkpt>
      <trkpt lat="44.78457" lon="1.61442">
        <ele>240.8</ele>
        <time>2024-12-25T13:32:13Z</time>
      </trkpt>
      <trkpt lat="44.78458" lon="1.61442">
        <ele>240.8</ele>
        <time>2024-12-25T13:32:14Z</time>
      </trkpt>
      <trkpt lat="44.78459" lon="1.61442">
        <ele>240.8</ele>
        <time>2024-12-25T13:32:15Z</time>
      </trkpt>
      <trkpt lat="44.7846" lon="1.61442">
        <ele>240.9</ele>
        <time>2024-12-25T13:32:16Z</time>
      </trkpt>
      <trkpt lat="44.78461" lon="1.61441">
        <ele>240.9</ele>
        <time>2024-12-25T13:32:17Z</time>
      </trkpt>
      <trkpt lat="44.78462" lon="1.6144">
        <ele>241</ele>
        <time>2024-12-25T13:32:18Z</time>
      </trkpt>
      <trkpt lat="44.78463" lon="1.61441">
        <ele>241</ele>
        <time>2024-12-25T13:32:19Z</time>
      </trkpt>
      <trkpt lat="44.78464" lon="1.61441">
        <ele>241</ele>
        <time>2024-12-25T13:32:20Z</time>
      </trkpt>
      <trkpt lat="44.78465" lon="1.61441">
        <ele>241.1</ele>
        <time>2024-12-25T13:32:21Z</time>
      </trkpt>
      <trkpt lat="44.78467" lon="1.61443">
        <ele>241.1</ele>
        <time>2024-12-25T13:32:22Z</time>
      </trkpt>
      <trkpt lat="44.78468" lon="1.61444">
        <ele>241.2</ele>
        <time>2024-12-25T13:32:23Z</time>
      </trkpt>
      <trkpt lat="44.78468" lon="1.61444">
        <ele>241.2</ele>
        <time>2024-12-25T13:32:24Z</time>
      </trkpt>
      <trkpt lat="44.7847" lon="1.61445">
        <ele>241.2</ele>
        <time>2024-12-25T13:32:25Z</time>
      </trkpt>
      <trkpt lat="44.78471" lon="1.61446">
        <ele>241.3</ele>
        <time>2024-12-25T13:32:26Z</time>
      </trkpt>
      <trkpt lat="44.78475" lon="1.61448">
        <ele>241.5</ele>
        <time>2024-12-25T13:32:28Z</time>
      </trkpt>
      <trkpt lat="44.78475" lon="1.61449">
        <ele>241.5</ele>
        <time>2024-12-25T13:32:29Z</time>
      </trkpt>
      <trkpt lat="44.78476" lon="1.6145">
        <ele>241.5</ele>
        <time>2024-12-25T13:32:30Z</time>
      </trkpt>
      <trkpt lat="44.78477" lon="1.61451">
        <ele>241.6</ele>
        <time>2024-12-25T13:32:31Z</time>
      </trkpt>
      <trkpt lat="44.78478" lon="1.61451">
        <ele>241.6</ele>
        <time>2024-12-25T13:32:33Z</time>
      </trkpt>
      <trkpt lat="44.7848" lon="1.61453">
        <ele>241.7</ele>
        <time>2024-12-25T13:32:34Z</time>
      </trkpt>
      <trkpt lat="44.7848" lon="1.61454">
        <ele>241.7</ele>
        <time>2024-12-25T13:32:35Z</time>
      </trkpt>
      <trkpt lat="44.78481" lon="1.61455">
        <ele>241.8</ele>
        <time>2024-12-25T13:32:36Z</time>
      </trkpt>
      <trkpt lat="44.78482" lon="1.61456">
        <ele>241.8</ele>
        <time>2024-12-25T13:32:37Z</time>
      </trkpt>
      <trkpt lat="44.78483" lon="1.61457">
        <ele>241.8</ele>
        <time>2024-12-25T13:32:38Z</time>
      </trkpt>
      <trkpt lat="44.78484" lon="1.61458">
        <ele>241.9</ele>
        <time>2024-12-25T13:32:39Z</time>
      </trkpt>
      <trkpt lat="44.78484" lon="1.61459">
        <ele>241.9</ele>
        <time>2024-12-25T13:32:40Z</time>
      </trkpt>
      <trkpt lat="44.78485" lon="1.6146">
        <ele>241.9</ele>
        <time>2024-12-25T13:32:41Z</time>
      </trkpt>
      <trkpt lat="44.78485" lon="1.61461">
        <ele>242</ele>
        <time>2024-12-25T13:32:42Z</time>
      </trkpt>
      <trkpt lat="44.78486" lon="1.61462">
        <ele>242</ele>
        <time>2024-12-25T13:32:43Z</time>
      </trkpt>
      <trkpt lat="44.78487" lon="1.61463">
        <ele>242</ele>
        <time>2024-12-25T13:32:44Z</time>
      </trkpt>
      <trkpt lat="44.78487" lon="1.61464">
        <ele>242.1</ele>
        <time>2024-12-25T13:32:45Z</time>
      </trkpt>
      <trkpt lat="44.78488" lon="1.61466">
        <ele>242.1</ele>
        <time>2024-12-25T13:32:46Z</time>
      </trkpt>
      <trkpt lat="44.78489" lon="1.61466">
        <ele>242.1</ele>
        <time>2024-12-25T13:32:47Z</time>
      </trkpt>
      <trkpt lat="44.7849" lon="1.61468">
        <ele>242.2</ele>
        <time>2024-12-25T13:32:48Z</time>
      </trkpt>
      <trkpt lat="44.78491" lon="1.61469">
        <ele>242.2</ele>
        <time>2024-12-25T13:32:49Z</time>
      </trkpt>
      <trkpt lat="44.78492" lon="1.6147">
        <ele>242.2</ele>
        <time>2024-12-25T13:32:50Z</time>
      </trkpt>
      <trkpt lat="44.78494" lon="1.61472">
        <ele>242.3</ele>
        <time>2024-12-25T13:32:52Z</time>
      </trkpt>
      <trkpt lat="44.78496" lon="1.61473">
        <ele>242.3</ele>
        <time>2024-12-25T13:32:54Z</time>
      </trkpt>
      <trkpt lat="44.78497" lon="1.61473">
        <ele>242.3</ele>
        <time>2024-12-25T13:32:55Z</time>
      </trkpt>
      <trkpt lat="44.78498" lon="1.61474">
        <ele>242.3</ele>
        <time>2024-12-25T13:32:57Z</time>
      </trkpt>
      <trkpt lat="44.785" lon="1.61475">
        <ele>242.3</ele>
        <time>2024-12-25T13:32:58Z</time>
      </trkpt>
      <trkpt lat="44.78501" lon="1.61475">
        <ele>242.3</ele>
        <time>2024-12-25T13:32:59Z</time>
      </trkpt>
      <trkpt lat="44.78502" lon="1.61475">
        <ele>242.3</ele>
        <time>2024-12-25T13:33:00Z</time>
      </trkpt>
      <trkpt lat="44.78503" lon="1.61476">
        <ele>242.3</ele>
        <time>2024-12-25T13:33:01Z</time>
      </trkpt>
      <trkpt lat="44.78504" lon="1.61478">
        <ele>242.3</ele>
        <time>2024-12-25T13:33:03Z</time>
      </trkpt>
      <trkpt lat="44.78506" lon="1.61481">
        <ele>242.3</ele>
        <time>2024-12-25T13:33:04Z</time>
      </trkpt>
      <trkpt lat="44.78507" lon="1.61481">
        <ele>242.2</ele>
        <time>2024-12-25T13:33:05Z</time>
      </trkpt>
      <trkpt lat="44.78507" lon="1.61482">
        <ele>242.2</ele>
        <time>2024-12-25T13:33:06Z</time>
      </trkpt>
      <trkpt lat="44.78509" lon="1.61484">
        <ele>242.2</ele>
        <time>2024-12-25T13:33:07Z</time>
      </trkpt>
      <trkpt lat="44.7851" lon="1.61484">
        <ele>242.2</ele>
        <time>2024-12-25T13:33:09Z</time>
      </trkpt>
      <trkpt lat="44.78511" lon="1.61483">
        <ele>242.2</ele>
        <time>2024-12-25T13:33:10Z</time>
      </trkpt>
      <trkpt lat="44.78511" lon="1.61482">
        <ele>242.2</ele>
        <time>2024-12-25T13:33:11Z</time>
      </trkpt>
      <trkpt lat="44.78511" lon="1.61481">
        <ele>242.2</ele>
        <time>2024-12-25T13:33:12Z</time>
      </trkpt>
      <trkpt lat="44.78511" lon="1.61482">
        <ele>242.2</ele>
        <time>2024-12-25T13:33:13Z</time>
      </trkpt>
      <trkpt lat="44.78511" lon="1.61482">
        <ele>242.2</ele>
        <time>2024-12-25T13:33:14Z</time>
      </trkpt>
      <trkpt lat="44.78511" lon="1.61482">
        <ele>242.2</ele>
        <time>2024-12-25T13:33:16Z</time>
      </trkpt>
      <trkpt lat="44.78511" lon="1.61482">
        <ele>242.2</ele>
        <time>2024-12-25T13:33:17Z</time>
      </trkpt>
      <trkpt lat="44.78511" lon="1.61482">
        <ele>242.1</ele>
        <time>2024-12-25T13:33:18Z</time>
      </trkpt>
      <trkpt lat="44.78512" lon="1.61483">
        <ele>242.1</ele>
        <time>2024-12-25T13:33:19Z</time>
      </trkpt>
      <trkpt lat="44.78513" lon="1.61483">
        <ele>242.1</ele>
        <time>2024-12-25T13:33:20Z</time>
      </trkpt>
      <trkpt lat="44.78514" lon="1.61484">
        <ele>242.1</ele>
        <time>2024-12-25T13:33:21Z</time>
      </trkpt>
      <trkpt lat="44.78517" lon="1.61485">
        <ele>242.1</ele>
        <time>2024-12-25T13:33:23Z</time>
      </trkpt>
      <trkpt lat="44.7852" lon="1.61487">
        <ele>242</ele>
        <time>2024-12-25T13:33:24Z</time>
      </trkpt>
      <trkpt lat="44.78524" lon="1.61485">
        <ele>241.9</ele>
        <time>2024-12-25T13:33:26Z</time>
      </trkpt>
      <trkpt lat="44.78526" lon="1.61484">
        <ele>241.9</ele>
        <time>2024-12-25T13:33:27Z</time>
      </trkpt>
      <trkpt lat="44.78527" lon="1.61483">
        <ele>241.9</ele>
        <time>2024-12-25T13:33:29Z</time>
      </trkpt>
      <trkpt lat="44.78528" lon="1.61482">
        <ele>241.9</ele>
        <time>2024-12-25T13:33:30Z</time>
      </trkpt>
      <trkpt lat="44.7853" lon="1.61481">
        <ele>241.8</ele>
        <time>2024-12-25T13:33:31Z</time>
      </trkpt>
      <trkpt lat="44.78531" lon="1.6148">
        <ele>241.8</ele>
        <time>2024-12-25T13:33:33Z</time>
      </trkpt>
      <trkpt lat="44.78533" lon="1.6148">
        <ele>241.8</ele>
        <time>2024-12-25T13:33:34Z</time>
      </trkpt>
      <trkpt lat="44.78536" lon="1.6148">
        <ele>241.7</ele>
        <time>2024-12-25T13:33:35Z</time>
      </trkpt>
      <trkpt lat="44.78537" lon="1.6148">
        <ele>241.7</ele>
        <time>2024-12-25T13:33:36Z</time>
      </trkpt>
      <trkpt lat="44.78539" lon="1.6148">
        <ele>241.7</ele>
        <time>2024-12-25T13:33:37Z</time>
      </trkpt>
      <trkpt lat="44.78541" lon="1.61481">
        <ele>241.6</ele>
        <time>2024-12-25T13:33:39Z</time>
      </trkpt>
      <trkpt lat="44.78542" lon="1.6148">
        <ele>241.6</ele>
        <time>2024-12-25T13:33:40Z</time>
      </trkpt>
      <trkpt lat="44.78543" lon="1.6148">
        <ele>241.6</ele>
        <time>2024-12-25T13:33:41Z</time>
      </trkpt>
      <trkpt lat="44.78545" lon="1.61478">
        <ele>241.6</ele>
        <time>2024-12-25T13:33:42Z</time>
      </trkpt>
      <trkpt lat="44.78546" lon="1.61477">
        <ele>241.6</ele>
        <time>2024-12-25T13:33:44Z</time>
      </trkpt>
      <trkpt lat="44.78547" lon="1.61476">
        <ele>241.6</ele>
        <time>2024-12-25T13:33:45Z</time>
      </trkpt>
      <trkpt lat="44.78547" lon="1.61474">
        <ele>241.6</ele>
        <time>2024-12-25T13:33:46Z</time>
      </trkpt>
      <trkpt lat="44.78548" lon="1.61473">
        <ele>241.6</ele>
        <time>2024-12-25T13:33:47Z</time>
      </trkpt>
      <trkpt lat="44.78549" lon="1.61472">
        <ele>241.6</ele>
        <time>2024-12-25T13:33:48Z</time>
      </trkpt>
      <trkpt lat="44.7855" lon="1.61468">
        <ele>241.6</ele>
        <time>2024-12-25T13:33:49Z</time>
      </trkpt>
      <trkpt lat="44.78551" lon="1.61465">
        <ele>241.7</ele>
        <time>2024-12-25T13:33:51Z</time>
      </trkpt>
      <trkpt lat="44.78551" lon="1.61464">
        <ele>241.7</ele>
        <time>2024-12-25T13:33:52Z</time>
      </trkpt>
      <trkpt lat="44.78553" lon="1.61462">
        <ele>241.8</ele>
        <time>2024-12-25T13:33:53Z</time>
      </trkpt>
      <trkpt lat="44.78553" lon="1.6146">
        <ele>241.8</ele>
        <time>2024-12-25T13:33:54Z</time>
      </trkpt>
      <trkpt lat="44.78555" lon="1.61459">
        <ele>241.9</ele>
        <time>2024-12-25T13:33:55Z</time>
      </trkpt>
      <trkpt lat="44.78556" lon="1.61457">
        <ele>242</ele>
        <time>2024-12-25T13:33:56Z</time>
      </trkpt>
      <trkpt lat="44.78556" lon="1.61455">
        <ele>242</ele>
        <time>2024-12-25T13:33:57Z</time>
      </trkpt>
      <trkpt lat="44.78557" lon="1.61453">
        <ele>242.1</ele>
        <time>2024-12-25T13:33:58Z</time>
      </trkpt>
      <trkpt lat="44.78557" lon="1.61452">
        <ele>242.2</ele>
        <time>2024-12-25T13:33:59Z</time>
      </trkpt>
      <trkpt lat="44.78557" lon="1.6145">
        <ele>242.2</ele>
        <time>2024-12-25T13:34:01Z</time>
      </trkpt>
      <trkpt lat="44.78558" lon="1.61447">
        <ele>242.4</ele>
        <time>2024-12-25T13:34:02Z</time>
      </trkpt>
      <trkpt lat="44.78558" lon="1.61445">
        <ele>242.5</ele>
        <time>2024-12-25T13:34:04Z</time>
      </trkpt>
      <trkpt lat="44.78558" lon="1.61442">
        <ele>242.7</ele>
        <time>2024-12-25T13:34:05Z</time>
      </trkpt>
      <trkpt lat="44.78558" lon="1.6144">
        <ele>242.8</ele>
        <time>2024-12-25T13:34:07Z</time>
      </trkpt>
      <trkpt lat="44.78558" lon="1.61438">
        <ele>242.9</ele>
        <time>2024-12-25T13:34:08Z</time>
      </trkpt>
      <trkpt lat="44.78558" lon="1.61436">
        <ele>243</ele>
        <time>2024-12-25T13:34:09Z</time>
      </trkpt>
      <trkpt lat="44.78559" lon="1.61433">
        <ele>243.2</ele>
        <time>2024-12-25T13:34:10Z</time>
      </trkpt>
      <trkpt lat="44.78559" lon="1.61429">
        <ele>243.4</ele>
        <time>2024-12-25T13:34:12Z</time>
      </trkpt>
      <trkpt lat="44.7856" lon="1.61426">
        <ele>243.5</ele>
        <time>2024-12-25T13:34:14Z</time>
      </trkpt>
      <trkpt lat="44.7856" lon="1.61424">
        <ele>243.7</ele>
        <time>2024-12-25T13:34:15Z</time>
      </trkpt>
      <trkpt lat="44.7856" lon="1.61421">
        <ele>243.8</ele>
        <time>2024-12-25T13:34:16Z</time>
      </trkpt>
      <trkpt lat="44.78559" lon="1.6142">
        <ele>243.9</ele>
        <time>2024-12-25T13:34:17Z</time>
      </trkpt>
      <trkpt lat="44.78559" lon="1.61417">
        <ele>244</ele>
        <time>2024-12-25T13:34:18Z</time>
      </trkpt>
      <trkpt lat="44.78559" lon="1.61416">
        <ele>244.1</ele>
        <time>2024-12-25T13:34:20Z</time>
      </trkpt>
      <trkpt lat="44.78558" lon="1.61412">
        <ele>244.3</ele>
        <time>2024-12-25T13:34:21Z</time>
      </trkpt>
      <trkpt lat="44.78559" lon="1.6141">
        <ele>244.4</ele>
        <time>2024-12-25T13:34:23Z</time>
      </trkpt>
      <trkpt lat="44.78559" lon="1.61408">
        <ele>244.5</ele>
        <time>2024-12-25T13:34:24Z</time>
      </trkpt>
      <trkpt lat="44.78559" lon="1.61407">
        <ele>244.6</ele>
        <time>2024-12-25T13:34:25Z</time>
      </trkpt>
      <trkpt lat="44.7856" lon="1.61404">
        <ele>244.8</ele>
        <time>2024-12-25T13:34:26Z</time>
      </trkpt>
      <trkpt lat="44.7856" lon="1.61402">
        <ele>244.9</ele>
        <time>2024-12-25T13:34:28Z</time>
      </trkpt>
      <trkpt lat="44.78561" lon="1.61399">
        <ele>245.1</ele>
        <time>2024-12-25T13:34:29Z</time>
      </trkpt>
      <trkpt lat="44.78561" lon="1.61397">
        <ele>245.2</ele>
        <time>2024-12-25T13:34:31Z</time>
      </trkpt>
      <trkpt lat="44.78561" lon="1.61396">
        <ele>245.3</ele>
        <time>2024-12-25T13:34:32Z</time>
      </trkpt>
      <trkpt lat="44.78561" lon="1.61394">
        <ele>245.4</ele>
        <time>2024-12-25T13:34:33Z</time>
      </trkpt>
      <trkpt lat="44.7856" lon="1.61392">
        <ele>245.5</ele>
        <time>2024-12-25T13:34:34Z</time>
      </trkpt>
      <trkpt lat="44.7856" lon="1.61391">
        <ele>245.5</ele>
        <time>2024-12-25T13:34:35Z</time>
      </trkpt>
      <trkpt lat="44.7856" lon="1.61389">
        <ele>245.7</ele>
        <time>2024-12-25T13:34:36Z</time>
      </trkpt>
      <trkpt lat="44.7856" lon="1.61386">
        <ele>245.9</ele>
        <time>2024-12-25T13:34:37Z</time>
      </trkpt>
      <trkpt lat="44.7856" lon="1.61383">
        <ele>246</ele>
        <time>2024-12-25T13:34:39Z</time>
      </trkpt>
      <trkpt lat="44.7856" lon="1.6138">
        <ele>246.2</ele>
        <time>2024-12-25T13:34:40Z</time>
      </trkpt>
      <trkpt lat="44.7856" lon="1.61378">
        <ele>246.4</ele>
        <time>2024-12-25T13:34:41Z</time>
      </trkpt>
      <trkpt lat="44.7856" lon="1.61374">
        <ele>246.6</ele>
        <time>2024-12-25T13:34:43Z</time>
      </trkpt>
      <trkpt lat="44.7856" lon="1.61373">
        <ele>246.7</ele>
        <time>2024-12-25T13:34:45Z</time>
      </trkpt>
      <trkpt lat="44.7856" lon="1.6137">
        <ele>246.9</ele>
        <time>2024-12-25T13:34:46Z</time>
      </trkpt>
      <trkpt lat="44.78559" lon="1.61367">
        <ele>247.1</ele>
        <time>2024-12-25T13:34:48Z</time>
      </trkpt>
      <trkpt lat="44.78558" lon="1.61365">
        <ele>247.3</ele>
        <time>2024-12-25T13:34:50Z</time>
      </trkpt>
      <trkpt lat="44.78558" lon="1.61364">
        <ele>247.4</ele>
        <time>2024-12-25T13:34:51Z</time>
      </trkpt>
      <trkpt lat="44.78559" lon="1.61361">
        <ele>247.5</ele>
        <time>2024-12-25T13:34:52Z</time>
      </trkpt>
      <trkpt lat="44.78559" lon="1.61358">
        <ele>247.7</ele>
        <time>2024-12-25T13:34:53Z</time>
      </trkpt>
      <trkpt lat="44.78559" lon="1.61357">
        <ele>247.8</ele>
        <time>2024-12-25T13:34:54Z</time>
      </trkpt>
      <trkpt lat="44.78559" lon="1.61355">
        <ele>247.9</ele>
        <time>2024-12-25T13:34:55Z</time>
      </trkpt>
      <trkpt lat="44.7856" lon="1.61353">
        <ele>248.1</ele>
        <time>2024-12-25T13:34:57Z</time>
      </trkpt>
      <trkpt lat="44.7856" lon="1.61349">
        <ele>248.4</ele>
        <time>2024-12-25T13:34:58Z</time>
      </trkpt>
      <trkpt lat="44.7856" lon="1.61347">
        <ele>248.5</ele>
        <time>2024-12-25T13:35:00Z</time>
      </trkpt>
      <trkpt lat="44.78559" lon="1.61344">
        <ele>248.7</ele>
        <time>2024-12-25T13:35:01Z</time>
      </trkpt>
      <trkpt lat="44.78559" lon="1.61341">
        <ele>248.9</ele>
        <time>2024-12-25T13:35:03Z</time>
      </trkpt>
      <trkpt lat="44.78559" lon="1.6134">
        <ele>249</ele>
        <time>2024-12-25T13:35:05Z</time>
      </trkpt>
      <trkpt lat="44.78558" lon="1.61337">
        <ele>249.3</ele>
        <time>2024-12-25T13:35:06Z</time>
      </trkpt>
      <trkpt lat="44.78557" lon="1.61334">
        <ele>249.5</ele>
        <time>2024-12-25T13:35:08Z</time>
      </trkpt>
      <trkpt lat="44.78557" lon="1.61333">
        <ele>249.6</ele>
        <time>2024-12-25T13:35:09Z</time>
      </trkpt>
      <trkpt lat="44.78556" lon="1.61331">
        <ele>249.7</ele>
        <time>2024-12-25T13:35:11Z</time>
      </trkpt>
      <trkpt lat="44.78555" lon="1.61328">
        <ele>249.9</ele>
        <time>2024-12-25T13:35:12Z</time>
      </trkpt>
      <trkpt lat="44.78554" lon="1.61324">
        <ele>250.2</ele>
        <time>2024-12-25T13:35:14Z</time>
      </trkpt>
      <trkpt lat="44.78553" lon="1.61323">
        <ele>250.3</ele>
        <time>2024-12-25T13:35:15Z</time>
      </trkpt>
      <trkpt lat="44.78553" lon="1.61321">
        <ele>250.5</ele>
        <time>2024-12-25T13:35:16Z</time>
      </trkpt>
      <trkpt lat="44.78553" lon="1.61319">
        <ele>250.6</ele>
        <time>2024-12-25T13:35:17Z</time>
      </trkpt>
      <trkpt lat="44.78552" lon="1.61318">
        <ele>250.7</ele>
        <time>2024-12-25T13:35:18Z</time>
      </trkpt>
      <trkpt lat="44.78552" lon="1.61316">
        <ele>250.9</ele>
        <time>2024-12-25T13:35:20Z</time>
      </trkpt>
      <trkpt lat="44.78552" lon="1.61313">
        <ele>251.2</ele>
        <time>2024-12-25T13:35:21Z</time>
      </trkpt>
      <trkpt lat="44.78552" lon="1.61309">
        <ele>251.6</ele>
        <time>2024-12-25T13:35:23Z</time>
      </trkpt>
      <trkpt lat="44.78552" lon="1.61305">
        <ele>252</ele>
        <time>2024-12-25T13:35:25Z</time>
      </trkpt>
      <trkpt lat="44.78553" lon="1.61303">
        <ele>252.2</ele>
        <time>2024-12-25T13:35:26Z</time>
      </trkpt>
      <trkpt lat="44.78553" lon="1.61302">
        <ele>252.4</ele>
        <time>2024-12-25T13:35:27Z</time>
      </trkpt>
      <trkpt lat="44.78553" lon="1.61301">
        <ele>252.5</ele>
        <time>2024-12-25T13:35:28Z</time>
      </trkpt>
      <trkpt lat="44.78554" lon="1.61299">
        <ele>252.7</ele>
        <time>2024-12-25T13:35:30Z</time>
      </trkpt>
      <trkpt lat="44.78554" lon="1.61298">
        <ele>252.9</ele>
        <time>2024-12-25T13:35:31Z</time>
      </trkpt>
      <trkpt lat="44.78554" lon="1.61296">
        <ele>253</ele>
        <time>2024-12-25T13:35:32Z</time>
      </trkpt>
      <trkpt lat="44.78554" lon="1.61295">
        <ele>253.2</ele>
        <time>2024-12-25T13:35:33Z</time>
      </trkpt>
      <trkpt lat="44.78554" lon="1.61292">
        <ele>253.5</ele>
        <time>2024-12-25T13:35:34Z</time>
      </trkpt>
      <trkpt lat="44.78554" lon="1.61291">
        <ele>253.7</ele>
        <time>2024-12-25T13:35:35Z</time>
      </trkpt>
      <trkpt lat="44.78554" lon="1.6129">
        <ele>253.8</ele>
        <time>2024-12-25T13:35:36Z</time>
      </trkpt>
      <trkpt lat="44.78553" lon="1.61288">
        <ele>254</ele>
        <time>2024-12-25T13:35:37Z</time>
      </trkpt>
      <trkpt lat="44.78553" lon="1.61287">
        <ele>254.1</ele>
        <time>2024-12-25T13:35:38Z</time>
      </trkpt>
      <trkpt lat="44.78552" lon="1.61286">
        <ele>254.3</ele>
        <time>2024-12-25T13:35:39Z</time>
      </trkpt>
      <trkpt lat="44.78552" lon="1.61285">
        <ele>254.4</ele>
        <time>2024-12-25T13:35:40Z</time>
      </trkpt>
      <trkpt lat="44.78553" lon="1.61283">
        <ele>254.6</ele>
        <time>2024-12-25T13:35:41Z</time>
      </trkpt>
      <trkpt lat="44.78552" lon="1.61282">
        <ele>254.8</ele>
        <time>2024-12-25T13:35:42Z</time>
      </trkpt>
      <trkpt lat="44.78552" lon="1.6128">
        <ele>254.9</ele>
        <time>2024-12-25T13:35:43Z</time>
      </trkpt>
      <trkpt lat="44.78551" lon="1.61279">
        <ele>255.1</ele>
        <time>2024-12-25T13:35:44Z</time>
      </trkpt>
      <trkpt lat="44.78551" lon="1.61278">
        <ele>255.2</ele>
        <time>2024-12-25T13:35:46Z</time>
      </trkpt>
      <trkpt lat="44.7855" lon="1.61278">
        <ele>255.3</ele>
        <time>2024-12-25T13:35:47Z</time>
      </trkpt>
      <trkpt lat="44.7855" lon="1.61279">
        <ele>255.4</ele>
        <time>2024-12-25T13:35:49Z</time>
      </trkpt>
      <trkpt lat="44.7855" lon="1.61279">
        <ele>255.4</ele>
        <time>2024-12-25T13:35:50Z</time>
      </trkpt>
      <trkpt lat="44.7855" lon="1.61278">
        <ele>255.5</ele>
        <time>2024-12-25T13:35:51Z</time>
      </trkpt>
      <trkpt lat="44.78551" lon="1.61278">
        <ele>255.6</ele>
        <time>2024-12-25T13:35:52Z</time>
      </trkpt>
      <trkpt lat="44.78551" lon="1.61276">
        <ele>255.7</ele>
        <time>2024-12-25T13:35:54Z</time>
      </trkpt>
      <trkpt lat="44.78551" lon="1.61275">
        <ele>255.9</ele>
        <time>2024-12-25T13:35:55Z</time>
      </trkpt>
      <trkpt lat="44.78551" lon="1.61274">
        <ele>255.9</ele>
        <time>2024-12-25T13:35:56Z</time>
      </trkpt>
      <trkpt lat="44.78551" lon="1.61274">
        <ele>256</ele>
        <time>2024-12-25T13:35:57Z</time>
      </trkpt>
      <trkpt lat="44.78552" lon="1.61274">
        <ele>256</ele>
        <time>2024-12-25T13:35:58Z</time>
      </trkpt>
      <trkpt lat="44.78552" lon="1.61274">
        <ele>256.1</ele>
        <time>2024-12-25T13:36:00Z</time>
      </trkpt>
      <trkpt lat="44.78552" lon="1.61274">
        <ele>256.1</ele>
        <time>2024-12-25T13:36:01Z</time>
      </trkpt>
      <trkpt lat="44.78552" lon="1.61274">
        <ele>256.1</ele>
        <time>2024-12-25T13:36:02Z</time>
      </trkpt>
      <trkpt lat="44.78552" lon="1.61274">
        <ele>256.1</ele>
        <time>2024-12-25T13:36:03Z</time>
      </trkpt>
      <trkpt lat="44.78552" lon="1.61273">
        <ele>256.2</ele>
        <time>2024-12-25T13:36:04Z</time>
      </trkpt>
      <trkpt lat="44.78552" lon="1.61272">
        <ele>256.3</ele>
        <time>2024-12-25T13:36:05Z</time>
      </trkpt>
      <trkpt lat="44.78551" lon="1.61271">
        <ele>256.4</ele>
        <time>2024-12-25T13:36:06Z</time>
      </trkpt>
      <trkpt lat="44.7855" lon="1.61269">
        <ele>256.6</ele>
        <time>2024-12-25T13:36:07Z</time>
      </trkpt>
      <trkpt lat="44.7855" lon="1.61266">
        <ele>256.8</ele>
        <time>2024-12-25T13:36:08Z</time>
      </trkpt>
      <trkpt lat="44.7855" lon="1.61265">
        <ele>256.9</ele>
        <time>2024-12-25T13:36:09Z</time>
      </trkpt>
      <trkpt lat="44.7855" lon="1.61264">
        <ele>256.9</ele>
        <time>2024-12-25T13:36:10Z</time>
      </trkpt>
      <trkpt lat="44.7855" lon="1.61262">
        <ele>257.1</ele>
        <time>2024-12-25T13:36:11Z</time>
      </trkpt>
      <trkpt lat="44.7855" lon="1.61261">
        <ele>257.1</ele>
        <time>2024-12-25T13:36:12Z</time>
      </trkpt>
      <trkpt lat="44.78551" lon="1.6126">
        <ele>257.2</ele>
        <time>2024-12-25T13:36:13Z</time>
      </trkpt>
      <trkpt lat="44.78551" lon="1.61257">
        <ele>257.4</ele>
        <time>2024-12-25T13:36:15Z</time>
      </trkpt>
      <trkpt lat="44.78551" lon="1.61256">
        <ele>257.5</ele>
        <time>2024-12-25T13:36:16Z</time>
      </trkpt>
      <trkpt lat="44.78551" lon="1.61255">
        <ele>257.5</ele>
        <time>2024-12-25T13:36:17Z</time>
      </trkpt>
      <trkpt lat="44.78551" lon="1.61255">
        <ele>257.5</ele>
        <time>2024-12-25T13:36:18Z</time>
      </trkpt>
      <trkpt lat="44.78551" lon="1.61256">
        <ele>257.6</ele>
        <time>2024-12-25T13:36:20Z</time>
      </trkpt>
      <trkpt lat="44.7855" lon="1.61256">
        <ele>257.6</ele>
        <time>2024-12-25T13:36:21Z</time>
      </trkpt>
      <trkpt lat="44.78551" lon="1.61257">
        <ele>257.6</ele>
        <time>2024-12-25T13:36:22Z</time>
      </trkpt>
      <trkpt lat="44.78551" lon="1.61257">
        <ele>257.7</ele>
        <time>2024-12-25T13:36:23Z</time>
      </trkpt>
      <trkpt lat="44.78551" lon="1.61257">
        <ele>257.7</ele>
        <time>2024-12-25T13:36:25Z</time>
      </trkpt>
      <trkpt lat="44.78551" lon="1.61256">
        <ele>257.7</ele>
        <time>2024-12-25T13:36:26Z</time>
      </trkpt>
      <trkpt lat="44.78551" lon="1.61254">
        <ele>257.8</ele>
        <time>2024-12-25T13:36:27Z</time>
      </trkpt>
      <trkpt lat="44.78551" lon="1.61251">
        <ele>258</ele>
        <time>2024-12-25T13:36:28Z</time>
      </trkpt>
      <trkpt lat="44.78551" lon="1.61248">
        <ele>258.2</ele>
        <time>2024-12-25T13:36:29Z</time>
      </trkpt>
      <trkpt lat="44.78551" lon="1.61244">
        <ele>258.4</ele>
        <time>2024-12-25T13:36:31Z</time>
      </trkpt>
      <trkpt lat="44.78551" lon="1.61242">
        <ele>258.5</ele>
        <time>2024-12-25T13:36:32Z</time>
      </trkpt>
      <trkpt lat="44.7855" lon="1.6124">
        <ele>258.5</ele>
        <time>2024-12-25T13:36:33Z</time>
      </trkpt>
      <trkpt lat="44.7855" lon="1.61238">
        <ele>258.7</ele>
        <time>2024-12-25T13:36:35Z</time>
      </trkpt>
      <trkpt lat="44.7855" lon="1.61236">
        <ele>258.7</ele>
        <time>2024-12-25T13:36:37Z</time>
      </trkpt>
      <trkpt lat="44.78549" lon="1.61235">
        <ele>258.8</ele>
        <time>2024-12-25T13:36:38Z</time>
      </trkpt>
      <trkpt lat="44.78549" lon="1.61233">
        <ele>258.9</ele>
        <time>2024-12-25T13:36:39Z</time>
      </trkpt>
      <trkpt lat="44.78549" lon="1.61232">
        <ele>259</ele>
        <time>2024-12-25T13:36:40Z</time>
      </trkpt>
      <trkpt lat="44.78549" lon="1.6123">
        <ele>259.1</ele>
        <time>2024-12-25T13:36:41Z</time>
      </trkpt>
      <trkpt lat="44.78549" lon="1.61228">
        <ele>259.2</ele>
        <time>2024-12-25T13:36:42Z</time>
      </trkpt>
      <trkpt lat="44.7855" lon="1.61226">
        <ele>259.2</ele>
        <time>2024-12-25T13:36:44Z</time>
      </trkpt>
      <trkpt lat="44.7855" lon="1.61225">
        <ele>259.3</ele>
        <time>2024-12-25T13:36:45Z</time>
      </trkpt>
      <trkpt lat="44.7855" lon="1.61224">
        <ele>259.4</ele>
        <time>2024-12-25T13:36:46Z</time>
      </trkpt>
      <trkpt lat="44.78551" lon="1.61221">
        <ele>259.5</ele>
        <time>2024-12-25T13:36:47Z</time>
      </trkpt>
      <trkpt lat="44.78551" lon="1.6122">
        <ele>259.6</ele>
        <time>2024-12-25T13:36:49Z</time>
      </trkpt>
      <trkpt lat="44.78551" lon="1.61218">
        <ele>259.7</ele>
        <time>2024-12-25T13:36:50Z</time>
      </trkpt>
      <trkpt lat="44.78551" lon="1.61217">
        <ele>259.7</ele>
        <time>2024-12-25T13:36:51Z</time>
      </trkpt>
      <trkpt lat="44.78551" lon="1.61215">
        <ele>259.8</ele>
        <time>2024-12-25T13:36:52Z</time>
      </trkpt>
      <trkpt lat="44.78551" lon="1.61212">
        <ele>260</ele>
        <time>2024-12-25T13:36:53Z</time>
      </trkpt>
      <trkpt lat="44.78551" lon="1.61211">
        <ele>260</ele>
        <time>2024-12-25T13:36:55Z</time>
      </trkpt>
      <trkpt lat="44.78551" lon="1.6121">
        <ele>260.1</ele>
        <time>2024-12-25T13:36:56Z</time>
      </trkpt>
      <trkpt lat="44.78551" lon="1.61209">
        <ele>260.1</ele>
        <time>2024-12-25T13:36:57Z</time>
      </trkpt>
      <trkpt lat="44.78551" lon="1.61208">
        <ele>260.1</ele>
        <time>2024-12-25T13:36:58Z</time>
      </trkpt>
      <trkpt lat="44.78551" lon="1.61208">
        <ele>260.2</ele>
        <time>2024-12-25T13:36:59Z</time>
      </trkpt>
      <trkpt lat="44.78551" lon="1.61207">
        <ele>260.2</ele>
        <time>2024-12-25T13:37:00Z</time>
      </trkpt>
      <trkpt lat="44.78551" lon="1.61206">
        <ele>260.3</ele>
        <time>2024-12-25T13:37:01Z</time>
      </trkpt>
      <trkpt lat="44.78552" lon="1.61205">
        <ele>260.3</ele>
        <time>2024-12-25T13:37:02Z</time>
      </trkpt>
      <trkpt lat="44.78552" lon="1.61204">
        <ele>260.4</ele>
        <time>2024-12-25T13:37:03Z</time>
      </trkpt>
      <trkpt lat="44.78552" lon="1.61203">
        <ele>260.4</ele>
        <time>2024-12-25T13:37:05Z</time>
      </trkpt>
      <trkpt lat="44.78553" lon="1.61202">
        <ele>260.5</ele>
        <time>2024-12-25T13:37:07Z</time>
      </trkpt>
      <trkpt lat="44.78553" lon="1.61201">
        <ele>260.5</ele>
        <time>2024-12-25T13:37:09Z</time>
      </trkpt>
      <trkpt lat="44.78553" lon="1.612">
        <ele>260.6</ele>
        <time>2024-12-25T13:37:10Z</time>
      </trkpt>
      <trkpt lat="44.78554" lon="1.61198">
        <ele>260.7</ele>
        <time>2024-12-25T13:37:12Z</time>
      </trkpt>
      <trkpt lat="44.78555" lon="1.61196">
        <ele>260.7</ele>
        <time>2024-12-25T13:37:13Z</time>
      </trkpt>
      <trkpt lat="44.78556" lon="1.61194">
        <ele>260.8</ele>
        <time>2024-12-25T13:37:14Z</time>
      </trkpt>
      <trkpt lat="44.78557" lon="1.61192">
        <ele>260.9</ele>
        <time>2024-12-25T13:37:15Z</time>
      </trkpt>
      <trkpt lat="44.78557" lon="1.61191">
        <ele>261</ele>
        <time>2024-12-25T13:37:16Z</time>
      </trkpt>
      <trkpt lat="44.78558" lon="1.61188">
        <ele>261.1</ele>
        <time>2024-12-25T13:37:17Z</time>
      </trkpt>
      <trkpt lat="44.78559" lon="1.61186">
        <ele>261.1</ele>
        <time>2024-12-25T13:37:19Z</time>
      </trkpt>
      <trkpt lat="44.78561" lon="1.61183">
        <ele>261.3</ele>
        <time>2024-12-25T13:37:20Z</time>
      </trkpt>
      <trkpt lat="44.78562" lon="1.6118">
        <ele>261.3</ele>
        <time>2024-12-25T13:37:22Z</time>
      </trkpt>
      <trkpt lat="44.78562" lon="1.61179">
        <ele>261.4</ele>
        <time>2024-12-25T13:37:23Z</time>
      </trkpt>
      <trkpt lat="44.78563" lon="1.61178">
        <ele>261.4</ele>
        <time>2024-12-25T13:37:24Z</time>
      </trkpt>
      <trkpt lat="44.78564" lon="1.61175">
        <ele>261.5</ele>
        <time>2024-12-25T13:37:25Z</time>
      </trkpt>
      <trkpt lat="44.78565" lon="1.61174">
        <ele>261.5</ele>
        <time>2024-12-25T13:37:27Z</time>
      </trkpt>
      <trkpt lat="44.78566" lon="1.61171">
        <ele>261.6</ele>
        <time>2024-12-25T13:37:28Z</time>
      </trkpt>
      <trkpt lat="44.78566" lon="1.61169">
        <ele>261.6</ele>
        <time>2024-12-25T13:37:30Z</time>
      </trkpt>
      <trkpt lat="44.78566" lon="1.61166">
        <ele>261.6</ele>
        <time>2024-12-25T13:37:31Z</time>
      </trkpt>
      <trkpt lat="44.78566" lon="1.61164">
        <ele>261.6</ele>
        <time>2024-12-25T13:37:33Z</time>
      </trkpt>
      <trkpt lat="44.78566" lon="1.61163">
        <ele>261.7</ele>
        <time>2024-12-25T13:37:34Z</time>
      </trkpt>
      <trkpt lat="44.78566" lon="1.6116">
        <ele>261.7</ele>
        <time>2024-12-25T13:37:35Z</time>
      </trkpt>
      <trkpt lat="44.78567" lon="1.61158">
        <ele>261.7</ele>
        <time>2024-12-25T13:37:36Z</time>
      </trkpt>
      <trkpt lat="44.78567" lon="1.61157">
        <ele>261.7</ele>
        <time>2024-12-25T13:37:37Z</time>
      </trkpt>
      <trkpt lat="44.78568" lon="1.61155">
        <ele>261.7</ele>
        <time>2024-12-25T13:37:38Z</time>
      </trkpt>
      <trkpt lat="44.78569" lon="1.61152">
        <ele>261.7</ele>
        <time>2024-12-25T13:37:39Z</time>
      </trkpt>
      <trkpt lat="44.78569" lon="1.6115">
        <ele>261.8</ele>
        <time>2024-12-25T13:37:40Z</time>
      </trkpt>
      <trkpt lat="44.7857" lon="1.61148">
        <ele>261.8</ele>
        <time>2024-12-25T13:37:41Z</time>
      </trkpt>
      <trkpt lat="44.7857" lon="1.61145">
        <ele>261.8</ele>
        <time>2024-12-25T13:37:43Z</time>
      </trkpt>
      <trkpt lat="44.7857" lon="1.61143">
        <ele>261.8</ele>
        <time>2024-12-25T13:37:44Z</time>
      </trkpt>
      <trkpt lat="44.7857" lon="1.61141">
        <ele>261.8</ele>
        <time>2024-12-25T13:37:46Z</time>
      </trkpt>
      <trkpt lat="44.7857" lon="1.6114">
        <ele>261.8</ele>
        <time>2024-12-25T13:37:47Z</time>
      </trkpt>
      <trkpt lat="44.78571" lon="1.61136">
        <ele>261.8</ele>
        <time>2024-12-25T13:37:48Z</time>
      </trkpt>
      <trkpt lat="44.78572" lon="1.61133">
        <ele>261.9</ele>
        <time>2024-12-25T13:37:50Z</time>
      </trkpt>
      <trkpt lat="44.78572" lon="1.61131">
        <ele>261.9</ele>
        <time>2024-12-25T13:37:52Z</time>
      </trkpt>
      <trkpt lat="44.78573" lon="1.61129">
        <ele>261.9</ele>
        <time>2024-12-25T13:37:53Z</time>
      </trkpt>
      <trkpt lat="44.78573" lon="1.61127">
        <ele>261.9</ele>
        <time>2024-12-25T13:37:54Z</time>
      </trkpt>
      <trkpt lat="44.78574" lon="1.61123">
        <ele>261.9</ele>
        <time>2024-12-25T13:37:55Z</time>
      </trkpt>
      <trkpt lat="44.78575" lon="1.61121">
        <ele>261.9</ele>
        <time>2024-12-25T13:37:57Z</time>
      </trkpt>
      <trkpt lat="44.78576" lon="1.61119">
        <ele>261.9</ele>
        <time>2024-12-25T13:37:58Z</time>
      </trkpt>
      <trkpt lat="44.78577" lon="1.61116">
        <ele>262</ele>
        <time>2024-12-25T13:37:59Z</time>
      </trkpt>
      <trkpt lat="44.78577" lon="1.61115">
        <ele>262</ele>
        <time>2024-12-25T13:38:01Z</time>
      </trkpt>
      <trkpt lat="44.78578" lon="1.61114">
        <ele>262</ele>
        <time>2024-12-25T13:38:02Z</time>
      </trkpt>
      <trkpt lat="44.7858" lon="1.61112">
        <ele>262</ele>
        <time>2024-12-25T13:38:03Z</time>
      </trkpt>
      <trkpt lat="44.78582" lon="1.61109">
        <ele>262.1</ele>
        <time>2024-12-25T13:38:05Z</time>
      </trkpt>
      <trkpt lat="44.78583" lon="1.61108">
        <ele>262.1</ele>
        <time>2024-12-25T13:38:06Z</time>
      </trkpt>
      <trkpt lat="44.78584" lon="1.61107">
        <ele>262.1</ele>
        <time>2024-12-25T13:38:07Z</time>
      </trkpt>
      <trkpt lat="44.78585" lon="1.61105">
        <ele>262.1</ele>
        <time>2024-12-25T13:38:09Z</time>
      </trkpt>
      <trkpt lat="44.78587" lon="1.61103">
        <ele>262.2</ele>
        <time>2024-12-25T13:38:10Z</time>
      </trkpt>
      <trkpt lat="44.78589" lon="1.61101">
        <ele>262.2</ele>
        <time>2024-12-25T13:38:11Z</time>
      </trkpt>
      <trkpt lat="44.7859" lon="1.611">
        <ele>262.2</ele>
        <time>2024-12-25T13:38:13Z</time>
      </trkpt>
      <trkpt lat="44.78591" lon="1.61099">
        <ele>262.2</ele>
        <time>2024-12-25T13:38:14Z</time>
      </trkpt>
      <trkpt lat="44.78592" lon="1.61098">
        <ele>262.2</ele>
        <time>2024-12-25T13:38:15Z</time>
      </trkpt>
      <trkpt lat="44.78593" lon="1.61097">
        <ele>262.3</ele>
        <time>2024-12-25T13:38:16Z</time>
      </trkpt>
      <trkpt lat="44.78594" lon="1.61096">
        <ele>262.3</ele>
        <time>2024-12-25T13:38:17Z</time>
      </trkpt>
      <trkpt lat="44.78596" lon="1.61094">
        <ele>262.3</ele>
        <time>2024-12-25T13:38:18Z</time>
      </trkpt>
      <trkpt lat="44.78597" lon="1.61092">
        <ele>262.3</ele>
        <time>2024-12-25T13:38:20Z</time>
      </trkpt>
      <trkpt lat="44.78599" lon="1.6109">
        <ele>262.4</ele>
        <time>2024-12-25T13:38:21Z</time>
      </trkpt>
      <trkpt lat="44.786" lon="1.61089">
        <ele>262.4</ele>
        <time>2024-12-25T13:38:23Z</time>
      </trkpt>
      <trkpt lat="44.78601" lon="1.61088">
        <ele>262.4</ele>
        <time>2024-12-25T13:38:24Z</time>
      </trkpt>
      <trkpt lat="44.78602" lon="1.61086">
        <ele>262.4</ele>
        <time>2024-12-25T13:38:25Z</time>
      </trkpt>
      <trkpt lat="44.78603" lon="1.61085">
        <ele>262.5</ele>
        <time>2024-12-25T13:38:26Z</time>
      </trkpt>
      <trkpt lat="44.78605" lon="1.61083">
        <ele>262.5</ele>
        <time>2024-12-25T13:38:27Z</time>
      </trkpt>
      <trkpt lat="44.78606" lon="1.61082">
        <ele>262.5</ele>
        <time>2024-12-25T13:38:28Z</time>
      </trkpt>
      <trkpt lat="44.78608" lon="1.6108">
        <ele>262.5</ele>
        <time>2024-12-25T13:38:30Z</time>
      </trkpt>
      <trkpt lat="44.78608" lon="1.61079">
        <ele>262.5</ele>
        <time>2024-12-25T13:38:31Z</time>
      </trkpt>
      <trkpt lat="44.7861" lon="1.61077">
        <ele>262.6</ele>
        <time>2024-12-25T13:38:32Z</time>
      </trkpt>
      <trkpt lat="44.78611" lon="1.61076">
        <ele>262.6</ele>
        <time>2024-12-25T13:38:34Z</time>
      </trkpt>
      <trkpt lat="44.78612" lon="1.61075">
        <ele>262.6</ele>
        <time>2024-12-25T13:38:35Z</time>
      </trkpt>
      <trkpt lat="44.78615" lon="1.61074">
        <ele>262.7</ele>
        <time>2024-12-25T13:38:36Z</time>
      </trkpt>
      <trkpt lat="44.78616" lon="1.61073">
        <ele>262.7</ele>
        <time>2024-12-25T13:38:37Z</time>
      </trkpt>
      <trkpt lat="44.78617" lon="1.61072">
        <ele>262.7</ele>
        <time>2024-12-25T13:38:38Z</time>
      </trkpt>
      <trkpt lat="44.78617" lon="1.61071">
        <ele>262.7</ele>
        <time>2024-12-25T13:38:39Z</time>
      </trkpt>
      <trkpt lat="44.78619" lon="1.6107">
        <ele>262.7</ele>
        <time>2024-12-25T13:38:40Z</time>
      </trkpt>
      <trkpt lat="44.78621" lon="1.61068">
        <ele>262.8</ele>
        <time>2024-12-25T13:38:42Z</time>
      </trkpt>
      <trkpt lat="44.78622" lon="1.61067">
        <ele>262.8</ele>
        <time>2024-12-25T13:38:43Z</time>
      </trkpt>
      <trkpt lat="44.78623" lon="1.61066">
        <ele>262.8</ele>
        <time>2024-12-25T13:38:44Z</time>
      </trkpt>
      <trkpt lat="44.78624" lon="1.61064">
        <ele>262.9</ele>
        <time>2024-12-25T13:38:46Z</time>
      </trkpt>
      <trkpt lat="44.78625" lon="1.61064">
        <ele>262.9</ele>
        <time>2024-12-25T13:38:47Z</time>
      </trkpt>
      <trkpt lat="44.78627" lon="1.61062">
        <ele>263</ele>
        <time>2024-12-25T13:38:48Z</time>
      </trkpt>
      <trkpt lat="44.78628" lon="1.61061">
        <ele>263</ele>
        <time>2024-12-25T13:38:49Z</time>
      </trkpt>
      <trkpt lat="44.7863" lon="1.61059">
        <ele>263</ele>
        <time>2024-12-25T13:38:51Z</time>
      </trkpt>
      <trkpt lat="44.78631" lon="1.61058">
        <ele>263.1</ele>
        <time>2024-12-25T13:38:52Z</time>
      </trkpt>
      <trkpt lat="44.78633" lon="1.61057">
        <ele>263.1</ele>
        <time>2024-12-25T13:38:53Z</time>
      </trkpt>
      <trkpt lat="44.78635" lon="1.61057">
        <ele>263.2</ele>
        <time>2024-12-25T13:38:55Z</time>
      </trkpt>
      <trkpt lat="44.78635" lon="1.61056">
        <ele>263.2</ele>
        <time>2024-12-25T13:38:56Z</time>
      </trkpt>
      <trkpt lat="44.78639" lon="1.61056">
        <ele>263.3</ele>
        <time>2024-12-25T13:38:57Z</time>
      </trkpt>
      <trkpt lat="44.78639" lon="1.61056">
        <ele>263.3</ele>
        <time>2024-12-25T13:38:58Z</time>
      </trkpt>
      <trkpt lat="44.78641" lon="1.61056">
        <ele>263.4</ele>
        <time>2024-12-25T13:38:59Z</time>
      </trkpt>
      <trkpt lat="44.78642" lon="1.61055">
        <ele>263.4</ele>
        <time>2024-12-25T13:39:00Z</time>
      </trkpt>
      <trkpt lat="44.78643" lon="1.61055">
        <ele>263.4</ele>
        <time>2024-12-25T13:39:01Z</time>
      </trkpt>
      <trkpt lat="44.78644" lon="1.61055">
        <ele>263.5</ele>
        <time>2024-12-25T13:39:02Z</time>
      </trkpt>
      <trkpt lat="44.78645" lon="1.61055">
        <ele>263.5</ele>
        <time>2024-12-25T13:39:03Z</time>
      </trkpt>
      <trkpt lat="44.78647" lon="1.61054">
        <ele>263.5</ele>
        <time>2024-12-25T13:39:04Z</time>
      </trkpt>
      <trkpt lat="44.78648" lon="1.61055">
        <ele>263.6</ele>
        <time>2024-12-25T13:39:05Z</time>
      </trkpt>
      <trkpt lat="44.78649" lon="1.61055">
        <ele>263.6</ele>
        <time>2024-12-25T13:39:06Z</time>
      </trkpt>
      <trkpt lat="44.78652" lon="1.61056">
        <ele>263.7</ele>
        <time>2024-12-25T13:39:08Z</time>
      </trkpt>
      <trkpt lat="44.78652" lon="1.61057">
        <ele>263.7</ele>
        <time>2024-12-25T13:39:09Z</time>
      </trkpt>
      <trkpt lat="44.78653" lon="1.61058">
        <ele>263.7</ele>
        <time>2024-12-25T13:39:10Z</time>
      </trkpt>
      <trkpt lat="44.78655" lon="1.61057">
        <ele>263.8</ele>
        <time>2024-12-25T13:39:11Z</time>
      </trkpt>
      <trkpt lat="44.78656" lon="1.61057">
        <ele>263.8</ele>
        <time>2024-12-25T13:39:12Z</time>
      </trkpt>
      <trkpt lat="44.78658" lon="1.61057">
        <ele>263.9</ele>
        <time>2024-12-25T13:39:13Z</time>
      </trkpt>
      <trkpt lat="44.78659" lon="1.61057">
        <ele>263.9</ele>
        <time>2024-12-25T13:39:14Z</time>
      </trkpt>
      <trkpt lat="44.7866" lon="1.61057">
        <ele>264</ele>
        <time>2024-12-25T13:39:15Z</time>
      </trkpt>
      <trkpt lat="44.78662" lon="1.61058">
        <ele>264</ele>
        <time>2024-12-25T13:39:16Z</time>
      </trkpt>
      <trkpt lat="44.78663" lon="1.61058">
        <ele>264</ele>
        <time>2024-12-25T13:39:17Z</time>
      </trkpt>
      <trkpt lat="44.78664" lon="1.61059">
        <ele>264.1</ele>
        <time>2024-12-25T13:39:18Z</time>
      </trkpt>
      <trkpt lat="44.78665" lon="1.61059">
        <ele>264.1</ele>
        <time>2024-12-25T13:39:19Z</time>
      </trkpt>
      <trkpt lat="44.78666" lon="1.6106">
        <ele>264.1</ele>
        <time>2024-12-25T13:39:20Z</time>
      </trkpt>
      <trkpt lat="44.78667" lon="1.61061">
        <ele>264.2</ele>
        <time>2024-12-25T13:39:21Z</time>
      </trkpt>
      <trkpt lat="44.78669" lon="1.61062">
        <ele>264.2</ele>
        <time>2024-12-25T13:39:22Z</time>
      </trkpt>
      <trkpt lat="44.7867" lon="1.61063">
        <ele>264.2</ele>
        <time>2024-12-25T13:39:23Z</time>
      </trkpt>
      <trkpt lat="44.78671" lon="1.61063">
        <ele>264.3</ele>
        <time>2024-12-25T13:39:24Z</time>
      </trkpt>
      <trkpt lat="44.78672" lon="1.61064">
        <ele>264.3</ele>
        <time>2024-12-25T13:39:25Z</time>
      </trkpt>
      <trkpt lat="44.78673" lon="1.61064">
        <ele>264.3</ele>
        <time>2024-12-25T13:39:26Z</time>
      </trkpt>
      <trkpt lat="44.78674" lon="1.61065">
        <ele>264.4</ele>
        <time>2024-12-25T13:39:27Z</time>
      </trkpt>
      <trkpt lat="44.78676" lon="1.61065">
        <ele>264.4</ele>
        <time>2024-12-25T13:39:28Z</time>
      </trkpt>
      <trkpt lat="44.78676" lon="1.61066">
        <ele>264.4</ele>
        <time>2024-12-25T13:39:29Z</time>
      </trkpt>
      <trkpt lat="44.78678" lon="1.61067">
        <ele>264.4</ele>
        <time>2024-12-25T13:39:30Z</time>
      </trkpt>
      <trkpt lat="44.78678" lon="1.61067">
        <ele>264.5</ele>
        <time>2024-12-25T13:39:31Z</time>
      </trkpt>
      <trkpt lat="44.78679" lon="1.61068">
        <ele>264.5</ele>
        <time>2024-12-25T13:39:32Z</time>
      </trkpt>
      <trkpt lat="44.78681" lon="1.61069">
        <ele>264.5</ele>
        <time>2024-12-25T13:39:33Z</time>
      </trkpt>
      <trkpt lat="44.78681" lon="1.61069">
        <ele>264.5</ele>
        <time>2024-12-25T13:39:34Z</time>
      </trkpt>
      <trkpt lat="44.78682" lon="1.6107">
        <ele>264.6</ele>
        <time>2024-12-25T13:39:35Z</time>
      </trkpt>
      <trkpt lat="44.78679" lon="1.61068">
        <ele>264.6</ele>
        <time>2024-12-25T13:39:36Z</time>
      </trkpt>
      <trkpt lat="44.78675" lon="1.61065">
        <ele>264.7</ele>
        <time>2024-12-25T13:39:37Z</time>
      </trkpt>
      <trkpt lat="44.78676" lon="1.61065">
        <ele>264.7</ele>
        <time>2024-12-25T13:39:38Z</time>
      </trkpt>
      <trkpt lat="44.78677" lon="1.61065">
        <ele>264.8</ele>
        <time>2024-12-25T13:39:39Z</time>
      </trkpt>
      <trkpt lat="44.78677" lon="1.61065">
        <ele>264.8</ele>
        <time>2024-12-25T13:39:40Z</time>
      </trkpt>
      <trkpt lat="44.78692" lon="1.61076">
        <ele>265.1</ele>
        <time>2024-12-25T13:39:44Z</time>
      </trkpt>
      <trkpt lat="44.78693" lon="1.61078">
        <ele>265.1</ele>
        <time>2024-12-25T13:39:45Z</time>
      </trkpt>
      <trkpt lat="44.78693" lon="1.61079">
        <ele>265.1</ele>
        <time>2024-12-25T13:39:46Z</time>
      </trkpt>
      <trkpt lat="44.78694" lon="1.6108">
        <ele>265.1</ele>
        <time>2024-12-25T13:39:47Z</time>
      </trkpt>
      <trkpt lat="44.78695" lon="1.61081">
        <ele>265.2</ele>
        <time>2024-12-25T13:39:48Z</time>
      </trkpt>
      <trkpt lat="44.78696" lon="1.61083">
        <ele>265.2</ele>
        <time>2024-12-25T13:39:49Z</time>
      </trkpt>
      <trkpt lat="44.78696" lon="1.61083">
        <ele>265.2</ele>
        <time>2024-12-25T13:39:50Z</time>
      </trkpt>
      <trkpt lat="44.78697" lon="1.61085">
        <ele>265.2</ele>
        <time>2024-12-25T13:39:51Z</time>
      </trkpt>
      <trkpt lat="44.78698" lon="1.61086">
        <ele>265.2</ele>
        <time>2024-12-25T13:39:52Z</time>
      </trkpt>
      <trkpt lat="44.78699" lon="1.61087">
        <ele>265.2</ele>
        <time>2024-12-25T13:39:53Z</time>
      </trkpt>
      <trkpt lat="44.78699" lon="1.61088">
        <ele>265.2</ele>
        <time>2024-12-25T13:39:54Z</time>
      </trkpt>
      <trkpt lat="44.787" lon="1.6109">
        <ele>265.2</ele>
        <time>2024-12-25T13:39:55Z</time>
      </trkpt>
      <trkpt lat="44.78701" lon="1.61092">
        <ele>265.2</ele>
        <time>2024-12-25T13:39:56Z</time>
      </trkpt>
      <trkpt lat="44.78701" lon="1.61093">
        <ele>265.3</ele>
        <time>2024-12-25T13:39:57Z</time>
      </trkpt>
      <trkpt lat="44.78702" lon="1.61094">
        <ele>265.3</ele>
        <time>2024-12-25T13:39:58Z</time>
      </trkpt>
      <trkpt lat="44.78703" lon="1.61096">
        <ele>265.3</ele>
        <time>2024-12-25T13:39:59Z</time>
      </trkpt>
      <trkpt lat="44.78704" lon="1.61097">
        <ele>265.3</ele>
        <time>2024-12-25T13:40:00Z</time>
      </trkpt>
      <trkpt lat="44.78705" lon="1.61099">
        <ele>265.3</ele>
        <time>2024-12-25T13:40:01Z</time>
      </trkpt>
      <trkpt lat="44.78707" lon="1.611">
        <ele>265.3</ele>
        <time>2024-12-25T13:40:02Z</time>
      </trkpt>
      <trkpt lat="44.78707" lon="1.61101">
        <ele>265.3</ele>
        <time>2024-12-25T13:40:03Z</time>
      </trkpt>
      <trkpt lat="44.78708" lon="1.61102">
        <ele>265.3</ele>
        <time>2024-12-25T13:40:04Z</time>
      </trkpt>
      <trkpt lat="44.78709" lon="1.61102">
        <ele>265.3</ele>
        <time>2024-12-25T13:40:05Z</time>
      </trkpt>
      <trkpt lat="44.78711" lon="1.61103">
        <ele>265.3</ele>
        <time>2024-12-25T13:40:06Z</time>
      </trkpt>
      <trkpt lat="44.78711" lon="1.61104">
        <ele>265.3</ele>
        <time>2024-12-25T13:40:07Z</time>
      </trkpt>
      <trkpt lat="44.78712" lon="1.61105">
        <ele>265.3</ele>
        <time>2024-12-25T13:40:08Z</time>
      </trkpt>
      <trkpt lat="44.78713" lon="1.61107">
        <ele>265.3</ele>
        <time>2024-12-25T13:40:09Z</time>
      </trkpt>
      <trkpt lat="44.78713" lon="1.61108">
        <ele>265.3</ele>
        <time>2024-12-25T13:40:10Z</time>
      </trkpt>
      <trkpt lat="44.78715" lon="1.6111">
        <ele>265.3</ele>
        <time>2024-12-25T13:40:11Z</time>
      </trkpt>
      <trkpt lat="44.78716" lon="1.61111">
        <ele>265.3</ele>
        <time>2024-12-25T13:40:12Z</time>
      </trkpt>
      <trkpt lat="44.78717" lon="1.61112">
        <ele>265.2</ele>
        <time>2024-12-25T13:40:13Z</time>
      </trkpt>
      <trkpt lat="44.78718" lon="1.61112">
        <ele>265.2</ele>
        <time>2024-12-25T13:40:14Z</time>
      </trkpt>
      <trkpt lat="44.78718" lon="1.61113">
        <ele>265.2</ele>
        <time>2024-12-25T13:40:15Z</time>
      </trkpt>
      <trkpt lat="44.7872" lon="1.61114">
        <ele>265.2</ele>
        <time>2024-12-25T13:40:16Z</time>
      </trkpt>
      <trkpt lat="44.78721" lon="1.61115">
        <ele>265.2</ele>
        <time>2024-12-25T13:40:17Z</time>
      </trkpt>
      <trkpt lat="44.78722" lon="1.61116">
        <ele>265.2</ele>
        <time>2024-12-25T13:40:18Z</time>
      </trkpt>
      <trkpt lat="44.78723" lon="1.61116">
        <ele>265.2</ele>
        <time>2024-12-25T13:40:19Z</time>
      </trkpt>
      <trkpt lat="44.78723" lon="1.61117">
        <ele>265.2</ele>
        <time>2024-12-25T13:40:20Z</time>
      </trkpt>
      <trkpt lat="44.78725" lon="1.61117">
        <ele>265.1</ele>
        <time>2024-12-25T13:40:21Z</time>
      </trkpt>
      <trkpt lat="44.78726" lon="1.61116">
        <ele>265.1</ele>
        <time>2024-12-25T13:40:22Z</time>
      </trkpt>
      <trkpt lat="44.78727" lon="1.61116">
        <ele>265.1</ele>
        <time>2024-12-25T13:40:23Z</time>
      </trkpt>
      <trkpt lat="44.78728" lon="1.61117">
        <ele>265.1</ele>
        <time>2024-12-25T13:40:24Z</time>
      </trkpt>
      <trkpt lat="44.78729" lon="1.61117">
        <ele>265.1</ele>
        <time>2024-12-25T13:40:25Z</time>
      </trkpt>
      <trkpt lat="44.7873" lon="1.61116">
        <ele>265</ele>
        <time>2024-12-25T13:40:26Z</time>
      </trkpt>
      <trkpt lat="44.78732" lon="1.61115">
        <ele>265</ele>
        <time>2024-12-25T13:40:27Z</time>
      </trkpt>
      <trkpt lat="44.78733" lon="1.61115">
        <ele>265</ele>
        <time>2024-12-25T13:40:28Z</time>
      </trkpt>
      <trkpt lat="44.78734" lon="1.61115">
        <ele>265</ele>
        <time>2024-12-25T13:40:29Z</time>
      </trkpt>
      <trkpt lat="44.78735" lon="1.61114">
        <ele>264.9</ele>
        <time>2024-12-25T13:40:30Z</time>
      </trkpt>
      <trkpt lat="44.78737" lon="1.61113">
        <ele>264.9</ele>
        <time>2024-12-25T13:40:31Z</time>
      </trkpt>
      <trkpt lat="44.78738" lon="1.61112">
        <ele>264.9</ele>
        <time>2024-12-25T13:40:32Z</time>
      </trkpt>
      <trkpt lat="44.78738" lon="1.61112">
        <ele>264.8</ele>
        <time>2024-12-25T13:40:33Z</time>
      </trkpt>
      <trkpt lat="44.78738" lon="1.61111">
        <ele>264.8</ele>
        <time>2024-12-25T13:40:34Z</time>
      </trkpt>
      <trkpt lat="44.78739" lon="1.6111">
        <ele>264.8</ele>
        <time>2024-12-25T13:40:35Z</time>
      </trkpt>
      <trkpt lat="44.78739" lon="1.6111">
        <ele>264.8</ele>
        <time>2024-12-25T13:40:36Z</time>
      </trkpt>
      <trkpt lat="44.7874" lon="1.61108">
        <ele>264.8</ele>
        <time>2024-12-25T13:40:37Z</time>
      </trkpt>
      <trkpt lat="44.7874" lon="1.61107">
        <ele>264.7</ele>
        <time>2024-12-25T13:40:38Z</time>
      </trkpt>
      <trkpt lat="44.78741" lon="1.61106">
        <ele>264.7</ele>
        <time>2024-12-25T13:40:39Z</time>
      </trkpt>
      <trkpt lat="44.78741" lon="1.61105">
        <ele>264.7</ele>
        <time>2024-12-25T13:40:40Z</time>
      </trkpt>
      <trkpt lat="44.78742" lon="1.61103">
        <ele>264.7</ele>
        <time>2024-12-25T13:40:41Z</time>
      </trkpt>
      <trkpt lat="44.78742" lon="1.61102">
        <ele>264.7</ele>
        <time>2024-12-25T13:40:42Z</time>
      </trkpt>
      <trkpt lat="44.78743" lon="1.61101">
        <ele>264.6</ele>
        <time>2024-12-25T13:40:43Z</time>
      </trkpt>
      <trkpt lat="44.78744" lon="1.611">
        <ele>264.6</ele>
        <time>2024-12-25T13:40:44Z</time>
      </trkpt>
      <trkpt lat="44.78744" lon="1.61099">
        <ele>264.6</ele>
        <time>2024-12-25T13:40:45Z</time>
      </trkpt>
      <trkpt lat="44.78745" lon="1.61097">
        <ele>264.5</ele>
        <time>2024-12-25T13:40:46Z</time>
      </trkpt>
      <trkpt lat="44.78745" lon="1.61096">
        <ele>264.5</ele>
        <time>2024-12-25T13:40:47Z</time>
      </trkpt>
      <trkpt lat="44.78746" lon="1.61094">
        <ele>264.5</ele>
        <time>2024-12-25T13:40:48Z</time>
      </trkpt>
      <trkpt lat="44.78747" lon="1.61094">
        <ele>264.5</ele>
        <time>2024-12-25T13:40:49Z</time>
      </trkpt>
      <trkpt lat="44.78748" lon="1.61093">
        <ele>264.4</ele>
        <time>2024-12-25T13:40:50Z</time>
      </trkpt>
      <trkpt lat="44.78748" lon="1.6109">
        <ele>264.4</ele>
        <time>2024-12-25T13:40:51Z</time>
      </trkpt>
      <trkpt lat="44.78748" lon="1.61088">
        <ele>264.4</ele>
        <time>2024-12-25T13:40:52Z</time>
      </trkpt>
      <trkpt lat="44.78747" lon="1.61086">
        <ele>264.3</ele>
        <time>2024-12-25T13:40:53Z</time>
      </trkpt>
      <trkpt lat="44.78747" lon="1.61085">
        <ele>264.3</ele>
        <time>2024-12-25T13:40:54Z</time>
      </trkpt>
      <trkpt lat="44.78748" lon="1.61083">
        <ele>264.3</ele>
        <time>2024-12-25T13:40:55Z</time>
      </trkpt>
      <trkpt lat="44.78749" lon="1.61082">
        <ele>264.3</ele>
        <time>2024-12-25T13:40:56Z</time>
      </trkpt>
      <trkpt lat="44.78749" lon="1.61081">
        <ele>264.2</ele>
        <time>2024-12-25T13:40:57Z</time>
      </trkpt>
      <trkpt lat="44.78749" lon="1.6108">
        <ele>264.2</ele>
        <time>2024-12-25T13:40:58Z</time>
      </trkpt>
      <trkpt lat="44.7875" lon="1.61078">
        <ele>264.2</ele>
        <time>2024-12-25T13:40:59Z</time>
      </trkpt>
      <trkpt lat="44.7875" lon="1.61076">
        <ele>264.2</ele>
        <time>2024-12-25T13:41:00Z</time>
      </trkpt>
      <trkpt lat="44.78752" lon="1.61074">
        <ele>264.1</ele>
        <time>2024-12-25T13:41:01Z</time>
      </trkpt>
      <trkpt lat="44.78753" lon="1.61072">
        <ele>264.1</ele>
        <time>2024-12-25T13:41:02Z</time>
      </trkpt>
      <trkpt lat="44.78753" lon="1.61071">
        <ele>264.1</ele>
        <time>2024-12-25T13:41:03Z</time>
      </trkpt>
      <trkpt lat="44.78753" lon="1.6107">
        <ele>264.1</ele>
        <time>2024-12-25T13:41:04Z</time>
      </trkpt>
      <trkpt lat="44.78753" lon="1.61068">
        <ele>264</ele>
        <time>2024-12-25T13:41:05Z</time>
      </trkpt>
      <trkpt lat="44.78754" lon="1.61066">
        <ele>264</ele>
        <time>2024-12-25T13:41:06Z</time>
      </trkpt>
      <trkpt lat="44.78754" lon="1.61064">
        <ele>264</ele>
        <time>2024-12-25T13:41:07Z</time>
      </trkpt>
      <trkpt lat="44.78755" lon="1.61063">
        <ele>264</ele>
        <time>2024-12-25T13:41:08Z</time>
      </trkpt>
      <trkpt lat="44.78756" lon="1.61061">
        <ele>263.9</ele>
        <time>2024-12-25T13:41:09Z</time>
      </trkpt>
      <trkpt lat="44.78756" lon="1.6106">
        <ele>263.9</ele>
        <time>2024-12-25T13:41:10Z</time>
      </trkpt>
      <trkpt lat="44.78757" lon="1.61058">
        <ele>263.9</ele>
        <time>2024-12-25T13:41:11Z</time>
      </trkpt>
      <trkpt lat="44.78758" lon="1.61058">
        <ele>263.9</ele>
        <time>2024-12-25T13:41:12Z</time>
      </trkpt>
      <trkpt lat="44.78759" lon="1.61056">
        <ele>263.9</ele>
        <time>2024-12-25T13:41:13Z</time>
      </trkpt>
      <trkpt lat="44.78759" lon="1.61055">
        <ele>263.9</ele>
        <time>2024-12-25T13:41:14Z</time>
      </trkpt>
      <trkpt lat="44.7876" lon="1.61054">
        <ele>263.8</ele>
        <time>2024-12-25T13:41:15Z</time>
      </trkpt>
      <trkpt lat="44.78761" lon="1.61054">
        <ele>263.8</ele>
        <time>2024-12-25T13:41:16Z</time>
      </trkpt>
      <trkpt lat="44.78761" lon="1.61054">
        <ele>263.8</ele>
        <time>2024-12-25T13:41:17Z</time>
      </trkpt>
      <trkpt lat="44.78761" lon="1.61054">
        <ele>263.8</ele>
        <time>2024-12-25T13:41:18Z</time>
      </trkpt>
      <trkpt lat="44.78761" lon="1.61055">
        <ele>263.8</ele>
        <time>2024-12-25T13:41:19Z</time>
      </trkpt>
      <trkpt lat="44.7876" lon="1.61056">
        <ele>263.8</ele>
        <time>2024-12-25T13:41:20Z</time>
      </trkpt>
      <trkpt lat="44.7876" lon="1.61056">
        <ele>263.8</ele>
        <time>2024-12-25T13:41:21Z</time>
      </trkpt>
      <trkpt lat="44.7876" lon="1.61057">
        <ele>263.8</ele>
        <time>2024-12-25T13:41:22Z</time>
      </trkpt>
      <trkpt lat="44.7876" lon="1.61057">
        <ele>263.8</ele>
        <time>2024-12-25T13:41:23Z</time>
      </trkpt>
      <trkpt lat="44.7876" lon="1.61057">
        <ele>263.7</ele>
        <time>2024-12-25T13:41:24Z</time>
      </trkpt>
      <trkpt lat="44.7876" lon="1.61057">
        <ele>263.7</ele>
        <time>2024-12-25T13:41:25Z</time>
      </trkpt>
      <trkpt lat="44.7876" lon="1.61057">
        <ele>263.7</ele>
        <time>2024-12-25T13:41:26Z</time>
      </trkpt>
      <trkpt lat="44.7876" lon="1.61057">
        <ele>263.7</ele>
        <time>2024-12-25T13:41:27Z</time>
      </trkpt>
      <trkpt lat="44.7876" lon="1.61057">
        <ele>263.7</ele>
        <time>2024-12-25T13:41:28Z</time>
      </trkpt>
      <trkpt lat="44.7876" lon="1.61057">
        <ele>263.7</ele>
        <time>2024-12-25T13:41:29Z</time>
      </trkpt>
      <trkpt lat="44.7876" lon="1.61057">
        <ele>263.7</ele>
        <time>2024-12-25T13:41:30Z</time>
      </trkpt>
      <trkpt lat="44.7876" lon="1.61056">
        <ele>263.7</ele>
        <time>2024-12-25T13:41:31Z</time>
      </trkpt>
      <trkpt lat="44.78761" lon="1.61056">
        <ele>263.7</ele>
        <time>2024-12-25T13:41:32Z</time>
      </trkpt>
      <trkpt lat="44.78761" lon="1.61056">
        <ele>263.7</ele>
        <time>2024-12-25T13:41:33Z</time>
      </trkpt>
      <trkpt lat="44.78761" lon="1.61056">
        <ele>263.7</ele>
        <time>2024-12-25T13:41:34Z</time>
      </trkpt>
      <trkpt lat="44.78761" lon="1.61056">
        <ele>263.7</ele>
        <time>2024-12-25T13:41:35Z</time>
      </trkpt>
      <trkpt lat="44.78761" lon="1.61055">
        <ele>263.7</ele>
        <time>2024-12-25T13:41:36Z</time>
      </trkpt>
      <trkpt lat="44.78761" lon="1.61055">
        <ele>263.7</ele>
        <time>2024-12-25T13:41:37Z</time>
      </trkpt>
      <trkpt lat="44.78761" lon="1.61055">
        <ele>263.7</ele>
        <time>2024-12-25T13:41:38Z</time>
      </trkpt>
      <trkpt lat="44.78761" lon="1.61055">
        <ele>263.7</ele>
        <time>2024-12-25T13:41:39Z</time>
      </trkpt>
      <trkpt lat="44.78761" lon="1.61055">
        <ele>263.7</ele>
        <time>2024-12-25T13:41:40Z</time>
      </trkpt>
      <trkpt lat="44.78761" lon="1.61055">
        <ele>263.7</ele>
        <time>2024-12-25T13:41:41Z</time>
      </trkpt>
      <trkpt lat="44.78761" lon="1.61055">
        <ele>263.7</ele>
        <time>2024-12-25T13:41:42Z</time>
      </trkpt>
      <trkpt lat="44.78761" lon="1.61055">
        <ele>263.7</ele>
        <time>2024-12-25T13:41:43Z</time>
      </trkpt>
      <trkpt lat="44.78761" lon="1.61054">
        <ele>263.7</ele>
        <time>2024-12-25T13:41:44Z</time>
      </trkpt>
      <trkpt lat="44.78762" lon="1.61053">
        <ele>263.6</ele>
        <time>2024-12-25T13:41:45Z</time>
      </trkpt>
      <trkpt lat="44.78763" lon="1.61051">
        <ele>263.6</ele>
        <time>2024-12-25T13:41:46Z</time>
      </trkpt>
      <trkpt lat="44.78764" lon="1.61049">
        <ele>263.6</ele>
        <time>2024-12-25T13:41:47Z</time>
      </trkpt>
      <trkpt lat="44.78764" lon="1.61048">
        <ele>263.6</ele>
        <time>2024-12-25T13:41:48Z</time>
      </trkpt>
      <trkpt lat="44.78764" lon="1.61046">
        <ele>263.5</ele>
        <time>2024-12-25T13:41:49Z</time>
      </trkpt>
      <trkpt lat="44.78765" lon="1.61044">
        <ele>263.5</ele>
        <time>2024-12-25T13:41:50Z</time>
      </trkpt>
      <trkpt lat="44.78765" lon="1.61041">
        <ele>263.4</ele>
        <time>2024-12-25T13:41:51Z</time>
      </trkpt>
      <trkpt lat="44.78766" lon="1.6104">
        <ele>263.4</ele>
        <time>2024-12-25T13:41:52Z</time>
      </trkpt>
      <trkpt lat="44.78766" lon="1.61039">
        <ele>263.4</ele>
        <time>2024-12-25T13:41:53Z</time>
      </trkpt>
      <trkpt lat="44.78766" lon="1.61037">
        <ele>263.4</ele>
        <time>2024-12-25T13:41:54Z</time>
      </trkpt>
      <trkpt lat="44.78766" lon="1.61036">
        <ele>263.4</ele>
        <time>2024-12-25T13:41:55Z</time>
      </trkpt>
      <trkpt lat="44.78766" lon="1.61035">
        <ele>263.3</ele>
        <time>2024-12-25T13:41:56Z</time>
      </trkpt>
      <trkpt lat="44.78767" lon="1.61032">
        <ele>263.3</ele>
        <time>2024-12-25T13:41:57Z</time>
      </trkpt>
      <trkpt lat="44.78768" lon="1.61031">
        <ele>263.3</ele>
        <time>2024-12-25T13:41:58Z</time>
      </trkpt>
      <trkpt lat="44.78768" lon="1.6103">
        <ele>263.3</ele>
        <time>2024-12-25T13:41:59Z</time>
      </trkpt>
      <trkpt lat="44.78769" lon="1.61029">
        <ele>263.2</ele>
        <time>2024-12-25T13:42:00Z</time>
      </trkpt>
      <trkpt lat="44.78769" lon="1.61027">
        <ele>263.2</ele>
        <time>2024-12-25T13:42:01Z</time>
      </trkpt>
      <trkpt lat="44.78769" lon="1.61025">
        <ele>263.2</ele>
        <time>2024-12-25T13:42:02Z</time>
      </trkpt>
      <trkpt lat="44.78769" lon="1.61024">
        <ele>263.1</ele>
        <time>2024-12-25T13:42:03Z</time>
      </trkpt>
      <trkpt lat="44.78769" lon="1.61022">
        <ele>263.1</ele>
        <time>2024-12-25T13:42:04Z</time>
      </trkpt>
      <trkpt lat="44.7877" lon="1.6102">
        <ele>263.1</ele>
        <time>2024-12-25T13:42:05Z</time>
      </trkpt>
      <trkpt lat="44.78771" lon="1.61018">
        <ele>263</ele>
        <time>2024-12-25T13:42:06Z</time>
      </trkpt>
      <trkpt lat="44.78771" lon="1.61017">
        <ele>263</ele>
        <time>2024-12-25T13:42:07Z</time>
      </trkpt>
      <trkpt lat="44.78772" lon="1.61016">
        <ele>263</ele>
        <time>2024-12-25T13:42:08Z</time>
      </trkpt>
      <trkpt lat="44.78772" lon="1.61015">
        <ele>263</ele>
        <time>2024-12-25T13:42:09Z</time>
      </trkpt>
      <trkpt lat="44.78773" lon="1.61013">
        <ele>262.9</ele>
        <time>2024-12-25T13:42:10Z</time>
      </trkpt>
      <trkpt lat="44.78773" lon="1.61012">
        <ele>262.9</ele>
        <time>2024-12-25T13:42:11Z</time>
      </trkpt>
      <trkpt lat="44.78774" lon="1.6101">
        <ele>262.9</ele>
        <time>2024-12-25T13:42:12Z</time>
      </trkpt>
      <trkpt lat="44.78774" lon="1.61009">
        <ele>262.8</ele>
        <time>2024-12-25T13:42:13Z</time>
      </trkpt>
      <trkpt lat="44.78775" lon="1.61007">
        <ele>262.8</ele>
        <time>2024-12-25T13:42:14Z</time>
      </trkpt>
      <trkpt lat="44.78775" lon="1.61006">
        <ele>262.8</ele>
        <time>2024-12-25T13:42:15Z</time>
      </trkpt>
      <trkpt lat="44.78775" lon="1.61004">
        <ele>262.7</ele>
        <time>2024-12-25T13:42:16Z</time>
      </trkpt>
      <trkpt lat="44.78776" lon="1.61002">
        <ele>262.7</ele>
        <time>2024-12-25T13:42:18Z</time>
      </trkpt>
      <trkpt lat="44.78776" lon="1.61">
        <ele>262.6</ele>
        <time>2024-12-25T13:42:19Z</time>
      </trkpt>
      <trkpt lat="44.78777" lon="1.60998">
        <ele>262.6</ele>
        <time>2024-12-25T13:42:20Z</time>
      </trkpt>
      <trkpt lat="44.78777" lon="1.60995">
        <ele>262.5</ele>
        <time>2024-12-25T13:42:21Z</time>
      </trkpt>
      <trkpt lat="44.78778" lon="1.60994">
        <ele>262.5</ele>
        <time>2024-12-25T13:42:22Z</time>
      </trkpt>
      <trkpt lat="44.78778" lon="1.60993">
        <ele>262.5</ele>
        <time>2024-12-25T13:42:23Z</time>
      </trkpt>
      <trkpt lat="44.78779" lon="1.60992">
        <ele>262.5</ele>
        <time>2024-12-25T13:42:24Z</time>
      </trkpt>
      <trkpt lat="44.7878" lon="1.6099">
        <ele>262.4</ele>
        <time>2024-12-25T13:42:25Z</time>
      </trkpt>
      <trkpt lat="44.78781" lon="1.60989">
        <ele>262.4</ele>
        <time>2024-12-25T13:42:26Z</time>
      </trkpt>
      <trkpt lat="44.78782" lon="1.60987">
        <ele>262.3</ele>
        <time>2024-12-25T13:42:27Z</time>
      </trkpt>
      <trkpt lat="44.78782" lon="1.60985">
        <ele>262.3</ele>
        <time>2024-12-25T13:42:28Z</time>
      </trkpt>
      <trkpt lat="44.78781" lon="1.60983">
        <ele>262.3</ele>
        <time>2024-12-25T13:42:29Z</time>
      </trkpt>
      <trkpt lat="44.78782" lon="1.60981">
        <ele>262.2</ele>
        <time>2024-12-25T13:42:30Z</time>
      </trkpt>
      <trkpt lat="44.78782" lon="1.60979">
        <ele>262.2</ele>
        <time>2024-12-25T13:42:31Z</time>
      </trkpt>
      <trkpt lat="44.78782" lon="1.60977">
        <ele>262.1</ele>
        <time>2024-12-25T13:42:32Z</time>
      </trkpt>
      <trkpt lat="44.78783" lon="1.60975">
        <ele>262.1</ele>
        <time>2024-12-25T13:42:33Z</time>
      </trkpt>
      <trkpt lat="44.78783" lon="1.60972">
        <ele>262</ele>
        <time>2024-12-25T13:42:34Z</time>
      </trkpt>
      <trkpt lat="44.78783" lon="1.60971">
        <ele>262</ele>
        <time>2024-12-25T13:42:35Z</time>
      </trkpt>
      <trkpt lat="44.78783" lon="1.6097">
        <ele>261.9</ele>
        <time>2024-12-25T13:42:36Z</time>
      </trkpt>
      <trkpt lat="44.78784" lon="1.60968">
        <ele>261.9</ele>
        <time>2024-12-25T13:42:37Z</time>
      </trkpt>
      <trkpt lat="44.78784" lon="1.60967">
        <ele>261.9</ele>
        <time>2024-12-25T13:42:38Z</time>
      </trkpt>
      <trkpt lat="44.78784" lon="1.60965">
        <ele>261.8</ele>
        <time>2024-12-25T13:42:39Z</time>
      </trkpt>
      <trkpt lat="44.78784" lon="1.60963">
        <ele>261.8</ele>
        <time>2024-12-25T13:42:40Z</time>
      </trkpt>
      <trkpt lat="44.78784" lon="1.60961">
        <ele>261.7</ele>
        <time>2024-12-25T13:42:41Z</time>
      </trkpt>
      <trkpt lat="44.78785" lon="1.6096">
        <ele>261.7</ele>
        <time>2024-12-25T13:42:42Z</time>
      </trkpt>
      <trkpt lat="44.78785" lon="1.60957">
        <ele>261.6</ele>
        <time>2024-12-25T13:42:43Z</time>
      </trkpt>
      <trkpt lat="44.78785" lon="1.60956">
        <ele>261.6</ele>
        <time>2024-12-25T13:42:44Z</time>
      </trkpt>
      <trkpt lat="44.78786" lon="1.60955">
        <ele>261.6</ele>
        <time>2024-12-25T13:42:45Z</time>
      </trkpt>
      <trkpt lat="44.78786" lon="1.60953">
        <ele>261.5</ele>
        <time>2024-12-25T13:42:46Z</time>
      </trkpt>
      <trkpt lat="44.78787" lon="1.60951">
        <ele>261.5</ele>
        <time>2024-12-25T13:42:47Z</time>
      </trkpt>
      <trkpt lat="44.78787" lon="1.6095">
        <ele>261.4</ele>
        <time>2024-12-25T13:42:48Z</time>
      </trkpt>
      <trkpt lat="44.78787" lon="1.60948">
        <ele>261.4</ele>
        <time>2024-12-25T13:42:49Z</time>
      </trkpt>
      <trkpt lat="44.78787" lon="1.60946">
        <ele>261.3</ele>
        <time>2024-12-25T13:42:50Z</time>
      </trkpt>
      <trkpt lat="44.78787" lon="1.60944">
        <ele>261.3</ele>
        <time>2024-12-25T13:42:51Z</time>
      </trkpt>
      <trkpt lat="44.78787" lon="1.60942">
        <ele>261.2</ele>
        <time>2024-12-25T13:42:52Z</time>
      </trkpt>
      <trkpt lat="44.78787" lon="1.60939">
        <ele>261.1</ele>
        <time>2024-12-25T13:42:53Z</time>
      </trkpt>
      <trkpt lat="44.78788" lon="1.60938">
        <ele>261.1</ele>
        <time>2024-12-25T13:42:54Z</time>
      </trkpt>
      <trkpt lat="44.78788" lon="1.60937">
        <ele>261.1</ele>
        <time>2024-12-25T13:42:55Z</time>
      </trkpt>
      <trkpt lat="44.78788" lon="1.60935">
        <ele>261</ele>
        <time>2024-12-25T13:42:56Z</time>
      </trkpt>
      <trkpt lat="44.78788" lon="1.60932">
        <ele>260.9</ele>
        <time>2024-12-25T13:42:57Z</time>
      </trkpt>
      <trkpt lat="44.78788" lon="1.60931">
        <ele>260.9</ele>
        <time>2024-12-25T13:42:58Z</time>
      </trkpt>
      <trkpt lat="44.78789" lon="1.60929">
        <ele>260.8</ele>
        <time>2024-12-25T13:42:59Z</time>
      </trkpt>
      <trkpt lat="44.7879" lon="1.60927">
        <ele>260.7</ele>
        <time>2024-12-25T13:43:00Z</time>
      </trkpt>
      <trkpt lat="44.78791" lon="1.60925">
        <ele>260.7</ele>
        <time>2024-12-25T13:43:01Z</time>
      </trkpt>
      <trkpt lat="44.78791" lon="1.60923">
        <ele>260.6</ele>
        <time>2024-12-25T13:43:02Z</time>
      </trkpt>
      <trkpt lat="44.78791" lon="1.60921">
        <ele>260.6</ele>
        <time>2024-12-25T13:43:03Z</time>
      </trkpt>
      <trkpt lat="44.78791" lon="1.6092">
        <ele>260.5</ele>
        <time>2024-12-25T13:43:04Z</time>
      </trkpt>
      <trkpt lat="44.78792" lon="1.60918">
        <ele>260.5</ele>
        <time>2024-12-25T13:43:05Z</time>
      </trkpt>
      <trkpt lat="44.78792" lon="1.60917">
        <ele>260.4</ele>
        <time>2024-12-25T13:43:06Z</time>
      </trkpt>
      <trkpt lat="44.78793" lon="1.60914">
        <ele>260.3</ele>
        <time>2024-12-25T13:43:07Z</time>
      </trkpt>
      <trkpt lat="44.78793" lon="1.60913">
        <ele>260.3</ele>
        <time>2024-12-25T13:43:08Z</time>
      </trkpt>
      <trkpt lat="44.78793" lon="1.60912">
        <ele>260.3</ele>
        <time>2024-12-25T13:43:09Z</time>
      </trkpt>
      <trkpt lat="44.78794" lon="1.60909">
        <ele>260.2</ele>
        <time>2024-12-25T13:43:10Z</time>
      </trkpt>
      <trkpt lat="44.78795" lon="1.60907">
        <ele>260.1</ele>
        <time>2024-12-25T13:43:11Z</time>
      </trkpt>
      <trkpt lat="44.78795" lon="1.60906">
        <ele>260.1</ele>
        <time>2024-12-25T13:43:12Z</time>
      </trkpt>
      <trkpt lat="44.78796" lon="1.60903">
        <ele>260</ele>
        <time>2024-12-25T13:43:13Z</time>
      </trkpt>
      <trkpt lat="44.78796" lon="1.60902">
        <ele>260</ele>
        <time>2024-12-25T13:43:14Z</time>
      </trkpt>
      <trkpt lat="44.78797" lon="1.60901">
        <ele>260</ele>
        <time>2024-12-25T13:43:15Z</time>
      </trkpt>
      <trkpt lat="44.78797" lon="1.60898">
        <ele>259.9</ele>
        <time>2024-12-25T13:43:16Z</time>
      </trkpt>
      <trkpt lat="44.78798" lon="1.60897">
        <ele>259.9</ele>
        <time>2024-12-25T13:43:17Z</time>
      </trkpt>
      <trkpt lat="44.78798" lon="1.60896">
        <ele>259.8</ele>
        <time>2024-12-25T13:43:18Z</time>
      </trkpt>
      <trkpt lat="44.78799" lon="1.60894">
        <ele>259.8</ele>
        <time>2024-12-25T13:43:19Z</time>
      </trkpt>
      <trkpt lat="44.78799" lon="1.60892">
        <ele>259.7</ele>
        <time>2024-12-25T13:43:20Z</time>
      </trkpt>
      <trkpt lat="44.78799" lon="1.60891">
        <ele>259.7</ele>
        <time>2024-12-25T13:43:21Z</time>
      </trkpt>
      <trkpt lat="44.788" lon="1.60889">
        <ele>259.6</ele>
        <time>2024-12-25T13:43:22Z</time>
      </trkpt>
      <trkpt lat="44.78801" lon="1.60888">
        <ele>259.6</ele>
        <time>2024-12-25T13:43:23Z</time>
      </trkpt>
      <trkpt lat="44.78802" lon="1.60888">
        <ele>259.6</ele>
        <time>2024-12-25T13:43:24Z</time>
      </trkpt>
      <trkpt lat="44.78804" lon="1.60888">
        <ele>259.5</ele>
        <time>2024-12-25T13:43:25Z</time>
      </trkpt>
      <trkpt lat="44.78806" lon="1.60888">
        <ele>259.5</ele>
        <time>2024-12-25T13:43:26Z</time>
      </trkpt>
      <trkpt lat="44.78809" lon="1.60889">
        <ele>259.4</ele>
        <time>2024-12-25T13:43:27Z</time>
      </trkpt>
      <trkpt lat="44.7881" lon="1.60889">
        <ele>259.4</ele>
        <time>2024-12-25T13:43:28Z</time>
      </trkpt>
      <trkpt lat="44.78811" lon="1.60889">
        <ele>259.3</ele>
        <time>2024-12-25T13:43:29Z</time>
      </trkpt>
      <trkpt lat="44.78812" lon="1.60889">
        <ele>259.3</ele>
        <time>2024-12-25T13:43:30Z</time>
      </trkpt>
      <trkpt lat="44.78812" lon="1.60888">
        <ele>259.3</ele>
        <time>2024-12-25T13:43:31Z</time>
      </trkpt>
      <trkpt lat="44.78813" lon="1.60886">
        <ele>259.2</ele>
        <time>2024-12-25T13:43:32Z</time>
      </trkpt>
      <trkpt lat="44.78812" lon="1.60884">
        <ele>259.2</ele>
        <time>2024-12-25T13:43:33Z</time>
      </trkpt>
      <trkpt lat="44.78811" lon="1.60881">
        <ele>259.1</ele>
        <time>2024-12-25T13:43:34Z</time>
      </trkpt>
      <trkpt lat="44.7881" lon="1.60879">
        <ele>259.1</ele>
        <time>2024-12-25T13:43:35Z</time>
      </trkpt>
      <trkpt lat="44.78809" lon="1.60877">
        <ele>259.1</ele>
        <time>2024-12-25T13:43:36Z</time>
      </trkpt>
      <trkpt lat="44.7881" lon="1.60875">
        <ele>259</ele>
        <time>2024-12-25T13:43:37Z</time>
      </trkpt>
      <trkpt lat="44.7881" lon="1.60872">
        <ele>259</ele>
        <time>2024-12-25T13:43:38Z</time>
      </trkpt>
      <trkpt lat="44.78811" lon="1.60871">
        <ele>258.9</ele>
        <time>2024-12-25T13:43:39Z</time>
      </trkpt>
      <trkpt lat="44.78812" lon="1.60869">
        <ele>258.9</ele>
        <time>2024-12-25T13:43:40Z</time>
      </trkpt>
      <trkpt lat="44.78812" lon="1.60867">
        <ele>258.8</ele>
        <time>2024-12-25T13:43:41Z</time>
      </trkpt>
      <trkpt lat="44.78812" lon="1.60865">
        <ele>258.8</ele>
        <time>2024-12-25T13:43:42Z</time>
      </trkpt>
      <trkpt lat="44.78813" lon="1.60864">
        <ele>258.7</ele>
        <time>2024-12-25T13:43:43Z</time>
      </trkpt>
      <trkpt lat="44.78813" lon="1.60862">
        <ele>258.7</ele>
        <time>2024-12-25T13:43:44Z</time>
      </trkpt>
      <trkpt lat="44.78812" lon="1.60859">
        <ele>258.6</ele>
        <time>2024-12-25T13:43:45Z</time>
      </trkpt>
      <trkpt lat="44.78812" lon="1.60857">
        <ele>258.6</ele>
        <time>2024-12-25T13:43:46Z</time>
      </trkpt>
      <trkpt lat="44.78811" lon="1.60856">
        <ele>258.6</ele>
        <time>2024-12-25T13:43:47Z</time>
      </trkpt>
      <trkpt lat="44.78811" lon="1.60854">
        <ele>258.5</ele>
        <time>2024-12-25T13:43:48Z</time>
      </trkpt>
      <trkpt lat="44.78811" lon="1.60852">
        <ele>258.5</ele>
        <time>2024-12-25T13:43:49Z</time>
      </trkpt>
      <trkpt lat="44.78811" lon="1.60851">
        <ele>258.4</ele>
        <time>2024-12-25T13:43:50Z</time>
      </trkpt>
      <trkpt lat="44.78812" lon="1.60849">
        <ele>258.4</ele>
        <time>2024-12-25T13:43:51Z</time>
      </trkpt>
      <trkpt lat="44.78812" lon="1.60847">
        <ele>258.4</ele>
        <time>2024-12-25T13:43:52Z</time>
      </trkpt>
      <trkpt lat="44.78812" lon="1.60846">
        <ele>258.3</ele>
        <time>2024-12-25T13:43:53Z</time>
      </trkpt>
      <trkpt lat="44.78813" lon="1.60844">
        <ele>258.3</ele>
        <time>2024-12-25T13:43:54Z</time>
      </trkpt>
      <trkpt lat="44.78813" lon="1.60842">
        <ele>258.3</ele>
        <time>2024-12-25T13:43:55Z</time>
      </trkpt>
      <trkpt lat="44.78814" lon="1.60841">
        <ele>258.2</ele>
        <time>2024-12-25T13:43:56Z</time>
      </trkpt>
      <trkpt lat="44.78814" lon="1.60839">
        <ele>258.2</ele>
        <time>2024-12-25T13:43:57Z</time>
      </trkpt>
      <trkpt lat="44.78813" lon="1.60837">
        <ele>258.1</ele>
        <time>2024-12-25T13:43:58Z</time>
      </trkpt>
      <trkpt lat="44.78812" lon="1.60835">
        <ele>258.1</ele>
        <time>2024-12-25T13:43:59Z</time>
      </trkpt>
      <trkpt lat="44.78812" lon="1.60834">
        <ele>258.1</ele>
        <time>2024-12-25T13:44:00Z</time>
      </trkpt>
      <trkpt lat="44.78811" lon="1.60832">
        <ele>258</ele>
        <time>2024-12-25T13:44:01Z</time>
      </trkpt>
      <trkpt lat="44.78811" lon="1.6083">
        <ele>257.9</ele>
        <time>2024-12-25T13:44:02Z</time>
      </trkpt>
      <trkpt lat="44.78812" lon="1.60828">
        <ele>257.7</ele>
        <time>2024-12-25T13:44:03Z</time>
      </trkpt>
      <trkpt lat="44.78812" lon="1.60825">
        <ele>257.5</ele>
        <time>2024-12-25T13:44:04Z</time>
      </trkpt>
      <trkpt lat="44.78812" lon="1.60824">
        <ele>257.4</ele>
        <time>2024-12-25T13:44:05Z</time>
      </trkpt>
      <trkpt lat="44.78813" lon="1.60823">
        <ele>257.3</ele>
        <time>2024-12-25T13:44:06Z</time>
      </trkpt>
      <trkpt lat="44.78813" lon="1.6082">
        <ele>257.2</ele>
        <time>2024-12-25T13:44:07Z</time>
      </trkpt>
      <trkpt lat="44.78813" lon="1.60819">
        <ele>257.1</ele>
        <time>2024-12-25T13:44:08Z</time>
      </trkpt>
      <trkpt lat="44.78812" lon="1.60818">
        <ele>257</ele>
        <time>2024-12-25T13:44:09Z</time>
      </trkpt>
      <trkpt lat="44.78813" lon="1.60817">
        <ele>256.9</ele>
        <time>2024-12-25T13:44:10Z</time>
      </trkpt>
      <trkpt lat="44.78813" lon="1.60816">
        <ele>256.8</ele>
        <time>2024-12-25T13:44:11Z</time>
      </trkpt>
      <trkpt lat="44.78814" lon="1.60814">
        <ele>256.7</ele>
        <time>2024-12-25T13:44:12Z</time>
      </trkpt>
      <trkpt lat="44.78814" lon="1.60812">
        <ele>256.5</ele>
        <time>2024-12-25T13:44:13Z</time>
      </trkpt>
      <trkpt lat="44.78814" lon="1.60811">
        <ele>256.4</ele>
        <time>2024-12-25T13:44:14Z</time>
      </trkpt>
      <trkpt lat="44.78814" lon="1.6081">
        <ele>256.3</ele>
        <time>2024-12-25T13:44:15Z</time>
      </trkpt>
      <trkpt lat="44.78814" lon="1.60809">
        <ele>256.2</ele>
        <time>2024-12-25T13:44:16Z</time>
      </trkpt>
      <trkpt lat="44.78814" lon="1.60808">
        <ele>256.1</ele>
        <time>2024-12-25T13:44:17Z</time>
      </trkpt>
      <trkpt lat="44.78814" lon="1.60806">
        <ele>256</ele>
        <time>2024-12-25T13:44:18Z</time>
      </trkpt>
      <trkpt lat="44.78814" lon="1.60805">
        <ele>255.9</ele>
        <time>2024-12-25T13:44:19Z</time>
      </trkpt>
      <trkpt lat="44.78814" lon="1.60804">
        <ele>255.8</ele>
        <time>2024-12-25T13:44:20Z</time>
      </trkpt>
      <trkpt lat="44.78814" lon="1.60802">
        <ele>255.6</ele>
        <time>2024-12-25T13:44:21Z</time>
      </trkpt>
      <trkpt lat="44.78814" lon="1.60802">
        <ele>255.6</ele>
        <time>2024-12-25T13:44:22Z</time>
      </trkpt>
      <trkpt lat="44.78814" lon="1.60801">
        <ele>255.5</ele>
        <time>2024-12-25T13:44:23Z</time>
      </trkpt>
      <trkpt lat="44.78814" lon="1.60801">
        <ele>255.5</ele>
        <time>2024-12-25T13:44:24Z</time>
      </trkpt>
      <trkpt lat="44.78814" lon="1.60802">
        <ele>255.5</ele>
        <time>2024-12-25T13:44:25Z</time>
      </trkpt>
      <trkpt lat="44.78814" lon="1.60802">
        <ele>255.5</ele>
        <time>2024-12-25T13:44:26Z</time>
      </trkpt>
      <trkpt lat="44.78814" lon="1.60802">
        <ele>255.4</ele>
        <time>2024-12-25T13:44:27Z</time>
      </trkpt>
      <trkpt lat="44.78814" lon="1.60802">
        <ele>255.4</ele>
        <time>2024-12-25T13:44:28Z</time>
      </trkpt>
      <trkpt lat="44.78814" lon="1.60802">
        <ele>255.4</ele>
        <time>2024-12-25T13:44:29Z</time>
      </trkpt>
      <trkpt lat="44.78814" lon="1.60802">
        <ele>255.4</ele>
        <time>2024-12-25T13:44:30Z</time>
      </trkpt>
      <trkpt lat="44.78814" lon="1.60802">
        <ele>255.4</ele>
        <time>2024-12-25T13:44:31Z</time>
      </trkpt>
      <trkpt lat="44.78814" lon="1.60802">
        <ele>255.4</ele>
        <time>2024-12-25T13:44:32Z</time>
      </trkpt>
      <trkpt lat="44.78814" lon="1.60802">
        <ele>255.4</ele>
        <time>2024-12-25T13:44:33Z</time>
      </trkpt>
      <trkpt lat="44.78814" lon="1.60802">
        <ele>255.4</ele>
        <time>2024-12-25T13:44:34Z</time>
      </trkpt>
      <trkpt lat="44.78813" lon="1.60802">
        <ele>255.4</ele>
        <time>2024-12-25T13:44:35Z</time>
      </trkpt>
      <trkpt lat="44.78813" lon="1.60802">
        <ele>255.4</ele>
        <time>2024-12-25T13:44:36Z</time>
      </trkpt>
      <trkpt lat="44.78813" lon="1.60802">
        <ele>255.3</ele>
        <time>2024-12-25T13:44:37Z</time>
      </trkpt>
      <trkpt lat="44.78813" lon="1.60802">
        <ele>255.3</ele>
        <time>2024-12-25T13:44:38Z</time>
      </trkpt>
      <trkpt lat="44.78813" lon="1.60802">
        <ele>255.3</ele>
        <time>2024-12-25T13:44:40Z</time>
      </trkpt>
      <trkpt lat="44.78813" lon="1.60802">
        <ele>255.3</ele>
        <time>2024-12-25T13:44:41Z</time>
      </trkpt>
      <trkpt lat="44.78813" lon="1.60802">
        <ele>255.3</ele>
        <time>2024-12-25T13:44:42Z</time>
      </trkpt>
      <trkpt lat="44.78813" lon="1.60802">
        <ele>255.3</ele>
        <time>2024-12-25T13:44:43Z</time>
      </trkpt>
      <trkpt lat="44.78813" lon="1.60802">
        <ele>255.3</ele>
        <time>2024-12-25T13:44:45Z</time>
      </trkpt>
      <trkpt lat="44.78813" lon="1.60802">
        <ele>255.3</ele>
        <time>2024-12-25T13:44:46Z</time>
      </trkpt>
      <trkpt lat="44.78813" lon="1.60802">
        <ele>255.2</ele>
        <time>2024-12-25T13:44:47Z</time>
      </trkpt>
      <trkpt lat="44.78813" lon="1.60802">
        <ele>255.2</ele>
        <time>2024-12-25T13:44:48Z</time>
      </trkpt>
      <trkpt lat="44.78813" lon="1.60802">
        <ele>255.2</ele>
        <time>2024-12-25T13:44:50Z</time>
      </trkpt>
      <trkpt lat="44.78813" lon="1.60802">
        <ele>255.2</ele>
        <time>2024-12-25T13:44:51Z</time>
      </trkpt>
      <trkpt lat="44.78813" lon="1.60802">
        <ele>255.2</ele>
        <time>2024-12-25T13:44:52Z</time>
      </trkpt>
      <trkpt lat="44.78813" lon="1.60802">
        <ele>255.2</ele>
        <time>2024-12-25T13:44:53Z</time>
      </trkpt>
      <trkpt lat="44.78813" lon="1.60802">
        <ele>255.2</ele>
        <time>2024-12-25T13:44:55Z</time>
      </trkpt>
      <trkpt lat="44.78813" lon="1.60802">
        <ele>255.2</ele>
        <time>2024-12-25T13:44:56Z</time>
      </trkpt>
      <trkpt lat="44.78813" lon="1.60802">
        <ele>255.2</ele>
        <time>2024-12-25T13:44:57Z</time>
      </trkpt>
      <trkpt lat="44.78813" lon="1.60802">
        <ele>255.1</ele>
        <time>2024-12-25T13:44:58Z</time>
      </trkpt>
      <trkpt lat="44.78813" lon="1.60802">
        <ele>255.1</ele>
        <time>2024-12-25T13:44:59Z</time>
      </trkpt>
      <trkpt lat="44.78813" lon="1.60802">
        <ele>255.1</ele>
        <time>2024-12-25T13:45:00Z</time>
      </trkpt>
      <trkpt lat="44.78813" lon="1.60802">
        <ele>255.1</ele>
        <time>2024-12-25T13:45:01Z</time>
      </trkpt>
      <trkpt lat="44.78813" lon="1.60802">
        <ele>255.1</ele>
        <time>2024-12-25T13:45:03Z</time>
      </trkpt>
      <trkpt lat="44.78813" lon="1.60802">
        <ele>255.1</ele>
        <time>2024-12-25T13:45:05Z</time>
      </trkpt>
      <trkpt lat="44.78813" lon="1.60802">
        <ele>255.1</ele>
        <time>2024-12-25T13:45:06Z</time>
      </trkpt>
      <trkpt lat="44.78813" lon="1.60802">
        <ele>255.1</ele>
        <time>2024-12-25T13:45:07Z</time>
      </trkpt>
      <trkpt lat="44.78813" lon="1.60802">
        <ele>255.1</ele>
        <time>2024-12-25T13:45:08Z</time>
      </trkpt>
      <trkpt lat="44.78813" lon="1.60802">
        <ele>255.1</ele>
        <time>2024-12-25T13:45:09Z</time>
      </trkpt>
      <trkpt lat="44.78813" lon="1.60802">
        <ele>255.1</ele>
        <time>2024-12-25T13:45:10Z</time>
      </trkpt>
      <trkpt lat="44.78813" lon="1.60802">
        <ele>255.1</ele>
        <time>2024-12-25T13:45:11Z</time>
      </trkpt>
      <trkpt lat="44.78813" lon="1.60801">
        <ele>255</ele>
        <time>2024-12-25T13:45:13Z</time>
      </trkpt>
      <trkpt lat="44.78813" lon="1.60801">
        <ele>255</ele>
        <time>2024-12-25T13:45:14Z</time>
      </trkpt>
      <trkpt lat="44.78813" lon="1.60801">
        <ele>255</ele>
        <time>2024-12-25T13:45:16Z</time>
      </trkpt>
      <trkpt lat="44.78813" lon="1.60801">
        <ele>255</ele>
        <time>2024-12-25T13:45:17Z</time>
      </trkpt>
      <trkpt lat="44.78813" lon="1.60801">
        <ele>254.9</ele>
        <time>2024-12-25T13:45:18Z</time>
      </trkpt>
      <trkpt lat="44.78813" lon="1.60801">
        <ele>254.9</ele>
        <time>2024-12-25T13:45:20Z</time>
      </trkpt>
      <trkpt lat="44.78813" lon="1.60801">
        <ele>254.9</ele>
        <time>2024-12-25T13:45:21Z</time>
      </trkpt>
      <trkpt lat="44.78813" lon="1.60801">
        <ele>254.9</ele>
        <time>2024-12-25T13:45:22Z</time>
      </trkpt>
      <trkpt lat="44.78814" lon="1.60801">
        <ele>254.9</ele>
        <time>2024-12-25T13:45:24Z</time>
      </trkpt>
      <trkpt lat="44.78814" lon="1.60801">
        <ele>254.9</ele>
        <time>2024-12-25T13:45:25Z</time>
      </trkpt>
      <trkpt lat="44.78814" lon="1.60801">
        <ele>254.8</ele>
        <time>2024-12-25T13:45:26Z</time>
      </trkpt>
      <trkpt lat="44.78814" lon="1.60801">
        <ele>254.8</ele>
        <time>2024-12-25T13:45:27Z</time>
      </trkpt>
      <trkpt lat="44.78814" lon="1.60801">
        <ele>254.8</ele>
        <time>2024-12-25T13:45:28Z</time>
      </trkpt>
      <trkpt lat="44.78814" lon="1.60801">
        <ele>254.8</ele>
        <time>2024-12-25T13:45:30Z</time>
      </trkpt>
      <trkpt lat="44.78814" lon="1.60801">
        <ele>254.7</ele>
        <time>2024-12-25T13:45:32Z</time>
      </trkpt>
      <trkpt lat="44.78814" lon="1.60801">
        <ele>254.7</ele>
        <time>2024-12-25T13:45:34Z</time>
      </trkpt>
      <trkpt lat="44.78814" lon="1.60801">
        <ele>254.7</ele>
        <time>2024-12-25T13:45:36Z</time>
      </trkpt>
      <trkpt lat="44.78814" lon="1.60801">
        <ele>254.7</ele>
        <time>2024-12-25T13:45:38Z</time>
      </trkpt>
      <trkpt lat="44.78814" lon="1.60801">
        <ele>254.7</ele>
        <time>2024-12-25T13:45:39Z</time>
      </trkpt>
      <trkpt lat="44.78814" lon="1.60801">
        <ele>254.6</ele>
        <time>2024-12-25T13:45:40Z</time>
      </trkpt>
      <trkpt lat="44.78814" lon="1.60801">
        <ele>254.6</ele>
        <time>2024-12-25T13:45:41Z</time>
      </trkpt>
      <trkpt lat="44.78814" lon="1.60801">
        <ele>254.6</ele>
        <time>2024-12-25T13:45:42Z</time>
      </trkpt>
      <trkpt lat="44.78813" lon="1.60802">
        <ele>254.6</ele>
        <time>2024-12-25T13:45:43Z</time>
      </trkpt>
      <trkpt lat="44.78813" lon="1.60802">
        <ele>254.5</ele>
        <time>2024-12-25T13:45:44Z</time>
      </trkpt>
      <trkpt lat="44.78813" lon="1.60802">
        <ele>254.5</ele>
        <time>2024-12-25T13:45:46Z</time>
      </trkpt>
      <trkpt lat="44.78813" lon="1.60802">
        <ele>254.5</ele>
        <time>2024-12-25T13:45:47Z</time>
      </trkpt>
      <trkpt lat="44.78813" lon="1.60802">
        <ele>254.5</ele>
        <time>2024-12-25T13:45:48Z</time>
      </trkpt>
      <trkpt lat="44.78813" lon="1.60802">
        <ele>254.5</ele>
        <time>2024-12-25T13:45:49Z</time>
      </trkpt>
      <trkpt lat="44.78813" lon="1.60801">
        <ele>254.5</ele>
        <time>2024-12-25T13:45:50Z</time>
      </trkpt>
      <trkpt lat="44.78813" lon="1.60801">
        <ele>254.4</ele>
        <time>2024-12-25T13:45:51Z</time>
      </trkpt>
      <trkpt lat="44.78813" lon="1.60801">
        <ele>254.4</ele>
        <time>2024-12-25T13:45:52Z</time>
      </trkpt>
      <trkpt lat="44.78813" lon="1.60801">
        <ele>254.4</ele>
        <time>2024-12-25T13:45:53Z</time>
      </trkpt>
      <trkpt lat="44.78813" lon="1.60801">
        <ele>254.4</ele>
        <time>2024-12-25T13:45:54Z</time>
      </trkpt>
      <trkpt lat="44.78813" lon="1.60801">
        <ele>254.4</ele>
        <time>2024-12-25T13:45:55Z</time>
      </trkpt>
      <trkpt lat="44.78813" lon="1.608">
        <ele>254.4</ele>
        <time>2024-12-25T13:45:56Z</time>
      </trkpt>
      <trkpt lat="44.78813" lon="1.608">
        <ele>254.3</ele>
        <time>2024-12-25T13:45:57Z</time>
      </trkpt>
      <trkpt lat="44.78813" lon="1.608">
        <ele>254.3</ele>
        <time>2024-12-25T13:45:59Z</time>
      </trkpt>
      <trkpt lat="44.78813" lon="1.60798">
        <ele>254.1</ele>
        <time>2024-12-25T13:46:00Z</time>
      </trkpt>
      <trkpt lat="44.78813" lon="1.60797">
        <ele>253.9</ele>
        <time>2024-12-25T13:46:01Z</time>
      </trkpt>
      <trkpt lat="44.78813" lon="1.60794">
        <ele>253.7</ele>
        <time>2024-12-25T13:46:02Z</time>
      </trkpt>
      <trkpt lat="44.78813" lon="1.60793">
        <ele>253.6</ele>
        <time>2024-12-25T13:46:03Z</time>
      </trkpt>
      <trkpt lat="44.78813" lon="1.60792">
        <ele>253.5</ele>
        <time>2024-12-25T13:46:04Z</time>
      </trkpt>
      <trkpt lat="44.78813" lon="1.60791">
        <ele>253.3</ele>
        <time>2024-12-25T13:46:05Z</time>
      </trkpt>
      <trkpt lat="44.78813" lon="1.6079">
        <ele>253.3</ele>
        <time>2024-12-25T13:46:07Z</time>
      </trkpt>
      <trkpt lat="44.78813" lon="1.60789">
        <ele>253.2</ele>
        <time>2024-12-25T13:46:08Z</time>
      </trkpt>
      <trkpt lat="44.78813" lon="1.60788">
        <ele>253.1</ele>
        <time>2024-12-25T13:46:09Z</time>
      </trkpt>
      <trkpt lat="44.78812" lon="1.60787">
        <ele>253</ele>
        <time>2024-12-25T13:46:10Z</time>
      </trkpt>
      <trkpt lat="44.78812" lon="1.60787">
        <ele>252.9</ele>
        <time>2024-12-25T13:46:12Z</time>
      </trkpt>
      <trkpt lat="44.78812" lon="1.60786">
        <ele>252.9</ele>
        <time>2024-12-25T13:46:14Z</time>
      </trkpt>
      <trkpt lat="44.78812" lon="1.60785">
        <ele>252.8</ele>
        <time>2024-12-25T13:46:15Z</time>
      </trkpt>
      <trkpt lat="44.78812" lon="1.60784">
        <ele>252.7</ele>
        <time>2024-12-25T13:46:16Z</time>
      </trkpt>
      <trkpt lat="44.78812" lon="1.60784">
        <ele>252.6</ele>
        <time>2024-12-25T13:46:17Z</time>
      </trkpt>
      <trkpt lat="44.78812" lon="1.60783">
        <ele>252.5</ele>
        <time>2024-12-25T13:46:18Z</time>
      </trkpt>
      <trkpt lat="44.78812" lon="1.60781">
        <ele>252.2</ele>
        <time>2024-12-25T13:46:19Z</time>
      </trkpt>
      <trkpt lat="44.78811" lon="1.60778">
        <ele>251.9</ele>
        <time>2024-12-25T13:46:21Z</time>
      </trkpt>
      <trkpt lat="44.78809" lon="1.60773">
        <ele>251.3</ele>
        <time>2024-12-25T13:46:22Z</time>
      </trkpt>
      <trkpt lat="44.78808" lon="1.60771">
        <ele>251.1</ele>
        <time>2024-12-25T13:46:23Z</time>
      </trkpt>
      <trkpt lat="44.78808" lon="1.6077">
        <ele>250.9</ele>
        <time>2024-12-25T13:46:25Z</time>
      </trkpt>
      <trkpt lat="44.78807" lon="1.60768">
        <ele>250.7</ele>
        <time>2024-12-25T13:46:26Z</time>
      </trkpt>
      <trkpt lat="44.78807" lon="1.60766">
        <ele>250.5</ele>
        <time>2024-12-25T13:46:28Z</time>
      </trkpt>
      <trkpt lat="44.78807" lon="1.60765">
        <ele>250.3</ele>
        <time>2024-12-25T13:46:30Z</time>
      </trkpt>
      <trkpt lat="44.78806" lon="1.60764">
        <ele>250.2</ele>
        <time>2024-12-25T13:46:31Z</time>
      </trkpt>
      <trkpt lat="44.78806" lon="1.60762">
        <ele>249.9</ele>
        <time>2024-12-25T13:46:32Z</time>
      </trkpt>
      <trkpt lat="44.78806" lon="1.60761">
        <ele>249.8</ele>
        <time>2024-12-25T13:46:34Z</time>
      </trkpt>
      <trkpt lat="44.78806" lon="1.60759">
        <ele>249.6</ele>
        <time>2024-12-25T13:46:35Z</time>
      </trkpt>
      <trkpt lat="44.78806" lon="1.60758">
        <ele>249.4</ele>
        <time>2024-12-25T13:46:37Z</time>
      </trkpt>
      <trkpt lat="44.78806" lon="1.60755">
        <ele>249.2</ele>
        <time>2024-12-25T13:46:38Z</time>
      </trkpt>
      <trkpt lat="44.78806" lon="1.60755">
        <ele>249.1</ele>
        <time>2024-12-25T13:46:40Z</time>
      </trkpt>
      <trkpt lat="44.78806" lon="1.60754">
        <ele>249</ele>
        <time>2024-12-25T13:46:41Z</time>
      </trkpt>
      <trkpt lat="44.78805" lon="1.60754">
        <ele>249</ele>
        <time>2024-12-25T13:46:42Z</time>
      </trkpt>
      <trkpt lat="44.78805" lon="1.60753">
        <ele>248.9</ele>
        <time>2024-12-25T13:46:43Z</time>
      </trkpt>
      <trkpt lat="44.78805" lon="1.60752">
        <ele>248.8</ele>
        <time>2024-12-25T13:46:44Z</time>
      </trkpt>
      <trkpt lat="44.78805" lon="1.60752">
        <ele>248.8</ele>
        <time>2024-12-25T13:46:46Z</time>
      </trkpt>
      <trkpt lat="44.78805" lon="1.60752">
        <ele>248.7</ele>
        <time>2024-12-25T13:46:47Z</time>
      </trkpt>
      <trkpt lat="44.78804" lon="1.60751">
        <ele>248.6</ele>
        <time>2024-12-25T13:46:48Z</time>
      </trkpt>
      <trkpt lat="44.78804" lon="1.60749">
        <ele>248.4</ele>
        <time>2024-12-25T13:46:49Z</time>
      </trkpt>
      <trkpt lat="44.78803" lon="1.60748">
        <ele>248.2</ele>
        <time>2024-12-25T13:46:50Z</time>
      </trkpt>
      <trkpt lat="44.78802" lon="1.60745">
        <ele>247.9</ele>
        <time>2024-12-25T13:46:51Z</time>
      </trkpt>
      <trkpt lat="44.78801" lon="1.60743">
        <ele>247.6</ele>
        <time>2024-12-25T13:46:52Z</time>
      </trkpt>
      <trkpt lat="44.78801" lon="1.60742">
        <ele>247.4</ele>
        <time>2024-12-25T13:46:53Z</time>
      </trkpt>
      <trkpt lat="44.788" lon="1.60738">
        <ele>247</ele>
        <time>2024-12-25T13:46:55Z</time>
      </trkpt>
      <trkpt lat="44.788" lon="1.60737">
        <ele>246.8</ele>
        <time>2024-12-25T13:46:56Z</time>
      </trkpt>
      <trkpt lat="44.78799" lon="1.60734">
        <ele>246.5</ele>
        <time>2024-12-25T13:46:58Z</time>
      </trkpt>
      <trkpt lat="44.78798" lon="1.60733">
        <ele>246.3</ele>
        <time>2024-12-25T13:47:00Z</time>
      </trkpt>
      <trkpt lat="44.78798" lon="1.60731">
        <ele>246.1</ele>
        <time>2024-12-25T13:47:01Z</time>
      </trkpt>
      <trkpt lat="44.78798" lon="1.6073">
        <ele>246</ele>
        <time>2024-12-25T13:47:02Z</time>
      </trkpt>
      <trkpt lat="44.78797" lon="1.60729">
        <ele>245.8</ele>
        <time>2024-12-25T13:47:03Z</time>
      </trkpt>
      <trkpt lat="44.78797" lon="1.60728">
        <ele>245.7</ele>
        <time>2024-12-25T13:47:04Z</time>
      </trkpt>
      <trkpt lat="44.78796" lon="1.60726">
        <ele>245.5</ele>
        <time>2024-12-25T13:47:05Z</time>
      </trkpt>
      <trkpt lat="44.78796" lon="1.60726">
        <ele>245.4</ele>
        <time>2024-12-25T13:47:07Z</time>
      </trkpt>
      <trkpt lat="44.78796" lon="1.60724">
        <ele>245.2</ele>
        <time>2024-12-25T13:47:08Z</time>
      </trkpt>
      <trkpt lat="44.78796" lon="1.60723">
        <ele>245.1</ele>
        <time>2024-12-25T13:47:10Z</time>
      </trkpt>
      <trkpt lat="44.78795" lon="1.60721">
        <ele>244.9</ele>
        <time>2024-12-25T13:47:11Z</time>
      </trkpt>
      <trkpt lat="44.78795" lon="1.60721">
        <ele>244.8</ele>
        <time>2024-12-25T13:47:13Z</time>
      </trkpt>
      <trkpt lat="44.78795" lon="1.6072">
        <ele>244.7</ele>
        <time>2024-12-25T13:47:14Z</time>
      </trkpt>
      <trkpt lat="44.78795" lon="1.60719">
        <ele>244.6</ele>
        <time>2024-12-25T13:47:15Z</time>
      </trkpt>
      <trkpt lat="44.78794" lon="1.60718">
        <ele>244.5</ele>
        <time>2024-12-25T13:47:16Z</time>
      </trkpt>
      <trkpt lat="44.78794" lon="1.60717">
        <ele>244.3</ele>
        <time>2024-12-25T13:47:17Z</time>
      </trkpt>
      <trkpt lat="44.78794" lon="1.60715">
        <ele>244.2</ele>
        <time>2024-12-25T13:47:18Z</time>
      </trkpt>
      <trkpt lat="44.78794" lon="1.60714">
        <ele>244.1</ele>
        <time>2024-12-25T13:47:19Z</time>
      </trkpt>
      <trkpt lat="44.78793" lon="1.60713">
        <ele>243.9</ele>
        <time>2024-12-25T13:47:20Z</time>
      </trkpt>
      <trkpt lat="44.78792" lon="1.60709">
        <ele>243.4</ele>
        <time>2024-12-25T13:47:21Z</time>
      </trkpt>
      <trkpt lat="44.78791" lon="1.60708">
        <ele>243.3</ele>
        <time>2024-12-25T13:47:22Z</time>
      </trkpt>
      <trkpt lat="44.78791" lon="1.60703">
        <ele>242.8</ele>
        <time>2024-12-25T13:47:23Z</time>
      </trkpt>
      <trkpt lat="44.78791" lon="1.60702">
        <ele>242.7</ele>
        <time>2024-12-25T13:47:24Z</time>
      </trkpt>
      <trkpt lat="44.78791" lon="1.607">
        <ele>242.4</ele>
        <time>2024-12-25T13:47:25Z</time>
      </trkpt>
      <trkpt lat="44.7879" lon="1.60697">
        <ele>242.1</ele>
        <time>2024-12-25T13:47:26Z</time>
      </trkpt>
      <trkpt lat="44.78789" lon="1.60694">
        <ele>241.8</ele>
        <time>2024-12-25T13:47:27Z</time>
      </trkpt>
      <trkpt lat="44.78789" lon="1.60692">
        <ele>241.6</ele>
        <time>2024-12-25T13:47:28Z</time>
      </trkpt>
      <trkpt lat="44.78788" lon="1.60691">
        <ele>241.4</ele>
        <time>2024-12-25T13:47:30Z</time>
      </trkpt>
      <trkpt lat="44.78788" lon="1.6069">
        <ele>241.3</ele>
        <time>2024-12-25T13:47:31Z</time>
      </trkpt>
      <trkpt lat="44.78788" lon="1.60689">
        <ele>241.2</ele>
        <time>2024-12-25T13:47:32Z</time>
      </trkpt>
      <trkpt lat="44.78787" lon="1.60687">
        <ele>241</ele>
        <time>2024-12-25T13:47:33Z</time>
      </trkpt>
      <trkpt lat="44.78787" lon="1.60687">
        <ele>240.9</ele>
        <time>2024-12-25T13:47:35Z</time>
      </trkpt>
      <trkpt lat="44.78787" lon="1.60686">
        <ele>240.8</ele>
        <time>2024-12-25T13:47:36Z</time>
      </trkpt>
      <trkpt lat="44.78786" lon="1.60685">
        <ele>240.7</ele>
        <time>2024-12-25T13:47:37Z</time>
      </trkpt>
      <trkpt lat="44.78786" lon="1.60684">
        <ele>240.6</ele>
        <time>2024-12-25T13:47:38Z</time>
      </trkpt>
      <trkpt lat="44.78786" lon="1.60683">
        <ele>240.5</ele>
        <time>2024-12-25T13:47:39Z</time>
      </trkpt>
      <trkpt lat="44.78786" lon="1.60682">
        <ele>240.3</ele>
        <time>2024-12-25T13:47:40Z</time>
      </trkpt>
      <trkpt lat="44.78786" lon="1.6068">
        <ele>240.1</ele>
        <time>2024-12-25T13:47:41Z</time>
      </trkpt>
      <trkpt lat="44.78787" lon="1.60679">
        <ele>240</ele>
        <time>2024-12-25T13:47:43Z</time>
      </trkpt>
      <trkpt lat="44.78787" lon="1.60678">
        <ele>239.9</ele>
        <time>2024-12-25T13:47:44Z</time>
      </trkpt>
      <trkpt lat="44.78787" lon="1.60676">
        <ele>239.8</ele>
        <time>2024-12-25T13:47:45Z</time>
      </trkpt>
      <trkpt lat="44.78788" lon="1.60674">
        <ele>239.5</ele>
        <time>2024-12-25T13:47:46Z</time>
      </trkpt>
      <trkpt lat="44.78788" lon="1.60673">
        <ele>239.4</ele>
        <time>2024-12-25T13:47:47Z</time>
      </trkpt>
      <trkpt lat="44.78788" lon="1.60672">
        <ele>239.3</ele>
        <time>2024-12-25T13:47:48Z</time>
      </trkpt>
      <trkpt lat="44.78788" lon="1.60671">
        <ele>239.2</ele>
        <time>2024-12-25T13:47:49Z</time>
      </trkpt>
      <trkpt lat="44.78788" lon="1.60667">
        <ele>238.8</ele>
        <time>2024-12-25T13:47:50Z</time>
      </trkpt>
      <trkpt lat="44.78788" lon="1.60664">
        <ele>238.5</ele>
        <time>2024-12-25T13:47:51Z</time>
      </trkpt>
      <trkpt lat="44.78788" lon="1.60658">
        <ele>237.9</ele>
        <time>2024-12-25T13:47:52Z</time>
      </trkpt>
      <trkpt lat="44.78787" lon="1.60657">
        <ele>237.8</ele>
        <time>2024-12-25T13:47:54Z</time>
      </trkpt>
      <trkpt lat="44.78787" lon="1.60655">
        <ele>237.6</ele>
        <time>2024-12-25T13:47:55Z</time>
      </trkpt>
      <trkpt lat="44.78787" lon="1.60654">
        <ele>237.5</ele>
        <time>2024-12-25T13:47:57Z</time>
      </trkpt>
      <trkpt lat="44.78787" lon="1.60651">
        <ele>237.2</ele>
        <time>2024-12-25T13:47:58Z</time>
      </trkpt>
      <trkpt lat="44.78787" lon="1.60648">
        <ele>236.9</ele>
        <time>2024-12-25T13:48:00Z</time>
      </trkpt>
      <trkpt lat="44.78787" lon="1.60647">
        <ele>236.7</ele>
        <time>2024-12-25T13:48:01Z</time>
      </trkpt>
      <trkpt lat="44.78788" lon="1.60645">
        <ele>236.5</ele>
        <time>2024-12-25T13:48:02Z</time>
      </trkpt>
      <trkpt lat="44.78787" lon="1.60644">
        <ele>236.4</ele>
        <time>2024-12-25T13:48:04Z</time>
      </trkpt>
      <trkpt lat="44.78787" lon="1.60641">
        <ele>236.1</ele>
        <time>2024-12-25T13:48:05Z</time>
      </trkpt>
      <trkpt lat="44.78787" lon="1.60638">
        <ele>235.8</ele>
        <time>2024-12-25T13:48:07Z</time>
      </trkpt>
      <trkpt lat="44.78787" lon="1.60637">
        <ele>235.7</ele>
        <time>2024-12-25T13:48:08Z</time>
      </trkpt>
      <trkpt lat="44.78787" lon="1.60636">
        <ele>235.6</ele>
        <time>2024-12-25T13:48:09Z</time>
      </trkpt>
      <trkpt lat="44.78787" lon="1.60634">
        <ele>235.4</ele>
        <time>2024-12-25T13:48:10Z</time>
      </trkpt>
      <trkpt lat="44.78787" lon="1.60632">
        <ele>235.2</ele>
        <time>2024-12-25T13:48:11Z</time>
      </trkpt>
      <trkpt lat="44.78788" lon="1.60628">
        <ele>234.8</ele>
        <time>2024-12-25T13:48:12Z</time>
      </trkpt>
      <trkpt lat="44.78788" lon="1.60627">
        <ele>234.6</ele>
        <time>2024-12-25T13:48:14Z</time>
      </trkpt>
      <trkpt lat="44.78788" lon="1.60625">
        <ele>234.4</ele>
        <time>2024-12-25T13:48:15Z</time>
      </trkpt>
      <trkpt lat="44.78788" lon="1.60622">
        <ele>234.1</ele>
        <time>2024-12-25T13:48:16Z</time>
      </trkpt>
      <trkpt lat="44.78787" lon="1.60621">
        <ele>234</ele>
        <time>2024-12-25T13:48:18Z</time>
      </trkpt>
      <trkpt lat="44.78787" lon="1.60618">
        <ele>233.6</ele>
        <time>2024-12-25T13:48:19Z</time>
      </trkpt>
      <trkpt lat="44.78787" lon="1.60616">
        <ele>233.5</ele>
        <time>2024-12-25T13:48:21Z</time>
      </trkpt>
      <trkpt lat="44.78785" lon="1.60614">
        <ele>233.2</ele>
        <time>2024-12-25T13:48:22Z</time>
      </trkpt>
      <trkpt lat="44.78785" lon="1.60612">
        <ele>233</ele>
        <time>2024-12-25T13:48:23Z</time>
      </trkpt>
      <trkpt lat="44.78784" lon="1.60611">
        <ele>232.9</ele>
        <time>2024-12-25T13:48:25Z</time>
      </trkpt>
      <trkpt lat="44.78784" lon="1.60611">
        <ele>232.7</ele>
        <time>2024-12-25T13:48:26Z</time>
      </trkpt>
      <trkpt lat="44.78783" lon="1.60609">
        <ele>232.5</ele>
        <time>2024-12-25T13:48:27Z</time>
      </trkpt>
      <trkpt lat="44.78783" lon="1.60608">
        <ele>232.4</ele>
        <time>2024-12-25T13:48:28Z</time>
      </trkpt>
      <trkpt lat="44.78783" lon="1.60606">
        <ele>232.2</ele>
        <time>2024-12-25T13:48:29Z</time>
      </trkpt>
      <trkpt lat="44.78782" lon="1.60605">
        <ele>232.1</ele>
        <time>2024-12-25T13:48:30Z</time>
      </trkpt>
      <trkpt lat="44.78782" lon="1.60604">
        <ele>232</ele>
        <time>2024-12-25T13:48:31Z</time>
      </trkpt>
      <trkpt lat="44.78782" lon="1.60602">
        <ele>231.8</ele>
        <time>2024-12-25T13:48:32Z</time>
      </trkpt>
      <trkpt lat="44.78781" lon="1.60601">
        <ele>231.7</ele>
        <time>2024-12-25T13:48:33Z</time>
      </trkpt>
      <trkpt lat="44.78781" lon="1.60599">
        <ele>231.5</ele>
        <time>2024-12-25T13:48:34Z</time>
      </trkpt>
      <trkpt lat="44.78781" lon="1.60598">
        <ele>231.4</ele>
        <time>2024-12-25T13:48:35Z</time>
      </trkpt>
      <trkpt lat="44.7878" lon="1.60596">
        <ele>231.2</ele>
        <time>2024-12-25T13:48:36Z</time>
      </trkpt>
      <trkpt lat="44.7878" lon="1.60595">
        <ele>231.1</ele>
        <time>2024-12-25T13:48:37Z</time>
      </trkpt>
      <trkpt lat="44.7878" lon="1.60592">
        <ele>230.8</ele>
        <time>2024-12-25T13:48:38Z</time>
      </trkpt>
      <trkpt lat="44.78779" lon="1.6059">
        <ele>230.6</ele>
        <time>2024-12-25T13:48:40Z</time>
      </trkpt>
      <trkpt lat="44.78779" lon="1.60589">
        <ele>230.5</ele>
        <time>2024-12-25T13:48:41Z</time>
      </trkpt>
      <trkpt lat="44.78778" lon="1.60587">
        <ele>230.3</ele>
        <time>2024-12-25T13:48:42Z</time>
      </trkpt>
      <trkpt lat="44.78778" lon="1.60586">
        <ele>230.2</ele>
        <time>2024-12-25T13:48:43Z</time>
      </trkpt>
      <trkpt lat="44.78778" lon="1.60584">
        <ele>230</ele>
        <time>2024-12-25T13:48:44Z</time>
      </trkpt>
      <trkpt lat="44.78777" lon="1.60581">
        <ele>229.7</ele>
        <time>2024-12-25T13:48:45Z</time>
      </trkpt>
      <trkpt lat="44.78776" lon="1.60579">
        <ele>229.5</ele>
        <time>2024-12-25T13:48:47Z</time>
      </trkpt>
      <trkpt lat="44.78776" lon="1.60579">
        <ele>229.5</ele>
        <time>2024-12-25T13:48:48Z</time>
      </trkpt>
      <trkpt lat="44.78775" lon="1.60576">
        <ele>229.2</ele>
        <time>2024-12-25T13:48:49Z</time>
      </trkpt>
      <trkpt lat="44.78775" lon="1.60574">
        <ele>229</ele>
        <time>2024-12-25T13:48:51Z</time>
      </trkpt>
      <trkpt lat="44.78775" lon="1.60573">
        <ele>228.9</ele>
        <time>2024-12-25T13:48:52Z</time>
      </trkpt>
      <trkpt lat="44.78774" lon="1.6057">
        <ele>228.6</ele>
        <time>2024-12-25T13:48:53Z</time>
      </trkpt>
      <trkpt lat="44.78774" lon="1.60568">
        <ele>228.5</ele>
        <time>2024-12-25T13:48:55Z</time>
      </trkpt>
      <trkpt lat="44.78774" lon="1.60567">
        <ele>228.4</ele>
        <time>2024-12-25T13:48:56Z</time>
      </trkpt>
      <trkpt lat="44.78773" lon="1.60564">
        <ele>228.2</ele>
        <time>2024-12-25T13:48:57Z</time>
      </trkpt>
      <trkpt lat="44.78773" lon="1.60563">
        <ele>228.1</ele>
        <time>2024-12-25T13:48:59Z</time>
      </trkpt>
      <trkpt lat="44.78773" lon="1.60561">
        <ele>227.9</ele>
        <time>2024-12-25T13:49:00Z</time>
      </trkpt>
      <trkpt lat="44.78773" lon="1.60559">
        <ele>227.7</ele>
        <time>2024-12-25T13:49:02Z</time>
      </trkpt>
      <trkpt lat="44.78773" lon="1.60558">
        <ele>227.7</ele>
        <time>2024-12-25T13:49:03Z</time>
      </trkpt>
      <trkpt lat="44.78773" lon="1.60557">
        <ele>227.6</ele>
        <time>2024-12-25T13:49:04Z</time>
      </trkpt>
      <trkpt lat="44.78773" lon="1.60556">
        <ele>227.5</ele>
        <time>2024-12-25T13:49:05Z</time>
      </trkpt>
      <trkpt lat="44.78773" lon="1.60555">
        <ele>227.4</ele>
        <time>2024-12-25T13:49:06Z</time>
      </trkpt>
      <trkpt lat="44.78772" lon="1.60554">
        <ele>227.3</ele>
        <time>2024-12-25T13:49:07Z</time>
      </trkpt>
      <trkpt lat="44.78772" lon="1.60553">
        <ele>227.2</ele>
        <time>2024-12-25T13:49:08Z</time>
      </trkpt>
      <trkpt lat="44.78772" lon="1.60552">
        <ele>227.1</ele>
        <time>2024-12-25T13:49:09Z</time>
      </trkpt>
      <trkpt lat="44.78772" lon="1.6055">
        <ele>227</ele>
        <time>2024-12-25T13:49:10Z</time>
      </trkpt>
      <trkpt lat="44.78771" lon="1.60549">
        <ele>226.9</ele>
        <time>2024-12-25T13:49:11Z</time>
      </trkpt>
      <trkpt lat="44.78771" lon="1.60547">
        <ele>226.7</ele>
        <time>2024-12-25T13:49:12Z</time>
      </trkpt>
      <trkpt lat="44.78771" lon="1.60546">
        <ele>226.6</ele>
        <time>2024-12-25T13:49:13Z</time>
      </trkpt>
      <trkpt lat="44.7877" lon="1.60544">
        <ele>226.5</ele>
        <time>2024-12-25T13:49:14Z</time>
      </trkpt>
      <trkpt lat="44.7877" lon="1.60542">
        <ele>226.3</ele>
        <time>2024-12-25T13:49:15Z</time>
      </trkpt>
      <trkpt lat="44.7877" lon="1.60541">
        <ele>226.2</ele>
        <time>2024-12-25T13:49:16Z</time>
      </trkpt>
      <trkpt lat="44.78769" lon="1.60536">
        <ele>225.8</ele>
        <time>2024-12-25T13:49:17Z</time>
      </trkpt>
      <trkpt lat="44.78769" lon="1.60533">
        <ele>225.6</ele>
        <time>2024-12-25T13:49:19Z</time>
      </trkpt>
      <trkpt lat="44.78768" lon="1.60531">
        <ele>225.4</ele>
        <time>2024-12-25T13:49:20Z</time>
      </trkpt>
      <trkpt lat="44.78768" lon="1.60529">
        <ele>225.2</ele>
        <time>2024-12-25T13:49:22Z</time>
      </trkpt>
      <trkpt lat="44.78768" lon="1.60527">
        <ele>225.1</ele>
        <time>2024-12-25T13:49:23Z</time>
      </trkpt>
      <trkpt lat="44.78768" lon="1.60525">
        <ele>225</ele>
        <time>2024-12-25T13:49:24Z</time>
      </trkpt>
      <trkpt lat="44.78767" lon="1.60524">
        <ele>224.8</ele>
        <time>2024-12-25T13:49:25Z</time>
      </trkpt>
      <trkpt lat="44.78767" lon="1.60522">
        <ele>224.7</ele>
        <time>2024-12-25T13:49:26Z</time>
      </trkpt>
      <trkpt lat="44.78766" lon="1.6052">
        <ele>224.5</ele>
        <time>2024-12-25T13:49:27Z</time>
      </trkpt>
      <trkpt lat="44.78766" lon="1.6052">
        <ele>224.5</ele>
        <time>2024-12-25T13:49:28Z</time>
      </trkpt>
      <trkpt lat="44.78766" lon="1.60519">
        <ele>224.4</ele>
        <time>2024-12-25T13:49:29Z</time>
      </trkpt>
      <trkpt lat="44.78765" lon="1.60519">
        <ele>224.4</ele>
        <time>2024-12-25T13:49:30Z</time>
      </trkpt>
      <trkpt lat="44.78766" lon="1.60519">
        <ele>224.3</ele>
        <time>2024-12-25T13:49:31Z</time>
      </trkpt>
      <trkpt lat="44.78766" lon="1.60518">
        <ele>224.3</ele>
        <time>2024-12-25T13:49:32Z</time>
      </trkpt>
      <trkpt lat="44.78766" lon="1.60518">
        <ele>224.2</ele>
        <time>2024-12-25T13:49:33Z</time>
      </trkpt>
      <trkpt lat="44.78766" lon="1.60516">
        <ele>224.1</ele>
        <time>2024-12-25T13:49:34Z</time>
      </trkpt>
      <trkpt lat="44.78766" lon="1.60515">
        <ele>224</ele>
        <time>2024-12-25T13:49:35Z</time>
      </trkpt>
      <trkpt lat="44.78766" lon="1.60512">
        <ele>223.7</ele>
        <time>2024-12-25T13:49:36Z</time>
      </trkpt>
      <trkpt lat="44.78766" lon="1.6051">
        <ele>223.6</ele>
        <time>2024-12-25T13:49:37Z</time>
      </trkpt>
      <trkpt lat="44.78766" lon="1.60508">
        <ele>223.5</ele>
        <time>2024-12-25T13:49:39Z</time>
      </trkpt>
      <trkpt lat="44.78765" lon="1.60507">
        <ele>223.3</ele>
        <time>2024-12-25T13:49:40Z</time>
      </trkpt>
      <trkpt lat="44.78765" lon="1.60504">
        <ele>223.1</ele>
        <time>2024-12-25T13:49:41Z</time>
      </trkpt>
      <trkpt lat="44.78765" lon="1.60502">
        <ele>222.9</ele>
        <time>2024-12-25T13:49:43Z</time>
      </trkpt>
      <trkpt lat="44.78766" lon="1.605">
        <ele>222.8</ele>
        <time>2024-12-25T13:49:44Z</time>
      </trkpt>
      <trkpt lat="44.78766" lon="1.60499">
        <ele>222.7</ele>
        <time>2024-12-25T13:49:45Z</time>
      </trkpt>
      <trkpt lat="44.78767" lon="1.60499">
        <ele>222.6</ele>
        <time>2024-12-25T13:49:46Z</time>
      </trkpt>
      <trkpt lat="44.78767" lon="1.60499">
        <ele>222.6</ele>
        <time>2024-12-25T13:49:47Z</time>
      </trkpt>
      <trkpt lat="44.78767" lon="1.60499">
        <ele>222.5</ele>
        <time>2024-12-25T13:49:48Z</time>
      </trkpt>
      <trkpt lat="44.78766" lon="1.605">
        <ele>222.5</ele>
        <time>2024-12-25T13:49:49Z</time>
      </trkpt>
      <trkpt lat="44.78766" lon="1.605">
        <ele>222.5</ele>
        <time>2024-12-25T13:49:50Z</time>
      </trkpt>
      <trkpt lat="44.78767" lon="1.605">
        <ele>222.5</ele>
        <time>2024-12-25T13:49:51Z</time>
      </trkpt>
      <trkpt lat="44.78767" lon="1.605">
        <ele>222.5</ele>
        <time>2024-12-25T13:49:52Z</time>
      </trkpt>
      <trkpt lat="44.78767" lon="1.605">
        <ele>222.5</ele>
        <time>2024-12-25T13:49:53Z</time>
      </trkpt>
      <trkpt lat="44.78767" lon="1.605">
        <ele>222.5</ele>
        <time>2024-12-25T13:49:54Z</time>
      </trkpt>
      <trkpt lat="44.78767" lon="1.605">
        <ele>222.4</ele>
        <time>2024-12-25T13:49:55Z</time>
      </trkpt>
      <trkpt lat="44.78767" lon="1.605">
        <ele>222.4</ele>
        <time>2024-12-25T13:49:56Z</time>
      </trkpt>
      <trkpt lat="44.78767" lon="1.605">
        <ele>222.4</ele>
        <time>2024-12-25T13:49:57Z</time>
      </trkpt>
      <trkpt lat="44.78767" lon="1.605">
        <ele>222.4</ele>
        <time>2024-12-25T13:49:58Z</time>
      </trkpt>
      <trkpt lat="44.78767" lon="1.605">
        <ele>222.4</ele>
        <time>2024-12-25T13:49:59Z</time>
      </trkpt>
      <trkpt lat="44.78767" lon="1.605">
        <ele>222.4</ele>
        <time>2024-12-25T13:50:00Z</time>
      </trkpt>
      <trkpt lat="44.78767" lon="1.605">
        <ele>222.4</ele>
        <time>2024-12-25T13:50:01Z</time>
      </trkpt>
      <trkpt lat="44.78767" lon="1.605">
        <ele>222.4</ele>
        <time>2024-12-25T13:50:02Z</time>
      </trkpt>
      <trkpt lat="44.78767" lon="1.605">
        <ele>222.4</ele>
        <time>2024-12-25T13:50:03Z</time>
      </trkpt>
      <trkpt lat="44.78767" lon="1.605">
        <ele>222.4</ele>
        <time>2024-12-25T13:50:05Z</time>
      </trkpt>
      <trkpt lat="44.78767" lon="1.605">
        <ele>222.4</ele>
        <time>2024-12-25T13:50:06Z</time>
      </trkpt>
      <trkpt lat="44.78767" lon="1.605">
        <ele>222.4</ele>
        <time>2024-12-25T13:50:07Z</time>
      </trkpt>
      <trkpt lat="44.78767" lon="1.605">
        <ele>222.4</ele>
        <time>2024-12-25T13:50:08Z</time>
      </trkpt>
      <trkpt lat="44.78767" lon="1.605">
        <ele>222.4</ele>
        <time>2024-12-25T13:50:09Z</time>
      </trkpt>
      <trkpt lat="44.78767" lon="1.605">
        <ele>222.4</ele>
        <time>2024-12-25T13:50:10Z</time>
      </trkpt>
      <trkpt lat="44.78767" lon="1.605">
        <ele>222.3</ele>
        <time>2024-12-25T13:50:11Z</time>
      </trkpt>
      <trkpt lat="44.78767" lon="1.605">
        <ele>222.3</ele>
        <time>2024-12-25T13:50:12Z</time>
      </trkpt>
      <trkpt lat="44.78767" lon="1.605">
        <ele>222.3</ele>
        <time>2024-12-25T13:50:13Z</time>
      </trkpt>
      <trkpt lat="44.78767" lon="1.605">
        <ele>222.3</ele>
        <time>2024-12-25T13:50:14Z</time>
      </trkpt>
      <trkpt lat="44.78767" lon="1.605">
        <ele>222.3</ele>
        <time>2024-12-25T13:50:15Z</time>
      </trkpt>
      <trkpt lat="44.78767" lon="1.605">
        <ele>222.3</ele>
        <time>2024-12-25T13:50:16Z</time>
      </trkpt>
      <trkpt lat="44.78767" lon="1.605">
        <ele>222.3</ele>
        <time>2024-12-25T13:50:17Z</time>
      </trkpt>
      <trkpt lat="44.78767" lon="1.605">
        <ele>222.3</ele>
        <time>2024-12-25T13:50:18Z</time>
      </trkpt>
      <trkpt lat="44.78767" lon="1.605">
        <ele>222.3</ele>
        <time>2024-12-25T13:50:19Z</time>
      </trkpt>
      <trkpt lat="44.78767" lon="1.605">
        <ele>222.3</ele>
        <time>2024-12-25T13:50:20Z</time>
      </trkpt>
      <trkpt lat="44.78767" lon="1.605">
        <ele>222.3</ele>
        <time>2024-12-25T13:50:21Z</time>
      </trkpt>
      <trkpt lat="44.78767" lon="1.605">
        <ele>222.3</ele>
        <time>2024-12-25T13:50:22Z</time>
      </trkpt>
      <trkpt lat="44.78767" lon="1.605">
        <ele>222.3</ele>
        <time>2024-12-25T13:50:23Z</time>
      </trkpt>
      <trkpt lat="44.78767" lon="1.605">
        <ele>222.3</ele>
        <time>2024-12-25T13:50:24Z</time>
      </trkpt>
      <trkpt lat="44.78767" lon="1.605">
        <ele>222.3</ele>
        <time>2024-12-25T13:50:25Z</time>
      </trkpt>
      <trkpt lat="44.78767" lon="1.605">
        <ele>222.3</ele>
        <time>2024-12-25T13:50:26Z</time>
      </trkpt>
      <trkpt lat="44.78767" lon="1.605">
        <ele>222.3</ele>
        <time>2024-12-25T13:50:27Z</time>
      </trkpt>
      <trkpt lat="44.78767" lon="1.605">
        <ele>222.2</ele>
        <time>2024-12-25T13:50:28Z</time>
      </trkpt>
      <trkpt lat="44.78767" lon="1.60499">
        <ele>222.2</ele>
        <time>2024-12-25T13:50:29Z</time>
      </trkpt>
      <trkpt lat="44.78767" lon="1.60499">
        <ele>222.1</ele>
        <time>2024-12-25T13:50:30Z</time>
      </trkpt>
      <trkpt lat="44.78767" lon="1.60499">
        <ele>222.1</ele>
        <time>2024-12-25T13:50:31Z</time>
      </trkpt>
      <trkpt lat="44.78767" lon="1.60499">
        <ele>222.1</ele>
        <time>2024-12-25T13:50:32Z</time>
      </trkpt>
      <trkpt lat="44.78767" lon="1.60499">
        <ele>222.1</ele>
        <time>2024-12-25T13:50:33Z</time>
      </trkpt>
      <trkpt lat="44.78767" lon="1.60499">
        <ele>222.1</ele>
        <time>2024-12-25T13:50:34Z</time>
      </trkpt>
      <trkpt lat="44.78767" lon="1.60499">
        <ele>222.1</ele>
        <time>2024-12-25T13:50:35Z</time>
      </trkpt>
      <trkpt lat="44.78767" lon="1.60498">
        <ele>222</ele>
        <time>2024-12-25T13:50:36Z</time>
      </trkpt>
      <trkpt lat="44.78766" lon="1.60497">
        <ele>221.9</ele>
        <time>2024-12-25T13:50:37Z</time>
      </trkpt>
      <trkpt lat="44.78766" lon="1.60495">
        <ele>221.7</ele>
        <time>2024-12-25T13:50:39Z</time>
      </trkpt>
      <trkpt lat="44.78766" lon="1.60494">
        <ele>221.6</ele>
        <time>2024-12-25T13:50:41Z</time>
      </trkpt>
      <trkpt lat="44.78766" lon="1.60493">
        <ele>221.5</ele>
        <time>2024-12-25T13:50:42Z</time>
      </trkpt>
      <trkpt lat="44.78766" lon="1.60491">
        <ele>221.3</ele>
        <time>2024-12-25T13:50:43Z</time>
      </trkpt>
      <trkpt lat="44.78766" lon="1.6049">
        <ele>221.3</ele>
        <time>2024-12-25T13:50:44Z</time>
      </trkpt>
      <trkpt lat="44.78766" lon="1.60489">
        <ele>221.2</ele>
        <time>2024-12-25T13:50:45Z</time>
      </trkpt>
      <trkpt lat="44.78765" lon="1.60486">
        <ele>220.9</ele>
        <time>2024-12-25T13:50:46Z</time>
      </trkpt>
      <trkpt lat="44.78765" lon="1.60484">
        <ele>220.7</ele>
        <time>2024-12-25T13:50:48Z</time>
      </trkpt>
      <trkpt lat="44.78765" lon="1.60482">
        <ele>220.6</ele>
        <time>2024-12-25T13:50:49Z</time>
      </trkpt>
      <trkpt lat="44.78765" lon="1.6048">
        <ele>220.4</ele>
        <time>2024-12-25T13:50:50Z</time>
      </trkpt>
      <trkpt lat="44.78765" lon="1.60476">
        <ele>220</ele>
        <time>2024-12-25T13:50:51Z</time>
      </trkpt>
      <trkpt lat="44.78764" lon="1.60473">
        <ele>219.7</ele>
        <time>2024-12-25T13:50:53Z</time>
      </trkpt>
      <trkpt lat="44.78764" lon="1.6047">
        <ele>219.4</ele>
        <time>2024-12-25T13:50:54Z</time>
      </trkpt>
      <trkpt lat="44.78763" lon="1.60469">
        <ele>219.3</ele>
        <time>2024-12-25T13:50:56Z</time>
      </trkpt>
      <trkpt lat="44.78763" lon="1.60468">
        <ele>219.2</ele>
        <time>2024-12-25T13:50:57Z</time>
      </trkpt>
      <trkpt lat="44.78762" lon="1.60465">
        <ele>219</ele>
        <time>2024-12-25T13:50:58Z</time>
      </trkpt>
      <trkpt lat="44.78762" lon="1.60464">
        <ele>218.8</ele>
        <time>2024-12-25T13:51:00Z</time>
      </trkpt>
      <trkpt lat="44.78761" lon="1.60462">
        <ele>218.6</ele>
        <time>2024-12-25T13:51:01Z</time>
      </trkpt>
      <trkpt lat="44.78761" lon="1.60461">
        <ele>218.5</ele>
        <time>2024-12-25T13:51:02Z</time>
      </trkpt>
      <trkpt lat="44.78761" lon="1.6046">
        <ele>218.4</ele>
        <time>2024-12-25T13:51:04Z</time>
      </trkpt>
      <trkpt lat="44.7876" lon="1.60458">
        <ele>218.2</ele>
        <time>2024-12-25T13:51:05Z</time>
      </trkpt>
      <trkpt lat="44.7876" lon="1.60456">
        <ele>218.1</ele>
        <time>2024-12-25T13:51:07Z</time>
      </trkpt>
      <trkpt lat="44.78759" lon="1.60456">
        <ele>218</ele>
        <time>2024-12-25T13:51:08Z</time>
      </trkpt>
      <trkpt lat="44.78758" lon="1.60454">
        <ele>217.8</ele>
        <time>2024-12-25T13:51:09Z</time>
      </trkpt>
      <trkpt lat="44.78758" lon="1.60453">
        <ele>217.7</ele>
        <time>2024-12-25T13:51:11Z</time>
      </trkpt>
      <trkpt lat="44.78757" lon="1.60451">
        <ele>217.5</ele>
        <time>2024-12-25T13:51:12Z</time>
      </trkpt>
      <trkpt lat="44.78757" lon="1.6045">
        <ele>217.4</ele>
        <time>2024-12-25T13:51:13Z</time>
      </trkpt>
      <trkpt lat="44.78757" lon="1.60449">
        <ele>217.3</ele>
        <time>2024-12-25T13:51:14Z</time>
      </trkpt>
      <trkpt lat="44.78756" lon="1.60447">
        <ele>217.1</ele>
        <time>2024-12-25T13:51:15Z</time>
      </trkpt>
      <trkpt lat="44.78756" lon="1.60446">
        <ele>217</ele>
        <time>2024-12-25T13:51:16Z</time>
      </trkpt>
      <trkpt lat="44.78756" lon="1.60444">
        <ele>216.9</ele>
        <time>2024-12-25T13:51:17Z</time>
      </trkpt>
      <trkpt lat="44.78756" lon="1.60442">
        <ele>216.7</ele>
        <time>2024-12-25T13:51:18Z</time>
      </trkpt>
      <trkpt lat="44.78756" lon="1.60439">
        <ele>216.4</ele>
        <time>2024-12-25T13:51:19Z</time>
      </trkpt>
      <trkpt lat="44.78756" lon="1.60438">
        <ele>216.3</ele>
        <time>2024-12-25T13:51:20Z</time>
      </trkpt>
      <trkpt lat="44.78756" lon="1.60436">
        <ele>216.2</ele>
        <time>2024-12-25T13:51:21Z</time>
      </trkpt>
      <trkpt lat="44.78755" lon="1.60434">
        <ele>216</ele>
        <time>2024-12-25T13:51:22Z</time>
      </trkpt>
      <trkpt lat="44.78755" lon="1.6043">
        <ele>215.6</ele>
        <time>2024-12-25T13:51:23Z</time>
      </trkpt>
      <trkpt lat="44.78754" lon="1.60428">
        <ele>215.4</ele>
        <time>2024-12-25T13:51:25Z</time>
      </trkpt>
      <trkpt lat="44.78754" lon="1.60425">
        <ele>215.2</ele>
        <time>2024-12-25T13:51:26Z</time>
      </trkpt>
      <trkpt lat="44.78754" lon="1.60423">
        <ele>215</ele>
        <time>2024-12-25T13:51:28Z</time>
      </trkpt>
      <trkpt lat="44.78754" lon="1.60422">
        <ele>214.9</ele>
        <time>2024-12-25T13:51:29Z</time>
      </trkpt>
      <trkpt lat="44.78754" lon="1.6042">
        <ele>214.8</ele>
        <time>2024-12-25T13:51:30Z</time>
      </trkpt>
      <trkpt lat="44.78754" lon="1.60419">
        <ele>214.6</ele>
        <time>2024-12-25T13:51:31Z</time>
      </trkpt>
      <trkpt lat="44.78754" lon="1.60415">
        <ele>214.3</ele>
        <time>2024-12-25T13:51:32Z</time>
      </trkpt>
      <trkpt lat="44.78754" lon="1.60413">
        <ele>214.2</ele>
        <time>2024-12-25T13:51:33Z</time>
      </trkpt>
      <trkpt lat="44.78754" lon="1.60412">
        <ele>214</ele>
        <time>2024-12-25T13:51:35Z</time>
      </trkpt>
      <trkpt lat="44.78755" lon="1.60409">
        <ele>213.8</ele>
        <time>2024-12-25T13:51:36Z</time>
      </trkpt>
      <trkpt lat="44.78755" lon="1.60407">
        <ele>213.6</ele>
        <time>2024-12-25T13:51:38Z</time>
      </trkpt>
      <trkpt lat="44.78756" lon="1.60406">
        <ele>213.5</ele>
        <time>2024-12-25T13:51:39Z</time>
      </trkpt>
      <trkpt lat="44.78757" lon="1.60405">
        <ele>213.4</ele>
        <time>2024-12-25T13:51:40Z</time>
      </trkpt>
      <trkpt lat="44.78757" lon="1.60404">
        <ele>213.2</ele>
        <time>2024-12-25T13:51:41Z</time>
      </trkpt>
      <trkpt lat="44.78758" lon="1.60403">
        <ele>213.1</ele>
        <time>2024-12-25T13:51:42Z</time>
      </trkpt>
      <trkpt lat="44.78759" lon="1.604">
        <ele>212.8</ele>
        <time>2024-12-25T13:51:43Z</time>
      </trkpt>
      <trkpt lat="44.7876" lon="1.60399">
        <ele>212.7</ele>
        <time>2024-12-25T13:51:45Z</time>
      </trkpt>
      <trkpt lat="44.78761" lon="1.60397">
        <ele>212.4</ele>
        <time>2024-12-25T13:51:46Z</time>
      </trkpt>
      <trkpt lat="44.78762" lon="1.60395">
        <ele>212.3</ele>
        <time>2024-12-25T13:51:48Z</time>
      </trkpt>
      <trkpt lat="44.78764" lon="1.60393">
        <ele>212</ele>
        <time>2024-12-25T13:51:49Z</time>
      </trkpt>
      <trkpt lat="44.78764" lon="1.60392">
        <ele>211.8</ele>
        <time>2024-12-25T13:51:51Z</time>
      </trkpt>
      <trkpt lat="44.78765" lon="1.60391">
        <ele>211.7</ele>
        <time>2024-12-25T13:51:52Z</time>
      </trkpt>
      <trkpt lat="44.78765" lon="1.60388">
        <ele>211.5</ele>
        <time>2024-12-25T13:51:53Z</time>
      </trkpt>
      <trkpt lat="44.78766" lon="1.60386">
        <ele>211.3</ele>
        <time>2024-12-25T13:51:55Z</time>
      </trkpt>
      <trkpt lat="44.78766" lon="1.60385">
        <ele>211.2</ele>
        <time>2024-12-25T13:51:56Z</time>
      </trkpt>
      <trkpt lat="44.78767" lon="1.60383">
        <ele>211</ele>
        <time>2024-12-25T13:51:57Z</time>
      </trkpt>
      <trkpt lat="44.78767" lon="1.60382">
        <ele>210.9</ele>
        <time>2024-12-25T13:51:58Z</time>
      </trkpt>
      <trkpt lat="44.78767" lon="1.60381">
        <ele>210.8</ele>
        <time>2024-12-25T13:51:59Z</time>
      </trkpt>
      <trkpt lat="44.78767" lon="1.60379">
        <ele>210.6</ele>
        <time>2024-12-25T13:52:00Z</time>
      </trkpt>
      <trkpt lat="44.78767" lon="1.60378">
        <ele>210.5</ele>
        <time>2024-12-25T13:52:01Z</time>
      </trkpt>
      <trkpt lat="44.78767" lon="1.60376">
        <ele>210.4</ele>
        <time>2024-12-25T13:52:03Z</time>
      </trkpt>
      <trkpt lat="44.78768" lon="1.60375">
        <ele>210.3</ele>
        <time>2024-12-25T13:52:04Z</time>
      </trkpt>
      <trkpt lat="44.78767" lon="1.60372">
        <ele>210</ele>
        <time>2024-12-25T13:52:05Z</time>
      </trkpt>
      <trkpt lat="44.78767" lon="1.60371">
        <ele>209.9</ele>
        <time>2024-12-25T13:52:07Z</time>
      </trkpt>
      <trkpt lat="44.78767" lon="1.6037">
        <ele>209.8</ele>
        <time>2024-12-25T13:52:08Z</time>
      </trkpt>
      <trkpt lat="44.78767" lon="1.60367">
        <ele>209.5</ele>
        <time>2024-12-25T13:52:09Z</time>
      </trkpt>
      <trkpt lat="44.78767" lon="1.60365">
        <ele>209.4</ele>
        <time>2024-12-25T13:52:10Z</time>
      </trkpt>
      <trkpt lat="44.78767" lon="1.60364">
        <ele>209.3</ele>
        <time>2024-12-25T13:52:11Z</time>
      </trkpt>
      <trkpt lat="44.78767" lon="1.60363">
        <ele>209.2</ele>
        <time>2024-12-25T13:52:12Z</time>
      </trkpt>
      <trkpt lat="44.78767" lon="1.6036">
        <ele>209</ele>
        <time>2024-12-25T13:52:13Z</time>
      </trkpt>
      <trkpt lat="44.78767" lon="1.60358">
        <ele>208.8</ele>
        <time>2024-12-25T13:52:14Z</time>
      </trkpt>
      <trkpt lat="44.78767" lon="1.60356">
        <ele>208.6</ele>
        <time>2024-12-25T13:52:16Z</time>
      </trkpt>
      <trkpt lat="44.78768" lon="1.60355">
        <ele>208.5</ele>
        <time>2024-12-25T13:52:17Z</time>
      </trkpt>
      <trkpt lat="44.78768" lon="1.60352">
        <ele>208.3</ele>
        <time>2024-12-25T13:52:18Z</time>
      </trkpt>
      <trkpt lat="44.78768" lon="1.60351">
        <ele>208.2</ele>
        <time>2024-12-25T13:52:20Z</time>
      </trkpt>
      <trkpt lat="44.78768" lon="1.6035">
        <ele>208.1</ele>
        <time>2024-12-25T13:52:21Z</time>
      </trkpt>
      <trkpt lat="44.78769" lon="1.60347">
        <ele>207.8</ele>
        <time>2024-12-25T13:52:22Z</time>
      </trkpt>
      <trkpt lat="44.78769" lon="1.60345">
        <ele>207.7</ele>
        <time>2024-12-25T13:52:24Z</time>
      </trkpt>
      <trkpt lat="44.78769" lon="1.60344">
        <ele>207.6</ele>
        <time>2024-12-25T13:52:25Z</time>
      </trkpt>
      <trkpt lat="44.78769" lon="1.60343">
        <ele>207.5</ele>
        <time>2024-12-25T13:52:26Z</time>
      </trkpt>
      <trkpt lat="44.78769" lon="1.60342">
        <ele>207.4</ele>
        <time>2024-12-25T13:52:27Z</time>
      </trkpt>
      <trkpt lat="44.78769" lon="1.60342">
        <ele>207.3</ele>
        <time>2024-12-25T13:52:28Z</time>
      </trkpt>
      <trkpt lat="44.78769" lon="1.6034">
        <ele>207.2</ele>
        <time>2024-12-25T13:52:29Z</time>
      </trkpt>
      <trkpt lat="44.78769" lon="1.60337">
        <ele>207</ele>
        <time>2024-12-25T13:52:30Z</time>
      </trkpt>
      <trkpt lat="44.7877" lon="1.60336">
        <ele>206.8</ele>
        <time>2024-12-25T13:52:32Z</time>
      </trkpt>
      <trkpt lat="44.7877" lon="1.60333">
        <ele>206.6</ele>
        <time>2024-12-25T13:52:33Z</time>
      </trkpt>
      <trkpt lat="44.7877" lon="1.6033">
        <ele>206.3</ele>
        <time>2024-12-25T13:52:34Z</time>
      </trkpt>
      <trkpt lat="44.7877" lon="1.60326">
        <ele>206</ele>
        <time>2024-12-25T13:52:36Z</time>
      </trkpt>
      <trkpt lat="44.7877" lon="1.60324">
        <ele>205.9</ele>
        <time>2024-12-25T13:52:37Z</time>
      </trkpt>
      <trkpt lat="44.7877" lon="1.60323">
        <ele>205.8</ele>
        <time>2024-12-25T13:52:38Z</time>
      </trkpt>
      <trkpt lat="44.78771" lon="1.6032">
        <ele>205.5</ele>
        <time>2024-12-25T13:52:40Z</time>
      </trkpt>
      <trkpt lat="44.78771" lon="1.60318">
        <ele>205.3</ele>
        <time>2024-12-25T13:52:41Z</time>
      </trkpt>
      <trkpt lat="44.78772" lon="1.60316">
        <ele>205.1</ele>
        <time>2024-12-25T13:52:42Z</time>
      </trkpt>
      <trkpt lat="44.78771" lon="1.60315">
        <ele>205.1</ele>
        <time>2024-12-25T13:52:43Z</time>
      </trkpt>
      <trkpt lat="44.78771" lon="1.60314">
        <ele>204.9</ele>
        <time>2024-12-25T13:52:45Z</time>
      </trkpt>
      <trkpt lat="44.78772" lon="1.60312">
        <ele>204.8</ele>
        <time>2024-12-25T13:52:46Z</time>
      </trkpt>
      <trkpt lat="44.78771" lon="1.60311">
        <ele>204.7</ele>
        <time>2024-12-25T13:52:47Z</time>
      </trkpt>
      <trkpt lat="44.78771" lon="1.60309">
        <ele>204.5</ele>
        <time>2024-12-25T13:52:48Z</time>
      </trkpt>
      <trkpt lat="44.78771" lon="1.60308">
        <ele>204.4</ele>
        <time>2024-12-25T13:52:49Z</time>
      </trkpt>
      <trkpt lat="44.78771" lon="1.60308">
        <ele>204.4</ele>
        <time>2024-12-25T13:52:50Z</time>
      </trkpt>
      <trkpt lat="44.78771" lon="1.60307">
        <ele>204.3</ele>
        <time>2024-12-25T13:52:51Z</time>
      </trkpt>
      <trkpt lat="44.78771" lon="1.60306">
        <ele>204.3</ele>
        <time>2024-12-25T13:52:52Z</time>
      </trkpt>
      <trkpt lat="44.78771" lon="1.60306">
        <ele>204.2</ele>
        <time>2024-12-25T13:52:53Z</time>
      </trkpt>
      <trkpt lat="44.78771" lon="1.60305">
        <ele>204.2</ele>
        <time>2024-12-25T13:52:55Z</time>
      </trkpt>
      <trkpt lat="44.78771" lon="1.60305">
        <ele>204.1</ele>
        <time>2024-12-25T13:52:56Z</time>
      </trkpt>
      <trkpt lat="44.78771" lon="1.60304">
        <ele>204.1</ele>
        <time>2024-12-25T13:52:57Z</time>
      </trkpt>
      <trkpt lat="44.78771" lon="1.60304">
        <ele>204</ele>
        <time>2024-12-25T13:52:59Z</time>
      </trkpt>
      <trkpt lat="44.78771" lon="1.60303">
        <ele>204</ele>
        <time>2024-12-25T13:53:00Z</time>
      </trkpt>
      <trkpt lat="44.78772" lon="1.60303">
        <ele>204</ele>
        <time>2024-12-25T13:53:01Z</time>
      </trkpt>
      <trkpt lat="44.78772" lon="1.60299">
        <ele>203.6</ele>
        <time>2024-12-25T13:53:02Z</time>
      </trkpt>
      <trkpt lat="44.78771" lon="1.60295">
        <ele>203.3</ele>
        <time>2024-12-25T13:53:04Z</time>
      </trkpt>
      <trkpt lat="44.78771" lon="1.60293">
        <ele>203.1</ele>
        <time>2024-12-25T13:53:05Z</time>
      </trkpt>
      <trkpt lat="44.78771" lon="1.60292">
        <ele>202.9</ele>
        <time>2024-12-25T13:53:06Z</time>
      </trkpt>
      <trkpt lat="44.78771" lon="1.6029">
        <ele>202.8</ele>
        <time>2024-12-25T13:53:07Z</time>
      </trkpt>
      <trkpt lat="44.7877" lon="1.60288">
        <ele>202.6</ele>
        <time>2024-12-25T13:53:09Z</time>
      </trkpt>
      <trkpt lat="44.7877" lon="1.60285">
        <ele>202.3</ele>
        <time>2024-12-25T13:53:10Z</time>
      </trkpt>
      <trkpt lat="44.78769" lon="1.60283">
        <ele>202.1</ele>
        <time>2024-12-25T13:53:11Z</time>
      </trkpt>
      <trkpt lat="44.78769" lon="1.60282">
        <ele>202</ele>
        <time>2024-12-25T13:53:12Z</time>
      </trkpt>
      <trkpt lat="44.78768" lon="1.6028">
        <ele>201.8</ele>
        <time>2024-12-25T13:53:14Z</time>
      </trkpt>
      <trkpt lat="44.78768" lon="1.60278">
        <ele>201.7</ele>
        <time>2024-12-25T13:53:15Z</time>
      </trkpt>
      <trkpt lat="44.78767" lon="1.60277">
        <ele>201.6</ele>
        <time>2024-12-25T13:53:16Z</time>
      </trkpt>
      <trkpt lat="44.78767" lon="1.60276">
        <ele>201.4</ele>
        <time>2024-12-25T13:53:17Z</time>
      </trkpt>
      <trkpt lat="44.78767" lon="1.60273">
        <ele>201.2</ele>
        <time>2024-12-25T13:53:18Z</time>
      </trkpt>
      <trkpt lat="44.78767" lon="1.60271">
        <ele>201</ele>
        <time>2024-12-25T13:53:20Z</time>
      </trkpt>
      <trkpt lat="44.78767" lon="1.60269">
        <ele>200.9</ele>
        <time>2024-12-25T13:53:21Z</time>
      </trkpt>
      <trkpt lat="44.78767" lon="1.60268">
        <ele>200.7</ele>
        <time>2024-12-25T13:53:22Z</time>
      </trkpt>
      <trkpt lat="44.78767" lon="1.60264">
        <ele>200.4</ele>
        <time>2024-12-25T13:53:23Z</time>
      </trkpt>
      <trkpt lat="44.78767" lon="1.60262">
        <ele>200.2</ele>
        <time>2024-12-25T13:53:25Z</time>
      </trkpt>
      <trkpt lat="44.78767" lon="1.60261">
        <ele>200.1</ele>
        <time>2024-12-25T13:53:26Z</time>
      </trkpt>
      <trkpt lat="44.78766" lon="1.60258">
        <ele>199.8</ele>
        <time>2024-12-25T13:53:27Z</time>
      </trkpt>
      <trkpt lat="44.78766" lon="1.60254">
        <ele>199.5</ele>
        <time>2024-12-25T13:53:29Z</time>
      </trkpt>
      <trkpt lat="44.78764" lon="1.6025">
        <ele>199.2</ele>
        <time>2024-12-25T13:53:31Z</time>
      </trkpt>
      <trkpt lat="44.78764" lon="1.60248">
        <ele>199</ele>
        <time>2024-12-25T13:53:32Z</time>
      </trkpt>
      <trkpt lat="44.78763" lon="1.60246">
        <ele>198.8</ele>
        <time>2024-12-25T13:53:33Z</time>
      </trkpt>
      <trkpt lat="44.78763" lon="1.60244">
        <ele>198.6</ele>
        <time>2024-12-25T13:53:34Z</time>
      </trkpt>
      <trkpt lat="44.78762" lon="1.60242">
        <ele>198.5</ele>
        <time>2024-12-25T13:53:35Z</time>
      </trkpt>
      <trkpt lat="44.78762" lon="1.6024">
        <ele>198.3</ele>
        <time>2024-12-25T13:53:37Z</time>
      </trkpt>
      <trkpt lat="44.78761" lon="1.60238">
        <ele>198.1</ele>
        <time>2024-12-25T13:53:38Z</time>
      </trkpt>
      <trkpt lat="44.7876" lon="1.60236">
        <ele>197.9</ele>
        <time>2024-12-25T13:53:39Z</time>
      </trkpt>
      <trkpt lat="44.7876" lon="1.60231">
        <ele>197.6</ele>
        <time>2024-12-25T13:53:40Z</time>
      </trkpt>
      <trkpt lat="44.78759" lon="1.60228">
        <ele>197.3</ele>
        <time>2024-12-25T13:53:42Z</time>
      </trkpt>
      <trkpt lat="44.78759" lon="1.60226">
        <ele>197.2</ele>
        <time>2024-12-25T13:53:43Z</time>
      </trkpt>
      <trkpt lat="44.78759" lon="1.60224">
        <ele>197</ele>
        <time>2024-12-25T13:53:44Z</time>
      </trkpt>
      <trkpt lat="44.78759" lon="1.60222">
        <ele>196.9</ele>
        <time>2024-12-25T13:53:45Z</time>
      </trkpt>
      <trkpt lat="44.78759" lon="1.6022">
        <ele>196.7</ele>
        <time>2024-12-25T13:53:47Z</time>
      </trkpt>
      <trkpt lat="44.78759" lon="1.60219">
        <ele>196.6</ele>
        <time>2024-12-25T13:53:48Z</time>
      </trkpt>
      <trkpt lat="44.78759" lon="1.60217">
        <ele>196.4</ele>
        <time>2024-12-25T13:53:49Z</time>
      </trkpt>
      <trkpt lat="44.78759" lon="1.60214">
        <ele>196.2</ele>
        <time>2024-12-25T13:53:50Z</time>
      </trkpt>
      <trkpt lat="44.7876" lon="1.60212">
        <ele>196</ele>
        <time>2024-12-25T13:53:51Z</time>
      </trkpt>
      <trkpt lat="44.78759" lon="1.6021">
        <ele>195.9</ele>
        <time>2024-12-25T13:53:53Z</time>
      </trkpt>
      <trkpt lat="44.78759" lon="1.60209">
        <ele>195.7</ele>
        <time>2024-12-25T13:53:54Z</time>
      </trkpt>
      <trkpt lat="44.78759" lon="1.60207">
        <ele>195.6</ele>
        <time>2024-12-25T13:53:55Z</time>
      </trkpt>
      <trkpt lat="44.78758" lon="1.60204">
        <ele>195.3</ele>
        <time>2024-12-25T13:53:56Z</time>
      </trkpt>
      <trkpt lat="44.78758" lon="1.60202">
        <ele>195.2</ele>
        <time>2024-12-25T13:53:57Z</time>
      </trkpt>
      <trkpt lat="44.78758" lon="1.60201">
        <ele>195.1</ele>
        <time>2024-12-25T13:53:59Z</time>
      </trkpt>
      <trkpt lat="44.78757" lon="1.602">
        <ele>195</ele>
        <time>2024-12-25T13:54:00Z</time>
      </trkpt>
      <trkpt lat="44.78757" lon="1.60198">
        <ele>194.9</ele>
        <time>2024-12-25T13:54:01Z</time>
      </trkpt>
      <trkpt lat="44.78757" lon="1.60197">
        <ele>194.8</ele>
        <time>2024-12-25T13:54:02Z</time>
      </trkpt>
      <trkpt lat="44.78757" lon="1.60195">
        <ele>194.7</ele>
        <time>2024-12-25T13:54:04Z</time>
      </trkpt>
      <trkpt lat="44.78757" lon="1.60194">
        <ele>194.6</ele>
        <time>2024-12-25T13:54:05Z</time>
      </trkpt>
      <trkpt lat="44.78757" lon="1.60192">
        <ele>194.4</ele>
        <time>2024-12-25T13:54:06Z</time>
      </trkpt>
      <trkpt lat="44.78757" lon="1.60189">
        <ele>194.1</ele>
        <time>2024-12-25T13:54:07Z</time>
      </trkpt>
      <trkpt lat="44.78757" lon="1.60187">
        <ele>194</ele>
        <time>2024-12-25T13:54:09Z</time>
      </trkpt>
      <trkpt lat="44.78758" lon="1.60184">
        <ele>193.8</ele>
        <time>2024-12-25T13:54:10Z</time>
      </trkpt>
      <trkpt lat="44.78758" lon="1.60182">
        <ele>193.6</ele>
        <time>2024-12-25T13:54:11Z</time>
      </trkpt>
      <trkpt lat="44.78758" lon="1.60178">
        <ele>193.3</ele>
        <time>2024-12-25T13:54:12Z</time>
      </trkpt>
      <trkpt lat="44.78758" lon="1.60176">
        <ele>193.1</ele>
        <time>2024-12-25T13:54:14Z</time>
      </trkpt>
      <trkpt lat="44.78758" lon="1.60174">
        <ele>192.9</ele>
        <time>2024-12-25T13:54:15Z</time>
      </trkpt>
      <trkpt lat="44.78758" lon="1.6017">
        <ele>192.6</ele>
        <time>2024-12-25T13:54:16Z</time>
      </trkpt>
      <trkpt lat="44.78758" lon="1.60168">
        <ele>192.5</ele>
        <time>2024-12-25T13:54:17Z</time>
      </trkpt>
      <trkpt lat="44.78757" lon="1.60167">
        <ele>192.4</ele>
        <time>2024-12-25T13:54:18Z</time>
      </trkpt>
      <trkpt lat="44.78757" lon="1.60164">
        <ele>192.1</ele>
        <time>2024-12-25T13:54:20Z</time>
      </trkpt>
      <trkpt lat="44.78757" lon="1.60163">
        <ele>192.1</ele>
        <time>2024-12-25T13:54:21Z</time>
      </trkpt>
      <trkpt lat="44.78757" lon="1.60162">
        <ele>191.9</ele>
        <time>2024-12-25T13:54:22Z</time>
      </trkpt>
      <trkpt lat="44.78756" lon="1.60159">
        <ele>191.7</ele>
        <time>2024-12-25T13:54:23Z</time>
      </trkpt>
      <trkpt lat="44.78756" lon="1.60155">
        <ele>191.4</ele>
        <time>2024-12-25T13:54:24Z</time>
      </trkpt>
      <trkpt lat="44.78756" lon="1.60154">
        <ele>191.3</ele>
        <time>2024-12-25T13:54:26Z</time>
      </trkpt>
      <trkpt lat="44.78756" lon="1.60153">
        <ele>191.2</ele>
        <time>2024-12-25T13:54:27Z</time>
      </trkpt>
      <trkpt lat="44.78756" lon="1.60151">
        <ele>191</ele>
        <time>2024-12-25T13:54:28Z</time>
      </trkpt>
      <trkpt lat="44.78756" lon="1.60149">
        <ele>190.8</ele>
        <time>2024-12-25T13:54:29Z</time>
      </trkpt>
      <trkpt lat="44.78756" lon="1.60146">
        <ele>190.5</ele>
        <time>2024-12-25T13:54:30Z</time>
      </trkpt>
      <trkpt lat="44.78756" lon="1.60145">
        <ele>190.4</ele>
        <time>2024-12-25T13:54:31Z</time>
      </trkpt>
      <trkpt lat="44.78756" lon="1.60143">
        <ele>190.3</ele>
        <time>2024-12-25T13:54:32Z</time>
      </trkpt>
      <trkpt lat="44.78756" lon="1.60142">
        <ele>190.1</ele>
        <time>2024-12-25T13:54:33Z</time>
      </trkpt>
      <trkpt lat="44.78756" lon="1.60138">
        <ele>189.8</ele>
        <time>2024-12-25T13:54:34Z</time>
      </trkpt>
      <trkpt lat="44.78757" lon="1.60137">
        <ele>189.6</ele>
        <time>2024-12-25T13:54:36Z</time>
      </trkpt>
      <trkpt lat="44.78757" lon="1.60135">
        <ele>189.5</ele>
        <time>2024-12-25T13:54:37Z</time>
      </trkpt>
      <trkpt lat="44.78758" lon="1.60134">
        <ele>189.3</ele>
        <time>2024-12-25T13:54:38Z</time>
      </trkpt>
      <trkpt lat="44.78758" lon="1.60131">
        <ele>189</ele>
        <time>2024-12-25T13:54:39Z</time>
      </trkpt>
      <trkpt lat="44.78758" lon="1.6013">
        <ele>188.9</ele>
        <time>2024-12-25T13:54:40Z</time>
      </trkpt>
      <trkpt lat="44.78759" lon="1.60129">
        <ele>188.8</ele>
        <time>2024-12-25T13:54:41Z</time>
      </trkpt>
      <trkpt lat="44.78759" lon="1.60126">
        <ele>188.5</ele>
        <time>2024-12-25T13:54:42Z</time>
      </trkpt>
      <trkpt lat="44.78759" lon="1.60124">
        <ele>188.4</ele>
        <time>2024-12-25T13:54:43Z</time>
      </trkpt>
      <trkpt lat="44.78759" lon="1.60123">
        <ele>188.3</ele>
        <time>2024-12-25T13:54:44Z</time>
      </trkpt>
      <trkpt lat="44.78759" lon="1.6012">
        <ele>187.9</ele>
        <time>2024-12-25T13:54:45Z</time>
      </trkpt>
      <trkpt lat="44.78759" lon="1.60118">
        <ele>187.8</ele>
        <time>2024-12-25T13:54:46Z</time>
      </trkpt>
      <trkpt lat="44.78759" lon="1.60116">
        <ele>187.6</ele>
        <time>2024-12-25T13:54:47Z</time>
      </trkpt>
      <trkpt lat="44.78759" lon="1.60114">
        <ele>187.4</ele>
        <time>2024-12-25T13:54:49Z</time>
      </trkpt>
      <trkpt lat="44.7876" lon="1.60112">
        <ele>187.2</ele>
        <time>2024-12-25T13:54:50Z</time>
      </trkpt>
      <trkpt lat="44.7876" lon="1.60111">
        <ele>187.1</ele>
        <time>2024-12-25T13:54:51Z</time>
      </trkpt>
      <trkpt lat="44.7876" lon="1.60109">
        <ele>186.9</ele>
        <time>2024-12-25T13:54:52Z</time>
      </trkpt>
      <trkpt lat="44.7876" lon="1.60104">
        <ele>186.5</ele>
        <time>2024-12-25T13:54:53Z</time>
      </trkpt>
      <trkpt lat="44.78759" lon="1.60103">
        <ele>186.4</ele>
        <time>2024-12-25T13:54:55Z</time>
      </trkpt>
      <trkpt lat="44.78759" lon="1.60102">
        <ele>186.2</ele>
        <time>2024-12-25T13:54:56Z</time>
      </trkpt>
      <trkpt lat="44.78759" lon="1.601">
        <ele>186.1</ele>
        <time>2024-12-25T13:54:57Z</time>
      </trkpt>
      <trkpt lat="44.78759" lon="1.60099">
        <ele>186</ele>
        <time>2024-12-25T13:54:58Z</time>
      </trkpt>
      <trkpt lat="44.78759" lon="1.60094">
        <ele>185.5</ele>
        <time>2024-12-25T13:54:59Z</time>
      </trkpt>
      <trkpt lat="44.78759" lon="1.60093">
        <ele>185.4</ele>
        <time>2024-12-25T13:55:00Z</time>
      </trkpt>
      <trkpt lat="44.7876" lon="1.6009">
        <ele>185.1</ele>
        <time>2024-12-25T13:55:01Z</time>
      </trkpt>
      <trkpt lat="44.7876" lon="1.60089">
        <ele>185</ele>
        <time>2024-12-25T13:55:03Z</time>
      </trkpt>
      <trkpt lat="44.7876" lon="1.60088">
        <ele>184.9</ele>
        <time>2024-12-25T13:55:04Z</time>
      </trkpt>
      <trkpt lat="44.7876" lon="1.60086">
        <ele>184.7</ele>
        <time>2024-12-25T13:55:05Z</time>
      </trkpt>
      <trkpt lat="44.78761" lon="1.60082">
        <ele>184.4</ele>
        <time>2024-12-25T13:55:06Z</time>
      </trkpt>
      <trkpt lat="44.78761" lon="1.6008">
        <ele>184.2</ele>
        <time>2024-12-25T13:55:07Z</time>
      </trkpt>
      <trkpt lat="44.78762" lon="1.60079">
        <ele>184.1</ele>
        <time>2024-12-25T13:55:08Z</time>
      </trkpt>
      <trkpt lat="44.78762" lon="1.60077">
        <ele>183.9</ele>
        <time>2024-12-25T13:55:10Z</time>
      </trkpt>
      <trkpt lat="44.78762" lon="1.60074">
        <ele>183.6</ele>
        <time>2024-12-25T13:55:11Z</time>
      </trkpt>
      <trkpt lat="44.78762" lon="1.60072">
        <ele>183.4</ele>
        <time>2024-12-25T13:55:12Z</time>
      </trkpt>
      <trkpt lat="44.78762" lon="1.6007">
        <ele>183.2</ele>
        <time>2024-12-25T13:55:13Z</time>
      </trkpt>
      <trkpt lat="44.78762" lon="1.60068">
        <ele>183.1</ele>
        <time>2024-12-25T13:55:14Z</time>
      </trkpt>
      <trkpt lat="44.78762" lon="1.60066">
        <ele>182.9</ele>
        <time>2024-12-25T13:55:16Z</time>
      </trkpt>
      <trkpt lat="44.78762" lon="1.60065">
        <ele>182.8</ele>
        <time>2024-12-25T13:55:17Z</time>
      </trkpt>
      <trkpt lat="44.78763" lon="1.60062">
        <ele>182.5</ele>
        <time>2024-12-25T13:55:18Z</time>
      </trkpt>
      <trkpt lat="44.78763" lon="1.60058">
        <ele>182.2</ele>
        <time>2024-12-25T13:55:20Z</time>
      </trkpt>
      <trkpt lat="44.78764" lon="1.60056">
        <ele>182</ele>
        <time>2024-12-25T13:55:21Z</time>
      </trkpt>
      <trkpt lat="44.78764" lon="1.60054">
        <ele>181.9</ele>
        <time>2024-12-25T13:55:22Z</time>
      </trkpt>
      <trkpt lat="44.78764" lon="1.60051">
        <ele>181.6</ele>
        <time>2024-12-25T13:55:24Z</time>
      </trkpt>
      <trkpt lat="44.78764" lon="1.60049">
        <ele>181.5</ele>
        <time>2024-12-25T13:55:25Z</time>
      </trkpt>
      <trkpt lat="44.78764" lon="1.60048">
        <ele>181.3</ele>
        <time>2024-12-25T13:55:26Z</time>
      </trkpt>
      <trkpt lat="44.78764" lon="1.60046">
        <ele>181.2</ele>
        <time>2024-12-25T13:55:27Z</time>
      </trkpt>
      <trkpt lat="44.78764" lon="1.60044">
        <ele>181.1</ele>
        <time>2024-12-25T13:55:29Z</time>
      </trkpt>
      <trkpt lat="44.78764" lon="1.60041">
        <ele>180.8</ele>
        <time>2024-12-25T13:55:30Z</time>
      </trkpt>
      <trkpt lat="44.78764" lon="1.6004">
        <ele>180.7</ele>
        <time>2024-12-25T13:55:31Z</time>
      </trkpt>
      <trkpt lat="44.78764" lon="1.60038">
        <ele>180.6</ele>
        <time>2024-12-25T13:55:32Z</time>
      </trkpt>
      <trkpt lat="44.78764" lon="1.60037">
        <ele>180.4</ele>
        <time>2024-12-25T13:55:34Z</time>
      </trkpt>
      <trkpt lat="44.78764" lon="1.60035">
        <ele>180.3</ele>
        <time>2024-12-25T13:55:35Z</time>
      </trkpt>
      <trkpt lat="44.78765" lon="1.6003">
        <ele>179.9</ele>
        <time>2024-12-25T13:55:36Z</time>
      </trkpt>
      <trkpt lat="44.78765" lon="1.60029">
        <ele>179.8</ele>
        <time>2024-12-25T13:55:37Z</time>
      </trkpt>
      <trkpt lat="44.78765" lon="1.60028">
        <ele>179.6</ele>
        <time>2024-12-25T13:55:39Z</time>
      </trkpt>
      <trkpt lat="44.78766" lon="1.60024">
        <ele>179.2</ele>
        <time>2024-12-25T13:55:40Z</time>
      </trkpt>
      <trkpt lat="44.78767" lon="1.60021">
        <ele>178.9</ele>
        <time>2024-12-25T13:55:42Z</time>
      </trkpt>
      <trkpt lat="44.78767" lon="1.60019">
        <ele>178.8</ele>
        <time>2024-12-25T13:55:43Z</time>
      </trkpt>
      <trkpt lat="44.78768" lon="1.60018">
        <ele>178.6</ele>
        <time>2024-12-25T13:55:45Z</time>
      </trkpt>
      <trkpt lat="44.78768" lon="1.60016">
        <ele>178.5</ele>
        <time>2024-12-25T13:55:46Z</time>
      </trkpt>
      <trkpt lat="44.78768" lon="1.60013">
        <ele>178.2</ele>
        <time>2024-12-25T13:55:47Z</time>
      </trkpt>
      <trkpt lat="44.78768" lon="1.6001">
        <ele>178</ele>
        <time>2024-12-25T13:55:49Z</time>
      </trkpt>
      <trkpt lat="44.78768" lon="1.60007">
        <ele>177.7</ele>
        <time>2024-12-25T13:55:51Z</time>
      </trkpt>
      <trkpt lat="44.78768" lon="1.60005">
        <ele>177.6</ele>
        <time>2024-12-25T13:55:52Z</time>
      </trkpt>
      <trkpt lat="44.78768" lon="1.60004">
        <ele>177.4</ele>
        <time>2024-12-25T13:55:54Z</time>
      </trkpt>
      <trkpt lat="44.78768" lon="1.60001">
        <ele>177.2</ele>
        <time>2024-12-25T13:55:55Z</time>
      </trkpt>
      <trkpt lat="44.78768" lon="1.59999">
        <ele>177</ele>
        <time>2024-12-25T13:55:56Z</time>
      </trkpt>
      <trkpt lat="44.78768" lon="1.59998">
        <ele>176.9</ele>
        <time>2024-12-25T13:55:57Z</time>
      </trkpt>
      <trkpt lat="44.78768" lon="1.59996">
        <ele>176.8</ele>
        <time>2024-12-25T13:55:58Z</time>
      </trkpt>
      <trkpt lat="44.78768" lon="1.59994">
        <ele>176.6</ele>
        <time>2024-12-25T13:55:59Z</time>
      </trkpt>
      <trkpt lat="44.78768" lon="1.59991">
        <ele>176.3</ele>
        <time>2024-12-25T13:56:01Z</time>
      </trkpt>
      <trkpt lat="44.78768" lon="1.59989">
        <ele>176.2</ele>
        <time>2024-12-25T13:56:03Z</time>
      </trkpt>
      <trkpt lat="44.78769" lon="1.59988">
        <ele>176</ele>
        <time>2024-12-25T13:56:04Z</time>
      </trkpt>
      <trkpt lat="44.7877" lon="1.59987">
        <ele>175.9</ele>
        <time>2024-12-25T13:56:05Z</time>
      </trkpt>
      <trkpt lat="44.7877" lon="1.59986">
        <ele>175.8</ele>
        <time>2024-12-25T13:56:06Z</time>
      </trkpt>
      <trkpt lat="44.78771" lon="1.59984">
        <ele>175.6</ele>
        <time>2024-12-25T13:56:07Z</time>
      </trkpt>
      <trkpt lat="44.78771" lon="1.59982">
        <ele>175.5</ele>
        <time>2024-12-25T13:56:08Z</time>
      </trkpt>
      <trkpt lat="44.7877" lon="1.5998">
        <ele>175.3</ele>
        <time>2024-12-25T13:56:09Z</time>
      </trkpt>
      <trkpt lat="44.7877" lon="1.59979">
        <ele>175.2</ele>
        <time>2024-12-25T13:56:11Z</time>
      </trkpt>
      <trkpt lat="44.7877" lon="1.59977">
        <ele>175</ele>
        <time>2024-12-25T13:56:12Z</time>
      </trkpt>
      <trkpt lat="44.78771" lon="1.59975">
        <ele>174.8</ele>
        <time>2024-12-25T13:56:13Z</time>
      </trkpt>
      <trkpt lat="44.78771" lon="1.59971">
        <ele>174.5</ele>
        <time>2024-12-25T13:56:14Z</time>
      </trkpt>
      <trkpt lat="44.78771" lon="1.59969">
        <ele>174.3</ele>
        <time>2024-12-25T13:56:15Z</time>
      </trkpt>
      <trkpt lat="44.78771" lon="1.59966">
        <ele>174.1</ele>
        <time>2024-12-25T13:56:17Z</time>
      </trkpt>
      <trkpt lat="44.78771" lon="1.59964">
        <ele>174</ele>
        <time>2024-12-25T13:56:18Z</time>
      </trkpt>
      <trkpt lat="44.78771" lon="1.59963">
        <ele>173.9</ele>
        <time>2024-12-25T13:56:19Z</time>
      </trkpt>
      <trkpt lat="44.78771" lon="1.5996">
        <ele>173.6</ele>
        <time>2024-12-25T13:56:20Z</time>
      </trkpt>
      <trkpt lat="44.78772" lon="1.59958">
        <ele>173.5</ele>
        <time>2024-12-25T13:56:21Z</time>
      </trkpt>
      <trkpt lat="44.78772" lon="1.59955">
        <ele>173.2</ele>
        <time>2024-12-25T13:56:23Z</time>
      </trkpt>
      <trkpt lat="44.78773" lon="1.59952">
        <ele>172.9</ele>
        <time>2024-12-25T13:56:25Z</time>
      </trkpt>
      <trkpt lat="44.78774" lon="1.5995">
        <ele>172.7</ele>
        <time>2024-12-25T13:56:26Z</time>
      </trkpt>
      <trkpt lat="44.78775" lon="1.59946">
        <ele>172.4</ele>
        <time>2024-12-25T13:56:28Z</time>
      </trkpt>
      <trkpt lat="44.78775" lon="1.59944">
        <ele>172.2</ele>
        <time>2024-12-25T13:56:29Z</time>
      </trkpt>
      <trkpt lat="44.78776" lon="1.59942">
        <ele>172</ele>
        <time>2024-12-25T13:56:30Z</time>
      </trkpt>
      <trkpt lat="44.78776" lon="1.5994">
        <ele>171.8</ele>
        <time>2024-12-25T13:56:31Z</time>
      </trkpt>
      <trkpt lat="44.78777" lon="1.59938">
        <ele>171.7</ele>
        <time>2024-12-25T13:56:32Z</time>
      </trkpt>
      <trkpt lat="44.78778" lon="1.59935">
        <ele>171.4</ele>
        <time>2024-12-25T13:56:34Z</time>
      </trkpt>
      <trkpt lat="44.78778" lon="1.59934">
        <ele>171.2</ele>
        <time>2024-12-25T13:56:36Z</time>
      </trkpt>
      <trkpt lat="44.78778" lon="1.59932">
        <ele>171.1</ele>
        <time>2024-12-25T13:56:37Z</time>
      </trkpt>
      <trkpt lat="44.78778" lon="1.59929">
        <ele>170.8</ele>
        <time>2024-12-25T13:56:38Z</time>
      </trkpt>
      <trkpt lat="44.78779" lon="1.59926">
        <ele>170.6</ele>
        <time>2024-12-25T13:56:40Z</time>
      </trkpt>
      <trkpt lat="44.78779" lon="1.59925">
        <ele>170.5</ele>
        <time>2024-12-25T13:56:41Z</time>
      </trkpt>
      <trkpt lat="44.78779" lon="1.59923">
        <ele>170.4</ele>
        <time>2024-12-25T13:56:42Z</time>
      </trkpt>
      <trkpt lat="44.78779" lon="1.59919">
        <ele>170</ele>
        <time>2024-12-25T13:56:43Z</time>
      </trkpt>
      <trkpt lat="44.78779" lon="1.59918">
        <ele>169.9</ele>
        <time>2024-12-25T13:56:44Z</time>
      </trkpt>
      <trkpt lat="44.78779" lon="1.59915">
        <ele>169.7</ele>
        <time>2024-12-25T13:56:46Z</time>
      </trkpt>
      <trkpt lat="44.7878" lon="1.59914">
        <ele>169.6</ele>
        <time>2024-12-25T13:56:47Z</time>
      </trkpt>
      <trkpt lat="44.7878" lon="1.59913">
        <ele>169.5</ele>
        <time>2024-12-25T13:56:48Z</time>
      </trkpt>
      <trkpt lat="44.7878" lon="1.59911">
        <ele>169.3</ele>
        <time>2024-12-25T13:56:49Z</time>
      </trkpt>
      <trkpt lat="44.7878" lon="1.59909">
        <ele>169.1</ele>
        <time>2024-12-25T13:56:50Z</time>
      </trkpt>
      <trkpt lat="44.78781" lon="1.59907">
        <ele>169</ele>
        <time>2024-12-25T13:56:51Z</time>
      </trkpt>
      <trkpt lat="44.78781" lon="1.59905">
        <ele>168.8</ele>
        <time>2024-12-25T13:56:52Z</time>
      </trkpt>
      <trkpt lat="44.78781" lon="1.59903">
        <ele>168.7</ele>
        <time>2024-12-25T13:56:53Z</time>
      </trkpt>
      <trkpt lat="44.78782" lon="1.59901">
        <ele>168.5</ele>
        <time>2024-12-25T13:56:54Z</time>
      </trkpt>
      <trkpt lat="44.78782" lon="1.59897">
        <ele>168.2</ele>
        <time>2024-12-25T13:56:55Z</time>
      </trkpt>
      <trkpt lat="44.78782" lon="1.59896">
        <ele>168</ele>
        <time>2024-12-25T13:56:57Z</time>
      </trkpt>
      <trkpt lat="44.78782" lon="1.59894">
        <ele>167.9</ele>
        <time>2024-12-25T13:56:58Z</time>
      </trkpt>
      <trkpt lat="44.78783" lon="1.5989">
        <ele>167.6</ele>
        <time>2024-12-25T13:57:00Z</time>
      </trkpt>
      <trkpt lat="44.78783" lon="1.59888">
        <ele>167.4</ele>
        <time>2024-12-25T13:57:01Z</time>
      </trkpt>
      <trkpt lat="44.78783" lon="1.59885">
        <ele>167.2</ele>
        <time>2024-12-25T13:57:03Z</time>
      </trkpt>
      <trkpt lat="44.78784" lon="1.59882">
        <ele>166.9</ele>
        <time>2024-12-25T13:57:05Z</time>
      </trkpt>
      <trkpt lat="44.78784" lon="1.5988">
        <ele>166.7</ele>
        <time>2024-12-25T13:57:06Z</time>
      </trkpt>
      <trkpt lat="44.78784" lon="1.59878">
        <ele>166.6</ele>
        <time>2024-12-25T13:57:08Z</time>
      </trkpt>
      <trkpt lat="44.78784" lon="1.59877">
        <ele>166.5</ele>
        <time>2024-12-25T13:57:09Z</time>
      </trkpt>
      <trkpt lat="44.78784" lon="1.59874">
        <ele>166.2</ele>
        <time>2024-12-25T13:57:10Z</time>
      </trkpt>
      <trkpt lat="44.78784" lon="1.59872">
        <ele>166.1</ele>
        <time>2024-12-25T13:57:11Z</time>
      </trkpt>
      <trkpt lat="44.78783" lon="1.59869">
        <ele>165.8</ele>
        <time>2024-12-25T13:57:13Z</time>
      </trkpt>
      <trkpt lat="44.78783" lon="1.59865">
        <ele>165.5</ele>
        <time>2024-12-25T13:57:15Z</time>
      </trkpt>
      <trkpt lat="44.78784" lon="1.59863">
        <ele>165.3</ele>
        <time>2024-12-25T13:57:16Z</time>
      </trkpt>
      <trkpt lat="44.78784" lon="1.5986">
        <ele>165.1</ele>
        <time>2024-12-25T13:57:17Z</time>
      </trkpt>
      <trkpt lat="44.78785" lon="1.59859">
        <ele>165</ele>
        <time>2024-12-25T13:57:19Z</time>
      </trkpt>
      <trkpt lat="44.78785" lon="1.59858">
        <ele>164.9</ele>
        <time>2024-12-25T13:57:20Z</time>
      </trkpt>
      <trkpt lat="44.78786" lon="1.59856">
        <ele>164.7</ele>
        <time>2024-12-25T13:57:21Z</time>
      </trkpt>
      <trkpt lat="44.78787" lon="1.59853">
        <ele>164.4</ele>
        <time>2024-12-25T13:57:22Z</time>
      </trkpt>
      <trkpt lat="44.78788" lon="1.59851">
        <ele>164.3</ele>
        <time>2024-12-25T13:57:23Z</time>
      </trkpt>
      <trkpt lat="44.78788" lon="1.59848">
        <ele>164</ele>
        <time>2024-12-25T13:57:25Z</time>
      </trkpt>
      <trkpt lat="44.78788" lon="1.59845">
        <ele>163.7</ele>
        <time>2024-12-25T13:57:27Z</time>
      </trkpt>
      <trkpt lat="44.78789" lon="1.59843">
        <ele>163.6</ele>
        <time>2024-12-25T13:57:28Z</time>
      </trkpt>
      <trkpt lat="44.78789" lon="1.59842">
        <ele>163.5</ele>
        <time>2024-12-25T13:57:29Z</time>
      </trkpt>
      <trkpt lat="44.78789" lon="1.5984">
        <ele>163.4</ele>
        <time>2024-12-25T13:57:30Z</time>
      </trkpt>
      <trkpt lat="44.78789" lon="1.59839">
        <ele>163.2</ele>
        <time>2024-12-25T13:57:32Z</time>
      </trkpt>
      <trkpt lat="44.7879" lon="1.59837">
        <ele>163.1</ele>
        <time>2024-12-25T13:57:33Z</time>
      </trkpt>
      <trkpt lat="44.78789" lon="1.59836">
        <ele>163</ele>
        <time>2024-12-25T13:57:34Z</time>
      </trkpt>
      <trkpt lat="44.78788" lon="1.59836">
        <ele>162.9</ele>
        <time>2024-12-25T13:57:35Z</time>
      </trkpt>
      <trkpt lat="44.78788" lon="1.59837">
        <ele>162.9</ele>
        <time>2024-12-25T13:57:36Z</time>
      </trkpt>
      <trkpt lat="44.78788" lon="1.59837">
        <ele>162.8</ele>
        <time>2024-12-25T13:57:37Z</time>
      </trkpt>
      <trkpt lat="44.78789" lon="1.59837">
        <ele>162.7</ele>
        <time>2024-12-25T13:57:38Z</time>
      </trkpt>
      <trkpt lat="44.7879" lon="1.59836">
        <ele>162.6</ele>
        <time>2024-12-25T13:57:39Z</time>
      </trkpt>
      <trkpt lat="44.7879" lon="1.59834">
        <ele>162.5</ele>
        <time>2024-12-25T13:57:40Z</time>
      </trkpt>
      <trkpt lat="44.78791" lon="1.59831">
        <ele>162.3</ele>
        <time>2024-12-25T13:57:42Z</time>
      </trkpt>
      <trkpt lat="44.78792" lon="1.59827">
        <ele>161.9</ele>
        <time>2024-12-25T13:57:43Z</time>
      </trkpt>
      <trkpt lat="44.78792" lon="1.59823">
        <ele>161.6</ele>
        <time>2024-12-25T13:57:44Z</time>
      </trkpt>
      <trkpt lat="44.78792" lon="1.59821">
        <ele>161.4</ele>
        <time>2024-12-25T13:57:46Z</time>
      </trkpt>
      <trkpt lat="44.78793" lon="1.59819">
        <ele>161.3</ele>
        <time>2024-12-25T13:57:47Z</time>
      </trkpt>
      <trkpt lat="44.78793" lon="1.59818">
        <ele>161.2</ele>
        <time>2024-12-25T13:57:48Z</time>
      </trkpt>
      <trkpt lat="44.78793" lon="1.59816">
        <ele>161</ele>
        <time>2024-12-25T13:57:49Z</time>
      </trkpt>
      <trkpt lat="44.78794" lon="1.59814">
        <ele>160.9</ele>
        <time>2024-12-25T13:57:50Z</time>
      </trkpt>
      <trkpt lat="44.78795" lon="1.59811">
        <ele>160.6</ele>
        <time>2024-12-25T13:57:52Z</time>
      </trkpt>
      <trkpt lat="44.78795" lon="1.59809">
        <ele>160.5</ele>
        <time>2024-12-25T13:57:53Z</time>
      </trkpt>
      <trkpt lat="44.78795" lon="1.59807">
        <ele>160.3</ele>
        <time>2024-12-25T13:57:54Z</time>
      </trkpt>
      <trkpt lat="44.78796" lon="1.59805">
        <ele>160.1</ele>
        <time>2024-12-25T13:57:55Z</time>
      </trkpt>
      <trkpt lat="44.78797" lon="1.59804">
        <ele>160</ele>
        <time>2024-12-25T13:57:57Z</time>
      </trkpt>
      <trkpt lat="44.78797" lon="1.59802">
        <ele>159.9</ele>
        <time>2024-12-25T13:57:58Z</time>
      </trkpt>
      <trkpt lat="44.78798" lon="1.59799">
        <ele>159.6</ele>
        <time>2024-12-25T13:57:59Z</time>
      </trkpt>
      <trkpt lat="44.78798" lon="1.59797">
        <ele>159.5</ele>
        <time>2024-12-25T13:58:00Z</time>
      </trkpt>
      <trkpt lat="44.78797" lon="1.59795">
        <ele>159.4</ele>
        <time>2024-12-25T13:58:01Z</time>
      </trkpt>
      <trkpt lat="44.78797" lon="1.59792">
        <ele>159.1</ele>
        <time>2024-12-25T13:58:03Z</time>
      </trkpt>
      <trkpt lat="44.78797" lon="1.59788">
        <ele>158.8</ele>
        <time>2024-12-25T13:58:05Z</time>
      </trkpt>
      <trkpt lat="44.78798" lon="1.59785">
        <ele>158.6</ele>
        <time>2024-12-25T13:58:07Z</time>
      </trkpt>
      <trkpt lat="44.78799" lon="1.59783">
        <ele>158.4</ele>
        <time>2024-12-25T13:58:09Z</time>
      </trkpt>
      <trkpt lat="44.788" lon="1.59782">
        <ele>158.3</ele>
        <time>2024-12-25T13:58:10Z</time>
      </trkpt>
      <trkpt lat="44.78801" lon="1.59778">
        <ele>158</ele>
        <time>2024-12-25T13:58:11Z</time>
      </trkpt>
      <trkpt lat="44.78802" lon="1.59775">
        <ele>157.7</ele>
        <time>2024-12-25T13:58:12Z</time>
      </trkpt>
      <trkpt lat="44.78803" lon="1.59773">
        <ele>157.6</ele>
        <time>2024-12-25T13:58:14Z</time>
      </trkpt>
      <trkpt lat="44.78803" lon="1.59772">
        <ele>157.5</ele>
        <time>2024-12-25T13:58:15Z</time>
      </trkpt>
      <trkpt lat="44.78804" lon="1.59769">
        <ele>157.2</ele>
        <time>2024-12-25T13:58:17Z</time>
      </trkpt>
      <trkpt lat="44.78805" lon="1.59768">
        <ele>157.1</ele>
        <time>2024-12-25T13:58:19Z</time>
      </trkpt>
      <trkpt lat="44.78805" lon="1.59766">
        <ele>157</ele>
        <time>2024-12-25T13:58:20Z</time>
      </trkpt>
      <trkpt lat="44.78805" lon="1.59765">
        <ele>156.9</ele>
        <time>2024-12-25T13:58:21Z</time>
      </trkpt>
      <trkpt lat="44.78806" lon="1.59763">
        <ele>156.8</ele>
        <time>2024-12-25T13:58:22Z</time>
      </trkpt>
      <trkpt lat="44.78806" lon="1.5976">
        <ele>156.5</ele>
        <time>2024-12-25T13:58:23Z</time>
      </trkpt>
      <trkpt lat="44.78807" lon="1.59758">
        <ele>156.4</ele>
        <time>2024-12-25T13:58:24Z</time>
      </trkpt>
      <trkpt lat="44.78807" lon="1.59756">
        <ele>156.3</ele>
        <time>2024-12-25T13:58:26Z</time>
      </trkpt>
      <trkpt lat="44.78807" lon="1.59752">
        <ele>156</ele>
        <time>2024-12-25T13:58:27Z</time>
      </trkpt>
      <trkpt lat="44.78807" lon="1.5975">
        <ele>155.9</ele>
        <time>2024-12-25T13:58:28Z</time>
      </trkpt>
      <trkpt lat="44.78807" lon="1.59748">
        <ele>155.7</ele>
        <time>2024-12-25T13:58:29Z</time>
      </trkpt>
      <trkpt lat="44.78808" lon="1.59746">
        <ele>155.6</ele>
        <time>2024-12-25T13:58:30Z</time>
      </trkpt>
      <trkpt lat="44.78807" lon="1.59745">
        <ele>155.5</ele>
        <time>2024-12-25T13:58:32Z</time>
      </trkpt>
      <trkpt lat="44.78808" lon="1.59744">
        <ele>155.3</ele>
        <time>2024-12-25T13:58:33Z</time>
      </trkpt>
      <trkpt lat="44.78809" lon="1.59742">
        <ele>155.2</ele>
        <time>2024-12-25T13:58:34Z</time>
      </trkpt>
      <trkpt lat="44.78812" lon="1.59741">
        <ele>154.9</ele>
        <time>2024-12-25T13:58:35Z</time>
      </trkpt>
      <trkpt lat="44.78813" lon="1.59738">
        <ele>154.6</ele>
        <time>2024-12-25T13:58:37Z</time>
      </trkpt>
      <trkpt lat="44.78813" lon="1.59736">
        <ele>154.5</ele>
        <time>2024-12-25T13:58:38Z</time>
      </trkpt>
      <trkpt lat="44.78813" lon="1.59734">
        <ele>154.4</ele>
        <time>2024-12-25T13:58:39Z</time>
      </trkpt>
      <trkpt lat="44.78813" lon="1.59732">
        <ele>154.2</ele>
        <time>2024-12-25T13:58:40Z</time>
      </trkpt>
      <trkpt lat="44.78814" lon="1.5973">
        <ele>154.1</ele>
        <time>2024-12-25T13:58:41Z</time>
      </trkpt>
      <trkpt lat="44.78813" lon="1.59727">
        <ele>153.9</ele>
        <time>2024-12-25T13:58:42Z</time>
      </trkpt>
      <trkpt lat="44.78813" lon="1.59726">
        <ele>153.8</ele>
        <time>2024-12-25T13:58:44Z</time>
      </trkpt>
      <trkpt lat="44.78812" lon="1.59724">
        <ele>153.6</ele>
        <time>2024-12-25T13:58:45Z</time>
      </trkpt>
      <trkpt lat="44.78813" lon="1.5972">
        <ele>153.3</ele>
        <time>2024-12-25T13:58:46Z</time>
      </trkpt>
      <trkpt lat="44.78813" lon="1.59719">
        <ele>153.2</ele>
        <time>2024-12-25T13:58:47Z</time>
      </trkpt>
      <trkpt lat="44.78813" lon="1.59717">
        <ele>153.1</ele>
        <time>2024-12-25T13:58:49Z</time>
      </trkpt>
      <trkpt lat="44.78814" lon="1.59715">
        <ele>152.9</ele>
        <time>2024-12-25T13:58:50Z</time>
      </trkpt>
      <trkpt lat="44.78814" lon="1.59713">
        <ele>152.8</ele>
        <time>2024-12-25T13:58:51Z</time>
      </trkpt>
      <trkpt lat="44.78815" lon="1.59711">
        <ele>152.6</ele>
        <time>2024-12-25T13:58:52Z</time>
      </trkpt>
      <trkpt lat="44.78816" lon="1.59709">
        <ele>152.4</ele>
        <time>2024-12-25T13:58:53Z</time>
      </trkpt>
      <trkpt lat="44.78816" lon="1.59705">
        <ele>152.2</ele>
        <time>2024-12-25T13:58:54Z</time>
      </trkpt>
      <trkpt lat="44.78817" lon="1.59703">
        <ele>152</ele>
        <time>2024-12-25T13:58:56Z</time>
      </trkpt>
      <trkpt lat="44.78818" lon="1.59702">
        <ele>151.9</ele>
        <time>2024-12-25T13:58:57Z</time>
      </trkpt>
      <trkpt lat="44.78818" lon="1.59699">
        <ele>151.7</ele>
        <time>2024-12-25T13:58:58Z</time>
      </trkpt>
      <trkpt lat="44.78818" lon="1.59696">
        <ele>151.4</ele>
        <time>2024-12-25T13:58:59Z</time>
      </trkpt>
      <trkpt lat="44.78818" lon="1.59694">
        <ele>151.4</ele>
        <time>2024-12-25T13:59:00Z</time>
      </trkpt>
      <trkpt lat="44.78818" lon="1.59693">
        <ele>151.3</ele>
        <time>2024-12-25T13:59:01Z</time>
      </trkpt>
      <trkpt lat="44.78817" lon="1.59691">
        <ele>151.1</ele>
        <time>2024-12-25T13:59:03Z</time>
      </trkpt>
      <trkpt lat="44.78818" lon="1.5969">
        <ele>151</ele>
        <time>2024-12-25T13:59:04Z</time>
      </trkpt>
      <trkpt lat="44.78818" lon="1.59688">
        <ele>150.9</ele>
        <time>2024-12-25T13:59:05Z</time>
      </trkpt>
      <trkpt lat="44.78818" lon="1.59686">
        <ele>150.7</ele>
        <time>2024-12-25T13:59:06Z</time>
      </trkpt>
      <trkpt lat="44.78818" lon="1.59685">
        <ele>150.6</ele>
        <time>2024-12-25T13:59:07Z</time>
      </trkpt>
      <trkpt lat="44.78818" lon="1.59683">
        <ele>150.5</ele>
        <time>2024-12-25T13:59:08Z</time>
      </trkpt>
      <trkpt lat="44.78818" lon="1.59681">
        <ele>150.4</ele>
        <time>2024-12-25T13:59:09Z</time>
      </trkpt>
      <trkpt lat="44.78818" lon="1.59679">
        <ele>150.2</ele>
        <time>2024-12-25T13:59:10Z</time>
      </trkpt>
      <trkpt lat="44.78818" lon="1.59677">
        <ele>150.1</ele>
        <time>2024-12-25T13:59:11Z</time>
      </trkpt>
      <trkpt lat="44.78819" lon="1.59673">
        <ele>149.8</ele>
        <time>2024-12-25T13:59:13Z</time>
      </trkpt>
      <trkpt lat="44.78819" lon="1.59672">
        <ele>149.7</ele>
        <time>2024-12-25T13:59:14Z</time>
      </trkpt>
      <trkpt lat="44.78819" lon="1.5967">
        <ele>149.5</ele>
        <time>2024-12-25T13:59:15Z</time>
      </trkpt>
      <trkpt lat="44.78819" lon="1.59668">
        <ele>149.4</ele>
        <time>2024-12-25T13:59:16Z</time>
      </trkpt>
      <trkpt lat="44.78819" lon="1.59667">
        <ele>149.3</ele>
        <time>2024-12-25T13:59:18Z</time>
      </trkpt>
      <trkpt lat="44.7882" lon="1.59664">
        <ele>149.1</ele>
        <time>2024-12-25T13:59:19Z</time>
      </trkpt>
      <trkpt lat="44.7882" lon="1.59662">
        <ele>149</ele>
        <time>2024-12-25T13:59:20Z</time>
      </trkpt>
      <trkpt lat="44.7882" lon="1.59661">
        <ele>148.9</ele>
        <time>2024-12-25T13:59:21Z</time>
      </trkpt>
      <trkpt lat="44.7882" lon="1.59659">
        <ele>148.8</ele>
        <time>2024-12-25T13:59:22Z</time>
      </trkpt>
      <trkpt lat="44.78821" lon="1.59657">
        <ele>148.6</ele>
        <time>2024-12-25T13:59:23Z</time>
      </trkpt>
      <trkpt lat="44.78821" lon="1.59655">
        <ele>148.4</ele>
        <time>2024-12-25T13:59:25Z</time>
      </trkpt>
      <trkpt lat="44.78821" lon="1.59653">
        <ele>148.3</ele>
        <time>2024-12-25T13:59:26Z</time>
      </trkpt>
      <trkpt lat="44.78821" lon="1.59648">
        <ele>148</ele>
        <time>2024-12-25T13:59:27Z</time>
      </trkpt>
      <trkpt lat="44.78821" lon="1.59646">
        <ele>147.8</ele>
        <time>2024-12-25T13:59:28Z</time>
      </trkpt>
      <trkpt lat="44.78821" lon="1.59645">
        <ele>147.7</ele>
        <time>2024-12-25T13:59:29Z</time>
      </trkpt>
      <trkpt lat="44.78821" lon="1.59642">
        <ele>147.5</ele>
        <time>2024-12-25T13:59:31Z</time>
      </trkpt>
      <trkpt lat="44.78821" lon="1.5964">
        <ele>147.4</ele>
        <time>2024-12-25T13:59:32Z</time>
      </trkpt>
      <trkpt lat="44.78821" lon="1.59639">
        <ele>147.3</ele>
        <time>2024-12-25T13:59:33Z</time>
      </trkpt>
      <trkpt lat="44.78822" lon="1.59635">
        <ele>147</ele>
        <time>2024-12-25T13:59:34Z</time>
      </trkpt>
      <trkpt lat="44.78822" lon="1.59632">
        <ele>146.8</ele>
        <time>2024-12-25T13:59:36Z</time>
      </trkpt>
      <trkpt lat="44.78822" lon="1.59631">
        <ele>146.7</ele>
        <time>2024-12-25T13:59:37Z</time>
      </trkpt>
      <trkpt lat="44.78822" lon="1.5963">
        <ele>146.6</ele>
        <time>2024-12-25T13:59:38Z</time>
      </trkpt>
      <trkpt lat="44.78822" lon="1.59628">
        <ele>146.5</ele>
        <time>2024-12-25T13:59:39Z</time>
      </trkpt>
      <trkpt lat="44.78822" lon="1.59626">
        <ele>146.3</ele>
        <time>2024-12-25T13:59:40Z</time>
      </trkpt>
      <trkpt lat="44.78823" lon="1.59624">
        <ele>146.2</ele>
        <time>2024-12-25T13:59:41Z</time>
      </trkpt>
      <trkpt lat="44.78822" lon="1.59622">
        <ele>146.1</ele>
        <time>2024-12-25T13:59:42Z</time>
      </trkpt>
      <trkpt lat="44.78822" lon="1.5962">
        <ele>145.9</ele>
        <time>2024-12-25T13:59:43Z</time>
      </trkpt>
      <trkpt lat="44.78822" lon="1.59618">
        <ele>145.7</ele>
        <time>2024-12-25T13:59:44Z</time>
      </trkpt>
      <trkpt lat="44.78822" lon="1.59615">
        <ele>145.5</ele>
        <time>2024-12-25T13:59:45Z</time>
      </trkpt>
      <trkpt lat="44.78823" lon="1.59614">
        <ele>145.4</ele>
        <time>2024-12-25T13:59:46Z</time>
      </trkpt>
      <trkpt lat="44.78823" lon="1.59613">
        <ele>145.4</ele>
        <time>2024-12-25T13:59:47Z</time>
      </trkpt>
      <trkpt lat="44.78823" lon="1.59611">
        <ele>145.2</ele>
        <time>2024-12-25T13:59:48Z</time>
      </trkpt>
      <trkpt lat="44.78823" lon="1.59609">
        <ele>145.1</ele>
        <time>2024-12-25T13:59:50Z</time>
      </trkpt>
      <trkpt lat="44.78824" lon="1.59607">
        <ele>144.9</ele>
        <time>2024-12-25T13:59:51Z</time>
      </trkpt>
      <trkpt lat="44.78824" lon="1.59603">
        <ele>144.7</ele>
        <time>2024-12-25T13:59:52Z</time>
      </trkpt>
      <trkpt lat="44.78824" lon="1.596">
        <ele>144.5</ele>
        <time>2024-12-25T13:59:53Z</time>
      </trkpt>
      <trkpt lat="44.78823" lon="1.59599">
        <ele>144.5</ele>
        <time>2024-12-25T13:59:54Z</time>
      </trkpt>
      <trkpt lat="44.78823" lon="1.59596">
        <ele>144.3</ele>
        <time>2024-12-25T13:59:56Z</time>
      </trkpt>
      <trkpt lat="44.78823" lon="1.59595">
        <ele>144.2</ele>
        <time>2024-12-25T13:59:57Z</time>
      </trkpt>
      <trkpt lat="44.78823" lon="1.59594">
        <ele>144.2</ele>
        <time>2024-12-25T13:59:58Z</time>
      </trkpt>
      <trkpt lat="44.78823" lon="1.59592">
        <ele>144.1</ele>
        <time>2024-12-25T13:59:59Z</time>
      </trkpt>
      <trkpt lat="44.78823" lon="1.59588">
        <ele>143.8</ele>
        <time>2024-12-25T14:00:00Z</time>
      </trkpt>
      <trkpt lat="44.78824" lon="1.59585">
        <ele>143.7</ele>
        <time>2024-12-25T14:00:01Z</time>
      </trkpt>
      <trkpt lat="44.78824" lon="1.59583">
        <ele>143.6</ele>
        <time>2024-12-25T14:00:02Z</time>
      </trkpt>
      <trkpt lat="44.78825" lon="1.59581">
        <ele>143.5</ele>
        <time>2024-12-25T14:00:03Z</time>
      </trkpt>
      <trkpt lat="44.78825" lon="1.59578">
        <ele>143.3</ele>
        <time>2024-12-25T14:00:05Z</time>
      </trkpt>
      <trkpt lat="44.78825" lon="1.59577">
        <ele>143.2</ele>
        <time>2024-12-25T14:00:06Z</time>
      </trkpt>
      <trkpt lat="44.78826" lon="1.59576">
        <ele>143.2</ele>
        <time>2024-12-25T14:00:07Z</time>
      </trkpt>
      <trkpt lat="44.78824" lon="1.59572">
        <ele>142.9</ele>
        <time>2024-12-25T14:00:09Z</time>
      </trkpt>
      <trkpt lat="44.78823" lon="1.59569">
        <ele>142.7</ele>
        <time>2024-12-25T14:00:11Z</time>
      </trkpt>
      <trkpt lat="44.78823" lon="1.59568">
        <ele>142.7</ele>
        <time>2024-12-25T14:00:12Z</time>
      </trkpt>
      <trkpt lat="44.78823" lon="1.59567">
        <ele>142.6</ele>
        <time>2024-12-25T14:00:13Z</time>
      </trkpt>
      <trkpt lat="44.78823" lon="1.59564">
        <ele>142.5</ele>
        <time>2024-12-25T14:00:14Z</time>
      </trkpt>
      <trkpt lat="44.78823" lon="1.59562">
        <ele>142.4</ele>
        <time>2024-12-25T14:00:15Z</time>
      </trkpt>
      <trkpt lat="44.78824" lon="1.5956">
        <ele>142.2</ele>
        <time>2024-12-25T14:00:16Z</time>
      </trkpt>
      <trkpt lat="44.78824" lon="1.59558">
        <ele>142.1</ele>
        <time>2024-12-25T14:00:17Z</time>
      </trkpt>
      <trkpt lat="44.78824" lon="1.59556">
        <ele>142</ele>
        <time>2024-12-25T14:00:18Z</time>
      </trkpt>
      <trkpt lat="44.78824" lon="1.59554">
        <ele>142</ele>
        <time>2024-12-25T14:00:19Z</time>
      </trkpt>
      <trkpt lat="44.78825" lon="1.59553">
        <ele>141.9</ele>
        <time>2024-12-25T14:00:20Z</time>
      </trkpt>
      <trkpt lat="44.78825" lon="1.59551">
        <ele>141.8</ele>
        <time>2024-12-25T14:00:21Z</time>
      </trkpt>
      <trkpt lat="44.78826" lon="1.59549">
        <ele>141.7</ele>
        <time>2024-12-25T14:00:22Z</time>
      </trkpt>
      <trkpt lat="44.78826" lon="1.59545">
        <ele>141.5</ele>
        <time>2024-12-25T14:00:23Z</time>
      </trkpt>
      <trkpt lat="44.78827" lon="1.59543">
        <ele>141.4</ele>
        <time>2024-12-25T14:00:24Z</time>
      </trkpt>
      <trkpt lat="44.78827" lon="1.5954">
        <ele>141.3</ele>
        <time>2024-12-25T14:00:26Z</time>
      </trkpt>
      <trkpt lat="44.78827" lon="1.59539">
        <ele>141.2</ele>
        <time>2024-12-25T14:00:27Z</time>
      </trkpt>
      <trkpt lat="44.78827" lon="1.59537">
        <ele>141.1</ele>
        <time>2024-12-25T14:00:28Z</time>
      </trkpt>
      <trkpt lat="44.78827" lon="1.59535">
        <ele>141</ele>
        <time>2024-12-25T14:00:29Z</time>
      </trkpt>
      <trkpt lat="44.78827" lon="1.59533">
        <ele>140.9</ele>
        <time>2024-12-25T14:00:30Z</time>
      </trkpt>
      <trkpt lat="44.78827" lon="1.59529">
        <ele>140.7</ele>
        <time>2024-12-25T14:00:31Z</time>
      </trkpt>
      <trkpt lat="44.78827" lon="1.59527">
        <ele>140.6</ele>
        <time>2024-12-25T14:00:33Z</time>
      </trkpt>
      <trkpt lat="44.78827" lon="1.59525">
        <ele>140.5</ele>
        <time>2024-12-25T14:00:34Z</time>
      </trkpt>
      <trkpt lat="44.78827" lon="1.59524">
        <ele>140.5</ele>
        <time>2024-12-25T14:00:35Z</time>
      </trkpt>
      <trkpt lat="44.78828" lon="1.59521">
        <ele>140.2</ele>
        <time>2024-12-25T14:00:36Z</time>
      </trkpt>
      <trkpt lat="44.78827" lon="1.59518">
        <ele>139.9</ele>
        <time>2024-12-25T14:00:37Z</time>
      </trkpt>
      <trkpt lat="44.78827" lon="1.59517">
        <ele>139.8</ele>
        <time>2024-12-25T14:00:38Z</time>
      </trkpt>
      <trkpt lat="44.78826" lon="1.59515">
        <ele>139.6</ele>
        <time>2024-12-25T14:00:40Z</time>
      </trkpt>
      <trkpt lat="44.78827" lon="1.59512">
        <ele>139.4</ele>
        <time>2024-12-25T14:00:41Z</time>
      </trkpt>
      <trkpt lat="44.78827" lon="1.5951">
        <ele>139.2</ele>
        <time>2024-12-25T14:00:42Z</time>
      </trkpt>
      <trkpt lat="44.78826" lon="1.59508">
        <ele>139</ele>
        <time>2024-12-25T14:00:43Z</time>
      </trkpt>
      <trkpt lat="44.78826" lon="1.59506">
        <ele>138.8</ele>
        <time>2024-12-25T14:00:44Z</time>
      </trkpt>
      <trkpt lat="44.78826" lon="1.59504">
        <ele>138.7</ele>
        <time>2024-12-25T14:00:45Z</time>
      </trkpt>
      <trkpt lat="44.78826" lon="1.59502">
        <ele>138.5</ele>
        <time>2024-12-25T14:00:46Z</time>
      </trkpt>
      <trkpt lat="44.78825" lon="1.595">
        <ele>138.3</ele>
        <time>2024-12-25T14:00:47Z</time>
      </trkpt>
      <trkpt lat="44.78825" lon="1.59498">
        <ele>138</ele>
        <time>2024-12-25T14:00:48Z</time>
      </trkpt>
      <trkpt lat="44.78824" lon="1.59495">
        <ele>137.8</ele>
        <time>2024-12-25T14:00:49Z</time>
      </trkpt>
      <trkpt lat="44.78824" lon="1.59494">
        <ele>137.7</ele>
        <time>2024-12-25T14:00:50Z</time>
      </trkpt>
      <trkpt lat="44.78824" lon="1.59492">
        <ele>137.6</ele>
        <time>2024-12-25T14:00:51Z</time>
      </trkpt>
      <trkpt lat="44.78823" lon="1.59491">
        <ele>137.4</ele>
        <time>2024-12-25T14:00:52Z</time>
      </trkpt>
      <trkpt lat="44.78822" lon="1.59487">
        <ele>137.1</ele>
        <time>2024-12-25T14:00:53Z</time>
      </trkpt>
      <trkpt lat="44.78822" lon="1.59485">
        <ele>136.9</ele>
        <time>2024-12-25T14:00:55Z</time>
      </trkpt>
      <trkpt lat="44.78822" lon="1.59484">
        <ele>136.7</ele>
        <time>2024-12-25T14:00:56Z</time>
      </trkpt>
      <trkpt lat="44.78821" lon="1.59482">
        <ele>136.6</ele>
        <time>2024-12-25T14:00:57Z</time>
      </trkpt>
      <trkpt lat="44.78821" lon="1.5948">
        <ele>136.4</ele>
        <time>2024-12-25T14:00:58Z</time>
      </trkpt>
      <trkpt lat="44.78821" lon="1.59478">
        <ele>136.2</ele>
        <time>2024-12-25T14:00:59Z</time>
      </trkpt>
      <trkpt lat="44.78822" lon="1.59476">
        <ele>136.1</ele>
        <time>2024-12-25T14:01:01Z</time>
      </trkpt>
      <trkpt lat="44.78822" lon="1.59473">
        <ele>135.8</ele>
        <time>2024-12-25T14:01:02Z</time>
      </trkpt>
      <trkpt lat="44.78822" lon="1.59471">
        <ele>135.7</ele>
        <time>2024-12-25T14:01:03Z</time>
      </trkpt>
      <trkpt lat="44.78822" lon="1.59469">
        <ele>135.5</ele>
        <time>2024-12-25T14:01:04Z</time>
      </trkpt>
      <trkpt lat="44.78822" lon="1.59467">
        <ele>135.3</ele>
        <time>2024-12-25T14:01:05Z</time>
      </trkpt>
      <trkpt lat="44.78823" lon="1.59466">
        <ele>135.2</ele>
        <time>2024-12-25T14:01:07Z</time>
      </trkpt>
      <trkpt lat="44.78822" lon="1.59464">
        <ele>135</ele>
        <time>2024-12-25T14:01:08Z</time>
      </trkpt>
      <trkpt lat="44.78822" lon="1.59463">
        <ele>134.9</ele>
        <time>2024-12-25T14:01:09Z</time>
      </trkpt>
      <trkpt lat="44.78823" lon="1.59462">
        <ele>134.8</ele>
        <time>2024-12-25T14:01:10Z</time>
      </trkpt>
      <trkpt lat="44.78824" lon="1.59462">
        <ele>134.7</ele>
        <time>2024-12-25T14:01:11Z</time>
      </trkpt>
      <trkpt lat="44.78824" lon="1.59461">
        <ele>134.6</ele>
        <time>2024-12-25T14:01:12Z</time>
      </trkpt>
      <trkpt lat="44.78825" lon="1.59461">
        <ele>134.5</ele>
        <time>2024-12-25T14:01:13Z</time>
      </trkpt>
      <trkpt lat="44.78826" lon="1.5946">
        <ele>134.4</ele>
        <time>2024-12-25T14:01:14Z</time>
      </trkpt>
      <trkpt lat="44.78826" lon="1.59458">
        <ele>134.2</ele>
        <time>2024-12-25T14:01:15Z</time>
      </trkpt>
      <trkpt lat="44.78826" lon="1.59457">
        <ele>134.2</ele>
        <time>2024-12-25T14:01:16Z</time>
      </trkpt>
      <trkpt lat="44.78826" lon="1.59457">
        <ele>134.1</ele>
        <time>2024-12-25T14:01:17Z</time>
      </trkpt>
      <trkpt lat="44.78826" lon="1.59456">
        <ele>134</ele>
        <time>2024-12-25T14:01:18Z</time>
      </trkpt>
      <trkpt lat="44.78826" lon="1.59455">
        <ele>133.9</ele>
        <time>2024-12-25T14:01:19Z</time>
      </trkpt>
      <trkpt lat="44.78826" lon="1.59454">
        <ele>133.8</ele>
        <time>2024-12-25T14:01:20Z</time>
      </trkpt>
      <trkpt lat="44.78826" lon="1.59453">
        <ele>133.7</ele>
        <time>2024-12-25T14:01:21Z</time>
      </trkpt>
      <trkpt lat="44.78826" lon="1.59452">
        <ele>133.7</ele>
        <time>2024-12-25T14:01:22Z</time>
      </trkpt>
      <trkpt lat="44.78826" lon="1.59451">
        <ele>133.6</ele>
        <time>2024-12-25T14:01:23Z</time>
      </trkpt>
      <trkpt lat="44.78826" lon="1.59449">
        <ele>133.5</ele>
        <time>2024-12-25T14:01:24Z</time>
      </trkpt>
      <trkpt lat="44.78826" lon="1.59448">
        <ele>133.3</ele>
        <time>2024-12-25T14:01:25Z</time>
      </trkpt>
      <trkpt lat="44.78826" lon="1.59444">
        <ele>133</ele>
        <time>2024-12-25T14:01:26Z</time>
      </trkpt>
      <trkpt lat="44.78826" lon="1.59442">
        <ele>132.9</ele>
        <time>2024-12-25T14:01:28Z</time>
      </trkpt>
      <trkpt lat="44.78826" lon="1.5944">
        <ele>132.7</ele>
        <time>2024-12-25T14:01:29Z</time>
      </trkpt>
      <trkpt lat="44.78827" lon="1.59439">
        <ele>132.6</ele>
        <time>2024-12-25T14:01:30Z</time>
      </trkpt>
      <trkpt lat="44.78827" lon="1.59436">
        <ele>132.4</ele>
        <time>2024-12-25T14:01:31Z</time>
      </trkpt>
      <trkpt lat="44.78827" lon="1.59434">
        <ele>132.3</ele>
        <time>2024-12-25T14:01:32Z</time>
      </trkpt>
      <trkpt lat="44.78827" lon="1.59432">
        <ele>132.1</ele>
        <time>2024-12-25T14:01:34Z</time>
      </trkpt>
      <trkpt lat="44.78828" lon="1.5943">
        <ele>131.9</ele>
        <time>2024-12-25T14:01:35Z</time>
      </trkpt>
      <trkpt lat="44.78828" lon="1.59428">
        <ele>131.7</ele>
        <time>2024-12-25T14:01:36Z</time>
      </trkpt>
      <trkpt lat="44.78829" lon="1.59426">
        <ele>131.6</ele>
        <time>2024-12-25T14:01:37Z</time>
      </trkpt>
      <trkpt lat="44.78829" lon="1.59424">
        <ele>131.4</ele>
        <time>2024-12-25T14:01:38Z</time>
      </trkpt>
      <trkpt lat="44.7883" lon="1.59422">
        <ele>131.3</ele>
        <time>2024-12-25T14:01:39Z</time>
      </trkpt>
      <trkpt lat="44.78831" lon="1.59419">
        <ele>131</ele>
        <time>2024-12-25T14:01:40Z</time>
      </trkpt>
      <trkpt lat="44.78831" lon="1.59417">
        <ele>130.8</ele>
        <time>2024-12-25T14:01:42Z</time>
      </trkpt>
      <trkpt lat="44.78832" lon="1.59414">
        <ele>130.6</ele>
        <time>2024-12-25T14:01:43Z</time>
      </trkpt>
      <trkpt lat="44.78832" lon="1.59413">
        <ele>130.5</ele>
        <time>2024-12-25T14:01:44Z</time>
      </trkpt>
      <trkpt lat="44.78833" lon="1.59412">
        <ele>130.4</ele>
        <time>2024-12-25T14:01:45Z</time>
      </trkpt>
      <trkpt lat="44.78833" lon="1.5941">
        <ele>130.2</ele>
        <time>2024-12-25T14:01:46Z</time>
      </trkpt>
      <trkpt lat="44.78833" lon="1.59408">
        <ele>130</ele>
        <time>2024-12-25T14:01:47Z</time>
      </trkpt>
      <trkpt lat="44.78833" lon="1.59404">
        <ele>129.7</ele>
        <time>2024-12-25T14:01:48Z</time>
      </trkpt>
      <trkpt lat="44.78833" lon="1.594">
        <ele>129.5</ele>
        <time>2024-12-25T14:01:50Z</time>
      </trkpt>
      <trkpt lat="44.78833" lon="1.59399">
        <ele>129.4</ele>
        <time>2024-12-25T14:01:51Z</time>
      </trkpt>
      <trkpt lat="44.78833" lon="1.59397">
        <ele>129.3</ele>
        <time>2024-12-25T14:01:52Z</time>
      </trkpt>
      <trkpt lat="44.78834" lon="1.59395">
        <ele>129.2</ele>
        <time>2024-12-25T14:01:53Z</time>
      </trkpt>
      <trkpt lat="44.78834" lon="1.59393">
        <ele>129</ele>
        <time>2024-12-25T14:01:54Z</time>
      </trkpt>
      <trkpt lat="44.78835" lon="1.59389">
        <ele>128.7</ele>
        <time>2024-12-25T14:01:55Z</time>
      </trkpt>
      <trkpt lat="44.78836" lon="1.59387">
        <ele>128.6</ele>
        <time>2024-12-25T14:01:56Z</time>
      </trkpt>
      <trkpt lat="44.78836" lon="1.59385">
        <ele>128.5</ele>
        <time>2024-12-25T14:01:57Z</time>
      </trkpt>
      <trkpt lat="44.78837" lon="1.59383">
        <ele>128.4</ele>
        <time>2024-12-25T14:01:59Z</time>
      </trkpt>
      <trkpt lat="44.78837" lon="1.59382">
        <ele>128.3</ele>
        <time>2024-12-25T14:02:00Z</time>
      </trkpt>
      <trkpt lat="44.78836" lon="1.59379">
        <ele>128.1</ele>
        <time>2024-12-25T14:02:01Z</time>
      </trkpt>
      <trkpt lat="44.78837" lon="1.59376">
        <ele>127.9</ele>
        <time>2024-12-25T14:02:02Z</time>
      </trkpt>
      <trkpt lat="44.78838" lon="1.59375">
        <ele>127.8</ele>
        <time>2024-12-25T14:02:04Z</time>
      </trkpt>
      <trkpt lat="44.78838" lon="1.59374">
        <ele>127.8</ele>
        <time>2024-12-25T14:02:05Z</time>
      </trkpt>
      <trkpt lat="44.78839" lon="1.59372">
        <ele>127.6</ele>
        <time>2024-12-25T14:02:06Z</time>
      </trkpt>
      <trkpt lat="44.7884" lon="1.59371">
        <ele>127.5</ele>
        <time>2024-12-25T14:02:07Z</time>
      </trkpt>
      <trkpt lat="44.78841" lon="1.59368">
        <ele>127.4</ele>
        <time>2024-12-25T14:02:08Z</time>
      </trkpt>
      <trkpt lat="44.78841" lon="1.59367">
        <ele>127.3</ele>
        <time>2024-12-25T14:02:09Z</time>
      </trkpt>
      <trkpt lat="44.78842" lon="1.59366">
        <ele>127.3</ele>
        <time>2024-12-25T14:02:10Z</time>
      </trkpt>
      <trkpt lat="44.78842" lon="1.59364">
        <ele>127.2</ele>
        <time>2024-12-25T14:02:11Z</time>
      </trkpt>
      <trkpt lat="44.78843" lon="1.59362">
        <ele>127</ele>
        <time>2024-12-25T14:02:12Z</time>
      </trkpt>
      <trkpt lat="44.78844" lon="1.59358">
        <ele>126.8</ele>
        <time>2024-12-25T14:02:13Z</time>
      </trkpt>
      <trkpt lat="44.78846" lon="1.59356">
        <ele>126.7</ele>
        <time>2024-12-25T14:02:15Z</time>
      </trkpt>
      <trkpt lat="44.78847" lon="1.59355">
        <ele>126.6</ele>
        <time>2024-12-25T14:02:16Z</time>
      </trkpt>
      <trkpt lat="44.78848" lon="1.59354">
        <ele>126.5</ele>
        <time>2024-12-25T14:02:17Z</time>
      </trkpt>
      <trkpt lat="44.78849" lon="1.59353">
        <ele>126.4</ele>
        <time>2024-12-25T14:02:18Z</time>
      </trkpt>
      <trkpt lat="44.7885" lon="1.5935">
        <ele>126.3</ele>
        <time>2024-12-25T14:02:19Z</time>
      </trkpt>
      <trkpt lat="44.78851" lon="1.59348">
        <ele>126.2</ele>
        <time>2024-12-25T14:02:20Z</time>
      </trkpt>
      <trkpt lat="44.78852" lon="1.59346">
        <ele>126.1</ele>
        <time>2024-12-25T14:02:22Z</time>
      </trkpt>
      <trkpt lat="44.78853" lon="1.59345">
        <ele>126</ele>
        <time>2024-12-25T14:02:23Z</time>
      </trkpt>
      <trkpt lat="44.78855" lon="1.59345">
        <ele>126</ele>
        <time>2024-12-25T14:02:24Z</time>
      </trkpt>
      <trkpt lat="44.78856" lon="1.59344">
        <ele>125.9</ele>
        <time>2024-12-25T14:02:25Z</time>
      </trkpt>
      <trkpt lat="44.78859" lon="1.59344">
        <ele>125.7</ele>
        <time>2024-12-25T14:02:26Z</time>
      </trkpt>
      <trkpt lat="44.7886" lon="1.59344">
        <ele>125.7</ele>
        <time>2024-12-25T14:02:27Z</time>
      </trkpt>
      <trkpt lat="44.78861" lon="1.59344">
        <ele>125.6</ele>
        <time>2024-12-25T14:02:29Z</time>
      </trkpt>
      <trkpt lat="44.78863" lon="1.59344">
        <ele>125.5</ele>
        <time>2024-12-25T14:02:30Z</time>
      </trkpt>
      <trkpt lat="44.78864" lon="1.59345">
        <ele>125.4</ele>
        <time>2024-12-25T14:02:31Z</time>
      </trkpt>
      <trkpt lat="44.78866" lon="1.59345">
        <ele>125.3</ele>
        <time>2024-12-25T14:02:32Z</time>
      </trkpt>
      <trkpt lat="44.78868" lon="1.59345">
        <ele>125.3</ele>
        <time>2024-12-25T14:02:34Z</time>
      </trkpt>
      <trkpt lat="44.78869" lon="1.59344">
        <ele>125.2</ele>
        <time>2024-12-25T14:02:35Z</time>
      </trkpt>
      <trkpt lat="44.7887" lon="1.59344">
        <ele>125.2</ele>
        <time>2024-12-25T14:02:36Z</time>
      </trkpt>
      <trkpt lat="44.78871" lon="1.59344">
        <ele>125.1</ele>
        <time>2024-12-25T14:02:37Z</time>
      </trkpt>
      <trkpt lat="44.78873" lon="1.59344">
        <ele>125</ele>
        <time>2024-12-25T14:02:38Z</time>
      </trkpt>
      <trkpt lat="44.78874" lon="1.59345">
        <ele>125</ele>
        <time>2024-12-25T14:02:39Z</time>
      </trkpt>
      <trkpt lat="44.78876" lon="1.59345">
        <ele>124.9</ele>
        <time>2024-12-25T14:02:40Z</time>
      </trkpt>
      <trkpt lat="44.78879" lon="1.59344">
        <ele>124.8</ele>
        <time>2024-12-25T14:02:41Z</time>
      </trkpt>
      <trkpt lat="44.7888" lon="1.59344">
        <ele>124.7</ele>
        <time>2024-12-25T14:02:42Z</time>
      </trkpt>
      <trkpt lat="44.78881" lon="1.59343">
        <ele>124.7</ele>
        <time>2024-12-25T14:02:43Z</time>
      </trkpt>
      <trkpt lat="44.78883" lon="1.59343">
        <ele>124.7</ele>
        <time>2024-12-25T14:02:45Z</time>
      </trkpt>
      <trkpt lat="44.78884" lon="1.59342">
        <ele>124.6</ele>
        <time>2024-12-25T14:02:46Z</time>
      </trkpt>
      <trkpt lat="44.78886" lon="1.59342">
        <ele>124.6</ele>
        <time>2024-12-25T14:02:47Z</time>
      </trkpt>
      <trkpt lat="44.78888" lon="1.59342">
        <ele>124.5</ele>
        <time>2024-12-25T14:02:48Z</time>
      </trkpt>
      <trkpt lat="44.7889" lon="1.59342">
        <ele>124.4</ele>
        <time>2024-12-25T14:02:49Z</time>
      </trkpt>
      <trkpt lat="44.78892" lon="1.59341">
        <ele>124.4</ele>
        <time>2024-12-25T14:02:51Z</time>
      </trkpt>
      <trkpt lat="44.78893" lon="1.59341">
        <ele>124.4</ele>
        <time>2024-12-25T14:02:52Z</time>
      </trkpt>
      <trkpt lat="44.78894" lon="1.5934">
        <ele>124.3</ele>
        <time>2024-12-25T14:02:53Z</time>
      </trkpt>
      <trkpt lat="44.78897" lon="1.59338">
        <ele>124.2</ele>
        <time>2024-12-25T14:02:54Z</time>
      </trkpt>
      <trkpt lat="44.78897" lon="1.59338">
        <ele>124.2</ele>
        <time>2024-12-25T14:02:55Z</time>
      </trkpt>
      <trkpt lat="44.789" lon="1.59337">
        <ele>124.2</ele>
        <time>2024-12-25T14:02:57Z</time>
      </trkpt>
      <trkpt lat="44.789" lon="1.59337">
        <ele>124.1</ele>
        <time>2024-12-25T14:02:58Z</time>
      </trkpt>
      <trkpt lat="44.78901" lon="1.59337">
        <ele>124.1</ele>
        <time>2024-12-25T14:02:59Z</time>
      </trkpt>
      <trkpt lat="44.78904" lon="1.59336">
        <ele>124.1</ele>
        <time>2024-12-25T14:03:00Z</time>
      </trkpt>
      <trkpt lat="44.78905" lon="1.59336">
        <ele>124</ele>
        <time>2024-12-25T14:03:01Z</time>
      </trkpt>
      <trkpt lat="44.78907" lon="1.59335">
        <ele>124</ele>
        <time>2024-12-25T14:03:03Z</time>
      </trkpt>
      <trkpt lat="44.78908" lon="1.59335">
        <ele>124</ele>
        <time>2024-12-25T14:03:04Z</time>
      </trkpt>
      <trkpt lat="44.78911" lon="1.59334">
        <ele>123.9</ele>
        <time>2024-12-25T14:03:05Z</time>
      </trkpt>
      <trkpt lat="44.78913" lon="1.59333">
        <ele>123.9</ele>
        <time>2024-12-25T14:03:06Z</time>
      </trkpt>
      <trkpt lat="44.78914" lon="1.59333">
        <ele>123.9</ele>
        <time>2024-12-25T14:03:07Z</time>
      </trkpt>
      <trkpt lat="44.78915" lon="1.59332">
        <ele>123.8</ele>
        <time>2024-12-25T14:03:09Z</time>
      </trkpt>
      <trkpt lat="44.78916" lon="1.59332">
        <ele>123.8</ele>
        <time>2024-12-25T14:03:10Z</time>
      </trkpt>
      <trkpt lat="44.78919" lon="1.5933">
        <ele>123.8</ele>
        <time>2024-12-25T14:03:11Z</time>
      </trkpt>
      <trkpt lat="44.7892" lon="1.5933">
        <ele>123.7</ele>
        <time>2024-12-25T14:03:12Z</time>
      </trkpt>
      <trkpt lat="44.78922" lon="1.5933">
        <ele>123.7</ele>
        <time>2024-12-25T14:03:14Z</time>
      </trkpt>
      <trkpt lat="44.78923" lon="1.5933">
        <ele>123.7</ele>
        <time>2024-12-25T14:03:15Z</time>
      </trkpt>
      <trkpt lat="44.78925" lon="1.5933">
        <ele>123.6</ele>
        <time>2024-12-25T14:03:16Z</time>
      </trkpt>
      <trkpt lat="44.78926" lon="1.59329">
        <ele>123.6</ele>
        <time>2024-12-25T14:03:17Z</time>
      </trkpt>
      <trkpt lat="44.78928" lon="1.59327">
        <ele>123.6</ele>
        <time>2024-12-25T14:03:18Z</time>
      </trkpt>
      <trkpt lat="44.78929" lon="1.59326">
        <ele>123.5</ele>
        <time>2024-12-25T14:03:19Z</time>
      </trkpt>
      <trkpt lat="44.78931" lon="1.59326">
        <ele>123.5</ele>
        <time>2024-12-25T14:03:20Z</time>
      </trkpt>
      <trkpt lat="44.78932" lon="1.59326">
        <ele>123.4</ele>
        <time>2024-12-25T14:03:21Z</time>
      </trkpt>
      <trkpt lat="44.78934" lon="1.59326">
        <ele>123.4</ele>
        <time>2024-12-25T14:03:22Z</time>
      </trkpt>
      <trkpt lat="44.78936" lon="1.59326">
        <ele>123.4</ele>
        <time>2024-12-25T14:03:24Z</time>
      </trkpt>
      <trkpt lat="44.78938" lon="1.59326">
        <ele>123.3</ele>
        <time>2024-12-25T14:03:25Z</time>
      </trkpt>
      <trkpt lat="44.78939" lon="1.59326">
        <ele>123.3</ele>
        <time>2024-12-25T14:03:26Z</time>
      </trkpt>
      <trkpt lat="44.78942" lon="1.59327">
        <ele>123.2</ele>
        <time>2024-12-25T14:03:28Z</time>
      </trkpt>
      <trkpt lat="44.78943" lon="1.59327">
        <ele>123.2</ele>
        <time>2024-12-25T14:03:29Z</time>
      </trkpt>
      <trkpt lat="44.78944" lon="1.59326">
        <ele>123.2</ele>
        <time>2024-12-25T14:03:30Z</time>
      </trkpt>
      <trkpt lat="44.78945" lon="1.59326">
        <ele>123.2</ele>
        <time>2024-12-25T14:03:31Z</time>
      </trkpt>
      <trkpt lat="44.78946" lon="1.59326">
        <ele>123.1</ele>
        <time>2024-12-25T14:03:32Z</time>
      </trkpt>
      <trkpt lat="44.78947" lon="1.59326">
        <ele>123.1</ele>
        <time>2024-12-25T14:03:33Z</time>
      </trkpt>
      <trkpt lat="44.7895" lon="1.59326">
        <ele>123</ele>
        <time>2024-12-25T14:03:34Z</time>
      </trkpt>
      <trkpt lat="44.78951" lon="1.59326">
        <ele>123</ele>
        <time>2024-12-25T14:03:35Z</time>
      </trkpt>
      <trkpt lat="44.78953" lon="1.59326">
        <ele>122.9</ele>
        <time>2024-12-25T14:03:36Z</time>
      </trkpt>
      <trkpt lat="44.78954" lon="1.59326">
        <ele>122.9</ele>
        <time>2024-12-25T14:03:38Z</time>
      </trkpt>
      <trkpt lat="44.78955" lon="1.59326">
        <ele>122.8</ele>
        <time>2024-12-25T14:03:39Z</time>
      </trkpt>
      <trkpt lat="44.78957" lon="1.59325">
        <ele>122.8</ele>
        <time>2024-12-25T14:03:40Z</time>
      </trkpt>
      <trkpt lat="44.78959" lon="1.59324">
        <ele>122.7</ele>
        <time>2024-12-25T14:03:41Z</time>
      </trkpt>
      <trkpt lat="44.78961" lon="1.59324">
        <ele>122.7</ele>
        <time>2024-12-25T14:03:43Z</time>
      </trkpt>
      <trkpt lat="44.78962" lon="1.59323">
        <ele>122.6</ele>
        <time>2024-12-25T14:03:44Z</time>
      </trkpt>
      <trkpt lat="44.78964" lon="1.59322">
        <ele>122.6</ele>
        <time>2024-12-25T14:03:45Z</time>
      </trkpt>
      <trkpt lat="44.78965" lon="1.59323">
        <ele>122.5</ele>
        <time>2024-12-25T14:03:46Z</time>
      </trkpt>
      <trkpt lat="44.78966" lon="1.59324">
        <ele>122.5</ele>
        <time>2024-12-25T14:03:47Z</time>
      </trkpt>
      <trkpt lat="44.78967" lon="1.59326">
        <ele>122.4</ele>
        <time>2024-12-25T14:03:48Z</time>
      </trkpt>
      <trkpt lat="44.78968" lon="1.59326">
        <ele>122.4</ele>
        <time>2024-12-25T14:03:49Z</time>
      </trkpt>
      <trkpt lat="44.78969" lon="1.59327">
        <ele>122.4</ele>
        <time>2024-12-25T14:03:50Z</time>
      </trkpt>
      <trkpt lat="44.7897" lon="1.59329">
        <ele>122.3</ele>
        <time>2024-12-25T14:03:51Z</time>
      </trkpt>
      <trkpt lat="44.78972" lon="1.5933">
        <ele>122.3</ele>
        <time>2024-12-25T14:03:52Z</time>
      </trkpt>
      <trkpt lat="44.78975" lon="1.5933">
        <ele>122.2</ele>
        <time>2024-12-25T14:03:53Z</time>
      </trkpt>
      <trkpt lat="44.78976" lon="1.59331">
        <ele>122.2</ele>
        <time>2024-12-25T14:03:55Z</time>
      </trkpt>
      <trkpt lat="44.78977" lon="1.59332">
        <ele>122.2</ele>
        <time>2024-12-25T14:03:56Z</time>
      </trkpt>
      <trkpt lat="44.78978" lon="1.59332">
        <ele>122.2</ele>
        <time>2024-12-25T14:03:57Z</time>
      </trkpt>
      <trkpt lat="44.78979" lon="1.59333">
        <ele>122.1</ele>
        <time>2024-12-25T14:03:58Z</time>
      </trkpt>
      <trkpt lat="44.78981" lon="1.59334">
        <ele>122.1</ele>
        <time>2024-12-25T14:03:59Z</time>
      </trkpt>
      <trkpt lat="44.78982" lon="1.59335">
        <ele>122.1</ele>
        <time>2024-12-25T14:04:00Z</time>
      </trkpt>
      <trkpt lat="44.78982" lon="1.59335">
        <ele>122.1</ele>
        <time>2024-12-25T14:04:01Z</time>
      </trkpt>
      <trkpt lat="44.78985" lon="1.59337">
        <ele>122</ele>
        <time>2024-12-25T14:04:02Z</time>
      </trkpt>
      <trkpt lat="44.78986" lon="1.59338">
        <ele>122</ele>
        <time>2024-12-25T14:04:04Z</time>
      </trkpt>
      <trkpt lat="44.78988" lon="1.59338">
        <ele>122</ele>
        <time>2024-12-25T14:04:05Z</time>
      </trkpt>
      <trkpt lat="44.78992" lon="1.59338">
        <ele>122</ele>
        <time>2024-12-25T14:04:06Z</time>
      </trkpt>
      <trkpt lat="44.78994" lon="1.59338">
        <ele>121.9</ele>
        <time>2024-12-25T14:04:08Z</time>
      </trkpt>
      <trkpt lat="44.78995" lon="1.59338">
        <ele>121.9</ele>
        <time>2024-12-25T14:04:09Z</time>
      </trkpt>
      <trkpt lat="44.78997" lon="1.59337">
        <ele>121.9</ele>
        <time>2024-12-25T14:04:10Z</time>
      </trkpt>
      <trkpt lat="44.78998" lon="1.59337">
        <ele>121.9</ele>
        <time>2024-12-25T14:04:11Z</time>
      </trkpt>
      <trkpt lat="44.78999" lon="1.59337">
        <ele>121.9</ele>
        <time>2024-12-25T14:04:12Z</time>
      </trkpt>
      <trkpt lat="44.79001" lon="1.59336">
        <ele>121.8</ele>
        <time>2024-12-25T14:04:13Z</time>
      </trkpt>
      <trkpt lat="44.79002" lon="1.59336">
        <ele>121.8</ele>
        <time>2024-12-25T14:04:14Z</time>
      </trkpt>
      <trkpt lat="44.79004" lon="1.59336">
        <ele>121.8</ele>
        <time>2024-12-25T14:04:15Z</time>
      </trkpt>
      <trkpt lat="44.79005" lon="1.59335">
        <ele>121.8</ele>
        <time>2024-12-25T14:04:17Z</time>
      </trkpt>
      <trkpt lat="44.79006" lon="1.59335">
        <ele>121.8</ele>
        <time>2024-12-25T14:04:18Z</time>
      </trkpt>
      <trkpt lat="44.79009" lon="1.59335">
        <ele>121.7</ele>
        <time>2024-12-25T14:04:19Z</time>
      </trkpt>
      <trkpt lat="44.79011" lon="1.59334">
        <ele>121.7</ele>
        <time>2024-12-25T14:04:21Z</time>
      </trkpt>
      <trkpt lat="44.79013" lon="1.59334">
        <ele>121.7</ele>
        <time>2024-12-25T14:04:22Z</time>
      </trkpt>
      <trkpt lat="44.79014" lon="1.59334">
        <ele>121.7</ele>
        <time>2024-12-25T14:04:23Z</time>
      </trkpt>
      <trkpt lat="44.79016" lon="1.59334">
        <ele>121.6</ele>
        <time>2024-12-25T14:04:25Z</time>
      </trkpt>
      <trkpt lat="44.79017" lon="1.59334">
        <ele>121.6</ele>
        <time>2024-12-25T14:04:26Z</time>
      </trkpt>
      <trkpt lat="44.79019" lon="1.59334">
        <ele>121.6</ele>
        <time>2024-12-25T14:04:27Z</time>
      </trkpt>
      <trkpt lat="44.79021" lon="1.59334">
        <ele>121.5</ele>
        <time>2024-12-25T14:04:29Z</time>
      </trkpt>
      <trkpt lat="44.79022" lon="1.59334">
        <ele>121.5</ele>
        <time>2024-12-25T14:04:30Z</time>
      </trkpt>
      <trkpt lat="44.79023" lon="1.59334">
        <ele>121.5</ele>
        <time>2024-12-25T14:04:31Z</time>
      </trkpt>
      <trkpt lat="44.79025" lon="1.59334">
        <ele>121.5</ele>
        <time>2024-12-25T14:04:32Z</time>
      </trkpt>
      <trkpt lat="44.79026" lon="1.59334">
        <ele>121.5</ele>
        <time>2024-12-25T14:04:33Z</time>
      </trkpt>
      <trkpt lat="44.79027" lon="1.59334">
        <ele>121.4</ele>
        <time>2024-12-25T14:04:34Z</time>
      </trkpt>
      <trkpt lat="44.7903" lon="1.59335">
        <ele>121.4</ele>
        <time>2024-12-25T14:04:35Z</time>
      </trkpt>
      <trkpt lat="44.79031" lon="1.59335">
        <ele>121.4</ele>
        <time>2024-12-25T14:04:36Z</time>
      </trkpt>
      <trkpt lat="44.79032" lon="1.59336">
        <ele>121.4</ele>
        <time>2024-12-25T14:04:38Z</time>
      </trkpt>
      <trkpt lat="44.79033" lon="1.59336">
        <ele>121.4</ele>
        <time>2024-12-25T14:04:39Z</time>
      </trkpt>
      <trkpt lat="44.79034" lon="1.59337">
        <ele>121.3</ele>
        <time>2024-12-25T14:04:40Z</time>
      </trkpt>
      <trkpt lat="44.79035" lon="1.59336">
        <ele>121.3</ele>
        <time>2024-12-25T14:04:41Z</time>
      </trkpt>
      <trkpt lat="44.79037" lon="1.59336">
        <ele>121.3</ele>
        <time>2024-12-25T14:04:42Z</time>
      </trkpt>
      <trkpt lat="44.79038" lon="1.59336">
        <ele>121.3</ele>
        <time>2024-12-25T14:04:43Z</time>
      </trkpt>
      <trkpt lat="44.7904" lon="1.59335">
        <ele>121.3</ele>
        <time>2024-12-25T14:04:44Z</time>
      </trkpt>
      <trkpt lat="44.79041" lon="1.59334">
        <ele>121.3</ele>
        <time>2024-12-25T14:04:45Z</time>
      </trkpt>
      <trkpt lat="44.79042" lon="1.59332">
        <ele>121.3</ele>
        <time>2024-12-25T14:04:47Z</time>
      </trkpt>
      <trkpt lat="44.79044" lon="1.59331">
        <ele>121.3</ele>
        <time>2024-12-25T14:04:48Z</time>
      </trkpt>
      <trkpt lat="44.79046" lon="1.59329">
        <ele>121.3</ele>
        <time>2024-12-25T14:04:49Z</time>
      </trkpt>
      <trkpt lat="44.79047" lon="1.59327">
        <ele>121.3</ele>
        <time>2024-12-25T14:04:51Z</time>
      </trkpt>
      <trkpt lat="44.79048" lon="1.59326">
        <ele>121.2</ele>
        <time>2024-12-25T14:04:52Z</time>
      </trkpt>
      <trkpt lat="44.79049" lon="1.59324">
        <ele>121.2</ele>
        <time>2024-12-25T14:04:53Z</time>
      </trkpt>
      <trkpt lat="44.7905" lon="1.59322">
        <ele>121.2</ele>
        <time>2024-12-25T14:04:54Z</time>
      </trkpt>
      <trkpt lat="44.79051" lon="1.59321">
        <ele>121.2</ele>
        <time>2024-12-25T14:04:55Z</time>
      </trkpt>
      <trkpt lat="44.79053" lon="1.59318">
        <ele>121.2</ele>
        <time>2024-12-25T14:04:56Z</time>
      </trkpt>
      <trkpt lat="44.79055" lon="1.59316">
        <ele>121.2</ele>
        <time>2024-12-25T14:04:58Z</time>
      </trkpt>
      <trkpt lat="44.79055" lon="1.59315">
        <ele>121.2</ele>
        <time>2024-12-25T14:04:59Z</time>
      </trkpt>
      <trkpt lat="44.79056" lon="1.59314">
        <ele>121.2</ele>
        <time>2024-12-25T14:05:00Z</time>
      </trkpt>
      <trkpt lat="44.79057" lon="1.59313">
        <ele>121.2</ele>
        <time>2024-12-25T14:05:01Z</time>
      </trkpt>
      <trkpt lat="44.79059" lon="1.59312">
        <ele>121.2</ele>
        <time>2024-12-25T14:05:02Z</time>
      </trkpt>
      <trkpt lat="44.79059" lon="1.59311">
        <ele>121.2</ele>
        <time>2024-12-25T14:05:03Z</time>
      </trkpt>
      <trkpt lat="44.7906" lon="1.5931">
        <ele>121.2</ele>
        <time>2024-12-25T14:05:04Z</time>
      </trkpt>
      <trkpt lat="44.79062" lon="1.59307">
        <ele>121.1</ele>
        <time>2024-12-25T14:05:05Z</time>
      </trkpt>
      <trkpt lat="44.79063" lon="1.59305">
        <ele>121.1</ele>
        <time>2024-12-25T14:05:07Z</time>
      </trkpt>
      <trkpt lat="44.79064" lon="1.59304">
        <ele>121.1</ele>
        <time>2024-12-25T14:05:08Z</time>
      </trkpt>
      <trkpt lat="44.79065" lon="1.59303">
        <ele>121.1</ele>
        <time>2024-12-25T14:05:09Z</time>
      </trkpt>
      <trkpt lat="44.79066" lon="1.59301">
        <ele>121.1</ele>
        <time>2024-12-25T14:05:10Z</time>
      </trkpt>
      <trkpt lat="44.79067" lon="1.593">
        <ele>121</ele>
        <time>2024-12-25T14:05:11Z</time>
      </trkpt>
      <trkpt lat="44.79068" lon="1.59298">
        <ele>121</ele>
        <time>2024-12-25T14:05:12Z</time>
      </trkpt>
      <trkpt lat="44.79069" lon="1.59297">
        <ele>121</ele>
        <time>2024-12-25T14:05:13Z</time>
      </trkpt>
      <trkpt lat="44.79069" lon="1.59296">
        <ele>121</ele>
        <time>2024-12-25T14:05:14Z</time>
      </trkpt>
      <trkpt lat="44.79071" lon="1.59293">
        <ele>121</ele>
        <time>2024-12-25T14:05:15Z</time>
      </trkpt>
      <trkpt lat="44.79071" lon="1.59292">
        <ele>120.9</ele>
        <time>2024-12-25T14:05:16Z</time>
      </trkpt>
      <trkpt lat="44.79072" lon="1.59289">
        <ele>120.9</ele>
        <time>2024-12-25T14:05:18Z</time>
      </trkpt>
      <trkpt lat="44.79073" lon="1.59288">
        <ele>120.9</ele>
        <time>2024-12-25T14:05:19Z</time>
      </trkpt>
      <trkpt lat="44.79074" lon="1.59287">
        <ele>120.9</ele>
        <time>2024-12-25T14:05:20Z</time>
      </trkpt>
      <trkpt lat="44.79075" lon="1.59286">
        <ele>120.9</ele>
        <time>2024-12-25T14:05:21Z</time>
      </trkpt>
      <trkpt lat="44.79076" lon="1.59285">
        <ele>121</ele>
        <time>2024-12-25T14:05:22Z</time>
      </trkpt>
      <trkpt lat="44.79079" lon="1.59284">
        <ele>121</ele>
        <time>2024-12-25T14:05:23Z</time>
      </trkpt>
      <trkpt lat="44.7908" lon="1.59284">
        <ele>121</ele>
        <time>2024-12-25T14:05:25Z</time>
      </trkpt>
      <trkpt lat="44.79082" lon="1.59284">
        <ele>121</ele>
        <time>2024-12-25T14:05:26Z</time>
      </trkpt>
      <trkpt lat="44.79083" lon="1.59284">
        <ele>121.1</ele>
        <time>2024-12-25T14:05:27Z</time>
      </trkpt>
      <trkpt lat="44.79084" lon="1.59284">
        <ele>121.1</ele>
        <time>2024-12-25T14:05:28Z</time>
      </trkpt>
      <trkpt lat="44.79086" lon="1.59284">
        <ele>121.1</ele>
        <time>2024-12-25T14:05:29Z</time>
      </trkpt>
      <trkpt lat="44.79087" lon="1.59284">
        <ele>121.2</ele>
        <time>2024-12-25T14:05:30Z</time>
      </trkpt>
      <trkpt lat="44.7909" lon="1.59285">
        <ele>121.3</ele>
        <time>2024-12-25T14:05:31Z</time>
      </trkpt>
      <trkpt lat="44.79091" lon="1.59285">
        <ele>121.3</ele>
        <time>2024-12-25T14:05:32Z</time>
      </trkpt>
      <trkpt lat="44.79092" lon="1.59285">
        <ele>121.4</ele>
        <time>2024-12-25T14:05:33Z</time>
      </trkpt>
      <trkpt lat="44.79093" lon="1.59285">
        <ele>121.4</ele>
        <time>2024-12-25T14:05:34Z</time>
      </trkpt>
      <trkpt lat="44.79095" lon="1.59285">
        <ele>121.5</ele>
        <time>2024-12-25T14:05:36Z</time>
      </trkpt>
      <trkpt lat="44.79097" lon="1.59283">
        <ele>121.6</ele>
        <time>2024-12-25T14:05:37Z</time>
      </trkpt>
      <trkpt lat="44.79097" lon="1.59282">
        <ele>121.6</ele>
        <time>2024-12-25T14:05:38Z</time>
      </trkpt>
      <trkpt lat="44.79098" lon="1.59281">
        <ele>121.7</ele>
        <time>2024-12-25T14:05:39Z</time>
      </trkpt>
      <trkpt lat="44.79098" lon="1.5928">
        <ele>121.8</ele>
        <time>2024-12-25T14:05:40Z</time>
      </trkpt>
      <trkpt lat="44.79099" lon="1.59278">
        <ele>121.8</ele>
        <time>2024-12-25T14:05:41Z</time>
      </trkpt>
      <trkpt lat="44.79098" lon="1.59276">
        <ele>121.9</ele>
        <time>2024-12-25T14:05:42Z</time>
      </trkpt>
      <trkpt lat="44.79099" lon="1.59274">
        <ele>122</ele>
        <time>2024-12-25T14:05:43Z</time>
      </trkpt>
      <trkpt lat="44.79101" lon="1.59274">
        <ele>122</ele>
        <time>2024-12-25T14:05:44Z</time>
      </trkpt>
      <trkpt lat="44.791" lon="1.5927">
        <ele>122.1</ele>
        <time>2024-12-25T14:05:45Z</time>
      </trkpt>
      <trkpt lat="44.791" lon="1.59268">
        <ele>122.2</ele>
        <time>2024-12-25T14:05:47Z</time>
      </trkpt>
      <trkpt lat="44.79099" lon="1.59266">
        <ele>122.2</ele>
        <time>2024-12-25T14:05:48Z</time>
      </trkpt>
      <trkpt lat="44.79099" lon="1.59264">
        <ele>122.3</ele>
        <time>2024-12-25T14:05:49Z</time>
      </trkpt>
      <trkpt lat="44.79099" lon="1.59263">
        <ele>122.3</ele>
        <time>2024-12-25T14:05:50Z</time>
      </trkpt>
      <trkpt lat="44.79099" lon="1.59262">
        <ele>122.3</ele>
        <time>2024-12-25T14:05:51Z</time>
      </trkpt>
      <trkpt lat="44.791" lon="1.5926">
        <ele>122.4</ele>
        <time>2024-12-25T14:05:52Z</time>
      </trkpt>
      <trkpt lat="44.791" lon="1.59259">
        <ele>122.4</ele>
        <time>2024-12-25T14:05:53Z</time>
      </trkpt>
      <trkpt lat="44.79101" lon="1.59259">
        <ele>122.4</ele>
        <time>2024-12-25T14:05:54Z</time>
      </trkpt>
      <trkpt lat="44.79101" lon="1.59258">
        <ele>122.4</ele>
        <time>2024-12-25T14:05:55Z</time>
      </trkpt>
      <trkpt lat="44.79101" lon="1.59258">
        <ele>122.4</ele>
        <time>2024-12-25T14:05:57Z</time>
      </trkpt>
      <trkpt lat="44.79102" lon="1.59257">
        <ele>122.4</ele>
        <time>2024-12-25T14:05:58Z</time>
      </trkpt>
      <trkpt lat="44.79102" lon="1.59255">
        <ele>122.4</ele>
        <time>2024-12-25T14:05:59Z</time>
      </trkpt>
      <trkpt lat="44.79102" lon="1.59254">
        <ele>122.4</ele>
        <time>2024-12-25T14:06:00Z</time>
      </trkpt>
      <trkpt lat="44.79103" lon="1.5925">
        <ele>122.4</ele>
        <time>2024-12-25T14:06:01Z</time>
      </trkpt>
      <trkpt lat="44.79103" lon="1.59249">
        <ele>122.4</ele>
        <time>2024-12-25T14:06:02Z</time>
      </trkpt>
      <trkpt lat="44.79103" lon="1.59248">
        <ele>122.4</ele>
        <time>2024-12-25T14:06:03Z</time>
      </trkpt>
      <trkpt lat="44.79104" lon="1.59246">
        <ele>122.4</ele>
        <time>2024-12-25T14:06:04Z</time>
      </trkpt>
      <trkpt lat="44.79105" lon="1.59245">
        <ele>122.4</ele>
        <time>2024-12-25T14:06:05Z</time>
      </trkpt>
      <trkpt lat="44.79105" lon="1.59244">
        <ele>122.4</ele>
        <time>2024-12-25T14:06:06Z</time>
      </trkpt>
      <trkpt lat="44.79107" lon="1.59242">
        <ele>122.3</ele>
        <time>2024-12-25T14:06:07Z</time>
      </trkpt>
      <trkpt lat="44.79107" lon="1.59241">
        <ele>122.3</ele>
        <time>2024-12-25T14:06:08Z</time>
      </trkpt>
      <trkpt lat="44.79108" lon="1.5924">
        <ele>122.3</ele>
        <time>2024-12-25T14:06:09Z</time>
      </trkpt>
      <trkpt lat="44.79108" lon="1.59238">
        <ele>122.3</ele>
        <time>2024-12-25T14:06:10Z</time>
      </trkpt>
      <trkpt lat="44.79109" lon="1.59237">
        <ele>122.2</ele>
        <time>2024-12-25T14:06:11Z</time>
      </trkpt>
      <trkpt lat="44.79109" lon="1.59235">
        <ele>122.2</ele>
        <time>2024-12-25T14:06:13Z</time>
      </trkpt>
      <trkpt lat="44.79109" lon="1.59233">
        <ele>122.2</ele>
        <time>2024-12-25T14:06:14Z</time>
      </trkpt>
      <trkpt lat="44.7911" lon="1.59231">
        <ele>122.2</ele>
        <time>2024-12-25T14:06:15Z</time>
      </trkpt>
      <trkpt lat="44.7911" lon="1.59229">
        <ele>122.1</ele>
        <time>2024-12-25T14:06:16Z</time>
      </trkpt>
      <trkpt lat="44.7911" lon="1.59227">
        <ele>122.1</ele>
        <time>2024-12-25T14:06:17Z</time>
      </trkpt>
      <trkpt lat="44.7911" lon="1.59222">
        <ele>122</ele>
        <time>2024-12-25T14:06:18Z</time>
      </trkpt>
      <trkpt lat="44.7911" lon="1.59218">
        <ele>122</ele>
        <time>2024-12-25T14:06:20Z</time>
      </trkpt>
      <trkpt lat="44.7911" lon="1.59217">
        <ele>122</ele>
        <time>2024-12-25T14:06:21Z</time>
      </trkpt>
      <trkpt lat="44.7911" lon="1.59216">
        <ele>122</ele>
        <time>2024-12-25T14:06:22Z</time>
      </trkpt>
      <trkpt lat="44.79109" lon="1.59214">
        <ele>122</ele>
        <time>2024-12-25T14:06:23Z</time>
      </trkpt>
      <trkpt lat="44.79117" lon="1.5921">
        <ele>121.8</ele>
        <time>2024-12-25T14:06:27Z</time>
      </trkpt>
      <trkpt lat="44.79118" lon="1.59208">
        <ele>121.8</ele>
        <time>2024-12-25T14:06:28Z</time>
      </trkpt>
      <trkpt lat="44.79118" lon="1.59206">
        <ele>121.8</ele>
        <time>2024-12-25T14:06:29Z</time>
      </trkpt>
      <trkpt lat="44.79118" lon="1.59204">
        <ele>121.8</ele>
        <time>2024-12-25T14:06:30Z</time>
      </trkpt>
      <trkpt lat="44.79119" lon="1.59202">
        <ele>121.8</ele>
        <time>2024-12-25T14:06:31Z</time>
      </trkpt>
      <trkpt lat="44.79119" lon="1.592">
        <ele>121.8</ele>
        <time>2024-12-25T14:06:32Z</time>
      </trkpt>
      <trkpt lat="44.7912" lon="1.59199">
        <ele>121.8</ele>
        <time>2024-12-25T14:06:33Z</time>
      </trkpt>
      <trkpt lat="44.79119" lon="1.59199">
        <ele>121.7</ele>
        <time>2024-12-25T14:06:34Z</time>
      </trkpt>
      <trkpt lat="44.79119" lon="1.59197">
        <ele>121.7</ele>
        <time>2024-12-25T14:06:35Z</time>
      </trkpt>
      <trkpt lat="44.7912" lon="1.59193">
        <ele>121.7</ele>
        <time>2024-12-25T14:06:37Z</time>
      </trkpt>
      <trkpt lat="44.79121" lon="1.59192">
        <ele>121.7</ele>
        <time>2024-12-25T14:06:38Z</time>
      </trkpt>
      <trkpt lat="44.79122" lon="1.59188">
        <ele>121.7</ele>
        <time>2024-12-25T14:06:39Z</time>
      </trkpt>
      <trkpt lat="44.79123" lon="1.59187">
        <ele>121.7</ele>
        <time>2024-12-25T14:06:40Z</time>
      </trkpt>
      <trkpt lat="44.79123" lon="1.59185">
        <ele>121.7</ele>
        <time>2024-12-25T14:06:41Z</time>
      </trkpt>
      <trkpt lat="44.79124" lon="1.59183">
        <ele>121.6</ele>
        <time>2024-12-25T14:06:42Z</time>
      </trkpt>
      <trkpt lat="44.79125" lon="1.59181">
        <ele>121.6</ele>
        <time>2024-12-25T14:06:43Z</time>
      </trkpt>
      <trkpt lat="44.79126" lon="1.59177">
        <ele>121.6</ele>
        <time>2024-12-25T14:06:44Z</time>
      </trkpt>
      <trkpt lat="44.79127" lon="1.59175">
        <ele>121.6</ele>
        <time>2024-12-25T14:06:46Z</time>
      </trkpt>
      <trkpt lat="44.79127" lon="1.59174">
        <ele>121.6</ele>
        <time>2024-12-25T14:06:47Z</time>
      </trkpt>
      <trkpt lat="44.79128" lon="1.59172">
        <ele>121.6</ele>
        <time>2024-12-25T14:06:48Z</time>
      </trkpt>
      <trkpt lat="44.79128" lon="1.59169">
        <ele>121.6</ele>
        <time>2024-12-25T14:06:49Z</time>
      </trkpt>
      <trkpt lat="44.79129" lon="1.59165">
        <ele>121.5</ele>
        <time>2024-12-25T14:06:51Z</time>
      </trkpt>
      <trkpt lat="44.7913" lon="1.59164">
        <ele>121.5</ele>
        <time>2024-12-25T14:06:52Z</time>
      </trkpt>
      <trkpt lat="44.79131" lon="1.59162">
        <ele>121.5</ele>
        <time>2024-12-25T14:06:53Z</time>
      </trkpt>
      <trkpt lat="44.79132" lon="1.5916">
        <ele>121.5</ele>
        <time>2024-12-25T14:06:54Z</time>
      </trkpt>
      <trkpt lat="44.79132" lon="1.59159">
        <ele>121.4</ele>
        <time>2024-12-25T14:06:56Z</time>
      </trkpt>
      <trkpt lat="44.79133" lon="1.59157">
        <ele>121.4</ele>
        <time>2024-12-25T14:06:57Z</time>
      </trkpt>
      <trkpt lat="44.79133" lon="1.59156">
        <ele>121.4</ele>
        <time>2024-12-25T14:06:58Z</time>
      </trkpt>
      <trkpt lat="44.79134" lon="1.59152">
        <ele>121.4</ele>
        <time>2024-12-25T14:06:59Z</time>
      </trkpt>
      <trkpt lat="44.79135" lon="1.59148">
        <ele>121.3</ele>
        <time>2024-12-25T14:07:01Z</time>
      </trkpt>
      <trkpt lat="44.79136" lon="1.59147">
        <ele>121.3</ele>
        <time>2024-12-25T14:07:02Z</time>
      </trkpt>
      <trkpt lat="44.79137" lon="1.59145">
        <ele>121.3</ele>
        <time>2024-12-25T14:07:03Z</time>
      </trkpt>
      <trkpt lat="44.79137" lon="1.59143">
        <ele>121.3</ele>
        <time>2024-12-25T14:07:04Z</time>
      </trkpt>
      <trkpt lat="44.79138" lon="1.59142">
        <ele>121.3</ele>
        <time>2024-12-25T14:07:05Z</time>
      </trkpt>
      <trkpt lat="44.79139" lon="1.59139">
        <ele>121.2</ele>
        <time>2024-12-25T14:07:07Z</time>
      </trkpt>
      <trkpt lat="44.7914" lon="1.59139">
        <ele>121.2</ele>
        <time>2024-12-25T14:07:08Z</time>
      </trkpt>
      <trkpt lat="44.79139" lon="1.59134">
        <ele>121.1</ele>
        <time>2024-12-25T14:07:09Z</time>
      </trkpt>
      <trkpt lat="44.79139" lon="1.59132">
        <ele>121.1</ele>
        <time>2024-12-25T14:07:10Z</time>
      </trkpt>
      <trkpt lat="44.79139" lon="1.5913">
        <ele>121.1</ele>
        <time>2024-12-25T14:07:11Z</time>
      </trkpt>
      <trkpt lat="44.79139" lon="1.59128">
        <ele>121.1</ele>
        <time>2024-12-25T14:07:12Z</time>
      </trkpt>
      <trkpt lat="44.7914" lon="1.59126">
        <ele>121</ele>
        <time>2024-12-25T14:07:13Z</time>
      </trkpt>
      <trkpt lat="44.7914" lon="1.59125">
        <ele>121</ele>
        <time>2024-12-25T14:07:14Z</time>
      </trkpt>
      <trkpt lat="44.7914" lon="1.59123">
        <ele>121</ele>
        <time>2024-12-25T14:07:15Z</time>
      </trkpt>
      <trkpt lat="44.7914" lon="1.59126">
        <ele>121</ele>
        <time>2024-12-25T14:07:16Z</time>
      </trkpt>
      <trkpt lat="44.79139" lon="1.59131">
        <ele>120.9</ele>
        <time>2024-12-25T14:07:17Z</time>
      </trkpt>
      <trkpt lat="44.79138" lon="1.59135">
        <ele>120.8</ele>
        <time>2024-12-25T14:07:18Z</time>
      </trkpt>
      <trkpt lat="44.79138" lon="1.59135">
        <ele>120.8</ele>
        <time>2024-12-25T14:07:19Z</time>
      </trkpt>
      <trkpt lat="44.79138" lon="1.59134">
        <ele>120.8</ele>
        <time>2024-12-25T14:07:20Z</time>
      </trkpt>
      <trkpt lat="44.79146" lon="1.59109">
        <ele>120.6</ele>
        <time>2024-12-25T14:07:24Z</time>
      </trkpt>
      <trkpt lat="44.79147" lon="1.59108">
        <ele>120.6</ele>
        <time>2024-12-25T14:07:25Z</time>
      </trkpt>
      <trkpt lat="44.79148" lon="1.59107">
        <ele>120.6</ele>
        <time>2024-12-25T14:07:26Z</time>
      </trkpt>
      <trkpt lat="44.79149" lon="1.59106">
        <ele>120.6</ele>
        <time>2024-12-25T14:07:27Z</time>
      </trkpt>
      <trkpt lat="44.7915" lon="1.59105">
        <ele>120.6</ele>
        <time>2024-12-25T14:07:28Z</time>
      </trkpt>
      <trkpt lat="44.79151" lon="1.59104">
        <ele>120.6</ele>
        <time>2024-12-25T14:07:29Z</time>
      </trkpt>
      <trkpt lat="44.79152" lon="1.59103">
        <ele>120.6</ele>
        <time>2024-12-25T14:07:30Z</time>
      </trkpt>
      <trkpt lat="44.79153" lon="1.59103">
        <ele>120.6</ele>
        <time>2024-12-25T14:07:31Z</time>
      </trkpt>
      <trkpt lat="44.79155" lon="1.59102">
        <ele>120.7</ele>
        <time>2024-12-25T14:07:32Z</time>
      </trkpt>
      <trkpt lat="44.79157" lon="1.59101">
        <ele>120.7</ele>
        <time>2024-12-25T14:07:33Z</time>
      </trkpt>
      <trkpt lat="44.79158" lon="1.591">
        <ele>120.7</ele>
        <time>2024-12-25T14:07:34Z</time>
      </trkpt>
      <trkpt lat="44.79158" lon="1.591">
        <ele>120.7</ele>
        <time>2024-12-25T14:07:35Z</time>
      </trkpt>
      <trkpt lat="44.7916" lon="1.59099">
        <ele>120.7</ele>
        <time>2024-12-25T14:07:36Z</time>
      </trkpt>
      <trkpt lat="44.7916" lon="1.59094">
        <ele>120.7</ele>
        <time>2024-12-25T14:07:38Z</time>
      </trkpt>
      <trkpt lat="44.79161" lon="1.59092">
        <ele>120.7</ele>
        <time>2024-12-25T14:07:40Z</time>
      </trkpt>
      <trkpt lat="44.79162" lon="1.59091">
        <ele>120.7</ele>
        <time>2024-12-25T14:07:41Z</time>
      </trkpt>
      <trkpt lat="44.79163" lon="1.59089">
        <ele>120.7</ele>
        <time>2024-12-25T14:07:42Z</time>
      </trkpt>
      <trkpt lat="44.79164" lon="1.59088">
        <ele>120.8</ele>
        <time>2024-12-25T14:07:43Z</time>
      </trkpt>
      <trkpt lat="44.79166" lon="1.59086">
        <ele>120.8</ele>
        <time>2024-12-25T14:07:44Z</time>
      </trkpt>
      <trkpt lat="44.79167" lon="1.59085">
        <ele>120.8</ele>
        <time>2024-12-25T14:07:45Z</time>
      </trkpt>
      <trkpt lat="44.79168" lon="1.59083">
        <ele>120.7</ele>
        <time>2024-12-25T14:07:46Z</time>
      </trkpt>
      <trkpt lat="44.7917" lon="1.59082">
        <ele>120.7</ele>
        <time>2024-12-25T14:07:47Z</time>
      </trkpt>
      <trkpt lat="44.79171" lon="1.59082">
        <ele>120.7</ele>
        <time>2024-12-25T14:07:48Z</time>
      </trkpt>
      <trkpt lat="44.79173" lon="1.59081">
        <ele>120.7</ele>
        <time>2024-12-25T14:07:50Z</time>
      </trkpt>
      <trkpt lat="44.79174" lon="1.5908">
        <ele>120.7</ele>
        <time>2024-12-25T14:07:51Z</time>
      </trkpt>
      <trkpt lat="44.79176" lon="1.59077">
        <ele>120.7</ele>
        <time>2024-12-25T14:07:52Z</time>
      </trkpt>
      <trkpt lat="44.79177" lon="1.59076">
        <ele>120.7</ele>
        <time>2024-12-25T14:07:54Z</time>
      </trkpt>
      <trkpt lat="44.79179" lon="1.59075">
        <ele>120.7</ele>
        <time>2024-12-25T14:07:55Z</time>
      </trkpt>
      <trkpt lat="44.79182" lon="1.59072">
        <ele>120.6</ele>
        <time>2024-12-25T14:07:56Z</time>
      </trkpt>
      <trkpt lat="44.79184" lon="1.59071">
        <ele>120.6</ele>
        <time>2024-12-25T14:07:57Z</time>
      </trkpt>
      <trkpt lat="44.79185" lon="1.59069">
        <ele>120.6</ele>
        <time>2024-12-25T14:07:59Z</time>
      </trkpt>
      <trkpt lat="44.79186" lon="1.59069">
        <ele>120.6</ele>
        <time>2024-12-25T14:08:00Z</time>
      </trkpt>
      <trkpt lat="44.79188" lon="1.59066">
        <ele>120.6</ele>
        <time>2024-12-25T14:08:01Z</time>
      </trkpt>
      <trkpt lat="44.79188" lon="1.59064">
        <ele>120.6</ele>
        <time>2024-12-25T14:08:03Z</time>
      </trkpt>
      <trkpt lat="44.79189" lon="1.59062">
        <ele>120.6</ele>
        <time>2024-12-25T14:08:04Z</time>
      </trkpt>
      <trkpt lat="44.79189" lon="1.5906">
        <ele>120.6</ele>
        <time>2024-12-25T14:08:05Z</time>
      </trkpt>
      <trkpt lat="44.7919" lon="1.59056">
        <ele>120.6</ele>
        <time>2024-12-25T14:08:06Z</time>
      </trkpt>
      <trkpt lat="44.79191" lon="1.59053">
        <ele>120.5</ele>
        <time>2024-12-25T14:08:08Z</time>
      </trkpt>
      <trkpt lat="44.79192" lon="1.59051">
        <ele>120.5</ele>
        <time>2024-12-25T14:08:09Z</time>
      </trkpt>
      <trkpt lat="44.79192" lon="1.59049">
        <ele>120.5</ele>
        <time>2024-12-25T14:08:10Z</time>
      </trkpt>
      <trkpt lat="44.79193" lon="1.59048">
        <ele>120.5</ele>
        <time>2024-12-25T14:08:11Z</time>
      </trkpt>
      <trkpt lat="44.79194" lon="1.59046">
        <ele>120.5</ele>
        <time>2024-12-25T14:08:13Z</time>
      </trkpt>
      <trkpt lat="44.79194" lon="1.59044">
        <ele>120.5</ele>
        <time>2024-12-25T14:08:14Z</time>
      </trkpt>
      <trkpt lat="44.79194" lon="1.59043">
        <ele>120.5</ele>
        <time>2024-12-25T14:08:15Z</time>
      </trkpt>
      <trkpt lat="44.79194" lon="1.59041">
        <ele>120.5</ele>
        <time>2024-12-25T14:08:16Z</time>
      </trkpt>
      <trkpt lat="44.79196" lon="1.59038">
        <ele>120.5</ele>
        <time>2024-12-25T14:08:17Z</time>
      </trkpt>
      <trkpt lat="44.79197" lon="1.59035">
        <ele>120.5</ele>
        <time>2024-12-25T14:08:18Z</time>
      </trkpt>
      <trkpt lat="44.79198" lon="1.59034">
        <ele>120.5</ele>
        <time>2024-12-25T14:08:20Z</time>
      </trkpt>
      <trkpt lat="44.79199" lon="1.59033">
        <ele>120.5</ele>
        <time>2024-12-25T14:08:21Z</time>
      </trkpt>
      <trkpt lat="44.792" lon="1.59029">
        <ele>120.5</ele>
        <time>2024-12-25T14:08:22Z</time>
      </trkpt>
      <trkpt lat="44.792" lon="1.59025">
        <ele>120.5</ele>
        <time>2024-12-25T14:08:23Z</time>
      </trkpt>
      <trkpt lat="44.792" lon="1.59023">
        <ele>120.5</ele>
        <time>2024-12-25T14:08:25Z</time>
      </trkpt>
      <trkpt lat="44.792" lon="1.59021">
        <ele>120.5</ele>
        <time>2024-12-25T14:08:26Z</time>
      </trkpt>
      <trkpt lat="44.792" lon="1.59019">
        <ele>120.6</ele>
        <time>2024-12-25T14:08:27Z</time>
      </trkpt>
      <trkpt lat="44.792" lon="1.59018">
        <ele>120.6</ele>
        <time>2024-12-25T14:08:29Z</time>
      </trkpt>
      <trkpt lat="44.792" lon="1.59015">
        <ele>120.6</ele>
        <time>2024-12-25T14:08:30Z</time>
      </trkpt>
      <trkpt lat="44.792" lon="1.59012">
        <ele>120.6</ele>
        <time>2024-12-25T14:08:31Z</time>
      </trkpt>
      <trkpt lat="44.79199" lon="1.59009">
        <ele>120.6</ele>
        <time>2024-12-25T14:08:32Z</time>
      </trkpt>
      <trkpt lat="44.79198" lon="1.59006">
        <ele>120.6</ele>
        <time>2024-12-25T14:08:34Z</time>
      </trkpt>
      <trkpt lat="44.79198" lon="1.59005">
        <ele>120.6</ele>
        <time>2024-12-25T14:08:35Z</time>
      </trkpt>
      <trkpt lat="44.79197" lon="1.59002">
        <ele>120.6</ele>
        <time>2024-12-25T14:08:36Z</time>
      </trkpt>
      <trkpt lat="44.79196" lon="1.59001">
        <ele>120.6</ele>
        <time>2024-12-25T14:08:38Z</time>
      </trkpt>
      <trkpt lat="44.79195" lon="1.58998">
        <ele>120.6</ele>
        <time>2024-12-25T14:08:39Z</time>
      </trkpt>
      <trkpt lat="44.79194" lon="1.58997">
        <ele>120.6</ele>
        <time>2024-12-25T14:08:40Z</time>
      </trkpt>
      <trkpt lat="44.79194" lon="1.58996">
        <ele>120.6</ele>
        <time>2024-12-25T14:08:41Z</time>
      </trkpt>
      <trkpt lat="44.79193" lon="1.58994">
        <ele>120.6</ele>
        <time>2024-12-25T14:08:42Z</time>
      </trkpt>
      <trkpt lat="44.79193" lon="1.58993">
        <ele>120.6</ele>
        <time>2024-12-25T14:08:43Z</time>
      </trkpt>
      <trkpt lat="44.79192" lon="1.58991">
        <ele>120.6</ele>
        <time>2024-12-25T14:08:44Z</time>
      </trkpt>
      <trkpt lat="44.79192" lon="1.58989">
        <ele>120.6</ele>
        <time>2024-12-25T14:08:45Z</time>
      </trkpt>
      <trkpt lat="44.79191" lon="1.58986">
        <ele>120.6</ele>
        <time>2024-12-25T14:08:46Z</time>
      </trkpt>
      <trkpt lat="44.7919" lon="1.58984">
        <ele>120.5</ele>
        <time>2024-12-25T14:08:48Z</time>
      </trkpt>
      <trkpt lat="44.7919" lon="1.58982">
        <ele>120.5</ele>
        <time>2024-12-25T14:08:49Z</time>
      </trkpt>
      <trkpt lat="44.7919" lon="1.5898">
        <ele>120.5</ele>
        <time>2024-12-25T14:08:50Z</time>
      </trkpt>
      <trkpt lat="44.79189" lon="1.58977">
        <ele>120.5</ele>
        <time>2024-12-25T14:08:51Z</time>
      </trkpt>
      <trkpt lat="44.79189" lon="1.58975">
        <ele>120.4</ele>
        <time>2024-12-25T14:08:52Z</time>
      </trkpt>
      <trkpt lat="44.79189" lon="1.58974">
        <ele>120.4</ele>
        <time>2024-12-25T14:08:53Z</time>
      </trkpt>
      <trkpt lat="44.79188" lon="1.58973">
        <ele>120.4</ele>
        <time>2024-12-25T14:08:54Z</time>
      </trkpt>
      <trkpt lat="44.79188" lon="1.58971">
        <ele>120.4</ele>
        <time>2024-12-25T14:08:55Z</time>
      </trkpt>
      <trkpt lat="44.79188" lon="1.5897">
        <ele>120.4</ele>
        <time>2024-12-25T14:08:56Z</time>
      </trkpt>
      <trkpt lat="44.79187" lon="1.58968">
        <ele>120.3</ele>
        <time>2024-12-25T14:08:57Z</time>
      </trkpt>
      <trkpt lat="44.79186" lon="1.58966">
        <ele>120.3</ele>
        <time>2024-12-25T14:08:58Z</time>
      </trkpt>
      <trkpt lat="44.79186" lon="1.58965">
        <ele>120.3</ele>
        <time>2024-12-25T14:08:59Z</time>
      </trkpt>
      <trkpt lat="44.79184" lon="1.58963">
        <ele>120.3</ele>
        <time>2024-12-25T14:09:00Z</time>
      </trkpt>
      <trkpt lat="44.79183" lon="1.58961">
        <ele>120.2</ele>
        <time>2024-12-25T14:09:02Z</time>
      </trkpt>
      <trkpt lat="44.79183" lon="1.58961">
        <ele>120.2</ele>
        <time>2024-12-25T14:09:03Z</time>
      </trkpt>
      <trkpt lat="44.79182" lon="1.58959">
        <ele>120.2</ele>
        <time>2024-12-25T14:09:04Z</time>
      </trkpt>
      <trkpt lat="44.79182" lon="1.58958">
        <ele>120.2</ele>
        <time>2024-12-25T14:09:06Z</time>
      </trkpt>
      <trkpt lat="44.79181" lon="1.58957">
        <ele>120.2</ele>
        <time>2024-12-25T14:09:07Z</time>
      </trkpt>
      <trkpt lat="44.79181" lon="1.58956">
        <ele>120.2</ele>
        <time>2024-12-25T14:09:08Z</time>
      </trkpt>
      <trkpt lat="44.79181" lon="1.58954">
        <ele>120.2</ele>
        <time>2024-12-25T14:09:09Z</time>
      </trkpt>
      <trkpt lat="44.79181" lon="1.58953">
        <ele>120.1</ele>
        <time>2024-12-25T14:09:11Z</time>
      </trkpt>
      <trkpt lat="44.79181" lon="1.58952">
        <ele>120.1</ele>
        <time>2024-12-25T14:09:12Z</time>
      </trkpt>
      <trkpt lat="44.79181" lon="1.5895">
        <ele>120.1</ele>
        <time>2024-12-25T14:09:13Z</time>
      </trkpt>
      <trkpt lat="44.79181" lon="1.58948">
        <ele>120.1</ele>
        <time>2024-12-25T14:09:14Z</time>
      </trkpt>
      <trkpt lat="44.7918" lon="1.58946">
        <ele>120.1</ele>
        <time>2024-12-25T14:09:16Z</time>
      </trkpt>
      <trkpt lat="44.7918" lon="1.58945">
        <ele>120.1</ele>
        <time>2024-12-25T14:09:17Z</time>
      </trkpt>
      <trkpt lat="44.7918" lon="1.58943">
        <ele>120</ele>
        <time>2024-12-25T14:09:18Z</time>
      </trkpt>
      <trkpt lat="44.7918" lon="1.58942">
        <ele>120</ele>
        <time>2024-12-25T14:09:19Z</time>
      </trkpt>
      <trkpt lat="44.79181" lon="1.58938">
        <ele>120</ele>
        <time>2024-12-25T14:09:20Z</time>
      </trkpt>
      <trkpt lat="44.79181" lon="1.58937">
        <ele>120</ele>
        <time>2024-12-25T14:09:22Z</time>
      </trkpt>
      <trkpt lat="44.79181" lon="1.58935">
        <ele>120</ele>
        <time>2024-12-25T14:09:23Z</time>
      </trkpt>
      <trkpt lat="44.79181" lon="1.58934">
        <ele>120</ele>
        <time>2024-12-25T14:09:24Z</time>
      </trkpt>
      <trkpt lat="44.79182" lon="1.5893">
        <ele>120</ele>
        <time>2024-12-25T14:09:25Z</time>
      </trkpt>
      <trkpt lat="44.79182" lon="1.58928">
        <ele>120</ele>
        <time>2024-12-25T14:09:27Z</time>
      </trkpt>
      <trkpt lat="44.79182" lon="1.58927">
        <ele>120</ele>
        <time>2024-12-25T14:09:28Z</time>
      </trkpt>
      <trkpt lat="44.79182" lon="1.58925">
        <ele>120</ele>
        <time>2024-12-25T14:09:29Z</time>
      </trkpt>
      <trkpt lat="44.79182" lon="1.58923">
        <ele>120</ele>
        <time>2024-12-25T14:09:30Z</time>
      </trkpt>
      <trkpt lat="44.79182" lon="1.58922">
        <ele>120</ele>
        <time>2024-12-25T14:09:31Z</time>
      </trkpt>
      <trkpt lat="44.79181" lon="1.58919">
        <ele>120</ele>
        <time>2024-12-25T14:09:32Z</time>
      </trkpt>
      <trkpt lat="44.79181" lon="1.58918">
        <ele>120</ele>
        <time>2024-12-25T14:09:33Z</time>
      </trkpt>
      <trkpt lat="44.79181" lon="1.58916">
        <ele>120</ele>
        <time>2024-12-25T14:09:34Z</time>
      </trkpt>
      <trkpt lat="44.79181" lon="1.58915">
        <ele>120</ele>
        <time>2024-12-25T14:09:35Z</time>
      </trkpt>
      <trkpt lat="44.7918" lon="1.58911">
        <ele>120</ele>
        <time>2024-12-25T14:09:36Z</time>
      </trkpt>
      <trkpt lat="44.7918" lon="1.58908">
        <ele>120</ele>
        <time>2024-12-25T14:09:38Z</time>
      </trkpt>
      <trkpt lat="44.79179" lon="1.58906">
        <ele>120</ele>
        <time>2024-12-25T14:09:39Z</time>
      </trkpt>
      <trkpt lat="44.79179" lon="1.58903">
        <ele>120</ele>
        <time>2024-12-25T14:09:40Z</time>
      </trkpt>
      <trkpt lat="44.79178" lon="1.58899">
        <ele>120</ele>
        <time>2024-12-25T14:09:41Z</time>
      </trkpt>
      <trkpt lat="44.79178" lon="1.58897">
        <ele>120</ele>
        <time>2024-12-25T14:09:42Z</time>
      </trkpt>
      <trkpt lat="44.79178" lon="1.58896">
        <ele>120</ele>
        <time>2024-12-25T14:09:43Z</time>
      </trkpt>
      <trkpt lat="44.79177" lon="1.58896">
        <ele>120</ele>
        <time>2024-12-25T14:09:44Z</time>
      </trkpt>
      <trkpt lat="44.79178" lon="1.5889">
        <ele>120</ele>
        <time>2024-12-25T14:09:45Z</time>
      </trkpt>
      <trkpt lat="44.79177" lon="1.58887">
        <ele>120</ele>
        <time>2024-12-25T14:09:47Z</time>
      </trkpt>
      <trkpt lat="44.79177" lon="1.58885">
        <ele>120</ele>
        <time>2024-12-25T14:09:48Z</time>
      </trkpt>
      <trkpt lat="44.79176" lon="1.58883">
        <ele>119.9</ele>
        <time>2024-12-25T14:09:49Z</time>
      </trkpt>
      <trkpt lat="44.79176" lon="1.5888">
        <ele>119.9</ele>
        <time>2024-12-25T14:09:50Z</time>
      </trkpt>
      <trkpt lat="44.79175" lon="1.58878">
        <ele>119.9</ele>
        <time>2024-12-25T14:09:52Z</time>
      </trkpt>
      <trkpt lat="44.79175" lon="1.58873">
        <ele>119.9</ele>
        <time>2024-12-25T14:09:53Z</time>
      </trkpt>
      <trkpt lat="44.79175" lon="1.58871">
        <ele>119.9</ele>
        <time>2024-12-25T14:09:54Z</time>
      </trkpt>
      <trkpt lat="44.79175" lon="1.58868">
        <ele>119.9</ele>
        <time>2024-12-25T14:09:55Z</time>
      </trkpt>
      <trkpt lat="44.79175" lon="1.58866">
        <ele>119.9</ele>
        <time>2024-12-25T14:09:57Z</time>
      </trkpt>
      <trkpt lat="44.79175" lon="1.58865">
        <ele>119.9</ele>
        <time>2024-12-25T14:09:58Z</time>
      </trkpt>
      <trkpt lat="44.79175" lon="1.58863">
        <ele>119.9</ele>
        <time>2024-12-25T14:09:59Z</time>
      </trkpt>
      <trkpt lat="44.79176" lon="1.5886">
        <ele>119.8</ele>
        <time>2024-12-25T14:10:00Z</time>
      </trkpt>
      <trkpt lat="44.79176" lon="1.58857">
        <ele>119.8</ele>
        <time>2024-12-25T14:10:01Z</time>
      </trkpt>
      <trkpt lat="44.79176" lon="1.58856">
        <ele>119.8</ele>
        <time>2024-12-25T14:10:02Z</time>
      </trkpt>
      <trkpt lat="44.79176" lon="1.58855">
        <ele>119.8</ele>
        <time>2024-12-25T14:10:03Z</time>
      </trkpt>
      <trkpt lat="44.79176" lon="1.58853">
        <ele>119.8</ele>
        <time>2024-12-25T14:10:04Z</time>
      </trkpt>
      <trkpt lat="44.79176" lon="1.58851">
        <ele>119.8</ele>
        <time>2024-12-25T14:10:05Z</time>
      </trkpt>
      <trkpt lat="44.79176" lon="1.58848">
        <ele>119.7</ele>
        <time>2024-12-25T14:10:06Z</time>
      </trkpt>
      <trkpt lat="44.79176" lon="1.58847">
        <ele>119.7</ele>
        <time>2024-12-25T14:10:07Z</time>
      </trkpt>
      <trkpt lat="44.79176" lon="1.58845">
        <ele>119.7</ele>
        <time>2024-12-25T14:10:08Z</time>
      </trkpt>
      <trkpt lat="44.79176" lon="1.58844">
        <ele>119.7</ele>
        <time>2024-12-25T14:10:09Z</time>
      </trkpt>
      <trkpt lat="44.79176" lon="1.58841">
        <ele>119.7</ele>
        <time>2024-12-25T14:10:10Z</time>
      </trkpt>
      <trkpt lat="44.79176" lon="1.58839">
        <ele>119.7</ele>
        <time>2024-12-25T14:10:11Z</time>
      </trkpt>
      <trkpt lat="44.79176" lon="1.58837">
        <ele>119.6</ele>
        <time>2024-12-25T14:10:12Z</time>
      </trkpt>
      <trkpt lat="44.79176" lon="1.58834">
        <ele>119.6</ele>
        <time>2024-12-25T14:10:13Z</time>
      </trkpt>
      <trkpt lat="44.79175" lon="1.58832">
        <ele>119.6</ele>
        <time>2024-12-25T14:10:14Z</time>
      </trkpt>
      <trkpt lat="44.79175" lon="1.58831">
        <ele>119.6</ele>
        <time>2024-12-25T14:10:15Z</time>
      </trkpt>
      <trkpt lat="44.79175" lon="1.58828">
        <ele>119.6</ele>
        <time>2024-12-25T14:10:17Z</time>
      </trkpt>
      <trkpt lat="44.79174" lon="1.58827">
        <ele>119.6</ele>
        <time>2024-12-25T14:10:18Z</time>
      </trkpt>
      <trkpt lat="44.79173" lon="1.58824">
        <ele>119.6</ele>
        <time>2024-12-25T14:10:19Z</time>
      </trkpt>
      <trkpt lat="44.79173" lon="1.58823">
        <ele>119.6</ele>
        <time>2024-12-25T14:10:20Z</time>
      </trkpt>
      <trkpt lat="44.79172" lon="1.58821">
        <ele>119.6</ele>
        <time>2024-12-25T14:10:22Z</time>
      </trkpt>
      <trkpt lat="44.79172" lon="1.58819">
        <ele>119.6</ele>
        <time>2024-12-25T14:10:23Z</time>
      </trkpt>
      <trkpt lat="44.79172" lon="1.58815">
        <ele>119.6</ele>
        <time>2024-12-25T14:10:24Z</time>
      </trkpt>
      <trkpt lat="44.79172" lon="1.58814">
        <ele>119.6</ele>
        <time>2024-12-25T14:10:25Z</time>
      </trkpt>
      <trkpt lat="44.79172" lon="1.58812">
        <ele>119.6</ele>
        <time>2024-12-25T14:10:26Z</time>
      </trkpt>
      <trkpt lat="44.79172" lon="1.58808">
        <ele>119.6</ele>
        <time>2024-12-25T14:10:28Z</time>
      </trkpt>
      <trkpt lat="44.79172" lon="1.58807">
        <ele>119.6</ele>
        <time>2024-12-25T14:10:29Z</time>
      </trkpt>
      <trkpt lat="44.79172" lon="1.58806">
        <ele>119.6</ele>
        <time>2024-12-25T14:10:30Z</time>
      </trkpt>
      <trkpt lat="44.79172" lon="1.58804">
        <ele>119.6</ele>
        <time>2024-12-25T14:10:31Z</time>
      </trkpt>
      <trkpt lat="44.79171" lon="1.58801">
        <ele>119.6</ele>
        <time>2024-12-25T14:10:32Z</time>
      </trkpt>
      <trkpt lat="44.79171" lon="1.58799">
        <ele>119.6</ele>
        <time>2024-12-25T14:10:34Z</time>
      </trkpt>
      <trkpt lat="44.79171" lon="1.58797">
        <ele>119.6</ele>
        <time>2024-12-25T14:10:35Z</time>
      </trkpt>
      <trkpt lat="44.79171" lon="1.58794">
        <ele>119.6</ele>
        <time>2024-12-25T14:10:36Z</time>
      </trkpt>
      <trkpt lat="44.79171" lon="1.58792">
        <ele>119.6</ele>
        <time>2024-12-25T14:10:38Z</time>
      </trkpt>
      <trkpt lat="44.79171" lon="1.58791">
        <ele>119.6</ele>
        <time>2024-12-25T14:10:39Z</time>
      </trkpt>
      <trkpt lat="44.79171" lon="1.58789">
        <ele>119.6</ele>
        <time>2024-12-25T14:10:40Z</time>
      </trkpt>
      <trkpt lat="44.79172" lon="1.58786">
        <ele>119.6</ele>
        <time>2024-12-25T14:10:41Z</time>
      </trkpt>
      <trkpt lat="44.79172" lon="1.58785">
        <ele>119.7</ele>
        <time>2024-12-25T14:10:42Z</time>
      </trkpt>
      <trkpt lat="44.79172" lon="1.58784">
        <ele>119.7</ele>
        <time>2024-12-25T14:10:43Z</time>
      </trkpt>
      <trkpt lat="44.79173" lon="1.58781">
        <ele>119.7</ele>
        <time>2024-12-25T14:10:44Z</time>
      </trkpt>
      <trkpt lat="44.79173" lon="1.5878">
        <ele>119.7</ele>
        <time>2024-12-25T14:10:45Z</time>
      </trkpt>
      <trkpt lat="44.79174" lon="1.58778">
        <ele>119.7</ele>
        <time>2024-12-25T14:10:46Z</time>
      </trkpt>
      <trkpt lat="44.79174" lon="1.58775">
        <ele>119.7</ele>
        <time>2024-12-25T14:10:47Z</time>
      </trkpt>
      <trkpt lat="44.79175" lon="1.58774">
        <ele>119.6</ele>
        <time>2024-12-25T14:10:48Z</time>
      </trkpt>
      <trkpt lat="44.79175" lon="1.58773">
        <ele>119.6</ele>
        <time>2024-12-25T14:10:49Z</time>
      </trkpt>
      <trkpt lat="44.79177" lon="1.58769">
        <ele>119.6</ele>
        <time>2024-12-25T14:10:50Z</time>
      </trkpt>
      <trkpt lat="44.79177" lon="1.58767">
        <ele>119.6</ele>
        <time>2024-12-25T14:10:52Z</time>
      </trkpt>
      <trkpt lat="44.79178" lon="1.58766">
        <ele>119.6</ele>
        <time>2024-12-25T14:10:53Z</time>
      </trkpt>
      <trkpt lat="44.79178" lon="1.58763">
        <ele>119.6</ele>
        <time>2024-12-25T14:10:54Z</time>
      </trkpt>
      <trkpt lat="44.79178" lon="1.58761">
        <ele>119.6</ele>
        <time>2024-12-25T14:10:55Z</time>
      </trkpt>
      <trkpt lat="44.79178" lon="1.5876">
        <ele>119.6</ele>
        <time>2024-12-25T14:10:56Z</time>
      </trkpt>
      <trkpt lat="44.79179" lon="1.58758">
        <ele>119.6</ele>
        <time>2024-12-25T14:10:57Z</time>
      </trkpt>
      <trkpt lat="44.79179" lon="1.58756">
        <ele>119.6</ele>
        <time>2024-12-25T14:10:58Z</time>
      </trkpt>
      <trkpt lat="44.79179" lon="1.58752">
        <ele>119.6</ele>
        <time>2024-12-25T14:10:59Z</time>
      </trkpt>
      <trkpt lat="44.79179" lon="1.5875">
        <ele>119.6</ele>
        <time>2024-12-25T14:11:00Z</time>
      </trkpt>
      <trkpt lat="44.79179" lon="1.58747">
        <ele>119.6</ele>
        <time>2024-12-25T14:11:01Z</time>
      </trkpt>
      <trkpt lat="44.79179" lon="1.58743">
        <ele>119.6</ele>
        <time>2024-12-25T14:11:03Z</time>
      </trkpt>
      <trkpt lat="44.79179" lon="1.58741">
        <ele>119.6</ele>
        <time>2024-12-25T14:11:04Z</time>
      </trkpt>
      <trkpt lat="44.79179" lon="1.58739">
        <ele>119.5</ele>
        <time>2024-12-25T14:11:05Z</time>
      </trkpt>
      <trkpt lat="44.79179" lon="1.58737">
        <ele>119.5</ele>
        <time>2024-12-25T14:11:06Z</time>
      </trkpt>
      <trkpt lat="44.7918" lon="1.58735">
        <ele>119.5</ele>
        <time>2024-12-25T14:11:08Z</time>
      </trkpt>
      <trkpt lat="44.79179" lon="1.58734">
        <ele>119.5</ele>
        <time>2024-12-25T14:11:09Z</time>
      </trkpt>
      <trkpt lat="44.79179" lon="1.58733">
        <ele>119.5</ele>
        <time>2024-12-25T14:11:10Z</time>
      </trkpt>
      <trkpt lat="44.7918" lon="1.58731">
        <ele>119.5</ele>
        <time>2024-12-25T14:11:11Z</time>
      </trkpt>
      <trkpt lat="44.79179" lon="1.5873">
        <ele>119.5</ele>
        <time>2024-12-25T14:11:12Z</time>
      </trkpt>
      <trkpt lat="44.79178" lon="1.5873">
        <ele>119.5</ele>
        <time>2024-12-25T14:11:14Z</time>
      </trkpt>
      <trkpt lat="44.79177" lon="1.58729">
        <ele>119.5</ele>
        <time>2024-12-25T14:11:15Z</time>
      </trkpt>
      <trkpt lat="44.79176" lon="1.58725">
        <ele>119.5</ele>
        <time>2024-12-25T14:11:16Z</time>
      </trkpt>
      <trkpt lat="44.79175" lon="1.58721">
        <ele>119.5</ele>
        <time>2024-12-25T14:11:18Z</time>
      </trkpt>
      <trkpt lat="44.79175" lon="1.58719">
        <ele>119.5</ele>
        <time>2024-12-25T14:11:19Z</time>
      </trkpt>
      <trkpt lat="44.79175" lon="1.58717">
        <ele>119.5</ele>
        <time>2024-12-25T14:11:20Z</time>
      </trkpt>
      <trkpt lat="44.79177" lon="1.58712">
        <ele>119.5</ele>
        <time>2024-12-25T14:11:21Z</time>
      </trkpt>
      <trkpt lat="44.79177" lon="1.58711">
        <ele>119.5</ele>
        <time>2024-12-25T14:11:22Z</time>
      </trkpt>
      <trkpt lat="44.79178" lon="1.58708">
        <ele>119.4</ele>
        <time>2024-12-25T14:11:23Z</time>
      </trkpt>
      <trkpt lat="44.79178" lon="1.58706">
        <ele>119.4</ele>
        <time>2024-12-25T14:11:24Z</time>
      </trkpt>
      <trkpt lat="44.79176" lon="1.58701">
        <ele>119.4</ele>
        <time>2024-12-25T14:11:25Z</time>
      </trkpt>
      <trkpt lat="44.79175" lon="1.58698">
        <ele>119.4</ele>
        <time>2024-12-25T14:11:26Z</time>
      </trkpt>
      <trkpt lat="44.79175" lon="1.58696">
        <ele>119.3</ele>
        <time>2024-12-25T14:11:28Z</time>
      </trkpt>
      <trkpt lat="44.79174" lon="1.58693">
        <ele>119.3</ele>
        <time>2024-12-25T14:11:29Z</time>
      </trkpt>
      <trkpt lat="44.79174" lon="1.58692">
        <ele>119.3</ele>
        <time>2024-12-25T14:11:30Z</time>
      </trkpt>
      <trkpt lat="44.79173" lon="1.5869">
        <ele>119.3</ele>
        <time>2024-12-25T14:11:31Z</time>
      </trkpt>
      <trkpt lat="44.79173" lon="1.58687">
        <ele>119.3</ele>
        <time>2024-12-25T14:11:32Z</time>
      </trkpt>
      <trkpt lat="44.79173" lon="1.58686">
        <ele>119.3</ele>
        <time>2024-12-25T14:11:33Z</time>
      </trkpt>
      <trkpt lat="44.79173" lon="1.58684">
        <ele>119.3</ele>
        <time>2024-12-25T14:11:34Z</time>
      </trkpt>
      <trkpt lat="44.79172" lon="1.58682">
        <ele>119.2</ele>
        <time>2024-12-25T14:11:35Z</time>
      </trkpt>
      <trkpt lat="44.79172" lon="1.58679">
        <ele>119.2</ele>
        <time>2024-12-25T14:11:36Z</time>
      </trkpt>
      <trkpt lat="44.79171" lon="1.58675">
        <ele>119.2</ele>
        <time>2024-12-25T14:11:38Z</time>
      </trkpt>
      <trkpt lat="44.79171" lon="1.58673">
        <ele>119.2</ele>
        <time>2024-12-25T14:11:39Z</time>
      </trkpt>
      <trkpt lat="44.79171" lon="1.58672">
        <ele>119.2</ele>
        <time>2024-12-25T14:11:40Z</time>
      </trkpt>
      <trkpt lat="44.7917" lon="1.58671">
        <ele>119.2</ele>
        <time>2024-12-25T14:11:41Z</time>
      </trkpt>
      <trkpt lat="44.7917" lon="1.58667">
        <ele>119.1</ele>
        <time>2024-12-25T14:11:42Z</time>
      </trkpt>
      <trkpt lat="44.7917" lon="1.58665">
        <ele>119.1</ele>
        <time>2024-12-25T14:11:43Z</time>
      </trkpt>
      <trkpt lat="44.7917" lon="1.58663">
        <ele>119.1</ele>
        <time>2024-12-25T14:11:44Z</time>
      </trkpt>
      <trkpt lat="44.79169" lon="1.5866">
        <ele>119.1</ele>
        <time>2024-12-25T14:11:45Z</time>
      </trkpt>
      <trkpt lat="44.79169" lon="1.58659">
        <ele>119.1</ele>
        <time>2024-12-25T14:11:46Z</time>
      </trkpt>
      <trkpt lat="44.79168" lon="1.58656">
        <ele>119</ele>
        <time>2024-12-25T14:11:47Z</time>
      </trkpt>
      <trkpt lat="44.79167" lon="1.58654">
        <ele>119</ele>
        <time>2024-12-25T14:11:48Z</time>
      </trkpt>
      <trkpt lat="44.79167" lon="1.58652">
        <ele>118.9</ele>
        <time>2024-12-25T14:11:50Z</time>
      </trkpt>
      <trkpt lat="44.79166" lon="1.5865">
        <ele>118.9</ele>
        <time>2024-12-25T14:11:51Z</time>
      </trkpt>
      <trkpt lat="44.79166" lon="1.58648">
        <ele>118.9</ele>
        <time>2024-12-25T14:11:52Z</time>
      </trkpt>
      <trkpt lat="44.79165" lon="1.58647">
        <ele>118.8</ele>
        <time>2024-12-25T14:11:53Z</time>
      </trkpt>
      <trkpt lat="44.79165" lon="1.58645">
        <ele>118.8</ele>
        <time>2024-12-25T14:11:54Z</time>
      </trkpt>
      <trkpt lat="44.79164" lon="1.58644">
        <ele>118.8</ele>
        <time>2024-12-25T14:11:55Z</time>
      </trkpt>
      <trkpt lat="44.79163" lon="1.58643">
        <ele>118.7</ele>
        <time>2024-12-25T14:11:56Z</time>
      </trkpt>
      <trkpt lat="44.79163" lon="1.58642">
        <ele>118.7</ele>
        <time>2024-12-25T14:11:57Z</time>
      </trkpt>
      <trkpt lat="44.79162" lon="1.58641">
        <ele>118.7</ele>
        <time>2024-12-25T14:11:58Z</time>
      </trkpt>
      <trkpt lat="44.79161" lon="1.5864">
        <ele>118.6</ele>
        <time>2024-12-25T14:11:59Z</time>
      </trkpt>
      <trkpt lat="44.7916" lon="1.58638">
        <ele>118.6</ele>
        <time>2024-12-25T14:12:00Z</time>
      </trkpt>
      <trkpt lat="44.79159" lon="1.58635">
        <ele>118.5</ele>
        <time>2024-12-25T14:12:01Z</time>
      </trkpt>
      <trkpt lat="44.79159" lon="1.58633">
        <ele>118.5</ele>
        <time>2024-12-25T14:12:03Z</time>
      </trkpt>
      <trkpt lat="44.79158" lon="1.58632">
        <ele>118.5</ele>
        <time>2024-12-25T14:12:04Z</time>
      </trkpt>
      <trkpt lat="44.79158" lon="1.58629">
        <ele>118.4</ele>
        <time>2024-12-25T14:12:05Z</time>
      </trkpt>
      <trkpt lat="44.79158" lon="1.58627">
        <ele>118.4</ele>
        <time>2024-12-25T14:12:06Z</time>
      </trkpt>
      <trkpt lat="44.79157" lon="1.58626">
        <ele>118.3</ele>
        <time>2024-12-25T14:12:08Z</time>
      </trkpt>
      <trkpt lat="44.79156" lon="1.58625">
        <ele>118.3</ele>
        <time>2024-12-25T14:12:09Z</time>
      </trkpt>
      <trkpt lat="44.79156" lon="1.58624">
        <ele>118.3</ele>
        <time>2024-12-25T14:12:10Z</time>
      </trkpt>
      <trkpt lat="44.79155" lon="1.58623">
        <ele>118.2</ele>
        <time>2024-12-25T14:12:11Z</time>
      </trkpt>
      <trkpt lat="44.79154" lon="1.58623">
        <ele>118.2</ele>
        <time>2024-12-25T14:12:12Z</time>
      </trkpt>
      <trkpt lat="44.79152" lon="1.58621">
        <ele>118.1</ele>
        <time>2024-12-25T14:12:13Z</time>
      </trkpt>
      <trkpt lat="44.7915" lon="1.58621">
        <ele>118.1</ele>
        <time>2024-12-25T14:12:15Z</time>
      </trkpt>
      <trkpt lat="44.79149" lon="1.5862">
        <ele>118.1</ele>
        <time>2024-12-25T14:12:16Z</time>
      </trkpt>
      <trkpt lat="44.79147" lon="1.58618">
        <ele>118</ele>
        <time>2024-12-25T14:12:17Z</time>
      </trkpt>
      <trkpt lat="44.79146" lon="1.58617">
        <ele>118</ele>
        <time>2024-12-25T14:12:18Z</time>
      </trkpt>
      <trkpt lat="44.79145" lon="1.58615">
        <ele>118</ele>
        <time>2024-12-25T14:12:20Z</time>
      </trkpt>
      <trkpt lat="44.79144" lon="1.58613">
        <ele>118</ele>
        <time>2024-12-25T14:12:21Z</time>
      </trkpt>
      <trkpt lat="44.79143" lon="1.58612">
        <ele>118</ele>
        <time>2024-12-25T14:12:22Z</time>
      </trkpt>
      <trkpt lat="44.79142" lon="1.58611">
        <ele>118</ele>
        <time>2024-12-25T14:12:23Z</time>
      </trkpt>
      <trkpt lat="44.7914" lon="1.58609">
        <ele>117.9</ele>
        <time>2024-12-25T14:12:24Z</time>
      </trkpt>
      <trkpt lat="44.79139" lon="1.58608">
        <ele>117.9</ele>
        <time>2024-12-25T14:12:25Z</time>
      </trkpt>
      <trkpt lat="44.79138" lon="1.58608">
        <ele>117.9</ele>
        <time>2024-12-25T14:12:26Z</time>
      </trkpt>
      <trkpt lat="44.79135" lon="1.58605">
        <ele>117.9</ele>
        <time>2024-12-25T14:12:27Z</time>
      </trkpt>
      <trkpt lat="44.79134" lon="1.58604">
        <ele>117.9</ele>
        <time>2024-12-25T14:12:28Z</time>
      </trkpt>
      <trkpt lat="44.79131" lon="1.58602">
        <ele>118</ele>
        <time>2024-12-25T14:12:29Z</time>
      </trkpt>
      <trkpt lat="44.7913" lon="1.58602">
        <ele>118</ele>
        <time>2024-12-25T14:12:30Z</time>
      </trkpt>
      <trkpt lat="44.79129" lon="1.58601">
        <ele>118</ele>
        <time>2024-12-25T14:12:31Z</time>
      </trkpt>
      <trkpt lat="44.79125" lon="1.586">
        <ele>118</ele>
        <time>2024-12-25T14:12:33Z</time>
      </trkpt>
      <trkpt lat="44.79123" lon="1.586">
        <ele>118</ele>
        <time>2024-12-25T14:12:35Z</time>
      </trkpt>
      <trkpt lat="44.79122" lon="1.58599">
        <ele>118</ele>
        <time>2024-12-25T14:12:36Z</time>
      </trkpt>
      <trkpt lat="44.7912" lon="1.58598">
        <ele>118</ele>
        <time>2024-12-25T14:12:37Z</time>
      </trkpt>
      <trkpt lat="44.79119" lon="1.58597">
        <ele>118</ele>
        <time>2024-12-25T14:12:38Z</time>
      </trkpt>
      <trkpt lat="44.79117" lon="1.58596">
        <ele>118</ele>
        <time>2024-12-25T14:12:39Z</time>
      </trkpt>
      <trkpt lat="44.79115" lon="1.58595">
        <ele>118</ele>
        <time>2024-12-25T14:12:40Z</time>
      </trkpt>
      <trkpt lat="44.79114" lon="1.58595">
        <ele>118</ele>
        <time>2024-12-25T14:12:41Z</time>
      </trkpt>
      <trkpt lat="44.79113" lon="1.58594">
        <ele>118</ele>
        <time>2024-12-25T14:12:42Z</time>
      </trkpt>
      <trkpt lat="44.79111" lon="1.58595">
        <ele>118</ele>
        <time>2024-12-25T14:12:43Z</time>
      </trkpt>
      <trkpt lat="44.79109" lon="1.58593">
        <ele>118</ele>
        <time>2024-12-25T14:12:44Z</time>
      </trkpt>
      <trkpt lat="44.79108" lon="1.58593">
        <ele>118</ele>
        <time>2024-12-25T14:12:45Z</time>
      </trkpt>
      <trkpt lat="44.79107" lon="1.58592">
        <ele>118</ele>
        <time>2024-12-25T14:12:46Z</time>
      </trkpt>
      <trkpt lat="44.79107" lon="1.58592">
        <ele>118</ele>
        <time>2024-12-25T14:12:47Z</time>
      </trkpt>
      <trkpt lat="44.79106" lon="1.58591">
        <ele>118</ele>
        <time>2024-12-25T14:12:48Z</time>
      </trkpt>
      <trkpt lat="44.79104" lon="1.58591">
        <ele>118</ele>
        <time>2024-12-25T14:12:49Z</time>
      </trkpt>
      <trkpt lat="44.79103" lon="1.5859">
        <ele>118</ele>
        <time>2024-12-25T14:12:50Z</time>
      </trkpt>
      <trkpt lat="44.79102" lon="1.5859">
        <ele>118</ele>
        <time>2024-12-25T14:12:51Z</time>
      </trkpt>
      <trkpt lat="44.79101" lon="1.58589">
        <ele>117.9</ele>
        <time>2024-12-25T14:12:52Z</time>
      </trkpt>
      <trkpt lat="44.79099" lon="1.58587">
        <ele>117.9</ele>
        <time>2024-12-25T14:12:53Z</time>
      </trkpt>
      <trkpt lat="44.79099" lon="1.58586">
        <ele>117.9</ele>
        <time>2024-12-25T14:12:54Z</time>
      </trkpt>
      <trkpt lat="44.79098" lon="1.58585">
        <ele>117.9</ele>
        <time>2024-12-25T14:12:55Z</time>
      </trkpt>
      <trkpt lat="44.79097" lon="1.58584">
        <ele>117.9</ele>
        <time>2024-12-25T14:12:56Z</time>
      </trkpt>
      <trkpt lat="44.79096" lon="1.58582">
        <ele>117.9</ele>
        <time>2024-12-25T14:12:57Z</time>
      </trkpt>
      <trkpt lat="44.79094" lon="1.58581">
        <ele>117.8</ele>
        <time>2024-12-25T14:12:58Z</time>
      </trkpt>
      <trkpt lat="44.79093" lon="1.5858">
        <ele>117.8</ele>
        <time>2024-12-25T14:12:59Z</time>
      </trkpt>
      <trkpt lat="44.79092" lon="1.58579">
        <ele>117.8</ele>
        <time>2024-12-25T14:13:00Z</time>
      </trkpt>
      <trkpt lat="44.7909" lon="1.58578">
        <ele>117.7</ele>
        <time>2024-12-25T14:13:02Z</time>
      </trkpt>
      <trkpt lat="44.79089" lon="1.58578">
        <ele>117.7</ele>
        <time>2024-12-25T14:13:03Z</time>
      </trkpt>
      <trkpt lat="44.79089" lon="1.58577">
        <ele>117.7</ele>
        <time>2024-12-25T14:13:04Z</time>
      </trkpt>
      <trkpt lat="44.79087" lon="1.58575">
        <ele>117.7</ele>
        <time>2024-12-25T14:13:05Z</time>
      </trkpt>
      <trkpt lat="44.79086" lon="1.58572">
        <ele>117.6</ele>
        <time>2024-12-25T14:13:06Z</time>
      </trkpt>
      <trkpt lat="44.79086" lon="1.58571">
        <ele>117.6</ele>
        <time>2024-12-25T14:13:08Z</time>
      </trkpt>
      <trkpt lat="44.79086" lon="1.5857">
        <ele>117.6</ele>
        <time>2024-12-25T14:13:09Z</time>
      </trkpt>
      <trkpt lat="44.79085" lon="1.58567">
        <ele>117.6</ele>
        <time>2024-12-25T14:13:10Z</time>
      </trkpt>
      <trkpt lat="44.79085" lon="1.58566">
        <ele>117.5</ele>
        <time>2024-12-25T14:13:11Z</time>
      </trkpt>
      <trkpt lat="44.79085" lon="1.58564">
        <ele>117.5</ele>
        <time>2024-12-25T14:13:12Z</time>
      </trkpt>
      <trkpt lat="44.79085" lon="1.58562">
        <ele>117.5</ele>
        <time>2024-12-25T14:13:13Z</time>
      </trkpt>
      <trkpt lat="44.79084" lon="1.5856">
        <ele>117.5</ele>
        <time>2024-12-25T14:13:14Z</time>
      </trkpt>
      <trkpt lat="44.79084" lon="1.58557">
        <ele>117.4</ele>
        <time>2024-12-25T14:13:15Z</time>
      </trkpt>
      <trkpt lat="44.79083" lon="1.58555">
        <ele>117.4</ele>
        <time>2024-12-25T14:13:16Z</time>
      </trkpt>
      <trkpt lat="44.79083" lon="1.58553">
        <ele>117.4</ele>
        <time>2024-12-25T14:13:17Z</time>
      </trkpt>
      <trkpt lat="44.79082" lon="1.58552">
        <ele>117.4</ele>
        <time>2024-12-25T14:13:18Z</time>
      </trkpt>
      <trkpt lat="44.79081" lon="1.5855">
        <ele>117.4</ele>
        <time>2024-12-25T14:13:20Z</time>
      </trkpt>
      <trkpt lat="44.79081" lon="1.58548">
        <ele>117.4</ele>
        <time>2024-12-25T14:13:21Z</time>
      </trkpt>
      <trkpt lat="44.7908" lon="1.58547">
        <ele>117.4</ele>
        <time>2024-12-25T14:13:22Z</time>
      </trkpt>
      <trkpt lat="44.79079" lon="1.58544">
        <ele>117.3</ele>
        <time>2024-12-25T14:13:23Z</time>
      </trkpt>
      <trkpt lat="44.79078" lon="1.58542">
        <ele>117.3</ele>
        <time>2024-12-25T14:13:25Z</time>
      </trkpt>
      <trkpt lat="44.79078" lon="1.58541">
        <ele>117.3</ele>
        <time>2024-12-25T14:13:26Z</time>
      </trkpt>
      <trkpt lat="44.79077" lon="1.58539">
        <ele>117.3</ele>
        <time>2024-12-25T14:13:27Z</time>
      </trkpt>
      <trkpt lat="44.79077" lon="1.58537">
        <ele>117.3</ele>
        <time>2024-12-25T14:13:28Z</time>
      </trkpt>
      <trkpt lat="44.79076" lon="1.58536">
        <ele>117.3</ele>
        <time>2024-12-25T14:13:29Z</time>
      </trkpt>
      <trkpt lat="44.79075" lon="1.58533">
        <ele>117.2</ele>
        <time>2024-12-25T14:13:30Z</time>
      </trkpt>
      <trkpt lat="44.79075" lon="1.58531">
        <ele>117.2</ele>
        <time>2024-12-25T14:13:32Z</time>
      </trkpt>
      <trkpt lat="44.79075" lon="1.58529">
        <ele>117.2</ele>
        <time>2024-12-25T14:13:33Z</time>
      </trkpt>
      <trkpt lat="44.79074" lon="1.58528">
        <ele>117.2</ele>
        <time>2024-12-25T14:13:34Z</time>
      </trkpt>
      <trkpt lat="44.79074" lon="1.58527">
        <ele>117.2</ele>
        <time>2024-12-25T14:13:35Z</time>
      </trkpt>
      <trkpt lat="44.79074" lon="1.58524">
        <ele>117.2</ele>
        <time>2024-12-25T14:13:36Z</time>
      </trkpt>
      <trkpt lat="44.79073" lon="1.58522">
        <ele>117.2</ele>
        <time>2024-12-25T14:13:38Z</time>
      </trkpt>
      <trkpt lat="44.79074" lon="1.5852">
        <ele>117.2</ele>
        <time>2024-12-25T14:13:39Z</time>
      </trkpt>
      <trkpt lat="44.79074" lon="1.58517">
        <ele>117.2</ele>
        <time>2024-12-25T14:13:40Z</time>
      </trkpt>
      <trkpt lat="44.79074" lon="1.58515">
        <ele>117.2</ele>
        <time>2024-12-25T14:13:41Z</time>
      </trkpt>
      <trkpt lat="44.79074" lon="1.58513">
        <ele>117.2</ele>
        <time>2024-12-25T14:13:42Z</time>
      </trkpt>
      <trkpt lat="44.79075" lon="1.58508">
        <ele>117.2</ele>
        <time>2024-12-25T14:13:43Z</time>
      </trkpt>
      <trkpt lat="44.79075" lon="1.58506">
        <ele>117.3</ele>
        <time>2024-12-25T14:13:44Z</time>
      </trkpt>
      <trkpt lat="44.79075" lon="1.58503">
        <ele>117.3</ele>
        <time>2024-12-25T14:13:45Z</time>
      </trkpt>
      <trkpt lat="44.79074" lon="1.58502">
        <ele>117.3</ele>
        <time>2024-12-25T14:13:46Z</time>
      </trkpt>
      <trkpt lat="44.79074" lon="1.58498">
        <ele>117.4</ele>
        <time>2024-12-25T14:13:47Z</time>
      </trkpt>
      <trkpt lat="44.79074" lon="1.58496">
        <ele>117.4</ele>
        <time>2024-12-25T14:13:48Z</time>
      </trkpt>
      <trkpt lat="44.79074" lon="1.58494">
        <ele>117.4</ele>
        <time>2024-12-25T14:13:49Z</time>
      </trkpt>
      <trkpt lat="44.79073" lon="1.58492">
        <ele>117.4</ele>
        <time>2024-12-25T14:13:50Z</time>
      </trkpt>
      <trkpt lat="44.79073" lon="1.58491">
        <ele>117.4</ele>
        <time>2024-12-25T14:13:51Z</time>
      </trkpt>
      <trkpt lat="44.79072" lon="1.58489">
        <ele>117.5</ele>
        <time>2024-12-25T14:13:52Z</time>
      </trkpt>
      <trkpt lat="44.79071" lon="1.58487">
        <ele>117.5</ele>
        <time>2024-12-25T14:13:53Z</time>
      </trkpt>
      <trkpt lat="44.7907" lon="1.58485">
        <ele>117.5</ele>
        <time>2024-12-25T14:13:54Z</time>
      </trkpt>
      <trkpt lat="44.79069" lon="1.58484">
        <ele>117.6</ele>
        <time>2024-12-25T14:13:55Z</time>
      </trkpt>
      <trkpt lat="44.79068" lon="1.58482">
        <ele>117.6</ele>
        <time>2024-12-25T14:13:56Z</time>
      </trkpt>
      <trkpt lat="44.79067" lon="1.5848">
        <ele>117.6</ele>
        <time>2024-12-25T14:13:57Z</time>
      </trkpt>
      <trkpt lat="44.79066" lon="1.58479">
        <ele>117.7</ele>
        <time>2024-12-25T14:13:58Z</time>
      </trkpt>
      <trkpt lat="44.79064" lon="1.58477">
        <ele>117.7</ele>
        <time>2024-12-25T14:13:59Z</time>
      </trkpt>
      <trkpt lat="44.79063" lon="1.58476">
        <ele>117.7</ele>
        <time>2024-12-25T14:14:01Z</time>
      </trkpt>
      <trkpt lat="44.79063" lon="1.58475">
        <ele>117.7</ele>
        <time>2024-12-25T14:14:02Z</time>
      </trkpt>
      <trkpt lat="44.79062" lon="1.58473">
        <ele>117.7</ele>
        <time>2024-12-25T14:14:03Z</time>
      </trkpt>
      <trkpt lat="44.79061" lon="1.58472">
        <ele>117.7</ele>
        <time>2024-12-25T14:14:04Z</time>
      </trkpt>
      <trkpt lat="44.7906" lon="1.58471">
        <ele>117.7</ele>
        <time>2024-12-25T14:14:05Z</time>
      </trkpt>
      <trkpt lat="44.7906" lon="1.58468">
        <ele>117.7</ele>
        <time>2024-12-25T14:14:06Z</time>
      </trkpt>
      <trkpt lat="44.79059" lon="1.58464">
        <ele>117.6</ele>
        <time>2024-12-25T14:14:07Z</time>
      </trkpt>
      <trkpt lat="44.79059" lon="1.58463">
        <ele>117.6</ele>
        <time>2024-12-25T14:14:08Z</time>
      </trkpt>
      <trkpt lat="44.79058" lon="1.58461">
        <ele>117.6</ele>
        <time>2024-12-25T14:14:09Z</time>
      </trkpt>
      <trkpt lat="44.79057" lon="1.58458">
        <ele>117.6</ele>
        <time>2024-12-25T14:14:10Z</time>
      </trkpt>
      <trkpt lat="44.79056" lon="1.58454">
        <ele>117.5</ele>
        <time>2024-12-25T14:14:11Z</time>
      </trkpt>
      <trkpt lat="44.79056" lon="1.58452">
        <ele>117.4</ele>
        <time>2024-12-25T14:14:13Z</time>
      </trkpt>
      <trkpt lat="44.79055" lon="1.5845">
        <ele>117.4</ele>
        <time>2024-12-25T14:14:14Z</time>
      </trkpt>
      <trkpt lat="44.79055" lon="1.58448">
        <ele>117.3</ele>
        <time>2024-12-25T14:14:15Z</time>
      </trkpt>
      <trkpt lat="44.79053" lon="1.58445">
        <ele>117.1</ele>
        <time>2024-12-25T14:14:16Z</time>
      </trkpt>
      <trkpt lat="44.79052" lon="1.58444">
        <ele>117.1</ele>
        <time>2024-12-25T14:14:17Z</time>
      </trkpt>
      <trkpt lat="44.7905" lon="1.58441">
        <ele>117</ele>
        <time>2024-12-25T14:14:18Z</time>
      </trkpt>
      <trkpt lat="44.79049" lon="1.5844">
        <ele>116.9</ele>
        <time>2024-12-25T14:14:20Z</time>
      </trkpt>
      <trkpt lat="44.79048" lon="1.58439">
        <ele>116.9</ele>
        <time>2024-12-25T14:14:21Z</time>
      </trkpt>
      <trkpt lat="44.79046" lon="1.58438">
        <ele>116.8</ele>
        <time>2024-12-25T14:14:22Z</time>
      </trkpt>
      <trkpt lat="44.79044" lon="1.58436">
        <ele>116.7</ele>
        <time>2024-12-25T14:14:23Z</time>
      </trkpt>
      <trkpt lat="44.79042" lon="1.58434">
        <ele>116.7</ele>
        <time>2024-12-25T14:14:24Z</time>
      </trkpt>
      <trkpt lat="44.79042" lon="1.58433">
        <ele>116.7</ele>
        <time>2024-12-25T14:14:26Z</time>
      </trkpt>
      <trkpt lat="44.79041" lon="1.58432">
        <ele>116.7</ele>
        <time>2024-12-25T14:14:27Z</time>
      </trkpt>
      <trkpt lat="44.7904" lon="1.58429">
        <ele>116.7</ele>
        <time>2024-12-25T14:14:28Z</time>
      </trkpt>
      <trkpt lat="44.79039" lon="1.58427">
        <ele>116.7</ele>
        <time>2024-12-25T14:14:30Z</time>
      </trkpt>
      <trkpt lat="44.79039" lon="1.58425">
        <ele>116.7</ele>
        <time>2024-12-25T14:14:31Z</time>
      </trkpt>
      <trkpt lat="44.79039" lon="1.58422">
        <ele>116.8</ele>
        <time>2024-12-25T14:14:32Z</time>
      </trkpt>
      <trkpt lat="44.79039" lon="1.5842">
        <ele>116.8</ele>
        <time>2024-12-25T14:14:33Z</time>
      </trkpt>
      <trkpt lat="44.79039" lon="1.58419">
        <ele>116.8</ele>
        <time>2024-12-25T14:14:34Z</time>
      </trkpt>
      <trkpt lat="44.79039" lon="1.58417">
        <ele>116.9</ele>
        <time>2024-12-25T14:14:36Z</time>
      </trkpt>
      <trkpt lat="44.79039" lon="1.58416">
        <ele>116.9</ele>
        <time>2024-12-25T14:14:37Z</time>
      </trkpt>
      <trkpt lat="44.79039" lon="1.58415">
        <ele>116.9</ele>
        <time>2024-12-25T14:14:38Z</time>
      </trkpt>
      <trkpt lat="44.79038" lon="1.58414">
        <ele>117</ele>
        <time>2024-12-25T14:14:39Z</time>
      </trkpt>
      <trkpt lat="44.79038" lon="1.58412">
        <ele>117</ele>
        <time>2024-12-25T14:14:40Z</time>
      </trkpt>
      <trkpt lat="44.79039" lon="1.58411">
        <ele>117</ele>
        <time>2024-12-25T14:14:41Z</time>
      </trkpt>
      <trkpt lat="44.7904" lon="1.5841">
        <ele>117.1</ele>
        <time>2024-12-25T14:14:42Z</time>
      </trkpt>
      <trkpt lat="44.79041" lon="1.58409">
        <ele>117.1</ele>
        <time>2024-12-25T14:14:43Z</time>
      </trkpt>
      <trkpt lat="44.79043" lon="1.58407">
        <ele>117.2</ele>
        <time>2024-12-25T14:14:44Z</time>
      </trkpt>
      <trkpt lat="44.79044" lon="1.58406">
        <ele>117.3</ele>
        <time>2024-12-25T14:14:45Z</time>
      </trkpt>
      <trkpt lat="44.79045" lon="1.58406">
        <ele>117.3</ele>
        <time>2024-12-25T14:14:47Z</time>
      </trkpt>
      <trkpt lat="44.79047" lon="1.58406">
        <ele>117.4</ele>
        <time>2024-12-25T14:14:48Z</time>
      </trkpt>
      <trkpt lat="44.79048" lon="1.58406">
        <ele>117.4</ele>
        <time>2024-12-25T14:14:49Z</time>
      </trkpt>
      <trkpt lat="44.79048" lon="1.58407">
        <ele>117.5</ele>
        <time>2024-12-25T14:14:51Z</time>
      </trkpt>
      <trkpt lat="44.79049" lon="1.58408">
        <ele>117.5</ele>
        <time>2024-12-25T14:14:52Z</time>
      </trkpt>
      <trkpt lat="44.79049" lon="1.58408">
        <ele>117.5</ele>
        <time>2024-12-25T14:14:53Z</time>
      </trkpt>
      <trkpt lat="44.79049" lon="1.58408">
        <ele>117.5</ele>
        <time>2024-12-25T14:14:54Z</time>
      </trkpt>
      <trkpt lat="44.79048" lon="1.58409">
        <ele>117.5</ele>
        <time>2024-12-25T14:14:55Z</time>
      </trkpt>
      <trkpt lat="44.79048" lon="1.58409">
        <ele>117.6</ele>
        <time>2024-12-25T14:14:56Z</time>
      </trkpt>
      <trkpt lat="44.79047" lon="1.58408">
        <ele>117.6</ele>
        <time>2024-12-25T14:14:57Z</time>
      </trkpt>
      <trkpt lat="44.79047" lon="1.58408">
        <ele>117.6</ele>
        <time>2024-12-25T14:14:58Z</time>
      </trkpt>
      <trkpt lat="44.79047" lon="1.58408">
        <ele>117.6</ele>
        <time>2024-12-25T14:14:59Z</time>
      </trkpt>
      <trkpt lat="44.79047" lon="1.58408">
        <ele>117.6</ele>
        <time>2024-12-25T14:15:00Z</time>
      </trkpt>
      <trkpt lat="44.79047" lon="1.58407">
        <ele>117.6</ele>
        <time>2024-12-25T14:15:01Z</time>
      </trkpt>
      <trkpt lat="44.79046" lon="1.58407">
        <ele>117.6</ele>
        <time>2024-12-25T14:15:02Z</time>
      </trkpt>
      <trkpt lat="44.79046" lon="1.58407">
        <ele>117.6</ele>
        <time>2024-12-25T14:15:03Z</time>
      </trkpt>
      <trkpt lat="44.79046" lon="1.58407">
        <ele>117.7</ele>
        <time>2024-12-25T14:15:04Z</time>
      </trkpt>
      <trkpt lat="44.79046" lon="1.58407">
        <ele>117.7</ele>
        <time>2024-12-25T14:15:05Z</time>
      </trkpt>
      <trkpt lat="44.79046" lon="1.58407">
        <ele>117.7</ele>
        <time>2024-12-25T14:15:06Z</time>
      </trkpt>
      <trkpt lat="44.79046" lon="1.58407">
        <ele>117.7</ele>
        <time>2024-12-25T14:15:07Z</time>
      </trkpt>
      <trkpt lat="44.79046" lon="1.58407">
        <ele>117.7</ele>
        <time>2024-12-25T14:15:08Z</time>
      </trkpt>
      <trkpt lat="44.79046" lon="1.58407">
        <ele>117.7</ele>
        <time>2024-12-25T14:15:09Z</time>
      </trkpt>
      <trkpt lat="44.79046" lon="1.58408">
        <ele>117.7</ele>
        <time>2024-12-25T14:15:10Z</time>
      </trkpt>
      <trkpt lat="44.79046" lon="1.58407">
        <ele>117.7</ele>
        <time>2024-12-25T14:15:12Z</time>
      </trkpt>
      <trkpt lat="44.79046" lon="1.58407">
        <ele>117.7</ele>
        <time>2024-12-25T14:15:13Z</time>
      </trkpt>
      <trkpt lat="44.79046" lon="1.58407">
        <ele>117.7</ele>
        <time>2024-12-25T14:15:14Z</time>
      </trkpt>
      <trkpt lat="44.79046" lon="1.58407">
        <ele>117.7</ele>
        <time>2024-12-25T14:15:15Z</time>
      </trkpt>
      <trkpt lat="44.79046" lon="1.58407">
        <ele>117.7</ele>
        <time>2024-12-25T14:15:16Z</time>
      </trkpt>
      <trkpt lat="44.79046" lon="1.58407">
        <ele>117.7</ele>
        <time>2024-12-25T14:15:17Z</time>
      </trkpt>
      <trkpt lat="44.79046" lon="1.58407">
        <ele>117.7</ele>
        <time>2024-12-25T14:15:18Z</time>
      </trkpt>
      <trkpt lat="44.79045" lon="1.58407">
        <ele>117.7</ele>
        <time>2024-12-25T14:15:19Z</time>
      </trkpt>
      <trkpt lat="44.79045" lon="1.58407">
        <ele>117.7</ele>
        <time>2024-12-25T14:15:20Z</time>
      </trkpt>
      <trkpt lat="44.79045" lon="1.58406">
        <ele>117.7</ele>
        <time>2024-12-25T14:15:21Z</time>
      </trkpt>
      <trkpt lat="44.79045" lon="1.58406">
        <ele>117.7</ele>
        <time>2024-12-25T14:15:22Z</time>
      </trkpt>
      <trkpt lat="44.79045" lon="1.58406">
        <ele>117.7</ele>
        <time>2024-12-25T14:15:23Z</time>
      </trkpt>
      <trkpt lat="44.79045" lon="1.58406">
        <ele>117.7</ele>
        <time>2024-12-25T14:15:24Z</time>
      </trkpt>
      <trkpt lat="44.79045" lon="1.58406">
        <ele>117.7</ele>
        <time>2024-12-25T14:15:25Z</time>
      </trkpt>
      <trkpt lat="44.79045" lon="1.58406">
        <ele>117.8</ele>
        <time>2024-12-25T14:15:26Z</time>
      </trkpt>
      <trkpt lat="44.79045" lon="1.58406">
        <ele>117.8</ele>
        <time>2024-12-25T14:15:27Z</time>
      </trkpt>
      <trkpt lat="44.79045" lon="1.58406">
        <ele>117.8</ele>
        <time>2024-12-25T14:15:28Z</time>
      </trkpt>
      <trkpt lat="44.79045" lon="1.58406">
        <ele>117.8</ele>
        <time>2024-12-25T14:15:29Z</time>
      </trkpt>
      <trkpt lat="44.79045" lon="1.58406">
        <ele>117.8</ele>
        <time>2024-12-25T14:15:30Z</time>
      </trkpt>
      <trkpt lat="44.79045" lon="1.58406">
        <ele>117.8</ele>
        <time>2024-12-25T14:15:31Z</time>
      </trkpt>
      <trkpt lat="44.79045" lon="1.58406">
        <ele>117.8</ele>
        <time>2024-12-25T14:15:32Z</time>
      </trkpt>
      <trkpt lat="44.79045" lon="1.58406">
        <ele>117.8</ele>
        <time>2024-12-25T14:15:33Z</time>
      </trkpt>
      <trkpt lat="44.79045" lon="1.58406">
        <ele>117.8</ele>
        <time>2024-12-25T14:15:34Z</time>
      </trkpt>
      <trkpt lat="44.79045" lon="1.58406">
        <ele>117.8</ele>
        <time>2024-12-25T14:15:35Z</time>
      </trkpt>
      <trkpt lat="44.79045" lon="1.58406">
        <ele>117.8</ele>
        <time>2024-12-25T14:15:36Z</time>
      </trkpt>
      <trkpt lat="44.79045" lon="1.58406">
        <ele>117.8</ele>
        <time>2024-12-25T14:15:37Z</time>
      </trkpt>
      <trkpt lat="44.79045" lon="1.58406">
        <ele>117.8</ele>
        <time>2024-12-25T14:15:38Z</time>
      </trkpt>
      <trkpt lat="44.79045" lon="1.58406">
        <ele>117.8</ele>
        <time>2024-12-25T14:15:39Z</time>
      </trkpt>
      <trkpt lat="44.79045" lon="1.58406">
        <ele>117.8</ele>
        <time>2024-12-25T14:15:40Z</time>
      </trkpt>
      <trkpt lat="44.79045" lon="1.58406">
        <ele>117.8</ele>
        <time>2024-12-25T14:15:41Z</time>
      </trkpt>
      <trkpt lat="44.79045" lon="1.58406">
        <ele>117.8</ele>
        <time>2024-12-25T14:15:42Z</time>
      </trkpt>
      <trkpt lat="44.79045" lon="1.58406">
        <ele>117.8</ele>
        <time>2024-12-25T14:15:43Z</time>
      </trkpt>
      <trkpt lat="44.79045" lon="1.58406">
        <ele>117.8</ele>
        <time>2024-12-25T14:15:44Z</time>
      </trkpt>
      <trkpt lat="44.79045" lon="1.58406">
        <ele>117.8</ele>
        <time>2024-12-25T14:15:45Z</time>
      </trkpt>
      <trkpt lat="44.79045" lon="1.58406">
        <ele>117.8</ele>
        <time>2024-12-25T14:15:46Z</time>
      </trkpt>
      <trkpt lat="44.79045" lon="1.58406">
        <ele>117.8</ele>
        <time>2024-12-25T14:15:47Z</time>
      </trkpt>
      <trkpt lat="44.79045" lon="1.58406">
        <ele>117.8</ele>
        <time>2024-12-25T14:15:48Z</time>
      </trkpt>
      <trkpt lat="44.79045" lon="1.58406">
        <ele>117.8</ele>
        <time>2024-12-25T14:15:49Z</time>
      </trkpt>
      <trkpt lat="44.79045" lon="1.58407">
        <ele>117.8</ele>
        <time>2024-12-25T14:15:50Z</time>
      </trkpt>
      <trkpt lat="44.79045" lon="1.58407">
        <ele>117.8</ele>
        <time>2024-12-25T14:15:51Z</time>
      </trkpt>
      <trkpt lat="44.79045" lon="1.58407">
        <ele>117.8</ele>
        <time>2024-12-25T14:15:52Z</time>
      </trkpt>
      <trkpt lat="44.79046" lon="1.58407">
        <ele>117.8</ele>
        <time>2024-12-25T14:15:53Z</time>
      </trkpt>
      <trkpt lat="44.79046" lon="1.58407">
        <ele>117.8</ele>
        <time>2024-12-25T14:15:54Z</time>
      </trkpt>
      <trkpt lat="44.79046" lon="1.58407">
        <ele>117.8</ele>
        <time>2024-12-25T14:15:55Z</time>
      </trkpt>
      <trkpt lat="44.79046" lon="1.58407">
        <ele>117.8</ele>
        <time>2024-12-25T14:15:56Z</time>
      </trkpt>
      <trkpt lat="44.79046" lon="1.58407">
        <ele>117.8</ele>
        <time>2024-12-25T14:15:57Z</time>
      </trkpt>
      <trkpt lat="44.79046" lon="1.58407">
        <ele>117.8</ele>
        <time>2024-12-25T14:15:58Z</time>
      </trkpt>
      <trkpt lat="44.79046" lon="1.58407">
        <ele>117.8</ele>
        <time>2024-12-25T14:15:59Z</time>
      </trkpt>
      <trkpt lat="44.79046" lon="1.58407">
        <ele>117.8</ele>
        <time>2024-12-25T14:16:00Z</time>
      </trkpt>
      <trkpt lat="44.79046" lon="1.58407">
        <ele>117.8</ele>
        <time>2024-12-25T14:16:01Z</time>
      </trkpt>
      <trkpt lat="44.79046" lon="1.58407">
        <ele>117.9</ele>
        <time>2024-12-25T14:16:02Z</time>
      </trkpt>
      <trkpt lat="44.79046" lon="1.58407">
        <ele>117.9</ele>
        <time>2024-12-25T14:16:03Z</time>
      </trkpt>
      <trkpt lat="44.79046" lon="1.58407">
        <ele>117.9</ele>
        <time>2024-12-25T14:16:04Z</time>
      </trkpt>
      <trkpt lat="44.79047" lon="1.58408">
        <ele>117.9</ele>
        <time>2024-12-25T14:16:05Z</time>
      </trkpt>
      <trkpt lat="44.79046" lon="1.58408">
        <ele>117.9</ele>
        <time>2024-12-25T14:16:06Z</time>
      </trkpt>
      <trkpt lat="44.79046" lon="1.58409">
        <ele>117.9</ele>
        <time>2024-12-25T14:16:07Z</time>
      </trkpt>
      <trkpt lat="44.79046" lon="1.58409">
        <ele>117.9</ele>
        <time>2024-12-25T14:16:08Z</time>
      </trkpt>
      <trkpt lat="44.79047" lon="1.58409">
        <ele>117.9</ele>
        <time>2024-12-25T14:16:09Z</time>
      </trkpt>
      <trkpt lat="44.79047" lon="1.58409">
        <ele>117.9</ele>
        <time>2024-12-25T14:16:10Z</time>
      </trkpt>
      <trkpt lat="44.79047" lon="1.58409">
        <ele>117.9</ele>
        <time>2024-12-25T14:16:11Z</time>
      </trkpt>
      <trkpt lat="44.79047" lon="1.58409">
        <ele>117.9</ele>
        <time>2024-12-25T14:16:12Z</time>
      </trkpt>
      <trkpt lat="44.79047" lon="1.58408">
        <ele>117.9</ele>
        <time>2024-12-25T14:16:13Z</time>
      </trkpt>
      <trkpt lat="44.79047" lon="1.58408">
        <ele>117.9</ele>
        <time>2024-12-25T14:16:14Z</time>
      </trkpt>
      <trkpt lat="44.79047" lon="1.58408">
        <ele>117.9</ele>
        <time>2024-12-25T14:16:15Z</time>
      </trkpt>
      <trkpt lat="44.79047" lon="1.58408">
        <ele>118</ele>
        <time>2024-12-25T14:16:16Z</time>
      </trkpt>
      <trkpt lat="44.79047" lon="1.58408">
        <ele>118</ele>
        <time>2024-12-25T14:16:17Z</time>
      </trkpt>
      <trkpt lat="44.79047" lon="1.58408">
        <ele>118</ele>
        <time>2024-12-25T14:16:18Z</time>
      </trkpt>
      <trkpt lat="44.79047" lon="1.58408">
        <ele>118</ele>
        <time>2024-12-25T14:16:19Z</time>
      </trkpt>
      <trkpt lat="44.79048" lon="1.58408">
        <ele>118</ele>
        <time>2024-12-25T14:16:20Z</time>
      </trkpt>
      <trkpt lat="44.79048" lon="1.58408">
        <ele>118</ele>
        <time>2024-12-25T14:16:21Z</time>
      </trkpt>
      <trkpt lat="44.79048" lon="1.58408">
        <ele>118</ele>
        <time>2024-12-25T14:16:22Z</time>
      </trkpt>
      <trkpt lat="44.79048" lon="1.58408">
        <ele>118</ele>
        <time>2024-12-25T14:16:23Z</time>
      </trkpt>
      <trkpt lat="44.79048" lon="1.58408">
        <ele>118</ele>
        <time>2024-12-25T14:16:24Z</time>
      </trkpt>
      <trkpt lat="44.79048" lon="1.58407">
        <ele>118</ele>
        <time>2024-12-25T14:16:25Z</time>
      </trkpt>
      <trkpt lat="44.79049" lon="1.58406">
        <ele>118.1</ele>
        <time>2024-12-25T14:16:26Z</time>
      </trkpt>
      <trkpt lat="44.79049" lon="1.58406">
        <ele>118.1</ele>
        <time>2024-12-25T14:16:27Z</time>
      </trkpt>
      <trkpt lat="44.79049" lon="1.58406">
        <ele>118.1</ele>
        <time>2024-12-25T14:16:28Z</time>
      </trkpt>
      <trkpt lat="44.7905" lon="1.58406">
        <ele>118.1</ele>
        <time>2024-12-25T14:16:29Z</time>
      </trkpt>
      <trkpt lat="44.79052" lon="1.58405">
        <ele>118.2</ele>
        <time>2024-12-25T14:16:30Z</time>
      </trkpt>
      <trkpt lat="44.79053" lon="1.58404">
        <ele>118.3</ele>
        <time>2024-12-25T14:16:31Z</time>
      </trkpt>
      <trkpt lat="44.79054" lon="1.58403">
        <ele>118.3</ele>
        <time>2024-12-25T14:16:32Z</time>
      </trkpt>
      <trkpt lat="44.79055" lon="1.58401">
        <ele>118.4</ele>
        <time>2024-12-25T14:16:33Z</time>
      </trkpt>
      <trkpt lat="44.79057" lon="1.584">
        <ele>118.5</ele>
        <time>2024-12-25T14:16:34Z</time>
      </trkpt>
      <trkpt lat="44.79058" lon="1.584">
        <ele>118.5</ele>
        <time>2024-12-25T14:16:36Z</time>
      </trkpt>
      <trkpt lat="44.79058" lon="1.58399">
        <ele>118.6</ele>
        <time>2024-12-25T14:16:37Z</time>
      </trkpt>
      <trkpt lat="44.79059" lon="1.58399">
        <ele>118.6</ele>
        <time>2024-12-25T14:16:38Z</time>
      </trkpt>
      <trkpt lat="44.79061" lon="1.584">
        <ele>118.7</ele>
        <time>2024-12-25T14:16:39Z</time>
      </trkpt>
      <trkpt lat="44.79064" lon="1.58401">
        <ele>118.8</ele>
        <time>2024-12-25T14:16:40Z</time>
      </trkpt>
      <trkpt lat="44.79065" lon="1.58399">
        <ele>118.9</ele>
        <time>2024-12-25T14:16:42Z</time>
      </trkpt>
      <trkpt lat="44.79066" lon="1.58398">
        <ele>118.9</ele>
        <time>2024-12-25T14:16:44Z</time>
      </trkpt>
      <trkpt lat="44.79068" lon="1.58398">
        <ele>119</ele>
        <time>2024-12-25T14:16:45Z</time>
      </trkpt>
      <trkpt lat="44.79068" lon="1.58398">
        <ele>119</ele>
        <time>2024-12-25T14:16:46Z</time>
      </trkpt>
      <trkpt lat="44.79069" lon="1.58398">
        <ele>119.1</ele>
        <time>2024-12-25T14:16:47Z</time>
      </trkpt>
      <trkpt lat="44.7907" lon="1.58397">
        <ele>119.1</ele>
        <time>2024-12-25T14:16:48Z</time>
      </trkpt>
      <trkpt lat="44.79071" lon="1.58396">
        <ele>119.2</ele>
        <time>2024-12-25T14:16:49Z</time>
      </trkpt>
      <trkpt lat="44.79074" lon="1.58394">
        <ele>119.4</ele>
        <time>2024-12-25T14:16:50Z</time>
      </trkpt>
      <trkpt lat="44.79075" lon="1.58393">
        <ele>119.5</ele>
        <time>2024-12-25T14:16:51Z</time>
      </trkpt>
      <trkpt lat="44.79076" lon="1.58391">
        <ele>119.6</ele>
        <time>2024-12-25T14:16:52Z</time>
      </trkpt>
      <trkpt lat="44.79078" lon="1.58389">
        <ele>119.7</ele>
        <time>2024-12-25T14:16:54Z</time>
      </trkpt>
      <trkpt lat="44.79078" lon="1.58387">
        <ele>119.7</ele>
        <time>2024-12-25T14:16:56Z</time>
      </trkpt>
      <trkpt lat="44.79078" lon="1.58386">
        <ele>119.8</ele>
        <time>2024-12-25T14:16:57Z</time>
      </trkpt>
      <trkpt lat="44.79078" lon="1.58384">
        <ele>119.8</ele>
        <time>2024-12-25T14:16:58Z</time>
      </trkpt>
      <trkpt lat="44.79077" lon="1.58381">
        <ele>119.9</ele>
        <time>2024-12-25T14:16:59Z</time>
      </trkpt>
      <trkpt lat="44.79077" lon="1.58379">
        <ele>119.9</ele>
        <time>2024-12-25T14:17:01Z</time>
      </trkpt>
      <trkpt lat="44.79078" lon="1.58378">
        <ele>119.9</ele>
        <time>2024-12-25T14:17:02Z</time>
      </trkpt>
      <trkpt lat="44.79079" lon="1.58377">
        <ele>120</ele>
        <time>2024-12-25T14:17:03Z</time>
      </trkpt>
      <trkpt lat="44.79079" lon="1.58375">
        <ele>120</ele>
        <time>2024-12-25T14:17:04Z</time>
      </trkpt>
      <trkpt lat="44.79081" lon="1.58375">
        <ele>120.1</ele>
        <time>2024-12-25T14:17:05Z</time>
      </trkpt>
      <trkpt lat="44.79082" lon="1.58374">
        <ele>120.1</ele>
        <time>2024-12-25T14:17:06Z</time>
      </trkpt>
      <trkpt lat="44.79083" lon="1.58372">
        <ele>120.1</ele>
        <time>2024-12-25T14:17:07Z</time>
      </trkpt>
      <trkpt lat="44.79084" lon="1.58371">
        <ele>120.2</ele>
        <time>2024-12-25T14:17:09Z</time>
      </trkpt>
      <trkpt lat="44.79085" lon="1.58368">
        <ele>120.2</ele>
        <time>2024-12-25T14:17:10Z</time>
      </trkpt>
      <trkpt lat="44.79086" lon="1.58367">
        <ele>120.3</ele>
        <time>2024-12-25T14:17:12Z</time>
      </trkpt>
      <trkpt lat="44.79087" lon="1.58366">
        <ele>120.3</ele>
        <time>2024-12-25T14:17:14Z</time>
      </trkpt>
      <trkpt lat="44.79088" lon="1.58365">
        <ele>120.3</ele>
        <time>2024-12-25T14:17:15Z</time>
      </trkpt>
      <trkpt lat="44.79089" lon="1.58365">
        <ele>120.3</ele>
        <time>2024-12-25T14:17:16Z</time>
      </trkpt>
      <trkpt lat="44.79091" lon="1.58364">
        <ele>120.4</ele>
        <time>2024-12-25T14:17:17Z</time>
      </trkpt>
      <trkpt lat="44.79093" lon="1.58362">
        <ele>120.4</ele>
        <time>2024-12-25T14:17:19Z</time>
      </trkpt>
      <trkpt lat="44.79093" lon="1.58361">
        <ele>120.4</ele>
        <time>2024-12-25T14:17:21Z</time>
      </trkpt>
      <trkpt lat="44.79094" lon="1.58359">
        <ele>120.4</ele>
        <time>2024-12-25T14:17:22Z</time>
      </trkpt>
      <trkpt lat="44.79095" lon="1.58359">
        <ele>120.4</ele>
        <time>2024-12-25T14:17:23Z</time>
      </trkpt>
      <trkpt lat="44.79095" lon="1.58358">
        <ele>120.4</ele>
        <time>2024-12-25T14:17:24Z</time>
      </trkpt>
      <trkpt lat="44.79095" lon="1.58356">
        <ele>120.4</ele>
        <time>2024-12-25T14:17:25Z</time>
      </trkpt>
      <trkpt lat="44.79097" lon="1.58354">
        <ele>120.4</ele>
        <time>2024-12-25T14:17:26Z</time>
      </trkpt>
      <trkpt lat="44.79099" lon="1.58353">
        <ele>120.4</ele>
        <time>2024-12-25T14:17:27Z</time>
      </trkpt>
      <trkpt lat="44.791" lon="1.58352">
        <ele>120.4</ele>
        <time>2024-12-25T14:17:29Z</time>
      </trkpt>
      <trkpt lat="44.79101" lon="1.58351">
        <ele>120.4</ele>
        <time>2024-12-25T14:17:30Z</time>
      </trkpt>
      <trkpt lat="44.79102" lon="1.5835">
        <ele>120.4</ele>
        <time>2024-12-25T14:17:31Z</time>
      </trkpt>
      <trkpt lat="44.79103" lon="1.58348">
        <ele>120.4</ele>
        <time>2024-12-25T14:17:32Z</time>
      </trkpt>
      <trkpt lat="44.79103" lon="1.58347">
        <ele>120.4</ele>
        <time>2024-12-25T14:17:33Z</time>
      </trkpt>
      <trkpt lat="44.79104" lon="1.58346">
        <ele>120.4</ele>
        <time>2024-12-25T14:17:34Z</time>
      </trkpt>
      <trkpt lat="44.79105" lon="1.58344">
        <ele>120.3</ele>
        <time>2024-12-25T14:17:35Z</time>
      </trkpt>
      <trkpt lat="44.79106" lon="1.58343">
        <ele>120.3</ele>
        <time>2024-12-25T14:17:36Z</time>
      </trkpt>
      <trkpt lat="44.79107" lon="1.58341">
        <ele>120.3</ele>
        <time>2024-12-25T14:17:38Z</time>
      </trkpt>
      <trkpt lat="44.79108" lon="1.5834">
        <ele>120.4</ele>
        <time>2024-12-25T14:17:39Z</time>
      </trkpt>
      <trkpt lat="44.79108" lon="1.58338">
        <ele>120.4</ele>
        <time>2024-12-25T14:17:40Z</time>
      </trkpt>
      <trkpt lat="44.79109" lon="1.58336">
        <ele>120.4</ele>
        <time>2024-12-25T14:17:41Z</time>
      </trkpt>
      <trkpt lat="44.79109" lon="1.58334">
        <ele>120.4</ele>
        <time>2024-12-25T14:17:42Z</time>
      </trkpt>
      <trkpt lat="44.7911" lon="1.58331">
        <ele>120.5</ele>
        <time>2024-12-25T14:17:43Z</time>
      </trkpt>
      <trkpt lat="44.79111" lon="1.58329">
        <ele>120.5</ele>
        <time>2024-12-25T14:17:45Z</time>
      </trkpt>
      <trkpt lat="44.79112" lon="1.58328">
        <ele>120.5</ele>
        <time>2024-12-25T14:17:46Z</time>
      </trkpt>
      <trkpt lat="44.79113" lon="1.58327">
        <ele>120.5</ele>
        <time>2024-12-25T14:17:47Z</time>
      </trkpt>
      <trkpt lat="44.79114" lon="1.58326">
        <ele>120.5</ele>
        <time>2024-12-25T14:17:48Z</time>
      </trkpt>
      <trkpt lat="44.79115" lon="1.58324">
        <ele>120.5</ele>
        <time>2024-12-25T14:17:49Z</time>
      </trkpt>
      <trkpt lat="44.79116" lon="1.58322">
        <ele>120.6</ele>
        <time>2024-12-25T14:17:50Z</time>
      </trkpt>
      <trkpt lat="44.79117" lon="1.58321">
        <ele>120.6</ele>
        <time>2024-12-25T14:17:51Z</time>
      </trkpt>
      <trkpt lat="44.79118" lon="1.58321">
        <ele>120.6</ele>
        <time>2024-12-25T14:17:52Z</time>
      </trkpt>
      <trkpt lat="44.79119" lon="1.58318">
        <ele>120.6</ele>
        <time>2024-12-25T14:17:53Z</time>
      </trkpt>
      <trkpt lat="44.7912" lon="1.58316">
        <ele>120.6</ele>
        <time>2024-12-25T14:17:54Z</time>
      </trkpt>
      <trkpt lat="44.79121" lon="1.58315">
        <ele>120.6</ele>
        <time>2024-12-25T14:17:55Z</time>
      </trkpt>
      <trkpt lat="44.79122" lon="1.58312">
        <ele>120.6</ele>
        <time>2024-12-25T14:17:57Z</time>
      </trkpt>
      <trkpt lat="44.79123" lon="1.58311">
        <ele>120.6</ele>
        <time>2024-12-25T14:17:58Z</time>
      </trkpt>
      <trkpt lat="44.79123" lon="1.58309">
        <ele>120.6</ele>
        <time>2024-12-25T14:17:59Z</time>
      </trkpt>
      <trkpt lat="44.79124" lon="1.58308">
        <ele>120.6</ele>
        <time>2024-12-25T14:18:00Z</time>
      </trkpt>
      <trkpt lat="44.79125" lon="1.58306">
        <ele>120.6</ele>
        <time>2024-12-25T14:18:01Z</time>
      </trkpt>
      <trkpt lat="44.79126" lon="1.58305">
        <ele>120.6</ele>
        <time>2024-12-25T14:18:02Z</time>
      </trkpt>
      <trkpt lat="44.79126" lon="1.58304">
        <ele>120.6</ele>
        <time>2024-12-25T14:18:03Z</time>
      </trkpt>
      <trkpt lat="44.79127" lon="1.58301">
        <ele>120.6</ele>
        <time>2024-12-25T14:18:04Z</time>
      </trkpt>
      <trkpt lat="44.79128" lon="1.58299">
        <ele>120.7</ele>
        <time>2024-12-25T14:18:06Z</time>
      </trkpt>
      <trkpt lat="44.79129" lon="1.58296">
        <ele>120.7</ele>
        <time>2024-12-25T14:18:07Z</time>
      </trkpt>
      <trkpt lat="44.7913" lon="1.58294">
        <ele>120.7</ele>
        <time>2024-12-25T14:18:08Z</time>
      </trkpt>
      <trkpt lat="44.79131" lon="1.58293">
        <ele>120.8</ele>
        <time>2024-12-25T14:18:09Z</time>
      </trkpt>
      <trkpt lat="44.79133" lon="1.5829">
        <ele>120.8</ele>
        <time>2024-12-25T14:18:11Z</time>
      </trkpt>
      <trkpt lat="44.79133" lon="1.58289">
        <ele>120.9</ele>
        <time>2024-12-25T14:18:12Z</time>
      </trkpt>
      <trkpt lat="44.79134" lon="1.58288">
        <ele>120.9</ele>
        <time>2024-12-25T14:18:13Z</time>
      </trkpt>
      <trkpt lat="44.79134" lon="1.58287">
        <ele>121</ele>
        <time>2024-12-25T14:18:14Z</time>
      </trkpt>
      <trkpt lat="44.79136" lon="1.58285">
        <ele>121</ele>
        <time>2024-12-25T14:18:15Z</time>
      </trkpt>
      <trkpt lat="44.79137" lon="1.58284">
        <ele>121.1</ele>
        <time>2024-12-25T14:18:16Z</time>
      </trkpt>
      <trkpt lat="44.79139" lon="1.5828">
        <ele>121.2</ele>
        <time>2024-12-25T14:18:17Z</time>
      </trkpt>
      <trkpt lat="44.79139" lon="1.58278">
        <ele>121.3</ele>
        <time>2024-12-25T14:18:19Z</time>
      </trkpt>
      <trkpt lat="44.7914" lon="1.58277">
        <ele>121.4</ele>
        <time>2024-12-25T14:18:20Z</time>
      </trkpt>
      <trkpt lat="44.79141" lon="1.58275">
        <ele>121.5</ele>
        <time>2024-12-25T14:18:21Z</time>
      </trkpt>
      <trkpt lat="44.79141" lon="1.58272">
        <ele>121.6</ele>
        <time>2024-12-25T14:18:23Z</time>
      </trkpt>
      <trkpt lat="44.79141" lon="1.58271">
        <ele>121.6</ele>
        <time>2024-12-25T14:18:24Z</time>
      </trkpt>
      <trkpt lat="44.79141" lon="1.5827">
        <ele>121.7</ele>
        <time>2024-12-25T14:18:25Z</time>
      </trkpt>
      <trkpt lat="44.79141" lon="1.58268">
        <ele>121.8</ele>
        <time>2024-12-25T14:18:26Z</time>
      </trkpt>
      <trkpt lat="44.7914" lon="1.58266">
        <ele>121.9</ele>
        <time>2024-12-25T14:18:27Z</time>
      </trkpt>
      <trkpt lat="44.79138" lon="1.58262">
        <ele>122.1</ele>
        <time>2024-12-25T14:18:28Z</time>
      </trkpt>
      <trkpt lat="44.79137" lon="1.5826">
        <ele>122.3</ele>
        <time>2024-12-25T14:18:30Z</time>
      </trkpt>
      <trkpt lat="44.79137" lon="1.58259">
        <ele>122.3</ele>
        <time>2024-12-25T14:18:31Z</time>
      </trkpt>
      <trkpt lat="44.79136" lon="1.58258">
        <ele>122.4</ele>
        <time>2024-12-25T14:18:32Z</time>
      </trkpt>
      <trkpt lat="44.79135" lon="1.58256">
        <ele>122.5</ele>
        <time>2024-12-25T14:18:33Z</time>
      </trkpt>
      <trkpt lat="44.79134" lon="1.58255">
        <ele>122.6</ele>
        <time>2024-12-25T14:18:34Z</time>
      </trkpt>
      <trkpt lat="44.79135" lon="1.58251">
        <ele>122.9</ele>
        <time>2024-12-25T14:18:35Z</time>
      </trkpt>
      <trkpt lat="44.79137" lon="1.58249">
        <ele>123.1</ele>
        <time>2024-12-25T14:18:37Z</time>
      </trkpt>
      <trkpt lat="44.79137" lon="1.58247">
        <ele>123.2</ele>
        <time>2024-12-25T14:18:38Z</time>
      </trkpt>
      <trkpt lat="44.79137" lon="1.58246">
        <ele>123.3</ele>
        <time>2024-12-25T14:18:39Z</time>
      </trkpt>
      <trkpt lat="44.79138" lon="1.58245">
        <ele>123.4</ele>
        <time>2024-12-25T14:18:40Z</time>
      </trkpt>
      <trkpt lat="44.79138" lon="1.58241">
        <ele>123.7</ele>
        <time>2024-12-25T14:18:41Z</time>
      </trkpt>
      <trkpt lat="44.7914" lon="1.58238">
        <ele>124</ele>
        <time>2024-12-25T14:18:43Z</time>
      </trkpt>
      <trkpt lat="44.79141" lon="1.58236">
        <ele>124.1</ele>
        <time>2024-12-25T14:18:44Z</time>
      </trkpt>
      <trkpt lat="44.79141" lon="1.58235">
        <ele>124.3</ele>
        <time>2024-12-25T14:18:46Z</time>
      </trkpt>
      <trkpt lat="44.79141" lon="1.58232">
        <ele>124.5</ele>
        <time>2024-12-25T14:18:47Z</time>
      </trkpt>
      <trkpt lat="44.79142" lon="1.58229">
        <ele>124.7</ele>
        <time>2024-12-25T14:18:49Z</time>
      </trkpt>
      <trkpt lat="44.79143" lon="1.58227">
        <ele>124.8</ele>
        <time>2024-12-25T14:18:51Z</time>
      </trkpt>
      <trkpt lat="44.79143" lon="1.58226">
        <ele>124.9</ele>
        <time>2024-12-25T14:18:52Z</time>
      </trkpt>
      <trkpt lat="44.79143" lon="1.58224">
        <ele>125</ele>
        <time>2024-12-25T14:18:53Z</time>
      </trkpt>
      <trkpt lat="44.79143" lon="1.58223">
        <ele>125.1</ele>
        <time>2024-12-25T14:18:54Z</time>
      </trkpt>
      <trkpt lat="44.79142" lon="1.58219">
        <ele>125.4</ele>
        <time>2024-12-25T14:18:55Z</time>
      </trkpt>
      <trkpt lat="44.79142" lon="1.58217">
        <ele>125.5</ele>
        <time>2024-12-25T14:18:57Z</time>
      </trkpt>
      <trkpt lat="44.79141" lon="1.58214">
        <ele>125.7</ele>
        <time>2024-12-25T14:18:58Z</time>
      </trkpt>
      <trkpt lat="44.79141" lon="1.58212">
        <ele>125.9</ele>
        <time>2024-12-25T14:18:59Z</time>
      </trkpt>
      <trkpt lat="44.79141" lon="1.58211">
        <ele>126</ele>
        <time>2024-12-25T14:19:00Z</time>
      </trkpt>
      <trkpt lat="44.79141" lon="1.58209">
        <ele>126.1</ele>
        <time>2024-12-25T14:19:01Z</time>
      </trkpt>
      <trkpt lat="44.79141" lon="1.58207">
        <ele>126.3</ele>
        <time>2024-12-25T14:19:02Z</time>
      </trkpt>
      <trkpt lat="44.79141" lon="1.58205">
        <ele>126.5</ele>
        <time>2024-12-25T14:19:03Z</time>
      </trkpt>
      <trkpt lat="44.79141" lon="1.58203">
        <ele>126.7</ele>
        <time>2024-12-25T14:19:04Z</time>
      </trkpt>
      <trkpt lat="44.79142" lon="1.58201">
        <ele>126.9</ele>
        <time>2024-12-25T14:19:05Z</time>
      </trkpt>
      <trkpt lat="44.79142" lon="1.58199">
        <ele>127.1</ele>
        <time>2024-12-25T14:19:06Z</time>
      </trkpt>
      <trkpt lat="44.79142" lon="1.58197">
        <ele>127.3</ele>
        <time>2024-12-25T14:19:08Z</time>
      </trkpt>
      <trkpt lat="44.79142" lon="1.58193">
        <ele>127.7</ele>
        <time>2024-12-25T14:19:09Z</time>
      </trkpt>
      <trkpt lat="44.79142" lon="1.58191">
        <ele>128.1</ele>
        <time>2024-12-25T14:19:11Z</time>
      </trkpt>
      <trkpt lat="44.79142" lon="1.58189">
        <ele>128.2</ele>
        <time>2024-12-25T14:19:12Z</time>
      </trkpt>
      <trkpt lat="44.79142" lon="1.58188">
        <ele>128.3</ele>
        <time>2024-12-25T14:19:13Z</time>
      </trkpt>
      <trkpt lat="44.79142" lon="1.58187">
        <ele>128.5</ele>
        <time>2024-12-25T14:19:14Z</time>
      </trkpt>
      <trkpt lat="44.79142" lon="1.58185">
        <ele>128.7</ele>
        <time>2024-12-25T14:19:15Z</time>
      </trkpt>
      <trkpt lat="44.79142" lon="1.58184">
        <ele>128.9</ele>
        <time>2024-12-25T14:19:16Z</time>
      </trkpt>
      <trkpt lat="44.79142" lon="1.58183">
        <ele>129</ele>
        <time>2024-12-25T14:19:17Z</time>
      </trkpt>
      <trkpt lat="44.79142" lon="1.58181">
        <ele>129.2</ele>
        <time>2024-12-25T14:19:18Z</time>
      </trkpt>
      <trkpt lat="44.79142" lon="1.5818">
        <ele>129.4</ele>
        <time>2024-12-25T14:19:19Z</time>
      </trkpt>
      <trkpt lat="44.79143" lon="1.58179">
        <ele>129.5</ele>
        <time>2024-12-25T14:19:20Z</time>
      </trkpt>
      <trkpt lat="44.79143" lon="1.58176">
        <ele>129.9</ele>
        <time>2024-12-25T14:19:21Z</time>
      </trkpt>
      <trkpt lat="44.79142" lon="1.58173">
        <ele>130.2</ele>
        <time>2024-12-25T14:19:23Z</time>
      </trkpt>
      <trkpt lat="44.79141" lon="1.58171">
        <ele>130.4</ele>
        <time>2024-12-25T14:19:25Z</time>
      </trkpt>
      <trkpt lat="44.79141" lon="1.58169">
        <ele>130.6</ele>
        <time>2024-12-25T14:19:26Z</time>
      </trkpt>
      <trkpt lat="44.7914" lon="1.58167">
        <ele>130.9</ele>
        <time>2024-12-25T14:19:27Z</time>
      </trkpt>
      <trkpt lat="44.7914" lon="1.58166">
        <ele>131</ele>
        <time>2024-12-25T14:19:29Z</time>
      </trkpt>
      <trkpt lat="44.79139" lon="1.58164">
        <ele>131.1</ele>
        <time>2024-12-25T14:19:30Z</time>
      </trkpt>
      <trkpt lat="44.79139" lon="1.58163">
        <ele>131.3</ele>
        <time>2024-12-25T14:19:31Z</time>
      </trkpt>
      <trkpt lat="44.79139" lon="1.58162">
        <ele>131.4</ele>
        <time>2024-12-25T14:19:32Z</time>
      </trkpt>
      <trkpt lat="44.79139" lon="1.58159">
        <ele>131.7</ele>
        <time>2024-12-25T14:19:33Z</time>
      </trkpt>
      <trkpt lat="44.79139" lon="1.58158">
        <ele>131.9</ele>
        <time>2024-12-25T14:19:35Z</time>
      </trkpt>
      <trkpt lat="44.79138" lon="1.58157">
        <ele>132</ele>
        <time>2024-12-25T14:19:36Z</time>
      </trkpt>
      <trkpt lat="44.79138" lon="1.58156">
        <ele>132.1</ele>
        <time>2024-12-25T14:19:37Z</time>
      </trkpt>
      <trkpt lat="44.79138" lon="1.58155">
        <ele>132.3</ele>
        <time>2024-12-25T14:19:38Z</time>
      </trkpt>
      <trkpt lat="44.79138" lon="1.58154">
        <ele>132.4</ele>
        <time>2024-12-25T14:19:39Z</time>
      </trkpt>
      <trkpt lat="44.79139" lon="1.58152">
        <ele>132.6</ele>
        <time>2024-12-25T14:19:40Z</time>
      </trkpt>
      <trkpt lat="44.79139" lon="1.5815">
        <ele>132.9</ele>
        <time>2024-12-25T14:19:41Z</time>
      </trkpt>
      <trkpt lat="44.7914" lon="1.58147">
        <ele>133.3</ele>
        <time>2024-12-25T14:19:42Z</time>
      </trkpt>
      <trkpt lat="44.79141" lon="1.58144">
        <ele>133.7</ele>
        <time>2024-12-25T14:19:44Z</time>
      </trkpt>
      <trkpt lat="44.79141" lon="1.58143">
        <ele>133.9</ele>
        <time>2024-12-25T14:19:46Z</time>
      </trkpt>
      <trkpt lat="44.79141" lon="1.58141">
        <ele>134.1</ele>
        <time>2024-12-25T14:19:47Z</time>
      </trkpt>
      <trkpt lat="44.79141" lon="1.58139">
        <ele>134.3</ele>
        <time>2024-12-25T14:19:48Z</time>
      </trkpt>
      <trkpt lat="44.79142" lon="1.58137">
        <ele>134.7</ele>
        <time>2024-12-25T14:19:49Z</time>
      </trkpt>
      <trkpt lat="44.79142" lon="1.58135">
        <ele>134.9</ele>
        <time>2024-12-25T14:19:51Z</time>
      </trkpt>
      <trkpt lat="44.79142" lon="1.58134">
        <ele>135.1</ele>
        <time>2024-12-25T14:19:52Z</time>
      </trkpt>
      <trkpt lat="44.79142" lon="1.58132">
        <ele>135.3</ele>
        <time>2024-12-25T14:19:53Z</time>
      </trkpt>
      <trkpt lat="44.79143" lon="1.58129">
        <ele>135.7</ele>
        <time>2024-12-25T14:19:54Z</time>
      </trkpt>
      <trkpt lat="44.79144" lon="1.58126">
        <ele>136.1</ele>
        <time>2024-12-25T14:19:56Z</time>
      </trkpt>
      <trkpt lat="44.79144" lon="1.58126">
        <ele>136.2</ele>
        <time>2024-12-25T14:19:57Z</time>
      </trkpt>
      <trkpt lat="44.79144" lon="1.58124">
        <ele>136.4</ele>
        <time>2024-12-25T14:19:58Z</time>
      </trkpt>
      <trkpt lat="44.79144" lon="1.58123">
        <ele>136.6</ele>
        <time>2024-12-25T14:19:59Z</time>
      </trkpt>
      <trkpt lat="44.79144" lon="1.58122">
        <ele>136.7</ele>
        <time>2024-12-25T14:20:00Z</time>
      </trkpt>
      <trkpt lat="44.79145" lon="1.5812">
        <ele>136.9</ele>
        <time>2024-12-25T14:20:01Z</time>
      </trkpt>
      <trkpt lat="44.79146" lon="1.58117">
        <ele>137.3</ele>
        <time>2024-12-25T14:20:02Z</time>
      </trkpt>
      <trkpt lat="44.79146" lon="1.58115">
        <ele>137.4</ele>
        <time>2024-12-25T14:20:04Z</time>
      </trkpt>
      <trkpt lat="44.79147" lon="1.58114">
        <ele>137.4</ele>
        <time>2024-12-25T14:20:06Z</time>
      </trkpt>
      <trkpt lat="44.79148" lon="1.58113">
        <ele>137.4</ele>
        <time>2024-12-25T14:20:07Z</time>
      </trkpt>
      <trkpt lat="44.79147" lon="1.58112">
        <ele>137.4</ele>
        <time>2024-12-25T14:20:08Z</time>
      </trkpt>
      <trkpt lat="44.79147" lon="1.58111">
        <ele>137.4</ele>
        <time>2024-12-25T14:20:09Z</time>
      </trkpt>
      <trkpt lat="44.79146" lon="1.58112">
        <ele>137.5</ele>
        <time>2024-12-25T14:20:10Z</time>
      </trkpt>
      <trkpt lat="44.79146" lon="1.58113">
        <ele>137.5</ele>
        <time>2024-12-25T14:20:11Z</time>
      </trkpt>
      <trkpt lat="44.79146" lon="1.58113">
        <ele>137.5</ele>
        <time>2024-12-25T14:20:12Z</time>
      </trkpt>
      <trkpt lat="44.79146" lon="1.58113">
        <ele>137.5</ele>
        <time>2024-12-25T14:20:13Z</time>
      </trkpt>
      <trkpt lat="44.79146" lon="1.58113">
        <ele>137.5</ele>
        <time>2024-12-25T14:20:14Z</time>
      </trkpt>
      <trkpt lat="44.79146" lon="1.58113">
        <ele>137.5</ele>
        <time>2024-12-25T14:20:15Z</time>
      </trkpt>
      <trkpt lat="44.79146" lon="1.58113">
        <ele>137.5</ele>
        <time>2024-12-25T14:20:16Z</time>
      </trkpt>
      <trkpt lat="44.79146" lon="1.58112">
        <ele>137.5</ele>
        <time>2024-12-25T14:20:17Z</time>
      </trkpt>
      <trkpt lat="44.79146" lon="1.58111">
        <ele>137.5</ele>
        <time>2024-12-25T14:20:18Z</time>
      </trkpt>
      <trkpt lat="44.79146" lon="1.5811">
        <ele>137.5</ele>
        <time>2024-12-25T14:20:19Z</time>
      </trkpt>
      <trkpt lat="44.79146" lon="1.58107">
        <ele>137.5</ele>
        <time>2024-12-25T14:20:20Z</time>
      </trkpt>
      <trkpt lat="44.79145" lon="1.58106">
        <ele>137.5</ele>
        <time>2024-12-25T14:20:21Z</time>
      </trkpt>
      <trkpt lat="44.79145" lon="1.58107">
        <ele>137.5</ele>
        <time>2024-12-25T14:20:23Z</time>
      </trkpt>
      <trkpt lat="44.79145" lon="1.58107">
        <ele>137.5</ele>
        <time>2024-12-25T14:20:24Z</time>
      </trkpt>
      <trkpt lat="44.79145" lon="1.58107">
        <ele>137.5</ele>
        <time>2024-12-25T14:20:25Z</time>
      </trkpt>
      <trkpt lat="44.79145" lon="1.58107">
        <ele>137.6</ele>
        <time>2024-12-25T14:20:26Z</time>
      </trkpt>
      <trkpt lat="44.79145" lon="1.58106">
        <ele>137.6</ele>
        <time>2024-12-25T14:20:27Z</time>
      </trkpt>
      <trkpt lat="44.79145" lon="1.58105">
        <ele>137.6</ele>
        <time>2024-12-25T14:20:29Z</time>
      </trkpt>
      <trkpt lat="44.79145" lon="1.581">
        <ele>137.6</ele>
        <time>2024-12-25T14:20:30Z</time>
      </trkpt>
      <trkpt lat="44.79146" lon="1.58096">
        <ele>137.6</ele>
        <time>2024-12-25T14:20:32Z</time>
      </trkpt>
      <trkpt lat="44.79146" lon="1.58095">
        <ele>137.7</ele>
        <time>2024-12-25T14:20:33Z</time>
      </trkpt>
      <trkpt lat="44.79146" lon="1.58094">
        <ele>137.7</ele>
        <time>2024-12-25T14:20:34Z</time>
      </trkpt>
      <trkpt lat="44.79146" lon="1.58093">
        <ele>137.7</ele>
        <time>2024-12-25T14:20:35Z</time>
      </trkpt>
      <trkpt lat="44.79146" lon="1.5809">
        <ele>137.7</ele>
        <time>2024-12-25T14:20:36Z</time>
      </trkpt>
      <trkpt lat="44.79146" lon="1.58089">
        <ele>137.7</ele>
        <time>2024-12-25T14:20:37Z</time>
      </trkpt>
      <trkpt lat="44.79146" lon="1.58088">
        <ele>137.7</ele>
        <time>2024-12-25T14:20:38Z</time>
      </trkpt>
      <trkpt lat="44.79145" lon="1.58085">
        <ele>137.8</ele>
        <time>2024-12-25T14:20:39Z</time>
      </trkpt>
      <trkpt lat="44.79145" lon="1.58083">
        <ele>137.8</ele>
        <time>2024-12-25T14:20:40Z</time>
      </trkpt>
      <trkpt lat="44.79145" lon="1.58082">
        <ele>137.8</ele>
        <time>2024-12-25T14:20:41Z</time>
      </trkpt>
      <trkpt lat="44.79145" lon="1.58078">
        <ele>137.8</ele>
        <time>2024-12-25T14:20:42Z</time>
      </trkpt>
      <trkpt lat="44.79145" lon="1.58077">
        <ele>137.9</ele>
        <time>2024-12-25T14:20:43Z</time>
      </trkpt>
      <trkpt lat="44.79145" lon="1.58075">
        <ele>137.9</ele>
        <time>2024-12-25T14:20:45Z</time>
      </trkpt>
      <trkpt lat="44.79146" lon="1.58073">
        <ele>137.9</ele>
        <time>2024-12-25T14:20:46Z</time>
      </trkpt>
      <trkpt lat="44.79146" lon="1.58071">
        <ele>137.9</ele>
        <time>2024-12-25T14:20:47Z</time>
      </trkpt>
      <trkpt lat="44.79146" lon="1.58069">
        <ele>137.9</ele>
        <time>2024-12-25T14:20:48Z</time>
      </trkpt>
      <trkpt lat="44.79146" lon="1.58067">
        <ele>138</ele>
        <time>2024-12-25T14:20:49Z</time>
      </trkpt>
      <trkpt lat="44.79146" lon="1.58065">
        <ele>138</ele>
        <time>2024-12-25T14:20:50Z</time>
      </trkpt>
      <trkpt lat="44.79146" lon="1.58062">
        <ele>138</ele>
        <time>2024-12-25T14:20:51Z</time>
      </trkpt>
      <trkpt lat="44.79146" lon="1.5806">
        <ele>138</ele>
        <time>2024-12-25T14:20:53Z</time>
      </trkpt>
      <trkpt lat="44.79146" lon="1.58059">
        <ele>138</ele>
        <time>2024-12-25T14:20:54Z</time>
      </trkpt>
      <trkpt lat="44.79146" lon="1.58056">
        <ele>138.1</ele>
        <time>2024-12-25T14:20:55Z</time>
      </trkpt>
      <trkpt lat="44.79146" lon="1.58054">
        <ele>138.1</ele>
        <time>2024-12-25T14:20:57Z</time>
      </trkpt>
      <trkpt lat="44.79146" lon="1.58052">
        <ele>138.1</ele>
        <time>2024-12-25T14:20:58Z</time>
      </trkpt>
      <trkpt lat="44.79146" lon="1.5805">
        <ele>138.1</ele>
        <time>2024-12-25T14:20:59Z</time>
      </trkpt>
      <trkpt lat="44.79146" lon="1.58048">
        <ele>138.1</ele>
        <time>2024-12-25T14:21:00Z</time>
      </trkpt>
      <trkpt lat="44.79146" lon="1.58047">
        <ele>138.1</ele>
        <time>2024-12-25T14:21:01Z</time>
      </trkpt>
      <trkpt lat="44.79146" lon="1.58044">
        <ele>138.1</ele>
        <time>2024-12-25T14:21:02Z</time>
      </trkpt>
      <trkpt lat="44.79145" lon="1.58041">
        <ele>138.2</ele>
        <time>2024-12-25T14:21:04Z</time>
      </trkpt>
      <trkpt lat="44.79145" lon="1.5804">
        <ele>138.2</ele>
        <time>2024-12-25T14:21:05Z</time>
      </trkpt>
      <trkpt lat="44.79145" lon="1.58036">
        <ele>138.2</ele>
        <time>2024-12-25T14:21:06Z</time>
      </trkpt>
      <trkpt lat="44.79145" lon="1.58032">
        <ele>138.1</ele>
        <time>2024-12-25T14:21:08Z</time>
      </trkpt>
      <trkpt lat="44.79145" lon="1.58031">
        <ele>138.1</ele>
        <time>2024-12-25T14:21:09Z</time>
      </trkpt>
      <trkpt lat="44.79145" lon="1.58029">
        <ele>138.1</ele>
        <time>2024-12-25T14:21:10Z</time>
      </trkpt>
      <trkpt lat="44.79145" lon="1.58025">
        <ele>138.1</ele>
        <time>2024-12-25T14:21:12Z</time>
      </trkpt>
      <trkpt lat="44.79145" lon="1.58024">
        <ele>138.1</ele>
        <time>2024-12-25T14:21:13Z</time>
      </trkpt>
      <trkpt lat="44.79145" lon="1.58023">
        <ele>138.1</ele>
        <time>2024-12-25T14:21:14Z</time>
      </trkpt>
      <trkpt lat="44.79145" lon="1.58021">
        <ele>138.1</ele>
        <time>2024-12-25T14:21:15Z</time>
      </trkpt>
      <trkpt lat="44.79145" lon="1.58019">
        <ele>138.1</ele>
        <time>2024-12-25T14:21:16Z</time>
      </trkpt>
      <trkpt lat="44.79145" lon="1.58017">
        <ele>138.1</ele>
        <time>2024-12-25T14:21:17Z</time>
      </trkpt>
      <trkpt lat="44.79145" lon="1.58015">
        <ele>138.1</ele>
        <time>2024-12-25T14:21:18Z</time>
      </trkpt>
      <trkpt lat="44.79145" lon="1.58013">
        <ele>138</ele>
        <time>2024-12-25T14:21:19Z</time>
      </trkpt>
      <trkpt lat="44.79145" lon="1.58009">
        <ele>138</ele>
        <time>2024-12-25T14:21:20Z</time>
      </trkpt>
      <trkpt lat="44.79145" lon="1.58007">
        <ele>138</ele>
        <time>2024-12-25T14:21:22Z</time>
      </trkpt>
      <trkpt lat="44.79145" lon="1.58004">
        <ele>137.9</ele>
        <time>2024-12-25T14:21:23Z</time>
      </trkpt>
      <trkpt lat="44.79145" lon="1.58003">
        <ele>137.9</ele>
        <time>2024-12-25T14:21:24Z</time>
      </trkpt>
      <trkpt lat="44.79144" lon="1.58002">
        <ele>137.9</ele>
        <time>2024-12-25T14:21:25Z</time>
      </trkpt>
      <trkpt lat="44.79143" lon="1.57999">
        <ele>137.9</ele>
        <time>2024-12-25T14:21:26Z</time>
      </trkpt>
      <trkpt lat="44.79143" lon="1.57996">
        <ele>137.9</ele>
        <time>2024-12-25T14:21:28Z</time>
      </trkpt>
      <trkpt lat="44.79142" lon="1.57993">
        <ele>137.8</ele>
        <time>2024-12-25T14:21:29Z</time>
      </trkpt>
      <trkpt lat="44.79142" lon="1.57992">
        <ele>137.8</ele>
        <time>2024-12-25T14:21:30Z</time>
      </trkpt>
      <trkpt lat="44.79142" lon="1.5799">
        <ele>137.8</ele>
        <time>2024-12-25T14:21:31Z</time>
      </trkpt>
      <trkpt lat="44.79142" lon="1.57988">
        <ele>137.8</ele>
        <time>2024-12-25T14:21:32Z</time>
      </trkpt>
      <trkpt lat="44.79142" lon="1.57984">
        <ele>137.7</ele>
        <time>2024-12-25T14:21:33Z</time>
      </trkpt>
      <trkpt lat="44.79142" lon="1.57982">
        <ele>137.7</ele>
        <time>2024-12-25T14:21:34Z</time>
      </trkpt>
      <trkpt lat="44.79142" lon="1.57979">
        <ele>137.7</ele>
        <time>2024-12-25T14:21:36Z</time>
      </trkpt>
      <trkpt lat="44.79142" lon="1.57977">
        <ele>137.7</ele>
        <time>2024-12-25T14:21:37Z</time>
      </trkpt>
      <trkpt lat="44.79142" lon="1.57976">
        <ele>137.7</ele>
        <time>2024-12-25T14:21:38Z</time>
      </trkpt>
      <trkpt lat="44.79142" lon="1.57974">
        <ele>137.6</ele>
        <time>2024-12-25T14:21:39Z</time>
      </trkpt>
      <trkpt lat="44.79141" lon="1.57972">
        <ele>137.6</ele>
        <time>2024-12-25T14:21:40Z</time>
      </trkpt>
      <trkpt lat="44.79141" lon="1.5797">
        <ele>137.6</ele>
        <time>2024-12-25T14:21:41Z</time>
      </trkpt>
      <trkpt lat="44.79141" lon="1.57967">
        <ele>137.6</ele>
        <time>2024-12-25T14:21:42Z</time>
      </trkpt>
      <trkpt lat="44.79141" lon="1.57965">
        <ele>137.6</ele>
        <time>2024-12-25T14:21:43Z</time>
      </trkpt>
      <trkpt lat="44.79141" lon="1.57963">
        <ele>137.5</ele>
        <time>2024-12-25T14:21:44Z</time>
      </trkpt>
      <trkpt lat="44.7914" lon="1.5796">
        <ele>137.5</ele>
        <time>2024-12-25T14:21:45Z</time>
      </trkpt>
      <trkpt lat="44.79139" lon="1.57959">
        <ele>137.5</ele>
        <time>2024-12-25T14:21:47Z</time>
      </trkpt>
      <trkpt lat="44.79139" lon="1.57958">
        <ele>137.5</ele>
        <time>2024-12-25T14:21:48Z</time>
      </trkpt>
      <trkpt lat="44.79139" lon="1.57956">
        <ele>137.5</ele>
        <time>2024-12-25T14:21:49Z</time>
      </trkpt>
      <trkpt lat="44.79138" lon="1.57954">
        <ele>137.5</ele>
        <time>2024-12-25T14:21:50Z</time>
      </trkpt>
      <trkpt lat="44.79138" lon="1.57952">
        <ele>137.5</ele>
        <time>2024-12-25T14:21:51Z</time>
      </trkpt>
      <trkpt lat="44.79138" lon="1.5795">
        <ele>137.5</ele>
        <time>2024-12-25T14:21:52Z</time>
      </trkpt>
      <trkpt lat="44.79138" lon="1.57949">
        <ele>137.5</ele>
        <time>2024-12-25T14:21:53Z</time>
      </trkpt>
      <trkpt lat="44.79138" lon="1.57945">
        <ele>137.5</ele>
        <time>2024-12-25T14:21:54Z</time>
      </trkpt>
      <trkpt lat="44.79137" lon="1.57941">
        <ele>137.5</ele>
        <time>2024-12-25T14:21:56Z</time>
      </trkpt>
      <trkpt lat="44.79136" lon="1.57939">
        <ele>137.5</ele>
        <time>2024-12-25T14:21:57Z</time>
      </trkpt>
      <trkpt lat="44.79135" lon="1.57937">
        <ele>137.5</ele>
        <time>2024-12-25T14:21:58Z</time>
      </trkpt>
      <trkpt lat="44.79134" lon="1.57934">
        <ele>137.5</ele>
        <time>2024-12-25T14:21:59Z</time>
      </trkpt>
      <trkpt lat="44.79134" lon="1.57933">
        <ele>137.5</ele>
        <time>2024-12-25T14:22:01Z</time>
      </trkpt>
      <trkpt lat="44.79133" lon="1.57932">
        <ele>137.5</ele>
        <time>2024-12-25T14:22:02Z</time>
      </trkpt>
      <trkpt lat="44.79132" lon="1.5793">
        <ele>137.5</ele>
        <time>2024-12-25T14:22:04Z</time>
      </trkpt>
      <trkpt lat="44.79132" lon="1.57929">
        <ele>137.5</ele>
        <time>2024-12-25T14:22:05Z</time>
      </trkpt>
      <trkpt lat="44.79132" lon="1.57928">
        <ele>137.5</ele>
        <time>2024-12-25T14:22:06Z</time>
      </trkpt>
      <trkpt lat="44.79132" lon="1.57927">
        <ele>137.5</ele>
        <time>2024-12-25T14:22:07Z</time>
      </trkpt>
      <trkpt lat="44.79132" lon="1.57927">
        <ele>137.5</ele>
        <time>2024-12-25T14:22:08Z</time>
      </trkpt>
      <trkpt lat="44.79131" lon="1.57927">
        <ele>137.5</ele>
        <time>2024-12-25T14:22:10Z</time>
      </trkpt>
      <trkpt lat="44.79131" lon="1.57927">
        <ele>137.5</ele>
        <time>2024-12-25T14:22:11Z</time>
      </trkpt>
      <trkpt lat="44.79131" lon="1.57927">
        <ele>137.5</ele>
        <time>2024-12-25T14:22:12Z</time>
      </trkpt>
      <trkpt lat="44.79131" lon="1.57927">
        <ele>137.5</ele>
        <time>2024-12-25T14:22:13Z</time>
      </trkpt>
      <trkpt lat="44.79131" lon="1.57927">
        <ele>137.5</ele>
        <time>2024-12-25T14:22:14Z</time>
      </trkpt>
      <trkpt lat="44.79131" lon="1.57927">
        <ele>137.5</ele>
        <time>2024-12-25T14:22:16Z</time>
      </trkpt>
      <trkpt lat="44.79134" lon="1.57925">
        <ele>137.6</ele>
        <time>2024-12-25T14:22:18Z</time>
      </trkpt>
      <trkpt lat="44.79134" lon="1.57922">
        <ele>137.6</ele>
        <time>2024-12-25T14:22:19Z</time>
      </trkpt>
      <trkpt lat="44.79134" lon="1.5792">
        <ele>137.6</ele>
        <time>2024-12-25T14:22:20Z</time>
      </trkpt>
      <trkpt lat="44.79134" lon="1.57918">
        <ele>137.6</ele>
        <time>2024-12-25T14:22:21Z</time>
      </trkpt>
      <trkpt lat="44.79134" lon="1.57916">
        <ele>137.7</ele>
        <time>2024-12-25T14:22:22Z</time>
      </trkpt>
      <trkpt lat="44.79135" lon="1.57915">
        <ele>137.7</ele>
        <time>2024-12-25T14:22:23Z</time>
      </trkpt>
      <trkpt lat="44.79134" lon="1.57914">
        <ele>137.7</ele>
        <time>2024-12-25T14:22:24Z</time>
      </trkpt>
      <trkpt lat="44.79135" lon="1.57914">
        <ele>137.7</ele>
        <time>2024-12-25T14:22:25Z</time>
      </trkpt>
      <trkpt lat="44.79134" lon="1.57911">
        <ele>137.8</ele>
        <time>2024-12-25T14:22:27Z</time>
      </trkpt>
      <trkpt lat="44.79134" lon="1.57908">
        <ele>137.8</ele>
        <time>2024-12-25T14:22:28Z</time>
      </trkpt>
      <trkpt lat="44.79134" lon="1.57906">
        <ele>137.8</ele>
        <time>2024-12-25T14:22:29Z</time>
      </trkpt>
      <trkpt lat="44.79134" lon="1.57904">
        <ele>137.9</ele>
        <time>2024-12-25T14:22:31Z</time>
      </trkpt>
      <trkpt lat="44.79134" lon="1.57902">
        <ele>137.9</ele>
        <time>2024-12-25T14:22:32Z</time>
      </trkpt>
      <trkpt lat="44.79132" lon="1.57901">
        <ele>137.9</ele>
        <time>2024-12-25T14:22:33Z</time>
      </trkpt>
      <trkpt lat="44.79131" lon="1.579">
        <ele>138</ele>
        <time>2024-12-25T14:22:34Z</time>
      </trkpt>
      <trkpt lat="44.79131" lon="1.57899">
        <ele>138</ele>
        <time>2024-12-25T14:22:35Z</time>
      </trkpt>
      <trkpt lat="44.79132" lon="1.57899">
        <ele>138</ele>
        <time>2024-12-25T14:22:36Z</time>
      </trkpt>
      <trkpt lat="44.79132" lon="1.57898">
        <ele>138</ele>
        <time>2024-12-25T14:22:38Z</time>
      </trkpt>
      <trkpt lat="44.79131" lon="1.57897">
        <ele>138</ele>
        <time>2024-12-25T14:22:39Z</time>
      </trkpt>
      <trkpt lat="44.79131" lon="1.57895">
        <ele>138.1</ele>
        <time>2024-12-25T14:22:40Z</time>
      </trkpt>
      <trkpt lat="44.79131" lon="1.57896">
        <ele>138.1</ele>
        <time>2024-12-25T14:22:41Z</time>
      </trkpt>
      <trkpt lat="44.79131" lon="1.57895">
        <ele>138.1</ele>
        <time>2024-12-25T14:22:42Z</time>
      </trkpt>
      <trkpt lat="44.7913" lon="1.57875">
        <ele>138.5</ele>
        <time>2024-12-25T14:22:45Z</time>
      </trkpt>
      <trkpt lat="44.79132" lon="1.57874">
        <ele>138.6</ele>
        <time>2024-12-25T14:22:46Z</time>
      </trkpt>
      <trkpt lat="44.79132" lon="1.57872">
        <ele>138.6</ele>
        <time>2024-12-25T14:22:47Z</time>
      </trkpt>
      <trkpt lat="44.79132" lon="1.5787">
        <ele>138.7</ele>
        <time>2024-12-25T14:22:48Z</time>
      </trkpt>
      <trkpt lat="44.79132" lon="1.57869">
        <ele>138.7</ele>
        <time>2024-12-25T14:22:49Z</time>
      </trkpt>
      <trkpt lat="44.79132" lon="1.57867">
        <ele>138.8</ele>
        <time>2024-12-25T14:22:50Z</time>
      </trkpt>
      <trkpt lat="44.79133" lon="1.57866">
        <ele>138.8</ele>
        <time>2024-12-25T14:22:51Z</time>
      </trkpt>
      <trkpt lat="44.79133" lon="1.57863">
        <ele>138.9</ele>
        <time>2024-12-25T14:22:52Z</time>
      </trkpt>
      <trkpt lat="44.79133" lon="1.57861">
        <ele>138.9</ele>
        <time>2024-12-25T14:22:53Z</time>
      </trkpt>
      <trkpt lat="44.79134" lon="1.57859">
        <ele>139</ele>
        <time>2024-12-25T14:22:54Z</time>
      </trkpt>
      <trkpt lat="44.79134" lon="1.57857">
        <ele>139</ele>
        <time>2024-12-25T14:22:55Z</time>
      </trkpt>
      <trkpt lat="44.79135" lon="1.57855">
        <ele>139.1</ele>
        <time>2024-12-25T14:22:57Z</time>
      </trkpt>
      <trkpt lat="44.79136" lon="1.57853">
        <ele>139.2</ele>
        <time>2024-12-25T14:22:58Z</time>
      </trkpt>
      <trkpt lat="44.79136" lon="1.57849">
        <ele>139.3</ele>
        <time>2024-12-25T14:22:59Z</time>
      </trkpt>
      <trkpt lat="44.79135" lon="1.57847">
        <ele>139.4</ele>
        <time>2024-12-25T14:23:01Z</time>
      </trkpt>
      <trkpt lat="44.79134" lon="1.57844">
        <ele>139.5</ele>
        <time>2024-12-25T14:23:02Z</time>
      </trkpt>
      <trkpt lat="44.79135" lon="1.57842">
        <ele>139.5</ele>
        <time>2024-12-25T14:23:04Z</time>
      </trkpt>
      <trkpt lat="44.79136" lon="1.57841">
        <ele>139.6</ele>
        <time>2024-12-25T14:23:05Z</time>
      </trkpt>
      <trkpt lat="44.79137" lon="1.57839">
        <ele>139.7</ele>
        <time>2024-12-25T14:23:06Z</time>
      </trkpt>
      <trkpt lat="44.79137" lon="1.57837">
        <ele>139.7</ele>
        <time>2024-12-25T14:23:07Z</time>
      </trkpt>
      <trkpt lat="44.79137" lon="1.57836">
        <ele>139.8</ele>
        <time>2024-12-25T14:23:08Z</time>
      </trkpt>
      <trkpt lat="44.79137" lon="1.57834">
        <ele>139.8</ele>
        <time>2024-12-25T14:23:09Z</time>
      </trkpt>
      <trkpt lat="44.79137" lon="1.57832">
        <ele>139.9</ele>
        <time>2024-12-25T14:23:10Z</time>
      </trkpt>
      <trkpt lat="44.79138" lon="1.57831">
        <ele>139.9</ele>
        <time>2024-12-25T14:23:11Z</time>
      </trkpt>
      <trkpt lat="44.7914" lon="1.57828">
        <ele>140.1</ele>
        <time>2024-12-25T14:23:12Z</time>
      </trkpt>
      <trkpt lat="44.79141" lon="1.57827">
        <ele>140.2</ele>
        <time>2024-12-25T14:23:14Z</time>
      </trkpt>
      <trkpt lat="44.79142" lon="1.57825">
        <ele>140.2</ele>
        <time>2024-12-25T14:23:15Z</time>
      </trkpt>
      <trkpt lat="44.79143" lon="1.57823">
        <ele>140.3</ele>
        <time>2024-12-25T14:23:16Z</time>
      </trkpt>
      <trkpt lat="44.79144" lon="1.5782">
        <ele>140.4</ele>
        <time>2024-12-25T14:23:17Z</time>
      </trkpt>
      <trkpt lat="44.79144" lon="1.57818">
        <ele>140.4</ele>
        <time>2024-12-25T14:23:19Z</time>
      </trkpt>
      <trkpt lat="44.79145" lon="1.57816">
        <ele>140.5</ele>
        <time>2024-12-25T14:23:20Z</time>
      </trkpt>
      <trkpt lat="44.79145" lon="1.57814">
        <ele>140.5</ele>
        <time>2024-12-25T14:23:21Z</time>
      </trkpt>
      <trkpt lat="44.79146" lon="1.57811">
        <ele>140.6</ele>
        <time>2024-12-25T14:23:22Z</time>
      </trkpt>
      <trkpt lat="44.79146" lon="1.5781">
        <ele>140.6</ele>
        <time>2024-12-25T14:23:23Z</time>
      </trkpt>
      <trkpt lat="44.79147" lon="1.57809">
        <ele>140.6</ele>
        <time>2024-12-25T14:23:24Z</time>
      </trkpt>
      <trkpt lat="44.79148" lon="1.57807">
        <ele>140.6</ele>
        <time>2024-12-25T14:23:25Z</time>
      </trkpt>
      <trkpt lat="44.79148" lon="1.57806">
        <ele>140.7</ele>
        <time>2024-12-25T14:23:26Z</time>
      </trkpt>
      <trkpt lat="44.79149" lon="1.57804">
        <ele>140.7</ele>
        <time>2024-12-25T14:23:27Z</time>
      </trkpt>
      <trkpt lat="44.7915" lon="1.57801">
        <ele>140.7</ele>
        <time>2024-12-25T14:23:28Z</time>
      </trkpt>
      <trkpt lat="44.7915" lon="1.57799">
        <ele>140.7</ele>
        <time>2024-12-25T14:23:30Z</time>
      </trkpt>
      <trkpt lat="44.79151" lon="1.57797">
        <ele>140.7</ele>
        <time>2024-12-25T14:23:31Z</time>
      </trkpt>
      <trkpt lat="44.79151" lon="1.57796">
        <ele>140.7</ele>
        <time>2024-12-25T14:23:32Z</time>
      </trkpt>
      <trkpt lat="44.79153" lon="1.57794">
        <ele>140.7</ele>
        <time>2024-12-25T14:23:34Z</time>
      </trkpt>
      <trkpt lat="44.79154" lon="1.57793">
        <ele>140.7</ele>
        <time>2024-12-25T14:23:35Z</time>
      </trkpt>
      <trkpt lat="44.79155" lon="1.57792">
        <ele>140.7</ele>
        <time>2024-12-25T14:23:36Z</time>
      </trkpt>
      <trkpt lat="44.79156" lon="1.57791">
        <ele>140.7</ele>
        <time>2024-12-25T14:23:37Z</time>
      </trkpt>
      <trkpt lat="44.79157" lon="1.57789">
        <ele>140.7</ele>
        <time>2024-12-25T14:23:38Z</time>
      </trkpt>
      <trkpt lat="44.79158" lon="1.57788">
        <ele>140.7</ele>
        <time>2024-12-25T14:23:39Z</time>
      </trkpt>
      <trkpt lat="44.79159" lon="1.57784">
        <ele>140.6</ele>
        <time>2024-12-25T14:23:40Z</time>
      </trkpt>
      <trkpt lat="44.79159" lon="1.57782">
        <ele>140.5</ele>
        <time>2024-12-25T14:23:42Z</time>
      </trkpt>
      <trkpt lat="44.7916" lon="1.57781">
        <ele>140.5</ele>
        <time>2024-12-25T14:23:43Z</time>
      </trkpt>
      <trkpt lat="44.79161" lon="1.57777">
        <ele>140.4</ele>
        <time>2024-12-25T14:23:44Z</time>
      </trkpt>
      <trkpt lat="44.79161" lon="1.57775">
        <ele>140.3</ele>
        <time>2024-12-25T14:23:45Z</time>
      </trkpt>
      <trkpt lat="44.79161" lon="1.57773">
        <ele>140.2</ele>
        <time>2024-12-25T14:23:47Z</time>
      </trkpt>
      <trkpt lat="44.79162" lon="1.57772">
        <ele>140.2</ele>
        <time>2024-12-25T14:23:48Z</time>
      </trkpt>
      <trkpt lat="44.79162" lon="1.5777">
        <ele>140.1</ele>
        <time>2024-12-25T14:23:49Z</time>
      </trkpt>
      <trkpt lat="44.79163" lon="1.57766">
        <ele>139.9</ele>
        <time>2024-12-25T14:23:50Z</time>
      </trkpt>
      <trkpt lat="44.79164" lon="1.57763">
        <ele>139.7</ele>
        <time>2024-12-25T14:23:52Z</time>
      </trkpt>
      <trkpt lat="44.79164" lon="1.57762">
        <ele>139.6</ele>
        <time>2024-12-25T14:23:53Z</time>
      </trkpt>
      <trkpt lat="44.79164" lon="1.57761">
        <ele>139.6</ele>
        <time>2024-12-25T14:23:54Z</time>
      </trkpt>
      <trkpt lat="44.79166" lon="1.57757">
        <ele>139.3</ele>
        <time>2024-12-25T14:23:55Z</time>
      </trkpt>
      <trkpt lat="44.79166" lon="1.57754">
        <ele>139.1</ele>
        <time>2024-12-25T14:23:57Z</time>
      </trkpt>
      <trkpt lat="44.79166" lon="1.57753">
        <ele>139.1</ele>
        <time>2024-12-25T14:23:58Z</time>
      </trkpt>
      <trkpt lat="44.79167" lon="1.57752">
        <ele>139</ele>
        <time>2024-12-25T14:23:59Z</time>
      </trkpt>
      <trkpt lat="44.79167" lon="1.57749">
        <ele>138.8</ele>
        <time>2024-12-25T14:24:00Z</time>
      </trkpt>
      <trkpt lat="44.79167" lon="1.57746">
        <ele>138.6</ele>
        <time>2024-12-25T14:24:01Z</time>
      </trkpt>
      <trkpt lat="44.79168" lon="1.57744">
        <ele>138.4</ele>
        <time>2024-12-25T14:24:03Z</time>
      </trkpt>
      <trkpt lat="44.79168" lon="1.57743">
        <ele>138.3</ele>
        <time>2024-12-25T14:24:04Z</time>
      </trkpt>
      <trkpt lat="44.79169" lon="1.57739">
        <ele>138.1</ele>
        <time>2024-12-25T14:24:05Z</time>
      </trkpt>
      <trkpt lat="44.79169" lon="1.57738">
        <ele>138</ele>
        <time>2024-12-25T14:24:06Z</time>
      </trkpt>
      <trkpt lat="44.7917" lon="1.57735">
        <ele>137.8</ele>
        <time>2024-12-25T14:24:08Z</time>
      </trkpt>
      <trkpt lat="44.7917" lon="1.57734">
        <ele>137.7</ele>
        <time>2024-12-25T14:24:09Z</time>
      </trkpt>
      <trkpt lat="44.7917" lon="1.57732">
        <ele>137.6</ele>
        <time>2024-12-25T14:24:10Z</time>
      </trkpt>
      <trkpt lat="44.79171" lon="1.57728">
        <ele>137.3</ele>
        <time>2024-12-25T14:24:11Z</time>
      </trkpt>
      <trkpt lat="44.79171" lon="1.57727">
        <ele>137.2</ele>
        <time>2024-12-25T14:24:13Z</time>
      </trkpt>
      <trkpt lat="44.79171" lon="1.57725">
        <ele>137.1</ele>
        <time>2024-12-25T14:24:14Z</time>
      </trkpt>
      <trkpt lat="44.79171" lon="1.57723">
        <ele>137</ele>
        <time>2024-12-25T14:24:15Z</time>
      </trkpt>
      <trkpt lat="44.79171" lon="1.5772">
        <ele>136.8</ele>
        <time>2024-12-25T14:24:16Z</time>
      </trkpt>
      <trkpt lat="44.79171" lon="1.57718">
        <ele>136.7</ele>
        <time>2024-12-25T14:24:17Z</time>
      </trkpt>
      <trkpt lat="44.79172" lon="1.57717">
        <ele>136.6</ele>
        <time>2024-12-25T14:24:18Z</time>
      </trkpt>
      <trkpt lat="44.79172" lon="1.57715">
        <ele>136.5</ele>
        <time>2024-12-25T14:24:19Z</time>
      </trkpt>
      <trkpt lat="44.79173" lon="1.57713">
        <ele>136.3</ele>
        <time>2024-12-25T14:24:20Z</time>
      </trkpt>
      <trkpt lat="44.79174" lon="1.57711">
        <ele>136.2</ele>
        <time>2024-12-25T14:24:21Z</time>
      </trkpt>
      <trkpt lat="44.79174" lon="1.57709">
        <ele>136.1</ele>
        <time>2024-12-25T14:24:22Z</time>
      </trkpt>
      <trkpt lat="44.79175" lon="1.57707">
        <ele>136</ele>
        <time>2024-12-25T14:24:23Z</time>
      </trkpt>
      <trkpt lat="44.79176" lon="1.57705">
        <ele>135.8</ele>
        <time>2024-12-25T14:24:25Z</time>
      </trkpt>
      <trkpt lat="44.79176" lon="1.57704">
        <ele>135.7</ele>
        <time>2024-12-25T14:24:26Z</time>
      </trkpt>
      <trkpt lat="44.79176" lon="1.57702">
        <ele>135.7</ele>
        <time>2024-12-25T14:24:27Z</time>
      </trkpt>
      <trkpt lat="44.79176" lon="1.577">
        <ele>135.5</ele>
        <time>2024-12-25T14:24:28Z</time>
      </trkpt>
      <trkpt lat="44.79176" lon="1.57698">
        <ele>135.4</ele>
        <time>2024-12-25T14:24:29Z</time>
      </trkpt>
      <trkpt lat="44.79176" lon="1.57696">
        <ele>135.3</ele>
        <time>2024-12-25T14:24:30Z</time>
      </trkpt>
      <trkpt lat="44.79178" lon="1.57692">
        <ele>135.1</ele>
        <time>2024-12-25T14:24:31Z</time>
      </trkpt>
      <trkpt lat="44.79178" lon="1.5769">
        <ele>134.9</ele>
        <time>2024-12-25T14:24:33Z</time>
      </trkpt>
      <trkpt lat="44.79179" lon="1.57689">
        <ele>134.9</ele>
        <time>2024-12-25T14:24:34Z</time>
      </trkpt>
      <trkpt lat="44.7918" lon="1.57685">
        <ele>134.6</ele>
        <time>2024-12-25T14:24:35Z</time>
      </trkpt>
      <trkpt lat="44.7918" lon="1.57683">
        <ele>134.5</ele>
        <time>2024-12-25T14:24:36Z</time>
      </trkpt>
      <trkpt lat="44.7918" lon="1.57682">
        <ele>134.5</ele>
        <time>2024-12-25T14:24:37Z</time>
      </trkpt>
      <trkpt lat="44.79181" lon="1.57679">
        <ele>134.3</ele>
        <time>2024-12-25T14:24:38Z</time>
      </trkpt>
      <trkpt lat="44.79181" lon="1.57677">
        <ele>134.2</ele>
        <time>2024-12-25T14:24:40Z</time>
      </trkpt>
      <trkpt lat="44.79181" lon="1.57676">
        <ele>134.1</ele>
        <time>2024-12-25T14:24:41Z</time>
      </trkpt>
      <trkpt lat="44.79182" lon="1.57674">
        <ele>134.1</ele>
        <time>2024-12-25T14:24:42Z</time>
      </trkpt>
      <trkpt lat="44.79182" lon="1.57673">
        <ele>134</ele>
        <time>2024-12-25T14:24:43Z</time>
      </trkpt>
      <trkpt lat="44.79184" lon="1.57669">
        <ele>133.8</ele>
        <time>2024-12-25T14:24:44Z</time>
      </trkpt>
      <trkpt lat="44.79184" lon="1.57667">
        <ele>133.7</ele>
        <time>2024-12-25T14:24:46Z</time>
      </trkpt>
      <trkpt lat="44.79185" lon="1.57665">
        <ele>133.6</ele>
        <time>2024-12-25T14:24:47Z</time>
      </trkpt>
      <trkpt lat="44.79185" lon="1.57663">
        <ele>133.5</ele>
        <time>2024-12-25T14:24:48Z</time>
      </trkpt>
      <trkpt lat="44.79185" lon="1.5766">
        <ele>133.3</ele>
        <time>2024-12-25T14:24:49Z</time>
      </trkpt>
      <trkpt lat="44.79186" lon="1.57658">
        <ele>133.3</ele>
        <time>2024-12-25T14:24:50Z</time>
      </trkpt>
      <trkpt lat="44.79186" lon="1.57657">
        <ele>133.2</ele>
        <time>2024-12-25T14:24:51Z</time>
      </trkpt>
      <trkpt lat="44.79187" lon="1.57656">
        <ele>133.1</ele>
        <time>2024-12-25T14:24:52Z</time>
      </trkpt>
      <trkpt lat="44.79188" lon="1.57654">
        <ele>133.1</ele>
        <time>2024-12-25T14:24:53Z</time>
      </trkpt>
      <trkpt lat="44.79189" lon="1.57652">
        <ele>132.9</ele>
        <time>2024-12-25T14:24:54Z</time>
      </trkpt>
      <trkpt lat="44.7919" lon="1.5765">
        <ele>132.9</ele>
        <time>2024-12-25T14:24:55Z</time>
      </trkpt>
      <trkpt lat="44.7919" lon="1.57649">
        <ele>132.8</ele>
        <time>2024-12-25T14:24:56Z</time>
      </trkpt>
      <trkpt lat="44.79192" lon="1.57645">
        <ele>132.7</ele>
        <time>2024-12-25T14:24:57Z</time>
      </trkpt>
      <trkpt lat="44.79192" lon="1.57643">
        <ele>132.6</ele>
        <time>2024-12-25T14:24:59Z</time>
      </trkpt>
      <trkpt lat="44.79193" lon="1.57642">
        <ele>132.5</ele>
        <time>2024-12-25T14:25:00Z</time>
      </trkpt>
      <trkpt lat="44.79193" lon="1.57639">
        <ele>132.4</ele>
        <time>2024-12-25T14:25:01Z</time>
      </trkpt>
      <trkpt lat="44.79194" lon="1.57637">
        <ele>132.3</ele>
        <time>2024-12-25T14:25:02Z</time>
      </trkpt>
      <trkpt lat="44.79195" lon="1.57634">
        <ele>132.2</ele>
        <time>2024-12-25T14:25:03Z</time>
      </trkpt>
      <trkpt lat="44.79195" lon="1.57633">
        <ele>132.1</ele>
        <time>2024-12-25T14:25:04Z</time>
      </trkpt>
      <trkpt lat="44.79195" lon="1.57631">
        <ele>132.1</ele>
        <time>2024-12-25T14:25:05Z</time>
      </trkpt>
      <trkpt lat="44.79196" lon="1.5763">
        <ele>132</ele>
        <time>2024-12-25T14:25:06Z</time>
      </trkpt>
      <trkpt lat="44.79197" lon="1.57628">
        <ele>131.9</ele>
        <time>2024-12-25T14:25:07Z</time>
      </trkpt>
      <trkpt lat="44.79197" lon="1.57626">
        <ele>131.9</ele>
        <time>2024-12-25T14:25:08Z</time>
      </trkpt>
      <trkpt lat="44.79198" lon="1.57624">
        <ele>131.8</ele>
        <time>2024-12-25T14:25:09Z</time>
      </trkpt>
      <trkpt lat="44.79198" lon="1.57623">
        <ele>131.8</ele>
        <time>2024-12-25T14:25:10Z</time>
      </trkpt>
      <trkpt lat="44.79199" lon="1.57621">
        <ele>131.7</ele>
        <time>2024-12-25T14:25:11Z</time>
      </trkpt>
      <trkpt lat="44.79199" lon="1.57619">
        <ele>131.6</ele>
        <time>2024-12-25T14:25:13Z</time>
      </trkpt>
      <trkpt lat="44.79201" lon="1.57616">
        <ele>131.5</ele>
        <time>2024-12-25T14:25:14Z</time>
      </trkpt>
      <trkpt lat="44.79201" lon="1.57615">
        <ele>131.5</ele>
        <time>2024-12-25T14:25:15Z</time>
      </trkpt>
      <trkpt lat="44.79201" lon="1.57614">
        <ele>131.4</ele>
        <time>2024-12-25T14:25:16Z</time>
      </trkpt>
      <trkpt lat="44.79202" lon="1.57612">
        <ele>131.4</ele>
        <time>2024-12-25T14:25:17Z</time>
      </trkpt>
      <trkpt lat="44.79203" lon="1.5761">
        <ele>131.3</ele>
        <time>2024-12-25T14:25:18Z</time>
      </trkpt>
      <trkpt lat="44.79204" lon="1.57608">
        <ele>131.2</ele>
        <time>2024-12-25T14:25:19Z</time>
      </trkpt>
      <trkpt lat="44.79205" lon="1.57606">
        <ele>131.2</ele>
        <time>2024-12-25T14:25:20Z</time>
      </trkpt>
      <trkpt lat="44.79206" lon="1.57604">
        <ele>131.1</ele>
        <time>2024-12-25T14:25:21Z</time>
      </trkpt>
      <trkpt lat="44.79207" lon="1.57602">
        <ele>131.1</ele>
        <time>2024-12-25T14:25:22Z</time>
      </trkpt>
      <trkpt lat="44.79208" lon="1.57601">
        <ele>131</ele>
        <time>2024-12-25T14:25:23Z</time>
      </trkpt>
      <trkpt lat="44.79209" lon="1.57599">
        <ele>131</ele>
        <time>2024-12-25T14:25:24Z</time>
      </trkpt>
      <trkpt lat="44.7921" lon="1.57596">
        <ele>130.9</ele>
        <time>2024-12-25T14:25:25Z</time>
      </trkpt>
      <trkpt lat="44.79211" lon="1.57595">
        <ele>130.9</ele>
        <time>2024-12-25T14:25:27Z</time>
      </trkpt>
      <trkpt lat="44.79211" lon="1.57594">
        <ele>130.9</ele>
        <time>2024-12-25T14:25:28Z</time>
      </trkpt>
      <trkpt lat="44.79212" lon="1.57593">
        <ele>130.9</ele>
        <time>2024-12-25T14:25:29Z</time>
      </trkpt>
      <trkpt lat="44.79212" lon="1.57591">
        <ele>130.9</ele>
        <time>2024-12-25T14:25:30Z</time>
      </trkpt>
      <trkpt lat="44.79214" lon="1.57588">
        <ele>130.8</ele>
        <time>2024-12-25T14:25:31Z</time>
      </trkpt>
      <trkpt lat="44.79215" lon="1.57586">
        <ele>130.8</ele>
        <time>2024-12-25T14:25:32Z</time>
      </trkpt>
      <trkpt lat="44.79215" lon="1.57585">
        <ele>130.7</ele>
        <time>2024-12-25T14:25:34Z</time>
      </trkpt>
      <trkpt lat="44.79216" lon="1.57583">
        <ele>130.7</ele>
        <time>2024-12-25T14:25:35Z</time>
      </trkpt>
      <trkpt lat="44.79217" lon="1.57581">
        <ele>130.7</ele>
        <time>2024-12-25T14:25:36Z</time>
      </trkpt>
      <trkpt lat="44.79219" lon="1.5758">
        <ele>130.6</ele>
        <time>2024-12-25T14:25:37Z</time>
      </trkpt>
      <trkpt lat="44.7922" lon="1.57579">
        <ele>130.6</ele>
        <time>2024-12-25T14:25:38Z</time>
      </trkpt>
      <trkpt lat="44.79221" lon="1.57578">
        <ele>130.6</ele>
        <time>2024-12-25T14:25:39Z</time>
      </trkpt>
      <trkpt lat="44.79222" lon="1.57576">
        <ele>130.5</ele>
        <time>2024-12-25T14:25:40Z</time>
      </trkpt>
      <trkpt lat="44.79223" lon="1.57574">
        <ele>130.5</ele>
        <time>2024-12-25T14:25:41Z</time>
      </trkpt>
      <trkpt lat="44.79224" lon="1.57573">
        <ele>130.4</ele>
        <time>2024-12-25T14:25:42Z</time>
      </trkpt>
      <trkpt lat="44.79226" lon="1.5757">
        <ele>130.4</ele>
        <time>2024-12-25T14:25:43Z</time>
      </trkpt>
      <trkpt lat="44.79226" lon="1.57569">
        <ele>130.4</ele>
        <time>2024-12-25T14:25:45Z</time>
      </trkpt>
      <trkpt lat="44.79227" lon="1.57567">
        <ele>130.3</ele>
        <time>2024-12-25T14:25:46Z</time>
      </trkpt>
      <trkpt lat="44.79228" lon="1.57566">
        <ele>130.3</ele>
        <time>2024-12-25T14:25:47Z</time>
      </trkpt>
      <trkpt lat="44.79229" lon="1.57565">
        <ele>130.3</ele>
        <time>2024-12-25T14:25:48Z</time>
      </trkpt>
      <trkpt lat="44.79229" lon="1.57563">
        <ele>130.2</ele>
        <time>2024-12-25T14:25:49Z</time>
      </trkpt>
      <trkpt lat="44.79231" lon="1.57562">
        <ele>130.2</ele>
        <time>2024-12-25T14:25:50Z</time>
      </trkpt>
      <trkpt lat="44.79232" lon="1.5756">
        <ele>130.1</ele>
        <time>2024-12-25T14:25:51Z</time>
      </trkpt>
      <trkpt lat="44.79233" lon="1.57559">
        <ele>130.1</ele>
        <time>2024-12-25T14:25:52Z</time>
      </trkpt>
      <trkpt lat="44.79234" lon="1.57558">
        <ele>130.1</ele>
        <time>2024-12-25T14:25:53Z</time>
      </trkpt>
      <trkpt lat="44.79236" lon="1.57556">
        <ele>130</ele>
        <time>2024-12-25T14:25:54Z</time>
      </trkpt>
      <trkpt lat="44.79236" lon="1.57555">
        <ele>130</ele>
        <time>2024-12-25T14:25:55Z</time>
      </trkpt>
      <trkpt lat="44.79239" lon="1.57552">
        <ele>129.9</ele>
        <time>2024-12-25T14:25:56Z</time>
      </trkpt>
      <trkpt lat="44.7924" lon="1.5755">
        <ele>129.8</ele>
        <time>2024-12-25T14:25:58Z</time>
      </trkpt>
      <trkpt lat="44.79241" lon="1.57549">
        <ele>129.8</ele>
        <time>2024-12-25T14:25:59Z</time>
      </trkpt>
      <trkpt lat="44.79242" lon="1.57547">
        <ele>129.8</ele>
        <time>2024-12-25T14:26:00Z</time>
      </trkpt>
      <trkpt lat="44.79243" lon="1.57546">
        <ele>129.7</ele>
        <time>2024-12-25T14:26:01Z</time>
      </trkpt>
      <trkpt lat="44.79244" lon="1.57544">
        <ele>129.6</ele>
        <time>2024-12-25T14:26:02Z</time>
      </trkpt>
      <trkpt lat="44.79245" lon="1.57543">
        <ele>129.6</ele>
        <time>2024-12-25T14:26:03Z</time>
      </trkpt>
      <trkpt lat="44.79246" lon="1.57542">
        <ele>129.5</ele>
        <time>2024-12-25T14:26:04Z</time>
      </trkpt>
      <trkpt lat="44.79247" lon="1.5754">
        <ele>129.5</ele>
        <time>2024-12-25T14:26:05Z</time>
      </trkpt>
      <trkpt lat="44.79248" lon="1.57539">
        <ele>129.4</ele>
        <time>2024-12-25T14:26:06Z</time>
      </trkpt>
      <trkpt lat="44.79248" lon="1.57537">
        <ele>129.3</ele>
        <time>2024-12-25T14:26:07Z</time>
      </trkpt>
      <trkpt lat="44.79249" lon="1.57536">
        <ele>129.3</ele>
        <time>2024-12-25T14:26:08Z</time>
      </trkpt>
      <trkpt lat="44.7925" lon="1.57534">
        <ele>129.2</ele>
        <time>2024-12-25T14:26:09Z</time>
      </trkpt>
      <trkpt lat="44.79251" lon="1.57533">
        <ele>129.1</ele>
        <time>2024-12-25T14:26:10Z</time>
      </trkpt>
      <trkpt lat="44.79253" lon="1.57531">
        <ele>129</ele>
        <time>2024-12-25T14:26:11Z</time>
      </trkpt>
      <trkpt lat="44.79254" lon="1.5753">
        <ele>128.9</ele>
        <time>2024-12-25T14:26:12Z</time>
      </trkpt>
      <trkpt lat="44.79254" lon="1.5753">
        <ele>128.8</ele>
        <time>2024-12-25T14:26:13Z</time>
      </trkpt>
      <trkpt lat="44.79255" lon="1.57528">
        <ele>128.7</ele>
        <time>2024-12-25T14:26:14Z</time>
      </trkpt>
      <trkpt lat="44.79257" lon="1.57527">
        <ele>128.6</ele>
        <time>2024-12-25T14:26:15Z</time>
      </trkpt>
      <trkpt lat="44.79258" lon="1.57525">
        <ele>128.4</ele>
        <time>2024-12-25T14:26:16Z</time>
      </trkpt>
      <trkpt lat="44.79259" lon="1.57524">
        <ele>128.3</ele>
        <time>2024-12-25T14:26:17Z</time>
      </trkpt>
      <trkpt lat="44.7926" lon="1.57523">
        <ele>128.2</ele>
        <time>2024-12-25T14:26:18Z</time>
      </trkpt>
      <trkpt lat="44.79261" lon="1.5752">
        <ele>128</ele>
        <time>2024-12-25T14:26:19Z</time>
      </trkpt>
      <trkpt lat="44.79262" lon="1.57519">
        <ele>127.9</ele>
        <time>2024-12-25T14:26:20Z</time>
      </trkpt>
      <trkpt lat="44.79263" lon="1.57516">
        <ele>127.7</ele>
        <time>2024-12-25T14:26:21Z</time>
      </trkpt>
      <trkpt lat="44.79263" lon="1.57514">
        <ele>127.5</ele>
        <time>2024-12-25T14:26:22Z</time>
      </trkpt>
      <trkpt lat="44.79263" lon="1.57512">
        <ele>127.3</ele>
        <time>2024-12-25T14:26:23Z</time>
      </trkpt>
      <trkpt lat="44.79264" lon="1.57511">
        <ele>127.2</ele>
        <time>2024-12-25T14:26:24Z</time>
      </trkpt>
      <trkpt lat="44.79264" lon="1.57508">
        <ele>127</ele>
        <time>2024-12-25T14:26:25Z</time>
      </trkpt>
      <trkpt lat="44.79265" lon="1.57506">
        <ele>126.8</ele>
        <time>2024-12-25T14:26:26Z</time>
      </trkpt>
      <trkpt lat="44.79266" lon="1.57505">
        <ele>126.6</ele>
        <time>2024-12-25T14:26:27Z</time>
      </trkpt>
      <trkpt lat="44.79267" lon="1.57503">
        <ele>126.4</ele>
        <time>2024-12-25T14:26:28Z</time>
      </trkpt>
      <trkpt lat="44.79268" lon="1.57502">
        <ele>126.3</ele>
        <time>2024-12-25T14:26:29Z</time>
      </trkpt>
      <trkpt lat="44.79269" lon="1.57501">
        <ele>126.1</ele>
        <time>2024-12-25T14:26:30Z</time>
      </trkpt>
      <trkpt lat="44.7927" lon="1.575">
        <ele>125.9</ele>
        <time>2024-12-25T14:26:31Z</time>
      </trkpt>
      <trkpt lat="44.79271" lon="1.57499">
        <ele>125.7</ele>
        <time>2024-12-25T14:26:32Z</time>
      </trkpt>
      <trkpt lat="44.79272" lon="1.57497">
        <ele>125.5</ele>
        <time>2024-12-25T14:26:33Z</time>
      </trkpt>
      <trkpt lat="44.79272" lon="1.57496">
        <ele>125.4</ele>
        <time>2024-12-25T14:26:34Z</time>
      </trkpt>
      <trkpt lat="44.79273" lon="1.57495">
        <ele>125.2</ele>
        <time>2024-12-25T14:26:35Z</time>
      </trkpt>
      <trkpt lat="44.79275" lon="1.57493">
        <ele>125</ele>
        <time>2024-12-25T14:26:36Z</time>
      </trkpt>
      <trkpt lat="44.79276" lon="1.57492">
        <ele>124.8</ele>
        <time>2024-12-25T14:26:38Z</time>
      </trkpt>
      <trkpt lat="44.79277" lon="1.5749">
        <ele>124.7</ele>
        <time>2024-12-25T14:26:39Z</time>
      </trkpt>
      <trkpt lat="44.79278" lon="1.57488">
        <ele>124.5</ele>
        <time>2024-12-25T14:26:40Z</time>
      </trkpt>
      <trkpt lat="44.79279" lon="1.57486">
        <ele>124.3</ele>
        <time>2024-12-25T14:26:41Z</time>
      </trkpt>
      <trkpt lat="44.7928" lon="1.57485">
        <ele>124.1</ele>
        <time>2024-12-25T14:26:42Z</time>
      </trkpt>
      <trkpt lat="44.79281" lon="1.57484">
        <ele>124</ele>
        <time>2024-12-25T14:26:43Z</time>
      </trkpt>
      <trkpt lat="44.79281" lon="1.57482">
        <ele>123.8</ele>
        <time>2024-12-25T14:26:44Z</time>
      </trkpt>
      <trkpt lat="44.79284" lon="1.5748">
        <ele>123.6</ele>
        <time>2024-12-25T14:26:45Z</time>
      </trkpt>
      <trkpt lat="44.79284" lon="1.57478">
        <ele>123.4</ele>
        <time>2024-12-25T14:26:46Z</time>
      </trkpt>
      <trkpt lat="44.79286" lon="1.57477">
        <ele>123.2</ele>
        <time>2024-12-25T14:26:48Z</time>
      </trkpt>
      <trkpt lat="44.79287" lon="1.57476">
        <ele>123.2</ele>
        <time>2024-12-25T14:26:49Z</time>
      </trkpt>
      <trkpt lat="44.79287" lon="1.57475">
        <ele>123.1</ele>
        <time>2024-12-25T14:26:50Z</time>
      </trkpt>
      <trkpt lat="44.79289" lon="1.57474">
        <ele>123</ele>
        <time>2024-12-25T14:26:51Z</time>
      </trkpt>
      <trkpt lat="44.7929" lon="1.57473">
        <ele>122.8</ele>
        <time>2024-12-25T14:26:52Z</time>
      </trkpt>
      <trkpt lat="44.79291" lon="1.57472">
        <ele>122.7</ele>
        <time>2024-12-25T14:26:53Z</time>
      </trkpt>
      <trkpt lat="44.79293" lon="1.57471">
        <ele>122.6</ele>
        <time>2024-12-25T14:26:54Z</time>
      </trkpt>
      <trkpt lat="44.79294" lon="1.57469">
        <ele>122.5</ele>
        <time>2024-12-25T14:26:55Z</time>
      </trkpt>
      <trkpt lat="44.79295" lon="1.57467">
        <ele>122.4</ele>
        <time>2024-12-25T14:26:56Z</time>
      </trkpt>
      <trkpt lat="44.79296" lon="1.57466">
        <ele>122.3</ele>
        <time>2024-12-25T14:26:57Z</time>
      </trkpt>
      <trkpt lat="44.79297" lon="1.57464">
        <ele>122.2</ele>
        <time>2024-12-25T14:26:58Z</time>
      </trkpt>
      <trkpt lat="44.79299" lon="1.57462">
        <ele>122.1</ele>
        <time>2024-12-25T14:26:59Z</time>
      </trkpt>
      <trkpt lat="44.79299" lon="1.57461">
        <ele>122.1</ele>
        <time>2024-12-25T14:27:01Z</time>
      </trkpt>
      <trkpt lat="44.793" lon="1.5746">
        <ele>122</ele>
        <time>2024-12-25T14:27:02Z</time>
      </trkpt>
      <trkpt lat="44.79301" lon="1.57459">
        <ele>122</ele>
        <time>2024-12-25T14:27:03Z</time>
      </trkpt>
      <trkpt lat="44.79303" lon="1.57457">
        <ele>121.9</ele>
        <time>2024-12-25T14:27:04Z</time>
      </trkpt>
      <trkpt lat="44.79304" lon="1.57456">
        <ele>121.9</ele>
        <time>2024-12-25T14:27:05Z</time>
      </trkpt>
      <trkpt lat="44.79305" lon="1.57455">
        <ele>121.8</ele>
        <time>2024-12-25T14:27:06Z</time>
      </trkpt>
      <trkpt lat="44.79306" lon="1.57453">
        <ele>121.8</ele>
        <time>2024-12-25T14:27:07Z</time>
      </trkpt>
      <trkpt lat="44.79308" lon="1.57452">
        <ele>121.8</ele>
        <time>2024-12-25T14:27:08Z</time>
      </trkpt>
      <trkpt lat="44.79309" lon="1.57451">
        <ele>121.7</ele>
        <time>2024-12-25T14:27:09Z</time>
      </trkpt>
      <trkpt lat="44.79311" lon="1.57448">
        <ele>121.7</ele>
        <time>2024-12-25T14:27:10Z</time>
      </trkpt>
      <trkpt lat="44.79312" lon="1.57446">
        <ele>121.7</ele>
        <time>2024-12-25T14:27:11Z</time>
      </trkpt>
      <trkpt lat="44.79313" lon="1.57445">
        <ele>121.7</ele>
        <time>2024-12-25T14:27:12Z</time>
      </trkpt>
      <trkpt lat="44.79314" lon="1.57443">
        <ele>121.7</ele>
        <time>2024-12-25T14:27:14Z</time>
      </trkpt>
      <trkpt lat="44.79315" lon="1.57442">
        <ele>121.7</ele>
        <time>2024-12-25T14:27:15Z</time>
      </trkpt>
      <trkpt lat="44.79316" lon="1.5744">
        <ele>121.8</ele>
        <time>2024-12-25T14:27:16Z</time>
      </trkpt>
      <trkpt lat="44.79317" lon="1.57438">
        <ele>121.8</ele>
        <time>2024-12-25T14:27:17Z</time>
      </trkpt>
      <trkpt lat="44.79317" lon="1.57436">
        <ele>121.8</ele>
        <time>2024-12-25T14:27:18Z</time>
      </trkpt>
      <trkpt lat="44.79317" lon="1.57434">
        <ele>121.9</ele>
        <time>2024-12-25T14:27:19Z</time>
      </trkpt>
      <trkpt lat="44.79317" lon="1.57432">
        <ele>121.9</ele>
        <time>2024-12-25T14:27:20Z</time>
      </trkpt>
      <trkpt lat="44.79317" lon="1.5743">
        <ele>122</ele>
        <time>2024-12-25T14:27:21Z</time>
      </trkpt>
      <trkpt lat="44.79318" lon="1.57428">
        <ele>122</ele>
        <time>2024-12-25T14:27:22Z</time>
      </trkpt>
      <trkpt lat="44.79319" lon="1.57427">
        <ele>122.1</ele>
        <time>2024-12-25T14:27:23Z</time>
      </trkpt>
      <trkpt lat="44.7932" lon="1.57425">
        <ele>122.2</ele>
        <time>2024-12-25T14:27:24Z</time>
      </trkpt>
      <trkpt lat="44.79321" lon="1.57423">
        <ele>122.3</ele>
        <time>2024-12-25T14:27:25Z</time>
      </trkpt>
      <trkpt lat="44.79322" lon="1.57422">
        <ele>122.3</ele>
        <time>2024-12-25T14:27:26Z</time>
      </trkpt>
      <trkpt lat="44.79324" lon="1.57421">
        <ele>122.4</ele>
        <time>2024-12-25T14:27:27Z</time>
      </trkpt>
      <trkpt lat="44.79324" lon="1.57419">
        <ele>122.5</ele>
        <time>2024-12-25T14:27:28Z</time>
      </trkpt>
      <trkpt lat="44.79325" lon="1.57417">
        <ele>122.6</ele>
        <time>2024-12-25T14:27:29Z</time>
      </trkpt>
      <trkpt lat="44.79326" lon="1.57415">
        <ele>122.8</ele>
        <time>2024-12-25T14:27:30Z</time>
      </trkpt>
      <trkpt lat="44.79327" lon="1.57413">
        <ele>122.9</ele>
        <time>2024-12-25T14:27:31Z</time>
      </trkpt>
      <trkpt lat="44.79328" lon="1.57412">
        <ele>123</ele>
        <time>2024-12-25T14:27:32Z</time>
      </trkpt>
      <trkpt lat="44.79329" lon="1.57409">
        <ele>123.1</ele>
        <time>2024-12-25T14:27:33Z</time>
      </trkpt>
      <trkpt lat="44.79329" lon="1.57407">
        <ele>123.3</ele>
        <time>2024-12-25T14:27:35Z</time>
      </trkpt>
      <trkpt lat="44.79329" lon="1.57406">
        <ele>123.3</ele>
        <time>2024-12-25T14:27:36Z</time>
      </trkpt>
      <trkpt lat="44.7933" lon="1.57404">
        <ele>123.4</ele>
        <time>2024-12-25T14:27:37Z</time>
      </trkpt>
      <trkpt lat="44.79331" lon="1.57403">
        <ele>123.5</ele>
        <time>2024-12-25T14:27:38Z</time>
      </trkpt>
      <trkpt lat="44.79331" lon="1.57401">
        <ele>123.6</ele>
        <time>2024-12-25T14:27:39Z</time>
      </trkpt>
      <trkpt lat="44.79332" lon="1.574">
        <ele>123.7</ele>
        <time>2024-12-25T14:27:40Z</time>
      </trkpt>
      <trkpt lat="44.79333" lon="1.57396">
        <ele>124</ele>
        <time>2024-12-25T14:27:41Z</time>
      </trkpt>
      <trkpt lat="44.79333" lon="1.57394">
        <ele>124.1</ele>
        <time>2024-12-25T14:27:43Z</time>
      </trkpt>
      <trkpt lat="44.79333" lon="1.57392">
        <ele>124.2</ele>
        <time>2024-12-25T14:27:44Z</time>
      </trkpt>
      <trkpt lat="44.79334" lon="1.57388">
        <ele>124.4</ele>
        <time>2024-12-25T14:27:45Z</time>
      </trkpt>
      <trkpt lat="44.79334" lon="1.57386">
        <ele>124.5</ele>
        <time>2024-12-25T14:27:47Z</time>
      </trkpt>
      <trkpt lat="44.79334" lon="1.57384">
        <ele>124.6</ele>
        <time>2024-12-25T14:27:48Z</time>
      </trkpt>
      <trkpt lat="44.79334" lon="1.5738">
        <ele>124.8</ele>
        <time>2024-12-25T14:27:49Z</time>
      </trkpt>
      <trkpt lat="44.79333" lon="1.57379">
        <ele>124.8</ele>
        <time>2024-12-25T14:27:51Z</time>
      </trkpt>
      <trkpt lat="44.79333" lon="1.57377">
        <ele>124.9</ele>
        <time>2024-12-25T14:27:52Z</time>
      </trkpt>
      <trkpt lat="44.79334" lon="1.57373">
        <ele>125.1</ele>
        <time>2024-12-25T14:27:53Z</time>
      </trkpt>
      <trkpt lat="44.79334" lon="1.57371">
        <ele>125.2</ele>
        <time>2024-12-25T14:27:55Z</time>
      </trkpt>
      <trkpt lat="44.79334" lon="1.5737">
        <ele>125.2</ele>
        <time>2024-12-25T14:27:56Z</time>
      </trkpt>
      <trkpt lat="44.79335" lon="1.57366">
        <ele>125.4</ele>
        <time>2024-12-25T14:27:57Z</time>
      </trkpt>
      <trkpt lat="44.79335" lon="1.57364">
        <ele>125.5</ele>
        <time>2024-12-25T14:27:59Z</time>
      </trkpt>
      <trkpt lat="44.79336" lon="1.57362">
        <ele>125.6</ele>
        <time>2024-12-25T14:28:00Z</time>
      </trkpt>
      <trkpt lat="44.79337" lon="1.5736">
        <ele>125.7</ele>
        <time>2024-12-25T14:28:01Z</time>
      </trkpt>
      <trkpt lat="44.79337" lon="1.57358">
        <ele>125.8</ele>
        <time>2024-12-25T14:28:02Z</time>
      </trkpt>
      <trkpt lat="44.79338" lon="1.57355">
        <ele>126</ele>
        <time>2024-12-25T14:28:03Z</time>
      </trkpt>
      <trkpt lat="44.79339" lon="1.57353">
        <ele>126.1</ele>
        <time>2024-12-25T14:28:04Z</time>
      </trkpt>
      <trkpt lat="44.7934" lon="1.57352">
        <ele>126.2</ele>
        <time>2024-12-25T14:28:06Z</time>
      </trkpt>
      <trkpt lat="44.79341" lon="1.5735">
        <ele>126.3</ele>
        <time>2024-12-25T14:28:07Z</time>
      </trkpt>
      <trkpt lat="44.79342" lon="1.57347">
        <ele>126.5</ele>
        <time>2024-12-25T14:28:08Z</time>
      </trkpt>
      <trkpt lat="44.79343" lon="1.57345">
        <ele>126.6</ele>
        <time>2024-12-25T14:28:10Z</time>
      </trkpt>
      <trkpt lat="44.79344" lon="1.57343">
        <ele>126.7</ele>
        <time>2024-12-25T14:28:11Z</time>
      </trkpt>
      <trkpt lat="44.79345" lon="1.57341">
        <ele>126.9</ele>
        <time>2024-12-25T14:28:13Z</time>
      </trkpt>
      <trkpt lat="44.79345" lon="1.5734">
        <ele>126.9</ele>
        <time>2024-12-25T14:28:14Z</time>
      </trkpt>
      <trkpt lat="44.79346" lon="1.57337">
        <ele>127</ele>
        <time>2024-12-25T14:28:15Z</time>
      </trkpt>
      <trkpt lat="44.79347" lon="1.57336">
        <ele>127.1</ele>
        <time>2024-12-25T14:28:16Z</time>
      </trkpt>
      <trkpt lat="44.79348" lon="1.57332">
        <ele>127.3</ele>
        <time>2024-12-25T14:28:17Z</time>
      </trkpt>
      <trkpt lat="44.79349" lon="1.5733">
        <ele>127.4</ele>
        <time>2024-12-25T14:28:19Z</time>
      </trkpt>
      <trkpt lat="44.79349" lon="1.57329">
        <ele>127.5</ele>
        <time>2024-12-25T14:28:20Z</time>
      </trkpt>
      <trkpt lat="44.7935" lon="1.57327">
        <ele>127.6</ele>
        <time>2024-12-25T14:28:21Z</time>
      </trkpt>
      <trkpt lat="44.79351" lon="1.57324">
        <ele>127.8</ele>
        <time>2024-12-25T14:28:23Z</time>
      </trkpt>
      <trkpt lat="44.79351" lon="1.57323">
        <ele>127.8</ele>
        <time>2024-12-25T14:28:24Z</time>
      </trkpt>
      <trkpt lat="44.79351" lon="1.57322">
        <ele>127.9</ele>
        <time>2024-12-25T14:28:25Z</time>
      </trkpt>
      <trkpt lat="44.79353" lon="1.57319">
        <ele>128</ele>
        <time>2024-12-25T14:28:26Z</time>
      </trkpt>
      <trkpt lat="44.79354" lon="1.57318">
        <ele>128.1</ele>
        <time>2024-12-25T14:28:27Z</time>
      </trkpt>
      <trkpt lat="44.79355" lon="1.57316">
        <ele>128.1</ele>
        <time>2024-12-25T14:28:28Z</time>
      </trkpt>
      <trkpt lat="44.79356" lon="1.57315">
        <ele>128.2</ele>
        <time>2024-12-25T14:28:30Z</time>
      </trkpt>
      <trkpt lat="44.79358" lon="1.57313">
        <ele>128.3</ele>
        <time>2024-12-25T14:28:31Z</time>
      </trkpt>
      <trkpt lat="44.79358" lon="1.57311">
        <ele>128.3</ele>
        <time>2024-12-25T14:28:33Z</time>
      </trkpt>
      <trkpt lat="44.79359" lon="1.57307">
        <ele>128.4</ele>
        <time>2024-12-25T14:28:34Z</time>
      </trkpt>
      <trkpt lat="44.7936" lon="1.57306">
        <ele>128.4</ele>
        <time>2024-12-25T14:28:35Z</time>
      </trkpt>
      <trkpt lat="44.79361" lon="1.57303">
        <ele>128.4</ele>
        <time>2024-12-25T14:28:37Z</time>
      </trkpt>
      <trkpt lat="44.79361" lon="1.57302">
        <ele>128.5</ele>
        <time>2024-12-25T14:28:38Z</time>
      </trkpt>
      <trkpt lat="44.79361" lon="1.57301">
        <ele>128.5</ele>
        <time>2024-12-25T14:28:39Z</time>
      </trkpt>
      <trkpt lat="44.79362" lon="1.57299">
        <ele>128.5</ele>
        <time>2024-12-25T14:28:40Z</time>
      </trkpt>
      <trkpt lat="44.79363" lon="1.57298">
        <ele>128.5</ele>
        <time>2024-12-25T14:28:41Z</time>
      </trkpt>
      <trkpt lat="44.79365" lon="1.57295">
        <ele>128.5</ele>
        <time>2024-12-25T14:28:42Z</time>
      </trkpt>
      <trkpt lat="44.79365" lon="1.57294">
        <ele>128.4</ele>
        <time>2024-12-25T14:28:43Z</time>
      </trkpt>
      <trkpt lat="44.79366" lon="1.57293">
        <ele>128.4</ele>
        <time>2024-12-25T14:28:44Z</time>
      </trkpt>
      <trkpt lat="44.79367" lon="1.5729">
        <ele>128.4</ele>
        <time>2024-12-25T14:28:45Z</time>
      </trkpt>
      <trkpt lat="44.79367" lon="1.57288">
        <ele>128.4</ele>
        <time>2024-12-25T14:28:46Z</time>
      </trkpt>
      <trkpt lat="44.79368" lon="1.57287">
        <ele>128.3</ele>
        <time>2024-12-25T14:28:47Z</time>
      </trkpt>
      <trkpt lat="44.79368" lon="1.57285">
        <ele>128.3</ele>
        <time>2024-12-25T14:28:49Z</time>
      </trkpt>
      <trkpt lat="44.79369" lon="1.57283">
        <ele>128.3</ele>
        <time>2024-12-25T14:28:50Z</time>
      </trkpt>
      <trkpt lat="44.7937" lon="1.57279">
        <ele>128.2</ele>
        <time>2024-12-25T14:28:51Z</time>
      </trkpt>
      <trkpt lat="44.79371" lon="1.57276">
        <ele>128.1</ele>
        <time>2024-12-25T14:28:53Z</time>
      </trkpt>
      <trkpt lat="44.79371" lon="1.57275">
        <ele>128.1</ele>
        <time>2024-12-25T14:28:54Z</time>
      </trkpt>
      <trkpt lat="44.79372" lon="1.57273">
        <ele>128.1</ele>
        <time>2024-12-25T14:28:55Z</time>
      </trkpt>
      <trkpt lat="44.79372" lon="1.57272">
        <ele>128.1</ele>
        <time>2024-12-25T14:28:56Z</time>
      </trkpt>
      <trkpt lat="44.79373" lon="1.5727">
        <ele>128</ele>
        <time>2024-12-25T14:28:57Z</time>
      </trkpt>
      <trkpt lat="44.79373" lon="1.57268">
        <ele>128</ele>
        <time>2024-12-25T14:28:58Z</time>
      </trkpt>
      <trkpt lat="44.79374" lon="1.57267">
        <ele>128</ele>
        <time>2024-12-25T14:28:59Z</time>
      </trkpt>
      <trkpt lat="44.79375" lon="1.57265">
        <ele>128</ele>
        <time>2024-12-25T14:29:00Z</time>
      </trkpt>
      <trkpt lat="44.79376" lon="1.57263">
        <ele>128</ele>
        <time>2024-12-25T14:29:01Z</time>
      </trkpt>
      <trkpt lat="44.79376" lon="1.57261">
        <ele>128</ele>
        <time>2024-12-25T14:29:02Z</time>
      </trkpt>
      <trkpt lat="44.79377" lon="1.57259">
        <ele>128</ele>
        <time>2024-12-25T14:29:03Z</time>
      </trkpt>
      <trkpt lat="44.79378" lon="1.57257">
        <ele>128.1</ele>
        <time>2024-12-25T14:29:04Z</time>
      </trkpt>
      <trkpt lat="44.79379" lon="1.57255">
        <ele>128.1</ele>
        <time>2024-12-25T14:29:05Z</time>
      </trkpt>
      <trkpt lat="44.79379" lon="1.57254">
        <ele>128.1</ele>
        <time>2024-12-25T14:29:07Z</time>
      </trkpt>
      <trkpt lat="44.7938" lon="1.57252">
        <ele>128.1</ele>
        <time>2024-12-25T14:29:08Z</time>
      </trkpt>
      <trkpt lat="44.79382" lon="1.57249">
        <ele>128.2</ele>
        <time>2024-12-25T14:29:09Z</time>
      </trkpt>
      <trkpt lat="44.79384" lon="1.57248">
        <ele>128.2</ele>
        <time>2024-12-25T14:29:11Z</time>
      </trkpt>
      <trkpt lat="44.79384" lon="1.57246">
        <ele>128.3</ele>
        <time>2024-12-25T14:29:12Z</time>
      </trkpt>
      <trkpt lat="44.79386" lon="1.57245">
        <ele>128.3</ele>
        <time>2024-12-25T14:29:13Z</time>
      </trkpt>
      <trkpt lat="44.79387" lon="1.57243">
        <ele>128.4</ele>
        <time>2024-12-25T14:29:15Z</time>
      </trkpt>
      <trkpt lat="44.79388" lon="1.57242">
        <ele>128.4</ele>
        <time>2024-12-25T14:29:16Z</time>
      </trkpt>
      <trkpt lat="44.79388" lon="1.5724">
        <ele>128.4</ele>
        <time>2024-12-25T14:29:17Z</time>
      </trkpt>
      <trkpt lat="44.79389" lon="1.57239">
        <ele>128.4</ele>
        <time>2024-12-25T14:29:18Z</time>
      </trkpt>
      <trkpt lat="44.7939" lon="1.57238">
        <ele>128.4</ele>
        <time>2024-12-25T14:29:19Z</time>
      </trkpt>
      <trkpt lat="44.79391" lon="1.57236">
        <ele>128.5</ele>
        <time>2024-12-25T14:29:20Z</time>
      </trkpt>
      <trkpt lat="44.79392" lon="1.57233">
        <ele>128.5</ele>
        <time>2024-12-25T14:29:21Z</time>
      </trkpt>
      <trkpt lat="44.79394" lon="1.5723">
        <ele>128.5</ele>
        <time>2024-12-25T14:29:23Z</time>
      </trkpt>
      <trkpt lat="44.79395" lon="1.57228">
        <ele>128.6</ele>
        <time>2024-12-25T14:29:24Z</time>
      </trkpt>
      <trkpt lat="44.79396" lon="1.57227">
        <ele>128.6</ele>
        <time>2024-12-25T14:29:25Z</time>
      </trkpt>
      <trkpt lat="44.79397" lon="1.57225">
        <ele>128.6</ele>
        <time>2024-12-25T14:29:26Z</time>
      </trkpt>
      <trkpt lat="44.79398" lon="1.57223">
        <ele>128.6</ele>
        <time>2024-12-25T14:29:27Z</time>
      </trkpt>
      <trkpt lat="44.79399" lon="1.57221">
        <ele>128.7</ele>
        <time>2024-12-25T14:29:29Z</time>
      </trkpt>
      <trkpt lat="44.794" lon="1.5722">
        <ele>128.7</ele>
        <time>2024-12-25T14:29:30Z</time>
      </trkpt>
      <trkpt lat="44.79401" lon="1.57219">
        <ele>128.7</ele>
        <time>2024-12-25T14:29:31Z</time>
      </trkpt>
      <trkpt lat="44.79402" lon="1.57217">
        <ele>128.8</ele>
        <time>2024-12-25T14:29:32Z</time>
      </trkpt>
      <trkpt lat="44.79404" lon="1.57214">
        <ele>128.9</ele>
        <time>2024-12-25T14:29:33Z</time>
      </trkpt>
      <trkpt lat="44.79405" lon="1.57212">
        <ele>129</ele>
        <time>2024-12-25T14:29:34Z</time>
      </trkpt>
      <trkpt lat="44.79406" lon="1.57211">
        <ele>129</ele>
        <time>2024-12-25T14:29:36Z</time>
      </trkpt>
      <trkpt lat="44.79406" lon="1.5721">
        <ele>129</ele>
        <time>2024-12-25T14:29:37Z</time>
      </trkpt>
      <trkpt lat="44.79408" lon="1.57208">
        <ele>129.1</ele>
        <time>2024-12-25T14:29:38Z</time>
      </trkpt>
      <trkpt lat="44.79409" lon="1.57207">
        <ele>129.2</ele>
        <time>2024-12-25T14:29:39Z</time>
      </trkpt>
      <trkpt lat="44.7941" lon="1.57205">
        <ele>129.3</ele>
        <time>2024-12-25T14:29:40Z</time>
      </trkpt>
      <trkpt lat="44.79411" lon="1.57204">
        <ele>129.3</ele>
        <time>2024-12-25T14:29:41Z</time>
      </trkpt>
      <trkpt lat="44.79413" lon="1.57201">
        <ele>129.5</ele>
        <time>2024-12-25T14:29:42Z</time>
      </trkpt>
      <trkpt lat="44.79413" lon="1.57201">
        <ele>129.5</ele>
        <time>2024-12-25T14:29:43Z</time>
      </trkpt>
      <trkpt lat="44.79414" lon="1.572">
        <ele>129.5</ele>
        <time>2024-12-25T14:29:44Z</time>
      </trkpt>
      <trkpt lat="44.79415" lon="1.57199">
        <ele>129.6</ele>
        <time>2024-12-25T14:29:45Z</time>
      </trkpt>
      <trkpt lat="44.79416" lon="1.57198">
        <ele>129.7</ele>
        <time>2024-12-25T14:29:47Z</time>
      </trkpt>
      <trkpt lat="44.79419" lon="1.57196">
        <ele>129.8</ele>
        <time>2024-12-25T14:29:48Z</time>
      </trkpt>
      <trkpt lat="44.7942" lon="1.57196">
        <ele>129.9</ele>
        <time>2024-12-25T14:29:50Z</time>
      </trkpt>
      <trkpt lat="44.79422" lon="1.57195">
        <ele>130</ele>
        <time>2024-12-25T14:29:51Z</time>
      </trkpt>
      <trkpt lat="44.79423" lon="1.57194">
        <ele>130</ele>
        <time>2024-12-25T14:29:52Z</time>
      </trkpt>
      <trkpt lat="44.79424" lon="1.57193">
        <ele>130.1</ele>
        <time>2024-12-25T14:29:53Z</time>
      </trkpt>
      <trkpt lat="44.79425" lon="1.57192">
        <ele>130.1</ele>
        <time>2024-12-25T14:29:54Z</time>
      </trkpt>
      <trkpt lat="44.79426" lon="1.57191">
        <ele>130.2</ele>
        <time>2024-12-25T14:29:55Z</time>
      </trkpt>
      <trkpt lat="44.79428" lon="1.57188">
        <ele>130.3</ele>
        <time>2024-12-25T14:29:56Z</time>
      </trkpt>
      <trkpt lat="44.79429" lon="1.57187">
        <ele>130.4</ele>
        <time>2024-12-25T14:29:58Z</time>
      </trkpt>
      <trkpt lat="44.7943" lon="1.57186">
        <ele>130.4</ele>
        <time>2024-12-25T14:29:59Z</time>
      </trkpt>
      <trkpt lat="44.79432" lon="1.57184">
        <ele>130.5</ele>
        <time>2024-12-25T14:30:00Z</time>
      </trkpt>
      <trkpt lat="44.79433" lon="1.57183">
        <ele>130.5</ele>
        <time>2024-12-25T14:30:02Z</time>
      </trkpt>
      <trkpt lat="44.79434" lon="1.57181">
        <ele>130.6</ele>
        <time>2024-12-25T14:30:03Z</time>
      </trkpt>
      <trkpt lat="44.79436" lon="1.57179">
        <ele>130.7</ele>
        <time>2024-12-25T14:30:04Z</time>
      </trkpt>
      <trkpt lat="44.79437" lon="1.57178">
        <ele>130.7</ele>
        <time>2024-12-25T14:30:06Z</time>
      </trkpt>
      <trkpt lat="44.79438" lon="1.57176">
        <ele>130.8</ele>
        <time>2024-12-25T14:30:07Z</time>
      </trkpt>
      <trkpt lat="44.79439" lon="1.57175">
        <ele>130.8</ele>
        <time>2024-12-25T14:30:08Z</time>
      </trkpt>
      <trkpt lat="44.7944" lon="1.57174">
        <ele>130.9</ele>
        <time>2024-12-25T14:30:09Z</time>
      </trkpt>
      <trkpt lat="44.79441" lon="1.57173">
        <ele>130.9</ele>
        <time>2024-12-25T14:30:10Z</time>
      </trkpt>
      <trkpt lat="44.79443" lon="1.57171">
        <ele>131</ele>
        <time>2024-12-25T14:30:11Z</time>
      </trkpt>
      <trkpt lat="44.79444" lon="1.5717">
        <ele>131.1</ele>
        <time>2024-12-25T14:30:12Z</time>
      </trkpt>
      <trkpt lat="44.79445" lon="1.57169">
        <ele>131.1</ele>
        <time>2024-12-25T14:30:13Z</time>
      </trkpt>
      <trkpt lat="44.79448" lon="1.57167">
        <ele>131.2</ele>
        <time>2024-12-25T14:30:15Z</time>
      </trkpt>
      <trkpt lat="44.79448" lon="1.57166">
        <ele>131.3</ele>
        <time>2024-12-25T14:30:16Z</time>
      </trkpt>
      <trkpt lat="44.79449" lon="1.57166">
        <ele>131.3</ele>
        <time>2024-12-25T14:30:17Z</time>
      </trkpt>
      <trkpt lat="44.7945" lon="1.57165">
        <ele>131.3</ele>
        <time>2024-12-25T14:30:18Z</time>
      </trkpt>
      <trkpt lat="44.79452" lon="1.57163">
        <ele>131.4</ele>
        <time>2024-12-25T14:30:19Z</time>
      </trkpt>
      <trkpt lat="44.79453" lon="1.57163">
        <ele>131.5</ele>
        <time>2024-12-25T14:30:20Z</time>
      </trkpt>
      <trkpt lat="44.79454" lon="1.57162">
        <ele>131.5</ele>
        <time>2024-12-25T14:30:21Z</time>
      </trkpt>
      <trkpt lat="44.79455" lon="1.57161">
        <ele>131.6</ele>
        <time>2024-12-25T14:30:22Z</time>
      </trkpt>
      <trkpt lat="44.79455" lon="1.57159">
        <ele>131.6</ele>
        <time>2024-12-25T14:30:23Z</time>
      </trkpt>
      <trkpt lat="44.79456" lon="1.57158">
        <ele>131.7</ele>
        <time>2024-12-25T14:30:24Z</time>
      </trkpt>
      <trkpt lat="44.79458" lon="1.57157">
        <ele>131.8</ele>
        <time>2024-12-25T14:30:25Z</time>
      </trkpt>
      <trkpt lat="44.7946" lon="1.57154">
        <ele>131.8</ele>
        <time>2024-12-25T14:30:26Z</time>
      </trkpt>
      <trkpt lat="44.79461" lon="1.57153">
        <ele>131.9</ele>
        <time>2024-12-25T14:30:28Z</time>
      </trkpt>
      <trkpt lat="44.79462" lon="1.57152">
        <ele>131.9</ele>
        <time>2024-12-25T14:30:29Z</time>
      </trkpt>
      <trkpt lat="44.79463" lon="1.57151">
        <ele>132</ele>
        <time>2024-12-25T14:30:30Z</time>
      </trkpt>
      <trkpt lat="44.79464" lon="1.57149">
        <ele>132</ele>
        <time>2024-12-25T14:30:31Z</time>
      </trkpt>
      <trkpt lat="44.79466" lon="1.57147">
        <ele>132</ele>
        <time>2024-12-25T14:30:32Z</time>
      </trkpt>
      <trkpt lat="44.79467" lon="1.57145">
        <ele>132.1</ele>
        <time>2024-12-25T14:30:33Z</time>
      </trkpt>
      <trkpt lat="44.79468" lon="1.57144">
        <ele>132.1</ele>
        <time>2024-12-25T14:30:34Z</time>
      </trkpt>
      <trkpt lat="44.7947" lon="1.57141">
        <ele>132.1</ele>
        <time>2024-12-25T14:30:36Z</time>
      </trkpt>
      <trkpt lat="44.79471" lon="1.5714">
        <ele>132.1</ele>
        <time>2024-12-25T14:30:37Z</time>
      </trkpt>
      <trkpt lat="44.79472" lon="1.57139">
        <ele>132.1</ele>
        <time>2024-12-25T14:30:38Z</time>
      </trkpt>
      <trkpt lat="44.79473" lon="1.57136">
        <ele>132.1</ele>
        <time>2024-12-25T14:30:40Z</time>
      </trkpt>
      <trkpt lat="44.79474" lon="1.57135">
        <ele>132.1</ele>
        <time>2024-12-25T14:30:41Z</time>
      </trkpt>
      <trkpt lat="44.79474" lon="1.57134">
        <ele>132.1</ele>
        <time>2024-12-25T14:30:42Z</time>
      </trkpt>
      <trkpt lat="44.79475" lon="1.57133">
        <ele>132.1</ele>
        <time>2024-12-25T14:30:43Z</time>
      </trkpt>
      <trkpt lat="44.79476" lon="1.57129">
        <ele>132.1</ele>
        <time>2024-12-25T14:30:44Z</time>
      </trkpt>
      <trkpt lat="44.79478" lon="1.57128">
        <ele>132</ele>
        <time>2024-12-25T14:30:46Z</time>
      </trkpt>
      <trkpt lat="44.79478" lon="1.57126">
        <ele>132</ele>
        <time>2024-12-25T14:30:47Z</time>
      </trkpt>
      <trkpt lat="44.7948" lon="1.57125">
        <ele>132</ele>
        <time>2024-12-25T14:30:48Z</time>
      </trkpt>
      <trkpt lat="44.79482" lon="1.57122">
        <ele>132</ele>
        <time>2024-12-25T14:30:49Z</time>
      </trkpt>
      <trkpt lat="44.79482" lon="1.57121">
        <ele>131.9</ele>
        <time>2024-12-25T14:30:50Z</time>
      </trkpt>
      <trkpt lat="44.79483" lon="1.57121">
        <ele>131.9</ele>
        <time>2024-12-25T14:30:51Z</time>
      </trkpt>
      <trkpt lat="44.79485" lon="1.57118">
        <ele>131.9</ele>
        <time>2024-12-25T14:30:52Z</time>
      </trkpt>
      <trkpt lat="44.79486" lon="1.57117">
        <ele>131.9</ele>
        <time>2024-12-25T14:30:53Z</time>
      </trkpt>
      <trkpt lat="44.79486" lon="1.57116">
        <ele>131.9</ele>
        <time>2024-12-25T14:30:54Z</time>
      </trkpt>
      <trkpt lat="44.79488" lon="1.57114">
        <ele>131.8</ele>
        <time>2024-12-25T14:30:56Z</time>
      </trkpt>
      <trkpt lat="44.79489" lon="1.57113">
        <ele>131.8</ele>
        <time>2024-12-25T14:30:57Z</time>
      </trkpt>
      <trkpt lat="44.79489" lon="1.57111">
        <ele>131.8</ele>
        <time>2024-12-25T14:30:58Z</time>
      </trkpt>
      <trkpt lat="44.79491" lon="1.57108">
        <ele>131.8</ele>
        <time>2024-12-25T14:30:59Z</time>
      </trkpt>
      <trkpt lat="44.79492" lon="1.57107">
        <ele>131.7</ele>
        <time>2024-12-25T14:31:00Z</time>
      </trkpt>
      <trkpt lat="44.79493" lon="1.57105">
        <ele>131.7</ele>
        <time>2024-12-25T14:31:02Z</time>
      </trkpt>
      <trkpt lat="44.79494" lon="1.57104">
        <ele>131.7</ele>
        <time>2024-12-25T14:31:03Z</time>
      </trkpt>
      <trkpt lat="44.79495" lon="1.57102">
        <ele>131.7</ele>
        <time>2024-12-25T14:31:04Z</time>
      </trkpt>
      <trkpt lat="44.79496" lon="1.57101">
        <ele>131.7</ele>
        <time>2024-12-25T14:31:05Z</time>
      </trkpt>
      <trkpt lat="44.79498" lon="1.57099">
        <ele>131.7</ele>
        <time>2024-12-25T14:31:06Z</time>
      </trkpt>
      <trkpt lat="44.79499" lon="1.57097">
        <ele>131.7</ele>
        <time>2024-12-25T14:31:08Z</time>
      </trkpt>
      <trkpt lat="44.795" lon="1.57096">
        <ele>131.7</ele>
        <time>2024-12-25T14:31:09Z</time>
      </trkpt>
      <trkpt lat="44.79501" lon="1.57094">
        <ele>131.7</ele>
        <time>2024-12-25T14:31:10Z</time>
      </trkpt>
      <trkpt lat="44.79502" lon="1.57093">
        <ele>131.7</ele>
        <time>2024-12-25T14:31:11Z</time>
      </trkpt>
      <trkpt lat="44.79502" lon="1.57092">
        <ele>131.7</ele>
        <time>2024-12-25T14:31:12Z</time>
      </trkpt>
      <trkpt lat="44.79504" lon="1.57091">
        <ele>131.7</ele>
        <time>2024-12-25T14:31:13Z</time>
      </trkpt>
      <trkpt lat="44.79505" lon="1.57088">
        <ele>131.7</ele>
        <time>2024-12-25T14:31:14Z</time>
      </trkpt>
      <trkpt lat="44.79505" lon="1.57087">
        <ele>131.7</ele>
        <time>2024-12-25T14:31:15Z</time>
      </trkpt>
      <trkpt lat="44.79506" lon="1.57086">
        <ele>131.7</ele>
        <time>2024-12-25T14:31:16Z</time>
      </trkpt>
      <trkpt lat="44.79507" lon="1.57085">
        <ele>131.7</ele>
        <time>2024-12-25T14:31:17Z</time>
      </trkpt>
      <trkpt lat="44.79508" lon="1.57083">
        <ele>131.7</ele>
        <time>2024-12-25T14:31:18Z</time>
      </trkpt>
      <trkpt lat="44.79509" lon="1.57082">
        <ele>131.8</ele>
        <time>2024-12-25T14:31:19Z</time>
      </trkpt>
      <trkpt lat="44.7951" lon="1.57081">
        <ele>131.8</ele>
        <time>2024-12-25T14:31:20Z</time>
      </trkpt>
      <trkpt lat="44.7951" lon="1.5708">
        <ele>131.8</ele>
        <time>2024-12-25T14:31:21Z</time>
      </trkpt>
      <trkpt lat="44.79511" lon="1.57079">
        <ele>131.8</ele>
        <time>2024-12-25T14:31:22Z</time>
      </trkpt>
      <trkpt lat="44.79513" lon="1.57076">
        <ele>131.9</ele>
        <time>2024-12-25T14:31:23Z</time>
      </trkpt>
      <trkpt lat="44.79514" lon="1.57075">
        <ele>131.9</ele>
        <time>2024-12-25T14:31:24Z</time>
      </trkpt>
      <trkpt lat="44.79515" lon="1.57074">
        <ele>131.9</ele>
        <time>2024-12-25T14:31:26Z</time>
      </trkpt>
      <trkpt lat="44.79516" lon="1.57072">
        <ele>132</ele>
        <time>2024-12-25T14:31:27Z</time>
      </trkpt>
      <trkpt lat="44.79517" lon="1.57071">
        <ele>132</ele>
        <time>2024-12-25T14:31:28Z</time>
      </trkpt>
      <trkpt lat="44.79519" lon="1.57069">
        <ele>132.1</ele>
        <time>2024-12-25T14:31:29Z</time>
      </trkpt>
      <trkpt lat="44.79522" lon="1.57067">
        <ele>132.2</ele>
        <time>2024-12-25T14:31:31Z</time>
      </trkpt>
      <trkpt lat="44.79523" lon="1.57066">
        <ele>132.2</ele>
        <time>2024-12-25T14:31:32Z</time>
      </trkpt>
      <trkpt lat="44.79524" lon="1.57065">
        <ele>132.3</ele>
        <time>2024-12-25T14:31:33Z</time>
      </trkpt>
      <trkpt lat="44.79526" lon="1.57062">
        <ele>132.4</ele>
        <time>2024-12-25T14:31:35Z</time>
      </trkpt>
      <trkpt lat="44.79526" lon="1.57061">
        <ele>132.4</ele>
        <time>2024-12-25T14:31:36Z</time>
      </trkpt>
      <trkpt lat="44.79527" lon="1.5706">
        <ele>132.5</ele>
        <time>2024-12-25T14:31:37Z</time>
      </trkpt>
      <trkpt lat="44.79528" lon="1.57059">
        <ele>132.5</ele>
        <time>2024-12-25T14:31:38Z</time>
      </trkpt>
      <trkpt lat="44.79529" lon="1.57058">
        <ele>132.6</ele>
        <time>2024-12-25T14:31:39Z</time>
      </trkpt>
      <trkpt lat="44.7953" lon="1.57056">
        <ele>132.7</ele>
        <time>2024-12-25T14:31:40Z</time>
      </trkpt>
      <trkpt lat="44.79531" lon="1.57054">
        <ele>132.7</ele>
        <time>2024-12-25T14:31:41Z</time>
      </trkpt>
      <trkpt lat="44.79532" lon="1.57054">
        <ele>132.8</ele>
        <time>2024-12-25T14:31:42Z</time>
      </trkpt>
      <trkpt lat="44.79533" lon="1.57053">
        <ele>132.8</ele>
        <time>2024-12-25T14:31:43Z</time>
      </trkpt>
      <trkpt lat="44.79534" lon="1.57052">
        <ele>132.9</ele>
        <time>2024-12-25T14:31:44Z</time>
      </trkpt>
      <trkpt lat="44.79535" lon="1.5705">
        <ele>133</ele>
        <time>2024-12-25T14:31:45Z</time>
      </trkpt>
      <trkpt lat="44.79536" lon="1.57049">
        <ele>133.1</ele>
        <time>2024-12-25T14:31:46Z</time>
      </trkpt>
      <trkpt lat="44.79537" lon="1.57048">
        <ele>133.1</ele>
        <time>2024-12-25T14:31:47Z</time>
      </trkpt>
      <trkpt lat="44.79538" lon="1.57047">
        <ele>133.2</ele>
        <time>2024-12-25T14:31:48Z</time>
      </trkpt>
      <trkpt lat="44.79539" lon="1.57046">
        <ele>133.3</ele>
        <time>2024-12-25T14:31:49Z</time>
      </trkpt>
      <trkpt lat="44.7954" lon="1.57044">
        <ele>133.4</ele>
        <time>2024-12-25T14:31:50Z</time>
      </trkpt>
      <trkpt lat="44.79542" lon="1.57042">
        <ele>133.6</ele>
        <time>2024-12-25T14:31:51Z</time>
      </trkpt>
      <trkpt lat="44.79543" lon="1.5704">
        <ele>133.7</ele>
        <time>2024-12-25T14:31:53Z</time>
      </trkpt>
      <trkpt lat="44.79544" lon="1.57039">
        <ele>133.8</ele>
        <time>2024-12-25T14:31:54Z</time>
      </trkpt>
      <trkpt lat="44.79545" lon="1.57037">
        <ele>133.9</ele>
        <time>2024-12-25T14:31:55Z</time>
      </trkpt>
      <trkpt lat="44.79546" lon="1.57036">
        <ele>134</ele>
        <time>2024-12-25T14:31:56Z</time>
      </trkpt>
      <trkpt lat="44.79547" lon="1.57034">
        <ele>134.1</ele>
        <time>2024-12-25T14:31:57Z</time>
      </trkpt>
      <trkpt lat="44.79548" lon="1.57032">
        <ele>134.2</ele>
        <time>2024-12-25T14:31:58Z</time>
      </trkpt>
      <trkpt lat="44.79548" lon="1.57031">
        <ele>134.2</ele>
        <time>2024-12-25T14:31:59Z</time>
      </trkpt>
      <trkpt lat="44.79549" lon="1.5703">
        <ele>134.3</ele>
        <time>2024-12-25T14:32:00Z</time>
      </trkpt>
      <trkpt lat="44.79551" lon="1.57027">
        <ele>134.5</ele>
        <time>2024-12-25T14:32:01Z</time>
      </trkpt>
      <trkpt lat="44.79551" lon="1.57026">
        <ele>134.6</ele>
        <time>2024-12-25T14:32:02Z</time>
      </trkpt>
      <trkpt lat="44.79552" lon="1.57025">
        <ele>134.7</ele>
        <time>2024-12-25T14:32:03Z</time>
      </trkpt>
      <trkpt lat="44.79554" lon="1.57023">
        <ele>134.8</ele>
        <time>2024-12-25T14:32:05Z</time>
      </trkpt>
      <trkpt lat="44.79554" lon="1.57022">
        <ele>134.9</ele>
        <time>2024-12-25T14:32:06Z</time>
      </trkpt>
      <trkpt lat="44.79557" lon="1.57019">
        <ele>135.1</ele>
        <time>2024-12-25T14:32:07Z</time>
      </trkpt>
      <trkpt lat="44.79559" lon="1.57017">
        <ele>135.3</ele>
        <time>2024-12-25T14:32:09Z</time>
      </trkpt>
      <trkpt lat="44.7956" lon="1.57016">
        <ele>135.4</ele>
        <time>2024-12-25T14:32:10Z</time>
      </trkpt>
      <trkpt lat="44.79561" lon="1.57015">
        <ele>135.5</ele>
        <time>2024-12-25T14:32:11Z</time>
      </trkpt>
      <trkpt lat="44.79561" lon="1.57013">
        <ele>135.6</ele>
        <time>2024-12-25T14:32:13Z</time>
      </trkpt>
      <trkpt lat="44.79562" lon="1.57012">
        <ele>135.7</ele>
        <time>2024-12-25T14:32:14Z</time>
      </trkpt>
      <trkpt lat="44.79564" lon="1.57009">
        <ele>135.9</ele>
        <time>2024-12-25T14:32:15Z</time>
      </trkpt>
      <trkpt lat="44.79566" lon="1.57007">
        <ele>136.1</ele>
        <time>2024-12-25T14:32:17Z</time>
      </trkpt>
      <trkpt lat="44.79566" lon="1.57006">
        <ele>136.2</ele>
        <time>2024-12-25T14:32:18Z</time>
      </trkpt>
      <trkpt lat="44.79567" lon="1.57004">
        <ele>136.4</ele>
        <time>2024-12-25T14:32:19Z</time>
      </trkpt>
      <trkpt lat="44.79568" lon="1.57003">
        <ele>136.4</ele>
        <time>2024-12-25T14:32:20Z</time>
      </trkpt>
      <trkpt lat="44.79569" lon="1.57002">
        <ele>136.5</ele>
        <time>2024-12-25T14:32:21Z</time>
      </trkpt>
      <trkpt lat="44.79569" lon="1.57001">
        <ele>136.6</ele>
        <time>2024-12-25T14:32:22Z</time>
      </trkpt>
      <trkpt lat="44.79571" lon="1.56999">
        <ele>136.8</ele>
        <time>2024-12-25T14:32:23Z</time>
      </trkpt>
      <trkpt lat="44.79572" lon="1.56998">
        <ele>136.9</ele>
        <time>2024-12-25T14:32:24Z</time>
      </trkpt>
      <trkpt lat="44.79572" lon="1.56997">
        <ele>137</ele>
        <time>2024-12-25T14:32:25Z</time>
      </trkpt>
      <trkpt lat="44.79573" lon="1.56996">
        <ele>137.1</ele>
        <time>2024-12-25T14:32:26Z</time>
      </trkpt>
      <trkpt lat="44.79575" lon="1.56995">
        <ele>137.2</ele>
        <time>2024-12-25T14:32:27Z</time>
      </trkpt>
      <trkpt lat="44.79576" lon="1.56994">
        <ele>137.3</ele>
        <time>2024-12-25T14:32:28Z</time>
      </trkpt>
      <trkpt lat="44.79577" lon="1.56993">
        <ele>137.4</ele>
        <time>2024-12-25T14:32:29Z</time>
      </trkpt>
      <trkpt lat="44.79579" lon="1.56991">
        <ele>137.6</ele>
        <time>2024-12-25T14:32:30Z</time>
      </trkpt>
      <trkpt lat="44.7958" lon="1.5699">
        <ele>137.8</ele>
        <time>2024-12-25T14:32:32Z</time>
      </trkpt>
      <trkpt lat="44.79582" lon="1.5699">
        <ele>137.9</ele>
        <time>2024-12-25T14:32:33Z</time>
      </trkpt>
      <trkpt lat="44.79584" lon="1.56988">
        <ele>138.1</ele>
        <time>2024-12-25T14:32:34Z</time>
      </trkpt>
      <trkpt lat="44.79585" lon="1.56986">
        <ele>138.2</ele>
        <time>2024-12-25T14:32:36Z</time>
      </trkpt>
      <trkpt lat="44.79586" lon="1.56985">
        <ele>138.3</ele>
        <time>2024-12-25T14:32:37Z</time>
      </trkpt>
      <trkpt lat="44.79587" lon="1.56984">
        <ele>138.4</ele>
        <time>2024-12-25T14:32:38Z</time>
      </trkpt>
      <trkpt lat="44.79588" lon="1.56983">
        <ele>138.5</ele>
        <time>2024-12-25T14:32:39Z</time>
      </trkpt>
      <trkpt lat="44.79589" lon="1.56983">
        <ele>138.6</ele>
        <time>2024-12-25T14:32:40Z</time>
      </trkpt>
      <trkpt lat="44.7959" lon="1.56982">
        <ele>138.7</ele>
        <time>2024-12-25T14:32:41Z</time>
      </trkpt>
      <trkpt lat="44.79591" lon="1.5698">
        <ele>138.7</ele>
        <time>2024-12-25T14:32:42Z</time>
      </trkpt>
      <trkpt lat="44.79592" lon="1.56978">
        <ele>138.9</ele>
        <time>2024-12-25T14:32:43Z</time>
      </trkpt>
      <trkpt lat="44.79593" lon="1.56975">
        <ele>139</ele>
        <time>2024-12-25T14:32:44Z</time>
      </trkpt>
      <trkpt lat="44.79593" lon="1.56973">
        <ele>139.1</ele>
        <time>2024-12-25T14:32:45Z</time>
      </trkpt>
      <trkpt lat="44.79593" lon="1.56971">
        <ele>139.2</ele>
        <time>2024-12-25T14:32:47Z</time>
      </trkpt>
      <trkpt lat="44.79592" lon="1.56968">
        <ele>139.3</ele>
        <time>2024-12-25T14:32:48Z</time>
      </trkpt>
      <trkpt lat="44.79592" lon="1.56965">
        <ele>139.5</ele>
        <time>2024-12-25T14:32:49Z</time>
      </trkpt>
      <trkpt lat="44.79592" lon="1.56964">
        <ele>139.5</ele>
        <time>2024-12-25T14:32:50Z</time>
      </trkpt>
      <trkpt lat="44.79591" lon="1.56963">
        <ele>139.6</ele>
        <time>2024-12-25T14:32:51Z</time>
      </trkpt>
      <trkpt lat="44.79591" lon="1.5696">
        <ele>139.7</ele>
        <time>2024-12-25T14:32:52Z</time>
      </trkpt>
      <trkpt lat="44.79591" lon="1.56959">
        <ele>139.7</ele>
        <time>2024-12-25T14:32:53Z</time>
      </trkpt>
      <trkpt lat="44.79591" lon="1.56958">
        <ele>139.8</ele>
        <time>2024-12-25T14:32:54Z</time>
      </trkpt>
      <trkpt lat="44.79591" lon="1.56956">
        <ele>139.9</ele>
        <time>2024-12-25T14:32:55Z</time>
      </trkpt>
      <trkpt lat="44.7959" lon="1.56953">
        <ele>140</ele>
        <time>2024-12-25T14:32:56Z</time>
      </trkpt>
      <trkpt lat="44.7959" lon="1.5695">
        <ele>140.1</ele>
        <time>2024-12-25T14:32:58Z</time>
      </trkpt>
      <trkpt lat="44.7959" lon="1.56949">
        <ele>140.1</ele>
        <time>2024-12-25T14:32:59Z</time>
      </trkpt>
      <trkpt lat="44.7959" lon="1.56948">
        <ele>140.2</ele>
        <time>2024-12-25T14:33:00Z</time>
      </trkpt>
      <trkpt lat="44.79591" lon="1.56946">
        <ele>140.3</ele>
        <time>2024-12-25T14:33:01Z</time>
      </trkpt>
      <trkpt lat="44.79591" lon="1.56944">
        <ele>140.4</ele>
        <time>2024-12-25T14:33:02Z</time>
      </trkpt>
      <trkpt lat="44.79592" lon="1.56941">
        <ele>140.5</ele>
        <time>2024-12-25T14:33:03Z</time>
      </trkpt>
      <trkpt lat="44.79592" lon="1.5694">
        <ele>140.5</ele>
        <time>2024-12-25T14:33:04Z</time>
      </trkpt>
      <trkpt lat="44.79592" lon="1.56939">
        <ele>140.6</ele>
        <time>2024-12-25T14:33:05Z</time>
      </trkpt>
      <trkpt lat="44.79592" lon="1.56937">
        <ele>140.6</ele>
        <time>2024-12-25T14:33:06Z</time>
      </trkpt>
      <trkpt lat="44.79592" lon="1.56936">
        <ele>140.7</ele>
        <time>2024-12-25T14:33:07Z</time>
      </trkpt>
      <trkpt lat="44.79592" lon="1.56934">
        <ele>140.7</ele>
        <time>2024-12-25T14:33:08Z</time>
      </trkpt>
      <trkpt lat="44.79591" lon="1.56933">
        <ele>140.8</ele>
        <time>2024-12-25T14:33:09Z</time>
      </trkpt>
      <trkpt lat="44.79592" lon="1.56932">
        <ele>140.8</ele>
        <time>2024-12-25T14:33:10Z</time>
      </trkpt>
      <trkpt lat="44.79592" lon="1.56932">
        <ele>140.8</ele>
        <time>2024-12-25T14:33:11Z</time>
      </trkpt>
      <trkpt lat="44.79592" lon="1.56931">
        <ele>140.9</ele>
        <time>2024-12-25T14:33:12Z</time>
      </trkpt>
      <trkpt lat="44.79593" lon="1.56931">
        <ele>140.9</ele>
        <time>2024-12-25T14:33:13Z</time>
      </trkpt>
      <trkpt lat="44.79593" lon="1.5693">
        <ele>140.9</ele>
        <time>2024-12-25T14:33:14Z</time>
      </trkpt>
      <trkpt lat="44.79593" lon="1.5693">
        <ele>140.9</ele>
        <time>2024-12-25T14:33:15Z</time>
      </trkpt>
      <trkpt lat="44.79594" lon="1.56929">
        <ele>141</ele>
        <time>2024-12-25T14:33:16Z</time>
      </trkpt>
      <trkpt lat="44.79594" lon="1.56929">
        <ele>141</ele>
        <time>2024-12-25T14:33:17Z</time>
      </trkpt>
      <trkpt lat="44.79596" lon="1.56924">
        <ele>141.1</ele>
        <time>2024-12-25T14:33:18Z</time>
      </trkpt>
      <trkpt lat="44.79596" lon="1.56923">
        <ele>141.2</ele>
        <time>2024-12-25T14:33:19Z</time>
      </trkpt>
      <trkpt lat="44.79597" lon="1.56921">
        <ele>141.3</ele>
        <time>2024-12-25T14:33:20Z</time>
      </trkpt>
      <trkpt lat="44.79598" lon="1.56919">
        <ele>141.3</ele>
        <time>2024-12-25T14:33:21Z</time>
      </trkpt>
      <trkpt lat="44.79599" lon="1.56917">
        <ele>141.4</ele>
        <time>2024-12-25T14:33:22Z</time>
      </trkpt>
      <trkpt lat="44.79599" lon="1.56915">
        <ele>141.4</ele>
        <time>2024-12-25T14:33:24Z</time>
      </trkpt>
      <trkpt lat="44.796" lon="1.56914">
        <ele>141.4</ele>
        <time>2024-12-25T14:33:25Z</time>
      </trkpt>
      <trkpt lat="44.79601" lon="1.56911">
        <ele>141.4</ele>
        <time>2024-12-25T14:33:26Z</time>
      </trkpt>
      <trkpt lat="44.79602" lon="1.56908">
        <ele>141.4</ele>
        <time>2024-12-25T14:33:28Z</time>
      </trkpt>
      <trkpt lat="44.79603" lon="1.56907">
        <ele>141.4</ele>
        <time>2024-12-25T14:33:29Z</time>
      </trkpt>
      <trkpt lat="44.79603" lon="1.56906">
        <ele>141.4</ele>
        <time>2024-12-25T14:33:30Z</time>
      </trkpt>
      <trkpt lat="44.79603" lon="1.56903">
        <ele>141.4</ele>
        <time>2024-12-25T14:33:31Z</time>
      </trkpt>
      <trkpt lat="44.79603" lon="1.56902">
        <ele>141.3</ele>
        <time>2024-12-25T14:33:32Z</time>
      </trkpt>
      <trkpt lat="44.79603" lon="1.569">
        <ele>141.3</ele>
        <time>2024-12-25T14:33:33Z</time>
      </trkpt>
      <trkpt lat="44.79603" lon="1.56898">
        <ele>141.2</ele>
        <time>2024-12-25T14:33:34Z</time>
      </trkpt>
      <trkpt lat="44.79603" lon="1.56896">
        <ele>141.2</ele>
        <time>2024-12-25T14:33:35Z</time>
      </trkpt>
      <trkpt lat="44.79602" lon="1.56893">
        <ele>141.1</ele>
        <time>2024-12-25T14:33:36Z</time>
      </trkpt>
      <trkpt lat="44.79602" lon="1.56892">
        <ele>141</ele>
        <time>2024-12-25T14:33:37Z</time>
      </trkpt>
      <trkpt lat="44.79601" lon="1.5689">
        <ele>140.9</ele>
        <time>2024-12-25T14:33:38Z</time>
      </trkpt>
      <trkpt lat="44.79601" lon="1.56888">
        <ele>140.9</ele>
        <time>2024-12-25T14:33:39Z</time>
      </trkpt>
      <trkpt lat="44.79601" lon="1.56887">
        <ele>140.8</ele>
        <time>2024-12-25T14:33:40Z</time>
      </trkpt>
      <trkpt lat="44.796" lon="1.56885">
        <ele>140.7</ele>
        <time>2024-12-25T14:33:41Z</time>
      </trkpt>
      <trkpt lat="44.79599" lon="1.56883">
        <ele>140.6</ele>
        <time>2024-12-25T14:33:42Z</time>
      </trkpt>
      <trkpt lat="44.79599" lon="1.56881">
        <ele>140.5</ele>
        <time>2024-12-25T14:33:43Z</time>
      </trkpt>
      <trkpt lat="44.79598" lon="1.56879">
        <ele>140.4</ele>
        <time>2024-12-25T14:33:44Z</time>
      </trkpt>
      <trkpt lat="44.79597" lon="1.56876">
        <ele>140.3</ele>
        <time>2024-12-25T14:33:46Z</time>
      </trkpt>
      <trkpt lat="44.79597" lon="1.56875">
        <ele>140.3</ele>
        <time>2024-12-25T14:33:47Z</time>
      </trkpt>
      <trkpt lat="44.79596" lon="1.56873">
        <ele>140.2</ele>
        <time>2024-12-25T14:33:48Z</time>
      </trkpt>
      <trkpt lat="44.79596" lon="1.56872">
        <ele>140.2</ele>
        <time>2024-12-25T14:33:49Z</time>
      </trkpt>
      <trkpt lat="44.79595" lon="1.5687">
        <ele>140.1</ele>
        <time>2024-12-25T14:33:50Z</time>
      </trkpt>
      <trkpt lat="44.79595" lon="1.56867">
        <ele>140.1</ele>
        <time>2024-12-25T14:33:51Z</time>
      </trkpt>
      <trkpt lat="44.79594" lon="1.56865">
        <ele>140</ele>
        <time>2024-12-25T14:33:53Z</time>
      </trkpt>
      <trkpt lat="44.79593" lon="1.56862">
        <ele>140</ele>
        <time>2024-12-25T14:33:54Z</time>
      </trkpt>
      <trkpt lat="44.79593" lon="1.56861">
        <ele>140</ele>
        <time>2024-12-25T14:33:55Z</time>
      </trkpt>
      <trkpt lat="44.79593" lon="1.5686">
        <ele>140</ele>
        <time>2024-12-25T14:33:56Z</time>
      </trkpt>
      <trkpt lat="44.79592" lon="1.56858">
        <ele>139.9</ele>
        <time>2024-12-25T14:33:57Z</time>
      </trkpt>
      <trkpt lat="44.79592" lon="1.56854">
        <ele>139.9</ele>
        <time>2024-12-25T14:33:58Z</time>
      </trkpt>
      <trkpt lat="44.79591" lon="1.56852">
        <ele>139.9</ele>
        <time>2024-12-25T14:34:00Z</time>
      </trkpt>
      <trkpt lat="44.79591" lon="1.5685">
        <ele>140</ele>
        <time>2024-12-25T14:34:01Z</time>
      </trkpt>
      <trkpt lat="44.79591" lon="1.56848">
        <ele>140</ele>
        <time>2024-12-25T14:34:02Z</time>
      </trkpt>
      <trkpt lat="44.7959" lon="1.56846">
        <ele>140</ele>
        <time>2024-12-25T14:34:03Z</time>
      </trkpt>
      <trkpt lat="44.7959" lon="1.56843">
        <ele>140</ele>
        <time>2024-12-25T14:34:04Z</time>
      </trkpt>
      <trkpt lat="44.7959" lon="1.56841">
        <ele>140</ele>
        <time>2024-12-25T14:34:05Z</time>
      </trkpt>
      <trkpt lat="44.7959" lon="1.56838">
        <ele>140</ele>
        <time>2024-12-25T14:34:06Z</time>
      </trkpt>
      <trkpt lat="44.79589" lon="1.56836">
        <ele>140</ele>
        <time>2024-12-25T14:34:07Z</time>
      </trkpt>
      <trkpt lat="44.79589" lon="1.56834">
        <ele>140</ele>
        <time>2024-12-25T14:34:08Z</time>
      </trkpt>
      <trkpt lat="44.79588" lon="1.56832">
        <ele>140</ele>
        <time>2024-12-25T14:34:10Z</time>
      </trkpt>
      <trkpt lat="44.79588" lon="1.5683">
        <ele>140</ele>
        <time>2024-12-25T14:34:11Z</time>
      </trkpt>
      <trkpt lat="44.79587" lon="1.56828">
        <ele>140</ele>
        <time>2024-12-25T14:34:12Z</time>
      </trkpt>
      <trkpt lat="44.79587" lon="1.56826">
        <ele>140</ele>
        <time>2024-12-25T14:34:13Z</time>
      </trkpt>
      <trkpt lat="44.79585" lon="1.56824">
        <ele>140</ele>
        <time>2024-12-25T14:34:14Z</time>
      </trkpt>
      <trkpt lat="44.79584" lon="1.56822">
        <ele>140</ele>
        <time>2024-12-25T14:34:16Z</time>
      </trkpt>
      <trkpt lat="44.79582" lon="1.56821">
        <ele>140.1</ele>
        <time>2024-12-25T14:34:17Z</time>
      </trkpt>
      <trkpt lat="44.79581" lon="1.5682">
        <ele>140.1</ele>
        <time>2024-12-25T14:34:18Z</time>
      </trkpt>
      <trkpt lat="44.7958" lon="1.56818">
        <ele>140.1</ele>
        <time>2024-12-25T14:34:19Z</time>
      </trkpt>
      <trkpt lat="44.79578" lon="1.56816">
        <ele>140.1</ele>
        <time>2024-12-25T14:34:20Z</time>
      </trkpt>
      <trkpt lat="44.79576" lon="1.56815">
        <ele>140.1</ele>
        <time>2024-12-25T14:34:21Z</time>
      </trkpt>
      <trkpt lat="44.79575" lon="1.56813">
        <ele>140.1</ele>
        <time>2024-12-25T14:34:23Z</time>
      </trkpt>
      <trkpt lat="44.79575" lon="1.56812">
        <ele>140.2</ele>
        <time>2024-12-25T14:34:24Z</time>
      </trkpt>
      <trkpt lat="44.79574" lon="1.5681">
        <ele>140.2</ele>
        <time>2024-12-25T14:34:25Z</time>
      </trkpt>
      <trkpt lat="44.79573" lon="1.56809">
        <ele>140.2</ele>
        <time>2024-12-25T14:34:26Z</time>
      </trkpt>
      <trkpt lat="44.79571" lon="1.56806">
        <ele>140.3</ele>
        <time>2024-12-25T14:34:27Z</time>
      </trkpt>
      <trkpt lat="44.7957" lon="1.56806">
        <ele>140.4</ele>
        <time>2024-12-25T14:34:28Z</time>
      </trkpt>
      <trkpt lat="44.7957" lon="1.56805">
        <ele>140.5</ele>
        <time>2024-12-25T14:34:29Z</time>
      </trkpt>
      <trkpt lat="44.79569" lon="1.56803">
        <ele>140.5</ele>
        <time>2024-12-25T14:34:30Z</time>
      </trkpt>
      <trkpt lat="44.79568" lon="1.56802">
        <ele>140.7</ele>
        <time>2024-12-25T14:34:31Z</time>
      </trkpt>
      <trkpt lat="44.79566" lon="1.56801">
        <ele>140.8</ele>
        <time>2024-12-25T14:34:32Z</time>
      </trkpt>
      <trkpt lat="44.79565" lon="1.56799">
        <ele>140.9</ele>
        <time>2024-12-25T14:34:33Z</time>
      </trkpt>
      <trkpt lat="44.79563" lon="1.56798">
        <ele>141.1</ele>
        <time>2024-12-25T14:34:34Z</time>
      </trkpt>
      <trkpt lat="44.79562" lon="1.56797">
        <ele>141.2</ele>
        <time>2024-12-25T14:34:35Z</time>
      </trkpt>
      <trkpt lat="44.7956" lon="1.56796">
        <ele>141.4</ele>
        <time>2024-12-25T14:34:37Z</time>
      </trkpt>
      <trkpt lat="44.79559" lon="1.56795">
        <ele>141.4</ele>
        <time>2024-12-25T14:34:38Z</time>
      </trkpt>
      <trkpt lat="44.79558" lon="1.56795">
        <ele>141.5</ele>
        <time>2024-12-25T14:34:39Z</time>
      </trkpt>
      <trkpt lat="44.79557" lon="1.56792">
        <ele>141.7</ele>
        <time>2024-12-25T14:34:40Z</time>
      </trkpt>
      <trkpt lat="44.79556" lon="1.56791">
        <ele>141.8</ele>
        <time>2024-12-25T14:34:42Z</time>
      </trkpt>
      <trkpt lat="44.79555" lon="1.5679">
        <ele>141.9</ele>
        <time>2024-12-25T14:34:43Z</time>
      </trkpt>
      <trkpt lat="44.79553" lon="1.56789">
        <ele>142</ele>
        <time>2024-12-25T14:34:44Z</time>
      </trkpt>
      <trkpt lat="44.79552" lon="1.56788">
        <ele>142.2</ele>
        <time>2024-12-25T14:34:45Z</time>
      </trkpt>
      <trkpt lat="44.79551" lon="1.56787">
        <ele>142.3</ele>
        <time>2024-12-25T14:34:46Z</time>
      </trkpt>
      <trkpt lat="44.7955" lon="1.56788">
        <ele>142.3</ele>
        <time>2024-12-25T14:34:48Z</time>
      </trkpt>
      <trkpt lat="44.79549" lon="1.5679">
        <ele>142.4</ele>
        <time>2024-12-25T14:34:50Z</time>
      </trkpt>
      <trkpt lat="44.79549" lon="1.56789">
        <ele>142.4</ele>
        <time>2024-12-25T14:34:51Z</time>
      </trkpt>
      <trkpt lat="44.7955" lon="1.56788">
        <ele>142.5</ele>
        <time>2024-12-25T14:34:52Z</time>
      </trkpt>
      <trkpt lat="44.7955" lon="1.56787">
        <ele>142.5</ele>
        <time>2024-12-25T14:34:53Z</time>
      </trkpt>
      <trkpt lat="44.7955" lon="1.56787">
        <ele>142.5</ele>
        <time>2024-12-25T14:34:54Z</time>
      </trkpt>
      <trkpt lat="44.7955" lon="1.56786">
        <ele>142.5</ele>
        <time>2024-12-25T14:34:55Z</time>
      </trkpt>
      <trkpt lat="44.79549" lon="1.56785">
        <ele>142.5</ele>
        <time>2024-12-25T14:34:56Z</time>
      </trkpt>
      <trkpt lat="44.79549" lon="1.56783">
        <ele>142.6</ele>
        <time>2024-12-25T14:34:58Z</time>
      </trkpt>
      <trkpt lat="44.79548" lon="1.5678">
        <ele>142.6</ele>
        <time>2024-12-25T14:34:59Z</time>
      </trkpt>
      <trkpt lat="44.79547" lon="1.56776">
        <ele>142.6</ele>
        <time>2024-12-25T14:35:00Z</time>
      </trkpt>
      <trkpt lat="44.79546" lon="1.56774">
        <ele>142.6</ele>
        <time>2024-12-25T14:35:01Z</time>
      </trkpt>
      <trkpt lat="44.79545" lon="1.5677">
        <ele>142.6</ele>
        <time>2024-12-25T14:35:02Z</time>
      </trkpt>
      <trkpt lat="44.79543" lon="1.56768">
        <ele>142.6</ele>
        <time>2024-12-25T14:35:04Z</time>
      </trkpt>
      <trkpt lat="44.79541" lon="1.56766">
        <ele>142.5</ele>
        <time>2024-12-25T14:35:05Z</time>
      </trkpt>
      <trkpt lat="44.7954" lon="1.56764">
        <ele>142.4</ele>
        <time>2024-12-25T14:35:07Z</time>
      </trkpt>
      <trkpt lat="44.79539" lon="1.56764">
        <ele>142.4</ele>
        <time>2024-12-25T14:35:08Z</time>
      </trkpt>
      <trkpt lat="44.79538" lon="1.56762">
        <ele>142.3</ele>
        <time>2024-12-25T14:35:09Z</time>
      </trkpt>
      <trkpt lat="44.79537" lon="1.56761">
        <ele>142.2</ele>
        <time>2024-12-25T14:35:10Z</time>
      </trkpt>
      <trkpt lat="44.79536" lon="1.5676">
        <ele>142.1</ele>
        <time>2024-12-25T14:35:11Z</time>
      </trkpt>
      <trkpt lat="44.79533" lon="1.56757">
        <ele>141.8</ele>
        <time>2024-12-25T14:35:12Z</time>
      </trkpt>
      <trkpt lat="44.79532" lon="1.56757">
        <ele>141.8</ele>
        <time>2024-12-25T14:35:13Z</time>
      </trkpt>
      <trkpt lat="44.79531" lon="1.56755">
        <ele>141.7</ele>
        <time>2024-12-25T14:35:15Z</time>
      </trkpt>
      <trkpt lat="44.79531" lon="1.56754">
        <ele>141.6</ele>
        <time>2024-12-25T14:35:16Z</time>
      </trkpt>
      <trkpt lat="44.7953" lon="1.56753">
        <ele>141.5</ele>
        <time>2024-12-25T14:35:17Z</time>
      </trkpt>
      <trkpt lat="44.79529" lon="1.56751">
        <ele>141.4</ele>
        <time>2024-12-25T14:35:18Z</time>
      </trkpt>
      <trkpt lat="44.79528" lon="1.56749">
        <ele>141.2</ele>
        <time>2024-12-25T14:35:19Z</time>
      </trkpt>
      <trkpt lat="44.79526" lon="1.56748">
        <ele>141.1</ele>
        <time>2024-12-25T14:35:20Z</time>
      </trkpt>
      <trkpt lat="44.79525" lon="1.56747">
        <ele>140.9</ele>
        <time>2024-12-25T14:35:22Z</time>
      </trkpt>
      <trkpt lat="44.79524" lon="1.56745">
        <ele>140.8</ele>
        <time>2024-12-25T14:35:23Z</time>
      </trkpt>
      <trkpt lat="44.79522" lon="1.56744">
        <ele>140.6</ele>
        <time>2024-12-25T14:35:24Z</time>
      </trkpt>
      <trkpt lat="44.79521" lon="1.56743">
        <ele>140.5</ele>
        <time>2024-12-25T14:35:25Z</time>
      </trkpt>
      <trkpt lat="44.7952" lon="1.56743">
        <ele>140.4</ele>
        <time>2024-12-25T14:35:26Z</time>
      </trkpt>
      <trkpt lat="44.79517" lon="1.5674">
        <ele>140.1</ele>
        <time>2024-12-25T14:35:27Z</time>
      </trkpt>
      <trkpt lat="44.79517" lon="1.5674">
        <ele>140</ele>
        <time>2024-12-25T14:35:28Z</time>
      </trkpt>
      <trkpt lat="44.79516" lon="1.56739">
        <ele>139.9</ele>
        <time>2024-12-25T14:35:29Z</time>
      </trkpt>
      <trkpt lat="44.79514" lon="1.56737">
        <ele>139.8</ele>
        <time>2024-12-25T14:35:31Z</time>
      </trkpt>
      <trkpt lat="44.79513" lon="1.56736">
        <ele>139.6</ele>
        <time>2024-12-25T14:35:32Z</time>
      </trkpt>
      <trkpt lat="44.79512" lon="1.56734">
        <ele>139.5</ele>
        <time>2024-12-25T14:35:33Z</time>
      </trkpt>
      <trkpt lat="44.7951" lon="1.56733">
        <ele>139.3</ele>
        <time>2024-12-25T14:35:34Z</time>
      </trkpt>
      <trkpt lat="44.79509" lon="1.56732">
        <ele>139.2</ele>
        <time>2024-12-25T14:35:35Z</time>
      </trkpt>
      <trkpt lat="44.79508" lon="1.56731">
        <ele>139.1</ele>
        <time>2024-12-25T14:35:36Z</time>
      </trkpt>
      <trkpt lat="44.79507" lon="1.5673">
        <ele>139</ele>
        <time>2024-12-25T14:35:37Z</time>
      </trkpt>
      <trkpt lat="44.79506" lon="1.56728">
        <ele>138.8</ele>
        <time>2024-12-25T14:35:38Z</time>
      </trkpt>
      <trkpt lat="44.79504" lon="1.56726">
        <ele>138.5</ele>
        <time>2024-12-25T14:35:39Z</time>
      </trkpt>
      <trkpt lat="44.79503" lon="1.56725">
        <ele>138.3</ele>
        <time>2024-12-25T14:35:40Z</time>
      </trkpt>
      <trkpt lat="44.79502" lon="1.56723">
        <ele>138.2</ele>
        <time>2024-12-25T14:35:41Z</time>
      </trkpt>
      <trkpt lat="44.79501" lon="1.56722">
        <ele>138.1</ele>
        <time>2024-12-25T14:35:43Z</time>
      </trkpt>
      <trkpt lat="44.79501" lon="1.56721">
        <ele>138</ele>
        <time>2024-12-25T14:35:44Z</time>
      </trkpt>
      <trkpt lat="44.79499" lon="1.56719">
        <ele>137.6</ele>
        <time>2024-12-25T14:35:45Z</time>
      </trkpt>
      <trkpt lat="44.79498" lon="1.56718">
        <ele>137.5</ele>
        <time>2024-12-25T14:35:47Z</time>
      </trkpt>
      <trkpt lat="44.79497" lon="1.56715">
        <ele>137.2</ele>
        <time>2024-12-25T14:35:48Z</time>
      </trkpt>
      <trkpt lat="44.79496" lon="1.56714">
        <ele>137.1</ele>
        <time>2024-12-25T14:35:50Z</time>
      </trkpt>
      <trkpt lat="44.79495" lon="1.56713">
        <ele>136.9</ele>
        <time>2024-12-25T14:35:51Z</time>
      </trkpt>
      <trkpt lat="44.79493" lon="1.5671">
        <ele>136.5</ele>
        <time>2024-12-25T14:35:52Z</time>
      </trkpt>
      <trkpt lat="44.79492" lon="1.56709">
        <ele>136.3</ele>
        <time>2024-12-25T14:35:53Z</time>
      </trkpt>
      <trkpt lat="44.79491" lon="1.56708">
        <ele>136.1</ele>
        <time>2024-12-25T14:35:54Z</time>
      </trkpt>
      <trkpt lat="44.79489" lon="1.56707">
        <ele>135.8</ele>
        <time>2024-12-25T14:35:55Z</time>
      </trkpt>
      <trkpt lat="44.79487" lon="1.56704">
        <ele>135.5</ele>
        <time>2024-12-25T14:35:57Z</time>
      </trkpt>
      <trkpt lat="44.79487" lon="1.56703">
        <ele>135.4</ele>
        <time>2024-12-25T14:35:58Z</time>
      </trkpt>
      <trkpt lat="44.79486" lon="1.56702">
        <ele>135.3</ele>
        <time>2024-12-25T14:35:59Z</time>
      </trkpt>
      <trkpt lat="44.79485" lon="1.56701">
        <ele>135.1</ele>
        <time>2024-12-25T14:36:00Z</time>
      </trkpt>
      <trkpt lat="44.79484" lon="1.56699">
        <ele>134.9</ele>
        <time>2024-12-25T14:36:01Z</time>
      </trkpt>
      <trkpt lat="44.79483" lon="1.56698">
        <ele>134.7</ele>
        <time>2024-12-25T14:36:02Z</time>
      </trkpt>
      <trkpt lat="44.79481" lon="1.56696">
        <ele>134.3</ele>
        <time>2024-12-25T14:36:03Z</time>
      </trkpt>
      <trkpt lat="44.79479" lon="1.56695">
        <ele>134.1</ele>
        <time>2024-12-25T14:36:04Z</time>
      </trkpt>
      <trkpt lat="44.79478" lon="1.56693">
        <ele>133.9</ele>
        <time>2024-12-25T14:36:05Z</time>
      </trkpt>
      <trkpt lat="44.79477" lon="1.56692">
        <ele>133.6</ele>
        <time>2024-12-25T14:36:06Z</time>
      </trkpt>
      <trkpt lat="44.79476" lon="1.5669">
        <ele>133.4</ele>
        <time>2024-12-25T14:36:08Z</time>
      </trkpt>
      <trkpt lat="44.79476" lon="1.56688">
        <ele>133.2</ele>
        <time>2024-12-25T14:36:09Z</time>
      </trkpt>
      <trkpt lat="44.79474" lon="1.56685">
        <ele>132.9</ele>
        <time>2024-12-25T14:36:10Z</time>
      </trkpt>
      <trkpt lat="44.79474" lon="1.56684">
        <ele>132.9</ele>
        <time>2024-12-25T14:36:11Z</time>
      </trkpt>
      <trkpt lat="44.79473" lon="1.56684">
        <ele>132.8</ele>
        <time>2024-12-25T14:36:12Z</time>
      </trkpt>
      <trkpt lat="44.79472" lon="1.5668">
        <ele>132.4</ele>
        <time>2024-12-25T14:36:13Z</time>
      </trkpt>
      <trkpt lat="44.79471" lon="1.56678">
        <ele>132.3</ele>
        <time>2024-12-25T14:36:14Z</time>
      </trkpt>
      <trkpt lat="44.79471" lon="1.56677">
        <ele>132.1</ele>
        <time>2024-12-25T14:36:16Z</time>
      </trkpt>
      <trkpt lat="44.7947" lon="1.56674">
        <ele>131.9</ele>
        <time>2024-12-25T14:36:17Z</time>
      </trkpt>
      <trkpt lat="44.7947" lon="1.56673">
        <ele>131.8</ele>
        <time>2024-12-25T14:36:18Z</time>
      </trkpt>
      <trkpt lat="44.7947" lon="1.5667">
        <ele>131.5</ele>
        <time>2024-12-25T14:36:19Z</time>
      </trkpt>
      <trkpt lat="44.79469" lon="1.56668">
        <ele>131.4</ele>
        <time>2024-12-25T14:36:20Z</time>
      </trkpt>
      <trkpt lat="44.79469" lon="1.56667">
        <ele>131.2</ele>
        <time>2024-12-25T14:36:21Z</time>
      </trkpt>
      <trkpt lat="44.79469" lon="1.56663">
        <ele>130.9</ele>
        <time>2024-12-25T14:36:22Z</time>
      </trkpt>
      <trkpt lat="44.79469" lon="1.56662">
        <ele>130.8</ele>
        <time>2024-12-25T14:36:24Z</time>
      </trkpt>
      <trkpt lat="44.79468" lon="1.56659">
        <ele>130.5</ele>
        <time>2024-12-25T14:36:25Z</time>
      </trkpt>
      <trkpt lat="44.79467" lon="1.56657">
        <ele>130.4</ele>
        <time>2024-12-25T14:36:26Z</time>
      </trkpt>
      <trkpt lat="44.79467" lon="1.56655">
        <ele>130.2</ele>
        <time>2024-12-25T14:36:27Z</time>
      </trkpt>
      <trkpt lat="44.79467" lon="1.56653">
        <ele>130</ele>
        <time>2024-12-25T14:36:28Z</time>
      </trkpt>
      <trkpt lat="44.79467" lon="1.56649">
        <ele>129.7</ele>
        <time>2024-12-25T14:36:29Z</time>
      </trkpt>
      <trkpt lat="44.79467" lon="1.56647">
        <ele>129.5</ele>
        <time>2024-12-25T14:36:30Z</time>
      </trkpt>
      <trkpt lat="44.79468" lon="1.56645">
        <ele>129.3</ele>
        <time>2024-12-25T14:36:31Z</time>
      </trkpt>
      <trkpt lat="44.79467" lon="1.56643">
        <ele>129.1</ele>
        <time>2024-12-25T14:36:32Z</time>
      </trkpt>
      <trkpt lat="44.79467" lon="1.56641">
        <ele>129</ele>
        <time>2024-12-25T14:36:34Z</time>
      </trkpt>
      <trkpt lat="44.79467" lon="1.56639">
        <ele>128.8</ele>
        <time>2024-12-25T14:36:35Z</time>
      </trkpt>
      <trkpt lat="44.79466" lon="1.56637">
        <ele>128.6</ele>
        <time>2024-12-25T14:36:36Z</time>
      </trkpt>
      <trkpt lat="44.79466" lon="1.56634">
        <ele>128.4</ele>
        <time>2024-12-25T14:36:37Z</time>
      </trkpt>
      <trkpt lat="44.79467" lon="1.56633">
        <ele>128.2</ele>
        <time>2024-12-25T14:36:38Z</time>
      </trkpt>
      <trkpt lat="44.79468" lon="1.5663">
        <ele>128</ele>
        <time>2024-12-25T14:36:39Z</time>
      </trkpt>
      <trkpt lat="44.79468" lon="1.56628">
        <ele>127.9</ele>
        <time>2024-12-25T14:36:40Z</time>
      </trkpt>
      <trkpt lat="44.7947" lon="1.56625">
        <ele>127.5</ele>
        <time>2024-12-25T14:36:41Z</time>
      </trkpt>
      <trkpt lat="44.7947" lon="1.56624">
        <ele>127.4</ele>
        <time>2024-12-25T14:36:42Z</time>
      </trkpt>
      <trkpt lat="44.79471" lon="1.56622">
        <ele>127.2</ele>
        <time>2024-12-25T14:36:44Z</time>
      </trkpt>
      <trkpt lat="44.79472" lon="1.5662">
        <ele>127</ele>
        <time>2024-12-25T14:36:45Z</time>
      </trkpt>
      <trkpt lat="44.79474" lon="1.56618">
        <ele>126.8</ele>
        <time>2024-12-25T14:36:46Z</time>
      </trkpt>
      <trkpt lat="44.79474" lon="1.56616">
        <ele>126.7</ele>
        <time>2024-12-25T14:36:47Z</time>
      </trkpt>
      <trkpt lat="44.79475" lon="1.56615">
        <ele>126.6</ele>
        <time>2024-12-25T14:36:48Z</time>
      </trkpt>
      <trkpt lat="44.79475" lon="1.56614">
        <ele>126.4</ele>
        <time>2024-12-25T14:36:49Z</time>
      </trkpt>
      <trkpt lat="44.79476" lon="1.56612">
        <ele>126.2</ele>
        <time>2024-12-25T14:36:50Z</time>
      </trkpt>
      <trkpt lat="44.79477" lon="1.56611">
        <ele>126.1</ele>
        <time>2024-12-25T14:36:51Z</time>
      </trkpt>
      <trkpt lat="44.79477" lon="1.56609">
        <ele>126</ele>
        <time>2024-12-25T14:36:52Z</time>
      </trkpt>
      <trkpt lat="44.79478" lon="1.56608">
        <ele>125.9</ele>
        <time>2024-12-25T14:36:53Z</time>
      </trkpt>
      <trkpt lat="44.79478" lon="1.56607">
        <ele>125.8</ele>
        <time>2024-12-25T14:36:54Z</time>
      </trkpt>
      <trkpt lat="44.79479" lon="1.56606">
        <ele>125.6</ele>
        <time>2024-12-25T14:36:55Z</time>
      </trkpt>
      <trkpt lat="44.7948" lon="1.56605">
        <ele>125.5</ele>
        <time>2024-12-25T14:36:56Z</time>
      </trkpt>
      <trkpt lat="44.79481" lon="1.56603">
        <ele>125.3</ele>
        <time>2024-12-25T14:36:57Z</time>
      </trkpt>
      <trkpt lat="44.79482" lon="1.56602">
        <ele>125.2</ele>
        <time>2024-12-25T14:36:58Z</time>
      </trkpt>
      <trkpt lat="44.79483" lon="1.56601">
        <ele>125.1</ele>
        <time>2024-12-25T14:36:59Z</time>
      </trkpt>
      <trkpt lat="44.79483" lon="1.56599">
        <ele>124.9</ele>
        <time>2024-12-25T14:37:00Z</time>
      </trkpt>
      <trkpt lat="44.79485" lon="1.56597">
        <ele>124.6</ele>
        <time>2024-12-25T14:37:01Z</time>
      </trkpt>
      <trkpt lat="44.79487" lon="1.56596">
        <ele>124.4</ele>
        <time>2024-12-25T14:37:02Z</time>
      </trkpt>
      <trkpt lat="44.79487" lon="1.56595">
        <ele>124.2</ele>
        <time>2024-12-25T14:37:03Z</time>
      </trkpt>
      <trkpt lat="44.79488" lon="1.56594">
        <ele>124.1</ele>
        <time>2024-12-25T14:37:04Z</time>
      </trkpt>
      <trkpt lat="44.79491" lon="1.56592">
        <ele>123.7</ele>
        <time>2024-12-25T14:37:05Z</time>
      </trkpt>
      <trkpt lat="44.79492" lon="1.5659">
        <ele>123.4</ele>
        <time>2024-12-25T14:37:07Z</time>
      </trkpt>
      <trkpt lat="44.79493" lon="1.56589">
        <ele>123.3</ele>
        <time>2024-12-25T14:37:08Z</time>
      </trkpt>
      <trkpt lat="44.79494" lon="1.56589">
        <ele>123.2</ele>
        <time>2024-12-25T14:37:09Z</time>
      </trkpt>
      <trkpt lat="44.79495" lon="1.56588">
        <ele>123</ele>
        <time>2024-12-25T14:37:10Z</time>
      </trkpt>
      <trkpt lat="44.79496" lon="1.56587">
        <ele>122.8</ele>
        <time>2024-12-25T14:37:11Z</time>
      </trkpt>
      <trkpt lat="44.79497" lon="1.56586">
        <ele>122.6</ele>
        <time>2024-12-25T14:37:12Z</time>
      </trkpt>
      <trkpt lat="44.79498" lon="1.56585">
        <ele>122.5</ele>
        <time>2024-12-25T14:37:13Z</time>
      </trkpt>
      <trkpt lat="44.79499" lon="1.56584">
        <ele>122.3</ele>
        <time>2024-12-25T14:37:14Z</time>
      </trkpt>
      <trkpt lat="44.795" lon="1.56583">
        <ele>122.1</ele>
        <time>2024-12-25T14:37:15Z</time>
      </trkpt>
      <trkpt lat="44.79501" lon="1.56582">
        <ele>122</ele>
        <time>2024-12-25T14:37:16Z</time>
      </trkpt>
      <trkpt lat="44.79502" lon="1.56582">
        <ele>121.8</ele>
        <time>2024-12-25T14:37:17Z</time>
      </trkpt>
      <trkpt lat="44.79502" lon="1.56581">
        <ele>121.8</ele>
        <time>2024-12-25T14:37:18Z</time>
      </trkpt>
      <trkpt lat="44.79503" lon="1.5658">
        <ele>121.6</ele>
        <time>2024-12-25T14:37:19Z</time>
      </trkpt>
      <trkpt lat="44.79504" lon="1.56579">
        <ele>121.4</ele>
        <time>2024-12-25T14:37:20Z</time>
      </trkpt>
      <trkpt lat="44.79505" lon="1.56577">
        <ele>121.1</ele>
        <time>2024-12-25T14:37:21Z</time>
      </trkpt>
      <trkpt lat="44.79506" lon="1.56576">
        <ele>120.9</ele>
        <time>2024-12-25T14:37:22Z</time>
      </trkpt>
      <trkpt lat="44.79507" lon="1.56575">
        <ele>120.7</ele>
        <time>2024-12-25T14:37:24Z</time>
      </trkpt>
      <trkpt lat="44.79508" lon="1.56574">
        <ele>120.6</ele>
        <time>2024-12-25T14:37:25Z</time>
      </trkpt>
      <trkpt lat="44.79508" lon="1.56573">
        <ele>120.4</ele>
        <time>2024-12-25T14:37:26Z</time>
      </trkpt>
      <trkpt lat="44.79509" lon="1.56572">
        <ele>120.2</ele>
        <time>2024-12-25T14:37:27Z</time>
      </trkpt>
      <trkpt lat="44.7951" lon="1.56571">
        <ele>120</ele>
        <time>2024-12-25T14:37:28Z</time>
      </trkpt>
      <trkpt lat="44.79511" lon="1.56569">
        <ele>119.8</ele>
        <time>2024-12-25T14:37:30Z</time>
      </trkpt>
      <trkpt lat="44.79511" lon="1.56568">
        <ele>119.7</ele>
        <time>2024-12-25T14:37:31Z</time>
      </trkpt>
      <trkpt lat="44.79511" lon="1.56565">
        <ele>119.3</ele>
        <time>2024-12-25T14:37:32Z</time>
      </trkpt>
      <trkpt lat="44.79512" lon="1.56564">
        <ele>119.2</ele>
        <time>2024-12-25T14:37:33Z</time>
      </trkpt>
      <trkpt lat="44.79512" lon="1.56562">
        <ele>119</ele>
        <time>2024-12-25T14:37:34Z</time>
      </trkpt>
      <trkpt lat="44.79512" lon="1.56559">
        <ele>118.7</ele>
        <time>2024-12-25T14:37:35Z</time>
      </trkpt>
      <trkpt lat="44.79513" lon="1.56557">
        <ele>118.4</ele>
        <time>2024-12-25T14:37:37Z</time>
      </trkpt>
      <trkpt lat="44.79514" lon="1.56556">
        <ele>118.3</ele>
        <time>2024-12-25T14:37:38Z</time>
      </trkpt>
      <trkpt lat="44.79515" lon="1.56554">
        <ele>118.1</ele>
        <time>2024-12-25T14:37:39Z</time>
      </trkpt>
      <trkpt lat="44.79515" lon="1.56552">
        <ele>117.8</ele>
        <time>2024-12-25T14:37:40Z</time>
      </trkpt>
      <trkpt lat="44.79516" lon="1.56551">
        <ele>117.7</ele>
        <time>2024-12-25T14:37:42Z</time>
      </trkpt>
      <trkpt lat="44.79517" lon="1.5655">
        <ele>117.5</ele>
        <time>2024-12-25T14:37:43Z</time>
      </trkpt>
      <trkpt lat="44.79517" lon="1.56549">
        <ele>117.4</ele>
        <time>2024-12-25T14:37:44Z</time>
      </trkpt>
      <trkpt lat="44.79518" lon="1.56548">
        <ele>117.2</ele>
        <time>2024-12-25T14:37:45Z</time>
      </trkpt>
      <trkpt lat="44.79519" lon="1.56547">
        <ele>117.1</ele>
        <time>2024-12-25T14:37:46Z</time>
      </trkpt>
      <trkpt lat="44.7952" lon="1.56546">
        <ele>116.9</ele>
        <time>2024-12-25T14:37:47Z</time>
      </trkpt>
      <trkpt lat="44.7952" lon="1.56545">
        <ele>116.8</ele>
        <time>2024-12-25T14:37:48Z</time>
      </trkpt>
      <trkpt lat="44.79521" lon="1.56544">
        <ele>116.6</ele>
        <time>2024-12-25T14:37:49Z</time>
      </trkpt>
      <trkpt lat="44.79522" lon="1.56543">
        <ele>116.5</ele>
        <time>2024-12-25T14:37:50Z</time>
      </trkpt>
      <trkpt lat="44.79523" lon="1.56542">
        <ele>116.3</ele>
        <time>2024-12-25T14:37:51Z</time>
      </trkpt>
      <trkpt lat="44.79524" lon="1.56541">
        <ele>116.2</ele>
        <time>2024-12-25T14:37:52Z</time>
      </trkpt>
      <trkpt lat="44.79525" lon="1.56541">
        <ele>116.1</ele>
        <time>2024-12-25T14:37:53Z</time>
      </trkpt>
      <trkpt lat="44.79526" lon="1.5654">
        <ele>116</ele>
        <time>2024-12-25T14:37:54Z</time>
      </trkpt>
      <trkpt lat="44.79526" lon="1.5654">
        <ele>115.9</ele>
        <time>2024-12-25T14:37:55Z</time>
      </trkpt>
      <trkpt lat="44.79528" lon="1.56541">
        <ele>115.7</ele>
        <time>2024-12-25T14:37:56Z</time>
      </trkpt>
      <trkpt lat="44.79529" lon="1.56542">
        <ele>115.6</ele>
        <time>2024-12-25T14:37:58Z</time>
      </trkpt>
      <trkpt lat="44.7953" lon="1.56543">
        <ele>115.5</ele>
        <time>2024-12-25T14:37:59Z</time>
      </trkpt>
      <trkpt lat="44.7953" lon="1.56544">
        <ele>115.4</ele>
        <time>2024-12-25T14:38:00Z</time>
      </trkpt>
      <trkpt lat="44.79531" lon="1.56544">
        <ele>115.3</ele>
        <time>2024-12-25T14:38:01Z</time>
      </trkpt>
      <trkpt lat="44.79532" lon="1.56545">
        <ele>115.2</ele>
        <time>2024-12-25T14:38:02Z</time>
      </trkpt>
      <trkpt lat="44.79535" lon="1.56546">
        <ele>115.1</ele>
        <time>2024-12-25T14:38:03Z</time>
      </trkpt>
      <trkpt lat="44.79536" lon="1.56546">
        <ele>115</ele>
        <time>2024-12-25T14:38:05Z</time>
      </trkpt>
      <trkpt lat="44.79536" lon="1.56546">
        <ele>114.9</ele>
        <time>2024-12-25T14:38:06Z</time>
      </trkpt>
      <trkpt lat="44.79537" lon="1.56546">
        <ele>114.9</ele>
        <time>2024-12-25T14:38:07Z</time>
      </trkpt>
      <trkpt lat="44.79539" lon="1.56546">
        <ele>114.8</ele>
        <time>2024-12-25T14:38:08Z</time>
      </trkpt>
      <trkpt lat="44.79541" lon="1.56545">
        <ele>114.7</ele>
        <time>2024-12-25T14:38:09Z</time>
      </trkpt>
      <trkpt lat="44.79542" lon="1.56545">
        <ele>114.6</ele>
        <time>2024-12-25T14:38:10Z</time>
      </trkpt>
      <trkpt lat="44.79543" lon="1.56545">
        <ele>114.6</ele>
        <time>2024-12-25T14:38:11Z</time>
      </trkpt>
      <trkpt lat="44.79544" lon="1.56545">
        <ele>114.5</ele>
        <time>2024-12-25T14:38:12Z</time>
      </trkpt>
      <trkpt lat="44.79546" lon="1.56543">
        <ele>114.4</ele>
        <time>2024-12-25T14:38:13Z</time>
      </trkpt>
      <trkpt lat="44.79547" lon="1.56541">
        <ele>114.3</ele>
        <time>2024-12-25T14:38:14Z</time>
      </trkpt>
      <trkpt lat="44.79549" lon="1.56539">
        <ele>114.2</ele>
        <time>2024-12-25T14:38:15Z</time>
      </trkpt>
      <trkpt lat="44.7955" lon="1.56537">
        <ele>114.2</ele>
        <time>2024-12-25T14:38:17Z</time>
      </trkpt>
      <trkpt lat="44.79551" lon="1.56536">
        <ele>114.1</ele>
        <time>2024-12-25T14:38:18Z</time>
      </trkpt>
      <trkpt lat="44.79554" lon="1.56534">
        <ele>114.1</ele>
        <time>2024-12-25T14:38:19Z</time>
      </trkpt>
      <trkpt lat="44.79556" lon="1.56533">
        <ele>114</ele>
        <time>2024-12-25T14:38:21Z</time>
      </trkpt>
      <trkpt lat="44.79557" lon="1.56533">
        <ele>114</ele>
        <time>2024-12-25T14:38:22Z</time>
      </trkpt>
      <trkpt lat="44.79558" lon="1.56532">
        <ele>114</ele>
        <time>2024-12-25T14:38:23Z</time>
      </trkpt>
      <trkpt lat="44.7956" lon="1.56531">
        <ele>113.9</ele>
        <time>2024-12-25T14:38:24Z</time>
      </trkpt>
      <trkpt lat="44.79561" lon="1.5653">
        <ele>113.9</ele>
        <time>2024-12-25T14:38:25Z</time>
      </trkpt>
      <trkpt lat="44.79562" lon="1.56529">
        <ele>113.9</ele>
        <time>2024-12-25T14:38:26Z</time>
      </trkpt>
      <trkpt lat="44.79563" lon="1.56528">
        <ele>113.9</ele>
        <time>2024-12-25T14:38:27Z</time>
      </trkpt>
      <trkpt lat="44.79566" lon="1.56525">
        <ele>113.8</ele>
        <time>2024-12-25T14:38:28Z</time>
      </trkpt>
      <trkpt lat="44.79568" lon="1.56524">
        <ele>113.8</ele>
        <time>2024-12-25T14:38:30Z</time>
      </trkpt>
      <trkpt lat="44.79569" lon="1.56523">
        <ele>113.8</ele>
        <time>2024-12-25T14:38:31Z</time>
      </trkpt>
      <trkpt lat="44.79569" lon="1.56522">
        <ele>113.8</ele>
        <time>2024-12-25T14:38:32Z</time>
      </trkpt>
      <trkpt lat="44.79573" lon="1.5652">
        <ele>113.8</ele>
        <time>2024-12-25T14:38:33Z</time>
      </trkpt>
      <trkpt lat="44.79574" lon="1.56519">
        <ele>113.8</ele>
        <time>2024-12-25T14:38:35Z</time>
      </trkpt>
      <trkpt lat="44.79576" lon="1.56518">
        <ele>113.8</ele>
        <time>2024-12-25T14:38:36Z</time>
      </trkpt>
      <trkpt lat="44.79577" lon="1.56516">
        <ele>113.8</ele>
        <time>2024-12-25T14:38:37Z</time>
      </trkpt>
      <trkpt lat="44.79578" lon="1.56514">
        <ele>113.8</ele>
        <time>2024-12-25T14:38:38Z</time>
      </trkpt>
      <trkpt lat="44.7958" lon="1.56511">
        <ele>113.8</ele>
        <time>2024-12-25T14:38:39Z</time>
      </trkpt>
      <trkpt lat="44.7958" lon="1.56509">
        <ele>113.8</ele>
        <time>2024-12-25T14:38:40Z</time>
      </trkpt>
      <trkpt lat="44.79581" lon="1.56507">
        <ele>113.9</ele>
        <time>2024-12-25T14:38:41Z</time>
      </trkpt>
      <trkpt lat="44.79582" lon="1.56506">
        <ele>113.9</ele>
        <time>2024-12-25T14:38:42Z</time>
      </trkpt>
      <trkpt lat="44.79583" lon="1.56504">
        <ele>113.9</ele>
        <time>2024-12-25T14:38:43Z</time>
      </trkpt>
      <trkpt lat="44.79584" lon="1.56503">
        <ele>113.9</ele>
        <time>2024-12-25T14:38:44Z</time>
      </trkpt>
      <trkpt lat="44.79584" lon="1.56502">
        <ele>114</ele>
        <time>2024-12-25T14:38:45Z</time>
      </trkpt>
      <trkpt lat="44.79585" lon="1.565">
        <ele>114</ele>
        <time>2024-12-25T14:38:46Z</time>
      </trkpt>
      <trkpt lat="44.79586" lon="1.565">
        <ele>114</ele>
        <time>2024-12-25T14:38:47Z</time>
      </trkpt>
      <trkpt lat="44.79586" lon="1.56499">
        <ele>114</ele>
        <time>2024-12-25T14:38:48Z</time>
      </trkpt>
      <trkpt lat="44.79588" lon="1.56499">
        <ele>114</ele>
        <time>2024-12-25T14:38:49Z</time>
      </trkpt>
      <trkpt lat="44.79588" lon="1.56497">
        <ele>114.1</ele>
        <time>2024-12-25T14:38:50Z</time>
      </trkpt>
      <trkpt lat="44.79588" lon="1.56496">
        <ele>114.1</ele>
        <time>2024-12-25T14:38:51Z</time>
      </trkpt>
      <trkpt lat="44.7959" lon="1.56492">
        <ele>114.1</ele>
        <time>2024-12-25T14:38:52Z</time>
      </trkpt>
      <trkpt lat="44.79591" lon="1.5649">
        <ele>114.1</ele>
        <time>2024-12-25T14:38:54Z</time>
      </trkpt>
      <trkpt lat="44.79591" lon="1.56488">
        <ele>114.1</ele>
        <time>2024-12-25T14:38:55Z</time>
      </trkpt>
      <trkpt lat="44.79592" lon="1.56486">
        <ele>114.1</ele>
        <time>2024-12-25T14:38:56Z</time>
      </trkpt>
      <trkpt lat="44.79593" lon="1.56484">
        <ele>114.1</ele>
        <time>2024-12-25T14:38:57Z</time>
      </trkpt>
      <trkpt lat="44.79593" lon="1.56482">
        <ele>114.1</ele>
        <time>2024-12-25T14:38:58Z</time>
      </trkpt>
      <trkpt lat="44.79594" lon="1.5648">
        <ele>114</ele>
        <time>2024-12-25T14:38:59Z</time>
      </trkpt>
      <trkpt lat="44.79594" lon="1.56477">
        <ele>114</ele>
        <time>2024-12-25T14:39:00Z</time>
      </trkpt>
      <trkpt lat="44.79594" lon="1.56476">
        <ele>114</ele>
        <time>2024-12-25T14:39:01Z</time>
      </trkpt>
      <trkpt lat="44.79595" lon="1.56475">
        <ele>114</ele>
        <time>2024-12-25T14:39:02Z</time>
      </trkpt>
      <trkpt lat="44.79595" lon="1.56473">
        <ele>113.9</ele>
        <time>2024-12-25T14:39:03Z</time>
      </trkpt>
      <trkpt lat="44.79595" lon="1.56471">
        <ele>113.9</ele>
        <time>2024-12-25T14:39:04Z</time>
      </trkpt>
      <trkpt lat="44.79595" lon="1.5647">
        <ele>113.9</ele>
        <time>2024-12-25T14:39:05Z</time>
      </trkpt>
      <trkpt lat="44.79596" lon="1.56469">
        <ele>113.8</ele>
        <time>2024-12-25T14:39:06Z</time>
      </trkpt>
      <trkpt lat="44.79596" lon="1.56467">
        <ele>113.8</ele>
        <time>2024-12-25T14:39:07Z</time>
      </trkpt>
      <trkpt lat="44.79597" lon="1.56466">
        <ele>113.7</ele>
        <time>2024-12-25T14:39:08Z</time>
      </trkpt>
      <trkpt lat="44.79598" lon="1.56463">
        <ele>113.7</ele>
        <time>2024-12-25T14:39:09Z</time>
      </trkpt>
      <trkpt lat="44.79599" lon="1.56463">
        <ele>113.6</ele>
        <time>2024-12-25T14:39:10Z</time>
      </trkpt>
      <trkpt lat="44.79599" lon="1.56462">
        <ele>113.6</ele>
        <time>2024-12-25T14:39:11Z</time>
      </trkpt>
      <trkpt lat="44.79601" lon="1.5646">
        <ele>113.6</ele>
        <time>2024-12-25T14:39:12Z</time>
      </trkpt>
      <trkpt lat="44.79602" lon="1.56459">
        <ele>113.5</ele>
        <time>2024-12-25T14:39:13Z</time>
      </trkpt>
      <trkpt lat="44.79603" lon="1.56458">
        <ele>113.4</ele>
        <time>2024-12-25T14:39:14Z</time>
      </trkpt>
      <trkpt lat="44.79604" lon="1.56457">
        <ele>113.4</ele>
        <time>2024-12-25T14:39:15Z</time>
      </trkpt>
      <trkpt lat="44.79605" lon="1.56455">
        <ele>113.4</ele>
        <time>2024-12-25T14:39:16Z</time>
      </trkpt>
      <trkpt lat="44.79607" lon="1.56454">
        <ele>113.3</ele>
        <time>2024-12-25T14:39:17Z</time>
      </trkpt>
      <trkpt lat="44.79608" lon="1.56452">
        <ele>113.2</ele>
        <time>2024-12-25T14:39:18Z</time>
      </trkpt>
      <trkpt lat="44.79609" lon="1.56452">
        <ele>113.2</ele>
        <time>2024-12-25T14:39:19Z</time>
      </trkpt>
      <trkpt lat="44.7961" lon="1.56451">
        <ele>113.2</ele>
        <time>2024-12-25T14:39:20Z</time>
      </trkpt>
      <trkpt lat="44.79611" lon="1.56449">
        <ele>113.2</ele>
        <time>2024-12-25T14:39:21Z</time>
      </trkpt>
      <trkpt lat="44.79612" lon="1.56448">
        <ele>113.1</ele>
        <time>2024-12-25T14:39:22Z</time>
      </trkpt>
      <trkpt lat="44.79613" lon="1.56448">
        <ele>113.1</ele>
        <time>2024-12-25T14:39:23Z</time>
      </trkpt>
      <trkpt lat="44.79615" lon="1.56446">
        <ele>113.1</ele>
        <time>2024-12-25T14:39:24Z</time>
      </trkpt>
      <trkpt lat="44.79615" lon="1.56445">
        <ele>113.1</ele>
        <time>2024-12-25T14:39:25Z</time>
      </trkpt>
      <trkpt lat="44.79616" lon="1.56445">
        <ele>113.1</ele>
        <time>2024-12-25T14:39:26Z</time>
      </trkpt>
      <trkpt lat="44.79618" lon="1.56443">
        <ele>113.1</ele>
        <time>2024-12-25T14:39:27Z</time>
      </trkpt>
      <trkpt lat="44.7962" lon="1.56442">
        <ele>113.1</ele>
        <time>2024-12-25T14:39:28Z</time>
      </trkpt>
      <trkpt lat="44.79621" lon="1.56442">
        <ele>113.1</ele>
        <time>2024-12-25T14:39:30Z</time>
      </trkpt>
      <trkpt lat="44.79622" lon="1.56441">
        <ele>113.1</ele>
        <time>2024-12-25T14:39:31Z</time>
      </trkpt>
      <trkpt lat="44.79623" lon="1.56441">
        <ele>113.2</ele>
        <time>2024-12-25T14:39:32Z</time>
      </trkpt>
      <trkpt lat="44.79625" lon="1.5644">
        <ele>113.2</ele>
        <time>2024-12-25T14:39:33Z</time>
      </trkpt>
      <trkpt lat="44.79626" lon="1.5644">
        <ele>113.3</ele>
        <time>2024-12-25T14:39:34Z</time>
      </trkpt>
      <trkpt lat="44.79627" lon="1.5644">
        <ele>113.3</ele>
        <time>2024-12-25T14:39:35Z</time>
      </trkpt>
      <trkpt lat="44.79629" lon="1.5644">
        <ele>113.4</ele>
        <time>2024-12-25T14:39:36Z</time>
      </trkpt>
      <trkpt lat="44.7963" lon="1.56439">
        <ele>113.4</ele>
        <time>2024-12-25T14:39:37Z</time>
      </trkpt>
      <trkpt lat="44.79634" lon="1.56438">
        <ele>113.6</ele>
        <time>2024-12-25T14:39:38Z</time>
      </trkpt>
      <trkpt lat="44.79636" lon="1.56438">
        <ele>113.8</ele>
        <time>2024-12-25T14:39:40Z</time>
      </trkpt>
      <trkpt lat="44.79637" lon="1.56437">
        <ele>113.8</ele>
        <time>2024-12-25T14:39:41Z</time>
      </trkpt>
      <trkpt lat="44.79638" lon="1.56437">
        <ele>113.9</ele>
        <time>2024-12-25T14:39:42Z</time>
      </trkpt>
      <trkpt lat="44.79639" lon="1.56436">
        <ele>114</ele>
        <time>2024-12-25T14:39:43Z</time>
      </trkpt>
      <trkpt lat="44.7964" lon="1.56435">
        <ele>114.1</ele>
        <time>2024-12-25T14:39:44Z</time>
      </trkpt>
      <trkpt lat="44.79641" lon="1.56435">
        <ele>114.2</ele>
        <time>2024-12-25T14:39:45Z</time>
      </trkpt>
      <trkpt lat="44.79642" lon="1.56434">
        <ele>114.3</ele>
        <time>2024-12-25T14:39:46Z</time>
      </trkpt>
      <trkpt lat="44.79643" lon="1.56433">
        <ele>114.4</ele>
        <time>2024-12-25T14:39:47Z</time>
      </trkpt>
      <trkpt lat="44.79644" lon="1.56432">
        <ele>114.4</ele>
        <time>2024-12-25T14:39:48Z</time>
      </trkpt>
      <trkpt lat="44.79645" lon="1.56431">
        <ele>114.6</ele>
        <time>2024-12-25T14:39:49Z</time>
      </trkpt>
      <trkpt lat="44.79646" lon="1.5643">
        <ele>114.6</ele>
        <time>2024-12-25T14:39:50Z</time>
      </trkpt>
      <trkpt lat="44.79647" lon="1.5643">
        <ele>114.7</ele>
        <time>2024-12-25T14:39:51Z</time>
      </trkpt>
      <trkpt lat="44.79648" lon="1.56429">
        <ele>114.8</ele>
        <time>2024-12-25T14:39:52Z</time>
      </trkpt>
      <trkpt lat="44.79648" lon="1.56428">
        <ele>114.8</ele>
        <time>2024-12-25T14:39:53Z</time>
      </trkpt>
      <trkpt lat="44.7965" lon="1.56426">
        <ele>115</ele>
        <time>2024-12-25T14:39:54Z</time>
      </trkpt>
      <trkpt lat="44.79651" lon="1.56425">
        <ele>115.1</ele>
        <time>2024-12-25T14:39:55Z</time>
      </trkpt>
      <trkpt lat="44.79651" lon="1.56425">
        <ele>115.1</ele>
        <time>2024-12-25T14:39:56Z</time>
      </trkpt>
      <trkpt lat="44.79652" lon="1.56424">
        <ele>115.2</ele>
        <time>2024-12-25T14:39:57Z</time>
      </trkpt>
      <trkpt lat="44.79653" lon="1.56422">
        <ele>115.3</ele>
        <time>2024-12-25T14:39:58Z</time>
      </trkpt>
      <trkpt lat="44.79654" lon="1.5642">
        <ele>115.4</ele>
        <time>2024-12-25T14:39:59Z</time>
      </trkpt>
      <trkpt lat="44.79655" lon="1.56419">
        <ele>115.5</ele>
        <time>2024-12-25T14:40:00Z</time>
      </trkpt>
      <trkpt lat="44.79656" lon="1.56418">
        <ele>115.5</ele>
        <time>2024-12-25T14:40:01Z</time>
      </trkpt>
      <trkpt lat="44.79657" lon="1.56416">
        <ele>115.6</ele>
        <time>2024-12-25T14:40:02Z</time>
      </trkpt>
      <trkpt lat="44.79658" lon="1.56415">
        <ele>115.6</ele>
        <time>2024-12-25T14:40:03Z</time>
      </trkpt>
      <trkpt lat="44.79659" lon="1.56413">
        <ele>115.7</ele>
        <time>2024-12-25T14:40:04Z</time>
      </trkpt>
      <trkpt lat="44.7966" lon="1.56411">
        <ele>115.7</ele>
        <time>2024-12-25T14:40:05Z</time>
      </trkpt>
      <trkpt lat="44.79661" lon="1.5641">
        <ele>115.8</ele>
        <time>2024-12-25T14:40:06Z</time>
      </trkpt>
      <trkpt lat="44.79661" lon="1.56409">
        <ele>115.8</ele>
        <time>2024-12-25T14:40:07Z</time>
      </trkpt>
      <trkpt lat="44.79662" lon="1.56407">
        <ele>115.8</ele>
        <time>2024-12-25T14:40:08Z</time>
      </trkpt>
      <trkpt lat="44.79663" lon="1.56405">
        <ele>115.8</ele>
        <time>2024-12-25T14:40:09Z</time>
      </trkpt>
      <trkpt lat="44.79665" lon="1.56404">
        <ele>115.7</ele>
        <time>2024-12-25T14:40:10Z</time>
      </trkpt>
      <trkpt lat="44.79665" lon="1.56403">
        <ele>115.7</ele>
        <time>2024-12-25T14:40:11Z</time>
      </trkpt>
      <trkpt lat="44.79666" lon="1.56402">
        <ele>115.7</ele>
        <time>2024-12-25T14:40:12Z</time>
      </trkpt>
      <trkpt lat="44.79667" lon="1.56401">
        <ele>115.7</ele>
        <time>2024-12-25T14:40:13Z</time>
      </trkpt>
      <trkpt lat="44.79668" lon="1.56399">
        <ele>115.6</ele>
        <time>2024-12-25T14:40:14Z</time>
      </trkpt>
      <trkpt lat="44.79669" lon="1.56398">
        <ele>115.6</ele>
        <time>2024-12-25T14:40:15Z</time>
      </trkpt>
      <trkpt lat="44.7967" lon="1.56396">
        <ele>115.5</ele>
        <time>2024-12-25T14:40:16Z</time>
      </trkpt>
      <trkpt lat="44.7967" lon="1.56395">
        <ele>115.4</ele>
        <time>2024-12-25T14:40:17Z</time>
      </trkpt>
      <trkpt lat="44.79672" lon="1.56393">
        <ele>115.3</ele>
        <time>2024-12-25T14:40:18Z</time>
      </trkpt>
      <trkpt lat="44.79673" lon="1.56392">
        <ele>115.3</ele>
        <time>2024-12-25T14:40:19Z</time>
      </trkpt>
      <trkpt lat="44.79673" lon="1.56391">
        <ele>115.2</ele>
        <time>2024-12-25T14:40:20Z</time>
      </trkpt>
      <trkpt lat="44.79675" lon="1.56387">
        <ele>115</ele>
        <time>2024-12-25T14:40:21Z</time>
      </trkpt>
      <trkpt lat="44.79676" lon="1.56385">
        <ele>114.9</ele>
        <time>2024-12-25T14:40:23Z</time>
      </trkpt>
      <trkpt lat="44.79676" lon="1.56384">
        <ele>114.8</ele>
        <time>2024-12-25T14:40:24Z</time>
      </trkpt>
      <trkpt lat="44.79677" lon="1.56382">
        <ele>114.7</ele>
        <time>2024-12-25T14:40:25Z</time>
      </trkpt>
      <trkpt lat="44.79678" lon="1.56379">
        <ele>114.5</ele>
        <time>2024-12-25T14:40:26Z</time>
      </trkpt>
      <trkpt lat="44.79679" lon="1.56377">
        <ele>114.4</ele>
        <time>2024-12-25T14:40:27Z</time>
      </trkpt>
      <trkpt lat="44.7968" lon="1.56374">
        <ele>114.3</ele>
        <time>2024-12-25T14:40:29Z</time>
      </trkpt>
      <trkpt lat="44.7968" lon="1.56373">
        <ele>114.3</ele>
        <time>2024-12-25T14:40:30Z</time>
      </trkpt>
      <trkpt lat="44.79681" lon="1.56372">
        <ele>114.2</ele>
        <time>2024-12-25T14:40:31Z</time>
      </trkpt>
      <trkpt lat="44.79681" lon="1.56371">
        <ele>114.1</ele>
        <time>2024-12-25T14:40:32Z</time>
      </trkpt>
      <trkpt lat="44.79682" lon="1.56369">
        <ele>114.1</ele>
        <time>2024-12-25T14:40:33Z</time>
      </trkpt>
      <trkpt lat="44.79682" lon="1.56368">
        <ele>114</ele>
        <time>2024-12-25T14:40:34Z</time>
      </trkpt>
      <trkpt lat="44.79683" lon="1.56367">
        <ele>113.9</ele>
        <time>2024-12-25T14:40:35Z</time>
      </trkpt>
      <trkpt lat="44.79686" lon="1.56365">
        <ele>113.8</ele>
        <time>2024-12-25T14:40:36Z</time>
      </trkpt>
      <trkpt lat="44.79689" lon="1.56364">
        <ele>113.7</ele>
        <time>2024-12-25T14:40:38Z</time>
      </trkpt>
      <trkpt lat="44.79689" lon="1.56364">
        <ele>113.6</ele>
        <time>2024-12-25T14:40:39Z</time>
      </trkpt>
      <trkpt lat="44.7969" lon="1.56363">
        <ele>113.6</ele>
        <time>2024-12-25T14:40:40Z</time>
      </trkpt>
      <trkpt lat="44.79691" lon="1.56363">
        <ele>113.6</ele>
        <time>2024-12-25T14:40:41Z</time>
      </trkpt>
      <trkpt lat="44.79692" lon="1.56362">
        <ele>113.5</ele>
        <time>2024-12-25T14:40:42Z</time>
      </trkpt>
      <trkpt lat="44.79693" lon="1.56361">
        <ele>113.5</ele>
        <time>2024-12-25T14:40:43Z</time>
      </trkpt>
      <trkpt lat="44.79694" lon="1.5636">
        <ele>113.4</ele>
        <time>2024-12-25T14:40:44Z</time>
      </trkpt>
      <trkpt lat="44.79694" lon="1.56358">
        <ele>113.4</ele>
        <time>2024-12-25T14:40:45Z</time>
      </trkpt>
      <trkpt lat="44.79694" lon="1.56356">
        <ele>113.4</ele>
        <time>2024-12-25T14:40:46Z</time>
      </trkpt>
      <trkpt lat="44.79696" lon="1.56352">
        <ele>113.3</ele>
        <time>2024-12-25T14:40:47Z</time>
      </trkpt>
      <trkpt lat="44.79697" lon="1.5635">
        <ele>113.2</ele>
        <time>2024-12-25T14:40:48Z</time>
      </trkpt>
      <trkpt lat="44.79698" lon="1.56349">
        <ele>113.2</ele>
        <time>2024-12-25T14:40:49Z</time>
      </trkpt>
      <trkpt lat="44.79698" lon="1.56347">
        <ele>113.2</ele>
        <time>2024-12-25T14:40:50Z</time>
      </trkpt>
      <trkpt lat="44.79699" lon="1.56345">
        <ele>113.2</ele>
        <time>2024-12-25T14:40:51Z</time>
      </trkpt>
      <trkpt lat="44.79698" lon="1.56346">
        <ele>113.2</ele>
        <time>2024-12-25T14:40:52Z</time>
      </trkpt>
      <trkpt lat="44.79698" lon="1.56346">
        <ele>113.1</ele>
        <time>2024-12-25T14:40:53Z</time>
      </trkpt>
      <trkpt lat="44.79698" lon="1.56347">
        <ele>113.1</ele>
        <time>2024-12-25T14:40:54Z</time>
      </trkpt>
      <trkpt lat="44.79698" lon="1.56345">
        <ele>113.1</ele>
        <time>2024-12-25T14:40:55Z</time>
      </trkpt>
      <trkpt lat="44.79698" lon="1.56345">
        <ele>113.1</ele>
        <time>2024-12-25T14:40:56Z</time>
      </trkpt>
      <trkpt lat="44.79699" lon="1.56344">
        <ele>113.1</ele>
        <time>2024-12-25T14:40:57Z</time>
      </trkpt>
      <trkpt lat="44.797" lon="1.56343">
        <ele>113.1</ele>
        <time>2024-12-25T14:40:58Z</time>
      </trkpt>
      <trkpt lat="44.79701" lon="1.56343">
        <ele>113.1</ele>
        <time>2024-12-25T14:40:59Z</time>
      </trkpt>
      <trkpt lat="44.79701" lon="1.56339">
        <ele>113</ele>
        <time>2024-12-25T14:41:00Z</time>
      </trkpt>
      <trkpt lat="44.79701" lon="1.56338">
        <ele>113</ele>
        <time>2024-12-25T14:41:02Z</time>
      </trkpt>
      <trkpt lat="44.79702" lon="1.56336">
        <ele>113</ele>
        <time>2024-12-25T14:41:03Z</time>
      </trkpt>
      <trkpt lat="44.79703" lon="1.56332">
        <ele>112.9</ele>
        <time>2024-12-25T14:41:04Z</time>
      </trkpt>
      <trkpt lat="44.79703" lon="1.5633">
        <ele>112.9</ele>
        <time>2024-12-25T14:41:06Z</time>
      </trkpt>
      <trkpt lat="44.79704" lon="1.56329">
        <ele>112.9</ele>
        <time>2024-12-25T14:41:07Z</time>
      </trkpt>
      <trkpt lat="44.79705" lon="1.56327">
        <ele>112.9</ele>
        <time>2024-12-25T14:41:08Z</time>
      </trkpt>
      <trkpt lat="44.79705" lon="1.56326">
        <ele>112.9</ele>
        <time>2024-12-25T14:41:09Z</time>
      </trkpt>
      <trkpt lat="44.79706" lon="1.56324">
        <ele>112.9</ele>
        <time>2024-12-25T14:41:10Z</time>
      </trkpt>
      <trkpt lat="44.79708" lon="1.56322">
        <ele>112.8</ele>
        <time>2024-12-25T14:41:11Z</time>
      </trkpt>
      <trkpt lat="44.79709" lon="1.56322">
        <ele>112.8</ele>
        <time>2024-12-25T14:41:12Z</time>
      </trkpt>
      <trkpt lat="44.79709" lon="1.56321">
        <ele>112.8</ele>
        <time>2024-12-25T14:41:13Z</time>
      </trkpt>
      <trkpt lat="44.79711" lon="1.5632">
        <ele>112.8</ele>
        <time>2024-12-25T14:41:14Z</time>
      </trkpt>
      <trkpt lat="44.79712" lon="1.56318">
        <ele>112.8</ele>
        <time>2024-12-25T14:41:15Z</time>
      </trkpt>
      <trkpt lat="44.79714" lon="1.56317">
        <ele>112.8</ele>
        <time>2024-12-25T14:41:16Z</time>
      </trkpt>
      <trkpt lat="44.79715" lon="1.56316">
        <ele>112.7</ele>
        <time>2024-12-25T14:41:17Z</time>
      </trkpt>
      <trkpt lat="44.79716" lon="1.56315">
        <ele>112.7</ele>
        <time>2024-12-25T14:41:18Z</time>
      </trkpt>
      <trkpt lat="44.79717" lon="1.56315">
        <ele>112.7</ele>
        <time>2024-12-25T14:41:19Z</time>
      </trkpt>
      <trkpt lat="44.79719" lon="1.56313">
        <ele>112.7</ele>
        <time>2024-12-25T14:41:20Z</time>
      </trkpt>
      <trkpt lat="44.79722" lon="1.56312">
        <ele>112.6</ele>
        <time>2024-12-25T14:41:21Z</time>
      </trkpt>
      <trkpt lat="44.79723" lon="1.5631">
        <ele>112.6</ele>
        <time>2024-12-25T14:41:23Z</time>
      </trkpt>
      <trkpt lat="44.79724" lon="1.56309">
        <ele>112.6</ele>
        <time>2024-12-25T14:41:24Z</time>
      </trkpt>
      <trkpt lat="44.79726" lon="1.56306">
        <ele>112.5</ele>
        <time>2024-12-25T14:41:25Z</time>
      </trkpt>
      <trkpt lat="44.79726" lon="1.56304">
        <ele>112.5</ele>
        <time>2024-12-25T14:41:27Z</time>
      </trkpt>
      <trkpt lat="44.79726" lon="1.56302">
        <ele>112.5</ele>
        <time>2024-12-25T14:41:28Z</time>
      </trkpt>
      <trkpt lat="44.79727" lon="1.563">
        <ele>112.5</ele>
        <time>2024-12-25T14:41:29Z</time>
      </trkpt>
      <trkpt lat="44.79727" lon="1.56298">
        <ele>112.4</ele>
        <time>2024-12-25T14:41:30Z</time>
      </trkpt>
      <trkpt lat="44.79727" lon="1.56297">
        <ele>112.4</ele>
        <time>2024-12-25T14:41:31Z</time>
      </trkpt>
      <trkpt lat="44.79727" lon="1.56296">
        <ele>112.4</ele>
        <time>2024-12-25T14:41:32Z</time>
      </trkpt>
      <trkpt lat="44.79727" lon="1.56294">
        <ele>112.4</ele>
        <time>2024-12-25T14:41:33Z</time>
      </trkpt>
      <trkpt lat="44.79727" lon="1.56292">
        <ele>112.4</ele>
        <time>2024-12-25T14:41:34Z</time>
      </trkpt>
      <trkpt lat="44.79727" lon="1.56291">
        <ele>112.3</ele>
        <time>2024-12-25T14:41:35Z</time>
      </trkpt>
      <trkpt lat="44.79728" lon="1.5629">
        <ele>112.3</ele>
        <time>2024-12-25T14:41:36Z</time>
      </trkpt>
      <trkpt lat="44.7973" lon="1.56287">
        <ele>112.3</ele>
        <time>2024-12-25T14:41:37Z</time>
      </trkpt>
      <trkpt lat="44.7973" lon="1.56285">
        <ele>112.3</ele>
        <time>2024-12-25T14:41:38Z</time>
      </trkpt>
      <trkpt lat="44.79731" lon="1.56284">
        <ele>112.3</ele>
        <time>2024-12-25T14:41:39Z</time>
      </trkpt>
      <trkpt lat="44.79732" lon="1.56282">
        <ele>112.3</ele>
        <time>2024-12-25T14:41:41Z</time>
      </trkpt>
      <trkpt lat="44.79732" lon="1.5628">
        <ele>112.3</ele>
        <time>2024-12-25T14:41:42Z</time>
      </trkpt>
      <trkpt lat="44.79732" lon="1.56279">
        <ele>112.3</ele>
        <time>2024-12-25T14:41:43Z</time>
      </trkpt>
      <trkpt lat="44.79733" lon="1.56277">
        <ele>112.3</ele>
        <time>2024-12-25T14:41:44Z</time>
      </trkpt>
      <trkpt lat="44.79732" lon="1.56275">
        <ele>112.3</ele>
        <time>2024-12-25T14:41:45Z</time>
      </trkpt>
      <trkpt lat="44.79732" lon="1.56274">
        <ele>112.3</ele>
        <time>2024-12-25T14:41:46Z</time>
      </trkpt>
      <trkpt lat="44.79732" lon="1.56272">
        <ele>112.3</ele>
        <time>2024-12-25T14:41:47Z</time>
      </trkpt>
      <trkpt lat="44.79733" lon="1.56271">
        <ele>112.3</ele>
        <time>2024-12-25T14:41:48Z</time>
      </trkpt>
      <trkpt lat="44.79734" lon="1.5627">
        <ele>112.3</ele>
        <time>2024-12-25T14:41:49Z</time>
      </trkpt>
      <trkpt lat="44.79736" lon="1.56268">
        <ele>112.4</ele>
        <time>2024-12-25T14:41:50Z</time>
      </trkpt>
      <trkpt lat="44.79737" lon="1.56267">
        <ele>112.4</ele>
        <time>2024-12-25T14:41:51Z</time>
      </trkpt>
      <trkpt lat="44.79738" lon="1.56265">
        <ele>112.4</ele>
        <time>2024-12-25T14:41:52Z</time>
      </trkpt>
      <trkpt lat="44.79739" lon="1.56264">
        <ele>112.4</ele>
        <time>2024-12-25T14:41:53Z</time>
      </trkpt>
      <trkpt lat="44.7974" lon="1.56263">
        <ele>112.4</ele>
        <time>2024-12-25T14:41:54Z</time>
      </trkpt>
      <trkpt lat="44.79741" lon="1.56261">
        <ele>112.4</ele>
        <time>2024-12-25T14:41:55Z</time>
      </trkpt>
      <trkpt lat="44.79742" lon="1.56258">
        <ele>112.4</ele>
        <time>2024-12-25T14:41:56Z</time>
      </trkpt>
      <trkpt lat="44.79742" lon="1.56257">
        <ele>112.4</ele>
        <time>2024-12-25T14:41:57Z</time>
      </trkpt>
      <trkpt lat="44.79742" lon="1.56256">
        <ele>112.4</ele>
        <time>2024-12-25T14:41:58Z</time>
      </trkpt>
      <trkpt lat="44.79743" lon="1.56254">
        <ele>112.4</ele>
        <time>2024-12-25T14:41:59Z</time>
      </trkpt>
      <trkpt lat="44.79744" lon="1.56252">
        <ele>112.4</ele>
        <time>2024-12-25T14:42:00Z</time>
      </trkpt>
      <trkpt lat="44.79745" lon="1.56249">
        <ele>112.4</ele>
        <time>2024-12-25T14:42:01Z</time>
      </trkpt>
      <trkpt lat="44.79746" lon="1.56248">
        <ele>112.4</ele>
        <time>2024-12-25T14:42:03Z</time>
      </trkpt>
      <trkpt lat="44.79746" lon="1.56247">
        <ele>112.4</ele>
        <time>2024-12-25T14:42:04Z</time>
      </trkpt>
      <trkpt lat="44.79748" lon="1.56244">
        <ele>112.4</ele>
        <time>2024-12-25T14:42:05Z</time>
      </trkpt>
      <trkpt lat="44.79749" lon="1.56243">
        <ele>112.5</ele>
        <time>2024-12-25T14:42:07Z</time>
      </trkpt>
      <trkpt lat="44.79749" lon="1.56242">
        <ele>112.5</ele>
        <time>2024-12-25T14:42:08Z</time>
      </trkpt>
      <trkpt lat="44.7975" lon="1.56241">
        <ele>112.5</ele>
        <time>2024-12-25T14:42:09Z</time>
      </trkpt>
      <trkpt lat="44.79752" lon="1.56238">
        <ele>112.5</ele>
        <time>2024-12-25T14:42:10Z</time>
      </trkpt>
      <trkpt lat="44.79752" lon="1.56238">
        <ele>112.5</ele>
        <time>2024-12-25T14:42:11Z</time>
      </trkpt>
      <trkpt lat="44.79753" lon="1.56237">
        <ele>112.5</ele>
        <time>2024-12-25T14:42:12Z</time>
      </trkpt>
      <trkpt lat="44.79754" lon="1.56234">
        <ele>112.5</ele>
        <time>2024-12-25T14:42:13Z</time>
      </trkpt>
      <trkpt lat="44.79755" lon="1.56233">
        <ele>112.6</ele>
        <time>2024-12-25T14:42:14Z</time>
      </trkpt>
      <trkpt lat="44.79755" lon="1.56232">
        <ele>112.6</ele>
        <time>2024-12-25T14:42:15Z</time>
      </trkpt>
      <trkpt lat="44.79756" lon="1.56229">
        <ele>112.6</ele>
        <time>2024-12-25T14:42:16Z</time>
      </trkpt>
      <trkpt lat="44.79757" lon="1.56228">
        <ele>112.6</ele>
        <time>2024-12-25T14:42:17Z</time>
      </trkpt>
      <trkpt lat="44.79758" lon="1.56225">
        <ele>112.7</ele>
        <time>2024-12-25T14:42:19Z</time>
      </trkpt>
      <trkpt lat="44.79759" lon="1.56224">
        <ele>112.7</ele>
        <time>2024-12-25T14:42:20Z</time>
      </trkpt>
      <trkpt lat="44.79759" lon="1.56223">
        <ele>112.7</ele>
        <time>2024-12-25T14:42:21Z</time>
      </trkpt>
      <trkpt lat="44.7976" lon="1.56221">
        <ele>112.7</ele>
        <time>2024-12-25T14:42:22Z</time>
      </trkpt>
      <trkpt lat="44.79761" lon="1.5622">
        <ele>112.8</ele>
        <time>2024-12-25T14:42:23Z</time>
      </trkpt>
      <trkpt lat="44.79761" lon="1.56219">
        <ele>112.8</ele>
        <time>2024-12-25T14:42:24Z</time>
      </trkpt>
      <trkpt lat="44.79762" lon="1.56216">
        <ele>112.8</ele>
        <time>2024-12-25T14:42:25Z</time>
      </trkpt>
      <trkpt lat="44.79762" lon="1.56216">
        <ele>112.8</ele>
        <time>2024-12-25T14:42:26Z</time>
      </trkpt>
      <trkpt lat="44.79764" lon="1.56213">
        <ele>112.9</ele>
        <time>2024-12-25T14:42:27Z</time>
      </trkpt>
      <trkpt lat="44.79765" lon="1.56213">
        <ele>112.9</ele>
        <time>2024-12-25T14:42:28Z</time>
      </trkpt>
      <trkpt lat="44.79765" lon="1.56212">
        <ele>112.9</ele>
        <time>2024-12-25T14:42:29Z</time>
      </trkpt>
      <trkpt lat="44.79766" lon="1.5621">
        <ele>112.9</ele>
        <time>2024-12-25T14:42:30Z</time>
      </trkpt>
      <trkpt lat="44.79767" lon="1.56208">
        <ele>113</ele>
        <time>2024-12-25T14:42:31Z</time>
      </trkpt>
      <trkpt lat="44.79769" lon="1.56206">
        <ele>113</ele>
        <time>2024-12-25T14:42:32Z</time>
      </trkpt>
      <trkpt lat="44.7977" lon="1.56205">
        <ele>113</ele>
        <time>2024-12-25T14:42:33Z</time>
      </trkpt>
      <trkpt lat="44.79771" lon="1.56206">
        <ele>113.1</ele>
        <time>2024-12-25T14:42:35Z</time>
      </trkpt>
      <trkpt lat="44.79772" lon="1.56204">
        <ele>113.1</ele>
        <time>2024-12-25T14:42:36Z</time>
      </trkpt>
      <trkpt lat="44.79773" lon="1.562">
        <ele>113.1</ele>
        <time>2024-12-25T14:42:37Z</time>
      </trkpt>
      <trkpt lat="44.79774" lon="1.56198">
        <ele>113.2</ele>
        <time>2024-12-25T14:42:39Z</time>
      </trkpt>
      <trkpt lat="44.79774" lon="1.56197">
        <ele>113.2</ele>
        <time>2024-12-25T14:42:40Z</time>
      </trkpt>
      <trkpt lat="44.79775" lon="1.56195">
        <ele>113.2</ele>
        <time>2024-12-25T14:42:41Z</time>
      </trkpt>
      <trkpt lat="44.79776" lon="1.56193">
        <ele>113.2</ele>
        <time>2024-12-25T14:42:42Z</time>
      </trkpt>
      <trkpt lat="44.79777" lon="1.56191">
        <ele>113.2</ele>
        <time>2024-12-25T14:42:43Z</time>
      </trkpt>
      <trkpt lat="44.79778" lon="1.56189">
        <ele>113.3</ele>
        <time>2024-12-25T14:42:44Z</time>
      </trkpt>
      <trkpt lat="44.79779" lon="1.56188">
        <ele>113.3</ele>
        <time>2024-12-25T14:42:45Z</time>
      </trkpt>
      <trkpt lat="44.79779" lon="1.56187">
        <ele>113.3</ele>
        <time>2024-12-25T14:42:46Z</time>
      </trkpt>
      <trkpt lat="44.7978" lon="1.56184">
        <ele>113.3</ele>
        <time>2024-12-25T14:42:47Z</time>
      </trkpt>
      <trkpt lat="44.79781" lon="1.56183">
        <ele>113.3</ele>
        <time>2024-12-25T14:42:48Z</time>
      </trkpt>
      <trkpt lat="44.79781" lon="1.56182">
        <ele>113.3</ele>
        <time>2024-12-25T14:42:49Z</time>
      </trkpt>
      <trkpt lat="44.79783" lon="1.5618">
        <ele>113.3</ele>
        <time>2024-12-25T14:42:50Z</time>
      </trkpt>
      <trkpt lat="44.79784" lon="1.56178">
        <ele>113.3</ele>
        <time>2024-12-25T14:42:51Z</time>
      </trkpt>
      <trkpt lat="44.79784" lon="1.56176">
        <ele>113.3</ele>
        <time>2024-12-25T14:42:53Z</time>
      </trkpt>
      <trkpt lat="44.79785" lon="1.56175">
        <ele>113.3</ele>
        <time>2024-12-25T14:42:54Z</time>
      </trkpt>
      <trkpt lat="44.79786" lon="1.56171">
        <ele>113.3</ele>
        <time>2024-12-25T14:42:55Z</time>
      </trkpt>
      <trkpt lat="44.79787" lon="1.5617">
        <ele>113.3</ele>
        <time>2024-12-25T14:42:56Z</time>
      </trkpt>
      <trkpt lat="44.79788" lon="1.56168">
        <ele>113.3</ele>
        <time>2024-12-25T14:42:58Z</time>
      </trkpt>
      <trkpt lat="44.79788" lon="1.56167">
        <ele>113.4</ele>
        <time>2024-12-25T14:42:59Z</time>
      </trkpt>
      <trkpt lat="44.7979" lon="1.56165">
        <ele>113.4</ele>
        <time>2024-12-25T14:43:00Z</time>
      </trkpt>
      <trkpt lat="44.79791" lon="1.56164">
        <ele>113.4</ele>
        <time>2024-12-25T14:43:01Z</time>
      </trkpt>
      <trkpt lat="44.79792" lon="1.56162">
        <ele>113.4</ele>
        <time>2024-12-25T14:43:02Z</time>
      </trkpt>
      <trkpt lat="44.79793" lon="1.56161">
        <ele>113.4</ele>
        <time>2024-12-25T14:43:03Z</time>
      </trkpt>
      <trkpt lat="44.79793" lon="1.56161">
        <ele>113.4</ele>
        <time>2024-12-25T14:43:04Z</time>
      </trkpt>
      <trkpt lat="44.79794" lon="1.56159">
        <ele>113.4</ele>
        <time>2024-12-25T14:43:05Z</time>
      </trkpt>
      <trkpt lat="44.79796" lon="1.56158">
        <ele>113.4</ele>
        <time>2024-12-25T14:43:06Z</time>
      </trkpt>
      <trkpt lat="44.79796" lon="1.56156">
        <ele>113.4</ele>
        <time>2024-12-25T14:43:07Z</time>
      </trkpt>
      <trkpt lat="44.79797" lon="1.56155">
        <ele>113.4</ele>
        <time>2024-12-25T14:43:08Z</time>
      </trkpt>
      <trkpt lat="44.79798" lon="1.56154">
        <ele>113.4</ele>
        <time>2024-12-25T14:43:09Z</time>
      </trkpt>
      <trkpt lat="44.79799" lon="1.56153">
        <ele>113.4</ele>
        <time>2024-12-25T14:43:10Z</time>
      </trkpt>
      <trkpt lat="44.798" lon="1.56149">
        <ele>113.4</ele>
        <time>2024-12-25T14:43:11Z</time>
      </trkpt>
      <trkpt lat="44.79802" lon="1.56147">
        <ele>113.4</ele>
        <time>2024-12-25T14:43:13Z</time>
      </trkpt>
      <trkpt lat="44.79802" lon="1.56147">
        <ele>113.4</ele>
        <time>2024-12-25T14:43:14Z</time>
      </trkpt>
      <trkpt lat="44.79803" lon="1.56145">
        <ele>113.4</ele>
        <time>2024-12-25T14:43:15Z</time>
      </trkpt>
      <trkpt lat="44.79805" lon="1.56144">
        <ele>113.4</ele>
        <time>2024-12-25T14:43:16Z</time>
      </trkpt>
      <trkpt lat="44.79807" lon="1.56142">
        <ele>113.4</ele>
        <time>2024-12-25T14:43:17Z</time>
      </trkpt>
      <trkpt lat="44.79807" lon="1.56142">
        <ele>113.4</ele>
        <time>2024-12-25T14:43:18Z</time>
      </trkpt>
      <trkpt lat="44.79808" lon="1.56141">
        <ele>113.4</ele>
        <time>2024-12-25T14:43:19Z</time>
      </trkpt>
      <trkpt lat="44.7981" lon="1.56139">
        <ele>113.5</ele>
        <time>2024-12-25T14:43:20Z</time>
      </trkpt>
      <trkpt lat="44.79811" lon="1.56138">
        <ele>113.5</ele>
        <time>2024-12-25T14:43:22Z</time>
      </trkpt>
      <trkpt lat="44.79813" lon="1.56137">
        <ele>113.5</ele>
        <time>2024-12-25T14:43:23Z</time>
      </trkpt>
      <trkpt lat="44.79814" lon="1.56137">
        <ele>113.5</ele>
        <time>2024-12-25T14:43:24Z</time>
      </trkpt>
      <trkpt lat="44.79816" lon="1.56134">
        <ele>113.5</ele>
        <time>2024-12-25T14:43:25Z</time>
      </trkpt>
      <trkpt lat="44.79819" lon="1.56132">
        <ele>113.4</ele>
        <time>2024-12-25T14:43:27Z</time>
      </trkpt>
      <trkpt lat="44.7982" lon="1.5613">
        <ele>113.4</ele>
        <time>2024-12-25T14:43:28Z</time>
      </trkpt>
      <trkpt lat="44.79821" lon="1.56129">
        <ele>113.4</ele>
        <time>2024-12-25T14:43:29Z</time>
      </trkpt>
      <trkpt lat="44.79822" lon="1.56128">
        <ele>113.4</ele>
        <time>2024-12-25T14:43:30Z</time>
      </trkpt>
      <trkpt lat="44.79822" lon="1.56127">
        <ele>113.4</ele>
        <time>2024-12-25T14:43:32Z</time>
      </trkpt>
      <trkpt lat="44.79824" lon="1.56127">
        <ele>113.4</ele>
        <time>2024-12-25T14:43:33Z</time>
      </trkpt>
      <trkpt lat="44.79825" lon="1.56126">
        <ele>113.4</ele>
        <time>2024-12-25T14:43:34Z</time>
      </trkpt>
      <trkpt lat="44.79827" lon="1.56123">
        <ele>113.4</ele>
        <time>2024-12-25T14:43:35Z</time>
      </trkpt>
      <trkpt lat="44.79828" lon="1.56121">
        <ele>113.4</ele>
        <time>2024-12-25T14:43:37Z</time>
      </trkpt>
      <trkpt lat="44.79829" lon="1.56121">
        <ele>113.4</ele>
        <time>2024-12-25T14:43:38Z</time>
      </trkpt>
      <trkpt lat="44.7983" lon="1.5612">
        <ele>113.4</ele>
        <time>2024-12-25T14:43:39Z</time>
      </trkpt>
      <trkpt lat="44.79831" lon="1.56119">
        <ele>113.4</ele>
        <time>2024-12-25T14:43:40Z</time>
      </trkpt>
      <trkpt lat="44.79833" lon="1.56118">
        <ele>113.3</ele>
        <time>2024-12-25T14:43:41Z</time>
      </trkpt>
      <trkpt lat="44.79834" lon="1.56117">
        <ele>113.3</ele>
        <time>2024-12-25T14:43:42Z</time>
      </trkpt>
      <trkpt lat="44.79835" lon="1.56116">
        <ele>113.3</ele>
        <time>2024-12-25T14:43:43Z</time>
      </trkpt>
      <trkpt lat="44.79837" lon="1.56114">
        <ele>113.3</ele>
        <time>2024-12-25T14:43:44Z</time>
      </trkpt>
      <trkpt lat="44.79838" lon="1.56112">
        <ele>113.2</ele>
        <time>2024-12-25T14:43:45Z</time>
      </trkpt>
      <trkpt lat="44.79839" lon="1.56111">
        <ele>113.2</ele>
        <time>2024-12-25T14:43:46Z</time>
      </trkpt>
      <trkpt lat="44.7984" lon="1.56111">
        <ele>113.2</ele>
        <time>2024-12-25T14:43:47Z</time>
      </trkpt>
      <trkpt lat="44.79841" lon="1.5611">
        <ele>113.2</ele>
        <time>2024-12-25T14:43:48Z</time>
      </trkpt>
      <trkpt lat="44.79842" lon="1.56108">
        <ele>113.1</ele>
        <time>2024-12-25T14:43:49Z</time>
      </trkpt>
      <trkpt lat="44.79844" lon="1.56107">
        <ele>113.1</ele>
        <time>2024-12-25T14:43:50Z</time>
      </trkpt>
      <trkpt lat="44.79845" lon="1.56106">
        <ele>113</ele>
        <time>2024-12-25T14:43:52Z</time>
      </trkpt>
      <trkpt lat="44.79846" lon="1.56104">
        <ele>113</ele>
        <time>2024-12-25T14:43:53Z</time>
      </trkpt>
      <trkpt lat="44.79846" lon="1.56103">
        <ele>113</ele>
        <time>2024-12-25T14:43:54Z</time>
      </trkpt>
      <trkpt lat="44.79847" lon="1.56102">
        <ele>112.9</ele>
        <time>2024-12-25T14:43:55Z</time>
      </trkpt>
      <trkpt lat="44.79848" lon="1.56099">
        <ele>112.9</ele>
        <time>2024-12-25T14:43:56Z</time>
      </trkpt>
      <trkpt lat="44.79849" lon="1.56097">
        <ele>112.8</ele>
        <time>2024-12-25T14:43:58Z</time>
      </trkpt>
      <trkpt lat="44.7985" lon="1.56096">
        <ele>112.8</ele>
        <time>2024-12-25T14:43:59Z</time>
      </trkpt>
      <trkpt lat="44.79851" lon="1.56094">
        <ele>112.8</ele>
        <time>2024-12-25T14:44:00Z</time>
      </trkpt>
      <trkpt lat="44.79854" lon="1.56092">
        <ele>112.7</ele>
        <time>2024-12-25T14:44:01Z</time>
      </trkpt>
      <trkpt lat="44.79855" lon="1.56092">
        <ele>112.6</ele>
        <time>2024-12-25T14:44:02Z</time>
      </trkpt>
      <trkpt lat="44.79856" lon="1.56091">
        <ele>112.6</ele>
        <time>2024-12-25T14:44:03Z</time>
      </trkpt>
      <trkpt lat="44.79858" lon="1.5609">
        <ele>112.5</ele>
        <time>2024-12-25T14:44:04Z</time>
      </trkpt>
      <trkpt lat="44.7986" lon="1.56089">
        <ele>112.5</ele>
        <time>2024-12-25T14:44:05Z</time>
      </trkpt>
      <trkpt lat="44.79861" lon="1.56088">
        <ele>112.4</ele>
        <time>2024-12-25T14:44:06Z</time>
      </trkpt>
      <trkpt lat="44.79864" lon="1.56087">
        <ele>112.3</ele>
        <time>2024-12-25T14:44:07Z</time>
      </trkpt>
      <trkpt lat="44.79866" lon="1.56085">
        <ele>112.3</ele>
        <time>2024-12-25T14:44:09Z</time>
      </trkpt>
      <trkpt lat="44.79867" lon="1.56084">
        <ele>112.2</ele>
        <time>2024-12-25T14:44:10Z</time>
      </trkpt>
      <trkpt lat="44.79867" lon="1.56084">
        <ele>112.2</ele>
        <time>2024-12-25T14:44:11Z</time>
      </trkpt>
      <trkpt lat="44.79869" lon="1.56082">
        <ele>112.2</ele>
        <time>2024-12-25T14:44:12Z</time>
      </trkpt>
      <trkpt lat="44.7987" lon="1.56081">
        <ele>112.1</ele>
        <time>2024-12-25T14:44:13Z</time>
      </trkpt>
      <trkpt lat="44.79872" lon="1.56079">
        <ele>112</ele>
        <time>2024-12-25T14:44:14Z</time>
      </trkpt>
      <trkpt lat="44.79873" lon="1.56079">
        <ele>112</ele>
        <time>2024-12-25T14:44:15Z</time>
      </trkpt>
      <trkpt lat="44.79873" lon="1.56078">
        <ele>112</ele>
        <time>2024-12-25T14:44:16Z</time>
      </trkpt>
      <trkpt lat="44.79874" lon="1.56077">
        <ele>112</ele>
        <time>2024-12-25T14:44:17Z</time>
      </trkpt>
      <trkpt lat="44.79876" lon="1.56077">
        <ele>111.9</ele>
        <time>2024-12-25T14:44:18Z</time>
      </trkpt>
      <trkpt lat="44.79878" lon="1.56076">
        <ele>111.9</ele>
        <time>2024-12-25T14:44:19Z</time>
      </trkpt>
      <trkpt lat="44.79878" lon="1.56075">
        <ele>111.8</ele>
        <time>2024-12-25T14:44:20Z</time>
      </trkpt>
      <trkpt lat="44.79881" lon="1.56072">
        <ele>111.7</ele>
        <time>2024-12-25T14:44:21Z</time>
      </trkpt>
      <trkpt lat="44.79881" lon="1.56071">
        <ele>111.7</ele>
        <time>2024-12-25T14:44:22Z</time>
      </trkpt>
      <trkpt lat="44.79884" lon="1.56069">
        <ele>111.6</ele>
        <time>2024-12-25T14:44:23Z</time>
      </trkpt>
      <trkpt lat="44.79885" lon="1.56068">
        <ele>111.6</ele>
        <time>2024-12-25T14:44:25Z</time>
      </trkpt>
      <trkpt lat="44.79885" lon="1.56068">
        <ele>111.5</ele>
        <time>2024-12-25T14:44:26Z</time>
      </trkpt>
      <trkpt lat="44.79886" lon="1.56066">
        <ele>111.5</ele>
        <time>2024-12-25T14:44:27Z</time>
      </trkpt>
      <trkpt lat="44.79887" lon="1.56064">
        <ele>111.5</ele>
        <time>2024-12-25T14:44:28Z</time>
      </trkpt>
      <trkpt lat="44.79887" lon="1.56063">
        <ele>111.4</ele>
        <time>2024-12-25T14:44:29Z</time>
      </trkpt>
      <trkpt lat="44.79888" lon="1.56061">
        <ele>111.4</ele>
        <time>2024-12-25T14:44:30Z</time>
      </trkpt>
      <trkpt lat="44.79888" lon="1.5606">
        <ele>111.4</ele>
        <time>2024-12-25T14:44:31Z</time>
      </trkpt>
      <trkpt lat="44.79888" lon="1.5606">
        <ele>111.4</ele>
        <time>2024-12-25T14:44:32Z</time>
      </trkpt>
      <trkpt lat="44.79888" lon="1.5606">
        <ele>111.4</ele>
        <time>2024-12-25T14:44:33Z</time>
      </trkpt>
      <trkpt lat="44.79888" lon="1.56059">
        <ele>111.4</ele>
        <time>2024-12-25T14:44:34Z</time>
      </trkpt>
      <trkpt lat="44.79888" lon="1.56059">
        <ele>111.3</ele>
        <time>2024-12-25T14:44:35Z</time>
      </trkpt>
      <trkpt lat="44.79888" lon="1.56059">
        <ele>111.3</ele>
        <time>2024-12-25T14:44:36Z</time>
      </trkpt>
      <trkpt lat="44.79889" lon="1.56058">
        <ele>111.3</ele>
        <time>2024-12-25T14:44:37Z</time>
      </trkpt>
      <trkpt lat="44.79889" lon="1.56058">
        <ele>111.3</ele>
        <time>2024-12-25T14:44:38Z</time>
      </trkpt>
      <trkpt lat="44.79889" lon="1.56058">
        <ele>111.3</ele>
        <time>2024-12-25T14:44:39Z</time>
      </trkpt>
      <trkpt lat="44.79892" lon="1.56055">
        <ele>111.2</ele>
        <time>2024-12-25T14:44:40Z</time>
      </trkpt>
      <trkpt lat="44.79893" lon="1.56054">
        <ele>111.2</ele>
        <time>2024-12-25T14:44:41Z</time>
      </trkpt>
      <trkpt lat="44.79895" lon="1.56052">
        <ele>111.2</ele>
        <time>2024-12-25T14:44:42Z</time>
      </trkpt>
      <trkpt lat="44.79896" lon="1.5605">
        <ele>111.1</ele>
        <time>2024-12-25T14:44:43Z</time>
      </trkpt>
      <trkpt lat="44.79897" lon="1.56048">
        <ele>111.1</ele>
        <time>2024-12-25T14:44:44Z</time>
      </trkpt>
      <trkpt lat="44.79898" lon="1.56048">
        <ele>111.1</ele>
        <time>2024-12-25T14:44:45Z</time>
      </trkpt>
      <trkpt lat="44.79899" lon="1.56046">
        <ele>111.1</ele>
        <time>2024-12-25T14:44:46Z</time>
      </trkpt>
      <trkpt lat="44.799" lon="1.56045">
        <ele>111.1</ele>
        <time>2024-12-25T14:44:47Z</time>
      </trkpt>
      <trkpt lat="44.79902" lon="1.56043">
        <ele>111</ele>
        <time>2024-12-25T14:44:48Z</time>
      </trkpt>
      <trkpt lat="44.79902" lon="1.56042">
        <ele>111</ele>
        <time>2024-12-25T14:44:49Z</time>
      </trkpt>
      <trkpt lat="44.79902" lon="1.56041">
        <ele>111</ele>
        <time>2024-12-25T14:44:50Z</time>
      </trkpt>
      <trkpt lat="44.79903" lon="1.5604">
        <ele>111</ele>
        <time>2024-12-25T14:44:51Z</time>
      </trkpt>
      <trkpt lat="44.79904" lon="1.56039">
        <ele>111</ele>
        <time>2024-12-25T14:44:52Z</time>
      </trkpt>
      <trkpt lat="44.79905" lon="1.56037">
        <ele>111</ele>
        <time>2024-12-25T14:44:53Z</time>
      </trkpt>
      <trkpt lat="44.79906" lon="1.56035">
        <ele>111</ele>
        <time>2024-12-25T14:44:54Z</time>
      </trkpt>
      <trkpt lat="44.79907" lon="1.56034">
        <ele>111</ele>
        <time>2024-12-25T14:44:55Z</time>
      </trkpt>
      <trkpt lat="44.79907" lon="1.56033">
        <ele>111</ele>
        <time>2024-12-25T14:44:56Z</time>
      </trkpt>
      <trkpt lat="44.79909" lon="1.56032">
        <ele>111</ele>
        <time>2024-12-25T14:44:57Z</time>
      </trkpt>
      <trkpt lat="44.79909" lon="1.5603">
        <ele>111</ele>
        <time>2024-12-25T14:44:58Z</time>
      </trkpt>
      <trkpt lat="44.7991" lon="1.56029">
        <ele>111</ele>
        <time>2024-12-25T14:44:59Z</time>
      </trkpt>
      <trkpt lat="44.79911" lon="1.56027">
        <ele>111</ele>
        <time>2024-12-25T14:45:00Z</time>
      </trkpt>
      <trkpt lat="44.79913" lon="1.56025">
        <ele>111.1</ele>
        <time>2024-12-25T14:45:01Z</time>
      </trkpt>
      <trkpt lat="44.79914" lon="1.56024">
        <ele>111.1</ele>
        <time>2024-12-25T14:45:03Z</time>
      </trkpt>
      <trkpt lat="44.79914" lon="1.56024">
        <ele>111.1</ele>
        <time>2024-12-25T14:45:04Z</time>
      </trkpt>
      <trkpt lat="44.79916" lon="1.56022">
        <ele>111.1</ele>
        <time>2024-12-25T14:45:05Z</time>
      </trkpt>
      <trkpt lat="44.79917" lon="1.56021">
        <ele>111.1</ele>
        <time>2024-12-25T14:45:07Z</time>
      </trkpt>
      <trkpt lat="44.79918" lon="1.56021">
        <ele>111.1</ele>
        <time>2024-12-25T14:45:08Z</time>
      </trkpt>
      <trkpt lat="44.7992" lon="1.5602">
        <ele>111.1</ele>
        <time>2024-12-25T14:45:09Z</time>
      </trkpt>
      <trkpt lat="44.79922" lon="1.5602">
        <ele>111</ele>
        <time>2024-12-25T14:45:11Z</time>
      </trkpt>
      <trkpt lat="44.79923" lon="1.5602">
        <ele>111</ele>
        <time>2024-12-25T14:45:12Z</time>
      </trkpt>
      <trkpt lat="44.79925" lon="1.5602">
        <ele>111</ele>
        <time>2024-12-25T14:45:13Z</time>
      </trkpt>
      <trkpt lat="44.79927" lon="1.5602">
        <ele>111</ele>
        <time>2024-12-25T14:45:14Z</time>
      </trkpt>
      <trkpt lat="44.79928" lon="1.56022">
        <ele>111</ele>
        <time>2024-12-25T14:45:15Z</time>
      </trkpt>
      <trkpt lat="44.79929" lon="1.56022">
        <ele>111</ele>
        <time>2024-12-25T14:45:16Z</time>
      </trkpt>
      <trkpt lat="44.79929" lon="1.56023">
        <ele>110.9</ele>
        <time>2024-12-25T14:45:17Z</time>
      </trkpt>
      <trkpt lat="44.79932" lon="1.56026">
        <ele>110.9</ele>
        <time>2024-12-25T14:45:18Z</time>
      </trkpt>
      <trkpt lat="44.79934" lon="1.56028">
        <ele>110.9</ele>
        <time>2024-12-25T14:45:20Z</time>
      </trkpt>
      <trkpt lat="44.79935" lon="1.56029">
        <ele>110.9</ele>
        <time>2024-12-25T14:45:21Z</time>
      </trkpt>
      <trkpt lat="44.79936" lon="1.5603">
        <ele>110.9</ele>
        <time>2024-12-25T14:45:22Z</time>
      </trkpt>
      <trkpt lat="44.79937" lon="1.56031">
        <ele>110.8</ele>
        <time>2024-12-25T14:45:23Z</time>
      </trkpt>
      <trkpt lat="44.79937" lon="1.56033">
        <ele>110.8</ele>
        <time>2024-12-25T14:45:24Z</time>
      </trkpt>
      <trkpt lat="44.79939" lon="1.56035">
        <ele>110.8</ele>
        <time>2024-12-25T14:45:25Z</time>
      </trkpt>
      <trkpt lat="44.79939" lon="1.56036">
        <ele>110.8</ele>
        <time>2024-12-25T14:45:26Z</time>
      </trkpt>
      <trkpt lat="44.7994" lon="1.56037">
        <ele>110.8</ele>
        <time>2024-12-25T14:45:27Z</time>
      </trkpt>
      <trkpt lat="44.79942" lon="1.5604">
        <ele>110.8</ele>
        <time>2024-12-25T14:45:28Z</time>
      </trkpt>
      <trkpt lat="44.79943" lon="1.56043">
        <ele>110.8</ele>
        <time>2024-12-25T14:45:30Z</time>
      </trkpt>
      <trkpt lat="44.79943" lon="1.56044">
        <ele>110.8</ele>
        <time>2024-12-25T14:45:31Z</time>
      </trkpt>
      <trkpt lat="44.79943" lon="1.56045">
        <ele>110.8</ele>
        <time>2024-12-25T14:45:32Z</time>
      </trkpt>
      <trkpt lat="44.79944" lon="1.56047">
        <ele>110.8</ele>
        <time>2024-12-25T14:45:33Z</time>
      </trkpt>
      <trkpt lat="44.79945" lon="1.56049">
        <ele>110.8</ele>
        <time>2024-12-25T14:45:34Z</time>
      </trkpt>
      <trkpt lat="44.79945" lon="1.56051">
        <ele>110.8</ele>
        <time>2024-12-25T14:45:35Z</time>
      </trkpt>
      <trkpt lat="44.79947" lon="1.56053">
        <ele>110.8</ele>
        <time>2024-12-25T14:45:36Z</time>
      </trkpt>
      <trkpt lat="44.79948" lon="1.56055">
        <ele>110.8</ele>
        <time>2024-12-25T14:45:37Z</time>
      </trkpt>
      <trkpt lat="44.79948" lon="1.56056">
        <ele>110.8</ele>
        <time>2024-12-25T14:45:38Z</time>
      </trkpt>
      <trkpt lat="44.79949" lon="1.56057">
        <ele>110.8</ele>
        <time>2024-12-25T14:45:39Z</time>
      </trkpt>
      <trkpt lat="44.7995" lon="1.56061">
        <ele>110.8</ele>
        <time>2024-12-25T14:45:40Z</time>
      </trkpt>
      <trkpt lat="44.79951" lon="1.56062">
        <ele>110.8</ele>
        <time>2024-12-25T14:45:41Z</time>
      </trkpt>
      <trkpt lat="44.79952" lon="1.56064">
        <ele>110.8</ele>
        <time>2024-12-25T14:45:43Z</time>
      </trkpt>
      <trkpt lat="44.79953" lon="1.56065">
        <ele>110.8</ele>
        <time>2024-12-25T14:45:44Z</time>
      </trkpt>
      <trkpt lat="44.79954" lon="1.56067">
        <ele>110.9</ele>
        <time>2024-12-25T14:45:45Z</time>
      </trkpt>
      <trkpt lat="44.79955" lon="1.56069">
        <ele>110.9</ele>
        <time>2024-12-25T14:45:46Z</time>
      </trkpt>
      <trkpt lat="44.79956" lon="1.56071">
        <ele>110.9</ele>
        <time>2024-12-25T14:45:47Z</time>
      </trkpt>
      <trkpt lat="44.79956" lon="1.56072">
        <ele>110.9</ele>
        <time>2024-12-25T14:45:48Z</time>
      </trkpt>
      <trkpt lat="44.79957" lon="1.56074">
        <ele>110.9</ele>
        <time>2024-12-25T14:45:49Z</time>
      </trkpt>
      <trkpt lat="44.79958" lon="1.56075">
        <ele>111</ele>
        <time>2024-12-25T14:45:50Z</time>
      </trkpt>
      <trkpt lat="44.79959" lon="1.56076">
        <ele>111</ele>
        <time>2024-12-25T14:45:51Z</time>
      </trkpt>
      <trkpt lat="44.79961" lon="1.56078">
        <ele>111.1</ele>
        <time>2024-12-25T14:45:52Z</time>
      </trkpt>
      <trkpt lat="44.79962" lon="1.56079">
        <ele>111.1</ele>
        <time>2024-12-25T14:45:53Z</time>
      </trkpt>
      <trkpt lat="44.79963" lon="1.5608">
        <ele>111.1</ele>
        <time>2024-12-25T14:45:54Z</time>
      </trkpt>
      <trkpt lat="44.79965" lon="1.56081">
        <ele>111.2</ele>
        <time>2024-12-25T14:45:56Z</time>
      </trkpt>
      <trkpt lat="44.79966" lon="1.56082">
        <ele>111.2</ele>
        <time>2024-12-25T14:45:57Z</time>
      </trkpt>
      <trkpt lat="44.79967" lon="1.56082">
        <ele>111.3</ele>
        <time>2024-12-25T14:45:58Z</time>
      </trkpt>
      <trkpt lat="44.7997" lon="1.56083">
        <ele>111.4</ele>
        <time>2024-12-25T14:45:59Z</time>
      </trkpt>
      <trkpt lat="44.79972" lon="1.56084">
        <ele>111.4</ele>
        <time>2024-12-25T14:46:01Z</time>
      </trkpt>
      <trkpt lat="44.79973" lon="1.56083">
        <ele>111.5</ele>
        <time>2024-12-25T14:46:02Z</time>
      </trkpt>
      <trkpt lat="44.79975" lon="1.56083">
        <ele>111.5</ele>
        <time>2024-12-25T14:46:03Z</time>
      </trkpt>
      <trkpt lat="44.79976" lon="1.56082">
        <ele>111.6</ele>
        <time>2024-12-25T14:46:04Z</time>
      </trkpt>
      <trkpt lat="44.79978" lon="1.56081">
        <ele>111.6</ele>
        <time>2024-12-25T14:46:05Z</time>
      </trkpt>
      <trkpt lat="44.79979" lon="1.5608">
        <ele>111.7</ele>
        <time>2024-12-25T14:46:06Z</time>
      </trkpt>
      <trkpt lat="44.79981" lon="1.56078">
        <ele>111.8</ele>
        <time>2024-12-25T14:46:07Z</time>
      </trkpt>
      <trkpt lat="44.79982" lon="1.56077">
        <ele>111.8</ele>
        <time>2024-12-25T14:46:08Z</time>
      </trkpt>
      <trkpt lat="44.79983" lon="1.56076">
        <ele>111.9</ele>
        <time>2024-12-25T14:46:09Z</time>
      </trkpt>
      <trkpt lat="44.79984" lon="1.56074">
        <ele>111.9</ele>
        <time>2024-12-25T14:46:10Z</time>
      </trkpt>
      <trkpt lat="44.79986" lon="1.56071">
        <ele>112</ele>
        <time>2024-12-25T14:46:11Z</time>
      </trkpt>
      <trkpt lat="44.79987" lon="1.56069">
        <ele>112</ele>
        <time>2024-12-25T14:46:13Z</time>
      </trkpt>
      <trkpt lat="44.79988" lon="1.56068">
        <ele>112.1</ele>
        <time>2024-12-25T14:46:14Z</time>
      </trkpt>
      <trkpt lat="44.79988" lon="1.56067">
        <ele>112.1</ele>
        <time>2024-12-25T14:46:15Z</time>
      </trkpt>
      <trkpt lat="44.7999" lon="1.56066">
        <ele>112.1</ele>
        <time>2024-12-25T14:46:16Z</time>
      </trkpt>
      <trkpt lat="44.79991" lon="1.56064">
        <ele>112.1</ele>
        <time>2024-12-25T14:46:17Z</time>
      </trkpt>
      <trkpt lat="44.79991" lon="1.56063">
        <ele>112.2</ele>
        <time>2024-12-25T14:46:18Z</time>
      </trkpt>
      <trkpt lat="44.79992" lon="1.56061">
        <ele>112.2</ele>
        <time>2024-12-25T14:46:19Z</time>
      </trkpt>
      <trkpt lat="44.79994" lon="1.56057">
        <ele>112.2</ele>
        <time>2024-12-25T14:46:20Z</time>
      </trkpt>
      <trkpt lat="44.79994" lon="1.56055">
        <ele>112.2</ele>
        <time>2024-12-25T14:46:21Z</time>
      </trkpt>
      <trkpt lat="44.79995" lon="1.56053">
        <ele>112.3</ele>
        <time>2024-12-25T14:46:22Z</time>
      </trkpt>
      <trkpt lat="44.79995" lon="1.56051">
        <ele>112.3</ele>
        <time>2024-12-25T14:46:24Z</time>
      </trkpt>
      <trkpt lat="44.79996" lon="1.56049">
        <ele>112.3</ele>
        <time>2024-12-25T14:46:25Z</time>
      </trkpt>
      <trkpt lat="44.79997" lon="1.56048">
        <ele>112.3</ele>
        <time>2024-12-25T14:46:26Z</time>
      </trkpt>
      <trkpt lat="44.79998" lon="1.56045">
        <ele>112.3</ele>
        <time>2024-12-25T14:46:27Z</time>
      </trkpt>
      <trkpt lat="44.79999" lon="1.56043">
        <ele>112.3</ele>
        <time>2024-12-25T14:46:29Z</time>
      </trkpt>
      <trkpt lat="44.79999" lon="1.56041">
        <ele>112.3</ele>
        <time>2024-12-25T14:46:30Z</time>
      </trkpt>
      <trkpt lat="44.8" lon="1.56038">
        <ele>112.3</ele>
        <time>2024-12-25T14:46:31Z</time>
      </trkpt>
      <trkpt lat="44.80001" lon="1.56035">
        <ele>112.2</ele>
        <time>2024-12-25T14:46:33Z</time>
      </trkpt>
      <trkpt lat="44.80001" lon="1.56035">
        <ele>112.2</ele>
        <time>2024-12-25T14:46:34Z</time>
      </trkpt>
      <trkpt lat="44.79997" lon="1.56046">
        <ele>112.1</ele>
        <time>2024-12-25T14:46:35Z</time>
      </trkpt>
      <trkpt lat="44.79997" lon="1.56045">
        <ele>112.1</ele>
        <time>2024-12-25T14:46:36Z</time>
      </trkpt>
      <trkpt lat="44.79996" lon="1.56043">
        <ele>112.1</ele>
        <time>2024-12-25T14:46:37Z</time>
      </trkpt>
      <trkpt lat="44.79996" lon="1.56043">
        <ele>112.1</ele>
        <time>2024-12-25T14:46:39Z</time>
      </trkpt>
      <trkpt lat="44.80007" lon="1.56022">
        <ele>112.2</ele>
        <time>2024-12-25T14:46:43Z</time>
      </trkpt>
      <trkpt lat="44.80008" lon="1.56021">
        <ele>112.2</ele>
        <time>2024-12-25T14:46:44Z</time>
      </trkpt>
      <trkpt lat="44.80009" lon="1.56018">
        <ele>112.3</ele>
        <time>2024-12-25T14:46:45Z</time>
      </trkpt>
      <trkpt lat="44.8001" lon="1.56017">
        <ele>112.4</ele>
        <time>2024-12-25T14:46:46Z</time>
      </trkpt>
      <trkpt lat="44.8001" lon="1.56016">
        <ele>112.4</ele>
        <time>2024-12-25T14:46:47Z</time>
      </trkpt>
      <trkpt lat="44.80013" lon="1.56014">
        <ele>112.6</ele>
        <time>2024-12-25T14:46:48Z</time>
      </trkpt>
      <trkpt lat="44.80015" lon="1.56014">
        <ele>112.7</ele>
        <time>2024-12-25T14:46:50Z</time>
      </trkpt>
      <trkpt lat="44.80017" lon="1.56013">
        <ele>112.8</ele>
        <time>2024-12-25T14:46:51Z</time>
      </trkpt>
      <trkpt lat="44.80019" lon="1.56013">
        <ele>112.9</ele>
        <time>2024-12-25T14:46:52Z</time>
      </trkpt>
      <trkpt lat="44.8002" lon="1.56013">
        <ele>113</ele>
        <time>2024-12-25T14:46:53Z</time>
      </trkpt>
      <trkpt lat="44.80021" lon="1.56012">
        <ele>113.1</ele>
        <time>2024-12-25T14:46:55Z</time>
      </trkpt>
      <trkpt lat="44.80023" lon="1.5601">
        <ele>113.3</ele>
        <time>2024-12-25T14:46:56Z</time>
      </trkpt>
      <trkpt lat="44.80025" lon="1.5601">
        <ele>113.4</ele>
        <time>2024-12-25T14:46:58Z</time>
      </trkpt>
      <trkpt lat="44.80026" lon="1.56009">
        <ele>113.5</ele>
        <time>2024-12-25T14:46:59Z</time>
      </trkpt>
      <trkpt lat="44.80027" lon="1.56008">
        <ele>113.7</ele>
        <time>2024-12-25T14:47:00Z</time>
      </trkpt>
      <trkpt lat="44.80029" lon="1.56007">
        <ele>113.8</ele>
        <time>2024-12-25T14:47:01Z</time>
      </trkpt>
      <trkpt lat="44.8003" lon="1.56007">
        <ele>113.9</ele>
        <time>2024-12-25T14:47:02Z</time>
      </trkpt>
      <trkpt lat="44.80031" lon="1.56006">
        <ele>113.9</ele>
        <time>2024-12-25T14:47:03Z</time>
      </trkpt>
      <trkpt lat="44.80032" lon="1.56006">
        <ele>114</ele>
        <time>2024-12-25T14:47:04Z</time>
      </trkpt>
      <trkpt lat="44.80033" lon="1.56007">
        <ele>114.1</ele>
        <time>2024-12-25T14:47:05Z</time>
      </trkpt>
      <trkpt lat="44.80035" lon="1.56007">
        <ele>114.2</ele>
        <time>2024-12-25T14:47:06Z</time>
      </trkpt>
      <trkpt lat="44.80036" lon="1.56006">
        <ele>114.2</ele>
        <time>2024-12-25T14:47:07Z</time>
      </trkpt>
      <trkpt lat="44.80037" lon="1.56005">
        <ele>114.3</ele>
        <time>2024-12-25T14:47:08Z</time>
      </trkpt>
      <trkpt lat="44.80038" lon="1.56005">
        <ele>114.4</ele>
        <time>2024-12-25T14:47:10Z</time>
      </trkpt>
      <trkpt lat="44.80039" lon="1.56006">
        <ele>114.5</ele>
        <time>2024-12-25T14:47:11Z</time>
      </trkpt>
      <trkpt lat="44.8004" lon="1.56006">
        <ele>114.6</ele>
        <time>2024-12-25T14:47:12Z</time>
      </trkpt>
      <trkpt lat="44.80041" lon="1.56004">
        <ele>114.5</ele>
        <time>2024-12-25T14:47:13Z</time>
      </trkpt>
      <trkpt lat="44.80042" lon="1.56002">
        <ele>114.5</ele>
        <time>2024-12-25T14:47:14Z</time>
      </trkpt>
      <trkpt lat="44.80042" lon="1.56">
        <ele>114.5</ele>
        <time>2024-12-25T14:47:15Z</time>
      </trkpt>
      <trkpt lat="44.80043" lon="1.55999">
        <ele>114.5</ele>
        <time>2024-12-25T14:47:16Z</time>
      </trkpt>
      <trkpt lat="44.80044" lon="1.55997">
        <ele>114.5</ele>
        <time>2024-12-25T14:47:17Z</time>
      </trkpt>
      <trkpt lat="44.80045" lon="1.55996">
        <ele>114.5</ele>
        <time>2024-12-25T14:47:18Z</time>
      </trkpt>
      <trkpt lat="44.80046" lon="1.55995">
        <ele>114.5</ele>
        <time>2024-12-25T14:47:19Z</time>
      </trkpt>
      <trkpt lat="44.80046" lon="1.55992">
        <ele>114.5</ele>
        <time>2024-12-25T14:47:20Z</time>
      </trkpt>
      <trkpt lat="44.80047" lon="1.55988">
        <ele>114.5</ele>
        <time>2024-12-25T14:47:22Z</time>
      </trkpt>
      <trkpt lat="44.80047" lon="1.55987">
        <ele>114.5</ele>
        <time>2024-12-25T14:47:24Z</time>
      </trkpt>
      <trkpt lat="44.80048" lon="1.55986">
        <ele>114.5</ele>
        <time>2024-12-25T14:47:25Z</time>
      </trkpt>
      <trkpt lat="44.80049" lon="1.55985">
        <ele>114.5</ele>
        <time>2024-12-25T14:47:26Z</time>
      </trkpt>
      <trkpt lat="44.80049" lon="1.55985">
        <ele>114.5</ele>
        <time>2024-12-25T14:47:27Z</time>
      </trkpt>
      <trkpt lat="44.80049" lon="1.55987">
        <ele>114.5</ele>
        <time>2024-12-25T14:47:28Z</time>
      </trkpt>
      <trkpt lat="44.80047" lon="1.55987">
        <ele>114.5</ele>
        <time>2024-12-25T14:47:30Z</time>
      </trkpt>
      <trkpt lat="44.80056" lon="1.55986">
        <ele>114.5</ele>
        <time>2024-12-25T14:47:32Z</time>
      </trkpt>
      <trkpt lat="44.80058" lon="1.55984">
        <ele>114.5</ele>
        <time>2024-12-25T14:47:34Z</time>
      </trkpt>
      <trkpt lat="44.80059" lon="1.55985">
        <ele>114.5</ele>
        <time>2024-12-25T14:47:35Z</time>
      </trkpt>
      <trkpt lat="44.80059" lon="1.55985">
        <ele>114.5</ele>
        <time>2024-12-25T14:47:36Z</time>
      </trkpt>
      <trkpt lat="44.8006" lon="1.55986">
        <ele>114.5</ele>
        <time>2024-12-25T14:47:37Z</time>
      </trkpt>
      <trkpt lat="44.8006" lon="1.55986">
        <ele>114.5</ele>
        <time>2024-12-25T14:47:38Z</time>
      </trkpt>
      <trkpt lat="44.8006" lon="1.5599">
        <ele>114.5</ele>
        <time>2024-12-25T14:47:39Z</time>
      </trkpt>
      <trkpt lat="44.8006" lon="1.55992">
        <ele>114.4</ele>
        <time>2024-12-25T14:47:40Z</time>
      </trkpt>
      <trkpt lat="44.8006" lon="1.55993">
        <ele>114.4</ele>
        <time>2024-12-25T14:47:42Z</time>
      </trkpt>
      <trkpt lat="44.80061" lon="1.55995">
        <ele>114.4</ele>
        <time>2024-12-25T14:47:43Z</time>
      </trkpt>
      <trkpt lat="44.80062" lon="1.55982">
        <ele>114.4</ele>
        <time>2024-12-25T14:47:44Z</time>
      </trkpt>
      <trkpt lat="44.80062" lon="1.55982">
        <ele>114.4</ele>
        <time>2024-12-25T14:47:45Z</time>
      </trkpt>
      <trkpt lat="44.80062" lon="1.55983">
        <ele>114.4</ele>
        <time>2024-12-25T14:47:46Z</time>
      </trkpt>
      <trkpt lat="44.80062" lon="1.55983">
        <ele>114.4</ele>
        <time>2024-12-25T14:47:48Z</time>
      </trkpt>
      <trkpt lat="44.80062" lon="1.55981">
        <ele>114.4</ele>
        <time>2024-12-25T14:47:49Z</time>
      </trkpt>
      <trkpt lat="44.80083" lon="1.55974">
        <ele>114.5</ele>
        <time>2024-12-25T14:47:53Z</time>
      </trkpt>
      <trkpt lat="44.80084" lon="1.55974">
        <ele>114.5</ele>
        <time>2024-12-25T14:47:54Z</time>
      </trkpt>
      <trkpt lat="44.80085" lon="1.55973">
        <ele>114.5</ele>
        <time>2024-12-25T14:47:55Z</time>
      </trkpt>
      <trkpt lat="44.80086" lon="1.55972">
        <ele>114.5</ele>
        <time>2024-12-25T14:47:56Z</time>
      </trkpt>
      <trkpt lat="44.80087" lon="1.55972">
        <ele>114.5</ele>
        <time>2024-12-25T14:47:57Z</time>
      </trkpt>
      <trkpt lat="44.80089" lon="1.55971">
        <ele>114.5</ele>
        <time>2024-12-25T14:47:58Z</time>
      </trkpt>
      <trkpt lat="44.80091" lon="1.5597">
        <ele>114.5</ele>
        <time>2024-12-25T14:48:00Z</time>
      </trkpt>
      <trkpt lat="44.80093" lon="1.5597">
        <ele>114.5</ele>
        <time>2024-12-25T14:48:01Z</time>
      </trkpt>
      <trkpt lat="44.80095" lon="1.55969">
        <ele>114.5</ele>
        <time>2024-12-25T14:48:02Z</time>
      </trkpt>
      <trkpt lat="44.80097" lon="1.55969">
        <ele>114.5</ele>
        <time>2024-12-25T14:48:04Z</time>
      </trkpt>
      <trkpt lat="44.80098" lon="1.55968">
        <ele>114.5</ele>
        <time>2024-12-25T14:48:05Z</time>
      </trkpt>
      <trkpt lat="44.80099" lon="1.55967">
        <ele>114.5</ele>
        <time>2024-12-25T14:48:06Z</time>
      </trkpt>
      <trkpt lat="44.80101" lon="1.55966">
        <ele>114.5</ele>
        <time>2024-12-25T14:48:07Z</time>
      </trkpt>
      <trkpt lat="44.80102" lon="1.55965">
        <ele>114.5</ele>
        <time>2024-12-25T14:48:08Z</time>
      </trkpt>
      <trkpt lat="44.80103" lon="1.55965">
        <ele>114.5</ele>
        <time>2024-12-25T14:48:09Z</time>
      </trkpt>
      <trkpt lat="44.80104" lon="1.55965">
        <ele>114.5</ele>
        <time>2024-12-25T14:48:10Z</time>
      </trkpt>
      <trkpt lat="44.80106" lon="1.55965">
        <ele>114.5</ele>
        <time>2024-12-25T14:48:11Z</time>
      </trkpt>
      <trkpt lat="44.80109" lon="1.55965">
        <ele>114.5</ele>
        <time>2024-12-25T14:48:12Z</time>
      </trkpt>
      <trkpt lat="44.8011" lon="1.55965">
        <ele>114.5</ele>
        <time>2024-12-25T14:48:13Z</time>
      </trkpt>
      <trkpt lat="44.80111" lon="1.55964">
        <ele>114.5</ele>
        <time>2024-12-25T14:48:14Z</time>
      </trkpt>
      <trkpt lat="44.80112" lon="1.55963">
        <ele>114.5</ele>
        <time>2024-12-25T14:48:16Z</time>
      </trkpt>
      <trkpt lat="44.80113" lon="1.55961">
        <ele>114.5</ele>
        <time>2024-12-25T14:48:17Z</time>
      </trkpt>
      <trkpt lat="44.80114" lon="1.55959">
        <ele>114.5</ele>
        <time>2024-12-25T14:48:18Z</time>
      </trkpt>
      <trkpt lat="44.80116" lon="1.55958">
        <ele>114.5</ele>
        <time>2024-12-25T14:48:19Z</time>
      </trkpt>
      <trkpt lat="44.80117" lon="1.55958">
        <ele>114.5</ele>
        <time>2024-12-25T14:48:20Z</time>
      </trkpt>
      <trkpt lat="44.80117" lon="1.55957">
        <ele>114.5</ele>
        <time>2024-12-25T14:48:21Z</time>
      </trkpt>
      <trkpt lat="44.80118" lon="1.55957">
        <ele>114.5</ele>
        <time>2024-12-25T14:48:22Z</time>
      </trkpt>
      <trkpt lat="44.80119" lon="1.55956">
        <ele>114.5</ele>
        <time>2024-12-25T14:48:23Z</time>
      </trkpt>
      <trkpt lat="44.8012" lon="1.55955">
        <ele>114.5</ele>
        <time>2024-12-25T14:48:24Z</time>
      </trkpt>
      <trkpt lat="44.80121" lon="1.55954">
        <ele>114.5</ele>
        <time>2024-12-25T14:48:25Z</time>
      </trkpt>
      <trkpt lat="44.80123" lon="1.55953">
        <ele>114.5</ele>
        <time>2024-12-25T14:48:27Z</time>
      </trkpt>
      <trkpt lat="44.80124" lon="1.55952">
        <ele>114.5</ele>
        <time>2024-12-25T14:48:28Z</time>
      </trkpt>
      <trkpt lat="44.80125" lon="1.55952">
        <ele>114.5</ele>
        <time>2024-12-25T14:48:29Z</time>
      </trkpt>
      <trkpt lat="44.80127" lon="1.55951">
        <ele>114.5</ele>
        <time>2024-12-25T14:48:30Z</time>
      </trkpt>
      <trkpt lat="44.80128" lon="1.55949">
        <ele>114.5</ele>
        <time>2024-12-25T14:48:31Z</time>
      </trkpt>
      <trkpt lat="44.80129" lon="1.55948">
        <ele>114.5</ele>
        <time>2024-12-25T14:48:32Z</time>
      </trkpt>
      <trkpt lat="44.80131" lon="1.55947">
        <ele>114.5</ele>
        <time>2024-12-25T14:48:33Z</time>
      </trkpt>
      <trkpt lat="44.80132" lon="1.55947">
        <ele>114.5</ele>
        <time>2024-12-25T14:48:34Z</time>
      </trkpt>
      <trkpt lat="44.80134" lon="1.55948">
        <ele>114.5</ele>
        <time>2024-12-25T14:48:35Z</time>
      </trkpt>
      <trkpt lat="44.80139" lon="1.55944">
        <ele>114.4</ele>
        <time>2024-12-25T14:48:36Z</time>
      </trkpt>
      <trkpt lat="44.8014" lon="1.55942">
        <ele>114.4</ele>
        <time>2024-12-25T14:48:38Z</time>
      </trkpt>
      <trkpt lat="44.80141" lon="1.55941">
        <ele>114.4</ele>
        <time>2024-12-25T14:48:39Z</time>
      </trkpt>
      <trkpt lat="44.80142" lon="1.5594">
        <ele>114.4</ele>
        <time>2024-12-25T14:48:40Z</time>
      </trkpt>
      <trkpt lat="44.80143" lon="1.55939">
        <ele>114.4</ele>
        <time>2024-12-25T14:48:41Z</time>
      </trkpt>
      <trkpt lat="44.80145" lon="1.55937">
        <ele>114.4</ele>
        <time>2024-12-25T14:48:42Z</time>
      </trkpt>
      <trkpt lat="44.80146" lon="1.55936">
        <ele>114.4</ele>
        <time>2024-12-25T14:48:44Z</time>
      </trkpt>
      <trkpt lat="44.80148" lon="1.55935">
        <ele>114.4</ele>
        <time>2024-12-25T14:48:45Z</time>
      </trkpt>
      <trkpt lat="44.80149" lon="1.55935">
        <ele>114.4</ele>
        <time>2024-12-25T14:48:46Z</time>
      </trkpt>
      <trkpt lat="44.80151" lon="1.55934">
        <ele>114.4</ele>
        <time>2024-12-25T14:48:47Z</time>
      </trkpt>
      <trkpt lat="44.80152" lon="1.55933">
        <ele>114.4</ele>
        <time>2024-12-25T14:48:48Z</time>
      </trkpt>
      <trkpt lat="44.80153" lon="1.55932">
        <ele>114.4</ele>
        <time>2024-12-25T14:48:49Z</time>
      </trkpt>
      <trkpt lat="44.80155" lon="1.55931">
        <ele>114.4</ele>
        <time>2024-12-25T14:48:50Z</time>
      </trkpt>
      <trkpt lat="44.80156" lon="1.5593">
        <ele>114.3</ele>
        <time>2024-12-25T14:48:51Z</time>
      </trkpt>
      <trkpt lat="44.80157" lon="1.5593">
        <ele>114.3</ele>
        <time>2024-12-25T14:48:52Z</time>
      </trkpt>
      <trkpt lat="44.80159" lon="1.55928">
        <ele>114.3</ele>
        <time>2024-12-25T14:48:53Z</time>
      </trkpt>
      <trkpt lat="44.80156" lon="1.55931">
        <ele>114.3</ele>
        <time>2024-12-25T14:48:55Z</time>
      </trkpt>
      <trkpt lat="44.80151" lon="1.55934">
        <ele>114.3</ele>
        <time>2024-12-25T14:48:56Z</time>
      </trkpt>
      <trkpt lat="44.80151" lon="1.55933">
        <ele>114.3</ele>
        <time>2024-12-25T14:48:57Z</time>
      </trkpt>
      <trkpt lat="44.80152" lon="1.5593">
        <ele>114.3</ele>
        <time>2024-12-25T14:48:58Z</time>
      </trkpt>
      <trkpt lat="44.80169" lon="1.55921">
        <ele>114.4</ele>
        <time>2024-12-25T14:49:03Z</time>
      </trkpt>
      <trkpt lat="44.8017" lon="1.5592">
        <ele>114.4</ele>
        <time>2024-12-25T14:49:04Z</time>
      </trkpt>
      <trkpt lat="44.80171" lon="1.5592">
        <ele>114.4</ele>
        <time>2024-12-25T14:49:05Z</time>
      </trkpt>
      <trkpt lat="44.80173" lon="1.55919">
        <ele>114.4</ele>
        <time>2024-12-25T14:49:06Z</time>
      </trkpt>
      <trkpt lat="44.80174" lon="1.55918">
        <ele>114.4</ele>
        <time>2024-12-25T14:49:07Z</time>
      </trkpt>
      <trkpt lat="44.80176" lon="1.55917">
        <ele>114.4</ele>
        <time>2024-12-25T14:49:08Z</time>
      </trkpt>
      <trkpt lat="44.80178" lon="1.55916">
        <ele>114.4</ele>
        <time>2024-12-25T14:49:09Z</time>
      </trkpt>
      <trkpt lat="44.80179" lon="1.55914">
        <ele>114.4</ele>
        <time>2024-12-25T14:49:10Z</time>
      </trkpt>
      <trkpt lat="44.8018" lon="1.55914">
        <ele>114.4</ele>
        <time>2024-12-25T14:49:12Z</time>
      </trkpt>
      <trkpt lat="44.80181" lon="1.55914">
        <ele>114.4</ele>
        <time>2024-12-25T14:49:13Z</time>
      </trkpt>
      <trkpt lat="44.80183" lon="1.55912">
        <ele>114.4</ele>
        <time>2024-12-25T14:49:14Z</time>
      </trkpt>
      <trkpt lat="44.80184" lon="1.55911">
        <ele>114.4</ele>
        <time>2024-12-25T14:49:15Z</time>
      </trkpt>
      <trkpt lat="44.80186" lon="1.5591">
        <ele>114.4</ele>
        <time>2024-12-25T14:49:16Z</time>
      </trkpt>
      <trkpt lat="44.80187" lon="1.55909">
        <ele>114.5</ele>
        <time>2024-12-25T14:49:18Z</time>
      </trkpt>
      <trkpt lat="44.80188" lon="1.55908">
        <ele>114.5</ele>
        <time>2024-12-25T14:49:19Z</time>
      </trkpt>
      <trkpt lat="44.8019" lon="1.55907">
        <ele>114.5</ele>
        <time>2024-12-25T14:49:20Z</time>
      </trkpt>
      <trkpt lat="44.80192" lon="1.55905">
        <ele>114.5</ele>
        <time>2024-12-25T14:49:21Z</time>
      </trkpt>
      <trkpt lat="44.80194" lon="1.55904">
        <ele>114.5</ele>
        <time>2024-12-25T14:49:22Z</time>
      </trkpt>
      <trkpt lat="44.80195" lon="1.55903">
        <ele>114.5</ele>
        <time>2024-12-25T14:49:24Z</time>
      </trkpt>
      <trkpt lat="44.80195" lon="1.55902">
        <ele>114.5</ele>
        <time>2024-12-25T14:49:25Z</time>
      </trkpt>
      <trkpt lat="44.80197" lon="1.55901">
        <ele>114.5</ele>
        <time>2024-12-25T14:49:26Z</time>
      </trkpt>
      <trkpt lat="44.80199" lon="1.55899">
        <ele>114.5</ele>
        <time>2024-12-25T14:49:27Z</time>
      </trkpt>
      <trkpt lat="44.802" lon="1.55898">
        <ele>114.5</ele>
        <time>2024-12-25T14:49:28Z</time>
      </trkpt>
      <trkpt lat="44.80202" lon="1.55897">
        <ele>114.5</ele>
        <time>2024-12-25T14:49:30Z</time>
      </trkpt>
      <trkpt lat="44.80203" lon="1.55897">
        <ele>114.5</ele>
        <time>2024-12-25T14:49:31Z</time>
      </trkpt>
      <trkpt lat="44.80204" lon="1.55896">
        <ele>114.5</ele>
        <time>2024-12-25T14:49:32Z</time>
      </trkpt>
      <trkpt lat="44.80207" lon="1.55894">
        <ele>114.5</ele>
        <time>2024-12-25T14:49:33Z</time>
      </trkpt>
      <trkpt lat="44.80208" lon="1.55893">
        <ele>114.5</ele>
        <time>2024-12-25T14:49:35Z</time>
      </trkpt>
      <trkpt lat="44.80209" lon="1.55892">
        <ele>114.5</ele>
        <time>2024-12-25T14:49:36Z</time>
      </trkpt>
      <trkpt lat="44.8021" lon="1.55891">
        <ele>114.5</ele>
        <time>2024-12-25T14:49:37Z</time>
      </trkpt>
      <trkpt lat="44.80212" lon="1.5589">
        <ele>114.5</ele>
        <time>2024-12-25T14:49:38Z</time>
      </trkpt>
      <trkpt lat="44.80214" lon="1.55888">
        <ele>114.6</ele>
        <time>2024-12-25T14:49:40Z</time>
      </trkpt>
      <trkpt lat="44.80215" lon="1.55888">
        <ele>114.6</ele>
        <time>2024-12-25T14:49:41Z</time>
      </trkpt>
      <trkpt lat="44.80215" lon="1.55887">
        <ele>114.6</ele>
        <time>2024-12-25T14:49:42Z</time>
      </trkpt>
      <trkpt lat="44.80218" lon="1.55885">
        <ele>114.6</ele>
        <time>2024-12-25T14:49:43Z</time>
      </trkpt>
      <trkpt lat="44.80219" lon="1.55884">
        <ele>114.6</ele>
        <time>2024-12-25T14:49:44Z</time>
      </trkpt>
      <trkpt lat="44.8022" lon="1.55884">
        <ele>114.6</ele>
        <time>2024-12-25T14:49:46Z</time>
      </trkpt>
      <trkpt lat="44.80222" lon="1.55882">
        <ele>114.6</ele>
        <time>2024-12-25T14:49:47Z</time>
      </trkpt>
      <trkpt lat="44.80223" lon="1.55881">
        <ele>114.6</ele>
        <time>2024-12-25T14:49:48Z</time>
      </trkpt>
      <trkpt lat="44.80224" lon="1.5588">
        <ele>114.7</ele>
        <time>2024-12-25T14:49:49Z</time>
      </trkpt>
      <trkpt lat="44.80226" lon="1.5588">
        <ele>114.7</ele>
        <time>2024-12-25T14:49:50Z</time>
      </trkpt>
      <trkpt lat="44.80227" lon="1.55879">
        <ele>114.7</ele>
        <time>2024-12-25T14:49:51Z</time>
      </trkpt>
      <trkpt lat="44.8023" lon="1.55878">
        <ele>114.7</ele>
        <time>2024-12-25T14:49:52Z</time>
      </trkpt>
      <trkpt lat="44.80232" lon="1.55877">
        <ele>114.7</ele>
        <time>2024-12-25T14:49:54Z</time>
      </trkpt>
      <trkpt lat="44.80233" lon="1.55876">
        <ele>114.7</ele>
        <time>2024-12-25T14:49:55Z</time>
      </trkpt>
      <trkpt lat="44.80235" lon="1.55875">
        <ele>114.7</ele>
        <time>2024-12-25T14:49:56Z</time>
      </trkpt>
      <trkpt lat="44.80235" lon="1.55874">
        <ele>114.7</ele>
        <time>2024-12-25T14:49:57Z</time>
      </trkpt>
      <trkpt lat="44.80237" lon="1.55871">
        <ele>114.7</ele>
        <time>2024-12-25T14:49:59Z</time>
      </trkpt>
      <trkpt lat="44.80237" lon="1.5587">
        <ele>114.7</ele>
        <time>2024-12-25T14:50:00Z</time>
      </trkpt>
      <trkpt lat="44.80238" lon="1.5587">
        <ele>114.7</ele>
        <time>2024-12-25T14:50:01Z</time>
      </trkpt>
      <trkpt lat="44.80239" lon="1.55869">
        <ele>114.7</ele>
        <time>2024-12-25T14:50:02Z</time>
      </trkpt>
      <trkpt lat="44.80241" lon="1.55868">
        <ele>114.7</ele>
        <time>2024-12-25T14:50:03Z</time>
      </trkpt>
      <trkpt lat="44.80244" lon="1.55867">
        <ele>114.7</ele>
        <time>2024-12-25T14:50:04Z</time>
      </trkpt>
      <trkpt lat="44.80245" lon="1.55866">
        <ele>114.7</ele>
        <time>2024-12-25T14:50:05Z</time>
      </trkpt>
      <trkpt lat="44.80248" lon="1.55864">
        <ele>114.7</ele>
        <time>2024-12-25T14:50:06Z</time>
      </trkpt>
      <trkpt lat="44.8025" lon="1.55862">
        <ele>114.7</ele>
        <time>2024-12-25T14:50:08Z</time>
      </trkpt>
      <trkpt lat="44.80251" lon="1.55861">
        <ele>114.7</ele>
        <time>2024-12-25T14:50:09Z</time>
      </trkpt>
      <trkpt lat="44.80252" lon="1.5586">
        <ele>114.7</ele>
        <time>2024-12-25T14:50:10Z</time>
      </trkpt>
      <trkpt lat="44.80252" lon="1.55859">
        <ele>114.7</ele>
        <time>2024-12-25T14:50:12Z</time>
      </trkpt>
      <trkpt lat="44.80252" lon="1.55858">
        <ele>114.7</ele>
        <time>2024-12-25T14:50:13Z</time>
      </trkpt>
      <trkpt lat="44.80253" lon="1.55858">
        <ele>114.7</ele>
        <time>2024-12-25T14:50:14Z</time>
      </trkpt>
      <trkpt lat="44.80253" lon="1.55856">
        <ele>114.7</ele>
        <time>2024-12-25T14:50:15Z</time>
      </trkpt>
      <trkpt lat="44.80255" lon="1.55855">
        <ele>114.7</ele>
        <time>2024-12-25T14:50:16Z</time>
      </trkpt>
      <trkpt lat="44.8026" lon="1.55853">
        <ele>114.8</ele>
        <time>2024-12-25T14:50:17Z</time>
      </trkpt>
      <trkpt lat="44.80262" lon="1.55853">
        <ele>114.8</ele>
        <time>2024-12-25T14:50:18Z</time>
      </trkpt>
      <trkpt lat="44.80264" lon="1.55852">
        <ele>114.8</ele>
        <time>2024-12-25T14:50:20Z</time>
      </trkpt>
      <trkpt lat="44.80265" lon="1.55851">
        <ele>114.8</ele>
        <time>2024-12-25T14:50:21Z</time>
      </trkpt>
      <trkpt lat="44.80266" lon="1.5585">
        <ele>114.8</ele>
        <time>2024-12-25T14:50:22Z</time>
      </trkpt>
      <trkpt lat="44.80265" lon="1.55849">
        <ele>114.8</ele>
        <time>2024-12-25T14:50:23Z</time>
      </trkpt>
      <trkpt lat="44.80266" lon="1.55848">
        <ele>114.8</ele>
        <time>2024-12-25T14:50:25Z</time>
      </trkpt>
      <trkpt lat="44.80267" lon="1.55847">
        <ele>114.8</ele>
        <time>2024-12-25T14:50:26Z</time>
      </trkpt>
      <trkpt lat="44.80269" lon="1.55846">
        <ele>114.8</ele>
        <time>2024-12-25T14:50:27Z</time>
      </trkpt>
      <trkpt lat="44.80271" lon="1.55844">
        <ele>114.7</ele>
        <time>2024-12-25T14:50:28Z</time>
      </trkpt>
      <trkpt lat="44.80272" lon="1.55844">
        <ele>114.7</ele>
        <time>2024-12-25T14:50:29Z</time>
      </trkpt>
      <trkpt lat="44.80276" lon="1.55841">
        <ele>114.7</ele>
        <time>2024-12-25T14:50:30Z</time>
      </trkpt>
      <trkpt lat="44.80278" lon="1.5584">
        <ele>114.7</ele>
        <time>2024-12-25T14:50:32Z</time>
      </trkpt>
      <trkpt lat="44.80279" lon="1.5584">
        <ele>114.7</ele>
        <time>2024-12-25T14:50:33Z</time>
      </trkpt>
      <trkpt lat="44.8028" lon="1.55839">
        <ele>114.7</ele>
        <time>2024-12-25T14:50:34Z</time>
      </trkpt>
      <trkpt lat="44.80281" lon="1.55837">
        <ele>114.7</ele>
        <time>2024-12-25T14:50:35Z</time>
      </trkpt>
      <trkpt lat="44.80281" lon="1.55835">
        <ele>114.7</ele>
        <time>2024-12-25T14:50:36Z</time>
      </trkpt>
      <trkpt lat="44.80282" lon="1.55834">
        <ele>114.7</ele>
        <time>2024-12-25T14:50:38Z</time>
      </trkpt>
      <trkpt lat="44.80283" lon="1.55834">
        <ele>114.7</ele>
        <time>2024-12-25T14:50:39Z</time>
      </trkpt>
      <trkpt lat="44.80284" lon="1.55833">
        <ele>114.7</ele>
        <time>2024-12-25T14:50:40Z</time>
      </trkpt>
      <trkpt lat="44.80286" lon="1.55833">
        <ele>114.7</ele>
        <time>2024-12-25T14:50:41Z</time>
      </trkpt>
      <trkpt lat="44.80289" lon="1.55834">
        <ele>114.7</ele>
        <time>2024-12-25T14:50:42Z</time>
      </trkpt>
      <trkpt lat="44.80291" lon="1.55835">
        <ele>114.7</ele>
        <time>2024-12-25T14:50:43Z</time>
      </trkpt>
      <trkpt lat="44.80294" lon="1.55835">
        <ele>114.7</ele>
        <time>2024-12-25T14:50:44Z</time>
      </trkpt>
      <trkpt lat="44.80294" lon="1.55836">
        <ele>114.7</ele>
        <time>2024-12-25T14:50:45Z</time>
      </trkpt>
      <trkpt lat="44.80295" lon="1.55837">
        <ele>114.7</ele>
        <time>2024-12-25T14:50:46Z</time>
      </trkpt>
      <trkpt lat="44.80293" lon="1.55838">
        <ele>114.7</ele>
        <time>2024-12-25T14:50:47Z</time>
      </trkpt>
      <trkpt lat="44.80293" lon="1.55839">
        <ele>114.7</ele>
        <time>2024-12-25T14:50:49Z</time>
      </trkpt>
      <trkpt lat="44.80294" lon="1.55841">
        <ele>114.7</ele>
        <time>2024-12-25T14:50:50Z</time>
      </trkpt>
      <trkpt lat="44.80294" lon="1.55844">
        <ele>114.7</ele>
        <time>2024-12-25T14:50:51Z</time>
      </trkpt>
      <trkpt lat="44.80293" lon="1.55847">
        <ele>114.7</ele>
        <time>2024-12-25T14:50:52Z</time>
      </trkpt>
      <trkpt lat="44.80293" lon="1.55848">
        <ele>114.6</ele>
        <time>2024-12-25T14:50:53Z</time>
      </trkpt>
      <trkpt lat="44.80293" lon="1.55852">
        <ele>114.6</ele>
        <time>2024-12-25T14:50:54Z</time>
      </trkpt>
      <trkpt lat="44.80293" lon="1.55853">
        <ele>114.6</ele>
        <time>2024-12-25T14:50:55Z</time>
      </trkpt>
      <trkpt lat="44.80292" lon="1.55854">
        <ele>114.6</ele>
        <time>2024-12-25T14:50:56Z</time>
      </trkpt>
      <trkpt lat="44.80292" lon="1.55856">
        <ele>114.6</ele>
        <time>2024-12-25T14:50:57Z</time>
      </trkpt>
      <trkpt lat="44.80292" lon="1.55858">
        <ele>114.6</ele>
        <time>2024-12-25T14:50:58Z</time>
      </trkpt>
      <trkpt lat="44.80293" lon="1.55861">
        <ele>114.6</ele>
        <time>2024-12-25T14:51:00Z</time>
      </trkpt>
      <trkpt lat="44.80293" lon="1.55862">
        <ele>114.6</ele>
        <time>2024-12-25T14:51:01Z</time>
      </trkpt>
      <trkpt lat="44.80293" lon="1.55863">
        <ele>114.6</ele>
        <time>2024-12-25T14:51:02Z</time>
      </trkpt>
      <trkpt lat="44.80294" lon="1.55863">
        <ele>114.6</ele>
        <time>2024-12-25T14:51:03Z</time>
      </trkpt>
      <trkpt lat="44.80294" lon="1.55861">
        <ele>114.6</ele>
        <time>2024-12-25T14:51:04Z</time>
      </trkpt>
      <trkpt lat="44.80294" lon="1.55859">
        <ele>114.6</ele>
        <time>2024-12-25T14:51:05Z</time>
      </trkpt>
      <trkpt lat="44.80294" lon="1.55858">
        <ele>114.6</ele>
        <time>2024-12-25T14:51:06Z</time>
      </trkpt>
      <trkpt lat="44.80294" lon="1.55855">
        <ele>114.6</ele>
        <time>2024-12-25T14:51:07Z</time>
      </trkpt>
      <trkpt lat="44.80294" lon="1.55854">
        <ele>114.6</ele>
        <time>2024-12-25T14:51:08Z</time>
      </trkpt>
      <trkpt lat="44.80294" lon="1.55852">
        <ele>114.6</ele>
        <time>2024-12-25T14:51:09Z</time>
      </trkpt>
      <trkpt lat="44.80295" lon="1.55851">
        <ele>114.6</ele>
        <time>2024-12-25T14:51:10Z</time>
      </trkpt>
      <trkpt lat="44.80295" lon="1.55849">
        <ele>114.6</ele>
        <time>2024-12-25T14:51:11Z</time>
      </trkpt>
      <trkpt lat="44.80295" lon="1.55845">
        <ele>114.6</ele>
        <time>2024-12-25T14:51:13Z</time>
      </trkpt>
      <trkpt lat="44.80298" lon="1.5584">
        <ele>114.6</ele>
        <time>2024-12-25T14:51:14Z</time>
      </trkpt>
      <trkpt lat="44.80299" lon="1.55837">
        <ele>114.6</ele>
        <time>2024-12-25T14:51:15Z</time>
      </trkpt>
      <trkpt lat="44.80297" lon="1.55834">
        <ele>114.6</ele>
        <time>2024-12-25T14:51:16Z</time>
      </trkpt>
      <trkpt lat="44.80295" lon="1.55833">
        <ele>114.6</ele>
        <time>2024-12-25T14:51:17Z</time>
      </trkpt>
      <trkpt lat="44.80296" lon="1.55832">
        <ele>114.6</ele>
        <time>2024-12-25T14:51:19Z</time>
      </trkpt>
      <trkpt lat="44.80297" lon="1.55831">
        <ele>114.6</ele>
        <time>2024-12-25T14:51:20Z</time>
      </trkpt>
      <trkpt lat="44.80298" lon="1.5583">
        <ele>114.6</ele>
        <time>2024-12-25T14:51:21Z</time>
      </trkpt>
      <trkpt lat="44.803" lon="1.55826">
        <ele>114.6</ele>
        <time>2024-12-25T14:51:22Z</time>
      </trkpt>
      <trkpt lat="44.803" lon="1.55825">
        <ele>114.6</ele>
        <time>2024-12-25T14:51:23Z</time>
      </trkpt>
      <trkpt lat="44.80302" lon="1.55821">
        <ele>114.6</ele>
        <time>2024-12-25T14:51:24Z</time>
      </trkpt>
      <trkpt lat="44.80306" lon="1.55818">
        <ele>114.6</ele>
        <time>2024-12-25T14:51:25Z</time>
      </trkpt>
      <trkpt lat="44.80307" lon="1.55816">
        <ele>114.6</ele>
        <time>2024-12-25T14:51:26Z</time>
      </trkpt>
      <trkpt lat="44.8031" lon="1.55815">
        <ele>114.6</ele>
        <time>2024-12-25T14:51:28Z</time>
      </trkpt>
      <trkpt lat="44.80311" lon="1.55814">
        <ele>114.6</ele>
        <time>2024-12-25T14:51:29Z</time>
      </trkpt>
      <trkpt lat="44.80312" lon="1.55814">
        <ele>114.6</ele>
        <time>2024-12-25T14:51:30Z</time>
      </trkpt>
      <trkpt lat="44.80313" lon="1.55814">
        <ele>114.6</ele>
        <time>2024-12-25T14:51:31Z</time>
      </trkpt>
      <trkpt lat="44.80314" lon="1.55813">
        <ele>114.6</ele>
        <time>2024-12-25T14:51:33Z</time>
      </trkpt>
      <trkpt lat="44.80313" lon="1.55812">
        <ele>114.6</ele>
        <time>2024-12-25T14:51:34Z</time>
      </trkpt>
      <trkpt lat="44.80314" lon="1.55811">
        <ele>114.6</ele>
        <time>2024-12-25T14:51:35Z</time>
      </trkpt>
      <trkpt lat="44.80314" lon="1.55809">
        <ele>114.6</ele>
        <time>2024-12-25T14:51:36Z</time>
      </trkpt>
      <trkpt lat="44.80317" lon="1.55808">
        <ele>114.6</ele>
        <time>2024-12-25T14:51:37Z</time>
      </trkpt>
      <trkpt lat="44.80321" lon="1.55806">
        <ele>114.6</ele>
        <time>2024-12-25T14:51:38Z</time>
      </trkpt>
      <trkpt lat="44.80321" lon="1.55805">
        <ele>114.6</ele>
        <time>2024-12-25T14:51:39Z</time>
      </trkpt>
      <trkpt lat="44.80324" lon="1.55802">
        <ele>114.6</ele>
        <time>2024-12-25T14:51:41Z</time>
      </trkpt>
      <trkpt lat="44.80325" lon="1.55802">
        <ele>114.6</ele>
        <time>2024-12-25T14:51:42Z</time>
      </trkpt>
      <trkpt lat="44.80326" lon="1.558">
        <ele>114.7</ele>
        <time>2024-12-25T14:51:43Z</time>
      </trkpt>
      <trkpt lat="44.80328" lon="1.55799">
        <ele>114.7</ele>
        <time>2024-12-25T14:51:44Z</time>
      </trkpt>
      <trkpt lat="44.80329" lon="1.55799">
        <ele>114.7</ele>
        <time>2024-12-25T14:51:45Z</time>
      </trkpt>
      <trkpt lat="44.80331" lon="1.55798">
        <ele>114.7</ele>
        <time>2024-12-25T14:51:46Z</time>
      </trkpt>
      <trkpt lat="44.80334" lon="1.55796">
        <ele>114.7</ele>
        <time>2024-12-25T14:51:47Z</time>
      </trkpt>
      <trkpt lat="44.80336" lon="1.55795">
        <ele>114.7</ele>
        <time>2024-12-25T14:51:48Z</time>
      </trkpt>
      <trkpt lat="44.80337" lon="1.55795">
        <ele>114.7</ele>
        <time>2024-12-25T14:51:50Z</time>
      </trkpt>
      <trkpt lat="44.80338" lon="1.55795">
        <ele>114.7</ele>
        <time>2024-12-25T14:51:51Z</time>
      </trkpt>
      <trkpt lat="44.80339" lon="1.55794">
        <ele>114.7</ele>
        <time>2024-12-25T14:51:52Z</time>
      </trkpt>
      <trkpt lat="44.8034" lon="1.55794">
        <ele>114.7</ele>
        <time>2024-12-25T14:51:53Z</time>
      </trkpt>
      <trkpt lat="44.80343" lon="1.55792">
        <ele>114.7</ele>
        <time>2024-12-25T14:51:54Z</time>
      </trkpt>
      <trkpt lat="44.80345" lon="1.5579">
        <ele>114.7</ele>
        <time>2024-12-25T14:51:55Z</time>
      </trkpt>
      <trkpt lat="44.80346" lon="1.5579">
        <ele>114.7</ele>
        <time>2024-12-25T14:51:57Z</time>
      </trkpt>
      <trkpt lat="44.80347" lon="1.55789">
        <ele>114.7</ele>
        <time>2024-12-25T14:51:58Z</time>
      </trkpt>
      <trkpt lat="44.80348" lon="1.55789">
        <ele>114.7</ele>
        <time>2024-12-25T14:51:59Z</time>
      </trkpt>
      <trkpt lat="44.8035" lon="1.55788">
        <ele>114.7</ele>
        <time>2024-12-25T14:52:00Z</time>
      </trkpt>
      <trkpt lat="44.80352" lon="1.55785">
        <ele>114.7</ele>
        <time>2024-12-25T14:52:01Z</time>
      </trkpt>
      <trkpt lat="44.80354" lon="1.55784">
        <ele>114.7</ele>
        <time>2024-12-25T14:52:02Z</time>
      </trkpt>
      <trkpt lat="44.80357" lon="1.55782">
        <ele>114.7</ele>
        <time>2024-12-25T14:52:03Z</time>
      </trkpt>
      <trkpt lat="44.80358" lon="1.55781">
        <ele>114.7</ele>
        <time>2024-12-25T14:52:04Z</time>
      </trkpt>
      <trkpt lat="44.80359" lon="1.5578">
        <ele>114.7</ele>
        <time>2024-12-25T14:52:05Z</time>
      </trkpt>
      <trkpt lat="44.8036" lon="1.55779">
        <ele>114.7</ele>
        <time>2024-12-25T14:52:07Z</time>
      </trkpt>
      <trkpt lat="44.80361" lon="1.55778">
        <ele>114.7</ele>
        <time>2024-12-25T14:52:08Z</time>
      </trkpt>
      <trkpt lat="44.80362" lon="1.55778">
        <ele>114.7</ele>
        <time>2024-12-25T14:52:09Z</time>
      </trkpt>
      <trkpt lat="44.80363" lon="1.55776">
        <ele>114.7</ele>
        <time>2024-12-25T14:52:10Z</time>
      </trkpt>
      <trkpt lat="44.80364" lon="1.55775">
        <ele>114.7</ele>
        <time>2024-12-25T14:52:11Z</time>
      </trkpt>
      <trkpt lat="44.80366" lon="1.55774">
        <ele>114.7</ele>
        <time>2024-12-25T14:52:12Z</time>
      </trkpt>
      <trkpt lat="44.80366" lon="1.55773">
        <ele>114.7</ele>
        <time>2024-12-25T14:52:14Z</time>
      </trkpt>
      <trkpt lat="44.80367" lon="1.55772">
        <ele>114.7</ele>
        <time>2024-12-25T14:52:15Z</time>
      </trkpt>
      <trkpt lat="44.80368" lon="1.55771">
        <ele>114.7</ele>
        <time>2024-12-25T14:52:16Z</time>
      </trkpt>
      <trkpt lat="44.8037" lon="1.5577">
        <ele>114.7</ele>
        <time>2024-12-25T14:52:17Z</time>
      </trkpt>
      <trkpt lat="44.80372" lon="1.55768">
        <ele>114.7</ele>
        <time>2024-12-25T14:52:18Z</time>
      </trkpt>
      <trkpt lat="44.80373" lon="1.55768">
        <ele>114.7</ele>
        <time>2024-12-25T14:52:19Z</time>
      </trkpt>
      <trkpt lat="44.80377" lon="1.55765">
        <ele>114.7</ele>
        <time>2024-12-25T14:52:20Z</time>
      </trkpt>
      <trkpt lat="44.8038" lon="1.55763">
        <ele>114.7</ele>
        <time>2024-12-25T14:52:21Z</time>
      </trkpt>
      <trkpt lat="44.80381" lon="1.55763">
        <ele>114.7</ele>
        <time>2024-12-25T14:52:22Z</time>
      </trkpt>
      <trkpt lat="44.80382" lon="1.55762">
        <ele>114.7</ele>
        <time>2024-12-25T14:52:24Z</time>
      </trkpt>
      <trkpt lat="44.80383" lon="1.55761">
        <ele>114.7</ele>
        <time>2024-12-25T14:52:25Z</time>
      </trkpt>
      <trkpt lat="44.80384" lon="1.5576">
        <ele>114.7</ele>
        <time>2024-12-25T14:52:26Z</time>
      </trkpt>
      <trkpt lat="44.80384" lon="1.5576">
        <ele>114.7</ele>
        <time>2024-12-25T14:52:27Z</time>
      </trkpt>
      <trkpt lat="44.80386" lon="1.55758">
        <ele>114.7</ele>
        <time>2024-12-25T14:52:28Z</time>
      </trkpt>
      <trkpt lat="44.80387" lon="1.55757">
        <ele>114.7</ele>
        <time>2024-12-25T14:52:29Z</time>
      </trkpt>
      <trkpt lat="44.80388" lon="1.55756">
        <ele>114.7</ele>
        <time>2024-12-25T14:52:31Z</time>
      </trkpt>
      <trkpt lat="44.80389" lon="1.55754">
        <ele>114.7</ele>
        <time>2024-12-25T14:52:32Z</time>
      </trkpt>
      <trkpt lat="44.80389" lon="1.55751">
        <ele>114.7</ele>
        <time>2024-12-25T14:52:33Z</time>
      </trkpt>
      <trkpt lat="44.8039" lon="1.55749">
        <ele>114.7</ele>
        <time>2024-12-25T14:52:34Z</time>
      </trkpt>
      <trkpt lat="44.80392" lon="1.55748">
        <ele>114.7</ele>
        <time>2024-12-25T14:52:35Z</time>
      </trkpt>
      <trkpt lat="44.80395" lon="1.55745">
        <ele>114.7</ele>
        <time>2024-12-25T14:52:36Z</time>
      </trkpt>
      <trkpt lat="44.80395" lon="1.55744">
        <ele>114.7</ele>
        <time>2024-12-25T14:52:37Z</time>
      </trkpt>
      <trkpt lat="44.80399" lon="1.55739">
        <ele>114.7</ele>
        <time>2024-12-25T14:52:38Z</time>
      </trkpt>
      <trkpt lat="44.80401" lon="1.55737">
        <ele>114.7</ele>
        <time>2024-12-25T14:52:39Z</time>
      </trkpt>
      <trkpt lat="44.80403" lon="1.55735">
        <ele>114.7</ele>
        <time>2024-12-25T14:52:41Z</time>
      </trkpt>
      <trkpt lat="44.80404" lon="1.55733">
        <ele>114.7</ele>
        <time>2024-12-25T14:52:42Z</time>
      </trkpt>
      <trkpt lat="44.80404" lon="1.55731">
        <ele>114.7</ele>
        <time>2024-12-25T14:52:43Z</time>
      </trkpt>
      <trkpt lat="44.80404" lon="1.55731">
        <ele>114.7</ele>
        <time>2024-12-25T14:52:44Z</time>
      </trkpt>
      <trkpt lat="44.80405" lon="1.5573">
        <ele>114.7</ele>
        <time>2024-12-25T14:52:45Z</time>
      </trkpt>
      <trkpt lat="44.80404" lon="1.55729">
        <ele>114.7</ele>
        <time>2024-12-25T14:52:46Z</time>
      </trkpt>
      <trkpt lat="44.80403" lon="1.55728">
        <ele>114.7</ele>
        <time>2024-12-25T14:52:47Z</time>
      </trkpt>
      <trkpt lat="44.80403" lon="1.55726">
        <ele>114.7</ele>
        <time>2024-12-25T14:52:48Z</time>
      </trkpt>
      <trkpt lat="44.80404" lon="1.55723">
        <ele>114.7</ele>
        <time>2024-12-25T14:52:50Z</time>
      </trkpt>
      <trkpt lat="44.80404" lon="1.55722">
        <ele>114.7</ele>
        <time>2024-12-25T14:52:51Z</time>
      </trkpt>
      <trkpt lat="44.80405" lon="1.55719">
        <ele>114.7</ele>
        <time>2024-12-25T14:52:52Z</time>
      </trkpt>
      <trkpt lat="44.80406" lon="1.55717">
        <ele>114.7</ele>
        <time>2024-12-25T14:52:53Z</time>
      </trkpt>
      <trkpt lat="44.80407" lon="1.55715">
        <ele>114.7</ele>
        <time>2024-12-25T14:52:54Z</time>
      </trkpt>
      <trkpt lat="44.80409" lon="1.55709">
        <ele>114.7</ele>
        <time>2024-12-25T14:52:55Z</time>
      </trkpt>
      <trkpt lat="44.80411" lon="1.55705">
        <ele>114.7</ele>
        <time>2024-12-25T14:52:56Z</time>
      </trkpt>
      <trkpt lat="44.80412" lon="1.55704">
        <ele>114.7</ele>
        <time>2024-12-25T14:52:57Z</time>
      </trkpt>
      <trkpt lat="44.80412" lon="1.55702">
        <ele>114.7</ele>
        <time>2024-12-25T14:52:58Z</time>
      </trkpt>
      <trkpt lat="44.80412" lon="1.557">
        <ele>114.7</ele>
        <time>2024-12-25T14:53:00Z</time>
      </trkpt>
      <trkpt lat="44.80412" lon="1.55698">
        <ele>114.7</ele>
        <time>2024-12-25T14:53:01Z</time>
      </trkpt>
      <trkpt lat="44.80412" lon="1.55697">
        <ele>114.7</ele>
        <time>2024-12-25T14:53:03Z</time>
      </trkpt>
      <trkpt lat="44.80411" lon="1.55696">
        <ele>114.7</ele>
        <time>2024-12-25T14:53:04Z</time>
      </trkpt>
      <trkpt lat="44.80411" lon="1.55695">
        <ele>114.7</ele>
        <time>2024-12-25T14:53:05Z</time>
      </trkpt>
      <trkpt lat="44.80411" lon="1.55693">
        <ele>114.7</ele>
        <time>2024-12-25T14:53:06Z</time>
      </trkpt>
      <trkpt lat="44.80411" lon="1.55691">
        <ele>114.7</ele>
        <time>2024-12-25T14:53:07Z</time>
      </trkpt>
      <trkpt lat="44.80413" lon="1.55685">
        <ele>114.8</ele>
        <time>2024-12-25T14:53:08Z</time>
      </trkpt>
      <trkpt lat="44.80414" lon="1.55681">
        <ele>114.8</ele>
        <time>2024-12-25T14:53:10Z</time>
      </trkpt>
      <trkpt lat="44.80415" lon="1.55679">
        <ele>114.8</ele>
        <time>2024-12-25T14:53:11Z</time>
      </trkpt>
      <trkpt lat="44.80415" lon="1.55676">
        <ele>114.8</ele>
        <time>2024-12-25T14:53:12Z</time>
      </trkpt>
      <trkpt lat="44.80413" lon="1.55676">
        <ele>114.8</ele>
        <time>2024-12-25T14:53:14Z</time>
      </trkpt>
      <trkpt lat="44.80412" lon="1.55676">
        <ele>114.8</ele>
        <time>2024-12-25T14:53:15Z</time>
      </trkpt>
      <trkpt lat="44.80411" lon="1.55674">
        <ele>114.8</ele>
        <time>2024-12-25T14:53:16Z</time>
      </trkpt>
      <trkpt lat="44.80411" lon="1.55672">
        <ele>114.8</ele>
        <time>2024-12-25T14:53:17Z</time>
      </trkpt>
      <trkpt lat="44.80412" lon="1.55669">
        <ele>114.8</ele>
        <time>2024-12-25T14:53:18Z</time>
      </trkpt>
      <trkpt lat="44.80412" lon="1.55666">
        <ele>114.8</ele>
        <time>2024-12-25T14:53:19Z</time>
      </trkpt>
      <trkpt lat="44.80412" lon="1.55664">
        <ele>114.9</ele>
        <time>2024-12-25T14:53:20Z</time>
      </trkpt>
      <trkpt lat="44.80413" lon="1.55658">
        <ele>114.9</ele>
        <time>2024-12-25T14:53:21Z</time>
      </trkpt>
      <trkpt lat="44.80414" lon="1.55656">
        <ele>114.9</ele>
        <time>2024-12-25T14:53:22Z</time>
      </trkpt>
      <trkpt lat="44.80415" lon="1.55653">
        <ele>114.9</ele>
        <time>2024-12-25T14:53:24Z</time>
      </trkpt>
      <trkpt lat="44.80414" lon="1.5565">
        <ele>114.9</ele>
        <time>2024-12-25T14:53:25Z</time>
      </trkpt>
      <trkpt lat="44.80414" lon="1.55649">
        <ele>114.9</ele>
        <time>2024-12-25T14:53:26Z</time>
      </trkpt>
      <trkpt lat="44.80414" lon="1.55648">
        <ele>114.9</ele>
        <time>2024-12-25T14:53:28Z</time>
      </trkpt>
      <trkpt lat="44.80413" lon="1.55647">
        <ele>114.9</ele>
        <time>2024-12-25T14:53:29Z</time>
      </trkpt>
      <trkpt lat="44.80413" lon="1.55646">
        <ele>114.9</ele>
        <time>2024-12-25T14:53:30Z</time>
      </trkpt>
      <trkpt lat="44.80412" lon="1.55644">
        <ele>114.9</ele>
        <time>2024-12-25T14:53:31Z</time>
      </trkpt>
      <trkpt lat="44.80411" lon="1.55638">
        <ele>114.9</ele>
        <time>2024-12-25T14:53:32Z</time>
      </trkpt>
      <trkpt lat="44.8041" lon="1.55635">
        <ele>115</ele>
        <time>2024-12-25T14:53:33Z</time>
      </trkpt>
      <trkpt lat="44.80408" lon="1.55634">
        <ele>115</ele>
        <time>2024-12-25T14:53:35Z</time>
      </trkpt>
      <trkpt lat="44.80405" lon="1.55633">
        <ele>115</ele>
        <time>2024-12-25T14:53:36Z</time>
      </trkpt>
      <trkpt lat="44.80404" lon="1.55633">
        <ele>115</ele>
        <time>2024-12-25T14:53:37Z</time>
      </trkpt>
      <trkpt lat="44.80403" lon="1.55634">
        <ele>115.1</ele>
        <time>2024-12-25T14:53:38Z</time>
      </trkpt>
      <trkpt lat="44.804" lon="1.55634">
        <ele>115.1</ele>
        <time>2024-12-25T14:53:39Z</time>
      </trkpt>
      <trkpt lat="44.80399" lon="1.55634">
        <ele>115.1</ele>
        <time>2024-12-25T14:53:41Z</time>
      </trkpt>
      <trkpt lat="44.80399" lon="1.55633">
        <ele>115.1</ele>
        <time>2024-12-25T14:53:42Z</time>
      </trkpt>
      <trkpt lat="44.80397" lon="1.55632">
        <ele>115.1</ele>
        <time>2024-12-25T14:53:43Z</time>
      </trkpt>
      <trkpt lat="44.80395" lon="1.55631">
        <ele>115.2</ele>
        <time>2024-12-25T14:53:44Z</time>
      </trkpt>
      <trkpt lat="44.80392" lon="1.5563">
        <ele>115.2</ele>
        <time>2024-12-25T14:53:45Z</time>
      </trkpt>
      <trkpt lat="44.80391" lon="1.55629">
        <ele>115.3</ele>
        <time>2024-12-25T14:53:46Z</time>
      </trkpt>
      <trkpt lat="44.80388" lon="1.55627">
        <ele>115.4</ele>
        <time>2024-12-25T14:53:47Z</time>
      </trkpt>
      <trkpt lat="44.80387" lon="1.55627">
        <ele>115.4</ele>
        <time>2024-12-25T14:53:48Z</time>
      </trkpt>
      <trkpt lat="44.80386" lon="1.55626">
        <ele>115.4</ele>
        <time>2024-12-25T14:53:49Z</time>
      </trkpt>
      <trkpt lat="44.80384" lon="1.55626">
        <ele>115.4</ele>
        <time>2024-12-25T14:53:50Z</time>
      </trkpt>
      <trkpt lat="44.80384" lon="1.55627">
        <ele>115.5</ele>
        <time>2024-12-25T14:53:52Z</time>
      </trkpt>
      <trkpt lat="44.80383" lon="1.55627">
        <ele>115.5</ele>
        <time>2024-12-25T14:53:53Z</time>
      </trkpt>
      <trkpt lat="44.80381" lon="1.55627">
        <ele>115.5</ele>
        <time>2024-12-25T14:53:54Z</time>
      </trkpt>
      <trkpt lat="44.80377" lon="1.55627">
        <ele>115.6</ele>
        <time>2024-12-25T14:53:55Z</time>
      </trkpt>
      <trkpt lat="44.80375" lon="1.55626">
        <ele>115.7</ele>
        <time>2024-12-25T14:53:56Z</time>
      </trkpt>
      <trkpt lat="44.80373" lon="1.55626">
        <ele>115.8</ele>
        <time>2024-12-25T14:53:58Z</time>
      </trkpt>
      <trkpt lat="44.80372" lon="1.55628">
        <ele>115.8</ele>
        <time>2024-12-25T14:53:59Z</time>
      </trkpt>
      <trkpt lat="44.80371" lon="1.5563">
        <ele>115.9</ele>
        <time>2024-12-25T14:54:00Z</time>
      </trkpt>
      <trkpt lat="44.80371" lon="1.5563">
        <ele>115.9</ele>
        <time>2024-12-25T14:54:02Z</time>
      </trkpt>
      <trkpt lat="44.80369" lon="1.55631">
        <ele>115.9</ele>
        <time>2024-12-25T14:54:03Z</time>
      </trkpt>
      <trkpt lat="44.80367" lon="1.5563">
        <ele>116</ele>
        <time>2024-12-25T14:54:04Z</time>
      </trkpt>
      <trkpt lat="44.80365" lon="1.5563">
        <ele>116.1</ele>
        <time>2024-12-25T14:54:05Z</time>
      </trkpt>
      <trkpt lat="44.80361" lon="1.55628">
        <ele>116.2</ele>
        <time>2024-12-25T14:54:07Z</time>
      </trkpt>
      <trkpt lat="44.80359" lon="1.55628">
        <ele>116.3</ele>
        <time>2024-12-25T14:54:08Z</time>
      </trkpt>
      <trkpt lat="44.80358" lon="1.55629">
        <ele>116.3</ele>
        <time>2024-12-25T14:54:09Z</time>
      </trkpt>
      <trkpt lat="44.80357" lon="1.55629">
        <ele>116.3</ele>
        <time>2024-12-25T14:54:10Z</time>
      </trkpt>
      <trkpt lat="44.80356" lon="1.55628">
        <ele>116.4</ele>
        <time>2024-12-25T14:54:12Z</time>
      </trkpt>
      <trkpt lat="44.80355" lon="1.55628">
        <ele>116.4</ele>
        <time>2024-12-25T14:54:13Z</time>
      </trkpt>
      <trkpt lat="44.80352" lon="1.55628">
        <ele>116.5</ele>
        <time>2024-12-25T14:54:14Z</time>
      </trkpt>
      <trkpt lat="44.80351" lon="1.55628">
        <ele>116.5</ele>
        <time>2024-12-25T14:54:15Z</time>
      </trkpt>
      <trkpt lat="44.80348" lon="1.55628">
        <ele>116.7</ele>
        <time>2024-12-25T14:54:16Z</time>
      </trkpt>
      <trkpt lat="44.80346" lon="1.55628">
        <ele>116.7</ele>
        <time>2024-12-25T14:54:18Z</time>
      </trkpt>
      <trkpt lat="44.80345" lon="1.55627">
        <ele>116.8</ele>
        <time>2024-12-25T14:54:19Z</time>
      </trkpt>
      <trkpt lat="44.80343" lon="1.55629">
        <ele>116.8</ele>
        <time>2024-12-25T14:54:20Z</time>
      </trkpt>
      <trkpt lat="44.80343" lon="1.55629">
        <ele>116.9</ele>
        <time>2024-12-25T14:54:21Z</time>
      </trkpt>
      <trkpt lat="44.80342" lon="1.5563">
        <ele>116.9</ele>
        <time>2024-12-25T14:54:23Z</time>
      </trkpt>
      <trkpt lat="44.80341" lon="1.55631">
        <ele>116.9</ele>
        <time>2024-12-25T14:54:24Z</time>
      </trkpt>
      <trkpt lat="44.80339" lon="1.55633">
        <ele>117</ele>
        <time>2024-12-25T14:54:25Z</time>
      </trkpt>
      <trkpt lat="44.80338" lon="1.55633">
        <ele>117.1</ele>
        <time>2024-12-25T14:54:26Z</time>
      </trkpt>
      <trkpt lat="44.80333" lon="1.55633">
        <ele>117.3</ele>
        <time>2024-12-25T14:54:27Z</time>
      </trkpt>
      <trkpt lat="44.80331" lon="1.55633">
        <ele>117.3</ele>
        <time>2024-12-25T14:54:28Z</time>
      </trkpt>
      <trkpt lat="44.8033" lon="1.55633">
        <ele>117.4</ele>
        <time>2024-12-25T14:54:30Z</time>
      </trkpt>
      <trkpt lat="44.80329" lon="1.55634">
        <ele>117.4</ele>
        <time>2024-12-25T14:54:31Z</time>
      </trkpt>
      <trkpt lat="44.80327" lon="1.55635">
        <ele>117.5</ele>
        <time>2024-12-25T14:54:33Z</time>
      </trkpt>
      <trkpt lat="44.80326" lon="1.55635">
        <ele>117.6</ele>
        <time>2024-12-25T14:54:34Z</time>
      </trkpt>
      <trkpt lat="44.80325" lon="1.55635">
        <ele>117.6</ele>
        <time>2024-12-25T14:54:35Z</time>
      </trkpt>
      <trkpt lat="44.80322" lon="1.55635">
        <ele>117.7</ele>
        <time>2024-12-25T14:54:36Z</time>
      </trkpt>
      <trkpt lat="44.80321" lon="1.55635">
        <ele>117.8</ele>
        <time>2024-12-25T14:54:37Z</time>
      </trkpt>
      <trkpt lat="44.80319" lon="1.55635">
        <ele>117.8</ele>
        <time>2024-12-25T14:54:38Z</time>
      </trkpt>
      <trkpt lat="44.80317" lon="1.55635">
        <ele>117.9</ele>
        <time>2024-12-25T14:54:39Z</time>
      </trkpt>
      <trkpt lat="44.80316" lon="1.55634">
        <ele>118</ele>
        <time>2024-12-25T14:54:40Z</time>
      </trkpt>
      <trkpt lat="44.80314" lon="1.55635">
        <ele>118</ele>
        <time>2024-12-25T14:54:41Z</time>
      </trkpt>
      <trkpt lat="44.80312" lon="1.55634">
        <ele>118.1</ele>
        <time>2024-12-25T14:54:42Z</time>
      </trkpt>
      <trkpt lat="44.80312" lon="1.55634">
        <ele>118.1</ele>
        <time>2024-12-25T14:54:44Z</time>
      </trkpt>
      <trkpt lat="44.80311" lon="1.55635">
        <ele>118.2</ele>
        <time>2024-12-25T14:54:45Z</time>
      </trkpt>
      <trkpt lat="44.80308" lon="1.55635">
        <ele>118.3</ele>
        <time>2024-12-25T14:54:46Z</time>
      </trkpt>
      <trkpt lat="44.80307" lon="1.55635">
        <ele>118.3</ele>
        <time>2024-12-25T14:54:47Z</time>
      </trkpt>
      <trkpt lat="44.80303" lon="1.55634">
        <ele>118.5</ele>
        <time>2024-12-25T14:54:48Z</time>
      </trkpt>
      <trkpt lat="44.80301" lon="1.55634">
        <ele>118.6</ele>
        <time>2024-12-25T14:54:49Z</time>
      </trkpt>
      <trkpt lat="44.803" lon="1.55634">
        <ele>118.6</ele>
        <time>2024-12-25T14:54:51Z</time>
      </trkpt>
      <trkpt lat="44.80297" lon="1.55636">
        <ele>118.8</ele>
        <time>2024-12-25T14:54:52Z</time>
      </trkpt>
      <trkpt lat="44.80296" lon="1.55636">
        <ele>118.8</ele>
        <time>2024-12-25T14:54:54Z</time>
      </trkpt>
      <trkpt lat="44.80295" lon="1.55636">
        <ele>118.9</ele>
        <time>2024-12-25T14:54:55Z</time>
      </trkpt>
      <trkpt lat="44.80294" lon="1.55636">
        <ele>118.9</ele>
        <time>2024-12-25T14:54:56Z</time>
      </trkpt>
      <trkpt lat="44.80293" lon="1.55636">
        <ele>119</ele>
        <time>2024-12-25T14:54:57Z</time>
      </trkpt>
      <trkpt lat="44.80291" lon="1.55636">
        <ele>119.1</ele>
        <time>2024-12-25T14:54:58Z</time>
      </trkpt>
      <trkpt lat="44.80288" lon="1.55636">
        <ele>119.2</ele>
        <time>2024-12-25T14:54:59Z</time>
      </trkpt>
      <trkpt lat="44.80287" lon="1.55636">
        <ele>119.3</ele>
        <time>2024-12-25T14:55:00Z</time>
      </trkpt>
      <trkpt lat="44.80286" lon="1.55636">
        <ele>119.3</ele>
        <time>2024-12-25T14:55:01Z</time>
      </trkpt>
      <trkpt lat="44.80284" lon="1.55636">
        <ele>119.4</ele>
        <time>2024-12-25T14:55:02Z</time>
      </trkpt>
      <trkpt lat="44.80282" lon="1.55636">
        <ele>119.5</ele>
        <time>2024-12-25T14:55:04Z</time>
      </trkpt>
      <trkpt lat="44.80281" lon="1.55636">
        <ele>119.5</ele>
        <time>2024-12-25T14:55:05Z</time>
      </trkpt>
      <trkpt lat="44.8028" lon="1.55636">
        <ele>119.6</ele>
        <time>2024-12-25T14:55:06Z</time>
      </trkpt>
      <trkpt lat="44.80279" lon="1.55636">
        <ele>119.6</ele>
        <time>2024-12-25T14:55:07Z</time>
      </trkpt>
      <trkpt lat="44.80274" lon="1.55636">
        <ele>119.8</ele>
        <time>2024-12-25T14:55:08Z</time>
      </trkpt>
      <trkpt lat="44.80273" lon="1.55636">
        <ele>119.9</ele>
        <time>2024-12-25T14:55:10Z</time>
      </trkpt>
      <trkpt lat="44.80271" lon="1.55637">
        <ele>120</ele>
        <time>2024-12-25T14:55:11Z</time>
      </trkpt>
      <trkpt lat="44.8027" lon="1.55637">
        <ele>120</ele>
        <time>2024-12-25T14:55:12Z</time>
      </trkpt>
      <trkpt lat="44.8027" lon="1.55638">
        <ele>120</ele>
        <time>2024-12-25T14:55:14Z</time>
      </trkpt>
      <trkpt lat="44.80269" lon="1.55638">
        <ele>120.1</ele>
        <time>2024-12-25T14:55:15Z</time>
      </trkpt>
      <trkpt lat="44.80267" lon="1.55638">
        <ele>120.2</ele>
        <time>2024-12-25T14:55:16Z</time>
      </trkpt>
      <trkpt lat="44.80266" lon="1.55638">
        <ele>120.2</ele>
        <time>2024-12-25T14:55:17Z</time>
      </trkpt>
      <trkpt lat="44.8026" lon="1.55637">
        <ele>120.5</ele>
        <time>2024-12-25T14:55:18Z</time>
      </trkpt>
      <trkpt lat="44.80258" lon="1.55637">
        <ele>120.6</ele>
        <time>2024-12-25T14:55:20Z</time>
      </trkpt>
      <trkpt lat="44.80257" lon="1.55638">
        <ele>120.7</ele>
        <time>2024-12-25T14:55:21Z</time>
      </trkpt>
      <trkpt lat="44.80256" lon="1.55638">
        <ele>120.7</ele>
        <time>2024-12-25T14:55:22Z</time>
      </trkpt>
      <trkpt lat="44.80255" lon="1.55639">
        <ele>120.8</ele>
        <time>2024-12-25T14:55:24Z</time>
      </trkpt>
      <trkpt lat="44.80254" lon="1.55639">
        <ele>120.8</ele>
        <time>2024-12-25T14:55:25Z</time>
      </trkpt>
      <trkpt lat="44.80252" lon="1.5564">
        <ele>120.9</ele>
        <time>2024-12-25T14:55:26Z</time>
      </trkpt>
      <trkpt lat="44.80251" lon="1.5564">
        <ele>121</ele>
        <time>2024-12-25T14:55:27Z</time>
      </trkpt>
      <trkpt lat="44.80249" lon="1.5564">
        <ele>121.1</ele>
        <time>2024-12-25T14:55:28Z</time>
      </trkpt>
      <trkpt lat="44.80248" lon="1.5564">
        <ele>121.1</ele>
        <time>2024-12-25T14:55:29Z</time>
      </trkpt>
      <trkpt lat="44.80246" lon="1.5564">
        <ele>121.2</ele>
        <time>2024-12-25T14:55:30Z</time>
      </trkpt>
      <trkpt lat="44.80242" lon="1.5564">
        <ele>121.4</ele>
        <time>2024-12-25T14:55:31Z</time>
      </trkpt>
      <trkpt lat="44.80241" lon="1.5564">
        <ele>121.5</ele>
        <time>2024-12-25T14:55:33Z</time>
      </trkpt>
      <trkpt lat="44.8024" lon="1.5564">
        <ele>121.5</ele>
        <time>2024-12-25T14:55:34Z</time>
      </trkpt>
      <trkpt lat="44.80239" lon="1.5564">
        <ele>121.6</ele>
        <time>2024-12-25T14:55:35Z</time>
      </trkpt>
      <trkpt lat="44.80238" lon="1.55641">
        <ele>121.6</ele>
        <time>2024-12-25T14:55:36Z</time>
      </trkpt>
      <trkpt lat="44.80236" lon="1.55641">
        <ele>121.7</ele>
        <time>2024-12-25T14:55:37Z</time>
      </trkpt>
      <trkpt lat="44.80234" lon="1.55641">
        <ele>121.8</ele>
        <time>2024-12-25T14:55:39Z</time>
      </trkpt>
      <trkpt lat="44.80233" lon="1.55642">
        <ele>121.9</ele>
        <time>2024-12-25T14:55:40Z</time>
      </trkpt>
      <trkpt lat="44.80233" lon="1.55642">
        <ele>121.9</ele>
        <time>2024-12-25T14:55:41Z</time>
      </trkpt>
      <trkpt lat="44.80233" lon="1.55642">
        <ele>121.9</ele>
        <time>2024-12-25T14:55:42Z</time>
      </trkpt>
      <trkpt lat="44.80232" lon="1.55642">
        <ele>121.9</ele>
        <time>2024-12-25T14:55:43Z</time>
      </trkpt>
      <trkpt lat="44.80232" lon="1.55643">
        <ele>121.9</ele>
        <time>2024-12-25T14:55:44Z</time>
      </trkpt>
      <trkpt lat="44.80232" lon="1.55643">
        <ele>121.9</ele>
        <time>2024-12-25T14:55:45Z</time>
      </trkpt>
      <trkpt lat="44.80232" lon="1.55643">
        <ele>122</ele>
        <time>2024-12-25T14:55:46Z</time>
      </trkpt>
      <trkpt lat="44.80233" lon="1.55644">
        <ele>122</ele>
        <time>2024-12-25T14:55:47Z</time>
      </trkpt>
      <trkpt lat="44.80233" lon="1.55644">
        <ele>122</ele>
        <time>2024-12-25T14:55:48Z</time>
      </trkpt>
      <trkpt lat="44.80233" lon="1.55644">
        <ele>122</ele>
        <time>2024-12-25T14:55:49Z</time>
      </trkpt>
      <trkpt lat="44.80233" lon="1.55644">
        <ele>122</ele>
        <time>2024-12-25T14:55:50Z</time>
      </trkpt>
      <trkpt lat="44.80232" lon="1.55643">
        <ele>122</ele>
        <time>2024-12-25T14:55:51Z</time>
      </trkpt>
      <trkpt lat="44.80232" lon="1.55643">
        <ele>122</ele>
        <time>2024-12-25T14:55:53Z</time>
      </trkpt>
      <trkpt lat="44.80231" lon="1.55643">
        <ele>122.1</ele>
        <time>2024-12-25T14:55:54Z</time>
      </trkpt>
      <trkpt lat="44.80227" lon="1.55643">
        <ele>122.2</ele>
        <time>2024-12-25T14:55:55Z</time>
      </trkpt>
      <trkpt lat="44.80225" lon="1.55643">
        <ele>122.3</ele>
        <time>2024-12-25T14:55:56Z</time>
      </trkpt>
      <trkpt lat="44.80223" lon="1.55643">
        <ele>122.4</ele>
        <time>2024-12-25T14:55:58Z</time>
      </trkpt>
      <trkpt lat="44.8022" lon="1.55643">
        <ele>122.5</ele>
        <time>2024-12-25T14:55:59Z</time>
      </trkpt>
      <trkpt lat="44.80219" lon="1.55644">
        <ele>122.5</ele>
        <time>2024-12-25T14:56:00Z</time>
      </trkpt>
      <trkpt lat="44.80219" lon="1.55645">
        <ele>122.6</ele>
        <time>2024-12-25T14:56:01Z</time>
      </trkpt>
      <trkpt lat="44.80215" lon="1.55647">
        <ele>122.7</ele>
        <time>2024-12-25T14:56:02Z</time>
      </trkpt>
      <trkpt lat="44.80214" lon="1.55648">
        <ele>122.8</ele>
        <time>2024-12-25T14:56:03Z</time>
      </trkpt>
      <trkpt lat="44.80211" lon="1.55648">
        <ele>122.9</ele>
        <time>2024-12-25T14:56:04Z</time>
      </trkpt>
      <trkpt lat="44.8021" lon="1.55648">
        <ele>123</ele>
        <time>2024-12-25T14:56:06Z</time>
      </trkpt>
      <trkpt lat="44.80209" lon="1.55649">
        <ele>123</ele>
        <time>2024-12-25T14:56:07Z</time>
      </trkpt>
      <trkpt lat="44.80208" lon="1.55649">
        <ele>123</ele>
        <time>2024-12-25T14:56:08Z</time>
      </trkpt>
      <trkpt lat="44.80207" lon="1.55649">
        <ele>123.1</ele>
        <time>2024-12-25T14:56:09Z</time>
      </trkpt>
      <trkpt lat="44.80204" lon="1.55651">
        <ele>123.2</ele>
        <time>2024-12-25T14:56:10Z</time>
      </trkpt>
      <trkpt lat="44.80201" lon="1.55653">
        <ele>123.3</ele>
        <time>2024-12-25T14:56:11Z</time>
      </trkpt>
      <trkpt lat="44.802" lon="1.55653">
        <ele>123.4</ele>
        <time>2024-12-25T14:56:13Z</time>
      </trkpt>
      <trkpt lat="44.80199" lon="1.55654">
        <ele>123.4</ele>
        <time>2024-12-25T14:56:14Z</time>
      </trkpt>
      <trkpt lat="44.80198" lon="1.55655">
        <ele>123.4</ele>
        <time>2024-12-25T14:56:16Z</time>
      </trkpt>
      <trkpt lat="44.80197" lon="1.55656">
        <ele>123.5</ele>
        <time>2024-12-25T14:56:17Z</time>
      </trkpt>
      <trkpt lat="44.80196" lon="1.55657">
        <ele>123.5</ele>
        <time>2024-12-25T14:56:18Z</time>
      </trkpt>
      <trkpt lat="44.80195" lon="1.55657">
        <ele>123.6</ele>
        <time>2024-12-25T14:56:19Z</time>
      </trkpt>
      <trkpt lat="44.80191" lon="1.55657">
        <ele>123.7</ele>
        <time>2024-12-25T14:56:20Z</time>
      </trkpt>
      <trkpt lat="44.80188" lon="1.55657">
        <ele>123.8</ele>
        <time>2024-12-25T14:56:21Z</time>
      </trkpt>
      <trkpt lat="44.80187" lon="1.55658">
        <ele>123.9</ele>
        <time>2024-12-25T14:56:23Z</time>
      </trkpt>
      <trkpt lat="44.80186" lon="1.55659">
        <ele>124</ele>
        <time>2024-12-25T14:56:24Z</time>
      </trkpt>
      <trkpt lat="44.80185" lon="1.5566">
        <ele>124</ele>
        <time>2024-12-25T14:56:26Z</time>
      </trkpt>
      <trkpt lat="44.80184" lon="1.55661">
        <ele>124.1</ele>
        <time>2024-12-25T14:56:27Z</time>
      </trkpt>
      <trkpt lat="44.80183" lon="1.55661">
        <ele>124.1</ele>
        <time>2024-12-25T14:56:28Z</time>
      </trkpt>
      <trkpt lat="44.80182" lon="1.55662">
        <ele>124.2</ele>
        <time>2024-12-25T14:56:29Z</time>
      </trkpt>
      <trkpt lat="44.80178" lon="1.55664">
        <ele>124.4</ele>
        <time>2024-12-25T14:56:30Z</time>
      </trkpt>
      <trkpt lat="44.80176" lon="1.55664">
        <ele>124.4</ele>
        <time>2024-12-25T14:56:32Z</time>
      </trkpt>
      <trkpt lat="44.80174" lon="1.55665">
        <ele>124.5</ele>
        <time>2024-12-25T14:56:33Z</time>
      </trkpt>
      <trkpt lat="44.80171" lon="1.55666">
        <ele>124.6</ele>
        <time>2024-12-25T14:56:34Z</time>
      </trkpt>
      <trkpt lat="44.8017" lon="1.55666">
        <ele>124.7</ele>
        <time>2024-12-25T14:56:36Z</time>
      </trkpt>
      <trkpt lat="44.80169" lon="1.55666">
        <ele>124.7</ele>
        <time>2024-12-25T14:56:37Z</time>
      </trkpt>
      <trkpt lat="44.80167" lon="1.55667">
        <ele>124.8</ele>
        <time>2024-12-25T14:56:38Z</time>
      </trkpt>
      <trkpt lat="44.80166" lon="1.55667">
        <ele>124.9</ele>
        <time>2024-12-25T14:56:39Z</time>
      </trkpt>
      <trkpt lat="44.80164" lon="1.55668">
        <ele>124.9</ele>
        <time>2024-12-25T14:56:41Z</time>
      </trkpt>
      <trkpt lat="44.80162" lon="1.5567">
        <ele>125</ele>
        <time>2024-12-25T14:56:42Z</time>
      </trkpt>
      <trkpt lat="44.80161" lon="1.5567">
        <ele>125.1</ele>
        <time>2024-12-25T14:56:43Z</time>
      </trkpt>
      <trkpt lat="44.80159" lon="1.55671">
        <ele>125.1</ele>
        <time>2024-12-25T14:56:45Z</time>
      </trkpt>
      <trkpt lat="44.80158" lon="1.55671">
        <ele>125.2</ele>
        <time>2024-12-25T14:56:46Z</time>
      </trkpt>
      <trkpt lat="44.80157" lon="1.55671">
        <ele>125.2</ele>
        <time>2024-12-25T14:56:47Z</time>
      </trkpt>
      <trkpt lat="44.80153" lon="1.55673">
        <ele>125.4</ele>
        <time>2024-12-25T14:56:48Z</time>
      </trkpt>
      <trkpt lat="44.8015" lon="1.55674">
        <ele>125.5</ele>
        <time>2024-12-25T14:56:49Z</time>
      </trkpt>
      <trkpt lat="44.80149" lon="1.55675">
        <ele>125.5</ele>
        <time>2024-12-25T14:56:51Z</time>
      </trkpt>
      <trkpt lat="44.80148" lon="1.55676">
        <ele>125.6</ele>
        <time>2024-12-25T14:56:52Z</time>
      </trkpt>
      <trkpt lat="44.80147" lon="1.55677">
        <ele>125.6</ele>
        <time>2024-12-25T14:56:53Z</time>
      </trkpt>
      <trkpt lat="44.80147" lon="1.55678">
        <ele>125.6</ele>
        <time>2024-12-25T14:56:54Z</time>
      </trkpt>
      <trkpt lat="44.80146" lon="1.55679">
        <ele>125.7</ele>
        <time>2024-12-25T14:56:55Z</time>
      </trkpt>
      <trkpt lat="44.80144" lon="1.5568">
        <ele>125.8</ele>
        <time>2024-12-25T14:56:56Z</time>
      </trkpt>
      <trkpt lat="44.8014" lon="1.55681">
        <ele>125.9</ele>
        <time>2024-12-25T14:56:58Z</time>
      </trkpt>
      <trkpt lat="44.80137" lon="1.55683">
        <ele>126</ele>
        <time>2024-12-25T14:57:00Z</time>
      </trkpt>
      <trkpt lat="44.80136" lon="1.55684">
        <ele>126.1</ele>
        <time>2024-12-25T14:57:01Z</time>
      </trkpt>
      <trkpt lat="44.80135" lon="1.55687">
        <ele>126.2</ele>
        <time>2024-12-25T14:57:03Z</time>
      </trkpt>
      <trkpt lat="44.80135" lon="1.55688">
        <ele>126.2</ele>
        <time>2024-12-25T14:57:04Z</time>
      </trkpt>
      <trkpt lat="44.80132" lon="1.5569">
        <ele>126.3</ele>
        <time>2024-12-25T14:57:05Z</time>
      </trkpt>
      <trkpt lat="44.80131" lon="1.55692">
        <ele>126.4</ele>
        <time>2024-12-25T14:57:06Z</time>
      </trkpt>
      <trkpt lat="44.8013" lon="1.55693">
        <ele>126.4</ele>
        <time>2024-12-25T14:57:07Z</time>
      </trkpt>
      <trkpt lat="44.80128" lon="1.55695">
        <ele>126.5</ele>
        <time>2024-12-25T14:57:09Z</time>
      </trkpt>
      <trkpt lat="44.80127" lon="1.55696">
        <ele>126.6</ele>
        <time>2024-12-25T14:57:10Z</time>
      </trkpt>
      <trkpt lat="44.80126" lon="1.55697">
        <ele>126.6</ele>
        <time>2024-12-25T14:57:11Z</time>
      </trkpt>
      <trkpt lat="44.80126" lon="1.55698">
        <ele>126.6</ele>
        <time>2024-12-25T14:57:12Z</time>
      </trkpt>
      <trkpt lat="44.80125" lon="1.55701">
        <ele>126.7</ele>
        <time>2024-12-25T14:57:13Z</time>
      </trkpt>
      <trkpt lat="44.80124" lon="1.55702">
        <ele>126.7</ele>
        <time>2024-12-25T14:57:14Z</time>
      </trkpt>
      <trkpt lat="44.80123" lon="1.55703">
        <ele>126.8</ele>
        <time>2024-12-25T14:57:15Z</time>
      </trkpt>
      <trkpt lat="44.80121" lon="1.55706">
        <ele>126.9</ele>
        <time>2024-12-25T14:57:16Z</time>
      </trkpt>
      <trkpt lat="44.80119" lon="1.55708">
        <ele>127</ele>
        <time>2024-12-25T14:57:18Z</time>
      </trkpt>
      <trkpt lat="44.80119" lon="1.55709">
        <ele>127</ele>
        <time>2024-12-25T14:57:20Z</time>
      </trkpt>
      <trkpt lat="44.80119" lon="1.5571">
        <ele>127.1</ele>
        <time>2024-12-25T14:57:21Z</time>
      </trkpt>
      <trkpt lat="44.80118" lon="1.55711">
        <ele>127.1</ele>
        <time>2024-12-25T14:57:22Z</time>
      </trkpt>
      <trkpt lat="44.80117" lon="1.55713">
        <ele>127.2</ele>
        <time>2024-12-25T14:57:23Z</time>
      </trkpt>
      <trkpt lat="44.80114" lon="1.55717">
        <ele>127.3</ele>
        <time>2024-12-25T14:57:24Z</time>
      </trkpt>
      <trkpt lat="44.80112" lon="1.55718">
        <ele>127.4</ele>
        <time>2024-12-25T14:57:26Z</time>
      </trkpt>
      <trkpt lat="44.80111" lon="1.5572">
        <ele>127.5</ele>
        <time>2024-12-25T14:57:27Z</time>
      </trkpt>
      <trkpt lat="44.8011" lon="1.55721">
        <ele>127.5</ele>
        <time>2024-12-25T14:57:29Z</time>
      </trkpt>
      <trkpt lat="44.8011" lon="1.55722">
        <ele>127.6</ele>
        <time>2024-12-25T14:57:30Z</time>
      </trkpt>
      <trkpt lat="44.80109" lon="1.55723">
        <ele>127.6</ele>
        <time>2024-12-25T14:57:31Z</time>
      </trkpt>
      <trkpt lat="44.80108" lon="1.55725">
        <ele>127.7</ele>
        <time>2024-12-25T14:57:32Z</time>
      </trkpt>
      <trkpt lat="44.80104" lon="1.55727">
        <ele>127.9</ele>
        <time>2024-12-25T14:57:33Z</time>
      </trkpt>
      <trkpt lat="44.80102" lon="1.55728">
        <ele>128</ele>
        <time>2024-12-25T14:57:35Z</time>
      </trkpt>
      <trkpt lat="44.801" lon="1.55729">
        <ele>128.1</ele>
        <time>2024-12-25T14:57:36Z</time>
      </trkpt>
      <trkpt lat="44.80099" lon="1.5573">
        <ele>128.1</ele>
        <time>2024-12-25T14:57:38Z</time>
      </trkpt>
      <trkpt lat="44.80098" lon="1.55731">
        <ele>128.2</ele>
        <time>2024-12-25T14:57:39Z</time>
      </trkpt>
      <trkpt lat="44.80097" lon="1.55732">
        <ele>128.2</ele>
        <time>2024-12-25T14:57:40Z</time>
      </trkpt>
      <trkpt lat="44.80094" lon="1.55734">
        <ele>128.4</ele>
        <time>2024-12-25T14:57:41Z</time>
      </trkpt>
      <trkpt lat="44.80093" lon="1.55734">
        <ele>128.4</ele>
        <time>2024-12-25T14:57:42Z</time>
      </trkpt>
      <trkpt lat="44.80091" lon="1.55734">
        <ele>128.5</ele>
        <time>2024-12-25T14:57:43Z</time>
      </trkpt>
      <trkpt lat="44.80089" lon="1.55734">
        <ele>128.6</ele>
        <time>2024-12-25T14:57:44Z</time>
      </trkpt>
      <trkpt lat="44.80089" lon="1.55734">
        <ele>128.6</ele>
        <time>2024-12-25T14:57:46Z</time>
      </trkpt>
      <trkpt lat="44.80088" lon="1.55735">
        <ele>128.7</ele>
        <time>2024-12-25T14:57:47Z</time>
      </trkpt>
      <trkpt lat="44.80086" lon="1.55735">
        <ele>128.7</ele>
        <time>2024-12-25T14:57:48Z</time>
      </trkpt>
      <trkpt lat="44.80083" lon="1.55734">
        <ele>128.9</ele>
        <time>2024-12-25T14:57:49Z</time>
      </trkpt>
      <trkpt lat="44.8008" lon="1.55734">
        <ele>129</ele>
        <time>2024-12-25T14:57:51Z</time>
      </trkpt>
      <trkpt lat="44.80079" lon="1.55734">
        <ele>129.1</ele>
        <time>2024-12-25T14:57:52Z</time>
      </trkpt>
      <trkpt lat="44.80078" lon="1.55734">
        <ele>129.1</ele>
        <time>2024-12-25T14:57:54Z</time>
      </trkpt>
      <trkpt lat="44.80077" lon="1.55733">
        <ele>129.2</ele>
        <time>2024-12-25T14:57:55Z</time>
      </trkpt>
      <trkpt lat="44.80076" lon="1.55733">
        <ele>129.2</ele>
        <time>2024-12-25T14:57:56Z</time>
      </trkpt>
      <trkpt lat="44.80073" lon="1.55733">
        <ele>129.4</ele>
        <time>2024-12-25T14:57:57Z</time>
      </trkpt>
      <trkpt lat="44.80072" lon="1.55732">
        <ele>129.4</ele>
        <time>2024-12-25T14:57:58Z</time>
      </trkpt>
      <trkpt lat="44.80069" lon="1.55732">
        <ele>129.6</ele>
        <time>2024-12-25T14:57:59Z</time>
      </trkpt>
      <trkpt lat="44.80067" lon="1.5573">
        <ele>129.6</ele>
        <time>2024-12-25T14:58:01Z</time>
      </trkpt>
      <trkpt lat="44.80067" lon="1.5573">
        <ele>129.7</ele>
        <time>2024-12-25T14:58:02Z</time>
      </trkpt>
      <trkpt lat="44.80066" lon="1.5573">
        <ele>129.7</ele>
        <time>2024-12-25T14:58:03Z</time>
      </trkpt>
      <trkpt lat="44.80065" lon="1.55729">
        <ele>129.7</ele>
        <time>2024-12-25T14:58:04Z</time>
      </trkpt>
      <trkpt lat="44.80062" lon="1.55728">
        <ele>129.9</ele>
        <time>2024-12-25T14:58:05Z</time>
      </trkpt>
      <trkpt lat="44.8006" lon="1.55729">
        <ele>130</ele>
        <time>2024-12-25T14:58:07Z</time>
      </trkpt>
      <trkpt lat="44.80059" lon="1.55729">
        <ele>130</ele>
        <time>2024-12-25T14:58:08Z</time>
      </trkpt>
      <trkpt lat="44.80059" lon="1.55729">
        <ele>130.1</ele>
        <time>2024-12-25T14:58:09Z</time>
      </trkpt>
      <trkpt lat="44.80057" lon="1.55729">
        <ele>130.2</ele>
        <time>2024-12-25T14:58:10Z</time>
      </trkpt>
      <trkpt lat="44.80056" lon="1.55729">
        <ele>130.2</ele>
        <time>2024-12-25T14:58:11Z</time>
      </trkpt>
      <trkpt lat="44.80055" lon="1.55728">
        <ele>130.3</ele>
        <time>2024-12-25T14:58:12Z</time>
      </trkpt>
      <trkpt lat="44.80052" lon="1.55727">
        <ele>130.4</ele>
        <time>2024-12-25T14:58:13Z</time>
      </trkpt>
      <trkpt lat="44.80051" lon="1.55726">
        <ele>130.5</ele>
        <time>2024-12-25T14:58:14Z</time>
      </trkpt>
      <trkpt lat="44.8005" lon="1.55725">
        <ele>130.5</ele>
        <time>2024-12-25T14:58:15Z</time>
      </trkpt>
      <trkpt lat="44.80049" lon="1.55725">
        <ele>130.6</ele>
        <time>2024-12-25T14:58:16Z</time>
      </trkpt>
      <trkpt lat="44.80048" lon="1.55725">
        <ele>130.6</ele>
        <time>2024-12-25T14:58:17Z</time>
      </trkpt>
      <trkpt lat="44.80046" lon="1.55724">
        <ele>130.7</ele>
        <time>2024-12-25T14:58:18Z</time>
      </trkpt>
      <trkpt lat="44.80044" lon="1.55724">
        <ele>130.8</ele>
        <time>2024-12-25T14:58:19Z</time>
      </trkpt>
      <trkpt lat="44.80043" lon="1.55723">
        <ele>130.9</ele>
        <time>2024-12-25T14:58:20Z</time>
      </trkpt>
      <trkpt lat="44.80041" lon="1.55722">
        <ele>131</ele>
        <time>2024-12-25T14:58:22Z</time>
      </trkpt>
      <trkpt lat="44.80039" lon="1.55721">
        <ele>131.1</ele>
        <time>2024-12-25T14:58:23Z</time>
      </trkpt>
      <trkpt lat="44.80038" lon="1.55721">
        <ele>131.1</ele>
        <time>2024-12-25T14:58:25Z</time>
      </trkpt>
      <trkpt lat="44.80037" lon="1.5572">
        <ele>131.2</ele>
        <time>2024-12-25T14:58:26Z</time>
      </trkpt>
      <trkpt lat="44.80036" lon="1.55719">
        <ele>131.2</ele>
        <time>2024-12-25T14:58:27Z</time>
      </trkpt>
      <trkpt lat="44.80033" lon="1.55717">
        <ele>131.4</ele>
        <time>2024-12-25T14:58:28Z</time>
      </trkpt>
      <trkpt lat="44.80031" lon="1.55716">
        <ele>131.5</ele>
        <time>2024-12-25T14:58:30Z</time>
      </trkpt>
      <trkpt lat="44.80029" lon="1.55715">
        <ele>131.6</ele>
        <time>2024-12-25T14:58:31Z</time>
      </trkpt>
      <trkpt lat="44.80028" lon="1.55715">
        <ele>131.6</ele>
        <time>2024-12-25T14:58:33Z</time>
      </trkpt>
      <trkpt lat="44.80027" lon="1.55713">
        <ele>131.7</ele>
        <time>2024-12-25T14:58:34Z</time>
      </trkpt>
      <trkpt lat="44.80026" lon="1.55712">
        <ele>131.8</ele>
        <time>2024-12-25T14:58:35Z</time>
      </trkpt>
      <trkpt lat="44.80023" lon="1.5571">
        <ele>131.9</ele>
        <time>2024-12-25T14:58:36Z</time>
      </trkpt>
      <trkpt lat="44.80022" lon="1.55709">
        <ele>132</ele>
        <time>2024-12-25T14:58:38Z</time>
      </trkpt>
      <trkpt lat="44.8002" lon="1.55708">
        <ele>132.1</ele>
        <time>2024-12-25T14:58:39Z</time>
      </trkpt>
      <trkpt lat="44.80019" lon="1.55708">
        <ele>132.1</ele>
        <time>2024-12-25T14:58:40Z</time>
      </trkpt>
      <trkpt lat="44.80018" lon="1.55708">
        <ele>132.2</ele>
        <time>2024-12-25T14:58:41Z</time>
      </trkpt>
      <trkpt lat="44.80018" lon="1.55708">
        <ele>132.2</ele>
        <time>2024-12-25T14:58:42Z</time>
      </trkpt>
      <trkpt lat="44.80016" lon="1.55707">
        <ele>132.3</ele>
        <time>2024-12-25T14:58:43Z</time>
      </trkpt>
      <trkpt lat="44.80013" lon="1.55703">
        <ele>132.5</ele>
        <time>2024-12-25T14:58:44Z</time>
      </trkpt>
      <trkpt lat="44.80011" lon="1.55702">
        <ele>132.6</ele>
        <time>2024-12-25T14:58:46Z</time>
      </trkpt>
      <trkpt lat="44.8001" lon="1.55701">
        <ele>132.6</ele>
        <time>2024-12-25T14:58:48Z</time>
      </trkpt>
      <trkpt lat="44.80009" lon="1.55701">
        <ele>132.7</ele>
        <time>2024-12-25T14:58:49Z</time>
      </trkpt>
      <trkpt lat="44.80007" lon="1.557">
        <ele>132.7</ele>
        <time>2024-12-25T14:58:50Z</time>
      </trkpt>
      <trkpt lat="44.80006" lon="1.55699">
        <ele>132.8</ele>
        <time>2024-12-25T14:58:51Z</time>
      </trkpt>
      <trkpt lat="44.80005" lon="1.55698">
        <ele>132.9</ele>
        <time>2024-12-25T14:58:52Z</time>
      </trkpt>
      <trkpt lat="44.80003" lon="1.55697">
        <ele>133</ele>
        <time>2024-12-25T14:58:53Z</time>
      </trkpt>
      <trkpt lat="44.80002" lon="1.55696">
        <ele>133</ele>
        <time>2024-12-25T14:58:54Z</time>
      </trkpt>
      <trkpt lat="44.80001" lon="1.55695">
        <ele>133.1</ele>
        <time>2024-12-25T14:58:55Z</time>
      </trkpt>
      <trkpt lat="44.8" lon="1.55695">
        <ele>133.1</ele>
        <time>2024-12-25T14:58:56Z</time>
      </trkpt>
      <trkpt lat="44.79999" lon="1.55695">
        <ele>133.2</ele>
        <time>2024-12-25T14:58:57Z</time>
      </trkpt>
      <trkpt lat="44.79997" lon="1.55694">
        <ele>133.2</ele>
        <time>2024-12-25T14:58:58Z</time>
      </trkpt>
      <trkpt lat="44.79995" lon="1.55692">
        <ele>133.4</ele>
        <time>2024-12-25T14:58:59Z</time>
      </trkpt>
      <trkpt lat="44.79993" lon="1.5569">
        <ele>133.4</ele>
        <time>2024-12-25T14:59:01Z</time>
      </trkpt>
      <trkpt lat="44.79992" lon="1.5569">
        <ele>133.5</ele>
        <time>2024-12-25T14:59:02Z</time>
      </trkpt>
      <trkpt lat="44.79991" lon="1.55691">
        <ele>133.5</ele>
        <time>2024-12-25T14:59:03Z</time>
      </trkpt>
      <trkpt lat="44.7999" lon="1.55691">
        <ele>133.5</ele>
        <time>2024-12-25T14:59:04Z</time>
      </trkpt>
      <trkpt lat="44.79989" lon="1.55692">
        <ele>133.6</ele>
        <time>2024-12-25T14:59:05Z</time>
      </trkpt>
      <trkpt lat="44.79988" lon="1.55692">
        <ele>133.6</ele>
        <time>2024-12-25T14:59:06Z</time>
      </trkpt>
      <trkpt lat="44.79985" lon="1.55693">
        <ele>133.7</ele>
        <time>2024-12-25T14:59:07Z</time>
      </trkpt>
      <trkpt lat="44.79983" lon="1.55693">
        <ele>133.8</ele>
        <time>2024-12-25T14:59:09Z</time>
      </trkpt>
      <trkpt lat="44.79981" lon="1.55693">
        <ele>133.8</ele>
        <time>2024-12-25T14:59:10Z</time>
      </trkpt>
      <trkpt lat="44.79981" lon="1.55694">
        <ele>133.8</ele>
        <time>2024-12-25T14:59:11Z</time>
      </trkpt>
      <trkpt lat="44.79981" lon="1.55694">
        <ele>133.8</ele>
        <time>2024-12-25T14:59:12Z</time>
      </trkpt>
      <trkpt lat="44.79978" lon="1.55695">
        <ele>133.8</ele>
        <time>2024-12-25T14:59:13Z</time>
      </trkpt>
      <trkpt lat="44.79977" lon="1.55695">
        <ele>133.8</ele>
        <time>2024-12-25T14:59:15Z</time>
      </trkpt>
      <trkpt lat="44.79976" lon="1.55696">
        <ele>133.8</ele>
        <time>2024-12-25T14:59:16Z</time>
      </trkpt>
      <trkpt lat="44.79975" lon="1.55697">
        <ele>133.8</ele>
        <time>2024-12-25T14:59:17Z</time>
      </trkpt>
      <trkpt lat="44.79974" lon="1.55701">
        <ele>133.8</ele>
        <time>2024-12-25T14:59:18Z</time>
      </trkpt>
      <trkpt lat="44.79973" lon="1.55702">
        <ele>133.8</ele>
        <time>2024-12-25T14:59:20Z</time>
      </trkpt>
      <trkpt lat="44.79973" lon="1.55703">
        <ele>133.8</ele>
        <time>2024-12-25T14:59:21Z</time>
      </trkpt>
      <trkpt lat="44.79972" lon="1.55705">
        <ele>133.8</ele>
        <time>2024-12-25T14:59:22Z</time>
      </trkpt>
      <trkpt lat="44.79972" lon="1.55706">
        <ele>133.8</ele>
        <time>2024-12-25T14:59:23Z</time>
      </trkpt>
      <trkpt lat="44.79973" lon="1.55708">
        <ele>133.8</ele>
        <time>2024-12-25T14:59:24Z</time>
      </trkpt>
      <trkpt lat="44.79974" lon="1.55709">
        <ele>133.9</ele>
        <time>2024-12-25T14:59:25Z</time>
      </trkpt>
      <trkpt lat="44.79975" lon="1.55711">
        <ele>133.9</ele>
        <time>2024-12-25T14:59:26Z</time>
      </trkpt>
      <trkpt lat="44.79975" lon="1.55712">
        <ele>133.9</ele>
        <time>2024-12-25T14:59:27Z</time>
      </trkpt>
      <trkpt lat="44.79976" lon="1.55712">
        <ele>133.9</ele>
        <time>2024-12-25T14:59:28Z</time>
      </trkpt>
      <trkpt lat="44.79976" lon="1.55712">
        <ele>133.9</ele>
        <time>2024-12-25T14:59:29Z</time>
      </trkpt>
      <trkpt lat="44.79976" lon="1.55712">
        <ele>133.9</ele>
        <time>2024-12-25T14:59:30Z</time>
      </trkpt>
      <trkpt lat="44.79976" lon="1.55712">
        <ele>133.9</ele>
        <time>2024-12-25T14:59:31Z</time>
      </trkpt>
      <trkpt lat="44.79975" lon="1.55711">
        <ele>133.9</ele>
        <time>2024-12-25T14:59:32Z</time>
      </trkpt>
      <trkpt lat="44.79975" lon="1.55711">
        <ele>133.9</ele>
        <time>2024-12-25T14:59:33Z</time>
      </trkpt>
      <trkpt lat="44.79975" lon="1.55711">
        <ele>133.9</ele>
        <time>2024-12-25T14:59:34Z</time>
      </trkpt>
      <trkpt lat="44.79975" lon="1.55711">
        <ele>133.9</ele>
        <time>2024-12-25T14:59:35Z</time>
      </trkpt>
      <trkpt lat="44.79975" lon="1.55711">
        <ele>133.9</ele>
        <time>2024-12-25T14:59:36Z</time>
      </trkpt>
      <trkpt lat="44.79975" lon="1.55711">
        <ele>133.9</ele>
        <time>2024-12-25T14:59:37Z</time>
      </trkpt>
      <trkpt lat="44.79975" lon="1.55711">
        <ele>133.9</ele>
        <time>2024-12-25T14:59:38Z</time>
      </trkpt>
      <trkpt lat="44.79975" lon="1.55711">
        <ele>133.9</ele>
        <time>2024-12-25T14:59:39Z</time>
      </trkpt>
      <trkpt lat="44.79975" lon="1.55711">
        <ele>133.9</ele>
        <time>2024-12-25T14:59:40Z</time>
      </trkpt>
      <trkpt lat="44.79975" lon="1.55711">
        <ele>133.9</ele>
        <time>2024-12-25T14:59:41Z</time>
      </trkpt>
      <trkpt lat="44.79975" lon="1.55712">
        <ele>133.9</ele>
        <time>2024-12-25T14:59:42Z</time>
      </trkpt>
      <trkpt lat="44.79975" lon="1.55723">
        <ele>133.9</ele>
        <time>2024-12-25T14:59:46Z</time>
      </trkpt>
      <trkpt lat="44.79975" lon="1.55725">
        <ele>133.9</ele>
        <time>2024-12-25T14:59:47Z</time>
      </trkpt>
      <trkpt lat="44.79975" lon="1.55726">
        <ele>133.9</ele>
        <time>2024-12-25T14:59:48Z</time>
      </trkpt>
      <trkpt lat="44.79975" lon="1.55728">
        <ele>133.9</ele>
        <time>2024-12-25T14:59:49Z</time>
      </trkpt>
      <trkpt lat="44.79975" lon="1.5573">
        <ele>133.9</ele>
        <time>2024-12-25T14:59:50Z</time>
      </trkpt>
      <trkpt lat="44.79975" lon="1.55731">
        <ele>133.9</ele>
        <time>2024-12-25T14:59:51Z</time>
      </trkpt>
      <trkpt lat="44.79975" lon="1.55733">
        <ele>133.9</ele>
        <time>2024-12-25T14:59:52Z</time>
      </trkpt>
      <trkpt lat="44.79975" lon="1.55733">
        <ele>133.9</ele>
        <time>2024-12-25T14:59:53Z</time>
      </trkpt>
      <trkpt lat="44.79975" lon="1.55736">
        <ele>134</ele>
        <time>2024-12-25T14:59:54Z</time>
      </trkpt>
      <trkpt lat="44.79975" lon="1.55738">
        <ele>134</ele>
        <time>2024-12-25T14:59:56Z</time>
      </trkpt>
      <trkpt lat="44.79975" lon="1.5574">
        <ele>134</ele>
        <time>2024-12-25T14:59:57Z</time>
      </trkpt>
      <trkpt lat="44.79975" lon="1.55745">
        <ele>134</ele>
        <time>2024-12-25T14:59:58Z</time>
      </trkpt>
      <trkpt lat="44.79976" lon="1.55747">
        <ele>134</ele>
        <time>2024-12-25T14:59:59Z</time>
      </trkpt>
      <trkpt lat="44.79976" lon="1.55749">
        <ele>134</ele>
        <time>2024-12-25T15:00:01Z</time>
      </trkpt>
      <trkpt lat="44.79975" lon="1.55751">
        <ele>134.1</ele>
        <time>2024-12-25T15:00:02Z</time>
      </trkpt>
      <trkpt lat="44.79975" lon="1.55753">
        <ele>134.1</ele>
        <time>2024-12-25T15:00:03Z</time>
      </trkpt>
      <trkpt lat="44.79975" lon="1.55756">
        <ele>134.1</ele>
        <time>2024-12-25T15:00:04Z</time>
      </trkpt>
      <trkpt lat="44.79975" lon="1.55757">
        <ele>134.1</ele>
        <time>2024-12-25T15:00:05Z</time>
      </trkpt>
      <trkpt lat="44.79974" lon="1.55758">
        <ele>134.1</ele>
        <time>2024-12-25T15:00:06Z</time>
      </trkpt>
      <trkpt lat="44.79973" lon="1.55759">
        <ele>134.2</ele>
        <time>2024-12-25T15:00:07Z</time>
      </trkpt>
      <trkpt lat="44.79972" lon="1.55761">
        <ele>134.2</ele>
        <time>2024-12-25T15:00:08Z</time>
      </trkpt>
      <trkpt lat="44.79973" lon="1.55763">
        <ele>134.2</ele>
        <time>2024-12-25T15:00:09Z</time>
      </trkpt>
      <trkpt lat="44.79972" lon="1.55768">
        <ele>134.3</ele>
        <time>2024-12-25T15:00:10Z</time>
      </trkpt>
      <trkpt lat="44.79972" lon="1.55769">
        <ele>134.3</ele>
        <time>2024-12-25T15:00:11Z</time>
      </trkpt>
      <trkpt lat="44.7997" lon="1.55772">
        <ele>134.4</ele>
        <time>2024-12-25T15:00:12Z</time>
      </trkpt>
      <trkpt lat="44.7997" lon="1.55774">
        <ele>134.4</ele>
        <time>2024-12-25T15:00:13Z</time>
      </trkpt>
      <trkpt lat="44.79969" lon="1.55776">
        <ele>134.4</ele>
        <time>2024-12-25T15:00:14Z</time>
      </trkpt>
      <trkpt lat="44.79968" lon="1.55777">
        <ele>134.4</ele>
        <time>2024-12-25T15:00:16Z</time>
      </trkpt>
      <trkpt lat="44.79968" lon="1.55779">
        <ele>134.5</ele>
        <time>2024-12-25T15:00:17Z</time>
      </trkpt>
      <trkpt lat="44.79967" lon="1.5578">
        <ele>134.5</ele>
        <time>2024-12-25T15:00:18Z</time>
      </trkpt>
      <trkpt lat="44.79965" lon="1.55784">
        <ele>134.6</ele>
        <time>2024-12-25T15:00:19Z</time>
      </trkpt>
      <trkpt lat="44.79965" lon="1.55786">
        <ele>134.6</ele>
        <time>2024-12-25T15:00:21Z</time>
      </trkpt>
      <trkpt lat="44.79963" lon="1.55788">
        <ele>134.7</ele>
        <time>2024-12-25T15:00:22Z</time>
      </trkpt>
      <trkpt lat="44.79962" lon="1.55789">
        <ele>134.7</ele>
        <time>2024-12-25T15:00:23Z</time>
      </trkpt>
      <trkpt lat="44.79961" lon="1.55789">
        <ele>134.7</ele>
        <time>2024-12-25T15:00:24Z</time>
      </trkpt>
      <trkpt lat="44.7996" lon="1.55791">
        <ele>134.7</ele>
        <time>2024-12-25T15:00:25Z</time>
      </trkpt>
      <trkpt lat="44.79959" lon="1.55792">
        <ele>134.8</ele>
        <time>2024-12-25T15:00:26Z</time>
      </trkpt>
      <trkpt lat="44.79958" lon="1.55793">
        <ele>134.8</ele>
        <time>2024-12-25T15:00:27Z</time>
      </trkpt>
      <trkpt lat="44.79957" lon="1.55795">
        <ele>134.9</ele>
        <time>2024-12-25T15:00:28Z</time>
      </trkpt>
      <trkpt lat="44.79955" lon="1.55797">
        <ele>134.9</ele>
        <time>2024-12-25T15:00:29Z</time>
      </trkpt>
      <trkpt lat="44.79955" lon="1.55797">
        <ele>135</ele>
        <time>2024-12-25T15:00:30Z</time>
      </trkpt>
      <trkpt lat="44.79954" lon="1.55798">
        <ele>135</ele>
        <time>2024-12-25T15:00:31Z</time>
      </trkpt>
      <trkpt lat="44.79952" lon="1.55799">
        <ele>135.1</ele>
        <time>2024-12-25T15:00:32Z</time>
      </trkpt>
      <trkpt lat="44.79951" lon="1.55801">
        <ele>135.1</ele>
        <time>2024-12-25T15:00:33Z</time>
      </trkpt>
      <trkpt lat="44.7995" lon="1.55802">
        <ele>135.2</ele>
        <time>2024-12-25T15:00:34Z</time>
      </trkpt>
      <trkpt lat="44.79949" lon="1.55802">
        <ele>135.2</ele>
        <time>2024-12-25T15:00:35Z</time>
      </trkpt>
      <trkpt lat="44.79948" lon="1.55802">
        <ele>135.2</ele>
        <time>2024-12-25T15:00:36Z</time>
      </trkpt>
      <trkpt lat="44.79947" lon="1.55802">
        <ele>135.2</ele>
        <time>2024-12-25T15:00:37Z</time>
      </trkpt>
      <trkpt lat="44.79947" lon="1.55803">
        <ele>135.3</ele>
        <time>2024-12-25T15:00:38Z</time>
      </trkpt>
      <trkpt lat="44.79945" lon="1.55804">
        <ele>135.3</ele>
        <time>2024-12-25T15:00:39Z</time>
      </trkpt>
      <trkpt lat="44.79942" lon="1.55807">
        <ele>135.5</ele>
        <time>2024-12-25T15:00:40Z</time>
      </trkpt>
      <trkpt lat="44.79939" lon="1.55807">
        <ele>135.6</ele>
        <time>2024-12-25T15:00:42Z</time>
      </trkpt>
      <trkpt lat="44.79937" lon="1.55808">
        <ele>135.7</ele>
        <time>2024-12-25T15:00:43Z</time>
      </trkpt>
      <trkpt lat="44.79936" lon="1.55809">
        <ele>135.8</ele>
        <time>2024-12-25T15:00:44Z</time>
      </trkpt>
      <trkpt lat="44.79935" lon="1.55809">
        <ele>135.8</ele>
        <time>2024-12-25T15:00:46Z</time>
      </trkpt>
      <trkpt lat="44.79934" lon="1.55809">
        <ele>135.8</ele>
        <time>2024-12-25T15:00:47Z</time>
      </trkpt>
      <trkpt lat="44.79933" lon="1.55809">
        <ele>135.9</ele>
        <time>2024-12-25T15:00:48Z</time>
      </trkpt>
      <trkpt lat="44.79932" lon="1.55809">
        <ele>135.9</ele>
        <time>2024-12-25T15:00:49Z</time>
      </trkpt>
      <trkpt lat="44.79931" lon="1.55809">
        <ele>136</ele>
        <time>2024-12-25T15:00:50Z</time>
      </trkpt>
      <trkpt lat="44.79929" lon="1.55809">
        <ele>136</ele>
        <time>2024-12-25T15:00:51Z</time>
      </trkpt>
      <trkpt lat="44.79926" lon="1.55808">
        <ele>136.2</ele>
        <time>2024-12-25T15:00:52Z</time>
      </trkpt>
      <trkpt lat="44.79926" lon="1.5581">
        <ele>136.2</ele>
        <time>2024-12-25T15:00:54Z</time>
      </trkpt>
      <trkpt lat="44.79925" lon="1.55811">
        <ele>136.3</ele>
        <time>2024-12-25T15:00:55Z</time>
      </trkpt>
      <trkpt lat="44.79924" lon="1.55812">
        <ele>136.3</ele>
        <time>2024-12-25T15:00:56Z</time>
      </trkpt>
      <trkpt lat="44.79922" lon="1.55816">
        <ele>136.5</ele>
        <time>2024-12-25T15:00:57Z</time>
      </trkpt>
      <trkpt lat="44.79919" lon="1.55817">
        <ele>136.6</ele>
        <time>2024-12-25T15:00:59Z</time>
      </trkpt>
      <trkpt lat="44.79917" lon="1.55818">
        <ele>136.7</ele>
        <time>2024-12-25T15:01:00Z</time>
      </trkpt>
      <trkpt lat="44.79915" lon="1.5582">
        <ele>136.8</ele>
        <time>2024-12-25T15:01:01Z</time>
      </trkpt>
      <trkpt lat="44.79915" lon="1.5582">
        <ele>136.8</ele>
        <time>2024-12-25T15:01:03Z</time>
      </trkpt>
      <trkpt lat="44.79914" lon="1.55819">
        <ele>136.8</ele>
        <time>2024-12-25T15:01:04Z</time>
      </trkpt>
      <trkpt lat="44.79913" lon="1.5582">
        <ele>136.9</ele>
        <time>2024-12-25T15:01:05Z</time>
      </trkpt>
      <trkpt lat="44.79911" lon="1.5582">
        <ele>137</ele>
        <time>2024-12-25T15:01:06Z</time>
      </trkpt>
      <trkpt lat="44.79907" lon="1.55821">
        <ele>137.2</ele>
        <time>2024-12-25T15:01:07Z</time>
      </trkpt>
      <trkpt lat="44.79905" lon="1.55822">
        <ele>137.3</ele>
        <time>2024-12-25T15:01:09Z</time>
      </trkpt>
      <trkpt lat="44.79904" lon="1.55822">
        <ele>137.4</ele>
        <time>2024-12-25T15:01:10Z</time>
      </trkpt>
      <trkpt lat="44.79903" lon="1.55822">
        <ele>137.4</ele>
        <time>2024-12-25T15:01:11Z</time>
      </trkpt>
      <trkpt lat="44.79902" lon="1.55823">
        <ele>137.5</ele>
        <time>2024-12-25T15:01:13Z</time>
      </trkpt>
      <trkpt lat="44.799" lon="1.55824">
        <ele>137.6</ele>
        <time>2024-12-25T15:01:14Z</time>
      </trkpt>
      <trkpt lat="44.79899" lon="1.55824">
        <ele>137.6</ele>
        <time>2024-12-25T15:01:15Z</time>
      </trkpt>
      <trkpt lat="44.79896" lon="1.55826">
        <ele>137.8</ele>
        <time>2024-12-25T15:01:16Z</time>
      </trkpt>
      <trkpt lat="44.79893" lon="1.55826">
        <ele>138</ele>
        <time>2024-12-25T15:01:18Z</time>
      </trkpt>
      <trkpt lat="44.79891" lon="1.55827">
        <ele>138.1</ele>
        <time>2024-12-25T15:01:19Z</time>
      </trkpt>
      <trkpt lat="44.7989" lon="1.55828">
        <ele>138.1</ele>
        <time>2024-12-25T15:01:20Z</time>
      </trkpt>
      <trkpt lat="44.79886" lon="1.55828">
        <ele>138.3</ele>
        <time>2024-12-25T15:01:21Z</time>
      </trkpt>
      <trkpt lat="44.79885" lon="1.55828">
        <ele>138.3</ele>
        <time>2024-12-25T15:01:23Z</time>
      </trkpt>
      <trkpt lat="44.79885" lon="1.55829">
        <ele>138.4</ele>
        <time>2024-12-25T15:01:24Z</time>
      </trkpt>
      <trkpt lat="44.79884" lon="1.55829">
        <ele>138.4</ele>
        <time>2024-12-25T15:01:25Z</time>
      </trkpt>
      <trkpt lat="44.79883" lon="1.55829">
        <ele>138.5</ele>
        <time>2024-12-25T15:01:26Z</time>
      </trkpt>
      <trkpt lat="44.79879" lon="1.5583">
        <ele>138.6</ele>
        <time>2024-12-25T15:01:27Z</time>
      </trkpt>
      <trkpt lat="44.79876" lon="1.5583">
        <ele>138.7</ele>
        <time>2024-12-25T15:01:29Z</time>
      </trkpt>
      <trkpt lat="44.79875" lon="1.5583">
        <ele>138.8</ele>
        <time>2024-12-25T15:01:30Z</time>
      </trkpt>
      <trkpt lat="44.79875" lon="1.5583">
        <ele>138.8</ele>
        <time>2024-12-25T15:01:31Z</time>
      </trkpt>
      <trkpt lat="44.79874" lon="1.55832">
        <ele>138.8</ele>
        <time>2024-12-25T15:01:32Z</time>
      </trkpt>
      <trkpt lat="44.79873" lon="1.55833">
        <ele>138.9</ele>
        <time>2024-12-25T15:01:33Z</time>
      </trkpt>
      <trkpt lat="44.79871" lon="1.55834">
        <ele>138.9</ele>
        <time>2024-12-25T15:01:34Z</time>
      </trkpt>
      <trkpt lat="44.7987" lon="1.55835">
        <ele>139</ele>
        <time>2024-12-25T15:01:35Z</time>
      </trkpt>
      <trkpt lat="44.79869" lon="1.55837">
        <ele>139.1</ele>
        <time>2024-12-25T15:01:36Z</time>
      </trkpt>
      <trkpt lat="44.79867" lon="1.55837">
        <ele>139.1</ele>
        <time>2024-12-25T15:01:37Z</time>
      </trkpt>
      <trkpt lat="44.79865" lon="1.55838">
        <ele>139.2</ele>
        <time>2024-12-25T15:01:38Z</time>
      </trkpt>
      <trkpt lat="44.79864" lon="1.55839">
        <ele>139.2</ele>
        <time>2024-12-25T15:01:39Z</time>
      </trkpt>
      <trkpt lat="44.79863" lon="1.55839">
        <ele>139.3</ele>
        <time>2024-12-25T15:01:40Z</time>
      </trkpt>
      <trkpt lat="44.7986" lon="1.55841">
        <ele>139.4</ele>
        <time>2024-12-25T15:01:41Z</time>
      </trkpt>
      <trkpt lat="44.79859" lon="1.55841">
        <ele>139.4</ele>
        <time>2024-12-25T15:01:43Z</time>
      </trkpt>
      <trkpt lat="44.79859" lon="1.55842">
        <ele>139.5</ele>
        <time>2024-12-25T15:01:44Z</time>
      </trkpt>
      <trkpt lat="44.79858" lon="1.55842">
        <ele>139.5</ele>
        <time>2024-12-25T15:01:45Z</time>
      </trkpt>
      <trkpt lat="44.79857" lon="1.55843">
        <ele>139.5</ele>
        <time>2024-12-25T15:01:46Z</time>
      </trkpt>
      <trkpt lat="44.79853" lon="1.55846">
        <ele>139.7</ele>
        <time>2024-12-25T15:01:47Z</time>
      </trkpt>
      <trkpt lat="44.7985" lon="1.55848">
        <ele>139.8</ele>
        <time>2024-12-25T15:01:49Z</time>
      </trkpt>
      <trkpt lat="44.7985" lon="1.55849">
        <ele>139.8</ele>
        <time>2024-12-25T15:01:50Z</time>
      </trkpt>
      <trkpt lat="44.79847" lon="1.55852">
        <ele>139.9</ele>
        <time>2024-12-25T15:01:51Z</time>
      </trkpt>
      <trkpt lat="44.79846" lon="1.55852">
        <ele>140</ele>
        <time>2024-12-25T15:01:53Z</time>
      </trkpt>
      <trkpt lat="44.79845" lon="1.55853">
        <ele>140</ele>
        <time>2024-12-25T15:01:54Z</time>
      </trkpt>
      <trkpt lat="44.79845" lon="1.55854">
        <ele>140</ele>
        <time>2024-12-25T15:01:55Z</time>
      </trkpt>
      <trkpt lat="44.79844" lon="1.55855">
        <ele>140.1</ele>
        <time>2024-12-25T15:01:56Z</time>
      </trkpt>
      <trkpt lat="44.79843" lon="1.55856">
        <ele>140.1</ele>
        <time>2024-12-25T15:01:57Z</time>
      </trkpt>
      <trkpt lat="44.79841" lon="1.55858">
        <ele>140.2</ele>
        <time>2024-12-25T15:01:58Z</time>
      </trkpt>
      <trkpt lat="44.79839" lon="1.55859">
        <ele>140.3</ele>
        <time>2024-12-25T15:01:59Z</time>
      </trkpt>
      <trkpt lat="44.79838" lon="1.5586">
        <ele>140.3</ele>
        <time>2024-12-25T15:02:00Z</time>
      </trkpt>
      <trkpt lat="44.79837" lon="1.55861">
        <ele>140.4</ele>
        <time>2024-12-25T15:02:01Z</time>
      </trkpt>
      <trkpt lat="44.79837" lon="1.55862">
        <ele>140.4</ele>
        <time>2024-12-25T15:02:02Z</time>
      </trkpt>
      <trkpt lat="44.79837" lon="1.55863">
        <ele>140.4</ele>
        <time>2024-12-25T15:02:03Z</time>
      </trkpt>
      <trkpt lat="44.79835" lon="1.55863">
        <ele>140.5</ele>
        <time>2024-12-25T15:02:04Z</time>
      </trkpt>
      <trkpt lat="44.79833" lon="1.55866">
        <ele>140.6</ele>
        <time>2024-12-25T15:02:05Z</time>
      </trkpt>
      <trkpt lat="44.79832" lon="1.55867">
        <ele>140.6</ele>
        <time>2024-12-25T15:02:06Z</time>
      </trkpt>
      <trkpt lat="44.79829" lon="1.55869">
        <ele>140.7</ele>
        <time>2024-12-25T15:02:07Z</time>
      </trkpt>
      <trkpt lat="44.79828" lon="1.5587">
        <ele>140.8</ele>
        <time>2024-12-25T15:02:08Z</time>
      </trkpt>
      <trkpt lat="44.79826" lon="1.55872">
        <ele>140.9</ele>
        <time>2024-12-25T15:02:09Z</time>
      </trkpt>
      <trkpt lat="44.79825" lon="1.55873">
        <ele>140.9</ele>
        <time>2024-12-25T15:02:10Z</time>
      </trkpt>
      <trkpt lat="44.79825" lon="1.55873">
        <ele>140.9</ele>
        <time>2024-12-25T15:02:12Z</time>
      </trkpt>
      <trkpt lat="44.79824" lon="1.55874">
        <ele>141</ele>
        <time>2024-12-25T15:02:13Z</time>
      </trkpt>
      <trkpt lat="44.79823" lon="1.55875">
        <ele>141</ele>
        <time>2024-12-25T15:02:14Z</time>
      </trkpt>
      <trkpt lat="44.79822" lon="1.55876">
        <ele>141</ele>
        <time>2024-12-25T15:02:15Z</time>
      </trkpt>
      <trkpt lat="44.79819" lon="1.55878">
        <ele>141.2</ele>
        <time>2024-12-25T15:02:16Z</time>
      </trkpt>
      <trkpt lat="44.79818" lon="1.55878">
        <ele>141.2</ele>
        <time>2024-12-25T15:02:17Z</time>
      </trkpt>
      <trkpt lat="44.79817" lon="1.5588">
        <ele>141.3</ele>
        <time>2024-12-25T15:02:18Z</time>
      </trkpt>
      <trkpt lat="44.79815" lon="1.55882">
        <ele>141.4</ele>
        <time>2024-12-25T15:02:19Z</time>
      </trkpt>
      <trkpt lat="44.79814" lon="1.55884">
        <ele>141.4</ele>
        <time>2024-12-25T15:02:21Z</time>
      </trkpt>
      <trkpt lat="44.79813" lon="1.55885">
        <ele>141.4</ele>
        <time>2024-12-25T15:02:22Z</time>
      </trkpt>
      <trkpt lat="44.79813" lon="1.55885">
        <ele>141.5</ele>
        <time>2024-12-25T15:02:23Z</time>
      </trkpt>
      <trkpt lat="44.7981" lon="1.55888">
        <ele>141.6</ele>
        <time>2024-12-25T15:02:24Z</time>
      </trkpt>
      <trkpt lat="44.79808" lon="1.5589">
        <ele>141.7</ele>
        <time>2024-12-25T15:02:25Z</time>
      </trkpt>
      <trkpt lat="44.79807" lon="1.55891">
        <ele>141.7</ele>
        <time>2024-12-25T15:02:27Z</time>
      </trkpt>
      <trkpt lat="44.79806" lon="1.55892">
        <ele>141.8</ele>
        <time>2024-12-25T15:02:28Z</time>
      </trkpt>
      <trkpt lat="44.79805" lon="1.55893">
        <ele>141.8</ele>
        <time>2024-12-25T15:02:29Z</time>
      </trkpt>
      <trkpt lat="44.79804" lon="1.55893">
        <ele>141.9</ele>
        <time>2024-12-25T15:02:30Z</time>
      </trkpt>
      <trkpt lat="44.79804" lon="1.55894">
        <ele>141.9</ele>
        <time>2024-12-25T15:02:31Z</time>
      </trkpt>
      <trkpt lat="44.79803" lon="1.55895">
        <ele>141.9</ele>
        <time>2024-12-25T15:02:32Z</time>
      </trkpt>
      <trkpt lat="44.79802" lon="1.55897">
        <ele>142</ele>
        <time>2024-12-25T15:02:33Z</time>
      </trkpt>
      <trkpt lat="44.79799" lon="1.559">
        <ele>142.1</ele>
        <time>2024-12-25T15:02:34Z</time>
      </trkpt>
      <trkpt lat="44.79796" lon="1.55901">
        <ele>142.2</ele>
        <time>2024-12-25T15:02:36Z</time>
      </trkpt>
      <trkpt lat="44.79796" lon="1.55902">
        <ele>142.3</ele>
        <time>2024-12-25T15:02:38Z</time>
      </trkpt>
      <trkpt lat="44.79796" lon="1.55903">
        <ele>142.3</ele>
        <time>2024-12-25T15:02:39Z</time>
      </trkpt>
      <trkpt lat="44.79795" lon="1.55904">
        <ele>142.3</ele>
        <time>2024-12-25T15:02:40Z</time>
      </trkpt>
      <trkpt lat="44.79795" lon="1.55905">
        <ele>142.4</ele>
        <time>2024-12-25T15:02:41Z</time>
      </trkpt>
      <trkpt lat="44.79792" lon="1.55908">
        <ele>142.5</ele>
        <time>2024-12-25T15:02:42Z</time>
      </trkpt>
      <trkpt lat="44.79789" lon="1.55909">
        <ele>142.7</ele>
        <time>2024-12-25T15:02:44Z</time>
      </trkpt>
      <trkpt lat="44.79786" lon="1.55911">
        <ele>142.8</ele>
        <time>2024-12-25T15:02:45Z</time>
      </trkpt>
      <trkpt lat="44.79786" lon="1.55911">
        <ele>142.8</ele>
        <time>2024-12-25T15:02:47Z</time>
      </trkpt>
      <trkpt lat="44.79785" lon="1.55912">
        <ele>142.8</ele>
        <time>2024-12-25T15:02:48Z</time>
      </trkpt>
      <trkpt lat="44.79782" lon="1.55915">
        <ele>143</ele>
        <time>2024-12-25T15:02:49Z</time>
      </trkpt>
      <trkpt lat="44.79781" lon="1.55916">
        <ele>143</ele>
        <time>2024-12-25T15:02:51Z</time>
      </trkpt>
      <trkpt lat="44.79778" lon="1.55918">
        <ele>143.2</ele>
        <time>2024-12-25T15:02:52Z</time>
      </trkpt>
      <trkpt lat="44.79777" lon="1.55919">
        <ele>143.3</ele>
        <time>2024-12-25T15:02:53Z</time>
      </trkpt>
      <trkpt lat="44.79777" lon="1.5592">
        <ele>143.3</ele>
        <time>2024-12-25T15:02:55Z</time>
      </trkpt>
      <trkpt lat="44.79777" lon="1.5592">
        <ele>143.3</ele>
        <time>2024-12-25T15:02:56Z</time>
      </trkpt>
      <trkpt lat="44.79776" lon="1.55921">
        <ele>143.4</ele>
        <time>2024-12-25T15:02:57Z</time>
      </trkpt>
      <trkpt lat="44.79774" lon="1.55923">
        <ele>143.4</ele>
        <time>2024-12-25T15:02:58Z</time>
      </trkpt>
      <trkpt lat="44.79772" lon="1.55925">
        <ele>143.6</ele>
        <time>2024-12-25T15:02:59Z</time>
      </trkpt>
      <trkpt lat="44.79771" lon="1.55926">
        <ele>143.6</ele>
        <time>2024-12-25T15:03:00Z</time>
      </trkpt>
      <trkpt lat="44.79769" lon="1.55929">
        <ele>143.8</ele>
        <time>2024-12-25T15:03:01Z</time>
      </trkpt>
      <trkpt lat="44.79769" lon="1.5593">
        <ele>143.8</ele>
        <time>2024-12-25T15:03:02Z</time>
      </trkpt>
      <trkpt lat="44.79768" lon="1.5593">
        <ele>143.8</ele>
        <time>2024-12-25T15:03:03Z</time>
      </trkpt>
      <trkpt lat="44.79767" lon="1.55931">
        <ele>143.9</ele>
        <time>2024-12-25T15:03:04Z</time>
      </trkpt>
      <trkpt lat="44.79766" lon="1.55933">
        <ele>143.9</ele>
        <time>2024-12-25T15:03:05Z</time>
      </trkpt>
      <trkpt lat="44.79764" lon="1.55935">
        <ele>144.1</ele>
        <time>2024-12-25T15:03:07Z</time>
      </trkpt>
      <trkpt lat="44.79763" lon="1.55936">
        <ele>144.1</ele>
        <time>2024-12-25T15:03:08Z</time>
      </trkpt>
      <trkpt lat="44.79762" lon="1.55937">
        <ele>144.2</ele>
        <time>2024-12-25T15:03:09Z</time>
      </trkpt>
      <trkpt lat="44.7976" lon="1.55938">
        <ele>144.3</ele>
        <time>2024-12-25T15:03:10Z</time>
      </trkpt>
      <trkpt lat="44.79758" lon="1.5594">
        <ele>144.4</ele>
        <time>2024-12-25T15:03:11Z</time>
      </trkpt>
      <trkpt lat="44.79758" lon="1.55941">
        <ele>144.4</ele>
        <time>2024-12-25T15:03:12Z</time>
      </trkpt>
      <trkpt lat="44.79757" lon="1.55942">
        <ele>144.5</ele>
        <time>2024-12-25T15:03:13Z</time>
      </trkpt>
      <trkpt lat="44.79756" lon="1.55944">
        <ele>144.5</ele>
        <time>2024-12-25T15:03:14Z</time>
      </trkpt>
      <trkpt lat="44.79754" lon="1.55945">
        <ele>144.6</ele>
        <time>2024-12-25T15:03:16Z</time>
      </trkpt>
      <trkpt lat="44.79751" lon="1.55947">
        <ele>144.8</ele>
        <time>2024-12-25T15:03:17Z</time>
      </trkpt>
      <trkpt lat="44.79751" lon="1.55948">
        <ele>144.8</ele>
        <time>2024-12-25T15:03:19Z</time>
      </trkpt>
      <trkpt lat="44.7975" lon="1.55949">
        <ele>144.8</ele>
        <time>2024-12-25T15:03:20Z</time>
      </trkpt>
      <trkpt lat="44.7975" lon="1.5595">
        <ele>144.9</ele>
        <time>2024-12-25T15:03:21Z</time>
      </trkpt>
      <trkpt lat="44.79749" lon="1.55952">
        <ele>145</ele>
        <time>2024-12-25T15:03:22Z</time>
      </trkpt>
      <trkpt lat="44.79747" lon="1.55954">
        <ele>145.1</ele>
        <time>2024-12-25T15:03:23Z</time>
      </trkpt>
      <trkpt lat="44.79744" lon="1.55957">
        <ele>145.2</ele>
        <time>2024-12-25T15:03:24Z</time>
      </trkpt>
      <trkpt lat="44.79743" lon="1.55957">
        <ele>145.3</ele>
        <time>2024-12-25T15:03:25Z</time>
      </trkpt>
      <trkpt lat="44.79743" lon="1.5596">
        <ele>145.3</ele>
        <time>2024-12-25T15:03:26Z</time>
      </trkpt>
      <trkpt lat="44.79742" lon="1.55962">
        <ele>145.4</ele>
        <time>2024-12-25T15:03:27Z</time>
      </trkpt>
      <trkpt lat="44.79741" lon="1.55964">
        <ele>145.5</ele>
        <time>2024-12-25T15:03:28Z</time>
      </trkpt>
      <trkpt lat="44.7974" lon="1.55964">
        <ele>145.5</ele>
        <time>2024-12-25T15:03:29Z</time>
      </trkpt>
      <trkpt lat="44.79739" lon="1.55965">
        <ele>145.6</ele>
        <time>2024-12-25T15:03:30Z</time>
      </trkpt>
      <trkpt lat="44.79738" lon="1.55967">
        <ele>145.7</ele>
        <time>2024-12-25T15:03:32Z</time>
      </trkpt>
      <trkpt lat="44.79737" lon="1.55969">
        <ele>145.7</ele>
        <time>2024-12-25T15:03:33Z</time>
      </trkpt>
      <trkpt lat="44.79737" lon="1.55971">
        <ele>145.8</ele>
        <time>2024-12-25T15:03:35Z</time>
      </trkpt>
      <trkpt lat="44.79737" lon="1.55972">
        <ele>145.8</ele>
        <time>2024-12-25T15:03:36Z</time>
      </trkpt>
      <trkpt lat="44.79736" lon="1.55974">
        <ele>145.8</ele>
        <time>2024-12-25T15:03:37Z</time>
      </trkpt>
      <trkpt lat="44.79734" lon="1.55977">
        <ele>146</ele>
        <time>2024-12-25T15:03:38Z</time>
      </trkpt>
      <trkpt lat="44.79732" lon="1.5598">
        <ele>146.1</ele>
        <time>2024-12-25T15:03:40Z</time>
      </trkpt>
      <trkpt lat="44.79732" lon="1.55981">
        <ele>146.1</ele>
        <time>2024-12-25T15:03:41Z</time>
      </trkpt>
      <trkpt lat="44.79732" lon="1.55983">
        <ele>146.2</ele>
        <time>2024-12-25T15:03:42Z</time>
      </trkpt>
      <trkpt lat="44.79732" lon="1.55984">
        <ele>146.2</ele>
        <time>2024-12-25T15:03:43Z</time>
      </trkpt>
      <trkpt lat="44.79732" lon="1.55986">
        <ele>146.3</ele>
        <time>2024-12-25T15:03:44Z</time>
      </trkpt>
      <trkpt lat="44.79731" lon="1.55988">
        <ele>146.3</ele>
        <time>2024-12-25T15:03:45Z</time>
      </trkpt>
      <trkpt lat="44.79729" lon="1.55991">
        <ele>146.4</ele>
        <time>2024-12-25T15:03:46Z</time>
      </trkpt>
      <trkpt lat="44.79729" lon="1.55992">
        <ele>146.5</ele>
        <time>2024-12-25T15:03:47Z</time>
      </trkpt>
      <trkpt lat="44.79727" lon="1.55994">
        <ele>146.5</ele>
        <time>2024-12-25T15:03:48Z</time>
      </trkpt>
      <trkpt lat="44.79727" lon="1.55995">
        <ele>146.6</ele>
        <time>2024-12-25T15:03:49Z</time>
      </trkpt>
      <trkpt lat="44.79727" lon="1.55996">
        <ele>146.6</ele>
        <time>2024-12-25T15:03:50Z</time>
      </trkpt>
      <trkpt lat="44.79726" lon="1.55997">
        <ele>146.7</ele>
        <time>2024-12-25T15:03:51Z</time>
      </trkpt>
      <trkpt lat="44.79726" lon="1.55999">
        <ele>146.7</ele>
        <time>2024-12-25T15:03:52Z</time>
      </trkpt>
      <trkpt lat="44.79725" lon="1.56001">
        <ele>146.8</ele>
        <time>2024-12-25T15:03:53Z</time>
      </trkpt>
      <trkpt lat="44.79724" lon="1.56002">
        <ele>146.8</ele>
        <time>2024-12-25T15:03:54Z</time>
      </trkpt>
      <trkpt lat="44.79723" lon="1.56005">
        <ele>146.9</ele>
        <time>2024-12-25T15:03:55Z</time>
      </trkpt>
      <trkpt lat="44.79722" lon="1.56007">
        <ele>147</ele>
        <time>2024-12-25T15:03:56Z</time>
      </trkpt>
      <trkpt lat="44.79721" lon="1.56008">
        <ele>147.1</ele>
        <time>2024-12-25T15:03:57Z</time>
      </trkpt>
      <trkpt lat="44.79721" lon="1.5601">
        <ele>147.1</ele>
        <time>2024-12-25T15:03:58Z</time>
      </trkpt>
      <trkpt lat="44.79721" lon="1.56011">
        <ele>147.1</ele>
        <time>2024-12-25T15:03:59Z</time>
      </trkpt>
      <trkpt lat="44.79721" lon="1.56013">
        <ele>147.2</ele>
        <time>2024-12-25T15:04:00Z</time>
      </trkpt>
      <trkpt lat="44.7972" lon="1.56015">
        <ele>147.3</ele>
        <time>2024-12-25T15:04:01Z</time>
      </trkpt>
      <trkpt lat="44.79719" lon="1.56017">
        <ele>147.4</ele>
        <time>2024-12-25T15:04:02Z</time>
      </trkpt>
      <trkpt lat="44.79719" lon="1.56019">
        <ele>147.4</ele>
        <time>2024-12-25T15:04:03Z</time>
      </trkpt>
      <trkpt lat="44.79718" lon="1.56022">
        <ele>147.5</ele>
        <time>2024-12-25T15:04:04Z</time>
      </trkpt>
      <trkpt lat="44.79717" lon="1.56023">
        <ele>147.6</ele>
        <time>2024-12-25T15:04:05Z</time>
      </trkpt>
      <trkpt lat="44.79717" lon="1.56025">
        <ele>147.6</ele>
        <time>2024-12-25T15:04:06Z</time>
      </trkpt>
      <trkpt lat="44.79717" lon="1.56026">
        <ele>147.6</ele>
        <time>2024-12-25T15:04:07Z</time>
      </trkpt>
      <trkpt lat="44.79717" lon="1.56027">
        <ele>147.7</ele>
        <time>2024-12-25T15:04:08Z</time>
      </trkpt>
      <trkpt lat="44.79717" lon="1.56028">
        <ele>147.7</ele>
        <time>2024-12-25T15:04:09Z</time>
      </trkpt>
      <trkpt lat="44.79716" lon="1.56032">
        <ele>147.8</ele>
        <time>2024-12-25T15:04:10Z</time>
      </trkpt>
      <trkpt lat="44.79716" lon="1.56033">
        <ele>147.9</ele>
        <time>2024-12-25T15:04:11Z</time>
      </trkpt>
      <trkpt lat="44.79714" lon="1.56037">
        <ele>148</ele>
        <time>2024-12-25T15:04:12Z</time>
      </trkpt>
      <trkpt lat="44.79713" lon="1.56038">
        <ele>148.1</ele>
        <time>2024-12-25T15:04:13Z</time>
      </trkpt>
      <trkpt lat="44.79713" lon="1.56039">
        <ele>148.1</ele>
        <time>2024-12-25T15:04:14Z</time>
      </trkpt>
      <trkpt lat="44.79712" lon="1.5604">
        <ele>148.1</ele>
        <time>2024-12-25T15:04:15Z</time>
      </trkpt>
      <trkpt lat="44.79713" lon="1.56041">
        <ele>148.2</ele>
        <time>2024-12-25T15:04:16Z</time>
      </trkpt>
      <trkpt lat="44.79712" lon="1.56045">
        <ele>148.3</ele>
        <time>2024-12-25T15:04:17Z</time>
      </trkpt>
      <trkpt lat="44.79711" lon="1.56047">
        <ele>148.4</ele>
        <time>2024-12-25T15:04:18Z</time>
      </trkpt>
      <trkpt lat="44.79709" lon="1.5605">
        <ele>148.5</ele>
        <time>2024-12-25T15:04:20Z</time>
      </trkpt>
      <trkpt lat="44.79707" lon="1.56053">
        <ele>148.6</ele>
        <time>2024-12-25T15:04:21Z</time>
      </trkpt>
      <trkpt lat="44.79706" lon="1.56054">
        <ele>148.7</ele>
        <time>2024-12-25T15:04:23Z</time>
      </trkpt>
      <trkpt lat="44.79705" lon="1.56056">
        <ele>148.7</ele>
        <time>2024-12-25T15:04:24Z</time>
      </trkpt>
      <trkpt lat="44.79705" lon="1.56057">
        <ele>148.8</ele>
        <time>2024-12-25T15:04:25Z</time>
      </trkpt>
      <trkpt lat="44.79705" lon="1.56058">
        <ele>148.8</ele>
        <time>2024-12-25T15:04:26Z</time>
      </trkpt>
      <trkpt lat="44.79703" lon="1.56062">
        <ele>148.9</ele>
        <time>2024-12-25T15:04:27Z</time>
      </trkpt>
      <trkpt lat="44.79703" lon="1.56063">
        <ele>149</ele>
        <time>2024-12-25T15:04:28Z</time>
      </trkpt>
      <trkpt lat="44.79701" lon="1.56064">
        <ele>149.1</ele>
        <time>2024-12-25T15:04:29Z</time>
      </trkpt>
      <trkpt lat="44.79699" lon="1.56066">
        <ele>149.2</ele>
        <time>2024-12-25T15:04:30Z</time>
      </trkpt>
      <trkpt lat="44.79699" lon="1.56066">
        <ele>149.2</ele>
        <time>2024-12-25T15:04:32Z</time>
      </trkpt>
      <trkpt lat="44.79699" lon="1.56067">
        <ele>149.2</ele>
        <time>2024-12-25T15:04:33Z</time>
      </trkpt>
      <trkpt lat="44.79698" lon="1.56069">
        <ele>149.3</ele>
        <time>2024-12-25T15:04:34Z</time>
      </trkpt>
      <trkpt lat="44.79696" lon="1.56073">
        <ele>149.4</ele>
        <time>2024-12-25T15:04:35Z</time>
      </trkpt>
      <trkpt lat="44.79695" lon="1.56074">
        <ele>149.5</ele>
        <time>2024-12-25T15:04:36Z</time>
      </trkpt>
      <trkpt lat="44.79694" lon="1.56076">
        <ele>149.6</ele>
        <time>2024-12-25T15:04:37Z</time>
      </trkpt>
      <trkpt lat="44.79693" lon="1.56077">
        <ele>149.6</ele>
        <time>2024-12-25T15:04:38Z</time>
      </trkpt>
      <trkpt lat="44.79693" lon="1.56078">
        <ele>149.6</ele>
        <time>2024-12-25T15:04:40Z</time>
      </trkpt>
      <trkpt lat="44.79692" lon="1.56079">
        <ele>149.7</ele>
        <time>2024-12-25T15:04:41Z</time>
      </trkpt>
      <trkpt lat="44.79691" lon="1.5608">
        <ele>149.7</ele>
        <time>2024-12-25T15:04:42Z</time>
      </trkpt>
      <trkpt lat="44.79689" lon="1.56083">
        <ele>149.8</ele>
        <time>2024-12-25T15:04:43Z</time>
      </trkpt>
      <trkpt lat="44.79689" lon="1.56084">
        <ele>149.9</ele>
        <time>2024-12-25T15:04:44Z</time>
      </trkpt>
      <trkpt lat="44.79686" lon="1.56086">
        <ele>150</ele>
        <time>2024-12-25T15:04:45Z</time>
      </trkpt>
      <trkpt lat="44.79683" lon="1.56088">
        <ele>150.1</ele>
        <time>2024-12-25T15:04:46Z</time>
      </trkpt>
      <trkpt lat="44.79682" lon="1.56088">
        <ele>150.2</ele>
        <time>2024-12-25T15:04:47Z</time>
      </trkpt>
      <trkpt lat="44.79682" lon="1.56088">
        <ele>150.2</ele>
        <time>2024-12-25T15:04:48Z</time>
      </trkpt>
      <trkpt lat="44.79682" lon="1.56089">
        <ele>150.2</ele>
        <time>2024-12-25T15:04:49Z</time>
      </trkpt>
      <trkpt lat="44.79682" lon="1.5609">
        <ele>150.2</ele>
        <time>2024-12-25T15:04:50Z</time>
      </trkpt>
      <trkpt lat="44.79681" lon="1.56092">
        <ele>150.3</ele>
        <time>2024-12-25T15:04:51Z</time>
      </trkpt>
      <trkpt lat="44.79678" lon="1.56094">
        <ele>150.4</ele>
        <time>2024-12-25T15:04:52Z</time>
      </trkpt>
      <trkpt lat="44.79677" lon="1.56095">
        <ele>150.5</ele>
        <time>2024-12-25T15:04:53Z</time>
      </trkpt>
      <trkpt lat="44.79675" lon="1.56098">
        <ele>150.6</ele>
        <time>2024-12-25T15:04:54Z</time>
      </trkpt>
      <trkpt lat="44.79674" lon="1.56098">
        <ele>150.6</ele>
        <time>2024-12-25T15:04:55Z</time>
      </trkpt>
      <trkpt lat="44.79673" lon="1.56099">
        <ele>150.7</ele>
        <time>2024-12-25T15:04:56Z</time>
      </trkpt>
      <trkpt lat="44.79672" lon="1.56097">
        <ele>150.7</ele>
        <time>2024-12-25T15:04:57Z</time>
      </trkpt>
      <trkpt lat="44.79672" lon="1.56097">
        <ele>150.7</ele>
        <time>2024-12-25T15:04:58Z</time>
      </trkpt>
      <trkpt lat="44.79671" lon="1.56097">
        <ele>150.8</ele>
        <time>2024-12-25T15:04:59Z</time>
      </trkpt>
      <trkpt lat="44.7967" lon="1.56098">
        <ele>150.8</ele>
        <time>2024-12-25T15:05:00Z</time>
      </trkpt>
      <trkpt lat="44.79668" lon="1.56099">
        <ele>150.9</ele>
        <time>2024-12-25T15:05:01Z</time>
      </trkpt>
      <trkpt lat="44.79665" lon="1.56101">
        <ele>151</ele>
        <time>2024-12-25T15:05:02Z</time>
      </trkpt>
      <trkpt lat="44.79664" lon="1.56101">
        <ele>151.1</ele>
        <time>2024-12-25T15:05:03Z</time>
      </trkpt>
      <trkpt lat="44.79664" lon="1.56104">
        <ele>151.2</ele>
        <time>2024-12-25T15:05:04Z</time>
      </trkpt>
      <trkpt lat="44.79663" lon="1.56105">
        <ele>151.2</ele>
        <time>2024-12-25T15:05:05Z</time>
      </trkpt>
      <trkpt lat="44.79662" lon="1.56104">
        <ele>151.2</ele>
        <time>2024-12-25T15:05:06Z</time>
      </trkpt>
      <trkpt lat="44.79662" lon="1.56103">
        <ele>151.3</ele>
        <time>2024-12-25T15:05:07Z</time>
      </trkpt>
      <trkpt lat="44.79662" lon="1.56103">
        <ele>151.3</ele>
        <time>2024-12-25T15:05:08Z</time>
      </trkpt>
      <trkpt lat="44.79663" lon="1.56102">
        <ele>151.3</ele>
        <time>2024-12-25T15:05:09Z</time>
      </trkpt>
      <trkpt lat="44.79663" lon="1.56102">
        <ele>151.3</ele>
        <time>2024-12-25T15:05:10Z</time>
      </trkpt>
    </trkseg>
  </trk>
</gpx>